<?xml version="1.0" encoding="UTF-8"?>
<gpx version="1.1" creator="2bulu-scraper" xmlns="http://www.topografix.com/GPX/1/1">
  <metadata><name>峨眉山后山免门票（核桃坝-黑垭口-万佛顶-金顶）</name><desc>source: 2bulu.com trackId=79425569; exported 2026-09-01T15:55:54.331Z</desc>
    <bounds minlat="29.456218" minlon="103.280055" maxlat="29.522928" maxlon="103.337315"/>
    <link href="https://www.2bulu.com/track/t-DH5n%252BAtBagfp%252FR2KBg5Tzw%253D%253D.htm"><text>2bulu 源页面</text></link>
  </metadata>
  <wpt lat="29.456723" lon="103.281714"><ele>1636</ele><name>停车一天10元</name></wpt>
  <wpt lat="29.48307" lon="103.284447"><ele>1829</ele><name></name></wpt>
  <wpt lat="29.483177" lon="103.284521"><ele>1828</ele><name>警亭</name></wpt>
  <wpt lat="29.483375" lon="103.285072"><ele>1838</ele><name></name></wpt>
  <wpt lat="29.484488" lon="103.284775"><ele>1837</ele><name></name></wpt>
  <wpt lat="29.49845" lon="103.297347"><ele>2146</ele><name>树林穿梭</name></wpt>
  <wpt lat="29.500637" lon="103.299858"><ele>2201</ele><name></name></wpt>
  <wpt lat="29.504658" lon="103.302387"><ele>2292</ele><name>本地车牌开车可到</name></wpt>
  <wpt lat="29.505028" lon="103.304537"><ele>2355</ele><name>黑垭口（本地车能直接开到）</name></wpt>
  <wpt lat="29.505017" lon="103.304572"><ele>2353</ele><name>第一道门</name></wpt>
  <wpt lat="29.502842" lon="103.312317"><ele>2666</ele><name></name></wpt>
  <wpt lat="29.505397" lon="103.317117"><ele>2762</ele><name>网红空心树</name></wpt>
  <wpt lat="29.506375" lon="103.322617"><ele>2944</ele><name></name></wpt>
  <wpt lat="29.506928" lon="103.323412"><ele>2945</ele><name>第二道门</name></wpt>
  <wpt lat="29.507212" lon="103.325547"><ele>2964</ele><name></name></wpt>
  <wpt lat="29.51003" lon="103.331458"><ele>3086</ele><name>终于到了</name></wpt>
  <wpt lat="29.510237" lon="103.332122"><ele>3105</ele><name>扎营</name></wpt>
  <wpt lat="29.510063" lon="103.332345"><ele>3108</ele><name></name></wpt>
  <wpt lat="29.510245" lon="103.332038"><ele>3104</ele><name>扎营要扎到柱子里面</name></wpt>
  <wpt lat="29.510062" lon="103.332047"><ele>3095</ele><name></name></wpt>
  <wpt lat="29.510172" lon="103.3321"><ele>3095</ele><name>远眺贡嘎</name></wpt>
  <wpt lat="29.50993" lon="103.332337"><ele>3096</ele><name></name></wpt>
  <wpt lat="29.51172" lon="103.332475"><ele>3079</ele><name>去金顶</name></wpt>
  <wpt lat="29.515093" lon="103.331594"><ele>3039</ele><name>千佛禅院遗址/冷杉林</name></wpt>
  <wpt lat="29.515925" lon="103.331795"><ele>3034</ele><name></name></wpt>
  <wpt lat="29.520503" lon="103.334853"><ele>3022</ele><name>远眺万佛顶</name></wpt>
  <wpt lat="29.52208" lon="103.33638"><ele>3062</ele><name></name></wpt>
  <wpt lat="29.52253" lon="103.3368"><ele>3064</ele><name></name></wpt>
  <wpt lat="29.522903" lon="103.336487"><ele>3064</ele><name></name></wpt>
  <wpt lat="29.52285" lon="103.336128"><ele>3063</ele><name></name></wpt>
  <wpt lat="29.52258" lon="103.336333"><ele>3063</ele><name></name></wpt>
  <wpt lat="29.522553" lon="103.336547"><ele>3065</ele><name>旁边有免费热水</name></wpt>
  <wpt lat="29.522472" lon="103.336913"><ele>3066</ele><name></name></wpt>
  <wpt lat="29.522413" lon="103.33712"><ele>3070</ele><name></name></wpt>
  <wpt lat="29.513313" lon="103.33178"><ele>3031</ele><name></name></wpt>
  <wpt lat="29.512723" lon="103.331426"><ele>3029</ele><name>废弃卫生间</name></wpt>
  <wpt lat="29.510526" lon="103.33159"><ele>3078</ele><name>五峰石</name></wpt>
  <wpt lat="29.510441" lon="103.331385"><ele>3082</ele><name>冰雪神功（仙人回头）</name></wpt>
  <wpt lat="29.510275" lon="103.332467"><ele>3084</ele><name></name></wpt>
  <wpt lat="29.510305" lon="103.332475"><ele>3083</ele><name></name></wpt>
  <wpt lat="29.510045" lon="103.332108"><ele>3099</ele><name>万佛顶里面</name></wpt>
  <wpt lat="29.510047" lon="103.33217"><ele>3101</ele><name>万佛顶三楼</name></wpt>
  <wpt lat="29.510162" lon="103.3322"><ele>3087</ele><name>万佛顶二楼</name></wpt>
  <wpt lat="29.45682" lon="103.281662"><ele>1641</ele><name></name></wpt>
  <trk><name>峨眉山后山免门票（核桃坝-黑垭口-万佛顶-金顶）</name>
      <trkseg>
        <trkpt lat="29.456679" lon="103.281352"><ele>1638.6603</ele><time>2026-02-18T13:59:37.000Z</time></trkpt>
        <trkpt lat="29.456679" lon="103.281351"><ele>1638.6771</ele><time>2026-02-18T13:59:40.000Z</time></trkpt>
        <trkpt lat="29.456638" lon="103.281328"><ele>1633.7866</ele><time>2026-02-18T14:00:20.000Z</time></trkpt>
        <trkpt lat="29.456658" lon="103.281383"><ele>1634.6428</ele><time>2026-02-18T14:00:52.000Z</time></trkpt>
        <trkpt lat="29.456654" lon="103.281441"><ele>1633.6345</ele><time>2026-02-18T14:01:10.000Z</time></trkpt>
        <trkpt lat="29.456676" lon="103.281488"><ele>1632.0593</ele><time>2026-02-18T14:01:21.000Z</time></trkpt>
        <trkpt lat="29.456697" lon="103.281535"><ele>1632.7417</ele><time>2026-02-18T14:01:26.000Z</time></trkpt>
        <trkpt lat="29.456706" lon="103.281596"><ele>1633.4614</ele><time>2026-02-18T14:01:31.000Z</time></trkpt>
        <trkpt lat="29.456707" lon="103.281653"><ele>1635.0175</ele><time>2026-02-18T14:01:36.000Z</time></trkpt>
        <trkpt lat="29.456719" lon="103.28171"><ele>1635.8821</ele><time>2026-02-18T14:01:41.000Z</time></trkpt>
        <trkpt lat="29.456733" lon="103.281762"><ele>1636.1672</ele><time>2026-02-18T14:01:47.000Z</time></trkpt>
        <trkpt lat="29.456749" lon="103.281808"><ele>1637.4156</ele><time>2026-02-18T14:01:51.000Z</time></trkpt>
        <trkpt lat="29.456773" lon="103.281858"><ele>1638.4268</ele><time>2026-02-18T14:01:56.000Z</time></trkpt>
        <trkpt lat="29.456803" lon="103.281906"><ele>1639.527</ele><time>2026-02-18T14:02:01.000Z</time></trkpt>
        <trkpt lat="29.456828" lon="103.281966"><ele>1640.2834</ele><time>2026-02-18T14:02:13.000Z</time></trkpt>
        <trkpt lat="29.456824" lon="103.281915"><ele>1640.1436</ele><time>2026-02-18T14:02:27.000Z</time></trkpt>
        <trkpt lat="29.456804" lon="103.281872"><ele>1640.6985</ele><time>2026-02-18T14:02:31.000Z</time></trkpt>
        <trkpt lat="29.45678" lon="103.281824"><ele>1641.116</ele><time>2026-02-18T14:02:35.000Z</time></trkpt>
        <trkpt lat="29.456768" lon="103.281771"><ele>1640.5461</ele><time>2026-02-18T14:02:39.000Z</time></trkpt>
        <trkpt lat="29.456778" lon="103.28171"><ele>1640.2023</ele><time>2026-02-18T14:02:44.000Z</time></trkpt>
        <trkpt lat="29.456824" lon="103.281675"><ele>1640.6683</ele><time>2026-02-18T14:02:49.000Z</time></trkpt>
        <trkpt lat="29.456879" lon="103.281655"><ele>1641.3846</ele><time>2026-02-18T14:02:55.000Z</time></trkpt>
        <trkpt lat="29.45692" lon="103.281633"><ele>1642.3191</ele><time>2026-02-18T14:02:59.000Z</time></trkpt>
        <trkpt lat="29.456959" lon="103.281613"><ele>1641.842</ele><time>2026-02-18T14:03:03.000Z</time></trkpt>
        <trkpt lat="29.457007" lon="103.281603"><ele>1641.3401</ele><time>2026-02-18T14:03:08.000Z</time></trkpt>
        <trkpt lat="29.457044" lon="103.28164"><ele>1640.3385</ele><time>2026-02-18T14:03:13.000Z</time></trkpt>
        <trkpt lat="29.457067" lon="103.281689"><ele>1639.5872</ele><time>2026-02-18T14:03:17.000Z</time></trkpt>
        <trkpt lat="29.457092" lon="103.281748"><ele>1638.7086</ele><time>2026-02-18T14:03:22.000Z</time></trkpt>
        <trkpt lat="29.457116" lon="103.281806"><ele>1638.8547</ele><time>2026-02-18T14:03:27.000Z</time></trkpt>
        <trkpt lat="29.457144" lon="103.281866"><ele>1639.4354</ele><time>2026-02-18T14:03:33.000Z</time></trkpt>
        <trkpt lat="29.457182" lon="103.2819"><ele>1640.996</ele><time>2026-02-18T14:03:41.000Z</time></trkpt>
        <trkpt lat="29.457144" lon="103.281873"><ele>1642.3632</ele><time>2026-02-18T14:04:17.000Z</time></trkpt>
        <trkpt lat="29.457108" lon="103.281835"><ele>1642.3806</ele><time>2026-02-18T14:04:22.000Z</time></trkpt>
        <trkpt lat="29.457072" lon="103.281789"><ele>1642.2366</ele><time>2026-02-18T14:04:27.000Z</time></trkpt>
        <trkpt lat="29.457034" lon="103.281736"><ele>1641.0526</ele><time>2026-02-18T14:04:33.000Z</time></trkpt>
        <trkpt lat="29.45702" lon="103.281677"><ele>1640.068</ele><time>2026-02-18T14:04:39.000Z</time></trkpt>
        <trkpt lat="29.457" lon="103.281633"><ele>1639.7236</ele><time>2026-02-18T14:04:43.000Z</time></trkpt>
        <trkpt lat="29.456959" lon="103.28162"><ele>1640.0883</ele><time>2026-02-18T14:04:48.000Z</time></trkpt>
        <trkpt lat="29.45691" lon="103.281645"><ele>1640.4753</ele><time>2026-02-18T14:04:53.000Z</time></trkpt>
        <trkpt lat="29.456857" lon="103.281689"><ele>1638.4304</ele><time>2026-02-18T14:05:00.000Z</time></trkpt>
        <trkpt lat="29.45682" lon="103.28171"><ele>1637.4673</ele><time>2026-02-18T14:05:02.000Z</time></trkpt>
        <trkpt lat="29.456771" lon="103.281716"><ele>1636.8715</ele><time>2026-02-18T14:05:06.000Z</time></trkpt>
        <trkpt lat="29.456719" lon="103.281699"><ele>1637.2386</ele><time>2026-02-18T14:05:10.000Z</time></trkpt>
        <trkpt lat="29.456676" lon="103.281652"><ele>1637.0796</ele><time>2026-02-18T14:05:15.000Z</time></trkpt>
        <trkpt lat="29.456663" lon="103.281594"><ele>1636.6145</ele><time>2026-02-18T14:05:19.000Z</time></trkpt>
        <trkpt lat="29.45666" lon="103.281536"><ele>1635.7355</ele><time>2026-02-18T14:05:23.000Z</time></trkpt>
        <trkpt lat="29.456652" lon="103.281474"><ele>1634.8994</ele><time>2026-02-18T14:05:28.000Z</time></trkpt>
        <trkpt lat="29.456634" lon="103.281418"><ele>1635.5402</ele><time>2026-02-18T14:05:32.000Z</time></trkpt>
        <trkpt lat="29.456619" lon="103.281353"><ele>1635.1375</ele><time>2026-02-18T14:05:37.000Z</time></trkpt>
        <trkpt lat="29.456598" lon="103.281307"><ele>1635.5105</ele><time>2026-02-18T14:05:41.000Z</time></trkpt>
        <trkpt lat="29.456577" lon="103.281254"><ele>1634.7941</ele><time>2026-02-18T14:05:46.000Z</time></trkpt>
        <trkpt lat="29.456565" lon="103.281201"><ele>1633.5664</ele><time>2026-02-18T14:05:51.000Z</time></trkpt>
        <trkpt lat="29.45656" lon="103.281147"><ele>1632.3821</ele><time>2026-02-18T14:05:55.000Z</time></trkpt>
        <trkpt lat="29.456561" lon="103.281085"><ele>1632.1725</ele><time>2026-02-18T14:06:01.000Z</time></trkpt>
        <trkpt lat="29.456571" lon="103.281025"><ele>1631.5197</ele><time>2026-02-18T14:06:06.000Z</time></trkpt>
        <trkpt lat="29.456575" lon="103.280973"><ele>1632.3582</ele><time>2026-02-18T14:06:10.000Z</time></trkpt>
        <trkpt lat="29.456586" lon="103.28091"><ele>1632.4451</ele><time>2026-02-18T14:06:15.000Z</time></trkpt>
        <trkpt lat="29.456591" lon="103.280856"><ele>1632.1393</ele><time>2026-02-18T14:06:19.000Z</time></trkpt>
        <trkpt lat="29.456591" lon="103.280799"><ele>1632.2357</ele><time>2026-02-18T14:06:24.000Z</time></trkpt>
        <trkpt lat="29.456575" lon="103.280752"><ele>1632.4187</ele><time>2026-02-18T14:06:28.000Z</time></trkpt>
        <trkpt lat="29.456552" lon="103.280704"><ele>1631.9028</ele><time>2026-02-18T14:06:32.000Z</time></trkpt>
        <trkpt lat="29.456531" lon="103.280653"><ele>1630.8022</ele><time>2026-02-18T14:06:36.000Z</time></trkpt>
        <trkpt lat="29.456504" lon="103.280602"><ele>1630.7622</ele><time>2026-02-18T14:06:40.000Z</time></trkpt>
        <trkpt lat="29.456472" lon="103.280546"><ele>1631.4816</ele><time>2026-02-18T14:06:45.000Z</time></trkpt>
        <trkpt lat="29.456445" lon="103.280496"><ele>1632.6299</ele><time>2026-02-18T14:06:50.000Z</time></trkpt>
        <trkpt lat="29.456419" lon="103.280449"><ele>1632.9977</ele><time>2026-02-18T14:06:55.000Z</time></trkpt>
        <trkpt lat="29.456392" lon="103.2804"><ele>1632.867</ele><time>2026-02-18T14:07:00.000Z</time></trkpt>
        <trkpt lat="29.456362" lon="103.280365"><ele>1632.7355</ele><time>2026-02-18T14:07:04.000Z</time></trkpt>
        <trkpt lat="29.45633" lon="103.280315"><ele>1632.2302</ele><time>2026-02-18T14:07:08.000Z</time></trkpt>
        <trkpt lat="29.456301" lon="103.280264"><ele>1632.4618</ele><time>2026-02-18T14:07:13.000Z</time></trkpt>
        <trkpt lat="29.456271" lon="103.280219"><ele>1632.7545</ele><time>2026-02-18T14:07:17.000Z</time></trkpt>
        <trkpt lat="29.456239" lon="103.280174"><ele>1632.8522</ele><time>2026-02-18T14:07:21.000Z</time></trkpt>
        <trkpt lat="29.456218" lon="103.280116"><ele>1632.3392</ele><time>2026-02-18T14:07:26.000Z</time></trkpt>
        <trkpt lat="29.456239" lon="103.28006"><ele>1632.5757</ele><time>2026-02-18T14:07:32.000Z</time></trkpt>
        <trkpt lat="29.456289" lon="103.280055"><ele>1632.6124</ele><time>2026-02-18T14:07:39.000Z</time></trkpt>
        <trkpt lat="29.456339" lon="103.280079"><ele>1632.5703</ele><time>2026-02-18T14:07:49.000Z</time></trkpt>
        <trkpt lat="29.456374" lon="103.280122"><ele>1633.4679</ele><time>2026-02-18T14:08:00.000Z</time></trkpt>
        <trkpt lat="29.456412" lon="103.280143"><ele>1632.9684</ele><time>2026-02-18T14:08:06.000Z</time></trkpt>
        <trkpt lat="29.456453" lon="103.280175"><ele>1633.3914</ele><time>2026-02-18T14:08:11.000Z</time></trkpt>
        <trkpt lat="29.45649" lon="103.280215"><ele>1634.5798</ele><time>2026-02-18T14:08:17.000Z</time></trkpt>
        <trkpt lat="29.456527" lon="103.280251"><ele>1635.0647</ele><time>2026-02-18T14:08:23.000Z</time></trkpt>
        <trkpt lat="29.456562" lon="103.280288"><ele>1636.4814</ele><time>2026-02-18T14:08:28.000Z</time></trkpt>
        <trkpt lat="29.456598" lon="103.280323"><ele>1636.3616</ele><time>2026-02-18T14:08:33.000Z</time></trkpt>
        <trkpt lat="29.456636" lon="103.280361"><ele>1636.5156</ele><time>2026-02-18T14:08:39.000Z</time></trkpt>
        <trkpt lat="29.456671" lon="103.280402"><ele>1637.3444</ele><time>2026-02-18T14:08:44.000Z</time></trkpt>
        <trkpt lat="29.456723" lon="103.280429"><ele>1637.7509</ele><time>2026-02-18T14:08:55.000Z</time></trkpt>
        <trkpt lat="29.456767" lon="103.280449"><ele>1637.5135</ele><time>2026-02-18T14:09:05.000Z</time></trkpt>
        <trkpt lat="29.456805" lon="103.280485"><ele>1637.9784</ele><time>2026-02-18T14:09:11.000Z</time></trkpt>
        <trkpt lat="29.456849" lon="103.280526"><ele>1639.16</ele><time>2026-02-18T14:09:16.000Z</time></trkpt>
        <trkpt lat="29.456893" lon="103.28057"><ele>1639.6682</ele><time>2026-02-18T14:09:22.000Z</time></trkpt>
        <trkpt lat="29.456925" lon="103.280621"><ele>1640.0548</ele><time>2026-02-18T14:09:51.000Z</time></trkpt>
        <trkpt lat="29.45695" lon="103.280654"><ele>1640.4929</ele><time>2026-02-18T14:09:57.000Z</time></trkpt>
        <trkpt lat="29.456986" lon="103.280703"><ele>1641.1656</ele><time>2026-02-18T14:10:02.000Z</time></trkpt>
        <trkpt lat="29.457025" lon="103.280763"><ele>1642.6774</ele><time>2026-02-18T14:10:09.000Z</time></trkpt>
        <trkpt lat="29.457056" lon="103.280809"><ele>1642.0632</ele><time>2026-02-18T14:10:15.000Z</time></trkpt>
        <trkpt lat="29.457084" lon="103.280848"><ele>1642.0667</ele><time>2026-02-18T14:10:20.000Z</time></trkpt>
        <trkpt lat="29.457119" lon="103.280887"><ele>1642.1626</ele><time>2026-02-18T14:10:25.000Z</time></trkpt>
        <trkpt lat="29.457158" lon="103.280925"><ele>1642.3638</ele><time>2026-02-18T14:10:30.000Z</time></trkpt>
        <trkpt lat="29.457204" lon="103.280947"><ele>1643.0273</ele><time>2026-02-18T14:10:35.000Z</time></trkpt>
        <trkpt lat="29.457246" lon="103.280966"><ele>1643.3787</ele><time>2026-02-18T14:10:39.000Z</time></trkpt>
        <trkpt lat="29.457294" lon="103.280995"><ele>1644.6096</ele><time>2026-02-18T14:10:44.000Z</time></trkpt>
        <trkpt lat="29.457339" lon="103.281019"><ele>1645.027</ele><time>2026-02-18T14:10:49.000Z</time></trkpt>
        <trkpt lat="29.457383" lon="103.281046"><ele>1645.2445</ele><time>2026-02-18T14:10:55.000Z</time></trkpt>
        <trkpt lat="29.45742" lon="103.281071"><ele>1644.4755</ele><time>2026-02-18T14:11:00.000Z</time></trkpt>
        <trkpt lat="29.457461" lon="103.281104"><ele>1644.6365</ele><time>2026-02-18T14:11:09.000Z</time></trkpt>
        <trkpt lat="29.457497" lon="103.281135"><ele>1644.6018</ele><time>2026-02-18T14:11:17.000Z</time></trkpt>
        <trkpt lat="29.457529" lon="103.281167"><ele>1645.0557</ele><time>2026-02-18T14:11:21.000Z</time></trkpt>
        <trkpt lat="29.457559" lon="103.281214"><ele>1646.6428</ele><time>2026-02-18T14:11:28.000Z</time></trkpt>
        <trkpt lat="29.457584" lon="103.281263"><ele>1648.4113</ele><time>2026-02-18T14:11:39.000Z</time></trkpt>
        <trkpt lat="29.457613" lon="103.281306"><ele>1648.7499</ele><time>2026-02-18T14:11:46.000Z</time></trkpt>
        <trkpt lat="29.457641" lon="103.281346"><ele>1649.1853</ele><time>2026-02-18T14:11:50.000Z</time></trkpt>
        <trkpt lat="29.457686" lon="103.281391"><ele>1648.4219</ele><time>2026-02-18T14:11:56.000Z</time></trkpt>
        <trkpt lat="29.457719" lon="103.281443"><ele>1650.0171</ele><time>2026-02-18T14:12:05.000Z</time></trkpt>
        <trkpt lat="29.457748" lon="103.281486"><ele>1652.1304</ele><time>2026-02-18T14:12:16.000Z</time></trkpt>
        <trkpt lat="29.457795" lon="103.28149"><ele>1652.4852</ele><time>2026-02-18T14:12:23.000Z</time></trkpt>
        <trkpt lat="29.457843" lon="103.281471"><ele>1652.1556</ele><time>2026-02-18T14:12:28.000Z</time></trkpt>
        <trkpt lat="29.457889" lon="103.281443"><ele>1650.6993</ele><time>2026-02-18T14:12:54.000Z</time></trkpt>
        <trkpt lat="29.457923" lon="103.281417"><ele>1652.0255</ele><time>2026-02-18T14:13:01.000Z</time></trkpt>
        <trkpt lat="29.457974" lon="103.281392"><ele>1652.7151</ele><time>2026-02-18T14:13:07.000Z</time></trkpt>
        <trkpt lat="29.458019" lon="103.281366"><ele>1653.6674</ele><time>2026-02-18T14:13:11.000Z</time></trkpt>
        <trkpt lat="29.458066" lon="103.281344"><ele>1653.8363</ele><time>2026-02-18T14:13:15.000Z</time></trkpt>
        <trkpt lat="29.458112" lon="103.281327"><ele>1653.6583</ele><time>2026-02-18T14:13:19.000Z</time></trkpt>
        <trkpt lat="29.458166" lon="103.281322"><ele>1653.8868</ele><time>2026-02-18T14:13:24.000Z</time></trkpt>
        <trkpt lat="29.458223" lon="103.281334"><ele>1653.9055</ele><time>2026-02-18T14:13:29.000Z</time></trkpt>
        <trkpt lat="29.45827" lon="103.28134"><ele>1653.4203</ele><time>2026-02-18T14:13:33.000Z</time></trkpt>
        <trkpt lat="29.458317" lon="103.281344"><ele>1653.3518</ele><time>2026-02-18T14:13:37.000Z</time></trkpt>
        <trkpt lat="29.458368" lon="103.281346"><ele>1653.0107</ele><time>2026-02-18T14:13:42.000Z</time></trkpt>
        <trkpt lat="29.45842" lon="103.281349"><ele>1653.9983</ele><time>2026-02-18T14:13:48.000Z</time></trkpt>
        <trkpt lat="29.458465" lon="103.281356"><ele>1652.5249</ele><time>2026-02-18T14:13:54.000Z</time></trkpt>
        <trkpt lat="29.458509" lon="103.281368"><ele>1653.7312</ele><time>2026-02-18T14:13:59.000Z</time></trkpt>
        <trkpt lat="29.458554" lon="103.281382"><ele>1654.0537</ele><time>2026-02-18T14:14:04.000Z</time></trkpt>
        <trkpt lat="29.4586" lon="103.28139"><ele>1655.2535</ele><time>2026-02-18T14:14:09.000Z</time></trkpt>
        <trkpt lat="29.458651" lon="103.281409"><ele>1657.1709</ele><time>2026-02-18T14:14:15.000Z</time></trkpt>
        <trkpt lat="29.458697" lon="103.28143"><ele>1658.3593</ele><time>2026-02-18T14:14:20.000Z</time></trkpt>
        <trkpt lat="29.45875" lon="103.281457"><ele>1658.9507</ele><time>2026-02-18T14:14:25.000Z</time></trkpt>
        <trkpt lat="29.458792" lon="103.281482"><ele>1658.9199</ele><time>2026-02-18T14:14:29.000Z</time></trkpt>
        <trkpt lat="29.458844" lon="103.281518"><ele>1658.9891</ele><time>2026-02-18T14:14:35.000Z</time></trkpt>
        <trkpt lat="29.458884" lon="103.281532"><ele>1657.9753</ele><time>2026-02-18T14:14:39.000Z</time></trkpt>
        <trkpt lat="29.458926" lon="103.281556"><ele>1658.035</ele><time>2026-02-18T14:14:44.000Z</time></trkpt>
        <trkpt lat="29.458958" lon="103.281599"><ele>1658.3201</ele><time>2026-02-18T14:14:49.000Z</time></trkpt>
        <trkpt lat="29.458999" lon="103.281634"><ele>1659.623</ele><time>2026-02-18T14:14:54.000Z</time></trkpt>
        <trkpt lat="29.459039" lon="103.281667"><ele>1659.3334</ele><time>2026-02-18T14:14:59.000Z</time></trkpt>
        <trkpt lat="29.459083" lon="103.281704"><ele>1658.9327</ele><time>2026-02-18T14:15:05.000Z</time></trkpt>
        <trkpt lat="29.459114" lon="103.281745"><ele>1659.22</ele><time>2026-02-18T14:15:09.000Z</time></trkpt>
        <trkpt lat="29.459163" lon="103.281776"><ele>1659.2799</ele><time>2026-02-18T14:15:15.000Z</time></trkpt>
        <trkpt lat="29.459204" lon="103.281805"><ele>1660.2657</ele><time>2026-02-18T14:15:20.000Z</time></trkpt>
        <trkpt lat="29.45925" lon="103.281801"><ele>1660.947</ele><time>2026-02-18T14:15:25.000Z</time></trkpt>
        <trkpt lat="29.459304" lon="103.281778"><ele>1661.2227</ele><time>2026-02-18T14:15:32.000Z</time></trkpt>
        <trkpt lat="29.459355" lon="103.281751"><ele>1662.2717</ele><time>2026-02-18T14:15:37.000Z</time></trkpt>
        <trkpt lat="29.459409" lon="103.281736"><ele>1663.7043</ele><time>2026-02-18T14:15:42.000Z</time></trkpt>
        <trkpt lat="29.459455" lon="103.281713"><ele>1664.8181</ele><time>2026-02-18T14:15:47.000Z</time></trkpt>
        <trkpt lat="29.459502" lon="103.281692"><ele>1666.3204</ele><time>2026-02-18T14:15:52.000Z</time></trkpt>
        <trkpt lat="29.459555" lon="103.281684"><ele>1666.669</ele><time>2026-02-18T14:15:57.000Z</time></trkpt>
        <trkpt lat="29.459613" lon="103.281681"><ele>1664.5583</ele><time>2026-02-18T14:16:02.000Z</time></trkpt>
        <trkpt lat="29.45967" lon="103.28169"><ele>1665.0483</ele><time>2026-02-18T14:16:07.000Z</time></trkpt>
        <trkpt lat="29.459718" lon="103.281711"><ele>1665.4342</ele><time>2026-02-18T14:16:12.000Z</time></trkpt>
        <trkpt lat="29.459768" lon="103.281738"><ele>1666.0504</ele><time>2026-02-18T14:16:17.000Z</time></trkpt>
        <trkpt lat="29.459818" lon="103.281761"><ele>1666.398</ele><time>2026-02-18T14:16:23.000Z</time></trkpt>
        <trkpt lat="29.459859" lon="103.281771"><ele>1665.9489</ele><time>2026-02-18T14:16:27.000Z</time></trkpt>
        <trkpt lat="29.45991" lon="103.281784"><ele>1665.7289</ele><time>2026-02-18T14:16:32.000Z</time></trkpt>
        <trkpt lat="29.459957" lon="103.281805"><ele>1666.1564</ele><time>2026-02-18T14:16:37.000Z</time></trkpt>
        <trkpt lat="29.460001" lon="103.281823"><ele>1667.5625</ele><time>2026-02-18T14:16:42.000Z</time></trkpt>
        <trkpt lat="29.460043" lon="103.281845"><ele>1669.1199</ele><time>2026-02-18T14:16:47.000Z</time></trkpt>
        <trkpt lat="29.460093" lon="103.281868"><ele>1670.5159</ele><time>2026-02-18T14:16:55.000Z</time></trkpt>
        <trkpt lat="29.460131" lon="103.281889"><ele>1671.4104</ele><time>2026-02-18T14:17:00.000Z</time></trkpt>
        <trkpt lat="29.460176" lon="103.281925"><ele>1671.57</ele><time>2026-02-18T14:17:06.000Z</time></trkpt>
        <trkpt lat="29.460217" lon="103.28196"><ele>1672.1836</ele><time>2026-02-18T14:17:13.000Z</time></trkpt>
        <trkpt lat="29.460258" lon="103.281995"><ele>1673.2833</ele><time>2026-02-18T14:17:20.000Z</time></trkpt>
        <trkpt lat="29.460297" lon="103.282033"><ele>1673.8871</ele><time>2026-02-18T14:17:26.000Z</time></trkpt>
        <trkpt lat="29.460339" lon="103.282075"><ele>1674.2736</ele><time>2026-02-18T14:17:31.000Z</time></trkpt>
        <trkpt lat="29.460378" lon="103.282122"><ele>1675.5472</ele><time>2026-02-18T14:17:36.000Z</time></trkpt>
        <trkpt lat="29.460421" lon="103.282154"><ele>1675.6705</ele><time>2026-02-18T14:17:41.000Z</time></trkpt>
        <trkpt lat="29.460474" lon="103.282188"><ele>1673.8411</ele><time>2026-02-18T14:17:47.000Z</time></trkpt>
        <trkpt lat="29.460515" lon="103.282214"><ele>1672.501</ele><time>2026-02-18T14:17:52.000Z</time></trkpt>
        <trkpt lat="29.460564" lon="103.282249"><ele>1672.9122</ele><time>2026-02-18T14:17:57.000Z</time></trkpt>
        <trkpt lat="29.460615" lon="103.282272"><ele>1673.921</ele><time>2026-02-18T14:18:02.000Z</time></trkpt>
        <trkpt lat="29.460662" lon="103.2823"><ele>1673.8613</ele><time>2026-02-18T14:18:07.000Z</time></trkpt>
        <trkpt lat="29.460704" lon="103.282329"><ele>1674.1112</ele><time>2026-02-18T14:18:11.000Z</time></trkpt>
        <trkpt lat="29.460746" lon="103.282354"><ele>1674.566</ele><time>2026-02-18T14:18:15.000Z</time></trkpt>
        <trkpt lat="29.460797" lon="103.282389"><ele>1674.784</ele><time>2026-02-18T14:18:20.000Z</time></trkpt>
        <trkpt lat="29.460848" lon="103.282421"><ele>1675.1028</ele><time>2026-02-18T14:18:32.000Z</time></trkpt>
        <trkpt lat="29.460886" lon="103.282432"><ele>1675.099</ele><time>2026-02-18T14:18:37.000Z</time></trkpt>
        <trkpt lat="29.460926" lon="103.282449"><ele>1674.591</ele><time>2026-02-18T14:18:41.000Z</time></trkpt>
        <trkpt lat="29.460972" lon="103.282468"><ele>1674.5726</ele><time>2026-02-18T14:18:45.000Z</time></trkpt>
        <trkpt lat="29.461019" lon="103.282484"><ele>1674.3363</ele><time>2026-02-18T14:18:49.000Z</time></trkpt>
        <trkpt lat="29.461074" lon="103.282508"><ele>1673.9156</ele><time>2026-02-18T14:18:54.000Z</time></trkpt>
        <trkpt lat="29.461116" lon="103.28253"><ele>1674.2231</ele><time>2026-02-18T14:18:58.000Z</time></trkpt>
        <trkpt lat="29.461159" lon="103.282559"><ele>1674.9125</ele><time>2026-02-18T14:19:03.000Z</time></trkpt>
        <trkpt lat="29.4612" lon="103.282581"><ele>1675.385</ele><time>2026-02-18T14:19:07.000Z</time></trkpt>
        <trkpt lat="29.461241" lon="103.282616"><ele>1674.9082</ele><time>2026-02-18T14:19:12.000Z</time></trkpt>
        <trkpt lat="29.461274" lon="103.282657"><ele>1675.565</ele><time>2026-02-18T14:19:17.000Z</time></trkpt>
        <trkpt lat="29.461318" lon="103.282685"><ele>1676.3275</ele><time>2026-02-18T14:19:23.000Z</time></trkpt>
        <trkpt lat="29.461351" lon="103.282715"><ele>1676.4817</ele><time>2026-02-18T14:19:28.000Z</time></trkpt>
        <trkpt lat="29.461398" lon="103.282746"><ele>1677.6552</ele><time>2026-02-18T14:19:34.000Z</time></trkpt>
        <trkpt lat="29.461445" lon="103.282776"><ele>1679.6708</ele><time>2026-02-18T14:19:40.000Z</time></trkpt>
        <trkpt lat="29.461495" lon="103.282796"><ele>1679.3439</ele><time>2026-02-18T14:19:46.000Z</time></trkpt>
        <trkpt lat="29.461537" lon="103.282818"><ele>1680.1832</ele><time>2026-02-18T14:19:51.000Z</time></trkpt>
        <trkpt lat="29.461586" lon="103.282845"><ele>1680.1989</ele><time>2026-02-18T14:19:57.000Z</time></trkpt>
        <trkpt lat="29.461629" lon="103.282871"><ele>1680.602</ele><time>2026-02-18T14:20:02.000Z</time></trkpt>
        <trkpt lat="29.461666" lon="103.282903"><ele>1681.6583</ele><time>2026-02-18T14:20:07.000Z</time></trkpt>
        <trkpt lat="29.461706" lon="103.282943"><ele>1682.4268</ele><time>2026-02-18T14:20:13.000Z</time></trkpt>
        <trkpt lat="29.461754" lon="103.282971"><ele>1682.9447</ele><time>2026-02-18T14:20:21.000Z</time></trkpt>
        <trkpt lat="29.461781" lon="103.283009"><ele>1683.3619</ele><time>2026-02-18T14:20:26.000Z</time></trkpt>
        <trkpt lat="29.461823" lon="103.283058"><ele>1684.5985</ele><time>2026-02-18T14:20:32.000Z</time></trkpt>
        <trkpt lat="29.461866" lon="103.283098"><ele>1685.8743</ele><time>2026-02-18T14:20:39.000Z</time></trkpt>
        <trkpt lat="29.46191" lon="103.283117"><ele>1686.3752</ele><time>2026-02-18T14:20:44.000Z</time></trkpt>
        <trkpt lat="29.461957" lon="103.283124"><ele>1686.5347</ele><time>2026-02-18T14:20:49.000Z</time></trkpt>
        <trkpt lat="29.462004" lon="103.283135"><ele>1687.0994</ele><time>2026-02-18T14:20:53.000Z</time></trkpt>
        <trkpt lat="29.462051" lon="103.283151"><ele>1686.9828</ele><time>2026-02-18T14:20:58.000Z</time></trkpt>
        <trkpt lat="29.462087" lon="103.283187"><ele>1687.1644</ele><time>2026-02-18T14:21:03.000Z</time></trkpt>
        <trkpt lat="29.462117" lon="103.283223"><ele>1687.7318</ele><time>2026-02-18T14:21:07.000Z</time></trkpt>
        <trkpt lat="29.462135" lon="103.283273"><ele>1688.3909</ele><time>2026-02-18T14:21:11.000Z</time></trkpt>
        <trkpt lat="29.462137" lon="103.283327"><ele>1689.1333</ele><time>2026-02-18T14:21:15.000Z</time></trkpt>
        <trkpt lat="29.46213" lon="103.283381"><ele>1689.969</ele><time>2026-02-18T14:21:19.000Z</time></trkpt>
        <trkpt lat="29.462123" lon="103.283447"><ele>1689.9979</ele><time>2026-02-18T14:21:24.000Z</time></trkpt>
        <trkpt lat="29.462129" lon="103.283504"><ele>1688.3451</ele><time>2026-02-18T14:21:29.000Z</time></trkpt>
        <trkpt lat="29.462151" lon="103.283556"><ele>1688.6868</ele><time>2026-02-18T14:21:34.000Z</time></trkpt>
        <trkpt lat="29.462184" lon="103.283593"><ele>1689.579</ele><time>2026-02-18T14:21:38.000Z</time></trkpt>
        <trkpt lat="29.462235" lon="103.283598"><ele>1688.8397</ele><time>2026-02-18T14:21:43.000Z</time></trkpt>
        <trkpt lat="29.462298" lon="103.283594"><ele>1688.8616</ele><time>2026-02-18T14:21:48.000Z</time></trkpt>
        <trkpt lat="29.462355" lon="103.283597"><ele>1688.912</ele><time>2026-02-18T14:21:53.000Z</time></trkpt>
        <trkpt lat="29.46241" lon="103.283618"><ele>1689.8204</ele><time>2026-02-18T14:21:58.000Z</time></trkpt>
        <trkpt lat="29.462462" lon="103.283643"><ele>1689.6888</ele><time>2026-02-18T14:22:03.000Z</time></trkpt>
        <trkpt lat="29.46251" lon="103.283658"><ele>1690.4443</ele><time>2026-02-18T14:22:08.000Z</time></trkpt>
        <trkpt lat="29.462556" lon="103.283645"><ele>1692.0159</ele><time>2026-02-18T14:22:13.000Z</time></trkpt>
        <trkpt lat="29.462593" lon="103.283611"><ele>1693.1368</ele><time>2026-02-18T14:22:17.000Z</time></trkpt>
        <trkpt lat="29.462641" lon="103.283579"><ele>1694.1609</ele><time>2026-02-18T14:22:22.000Z</time></trkpt>
        <trkpt lat="29.462689" lon="103.283555"><ele>1694.3135</ele><time>2026-02-18T14:22:27.000Z</time></trkpt>
        <trkpt lat="29.462737" lon="103.283531"><ele>1693.8192</ele><time>2026-02-18T14:22:32.000Z</time></trkpt>
        <trkpt lat="29.462776" lon="103.283505"><ele>1693.8169</ele><time>2026-02-18T14:22:36.000Z</time></trkpt>
        <trkpt lat="29.462833" lon="103.283481"><ele>1694.7926</ele><time>2026-02-18T14:22:41.000Z</time></trkpt>
        <trkpt lat="29.46289" lon="103.283464"><ele>1693.9858</ele><time>2026-02-18T14:22:46.000Z</time></trkpt>
        <trkpt lat="29.462939" lon="103.283451"><ele>1693.2655</ele><time>2026-02-18T14:22:51.000Z</time></trkpt>
        <trkpt lat="29.462988" lon="103.283437"><ele>1692.3014</ele><time>2026-02-18T14:22:56.000Z</time></trkpt>
        <trkpt lat="29.46304" lon="103.283448"><ele>1692.4492</ele><time>2026-02-18T14:23:43.000Z</time></trkpt>
        <trkpt lat="29.463074" lon="103.283453"><ele>1693.189</ele><time>2026-02-18T14:23:48.000Z</time></trkpt>
        <trkpt lat="29.463133" lon="103.283444"><ele>1693.1599</ele><time>2026-02-18T14:23:53.000Z</time></trkpt>
        <trkpt lat="29.463187" lon="103.283446"><ele>1692.7325</ele><time>2026-02-18T14:23:57.000Z</time></trkpt>
        <trkpt lat="29.463247" lon="103.283452"><ele>1693.052</ele><time>2026-02-18T14:24:02.000Z</time></trkpt>
        <trkpt lat="29.463297" lon="103.283464"><ele>1694.0619</ele><time>2026-02-18T14:24:06.000Z</time></trkpt>
        <trkpt lat="29.463354" lon="103.283468"><ele>1694.9568</ele><time>2026-02-18T14:24:11.000Z</time></trkpt>
        <trkpt lat="29.463408" lon="103.283472"><ele>1695.381</ele><time>2026-02-18T14:24:16.000Z</time></trkpt>
        <trkpt lat="29.463453" lon="103.283478"><ele>1695.6023</ele><time>2026-02-18T14:24:20.000Z</time></trkpt>
        <trkpt lat="29.463504" lon="103.2835"><ele>1696.285</ele><time>2026-02-18T14:24:25.000Z</time></trkpt>
        <trkpt lat="29.463552" lon="103.283526"><ele>1697.2485</ele><time>2026-02-18T14:24:30.000Z</time></trkpt>
        <trkpt lat="29.463597" lon="103.283555"><ele>1697.929</ele><time>2026-02-18T14:24:35.000Z</time></trkpt>
        <trkpt lat="29.463643" lon="103.283585"><ele>1698.5883</ele><time>2026-02-18T14:24:40.000Z</time></trkpt>
        <trkpt lat="29.463684" lon="103.283622"><ele>1699.6108</ele><time>2026-02-18T14:24:45.000Z</time></trkpt>
        <trkpt lat="29.463716" lon="103.283668"><ele>1700.0775</ele><time>2026-02-18T14:24:50.000Z</time></trkpt>
        <trkpt lat="29.463744" lon="103.283717"><ele>1700.8033</ele><time>2026-02-18T14:24:55.000Z</time></trkpt>
        <trkpt lat="29.463773" lon="103.283766"><ele>1700.4209</ele><time>2026-02-18T14:25:00.000Z</time></trkpt>
        <trkpt lat="29.463815" lon="103.283805"><ele>1700.4829</ele><time>2026-02-18T14:25:07.000Z</time></trkpt>
        <trkpt lat="29.463851" lon="103.283837"><ele>1700.9574</ele><time>2026-02-18T14:25:11.000Z</time></trkpt>
        <trkpt lat="29.463902" lon="103.283871"><ele>1700.6881</ele><time>2026-02-18T14:25:17.000Z</time></trkpt>
        <trkpt lat="29.463954" lon="103.283883"><ele>1700.5208</ele><time>2026-02-18T14:25:22.000Z</time></trkpt>
        <trkpt lat="29.46401" lon="103.283896"><ele>1700.2328</ele><time>2026-02-18T14:25:28.000Z</time></trkpt>
        <trkpt lat="29.464056" lon="103.283924"><ele>1701.1782</ele><time>2026-02-18T14:25:33.000Z</time></trkpt>
        <trkpt lat="29.464099" lon="103.283947"><ele>1701.9879</ele><time>2026-02-18T14:25:37.000Z</time></trkpt>
        <trkpt lat="29.464149" lon="103.283987"><ele>1703.6339</ele><time>2026-02-18T14:25:49.000Z</time></trkpt>
        <trkpt lat="29.464187" lon="103.284009"><ele>1704.3231</ele><time>2026-02-18T14:25:55.000Z</time></trkpt>
        <trkpt lat="29.464225" lon="103.284043"><ele>1704.3597</ele><time>2026-02-18T14:26:00.000Z</time></trkpt>
        <trkpt lat="29.464267" lon="103.284084"><ele>1703.6617</ele><time>2026-02-18T14:26:05.000Z</time></trkpt>
        <trkpt lat="29.464292" lon="103.284122"><ele>1704.075</ele><time>2026-02-18T14:26:08.000Z</time></trkpt>
        <trkpt lat="29.464336" lon="103.284167"><ele>1705.6315</ele><time>2026-02-18T14:26:13.000Z</time></trkpt>
        <trkpt lat="29.464385" lon="103.284203"><ele>1705.698</ele><time>2026-02-18T14:26:20.000Z</time></trkpt>
        <trkpt lat="29.464426" lon="103.284222"><ele>1704.9075</ele><time>2026-02-18T14:26:25.000Z</time></trkpt>
        <trkpt lat="29.464468" lon="103.284245"><ele>1704.262</ele><time>2026-02-18T14:26:30.000Z</time></trkpt>
        <trkpt lat="29.464507" lon="103.284268"><ele>1704.2448</ele><time>2026-02-18T14:26:34.000Z</time></trkpt>
        <trkpt lat="29.464552" lon="103.284275"><ele>1704.6481</ele><time>2026-02-18T14:26:38.000Z</time></trkpt>
        <trkpt lat="29.464601" lon="103.28428"><ele>1704.0208</ele><time>2026-02-18T14:26:42.000Z</time></trkpt>
        <trkpt lat="29.464649" lon="103.284286"><ele>1704.2391</ele><time>2026-02-18T14:26:46.000Z</time></trkpt>
        <trkpt lat="29.464695" lon="103.284298"><ele>1703.9913</ele><time>2026-02-18T14:26:50.000Z</time></trkpt>
        <trkpt lat="29.464743" lon="103.284297"><ele>1704.2968</ele><time>2026-02-18T14:26:55.000Z</time></trkpt>
        <trkpt lat="29.464798" lon="103.284297"><ele>1706.3524</ele><time>2026-02-18T14:27:00.000Z</time></trkpt>
        <trkpt lat="29.464856" lon="103.284298"><ele>1706.8152</ele><time>2026-02-18T14:27:05.000Z</time></trkpt>
        <trkpt lat="29.464909" lon="103.284312"><ele>1707.8925</ele><time>2026-02-18T14:27:09.000Z</time></trkpt>
        <trkpt lat="29.464965" lon="103.284324"><ele>1708.2434</ele><time>2026-02-18T14:27:14.000Z</time></trkpt>
        <trkpt lat="29.46502" lon="103.284338"><ele>1709.4945</ele><time>2026-02-18T14:27:19.000Z</time></trkpt>
        <trkpt lat="29.465077" lon="103.284347"><ele>1709.7917</ele><time>2026-02-18T14:27:24.000Z</time></trkpt>
        <trkpt lat="29.465129" lon="103.284343"><ele>1709.67</ele><time>2026-02-18T14:27:29.000Z</time></trkpt>
        <trkpt lat="29.465183" lon="103.284342"><ele>1709.952</ele><time>2026-02-18T14:27:34.000Z</time></trkpt>
        <trkpt lat="29.465235" lon="103.284342"><ele>1710.6288</ele><time>2026-02-18T14:27:40.000Z</time></trkpt>
        <trkpt lat="29.465275" lon="103.284333"><ele>1709.6552</ele><time>2026-02-18T14:27:44.000Z</time></trkpt>
        <trkpt lat="29.465323" lon="103.284326"><ele>1709.4224</ele><time>2026-02-18T14:27:49.000Z</time></trkpt>
        <trkpt lat="29.465377" lon="103.284318"><ele>1710.414</ele><time>2026-02-18T14:27:54.000Z</time></trkpt>
        <trkpt lat="29.465427" lon="103.284299"><ele>1709.3235</ele><time>2026-02-18T14:27:59.000Z</time></trkpt>
        <trkpt lat="29.465473" lon="103.284282"><ele>1710.9995</ele><time>2026-02-18T14:28:04.000Z</time></trkpt>
        <trkpt lat="29.465509" lon="103.284257"><ele>1710.8755</ele><time>2026-02-18T14:28:08.000Z</time></trkpt>
        <trkpt lat="29.465554" lon="103.284214"><ele>1710.2955</ele><time>2026-02-18T14:28:13.000Z</time></trkpt>
        <trkpt lat="29.465594" lon="103.284175"><ele>1710.6268</ele><time>2026-02-18T14:28:18.000Z</time></trkpt>
        <trkpt lat="29.465629" lon="103.284138"><ele>1710.9147</ele><time>2026-02-18T14:28:22.000Z</time></trkpt>
        <trkpt lat="29.465674" lon="103.284104"><ele>1711.2513</ele><time>2026-02-18T14:28:27.000Z</time></trkpt>
        <trkpt lat="29.465728" lon="103.284079"><ele>1713.2307</ele><time>2026-02-18T14:28:33.000Z</time></trkpt>
        <trkpt lat="29.465775" lon="103.284063"><ele>1712.0457</ele><time>2026-02-18T14:28:38.000Z</time></trkpt>
        <trkpt lat="29.465821" lon="103.284056"><ele>1712.4213</ele><time>2026-02-18T14:28:42.000Z</time></trkpt>
        <trkpt lat="29.465877" lon="103.284057"><ele>1712.7169</ele><time>2026-02-18T14:28:47.000Z</time></trkpt>
        <trkpt lat="29.46593" lon="103.284086"><ele>1711.9694</ele><time>2026-02-18T14:28:52.000Z</time></trkpt>
        <trkpt lat="29.465977" lon="103.284113"><ele>1712.8455</ele><time>2026-02-18T14:28:57.000Z</time></trkpt>
        <trkpt lat="29.466026" lon="103.284115"><ele>1712.9011</ele><time>2026-02-18T14:29:04.000Z</time></trkpt>
        <trkpt lat="29.466067" lon="103.28412"><ele>1712.98</ele><time>2026-02-18T14:29:08.000Z</time></trkpt>
        <trkpt lat="29.46612" lon="103.28411"><ele>1714.0874</ele><time>2026-02-18T14:29:14.000Z</time></trkpt>
        <trkpt lat="29.466172" lon="103.284102"><ele>1713.8582</ele><time>2026-02-18T14:29:18.000Z</time></trkpt>
        <trkpt lat="29.466222" lon="103.284103"><ele>1713.4933</ele><time>2026-02-18T14:29:23.000Z</time></trkpt>
        <trkpt lat="29.466269" lon="103.284114"><ele>1713.555</ele><time>2026-02-18T14:29:28.000Z</time></trkpt>
        <trkpt lat="29.46631" lon="103.284136"><ele>1714.9966</ele><time>2026-02-18T14:29:32.000Z</time></trkpt>
        <trkpt lat="29.466363" lon="103.284157"><ele>1715.9386</ele><time>2026-02-18T14:29:37.000Z</time></trkpt>
        <trkpt lat="29.466412" lon="103.284169"><ele>1716.9673</ele><time>2026-02-18T14:29:42.000Z</time></trkpt>
        <trkpt lat="29.466465" lon="103.284167"><ele>1717.0198</ele><time>2026-02-18T14:29:49.000Z</time></trkpt>
        <trkpt lat="29.466504" lon="103.284161"><ele>1717.7435</ele><time>2026-02-18T14:29:53.000Z</time></trkpt>
        <trkpt lat="29.466563" lon="103.28413"><ele>1718.0366</ele><time>2026-02-18T14:30:07.000Z</time></trkpt>
        <trkpt lat="29.46661" lon="103.284112"><ele>1719.8291</ele><time>2026-02-18T14:30:15.000Z</time></trkpt>
        <trkpt lat="29.466663" lon="103.284106"><ele>1720.8717</ele><time>2026-02-18T14:30:24.000Z</time></trkpt>
        <trkpt lat="29.466714" lon="103.2841"><ele>1722.4261</ele><time>2026-02-18T14:30:33.000Z</time></trkpt>
        <trkpt lat="29.466758" lon="103.284086"><ele>1723.0006</ele><time>2026-02-18T14:30:39.000Z</time></trkpt>
        <trkpt lat="29.466797" lon="103.28408"><ele>1722.2952</ele><time>2026-02-18T14:30:42.000Z</time></trkpt>
        <trkpt lat="29.466857" lon="103.284082"><ele>1722.2311</ele><time>2026-02-18T14:30:48.000Z</time></trkpt>
        <trkpt lat="29.466899" lon="103.284102"><ele>1722.359</ele><time>2026-02-18T14:30:52.000Z</time></trkpt>
        <trkpt lat="29.466952" lon="103.284125"><ele>1722.9756</ele><time>2026-02-18T14:30:58.000Z</time></trkpt>
        <trkpt lat="29.466978" lon="103.284165"><ele>1723.718</ele><time>2026-02-18T14:31:02.000Z</time></trkpt>
        <trkpt lat="29.467011" lon="103.284202"><ele>1724.6371</ele><time>2026-02-18T14:31:07.000Z</time></trkpt>
        <trkpt lat="29.46706" lon="103.284201"><ele>1724.4617</ele><time>2026-02-18T14:31:51.000Z</time></trkpt>
        <trkpt lat="29.467082" lon="103.284233"><ele>1725.1918</ele><time>2026-02-18T14:31:57.000Z</time></trkpt>
        <trkpt lat="29.467125" lon="103.284284"><ele>1727.4341</ele><time>2026-02-18T14:32:03.000Z</time></trkpt>
        <trkpt lat="29.46717" lon="103.28431"><ele>1726.8124</ele><time>2026-02-18T14:32:08.000Z</time></trkpt>
        <trkpt lat="29.467224" lon="103.28432"><ele>1727.967</ele><time>2026-02-18T14:32:23.000Z</time></trkpt>
        <trkpt lat="29.467261" lon="103.284303"><ele>1728.1385</ele><time>2026-02-18T14:32:28.000Z</time></trkpt>
        <trkpt lat="29.467312" lon="103.284282"><ele>1729.756</ele><time>2026-02-18T14:32:34.000Z</time></trkpt>
        <trkpt lat="29.467365" lon="103.284263"><ele>1731.7339</ele><time>2026-02-18T14:32:40.000Z</time></trkpt>
        <trkpt lat="29.467417" lon="103.284256"><ele>1732.6198</ele><time>2026-02-18T14:32:46.000Z</time></trkpt>
        <trkpt lat="29.467462" lon="103.284255"><ele>1732.6348</ele><time>2026-02-18T14:32:51.000Z</time></trkpt>
        <trkpt lat="29.467516" lon="103.284245"><ele>1732.2119</ele><time>2026-02-18T14:32:57.000Z</time></trkpt>
        <trkpt lat="29.467564" lon="103.284238"><ele>1731.494</ele><time>2026-02-18T14:33:02.000Z</time></trkpt>
        <trkpt lat="29.467613" lon="103.284244"><ele>1732.0017</ele><time>2026-02-18T14:33:07.000Z</time></trkpt>
        <trkpt lat="29.467668" lon="103.284248"><ele>1733.3047</ele><time>2026-02-18T14:33:15.000Z</time></trkpt>
        <trkpt lat="29.467713" lon="103.284262"><ele>1734.1085</ele><time>2026-02-18T14:33:20.000Z</time></trkpt>
        <trkpt lat="29.46775" lon="103.284291"><ele>1735.1497</ele><time>2026-02-18T14:33:24.000Z</time></trkpt>
        <trkpt lat="29.467801" lon="103.284334"><ele>1736.0237</ele><time>2026-02-18T14:33:45.000Z</time></trkpt>
        <trkpt lat="29.467829" lon="103.284364"><ele>1737.0688</ele><time>2026-02-18T14:33:51.000Z</time></trkpt>
        <trkpt lat="29.467873" lon="103.284396"><ele>1738.3632</ele><time>2026-02-18T14:33:57.000Z</time></trkpt>
        <trkpt lat="29.467918" lon="103.284433"><ele>1738.8673</ele><time>2026-02-18T14:34:03.000Z</time></trkpt>
        <trkpt lat="29.467956" lon="103.284471"><ele>1740.0078</ele><time>2026-02-18T14:34:09.000Z</time></trkpt>
        <trkpt lat="29.467982" lon="103.284527"><ele>1740.2003</ele><time>2026-02-18T14:34:17.000Z</time></trkpt>
        <trkpt lat="29.468002" lon="103.284574"><ele>1740.6575</ele><time>2026-02-18T14:34:24.000Z</time></trkpt>
        <trkpt lat="29.46802" lon="103.284621"><ele>1743.1433</ele><time>2026-02-18T14:34:29.000Z</time></trkpt>
        <trkpt lat="29.468045" lon="103.284672"><ele>1746.2693</ele><time>2026-02-18T14:34:35.000Z</time></trkpt>
        <trkpt lat="29.468086" lon="103.284699"><ele>1747.5089</ele><time>2026-02-18T14:34:40.000Z</time></trkpt>
        <trkpt lat="29.468141" lon="103.284704"><ele>1747.705</ele><time>2026-02-18T14:34:46.000Z</time></trkpt>
        <trkpt lat="29.468194" lon="103.284699"><ele>1747.2001</ele><time>2026-02-18T14:34:51.000Z</time></trkpt>
        <trkpt lat="29.468242" lon="103.284702"><ele>1747.1073</ele><time>2026-02-18T14:34:55.000Z</time></trkpt>
        <trkpt lat="29.468294" lon="103.284714"><ele>1747.7123</ele><time>2026-02-18T14:35:00.000Z</time></trkpt>
        <trkpt lat="29.468345" lon="103.284724"><ele>1747.4763</ele><time>2026-02-18T14:35:05.000Z</time></trkpt>
        <trkpt lat="29.468393" lon="103.28475"><ele>1747.4365</ele><time>2026-02-18T14:35:10.000Z</time></trkpt>
        <trkpt lat="29.468436" lon="103.284782"><ele>1748.3673</ele><time>2026-02-18T14:35:16.000Z</time></trkpt>
        <trkpt lat="29.46847" lon="103.284826"><ele>1749.1062</ele><time>2026-02-18T14:35:24.000Z</time></trkpt>
        <trkpt lat="29.468486" lon="103.284873"><ele>1750.127</ele><time>2026-02-18T14:35:31.000Z</time></trkpt>
        <trkpt lat="29.468518" lon="103.284914"><ele>1751.8237</ele><time>2026-02-18T14:35:36.000Z</time></trkpt>
        <trkpt lat="29.468561" lon="103.284941"><ele>1753.7799</ele><time>2026-02-18T14:35:43.000Z</time></trkpt>
        <trkpt lat="29.468607" lon="103.284956"><ele>1755.0919</ele><time>2026-02-18T14:35:50.000Z</time></trkpt>
        <trkpt lat="29.468648" lon="103.28492"><ele>1754.8298</ele><time>2026-02-18T14:35:57.000Z</time></trkpt>
        <trkpt lat="29.468657" lon="103.284853"><ele>1754.4003</ele><time>2026-02-18T14:37:21.000Z</time></trkpt>
        <trkpt lat="29.468668" lon="103.28482"><ele>1753.6605</ele><time>2026-02-18T14:37:26.000Z</time></trkpt>
        <trkpt lat="29.4687" lon="103.284767"><ele>1753.0646</ele><time>2026-02-18T14:37:31.000Z</time></trkpt>
        <trkpt lat="29.468746" lon="103.284716"><ele>1754.4463</ele><time>2026-02-18T14:37:37.000Z</time></trkpt>
        <trkpt lat="29.468792" lon="103.284677"><ele>1754.8989</ele><time>2026-02-18T14:37:42.000Z</time></trkpt>
        <trkpt lat="29.468835" lon="103.284645"><ele>1754.8755</ele><time>2026-02-18T14:37:48.000Z</time></trkpt>
        <trkpt lat="29.468875" lon="103.284623"><ele>1755.3632</ele><time>2026-02-18T14:37:53.000Z</time></trkpt>
        <trkpt lat="29.468918" lon="103.284602"><ele>1755.6987</ele><time>2026-02-18T14:37:58.000Z</time></trkpt>
        <trkpt lat="29.468963" lon="103.284575"><ele>1755.2391</ele><time>2026-02-18T14:38:03.000Z</time></trkpt>
        <trkpt lat="29.469006" lon="103.284553"><ele>1755.8938</ele><time>2026-02-18T14:38:08.000Z</time></trkpt>
        <trkpt lat="29.469048" lon="103.284532"><ele>1756.5975</ele><time>2026-02-18T14:38:13.000Z</time></trkpt>
        <trkpt lat="29.46909" lon="103.284512"><ele>1756.7709</ele><time>2026-02-18T14:38:18.000Z</time></trkpt>
        <trkpt lat="29.46914" lon="103.284501"><ele>1757.4685</ele><time>2026-02-18T14:38:28.000Z</time></trkpt>
        <trkpt lat="29.469177" lon="103.284493"><ele>1757.371</ele><time>2026-02-18T14:38:33.000Z</time></trkpt>
        <trkpt lat="29.46922" lon="103.284498"><ele>1757.5712</ele><time>2026-02-18T14:38:37.000Z</time></trkpt>
        <trkpt lat="29.469265" lon="103.284524"><ele>1759.7922</ele><time>2026-02-18T14:38:42.000Z</time></trkpt>
        <trkpt lat="29.469313" lon="103.284534"><ele>1758.9137</ele><time>2026-02-18T14:38:48.000Z</time></trkpt>
        <trkpt lat="29.469362" lon="103.28455"><ele>1759.5548</ele><time>2026-02-18T14:38:56.000Z</time></trkpt>
        <trkpt lat="29.46941" lon="103.284542"><ele>1761.3284</ele><time>2026-02-18T14:39:04.000Z</time></trkpt>
        <trkpt lat="29.469454" lon="103.28451"><ele>1763.0095</ele><time>2026-02-18T14:39:11.000Z</time></trkpt>
        <trkpt lat="29.469486" lon="103.284469"><ele>1762.8982</ele><time>2026-02-18T14:39:15.000Z</time></trkpt>
        <trkpt lat="29.469531" lon="103.284429"><ele>1763.5007</ele><time>2026-02-18T14:39:21.000Z</time></trkpt>
        <trkpt lat="29.469572" lon="103.284409"><ele>1763.9844</ele><time>2026-02-18T14:39:27.000Z</time></trkpt>
        <trkpt lat="29.469619" lon="103.284395"><ele>1764.1719</ele><time>2026-02-18T14:39:32.000Z</time></trkpt>
        <trkpt lat="29.469666" lon="103.28439"><ele>1764.1895</ele><time>2026-02-18T14:39:37.000Z</time></trkpt>
        <trkpt lat="29.469708" lon="103.284412"><ele>1765.0524</ele><time>2026-02-18T14:39:41.000Z</time></trkpt>
        <trkpt lat="29.46976" lon="103.284446"><ele>1766.0955</ele><time>2026-02-18T14:39:47.000Z</time></trkpt>
        <trkpt lat="29.469812" lon="103.284468"><ele>1766.4447</ele><time>2026-02-18T14:39:54.000Z</time></trkpt>
        <trkpt lat="29.469849" lon="103.284487"><ele>1766.3857</ele><time>2026-02-18T14:39:58.000Z</time></trkpt>
        <trkpt lat="29.469894" lon="103.284502"><ele>1767.7855</ele><time>2026-02-18T14:40:02.000Z</time></trkpt>
        <trkpt lat="29.469948" lon="103.284486"><ele>1767.4878</ele><time>2026-02-18T14:40:08.000Z</time></trkpt>
        <trkpt lat="29.469987" lon="103.284449"><ele>1767.8262</ele><time>2026-02-18T14:40:13.000Z</time></trkpt>
        <trkpt lat="29.470019" lon="103.284402"><ele>1767.7091</ele><time>2026-02-18T14:40:19.000Z</time></trkpt>
        <trkpt lat="29.470045" lon="103.284354"><ele>1767.7101</ele><time>2026-02-18T14:40:24.000Z</time></trkpt>
        <trkpt lat="29.470079" lon="103.284323"><ele>1768.0416</ele><time>2026-02-18T14:40:28.000Z</time></trkpt>
        <trkpt lat="29.470131" lon="103.284302"><ele>1768.242</ele><time>2026-02-18T14:40:33.000Z</time></trkpt>
        <trkpt lat="29.470185" lon="103.284287"><ele>1769.3079</ele><time>2026-02-18T14:40:39.000Z</time></trkpt>
        <trkpt lat="29.470236" lon="103.284278"><ele>1769.9794</ele><time>2026-02-18T14:40:45.000Z</time></trkpt>
        <trkpt lat="29.470283" lon="103.284267"><ele>1771.3196</ele><time>2026-02-18T14:40:51.000Z</time></trkpt>
        <trkpt lat="29.470331" lon="103.284246"><ele>1772.1919</ele><time>2026-02-18T14:40:56.000Z</time></trkpt>
        <trkpt lat="29.470384" lon="103.284223"><ele>1772.7045</ele><time>2026-02-18T14:41:01.000Z</time></trkpt>
        <trkpt lat="29.470438" lon="103.284212"><ele>1772.138</ele><time>2026-02-18T14:41:06.000Z</time></trkpt>
        <trkpt lat="29.470485" lon="103.284208"><ele>1771.9222</ele><time>2026-02-18T14:41:10.000Z</time></trkpt>
        <trkpt lat="29.470539" lon="103.284219"><ele>1772.5416</ele><time>2026-02-18T14:41:15.000Z</time></trkpt>
        <trkpt lat="29.470584" lon="103.284236"><ele>1773.3868</ele><time>2026-02-18T14:41:19.000Z</time></trkpt>
        <trkpt lat="29.470624" lon="103.284264"><ele>1773.8962</ele><time>2026-02-18T14:41:23.000Z</time></trkpt>
        <trkpt lat="29.470658" lon="103.284293"><ele>1775.0972</ele><time>2026-02-18T14:41:26.000Z</time></trkpt>
        <trkpt lat="29.470711" lon="103.284324"><ele>1775.4866</ele><time>2026-02-18T14:41:31.000Z</time></trkpt>
        <trkpt lat="29.470759" lon="103.284347"><ele>1776.5068</ele><time>2026-02-18T14:41:37.000Z</time></trkpt>
        <trkpt lat="29.470805" lon="103.284353"><ele>1776.9133</ele><time>2026-02-18T14:41:42.000Z</time></trkpt>
        <trkpt lat="29.470853" lon="103.284355"><ele>1778.1891</ele><time>2026-02-18T14:41:46.000Z</time></trkpt>
        <trkpt lat="29.470904" lon="103.284362"><ele>1778.529</ele><time>2026-02-18T14:41:51.000Z</time></trkpt>
        <trkpt lat="29.470955" lon="103.284355"><ele>1778.3313</ele><time>2026-02-18T14:41:55.000Z</time></trkpt>
        <trkpt lat="29.47101" lon="103.284356"><ele>1777.0634</ele><time>2026-02-18T14:42:01.000Z</time></trkpt>
        <trkpt lat="29.471066" lon="103.284349"><ele>1777.509</ele><time>2026-02-18T14:42:08.000Z</time></trkpt>
        <trkpt lat="29.471117" lon="103.284351"><ele>1778.1473</ele><time>2026-02-18T14:42:13.000Z</time></trkpt>
        <trkpt lat="29.471164" lon="103.28437"><ele>1778.1139</ele><time>2026-02-18T14:42:18.000Z</time></trkpt>
        <trkpt lat="29.471203" lon="103.284406"><ele>1778.2244</ele><time>2026-02-18T14:42:22.000Z</time></trkpt>
        <trkpt lat="29.471246" lon="103.284441"><ele>1778.4799</ele><time>2026-02-18T14:42:27.000Z</time></trkpt>
        <trkpt lat="29.471285" lon="103.28447"><ele>1780.4888</ele><time>2026-02-18T14:42:31.000Z</time></trkpt>
        <trkpt lat="29.471332" lon="103.284482"><ele>1781.669</ele><time>2026-02-18T14:42:35.000Z</time></trkpt>
        <trkpt lat="29.471387" lon="103.284477"><ele>1780.778</ele><time>2026-02-18T14:42:40.000Z</time></trkpt>
        <trkpt lat="29.471431" lon="103.284455"><ele>1780.7402</ele><time>2026-02-18T14:42:44.000Z</time></trkpt>
        <trkpt lat="29.471481" lon="103.284428"><ele>1780.4224</ele><time>2026-02-18T14:42:49.000Z</time></trkpt>
        <trkpt lat="29.471524" lon="103.284416"><ele>1780.4199</ele><time>2026-02-18T14:42:53.000Z</time></trkpt>
        <trkpt lat="29.471581" lon="103.284406"><ele>1781.2615</ele><time>2026-02-18T14:42:59.000Z</time></trkpt>
        <trkpt lat="29.471628" lon="103.284404"><ele>1782.3917</ele><time>2026-02-18T14:43:04.000Z</time></trkpt>
        <trkpt lat="29.471676" lon="103.284391"><ele>1783.5511</ele><time>2026-02-18T14:43:10.000Z</time></trkpt>
        <trkpt lat="29.471718" lon="103.284373"><ele>1783.6344</ele><time>2026-02-18T14:43:15.000Z</time></trkpt>
        <trkpt lat="29.471762" lon="103.284358"><ele>1784.0269</ele><time>2026-02-18T14:43:20.000Z</time></trkpt>
        <trkpt lat="29.471803" lon="103.284342"><ele>1784.4425</ele><time>2026-02-18T14:43:24.000Z</time></trkpt>
        <trkpt lat="29.471852" lon="103.284319"><ele>1785.2675</ele><time>2026-02-18T14:43:30.000Z</time></trkpt>
        <trkpt lat="29.471893" lon="103.284298"><ele>1786.0204</ele><time>2026-02-18T14:43:35.000Z</time></trkpt>
        <trkpt lat="29.471939" lon="103.284282"><ele>1787.7014</ele><time>2026-02-18T14:43:41.000Z</time></trkpt>
        <trkpt lat="29.471993" lon="103.28427"><ele>1788.6174</ele><time>2026-02-18T14:43:57.000Z</time></trkpt>
        <trkpt lat="29.472036" lon="103.284288"><ele>1788.8821</ele><time>2026-02-18T14:44:04.000Z</time></trkpt>
        <trkpt lat="29.472077" lon="103.284323"><ele>1788.9459</ele><time>2026-02-18T14:44:11.000Z</time></trkpt>
        <trkpt lat="29.472082" lon="103.284388"><ele>1791.6831</ele><time>2026-02-18T14:44:18.000Z</time></trkpt>
        <trkpt lat="29.472046" lon="103.284436"><ele>1793.6776</ele><time>2026-02-18T14:44:27.000Z</time></trkpt>
        <trkpt lat="29.472008" lon="103.284472"><ele>1793.7477</ele><time>2026-02-18T14:44:33.000Z</time></trkpt>
        <trkpt lat="29.471973" lon="103.284511"><ele>1793.8864</ele><time>2026-02-18T14:44:39.000Z</time></trkpt>
        <trkpt lat="29.471937" lon="103.284552"><ele>1794.1711</ele><time>2026-02-18T14:44:49.000Z</time></trkpt>
        <trkpt lat="29.47193" lon="103.284612"><ele>1793.8563</ele><time>2026-02-18T14:44:57.000Z</time></trkpt>
        <trkpt lat="29.47191" lon="103.284669"><ele>1794.3115</ele><time>2026-02-18T14:45:05.000Z</time></trkpt>
        <trkpt lat="29.471892" lon="103.284721"><ele>1796.0505</ele><time>2026-02-18T14:45:17.000Z</time></trkpt>
        <trkpt lat="29.471887" lon="103.284771"><ele>1797.6777</ele><time>2026-02-18T14:45:27.000Z</time></trkpt>
        <trkpt lat="29.471912" lon="103.284821"><ele>1798.5282</ele><time>2026-02-18T14:45:38.000Z</time></trkpt>
        <trkpt lat="29.471955" lon="103.284836"><ele>1799.303</ele><time>2026-02-18T14:45:46.000Z</time></trkpt>
        <trkpt lat="29.472001" lon="103.284807"><ele>1800.8423</ele><time>2026-02-18T14:45:54.000Z</time></trkpt>
        <trkpt lat="29.472035" lon="103.284759"><ele>1802.8357</ele><time>2026-02-18T14:46:04.000Z</time></trkpt>
        <trkpt lat="29.47207" lon="103.284721"><ele>1802.384</ele><time>2026-02-18T14:46:10.000Z</time></trkpt>
        <trkpt lat="29.47211" lon="103.284691"><ele>1803.1244</ele><time>2026-02-18T14:46:17.000Z</time></trkpt>
        <trkpt lat="29.472156" lon="103.284681"><ele>1804.2979</ele><time>2026-02-18T14:46:23.000Z</time></trkpt>
        <trkpt lat="29.472213" lon="103.284679"><ele>1806.1495</ele><time>2026-02-18T14:46:32.000Z</time></trkpt>
        <trkpt lat="29.472268" lon="103.284683"><ele>1806.1394</ele><time>2026-02-18T14:46:41.000Z</time></trkpt>
        <trkpt lat="29.472312" lon="103.284702"><ele>1807.036</ele><time>2026-02-18T14:46:49.000Z</time></trkpt>
        <trkpt lat="29.472354" lon="103.284719"><ele>1808.1191</ele><time>2026-02-18T14:46:55.000Z</time></trkpt>
        <trkpt lat="29.472393" lon="103.284754"><ele>1806.8739</ele><time>2026-02-18T14:47:08.000Z</time></trkpt>
        <trkpt lat="29.472435" lon="103.28477"><ele>1806.2039</ele><time>2026-02-18T14:47:17.000Z</time></trkpt>
        <trkpt lat="29.472482" lon="103.284766"><ele>1808.3418</ele><time>2026-02-18T14:47:23.000Z</time></trkpt>
        <trkpt lat="29.472534" lon="103.284781"><ele>1807.5099</ele><time>2026-02-18T14:47:31.000Z</time></trkpt>
        <trkpt lat="29.472578" lon="103.284794"><ele>1806.1727</ele><time>2026-02-18T14:47:38.000Z</time></trkpt>
        <trkpt lat="29.472624" lon="103.284795"><ele>1808.389</ele><time>2026-02-18T14:47:44.000Z</time></trkpt>
        <trkpt lat="29.472669" lon="103.28481"><ele>1808.2804</ele><time>2026-02-18T14:47:52.000Z</time></trkpt>
        <trkpt lat="29.472715" lon="103.284813"><ele>1810.5928</ele><time>2026-02-18T14:47:59.000Z</time></trkpt>
        <trkpt lat="29.472793" lon="103.284822"><ele>1812.8541</ele><time>2026-02-18T14:48:22.000Z</time></trkpt>
        <trkpt lat="29.472831" lon="103.284848"><ele>1813.2545</ele><time>2026-02-18T14:48:31.000Z</time></trkpt>
        <trkpt lat="29.472871" lon="103.284878"><ele>1813.3097</ele><time>2026-02-18T14:48:38.000Z</time></trkpt>
        <trkpt lat="29.472912" lon="103.284871"><ele>1814.7982</ele><time>2026-02-18T14:48:42.000Z</time></trkpt>
        <trkpt lat="29.472965" lon="103.284867"><ele>1817.2847</ele><time>2026-02-18T14:48:48.000Z</time></trkpt>
        <trkpt lat="29.473021" lon="103.284858"><ele>1819.6268</ele><time>2026-02-18T14:48:56.000Z</time></trkpt>
        <trkpt lat="29.473063" lon="103.284852"><ele>1822.4218</ele><time>2026-02-18T14:49:02.000Z</time></trkpt>
        <trkpt lat="29.473112" lon="103.284857"><ele>1823.2252</ele><time>2026-02-18T14:49:10.000Z</time></trkpt>
        <trkpt lat="29.473161" lon="103.284859"><ele>1822.8573</ele><time>2026-02-18T14:49:21.000Z</time></trkpt>
        <trkpt lat="29.473203" lon="103.284871"><ele>1824.4491</ele><time>2026-02-18T14:49:30.000Z</time></trkpt>
        <trkpt lat="29.473243" lon="103.284894"><ele>1824.6412</ele><time>2026-02-18T14:49:36.000Z</time></trkpt>
        <trkpt lat="29.473291" lon="103.284918"><ele>1825.4453</ele><time>2026-02-18T14:49:42.000Z</time></trkpt>
        <trkpt lat="29.473339" lon="103.284938"><ele>1825.5452</ele><time>2026-02-18T14:49:50.000Z</time></trkpt>
        <trkpt lat="29.47338" lon="103.284955"><ele>1825.66</ele><time>2026-02-18T14:49:56.000Z</time></trkpt>
        <trkpt lat="29.473429" lon="103.284968"><ele>1826.5052</ele><time>2026-02-18T14:50:02.000Z</time></trkpt>
        <trkpt lat="29.473486" lon="103.284978"><ele>1826.5452</ele><time>2026-02-18T14:50:09.000Z</time></trkpt>
        <trkpt lat="29.47353" lon="103.28497"><ele>1826.5966</ele><time>2026-02-18T14:50:14.000Z</time></trkpt>
        <trkpt lat="29.473578" lon="103.284966"><ele>1828.0961</ele><time>2026-02-18T14:50:20.000Z</time></trkpt>
        <trkpt lat="29.473621" lon="103.284963"><ele>1829.614</ele><time>2026-02-18T14:50:24.000Z</time></trkpt>
        <trkpt lat="29.473669" lon="103.28496"><ele>1830.1887</ele><time>2026-02-18T14:50:29.000Z</time></trkpt>
        <trkpt lat="29.473718" lon="103.284959"><ele>1829.1249</ele><time>2026-02-18T14:50:34.000Z</time></trkpt>
        <trkpt lat="29.473769" lon="103.284962"><ele>1827.98</ele><time>2026-02-18T14:50:41.000Z</time></trkpt>
        <trkpt lat="29.473822" lon="103.284975"><ele>1827.211</ele><time>2026-02-18T14:50:50.000Z</time></trkpt>
        <trkpt lat="29.473868" lon="103.284984"><ele>1828.8843</ele><time>2026-02-18T14:50:56.000Z</time></trkpt>
        <trkpt lat="29.473913" lon="103.284988"><ele>1830.4429</ele><time>2026-02-18T14:51:01.000Z</time></trkpt>
        <trkpt lat="29.473969" lon="103.284985"><ele>1830.6569</ele><time>2026-02-18T14:51:06.000Z</time></trkpt>
        <trkpt lat="29.474019" lon="103.284976"><ele>1830.2544</ele><time>2026-02-18T14:51:11.000Z</time></trkpt>
        <trkpt lat="29.474066" lon="103.284965"><ele>1830.478</ele><time>2026-02-18T14:51:16.000Z</time></trkpt>
        <trkpt lat="29.474114" lon="103.284945"><ele>1830.4135</ele><time>2026-02-18T14:51:21.000Z</time></trkpt>
        <trkpt lat="29.474161" lon="103.284913"><ele>1831.5004</ele><time>2026-02-18T14:51:26.000Z</time></trkpt>
        <trkpt lat="29.474206" lon="103.284884"><ele>1831.1125</ele><time>2026-02-18T14:51:31.000Z</time></trkpt>
        <trkpt lat="29.474248" lon="103.284856"><ele>1830.8898</ele><time>2026-02-18T14:51:36.000Z</time></trkpt>
        <trkpt lat="29.474292" lon="103.284822"><ele>1830.273</ele><time>2026-02-18T14:51:41.000Z</time></trkpt>
        <trkpt lat="29.47433" lon="103.284773"><ele>1829.8976</ele><time>2026-02-18T14:51:47.000Z</time></trkpt>
        <trkpt lat="29.47434" lon="103.284721"><ele>1829.9316</ele><time>2026-02-18T14:51:52.000Z</time></trkpt>
        <trkpt lat="29.474326" lon="103.284655"><ele>1829.6483</ele><time>2026-02-18T14:51:58.000Z</time></trkpt>
        <trkpt lat="29.474306" lon="103.284601"><ele>1828.5674</ele><time>2026-02-18T14:52:04.000Z</time></trkpt>
        <trkpt lat="29.474288" lon="103.284541"><ele>1827.1031</ele><time>2026-02-18T14:52:09.000Z</time></trkpt>
        <trkpt lat="29.474289" lon="103.284489"><ele>1826.0868</ele><time>2026-02-18T14:52:13.000Z</time></trkpt>
        <trkpt lat="29.474304" lon="103.284427"><ele>1826.6654</ele><time>2026-02-18T14:52:18.000Z</time></trkpt>
        <trkpt lat="29.474328" lon="103.284378"><ele>1827.3789</ele><time>2026-02-18T14:52:22.000Z</time></trkpt>
        <trkpt lat="29.474365" lon="103.284332"><ele>1827.7966</ele><time>2026-02-18T14:52:26.000Z</time></trkpt>
        <trkpt lat="29.474407" lon="103.284304"><ele>1827.86</ele><time>2026-02-18T14:52:30.000Z</time></trkpt>
        <trkpt lat="29.474455" lon="103.284282"><ele>1828.0736</ele><time>2026-02-18T14:52:34.000Z</time></trkpt>
        <trkpt lat="29.474504" lon="103.284263"><ele>1827.5708</ele><time>2026-02-18T14:52:38.000Z</time></trkpt>
        <trkpt lat="29.474559" lon="103.284261"><ele>1826.7524</ele><time>2026-02-18T14:52:43.000Z</time></trkpt>
        <trkpt lat="29.474612" lon="103.284275"><ele>1826.683</ele><time>2026-02-18T14:52:48.000Z</time></trkpt>
        <trkpt lat="29.474658" lon="103.28429"><ele>1827.7496</ele><time>2026-02-18T14:52:52.000Z</time></trkpt>
        <trkpt lat="29.474702" lon="103.284272"><ele>1826.7673</ele><time>2026-02-18T14:52:57.000Z</time></trkpt>
        <trkpt lat="29.474733" lon="103.284225"><ele>1825.5736</ele><time>2026-02-18T14:53:02.000Z</time></trkpt>
        <trkpt lat="29.474759" lon="103.284181"><ele>1825.2114</ele><time>2026-02-18T14:53:06.000Z</time></trkpt>
        <trkpt lat="29.474788" lon="103.284129"><ele>1824.7725</ele><time>2026-02-18T14:53:11.000Z</time></trkpt>
        <trkpt lat="29.47482" lon="103.284073"><ele>1823.7969</ele><time>2026-02-18T14:53:16.000Z</time></trkpt>
        <trkpt lat="29.47485" lon="103.284025"><ele>1823.5615</ele><time>2026-02-18T14:53:21.000Z</time></trkpt>
        <trkpt lat="29.474886" lon="103.283992"><ele>1824.0236</ele><time>2026-02-18T14:53:25.000Z</time></trkpt>
        <trkpt lat="29.474933" lon="103.283957"><ele>1823.925</ele><time>2026-02-18T14:53:30.000Z</time></trkpt>
        <trkpt lat="29.47498" lon="103.283929"><ele>1823.644</ele><time>2026-02-18T14:53:35.000Z</time></trkpt>
        <trkpt lat="29.47503" lon="103.283911"><ele>1823.5104</ele><time>2026-02-18T14:53:40.000Z</time></trkpt>
        <trkpt lat="29.475071" lon="103.28389"><ele>1823.4122</ele><time>2026-02-18T14:53:44.000Z</time></trkpt>
        <trkpt lat="29.475116" lon="103.28386"><ele>1822.8102</ele><time>2026-02-18T14:53:49.000Z</time></trkpt>
        <trkpt lat="29.475157" lon="103.283837"><ele>1821.9137</ele><time>2026-02-18T14:53:53.000Z</time></trkpt>
        <trkpt lat="29.475203" lon="103.283806"><ele>1822.9825</ele><time>2026-02-18T14:53:59.000Z</time></trkpt>
        <trkpt lat="29.475246" lon="103.283798"><ele>1823.366</ele><time>2026-02-18T14:54:03.000Z</time></trkpt>
        <trkpt lat="29.475297" lon="103.283783"><ele>1822.1794</ele><time>2026-02-18T14:54:09.000Z</time></trkpt>
        <trkpt lat="29.475341" lon="103.283775"><ele>1821.4658</ele><time>2026-02-18T14:54:13.000Z</time></trkpt>
        <trkpt lat="29.475384" lon="103.283736"><ele>1820.2102</ele><time>2026-02-18T14:54:19.000Z</time></trkpt>
        <trkpt lat="29.475399" lon="103.283681"><ele>1819.8403</ele><time>2026-02-18T14:54:24.000Z</time></trkpt>
        <trkpt lat="29.475405" lon="103.283629"><ele>1820.1407</ele><time>2026-02-18T14:54:27.000Z</time></trkpt>
        <trkpt lat="29.475432" lon="103.283577"><ele>1819.8741</ele><time>2026-02-18T14:54:32.000Z</time></trkpt>
        <trkpt lat="29.475461" lon="103.283532"><ele>1819.8826</ele><time>2026-02-18T14:54:36.000Z</time></trkpt>
        <trkpt lat="29.47548" lon="103.283479"><ele>1818.6473</ele><time>2026-02-18T14:54:41.000Z</time></trkpt>
        <trkpt lat="29.475473" lon="103.283428"><ele>1816.3103</ele><time>2026-02-18T14:54:46.000Z</time></trkpt>
        <trkpt lat="29.475451" lon="103.283377"><ele>1815.4489</ele><time>2026-02-18T14:54:50.000Z</time></trkpt>
        <trkpt lat="29.475422" lon="103.283313"><ele>1813.3434</ele><time>2026-02-18T14:54:57.000Z</time></trkpt>
        <trkpt lat="29.475409" lon="103.283254"><ele>1813.6376</ele><time>2026-02-18T14:55:15.000Z</time></trkpt>
        <trkpt lat="29.475383" lon="103.283218"><ele>1812.3739</ele><time>2026-02-18T14:55:22.000Z</time></trkpt>
        <trkpt lat="29.475364" lon="103.283174"><ele>1812.003</ele><time>2026-02-18T14:55:25.000Z</time></trkpt>
        <trkpt lat="29.475355" lon="103.283113"><ele>1812.0593</ele><time>2026-02-18T14:55:29.000Z</time></trkpt>
        <trkpt lat="29.475367" lon="103.283047"><ele>1812.7634</ele><time>2026-02-18T14:55:33.000Z</time></trkpt>
        <trkpt lat="29.475402" lon="103.282999"><ele>1814.0068</ele><time>2026-02-18T14:55:37.000Z</time></trkpt>
        <trkpt lat="29.475448" lon="103.282965"><ele>1814.6261</ele><time>2026-02-18T14:55:41.000Z</time></trkpt>
        <trkpt lat="29.475494" lon="103.282945"><ele>1814.1847</ele><time>2026-02-18T14:55:44.000Z</time></trkpt>
        <trkpt lat="29.47555" lon="103.282921"><ele>1814.2567</ele><time>2026-02-18T14:55:49.000Z</time></trkpt>
        <trkpt lat="29.475593" lon="103.282906"><ele>1814.033</ele><time>2026-02-18T14:55:53.000Z</time></trkpt>
        <trkpt lat="29.475628" lon="103.282883"><ele>1813.2351</ele><time>2026-02-18T14:55:56.000Z</time></trkpt>
        <trkpt lat="29.475677" lon="103.282844"><ele>1811.0516</ele><time>2026-02-18T14:56:03.000Z</time></trkpt>
        <trkpt lat="29.475714" lon="103.282817"><ele>1810.4801</ele><time>2026-02-18T14:56:08.000Z</time></trkpt>
        <trkpt lat="29.47576" lon="103.282793"><ele>1809.6271</ele><time>2026-02-18T14:56:14.000Z</time></trkpt>
        <trkpt lat="29.475801" lon="103.282771"><ele>1809.2947</ele><time>2026-02-18T14:56:18.000Z</time></trkpt>
        <trkpt lat="29.475846" lon="103.282744"><ele>1808.7909</ele><time>2026-02-18T14:56:23.000Z</time></trkpt>
        <trkpt lat="29.475892" lon="103.282724"><ele>1809.854</ele><time>2026-02-18T14:56:27.000Z</time></trkpt>
        <trkpt lat="29.475944" lon="103.282696"><ele>1809.1936</ele><time>2026-02-18T14:56:32.000Z</time></trkpt>
        <trkpt lat="29.475997" lon="103.282691"><ele>1809.2764</ele><time>2026-02-18T14:56:36.000Z</time></trkpt>
        <trkpt lat="29.476052" lon="103.282686"><ele>1807.9387</ele><time>2026-02-18T14:56:41.000Z</time></trkpt>
        <trkpt lat="29.476106" lon="103.282687"><ele>1805.9982</ele><time>2026-02-18T14:56:46.000Z</time></trkpt>
        <trkpt lat="29.47616" lon="103.282694"><ele>1805.22</ele><time>2026-02-18T14:56:51.000Z</time></trkpt>
        <trkpt lat="29.476216" lon="103.282695"><ele>1803.898</ele><time>2026-02-18T14:56:56.000Z</time></trkpt>
        <trkpt lat="29.476262" lon="103.282713"><ele>1803.419</ele><time>2026-02-18T14:57:00.000Z</time></trkpt>
        <trkpt lat="29.476314" lon="103.282736"><ele>1803.6512</ele><time>2026-02-18T14:57:05.000Z</time></trkpt>
        <trkpt lat="29.476361" lon="103.282752"><ele>1803.8778</ele><time>2026-02-18T14:57:10.000Z</time></trkpt>
        <trkpt lat="29.476403" lon="103.282762"><ele>1805.1313</ele><time>2026-02-18T14:57:14.000Z</time></trkpt>
        <trkpt lat="29.476464" lon="103.282751"><ele>1803.3969</ele><time>2026-02-18T14:57:20.000Z</time></trkpt>
        <trkpt lat="29.476506" lon="103.282731"><ele>1802.5789</ele><time>2026-02-18T14:57:24.000Z</time></trkpt>
        <trkpt lat="29.476546" lon="103.282689"><ele>1802.1576</ele><time>2026-02-18T14:57:29.000Z</time></trkpt>
        <trkpt lat="29.476592" lon="103.282651"><ele>1802.1729</ele><time>2026-02-18T14:57:34.000Z</time></trkpt>
        <trkpt lat="29.476639" lon="103.282614"><ele>1802.4037</ele><time>2026-02-18T14:57:39.000Z</time></trkpt>
        <trkpt lat="29.476687" lon="103.282599"><ele>1802.0226</ele><time>2026-02-18T14:57:43.000Z</time></trkpt>
        <trkpt lat="29.476727" lon="103.28257"><ele>1801.7402</ele><time>2026-02-18T14:57:47.000Z</time></trkpt>
        <trkpt lat="29.476763" lon="103.282537"><ele>1800.7504</ele><time>2026-02-18T14:57:51.000Z</time></trkpt>
        <trkpt lat="29.476796" lon="103.282501"><ele>1799.4802</ele><time>2026-02-18T14:57:55.000Z</time></trkpt>
        <trkpt lat="29.476834" lon="103.282459"><ele>1798.5447</ele><time>2026-02-18T14:58:00.000Z</time></trkpt>
        <trkpt lat="29.476871" lon="103.282433"><ele>1797.4209</ele><time>2026-02-18T14:58:04.000Z</time></trkpt>
        <trkpt lat="29.476911" lon="103.282399"><ele>1796.3817</ele><time>2026-02-18T14:58:09.000Z</time></trkpt>
        <trkpt lat="29.476944" lon="103.282374"><ele>1795.9288</ele><time>2026-02-18T14:58:12.000Z</time></trkpt>
        <trkpt lat="29.476985" lon="103.282326"><ele>1796.1877</ele><time>2026-02-18T14:58:18.000Z</time></trkpt>
        <trkpt lat="29.477026" lon="103.282281"><ele>1796.8527</ele><time>2026-02-18T14:58:23.000Z</time></trkpt>
        <trkpt lat="29.477063" lon="103.282242"><ele>1796.4834</ele><time>2026-02-18T14:58:27.000Z</time></trkpt>
        <trkpt lat="29.477107" lon="103.282213"><ele>1796.2369</ele><time>2026-02-18T14:58:31.000Z</time></trkpt>
        <trkpt lat="29.477161" lon="103.282184"><ele>1796.6669</ele><time>2026-02-18T14:58:36.000Z</time></trkpt>
        <trkpt lat="29.477202" lon="103.28215"><ele>1796.6158</ele><time>2026-02-18T14:58:40.000Z</time></trkpt>
        <trkpt lat="29.477234" lon="103.282114"><ele>1796.9116</ele><time>2026-02-18T14:58:44.000Z</time></trkpt>
        <trkpt lat="29.477264" lon="103.282074"><ele>1797.1887</ele><time>2026-02-18T14:58:48.000Z</time></trkpt>
        <trkpt lat="29.477286" lon="103.282017"><ele>1797.0928</ele><time>2026-02-18T14:58:54.000Z</time></trkpt>
        <trkpt lat="29.4773" lon="103.281968"><ele>1796.3607</ele><time>2026-02-18T14:58:58.000Z</time></trkpt>
        <trkpt lat="29.477318" lon="103.281916"><ele>1796.7489</ele><time>2026-02-18T14:59:03.000Z</time></trkpt>
        <trkpt lat="29.477362" lon="103.281875"><ele>1797.1406</ele><time>2026-02-18T14:59:10.000Z</time></trkpt>
        <trkpt lat="29.477416" lon="103.281849"><ele>1795.732</ele><time>2026-02-18T14:59:18.000Z</time></trkpt>
        <trkpt lat="29.477467" lon="103.281841"><ele>1795.8118</ele><time>2026-02-18T14:59:31.000Z</time></trkpt>
        <trkpt lat="29.477487" lon="103.281896"><ele>1793.8143</ele><time>2026-02-18T15:00:17.000Z</time></trkpt>
        <trkpt lat="29.477497" lon="103.281945"><ele>1792.8335</ele><time>2026-02-18T15:00:22.000Z</time></trkpt>
        <trkpt lat="29.477509" lon="103.282005"><ele>1793.3776</ele><time>2026-02-18T15:00:28.000Z</time></trkpt>
        <trkpt lat="29.477507" lon="103.282063"><ele>1792.3512</ele><time>2026-02-18T15:00:33.000Z</time></trkpt>
        <trkpt lat="29.477496" lon="103.282121"><ele>1792.1282</ele><time>2026-02-18T15:00:38.000Z</time></trkpt>
        <trkpt lat="29.477504" lon="103.282178"><ele>1792.0813</ele><time>2026-02-18T15:00:44.000Z</time></trkpt>
        <trkpt lat="29.477512" lon="103.282229"><ele>1792.3</ele><time>2026-02-18T15:00:48.000Z</time></trkpt>
        <trkpt lat="29.477522" lon="103.282288"><ele>1792.2675</ele><time>2026-02-18T15:00:51.000Z</time></trkpt>
        <trkpt lat="29.477548" lon="103.282337"><ele>1791.86</ele><time>2026-02-18T15:00:55.000Z</time></trkpt>
        <trkpt lat="29.477586" lon="103.282377"><ele>1790.0219</ele><time>2026-02-18T15:00:59.000Z</time></trkpt>
        <trkpt lat="29.477616" lon="103.282427"><ele>1787.2744</ele><time>2026-02-18T15:01:05.000Z</time></trkpt>
        <trkpt lat="29.477611" lon="103.282481"><ele>1786.6864</ele><time>2026-02-18T15:01:10.000Z</time></trkpt>
        <trkpt lat="29.477593" lon="103.282527"><ele>1788.5154</ele><time>2026-02-18T15:01:13.000Z</time></trkpt>
        <trkpt lat="29.477572" lon="103.282592"><ele>1790.834</ele><time>2026-02-18T15:01:18.000Z</time></trkpt>
        <trkpt lat="29.477554" lon="103.282655"><ele>1791.9159</ele><time>2026-02-18T15:01:23.000Z</time></trkpt>
        <trkpt lat="29.477545" lon="103.282706"><ele>1791.2263</ele><time>2026-02-18T15:01:27.000Z</time></trkpt>
        <trkpt lat="29.47754" lon="103.28276"><ele>1791.8502</ele><time>2026-02-18T15:01:31.000Z</time></trkpt>
        <trkpt lat="29.47754" lon="103.282814"><ele>1792.1322</ele><time>2026-02-18T15:01:35.000Z</time></trkpt>
        <trkpt lat="29.477536" lon="103.282873"><ele>1792.361</ele><time>2026-02-18T15:01:40.000Z</time></trkpt>
        <trkpt lat="29.477527" lon="103.282926"><ele>1792.3746</ele><time>2026-02-18T15:01:44.000Z</time></trkpt>
        <trkpt lat="29.477528" lon="103.282978"><ele>1793.0168</ele><time>2026-02-18T15:01:48.000Z</time></trkpt>
        <trkpt lat="29.477521" lon="103.283031"><ele>1793.6376</ele><time>2026-02-18T15:01:52.000Z</time></trkpt>
        <trkpt lat="29.477511" lon="103.283083"><ele>1793.188</ele><time>2026-02-18T15:01:56.000Z</time></trkpt>
        <trkpt lat="29.477507" lon="103.28315"><ele>1792.7347</ele><time>2026-02-18T15:02:02.000Z</time></trkpt>
        <trkpt lat="29.477504" lon="103.283213"><ele>1792.2251</ele><time>2026-02-18T15:02:07.000Z</time></trkpt>
        <trkpt lat="29.477482" lon="103.28327"><ele>1792.3793</ele><time>2026-02-18T15:02:17.000Z</time></trkpt>
        <trkpt lat="29.477478" lon="103.283313"><ele>1793.1925</ele><time>2026-02-18T15:02:22.000Z</time></trkpt>
        <trkpt lat="29.477466" lon="103.283374"><ele>1794.7035</ele><time>2026-02-18T15:02:30.000Z</time></trkpt>
        <trkpt lat="29.477473" lon="103.283439"><ele>1797.5192</ele><time>2026-02-18T15:02:42.000Z</time></trkpt>
        <trkpt lat="29.477491" lon="103.283489"><ele>1799.0197</ele><time>2026-02-18T15:02:50.000Z</time></trkpt>
        <trkpt lat="29.477502" lon="103.283544"><ele>1800.7146</ele><time>2026-02-18T15:02:56.000Z</time></trkpt>
        <trkpt lat="29.477522" lon="103.283593"><ele>1801.0061</ele><time>2026-02-18T15:03:02.000Z</time></trkpt>
        <trkpt lat="29.47757" lon="103.283601"><ele>1799.6505</ele><time>2026-02-18T15:03:09.000Z</time></trkpt>
        <trkpt lat="29.477615" lon="103.283606"><ele>1798.8883</ele><time>2026-02-18T15:03:14.000Z</time></trkpt>
        <trkpt lat="29.477655" lon="103.283642"><ele>1799.0986</ele><time>2026-02-18T15:03:19.000Z</time></trkpt>
        <trkpt lat="29.477683" lon="103.283692"><ele>1800.3062</ele><time>2026-02-18T15:03:25.000Z</time></trkpt>
        <trkpt lat="29.47772" lon="103.283733"><ele>1801.9529</ele><time>2026-02-18T15:03:30.000Z</time></trkpt>
        <trkpt lat="29.477771" lon="103.283751"><ele>1802.2141</ele><time>2026-02-18T15:03:36.000Z</time></trkpt>
        <trkpt lat="29.477813" lon="103.283767"><ele>1801.8701</ele><time>2026-02-18T15:03:40.000Z</time></trkpt>
        <trkpt lat="29.477866" lon="103.283788"><ele>1800.6571</ele><time>2026-02-18T15:03:45.000Z</time></trkpt>
        <trkpt lat="29.477921" lon="103.283805"><ele>1800.2488</ele><time>2026-02-18T15:03:50.000Z</time></trkpt>
        <trkpt lat="29.477969" lon="103.283821"><ele>1799.5214</ele><time>2026-02-18T15:03:55.000Z</time></trkpt>
        <trkpt lat="29.478018" lon="103.283812"><ele>1799.9121</ele><time>2026-02-18T15:04:00.000Z</time></trkpt>
        <trkpt lat="29.478057" lon="103.283777"><ele>1800.8213</ele><time>2026-02-18T15:04:05.000Z</time></trkpt>
        <trkpt lat="29.478092" lon="103.283747"><ele>1801.3984</ele><time>2026-02-18T15:04:09.000Z</time></trkpt>
        <trkpt lat="29.478136" lon="103.283722"><ele>1801.6599</ele><time>2026-02-18T15:04:14.000Z</time></trkpt>
        <trkpt lat="29.478178" lon="103.283706"><ele>1802.7909</ele><time>2026-02-18T15:04:18.000Z</time></trkpt>
        <trkpt lat="29.47823" lon="103.283688"><ele>1802.29</ele><time>2026-02-18T15:04:23.000Z</time></trkpt>
        <trkpt lat="29.478274" lon="103.283658"><ele>1802.3202</ele><time>2026-02-18T15:04:28.000Z</time></trkpt>
        <trkpt lat="29.47831" lon="103.283621"><ele>1802.162</ele><time>2026-02-18T15:04:32.000Z</time></trkpt>
        <trkpt lat="29.478349" lon="103.283586"><ele>1801.887</ele><time>2026-02-18T15:04:37.000Z</time></trkpt>
        <trkpt lat="29.478393" lon="103.283577"><ele>1800.8368</ele><time>2026-02-18T15:04:41.000Z</time></trkpt>
        <trkpt lat="29.478447" lon="103.283595"><ele>1799.2219</ele><time>2026-02-18T15:04:46.000Z</time></trkpt>
        <trkpt lat="29.478488" lon="103.283629"><ele>1799.6118</ele><time>2026-02-18T15:04:50.000Z</time></trkpt>
        <trkpt lat="29.478534" lon="103.283665"><ele>1799.6193</ele><time>2026-02-18T15:04:54.000Z</time></trkpt>
        <trkpt lat="29.478584" lon="103.283677"><ele>1799.7919</ele><time>2026-02-18T15:04:58.000Z</time></trkpt>
        <trkpt lat="29.478628" lon="103.2837"><ele>1800.3275</ele><time>2026-02-18T15:05:01.000Z</time></trkpt>
        <trkpt lat="29.478678" lon="103.283715"><ele>1799.5876</ele><time>2026-02-18T15:05:05.000Z</time></trkpt>
        <trkpt lat="29.478728" lon="103.283746"><ele>1799.1683</ele><time>2026-02-18T15:05:10.000Z</time></trkpt>
        <trkpt lat="29.478766" lon="103.283788"><ele>1799.8607</ele><time>2026-02-18T15:05:15.000Z</time></trkpt>
        <trkpt lat="29.478781" lon="103.283854"><ele>1802.1222</ele><time>2026-02-18T15:05:21.000Z</time></trkpt>
        <trkpt lat="29.47879" lon="103.283906"><ele>1802.4669</ele><time>2026-02-18T15:05:25.000Z</time></trkpt>
        <trkpt lat="29.478806" lon="103.283957"><ele>1802.5626</ele><time>2026-02-18T15:05:29.000Z</time></trkpt>
        <trkpt lat="29.478838" lon="103.284007"><ele>1801.591</ele><time>2026-02-18T15:05:34.000Z</time></trkpt>
        <trkpt lat="29.47887" lon="103.284051"><ele>1801.206</ele><time>2026-02-18T15:05:39.000Z</time></trkpt>
        <trkpt lat="29.478911" lon="103.284085"><ele>1802.0548</ele><time>2026-02-18T15:05:44.000Z</time></trkpt>
        <trkpt lat="29.478957" lon="103.284109"><ele>1801.4598</ele><time>2026-02-18T15:05:49.000Z</time></trkpt>
        <trkpt lat="29.479001" lon="103.284118"><ele>1801.0338</ele><time>2026-02-18T15:05:53.000Z</time></trkpt>
        <trkpt lat="29.479054" lon="103.284113"><ele>1801.6909</ele><time>2026-02-18T15:05:58.000Z</time></trkpt>
        <trkpt lat="29.479103" lon="103.284093"><ele>1803.3104</ele><time>2026-02-18T15:06:03.000Z</time></trkpt>
        <trkpt lat="29.479147" lon="103.284077"><ele>1804.1908</ele><time>2026-02-18T15:06:07.000Z</time></trkpt>
        <trkpt lat="29.479196" lon="103.284071"><ele>1803.9044</ele><time>2026-02-18T15:06:12.000Z</time></trkpt>
        <trkpt lat="29.47924" lon="103.284062"><ele>1803.4412</ele><time>2026-02-18T15:06:16.000Z</time></trkpt>
        <trkpt lat="29.479292" lon="103.284055"><ele>1803.6132</ele><time>2026-02-18T15:06:21.000Z</time></trkpt>
        <trkpt lat="29.47935" lon="103.284059"><ele>1803.4333</ele><time>2026-02-18T15:06:27.000Z</time></trkpt>
        <trkpt lat="29.479403" lon="103.284052"><ele>1803.8563</ele><time>2026-02-18T15:06:32.000Z</time></trkpt>
        <trkpt lat="29.479451" lon="103.284044"><ele>1804.1211</ele><time>2026-02-18T15:06:37.000Z</time></trkpt>
        <trkpt lat="29.479496" lon="103.284036"><ele>1804.6995</ele><time>2026-02-18T15:06:43.000Z</time></trkpt>
        <trkpt lat="29.479545" lon="103.284007"><ele>1806.9279</ele><time>2026-02-18T15:07:20.000Z</time></trkpt>
        <trkpt lat="29.479573" lon="103.283995"><ele>1809.0236</ele><time>2026-02-18T15:07:26.000Z</time></trkpt>
        <trkpt lat="29.479621" lon="103.283986"><ele>1809.0742</ele><time>2026-02-18T15:07:31.000Z</time></trkpt>
        <trkpt lat="29.479669" lon="103.283965"><ele>1810.0208</ele><time>2026-02-18T15:07:35.000Z</time></trkpt>
        <trkpt lat="29.479729" lon="103.283951"><ele>1810.7753</ele><time>2026-02-18T15:07:41.000Z</time></trkpt>
        <trkpt lat="29.479779" lon="103.283944"><ele>1810.47</ele><time>2026-02-18T15:07:46.000Z</time></trkpt>
        <trkpt lat="29.479826" lon="103.28393"><ele>1811.1743</ele><time>2026-02-18T15:07:51.000Z</time></trkpt>
        <trkpt lat="29.479874" lon="103.283909"><ele>1811.0123</ele><time>2026-02-18T15:07:57.000Z</time></trkpt>
        <trkpt lat="29.479913" lon="103.283884"><ele>1811.4556</ele><time>2026-02-18T15:08:02.000Z</time></trkpt>
        <trkpt lat="29.479963" lon="103.283851"><ele>1812.6613</ele><time>2026-02-18T15:08:11.000Z</time></trkpt>
        <trkpt lat="29.480008" lon="103.283829"><ele>1813.4661</ele><time>2026-02-18T15:08:19.000Z</time></trkpt>
        <trkpt lat="29.48005" lon="103.28379"><ele>1815.3005</ele><time>2026-02-18T15:08:27.000Z</time></trkpt>
        <trkpt lat="29.480084" lon="103.283762"><ele>1815.9569</ele><time>2026-02-18T15:08:32.000Z</time></trkpt>
        <trkpt lat="29.480127" lon="103.283734"><ele>1817.004</ele><time>2026-02-18T15:08:37.000Z</time></trkpt>
        <trkpt lat="29.48017" lon="103.283703"><ele>1818.1807</ele><time>2026-02-18T15:08:43.000Z</time></trkpt>
        <trkpt lat="29.480213" lon="103.283691"><ele>1818.5559</ele><time>2026-02-18T15:08:50.000Z</time></trkpt>
        <trkpt lat="29.480261" lon="103.283671"><ele>1820.5178</ele><time>2026-02-18T15:08:57.000Z</time></trkpt>
        <trkpt lat="29.480298" lon="103.283639"><ele>1821.114</ele><time>2026-02-18T15:09:03.000Z</time></trkpt>
        <trkpt lat="29.480332" lon="103.2836"><ele>1820.8223</ele><time>2026-02-18T15:09:09.000Z</time></trkpt>
        <trkpt lat="29.480372" lon="103.28356"><ele>1822.3645</ele><time>2026-02-18T15:09:19.000Z</time></trkpt>
        <trkpt lat="29.480405" lon="103.283523"><ele>1822.9102</ele><time>2026-02-18T15:09:30.000Z</time></trkpt>
        <trkpt lat="29.48043" lon="103.283477"><ele>1823.5363</ele><time>2026-02-18T15:09:37.000Z</time></trkpt>
        <trkpt lat="29.480454" lon="103.283427"><ele>1824.2189</ele><time>2026-02-18T15:09:49.000Z</time></trkpt>
        <trkpt lat="29.48047" lon="103.283378"><ele>1824.297</ele><time>2026-02-18T15:10:40.000Z</time></trkpt>
        <trkpt lat="29.48047" lon="103.283331"><ele>1825.3483</ele><time>2026-02-18T15:10:48.000Z</time></trkpt>
        <trkpt lat="29.480505" lon="103.283282"><ele>1828.174</ele><time>2026-02-18T15:11:00.000Z</time></trkpt>
        <trkpt lat="29.480549" lon="103.283254"><ele>1831.5803</ele><time>2026-02-18T15:11:11.000Z</time></trkpt>
        <trkpt lat="29.480597" lon="103.28325"><ele>1830.9937</ele><time>2026-02-18T15:11:20.000Z</time></trkpt>
        <trkpt lat="29.480641" lon="103.283266"><ele>1830.0613</ele><time>2026-02-18T15:11:27.000Z</time></trkpt>
        <trkpt lat="29.480677" lon="103.283296"><ele>1830.9231</ele><time>2026-02-18T15:11:33.000Z</time></trkpt>
        <trkpt lat="29.480703" lon="103.28334"><ele>1829.8551</ele><time>2026-02-18T15:11:38.000Z</time></trkpt>
        <trkpt lat="29.480721" lon="103.283397"><ele>1828.336</ele><time>2026-02-18T15:11:43.000Z</time></trkpt>
        <trkpt lat="29.48072" lon="103.283462"><ele>1833.7443</ele><time>2026-02-18T15:12:30.000Z</time></trkpt>
        <trkpt lat="29.480724" lon="103.283497"><ele>1832.4032</ele><time>2026-02-18T15:12:37.000Z</time></trkpt>
        <trkpt lat="29.480731" lon="103.283556"><ele>1832.4739</ele><time>2026-02-18T15:12:42.000Z</time></trkpt>
        <trkpt lat="29.480742" lon="103.283613"><ele>1832.0477</ele><time>2026-02-18T15:12:47.000Z</time></trkpt>
        <trkpt lat="29.480773" lon="103.283669"><ele>1832.385</ele><time>2026-02-18T15:12:55.000Z</time></trkpt>
        <trkpt lat="29.480799" lon="103.283717"><ele>1833.3849</ele><time>2026-02-18T15:13:03.000Z</time></trkpt>
        <trkpt lat="29.480813" lon="103.283767"><ele>1834.8271</ele><time>2026-02-18T15:13:08.000Z</time></trkpt>
        <trkpt lat="29.480823" lon="103.283826"><ele>1836.3016</ele><time>2026-02-18T15:13:13.000Z</time></trkpt>
        <trkpt lat="29.480821" lon="103.283883"><ele>1837.2296</ele><time>2026-02-18T15:13:18.000Z</time></trkpt>
        <trkpt lat="29.480794" lon="103.283937"><ele>1836.6664</ele><time>2026-02-18T15:13:23.000Z</time></trkpt>
        <trkpt lat="29.480758" lon="103.283983"><ele>1836.8676</ele><time>2026-02-18T15:13:27.000Z</time></trkpt>
        <trkpt lat="29.480723" lon="103.284038"><ele>1838.1621</ele><time>2026-02-18T15:13:33.000Z</time></trkpt>
        <trkpt lat="29.480698" lon="103.284089"><ele>1838.6501</ele><time>2026-02-18T15:13:38.000Z</time></trkpt>
        <trkpt lat="29.48068" lon="103.284148"><ele>1838.5524</ele><time>2026-02-18T15:13:43.000Z</time></trkpt>
        <trkpt lat="29.480664" lon="103.284207"><ele>1838.2517</ele><time>2026-02-18T15:13:48.000Z</time></trkpt>
        <trkpt lat="29.480645" lon="103.284259"><ele>1837.9406</ele><time>2026-02-18T15:13:53.000Z</time></trkpt>
        <trkpt lat="29.480629" lon="103.284311"><ele>1838.1809</ele><time>2026-02-18T15:13:58.000Z</time></trkpt>
        <trkpt lat="29.480611" lon="103.284356"><ele>1837.9507</ele><time>2026-02-18T15:14:02.000Z</time></trkpt>
        <trkpt lat="29.480593" lon="103.284413"><ele>1838.3425</ele><time>2026-02-18T15:14:06.000Z</time></trkpt>
        <trkpt lat="29.480583" lon="103.28448"><ele>1838.0344</ele><time>2026-02-18T15:14:11.000Z</time></trkpt>
        <trkpt lat="29.480576" lon="103.284532"><ele>1838.7467</ele><time>2026-02-18T15:14:15.000Z</time></trkpt>
        <trkpt lat="29.480594" lon="103.284591"><ele>1839.0408</ele><time>2026-02-18T15:14:26.000Z</time></trkpt>
        <trkpt lat="29.480628" lon="103.284624"><ele>1838.4785</ele><time>2026-02-18T15:14:33.000Z</time></trkpt>
        <trkpt lat="29.48067" lon="103.284657"><ele>1837.9502</ele><time>2026-02-18T15:14:39.000Z</time></trkpt>
        <trkpt lat="29.480723" lon="103.284669"><ele>1837.6096</ele><time>2026-02-18T15:14:45.000Z</time></trkpt>
        <trkpt lat="29.480769" lon="103.284662"><ele>1837.8336</ele><time>2026-02-18T15:14:50.000Z</time></trkpt>
        <trkpt lat="29.480818" lon="103.284645"><ele>1838.1661</ele><time>2026-02-18T15:14:55.000Z</time></trkpt>
        <trkpt lat="29.48087" lon="103.284623"><ele>1836.9359</ele><time>2026-02-18T15:15:01.000Z</time></trkpt>
        <trkpt lat="29.480917" lon="103.284601"><ele>1836.0905</ele><time>2026-02-18T15:15:07.000Z</time></trkpt>
        <trkpt lat="29.480967" lon="103.284593"><ele>1834.8894</ele><time>2026-02-18T15:15:12.000Z</time></trkpt>
        <trkpt lat="29.481018" lon="103.284594"><ele>1835.0806</ele><time>2026-02-18T15:15:17.000Z</time></trkpt>
        <trkpt lat="29.481069" lon="103.284604"><ele>1835.7648</ele><time>2026-02-18T15:15:21.000Z</time></trkpt>
        <trkpt lat="29.481118" lon="103.284617"><ele>1835.8092</ele><time>2026-02-18T15:15:25.000Z</time></trkpt>
        <trkpt lat="29.481168" lon="103.284625"><ele>1835.2317</ele><time>2026-02-18T15:15:29.000Z</time></trkpt>
        <trkpt lat="29.481216" lon="103.284622"><ele>1835.8301</ele><time>2026-02-18T15:15:33.000Z</time></trkpt>
        <trkpt lat="29.481271" lon="103.284614"><ele>1835.5005</ele><time>2026-02-18T15:15:38.000Z</time></trkpt>
        <trkpt lat="29.481323" lon="103.284594"><ele>1835.3193</ele><time>2026-02-18T15:15:43.000Z</time></trkpt>
        <trkpt lat="29.48137" lon="103.284573"><ele>1833.8687</ele><time>2026-02-18T15:15:48.000Z</time></trkpt>
        <trkpt lat="29.481416" lon="103.284547"><ele>1832.0836</ele><time>2026-02-18T15:15:53.000Z</time></trkpt>
        <trkpt lat="29.481468" lon="103.284531"><ele>1830.5387</ele><time>2026-02-18T15:15:58.000Z</time></trkpt>
        <trkpt lat="29.48152" lon="103.28451"><ele>1829.3795</ele><time>2026-02-18T15:16:03.000Z</time></trkpt>
        <trkpt lat="29.481573" lon="103.284498"><ele>1829.4664</ele><time>2026-02-18T15:16:08.000Z</time></trkpt>
        <trkpt lat="29.481616" lon="103.284488"><ele>1830.2697</ele><time>2026-02-18T15:16:12.000Z</time></trkpt>
        <trkpt lat="29.481667" lon="103.284474"><ele>1830.3562</ele><time>2026-02-18T15:16:17.000Z</time></trkpt>
        <trkpt lat="29.481722" lon="103.284465"><ele>1830.8362</ele><time>2026-02-18T15:16:23.000Z</time></trkpt>
        <trkpt lat="29.481773" lon="103.284442"><ele>1830.2457</ele><time>2026-02-18T15:16:28.000Z</time></trkpt>
        <trkpt lat="29.481825" lon="103.284427"><ele>1829.051</ele><time>2026-02-18T15:16:33.000Z</time></trkpt>
        <trkpt lat="29.481871" lon="103.284404"><ele>1827.7303</ele><time>2026-02-18T15:16:38.000Z</time></trkpt>
        <trkpt lat="29.481915" lon="103.284389"><ele>1827.3717</ele><time>2026-02-18T15:16:42.000Z</time></trkpt>
        <trkpt lat="29.481967" lon="103.284383"><ele>1827.6614</ele><time>2026-02-18T15:16:47.000Z</time></trkpt>
        <trkpt lat="29.482017" lon="103.28438"><ele>1828.3665</ele><time>2026-02-18T15:16:51.000Z</time></trkpt>
        <trkpt lat="29.482074" lon="103.284385"><ele>1828.5436</ele><time>2026-02-18T15:16:56.000Z</time></trkpt>
        <trkpt lat="29.482129" lon="103.284389"><ele>1829.1652</ele><time>2026-02-18T15:17:01.000Z</time></trkpt>
        <trkpt lat="29.482185" lon="103.284389"><ele>1829.1854</ele><time>2026-02-18T15:17:06.000Z</time></trkpt>
        <trkpt lat="29.482235" lon="103.284393"><ele>1828.6425</ele><time>2026-02-18T15:17:11.000Z</time></trkpt>
        <trkpt lat="29.482291" lon="103.284387"><ele>1827.5564</ele><time>2026-02-18T15:17:16.000Z</time></trkpt>
        <trkpt lat="29.482347" lon="103.284387"><ele>1827.4996</ele><time>2026-02-18T15:17:22.000Z</time></trkpt>
        <trkpt lat="29.482391" lon="103.284391"><ele>1827.8586</ele><time>2026-02-18T15:17:26.000Z</time></trkpt>
        <trkpt lat="29.482448" lon="103.284396"><ele>1826.9971</ele><time>2026-02-18T15:17:31.000Z</time></trkpt>
        <trkpt lat="29.482494" lon="103.284402"><ele>1826.9429</ele><time>2026-02-18T15:17:35.000Z</time></trkpt>
        <trkpt lat="29.482551" lon="103.284402"><ele>1826.433</ele><time>2026-02-18T15:17:40.000Z</time></trkpt>
        <trkpt lat="29.4826" lon="103.284403"><ele>1826.5225</ele><time>2026-02-18T15:17:44.000Z</time></trkpt>
        <trkpt lat="29.482648" lon="103.284404"><ele>1826.9364</ele><time>2026-02-18T15:17:47.000Z</time></trkpt>
        <trkpt lat="29.482694" lon="103.284408"><ele>1828.2408</ele><time>2026-02-18T15:17:51.000Z</time></trkpt>
        <trkpt lat="29.482744" lon="103.284416"><ele>1828.6564</ele><time>2026-02-18T15:17:55.000Z</time></trkpt>
        <trkpt lat="29.482794" lon="103.284426"><ele>1828.1927</ele><time>2026-02-18T15:17:59.000Z</time></trkpt>
        <trkpt lat="29.482845" lon="103.284432"><ele>1827.4343</ele><time>2026-02-18T15:18:04.000Z</time></trkpt>
        <trkpt lat="29.482893" lon="103.284437"><ele>1827.8488</ele><time>2026-02-18T15:18:09.000Z</time></trkpt>
        <trkpt lat="29.48294" lon="103.284438"><ele>1828.6482</ele><time>2026-02-18T15:18:14.000Z</time></trkpt>
        <trkpt lat="29.482983" lon="103.284439"><ele>1828.8627</ele><time>2026-02-18T15:18:18.000Z</time></trkpt>
        <trkpt lat="29.483036" lon="103.28444"><ele>1828.4552</ele><time>2026-02-18T15:18:23.000Z</time></trkpt>
        <trkpt lat="29.483093" lon="103.284433"><ele>1827.9109</ele><time>2026-02-18T15:19:05.000Z</time></trkpt>
        <trkpt lat="29.483117" lon="103.284445"><ele>1828.5159</ele><time>2026-02-18T15:19:10.000Z</time></trkpt>
        <trkpt lat="29.483168" lon="103.284462"><ele>1829.8386</ele><time>2026-02-18T15:19:16.000Z</time></trkpt>
        <trkpt lat="29.483177" lon="103.28452"><ele>1828.2335</ele><time>2026-02-18T15:20:03.000Z</time></trkpt>
        <trkpt lat="29.483188" lon="103.284583"><ele>1829.6796</ele><time>2026-02-18T15:21:01.000Z</time></trkpt>
        <trkpt lat="29.483185" lon="103.284634"><ele>1829.0511</ele><time>2026-02-18T15:21:44.000Z</time></trkpt>
        <trkpt lat="29.483189" lon="103.28468"><ele>1828.3771</ele><time>2026-02-18T15:21:50.000Z</time></trkpt>
        <trkpt lat="29.483215" lon="103.284731"><ele>1827.8888</ele><time>2026-02-18T15:21:55.000Z</time></trkpt>
        <trkpt lat="29.483235" lon="103.284786"><ele>1827.784</ele><time>2026-02-18T15:22:00.000Z</time></trkpt>
        <trkpt lat="29.483254" lon="103.284849"><ele>1828.0668</ele><time>2026-02-18T15:22:08.000Z</time></trkpt>
        <trkpt lat="29.483272" lon="103.284897"><ele>1829.6229</ele><time>2026-02-18T15:22:15.000Z</time></trkpt>
        <trkpt lat="29.483281" lon="103.284951"><ele>1829.6038</ele><time>2026-02-18T15:22:20.000Z</time></trkpt>
        <trkpt lat="29.483284" lon="103.285008"><ele>1829.8418</ele><time>2026-02-18T15:22:25.000Z</time></trkpt>
        <trkpt lat="29.483299" lon="103.285058"><ele>1830.6057</ele><time>2026-02-18T15:22:30.000Z</time></trkpt>
        <trkpt lat="29.483336" lon="103.285098"><ele>1830.5083</ele><time>2026-02-18T15:22:35.000Z</time></trkpt>
        <trkpt lat="29.483356" lon="103.285155"><ele>1832.4855</ele><time>2026-02-18T15:22:51.000Z</time></trkpt>
        <trkpt lat="29.483398" lon="103.28513"><ele>1831.0529</ele><time>2026-02-18T15:23:09.000Z</time></trkpt>
        <trkpt lat="29.483391" lon="103.285077"><ele>1830.1981</ele><time>2026-02-18T15:23:17.000Z</time></trkpt>
        <trkpt lat="29.483431" lon="103.285081"><ele>1833.2921</ele><time>2026-02-18T15:24:31.000Z</time></trkpt>
        <trkpt lat="29.483461" lon="103.285064"><ele>1833.1006</ele><time>2026-02-18T15:24:36.000Z</time></trkpt>
        <trkpt lat="29.483506" lon="103.28506"><ele>1833.191</ele><time>2026-02-18T15:24:41.000Z</time></trkpt>
        <trkpt lat="29.483551" lon="103.285067"><ele>1833.3228</ele><time>2026-02-18T15:24:45.000Z</time></trkpt>
        <trkpt lat="29.4836" lon="103.2851"><ele>1830.9725</ele><time>2026-02-18T15:24:52.000Z</time></trkpt>
        <trkpt lat="29.483638" lon="103.285142"><ele>1830.2905</ele><time>2026-02-18T15:24:57.000Z</time></trkpt>
        <trkpt lat="29.483671" lon="103.28518"><ele>1830.0056</ele><time>2026-02-18T15:25:01.000Z</time></trkpt>
        <trkpt lat="29.483708" lon="103.28521"><ele>1830.1946</ele><time>2026-02-18T15:25:05.000Z</time></trkpt>
        <trkpt lat="29.483753" lon="103.285219"><ele>1830.872</ele><time>2026-02-18T15:25:09.000Z</time></trkpt>
        <trkpt lat="29.483814" lon="103.285205"><ele>1831.6486</ele><time>2026-02-18T15:25:16.000Z</time></trkpt>
        <trkpt lat="29.483832" lon="103.285148"><ele>1830.5267</ele><time>2026-02-18T15:25:23.000Z</time></trkpt>
        <trkpt lat="29.483858" lon="103.285101"><ele>1829.569</ele><time>2026-02-18T15:25:29.000Z</time></trkpt>
        <trkpt lat="29.483897" lon="103.285055"><ele>1830.6868</ele><time>2026-02-18T15:25:36.000Z</time></trkpt>
        <trkpt lat="29.483941" lon="103.285026"><ele>1830.0977</ele><time>2026-02-18T15:25:41.000Z</time></trkpt>
        <trkpt lat="29.483994" lon="103.285001"><ele>1830.4932</ele><time>2026-02-18T15:25:46.000Z</time></trkpt>
        <trkpt lat="29.484046" lon="103.284981"><ele>1831.3015</ele><time>2026-02-18T15:25:51.000Z</time></trkpt>
        <trkpt lat="29.484096" lon="103.284972"><ele>1832.6292</ele><time>2026-02-18T15:25:56.000Z</time></trkpt>
        <trkpt lat="29.484142" lon="103.28496"><ele>1831.1763</ele><time>2026-02-18T15:26:01.000Z</time></trkpt>
        <trkpt lat="29.484199" lon="103.284965"><ele>1832.0394</ele><time>2026-02-18T15:26:09.000Z</time></trkpt>
        <trkpt lat="29.484245" lon="103.284968"><ele>1832.3684</ele><time>2026-02-18T15:26:20.000Z</time></trkpt>
        <trkpt lat="29.484283" lon="103.284972"><ele>1832.4706</ele><time>2026-02-18T15:26:24.000Z</time></trkpt>
        <trkpt lat="29.484333" lon="103.284971"><ele>1833.2461</ele><time>2026-02-18T15:26:29.000Z</time></trkpt>
        <trkpt lat="29.484393" lon="103.284962"><ele>1834.3904</ele><time>2026-02-18T15:26:35.000Z</time></trkpt>
        <trkpt lat="29.484442" lon="103.284937"><ele>1834.9156</ele><time>2026-02-18T15:26:40.000Z</time></trkpt>
        <trkpt lat="29.484459" lon="103.284872"><ele>1838.0763</ele><time>2026-02-18T15:27:12.000Z</time></trkpt>
        <trkpt lat="29.484512" lon="103.284895"><ele>1838.0602</ele><time>2026-02-18T15:27:46.000Z</time></trkpt>
      </trkseg>
      <trkseg>
        <trkpt lat="29.484785" lon="103.284816"><ele>1843.5103</ele><time>2026-02-18T15:51:19.000Z</time></trkpt>
        <trkpt lat="29.484785" lon="103.284816"><ele>1843.5165</ele><time>2026-02-18T15:51:20.000Z</time></trkpt>
        <trkpt lat="29.484785" lon="103.284816"><ele>1843.4843</ele><time>2026-02-18T15:51:21.000Z</time></trkpt>
        <trkpt lat="29.484792" lon="103.284815"><ele>1843.3806</ele><time>2026-02-18T15:51:23.000Z</time></trkpt>
        <trkpt lat="29.484842" lon="103.284811"><ele>1842.6075</ele><time>2026-02-18T15:51:26.000Z</time></trkpt>
        <trkpt lat="29.484929" lon="103.284801"><ele>1840.1052</ele><time>2026-02-18T15:51:28.000Z</time></trkpt>
        <trkpt lat="29.485065" lon="103.284783"><ele>1838.4238</ele><time>2026-02-18T15:51:39.000Z</time></trkpt>
        <trkpt lat="29.48511" lon="103.284777"><ele>1838.8286</ele><time>2026-02-18T15:51:44.000Z</time></trkpt>
        <trkpt lat="29.485161" lon="103.284778"><ele>1839.4313</ele><time>2026-02-18T15:51:48.000Z</time></trkpt>
        <trkpt lat="29.485217" lon="103.284783"><ele>1839.7495</ele><time>2026-02-18T15:51:54.000Z</time></trkpt>
        <trkpt lat="29.485273" lon="103.284781"><ele>1839.9135</ele><time>2026-02-18T15:52:00.000Z</time></trkpt>
        <trkpt lat="29.485339" lon="103.284775"><ele>1841.0582</ele><time>2026-02-18T15:52:21.000Z</time></trkpt>
        <trkpt lat="29.485381" lon="103.284767"><ele>1841.3591</ele><time>2026-02-18T15:52:28.000Z</time></trkpt>
        <trkpt lat="29.48543" lon="103.284782"><ele>1841.5818</ele><time>2026-02-18T15:52:33.000Z</time></trkpt>
        <trkpt lat="29.485474" lon="103.284808"><ele>1841.536</ele><time>2026-02-18T15:52:37.000Z</time></trkpt>
        <trkpt lat="29.485519" lon="103.284829"><ele>1842.1713</ele><time>2026-02-18T15:52:41.000Z</time></trkpt>
        <trkpt lat="29.485572" lon="103.284857"><ele>1842.2885</ele><time>2026-02-18T15:52:47.000Z</time></trkpt>
        <trkpt lat="29.485613" lon="103.284895"><ele>1841.6775</ele><time>2026-02-18T15:52:53.000Z</time></trkpt>
        <trkpt lat="29.485648" lon="103.284932"><ele>1842.3766</ele><time>2026-02-18T15:52:58.000Z</time></trkpt>
        <trkpt lat="29.485684" lon="103.284959"><ele>1843.5637</ele><time>2026-02-18T15:53:02.000Z</time></trkpt>
        <trkpt lat="29.485724" lon="103.284999"><ele>1843.9728</ele><time>2026-02-18T15:53:07.000Z</time></trkpt>
        <trkpt lat="29.485768" lon="103.285033"><ele>1844.3839</ele><time>2026-02-18T15:53:12.000Z</time></trkpt>
        <trkpt lat="29.485813" lon="103.285074"><ele>1843.9504</ele><time>2026-02-18T15:53:18.000Z</time></trkpt>
        <trkpt lat="29.485849" lon="103.2851"><ele>1842.9746</ele><time>2026-02-18T15:53:22.000Z</time></trkpt>
        <trkpt lat="29.485897" lon="103.285094"><ele>1843.3789</ele><time>2026-02-18T15:53:27.000Z</time></trkpt>
        <trkpt lat="29.485917" lon="103.285052"><ele>1844.5696</ele><time>2026-02-18T15:53:32.000Z</time></trkpt>
        <trkpt lat="29.485912" lon="103.284994"><ele>1844.9701</ele><time>2026-02-18T15:53:36.000Z</time></trkpt>
        <trkpt lat="29.485893" lon="103.284937"><ele>1845.184</ele><time>2026-02-18T15:53:40.000Z</time></trkpt>
        <trkpt lat="29.485882" lon="103.284878"><ele>1845.8502</ele><time>2026-02-18T15:53:45.000Z</time></trkpt>
        <trkpt lat="29.485882" lon="103.284819"><ele>1847.2031</ele><time>2026-02-18T15:53:51.000Z</time></trkpt>
        <trkpt lat="29.485918" lon="103.284782"><ele>1847.8534</ele><time>2026-02-18T15:53:56.000Z</time></trkpt>
        <trkpt lat="29.485971" lon="103.284755"><ele>1849.0995</ele><time>2026-02-18T15:54:03.000Z</time></trkpt>
        <trkpt lat="29.486022" lon="103.284756"><ele>1850.2424</ele><time>2026-02-18T15:54:07.000Z</time></trkpt>
        <trkpt lat="29.486077" lon="103.284765"><ele>1850.8666</ele><time>2026-02-18T15:54:15.000Z</time></trkpt>
        <trkpt lat="29.486129" lon="103.284767"><ele>1851.6434</ele><time>2026-02-18T15:54:23.000Z</time></trkpt>
        <trkpt lat="29.48618" lon="103.284773"><ele>1851.7972</ele><time>2026-02-18T15:54:29.000Z</time></trkpt>
        <trkpt lat="29.486228" lon="103.28478"><ele>1851.7361</ele><time>2026-02-18T15:54:34.000Z</time></trkpt>
        <trkpt lat="29.48628" lon="103.28479"><ele>1850.6212</ele><time>2026-02-18T15:54:41.000Z</time></trkpt>
        <trkpt lat="29.486323" lon="103.284795"><ele>1850.7786</ele><time>2026-02-18T15:54:46.000Z</time></trkpt>
        <trkpt lat="29.486368" lon="103.284812"><ele>1850.72</ele><time>2026-02-18T15:54:52.000Z</time></trkpt>
        <trkpt lat="29.486414" lon="103.284826"><ele>1852.0883</ele><time>2026-02-18T15:54:57.000Z</time></trkpt>
        <trkpt lat="29.486461" lon="103.284839"><ele>1852.8104</ele><time>2026-02-18T15:55:01.000Z</time></trkpt>
        <trkpt lat="29.486519" lon="103.284857"><ele>1853.378</ele><time>2026-02-18T15:55:06.000Z</time></trkpt>
        <trkpt lat="29.486577" lon="103.284868"><ele>1853.6011</ele><time>2026-02-18T15:55:12.000Z</time></trkpt>
        <trkpt lat="29.48662" lon="103.28488"><ele>1853.8076</ele><time>2026-02-18T15:55:17.000Z</time></trkpt>
        <trkpt lat="29.486663" lon="103.284895"><ele>1853.9581</ele><time>2026-02-18T15:55:22.000Z</time></trkpt>
        <trkpt lat="29.48671" lon="103.284914"><ele>1854.1516</ele><time>2026-02-18T15:55:28.000Z</time></trkpt>
        <trkpt lat="29.48675" lon="103.284894"><ele>1854.445</ele><time>2026-02-18T15:55:33.000Z</time></trkpt>
        <trkpt lat="29.486781" lon="103.284857"><ele>1854.8733</ele><time>2026-02-18T15:55:38.000Z</time></trkpt>
        <trkpt lat="29.486817" lon="103.284804"><ele>1856.2422</ele><time>2026-02-18T15:55:43.000Z</time></trkpt>
        <trkpt lat="29.486848" lon="103.284754"><ele>1857.4283</ele><time>2026-02-18T15:55:48.000Z</time></trkpt>
        <trkpt lat="29.486881" lon="103.284714"><ele>1857.7246</ele><time>2026-02-18T15:55:53.000Z</time></trkpt>
        <trkpt lat="29.486924" lon="103.284694"><ele>1859.45</ele><time>2026-02-18T15:55:58.000Z</time></trkpt>
        <trkpt lat="29.486975" lon="103.284705"><ele>1860.4055</ele><time>2026-02-18T15:56:03.000Z</time></trkpt>
        <trkpt lat="29.487005" lon="103.284752"><ele>1860.9706</ele><time>2026-02-18T15:56:08.000Z</time></trkpt>
        <trkpt lat="29.487028" lon="103.284807"><ele>1861.4824</ele><time>2026-02-18T15:56:12.000Z</time></trkpt>
        <trkpt lat="29.487033" lon="103.284866"><ele>1862.799</ele><time>2026-02-18T15:56:17.000Z</time></trkpt>
        <trkpt lat="29.487028" lon="103.284929"><ele>1862.9114</ele><time>2026-02-18T15:56:23.000Z</time></trkpt>
        <trkpt lat="29.487014" lon="103.284982"><ele>1863.2961</ele><time>2026-02-18T15:56:28.000Z</time></trkpt>
        <trkpt lat="29.486983" lon="103.285024"><ele>1863.4974</ele><time>2026-02-18T15:56:33.000Z</time></trkpt>
        <trkpt lat="29.486951" lon="103.285061"><ele>1864.0533</ele><time>2026-02-18T15:56:37.000Z</time></trkpt>
        <trkpt lat="29.486904" lon="103.285092"><ele>1863.711</ele><time>2026-02-18T15:56:42.000Z</time></trkpt>
        <trkpt lat="29.48685" lon="103.285112"><ele>1863.9482</ele><time>2026-02-18T15:56:47.000Z</time></trkpt>
        <trkpt lat="29.4868" lon="103.285123"><ele>1864.4636</ele><time>2026-02-18T15:56:52.000Z</time></trkpt>
        <trkpt lat="29.48675" lon="103.285126"><ele>1865.2117</ele><time>2026-02-18T15:56:57.000Z</time></trkpt>
        <trkpt lat="29.486703" lon="103.285139"><ele>1865.5212</ele><time>2026-02-18T15:57:02.000Z</time></trkpt>
        <trkpt lat="29.486654" lon="103.285148"><ele>1866.3556</ele><time>2026-02-18T15:57:07.000Z</time></trkpt>
        <trkpt lat="29.48663" lon="103.285185"><ele>1867.6293</ele><time>2026-02-18T15:57:12.000Z</time></trkpt>
        <trkpt lat="29.48662" lon="103.285242"><ele>1868.3684</ele><time>2026-02-18T15:57:19.000Z</time></trkpt>
        <trkpt lat="29.486638" lon="103.285299"><ele>1869.4589</ele><time>2026-02-18T15:57:34.000Z</time></trkpt>
        <trkpt lat="29.486682" lon="103.285316"><ele>1870.7689</ele><time>2026-02-18T15:57:43.000Z</time></trkpt>
        <trkpt lat="29.486737" lon="103.285318"><ele>1870.9344</ele><time>2026-02-18T15:57:52.000Z</time></trkpt>
        <trkpt lat="29.48678" lon="103.285291"><ele>1869.9231</ele><time>2026-02-18T15:57:58.000Z</time></trkpt>
        <trkpt lat="29.486825" lon="103.28525"><ele>1869.3861</ele><time>2026-02-18T15:58:04.000Z</time></trkpt>
        <trkpt lat="29.486856" lon="103.285209"><ele>1870.3518</ele><time>2026-02-18T15:58:09.000Z</time></trkpt>
        <trkpt lat="29.486902" lon="103.285189"><ele>1871.6553</ele><time>2026-02-18T15:58:15.000Z</time></trkpt>
        <trkpt lat="29.486947" lon="103.285189"><ele>1873.0057</ele><time>2026-02-18T15:58:19.000Z</time></trkpt>
        <trkpt lat="29.487008" lon="103.285197"><ele>1872.8328</ele><time>2026-02-18T15:58:25.000Z</time></trkpt>
        <trkpt lat="29.487066" lon="103.28522"><ele>1872.9713</ele><time>2026-02-18T15:58:34.000Z</time></trkpt>
        <trkpt lat="29.487106" lon="103.285247"><ele>1873.2113</ele><time>2026-02-18T15:58:39.000Z</time></trkpt>
        <trkpt lat="29.487148" lon="103.285284"><ele>1873.6289</ele><time>2026-02-18T15:58:44.000Z</time></trkpt>
        <trkpt lat="29.487185" lon="103.285314"><ele>1873.5029</ele><time>2026-02-18T15:58:48.000Z</time></trkpt>
        <trkpt lat="29.487217" lon="103.285361"><ele>1872.9377</ele><time>2026-02-18T15:58:52.000Z</time></trkpt>
        <trkpt lat="29.487242" lon="103.285422"><ele>1872.9208</ele><time>2026-02-18T15:59:02.000Z</time></trkpt>
        <trkpt lat="29.487256" lon="103.285461"><ele>1871.7452</ele><time>2026-02-18T15:59:07.000Z</time></trkpt>
        <trkpt lat="29.487284" lon="103.285499"><ele>1871.2649</ele><time>2026-02-18T15:59:11.000Z</time></trkpt>
        <trkpt lat="29.487312" lon="103.285542"><ele>1871.2115</ele><time>2026-02-18T15:59:15.000Z</time></trkpt>
        <trkpt lat="29.487347" lon="103.285593"><ele>1872.1072</ele><time>2026-02-18T15:59:20.000Z</time></trkpt>
        <trkpt lat="29.487377" lon="103.285634"><ele>1871.2498</ele><time>2026-02-18T15:59:24.000Z</time></trkpt>
        <trkpt lat="29.487409" lon="103.28568"><ele>1871.7207</ele><time>2026-02-18T15:59:29.000Z</time></trkpt>
        <trkpt lat="29.487453" lon="103.285704"><ele>1872.3552</ele><time>2026-02-18T15:59:34.000Z</time></trkpt>
        <trkpt lat="29.487503" lon="103.285692"><ele>1873.708</ele><time>2026-02-18T15:59:38.000Z</time></trkpt>
        <trkpt lat="29.487546" lon="103.285654"><ele>1874.8937</ele><time>2026-02-18T15:59:43.000Z</time></trkpt>
        <trkpt lat="29.487564" lon="103.285591"><ele>1875.9225</ele><time>2026-02-18T15:59:52.000Z</time></trkpt>
        <trkpt lat="29.487561" lon="103.285532"><ele>1876.3008</ele><time>2026-02-18T15:59:57.000Z</time></trkpt>
        <trkpt lat="29.487561" lon="103.28548"><ele>1876.3514</ele><time>2026-02-18T16:00:01.000Z</time></trkpt>
        <trkpt lat="29.487564" lon="103.285427"><ele>1876.6195</ele><time>2026-02-18T16:00:05.000Z</time></trkpt>
        <trkpt lat="29.487571" lon="103.285365"><ele>1877.9712</ele><time>2026-02-18T16:00:10.000Z</time></trkpt>
        <trkpt lat="29.487589" lon="103.285312"><ele>1878.4432</ele><time>2026-02-18T16:00:15.000Z</time></trkpt>
        <trkpt lat="29.487643" lon="103.285272"><ele>1879.538</ele><time>2026-02-18T16:00:23.000Z</time></trkpt>
        <trkpt lat="29.487688" lon="103.285247"><ele>1880.3099</ele><time>2026-02-18T16:00:28.000Z</time></trkpt>
        <trkpt lat="29.487731" lon="103.285224"><ele>1881.1896</ele><time>2026-02-18T16:00:32.000Z</time></trkpt>
        <trkpt lat="29.48779" lon="103.28521"><ele>1881.2871</ele><time>2026-02-18T16:00:37.000Z</time></trkpt>
        <trkpt lat="29.487844" lon="103.285212"><ele>1881.754</ele><time>2026-02-18T16:00:42.000Z</time></trkpt>
        <trkpt lat="29.487895" lon="103.285242"><ele>1881.848</ele><time>2026-02-18T16:00:55.000Z</time></trkpt>
        <trkpt lat="29.48793" lon="103.285278"><ele>1881.1086</ele><time>2026-02-18T16:01:01.000Z</time></trkpt>
        <trkpt lat="29.487971" lon="103.285318"><ele>1880.634</ele><time>2026-02-18T16:01:06.000Z</time></trkpt>
        <trkpt lat="29.48802" lon="103.285359"><ele>1881.2777</ele><time>2026-02-18T16:01:11.000Z</time></trkpt>
        <trkpt lat="29.488054" lon="103.285406"><ele>1881.2867</ele><time>2026-02-18T16:01:16.000Z</time></trkpt>
        <trkpt lat="29.488081" lon="103.285453"><ele>1880.7327</ele><time>2026-02-18T16:01:21.000Z</time></trkpt>
        <trkpt lat="29.488105" lon="103.285494"><ele>1880.6422</ele><time>2026-02-18T16:01:25.000Z</time></trkpt>
        <trkpt lat="29.488157" lon="103.285514"><ele>1881.2003</ele><time>2026-02-18T16:01:33.000Z</time></trkpt>
        <trkpt lat="29.488192" lon="103.285481"><ele>1881.7544</ele><time>2026-02-18T16:01:38.000Z</time></trkpt>
        <trkpt lat="29.488216" lon="103.285427"><ele>1882.4882</ele><time>2026-02-18T16:01:43.000Z</time></trkpt>
        <trkpt lat="29.488248" lon="103.285378"><ele>1883.6714</ele><time>2026-02-18T16:01:48.000Z</time></trkpt>
        <trkpt lat="29.488283" lon="103.285337"><ele>1884.9386</ele><time>2026-02-18T16:01:54.000Z</time></trkpt>
        <trkpt lat="29.488321" lon="103.285303"><ele>1884.7336</ele><time>2026-02-18T16:02:00.000Z</time></trkpt>
        <trkpt lat="29.48836" lon="103.285266"><ele>1885.212</ele><time>2026-02-18T16:02:10.000Z</time></trkpt>
        <trkpt lat="29.488382" lon="103.28522"><ele>1886.5095</ele><time>2026-02-18T16:02:17.000Z</time></trkpt>
        <trkpt lat="29.48841" lon="103.285178"><ele>1886.5442</ele><time>2026-02-18T16:02:23.000Z</time></trkpt>
        <trkpt lat="29.488452" lon="103.285145"><ele>1887.6364</ele><time>2026-02-18T16:02:28.000Z</time></trkpt>
        <trkpt lat="29.488497" lon="103.285136"><ele>1888.5581</ele><time>2026-02-18T16:02:33.000Z</time></trkpt>
        <trkpt lat="29.488544" lon="103.285127"><ele>1889.6315</ele><time>2026-02-18T16:02:38.000Z</time></trkpt>
        <trkpt lat="29.488593" lon="103.285136"><ele>1890.1356</ele><time>2026-02-18T16:02:44.000Z</time></trkpt>
        <trkpt lat="29.488636" lon="103.28517"><ele>1889.5392</ele><time>2026-02-18T16:02:49.000Z</time></trkpt>
        <trkpt lat="29.488666" lon="103.285218"><ele>1888.8562</ele><time>2026-02-18T16:02:54.000Z</time></trkpt>
        <trkpt lat="29.48869" lon="103.285264"><ele>1888.4573</ele><time>2026-02-18T16:02:58.000Z</time></trkpt>
        <trkpt lat="29.48872" lon="103.285314"><ele>1888.1862</ele><time>2026-02-18T16:03:03.000Z</time></trkpt>
        <trkpt lat="29.488751" lon="103.285363"><ele>1887.5879</ele><time>2026-02-18T16:03:08.000Z</time></trkpt>
        <trkpt lat="29.488768" lon="103.285415"><ele>1886.7789</ele><time>2026-02-18T16:03:14.000Z</time></trkpt>
        <trkpt lat="29.488806" lon="103.285442"><ele>1886.2749</ele><time>2026-02-18T16:03:19.000Z</time></trkpt>
        <trkpt lat="29.488851" lon="103.285455"><ele>1886.0189</ele><time>2026-02-18T16:03:24.000Z</time></trkpt>
        <trkpt lat="29.488899" lon="103.285471"><ele>1886.4468</ele><time>2026-02-18T16:03:29.000Z</time></trkpt>
        <trkpt lat="29.488949" lon="103.28545"><ele>1887.7891</ele><time>2026-02-18T16:03:34.000Z</time></trkpt>
        <trkpt lat="29.48899" lon="103.285421"><ele>1887.7686</ele><time>2026-02-18T16:03:38.000Z</time></trkpt>
        <trkpt lat="29.489036" lon="103.28538"><ele>1888.2651</ele><time>2026-02-18T16:03:43.000Z</time></trkpt>
        <trkpt lat="29.489083" lon="103.285345"><ele>1888.875</ele><time>2026-02-18T16:03:48.000Z</time></trkpt>
        <trkpt lat="29.489131" lon="103.285323"><ele>1889.0753</ele><time>2026-02-18T16:03:53.000Z</time></trkpt>
        <trkpt lat="29.48918" lon="103.285304"><ele>1888.6375</ele><time>2026-02-18T16:04:00.000Z</time></trkpt>
        <trkpt lat="29.489223" lon="103.285299"><ele>1888.9879</ele><time>2026-02-18T16:04:04.000Z</time></trkpt>
        <trkpt lat="29.489271" lon="103.285304"><ele>1889.7808</ele><time>2026-02-18T16:04:08.000Z</time></trkpt>
        <trkpt lat="29.489324" lon="103.285334"><ele>1891.0433</ele><time>2026-02-18T16:04:13.000Z</time></trkpt>
        <trkpt lat="29.48937" lon="103.285374"><ele>1889.6897</ele><time>2026-02-18T16:04:18.000Z</time></trkpt>
        <trkpt lat="29.489407" lon="103.285413"><ele>1890.1847</ele><time>2026-02-18T16:04:22.000Z</time></trkpt>
        <trkpt lat="29.489444" lon="103.285453"><ele>1889.7073</ele><time>2026-02-18T16:04:27.000Z</time></trkpt>
        <trkpt lat="29.489479" lon="103.285487"><ele>1890.8622</ele><time>2026-02-18T16:04:31.000Z</time></trkpt>
        <trkpt lat="29.48952" lon="103.285514"><ele>1890.8077</ele><time>2026-02-18T16:04:36.000Z</time></trkpt>
        <trkpt lat="29.489559" lon="103.285546"><ele>1889.8174</ele><time>2026-02-18T16:04:42.000Z</time></trkpt>
        <trkpt lat="29.489599" lon="103.285584"><ele>1891.1165</ele><time>2026-02-18T16:04:48.000Z</time></trkpt>
        <trkpt lat="29.489635" lon="103.285621"><ele>1891.7449</ele><time>2026-02-18T16:04:54.000Z</time></trkpt>
        <trkpt lat="29.489675" lon="103.28565"><ele>1892.6549</ele><time>2026-02-18T16:05:00.000Z</time></trkpt>
        <trkpt lat="29.489715" lon="103.285686"><ele>1896.1626</ele><time>2026-02-18T16:05:08.000Z</time></trkpt>
        <trkpt lat="29.489748" lon="103.285721"><ele>1896.2666</ele><time>2026-02-18T16:05:13.000Z</time></trkpt>
        <trkpt lat="29.489781" lon="103.285769"><ele>1897.6886</ele><time>2026-02-18T16:05:22.000Z</time></trkpt>
        <trkpt lat="29.489816" lon="103.285791"><ele>1897.887</ele><time>2026-02-18T16:05:26.000Z</time></trkpt>
        <trkpt lat="29.489859" lon="103.285823"><ele>1898.5327</ele><time>2026-02-18T16:05:31.000Z</time></trkpt>
        <trkpt lat="29.489906" lon="103.285855"><ele>1899.7416</ele><time>2026-02-18T16:05:36.000Z</time></trkpt>
        <trkpt lat="29.489956" lon="103.285873"><ele>1900.1793</ele><time>2026-02-18T16:05:43.000Z</time></trkpt>
        <trkpt lat="29.489993" lon="103.285899"><ele>1899.913</ele><time>2026-02-18T16:05:50.000Z</time></trkpt>
        <trkpt lat="29.490034" lon="103.285929"><ele>1900.4636</ele><time>2026-02-18T16:05:57.000Z</time></trkpt>
        <trkpt lat="29.49008" lon="103.285946"><ele>1901.6696</ele><time>2026-02-18T16:06:03.000Z</time></trkpt>
        <trkpt lat="29.490133" lon="103.285957"><ele>1903.337</ele><time>2026-02-18T16:06:10.000Z</time></trkpt>
        <trkpt lat="29.490176" lon="103.285976"><ele>1904.7504</ele><time>2026-02-18T16:06:15.000Z</time></trkpt>
        <trkpt lat="29.490218" lon="103.285999"><ele>1905.9634</ele><time>2026-02-18T16:06:20.000Z</time></trkpt>
        <trkpt lat="29.490256" lon="103.286039"><ele>1907.1414</ele><time>2026-02-18T16:06:43.000Z</time></trkpt>
        <trkpt lat="29.490281" lon="103.286065"><ele>1907.2264</ele><time>2026-02-18T16:06:48.000Z</time></trkpt>
        <trkpt lat="29.490322" lon="103.286106"><ele>1908.0928</ele><time>2026-02-18T16:06:53.000Z</time></trkpt>
        <trkpt lat="29.490375" lon="103.286141"><ele>1909.293</ele><time>2026-02-18T16:06:58.000Z</time></trkpt>
        <trkpt lat="29.490426" lon="103.286166"><ele>1909.3757</ele><time>2026-02-18T16:07:03.000Z</time></trkpt>
        <trkpt lat="29.490476" lon="103.286181"><ele>1910.4069</ele><time>2026-02-18T16:07:08.000Z</time></trkpt>
        <trkpt lat="29.490524" lon="103.286171"><ele>1910.0068</ele><time>2026-02-18T16:07:13.000Z</time></trkpt>
        <trkpt lat="29.490572" lon="103.286136"><ele>1909.8147</ele><time>2026-02-18T16:07:18.000Z</time></trkpt>
        <trkpt lat="29.490622" lon="103.286123"><ele>1910.5865</ele><time>2026-02-18T16:07:24.000Z</time></trkpt>
        <trkpt lat="29.490671" lon="103.286134"><ele>1911.613</ele><time>2026-02-18T16:07:29.000Z</time></trkpt>
        <trkpt lat="29.490721" lon="103.286156"><ele>1912.4218</ele><time>2026-02-18T16:07:34.000Z</time></trkpt>
        <trkpt lat="29.490771" lon="103.286179"><ele>1912.6401</ele><time>2026-02-18T16:07:40.000Z</time></trkpt>
        <trkpt lat="29.490815" lon="103.286175"><ele>1913.573</ele><time>2026-02-18T16:07:45.000Z</time></trkpt>
        <trkpt lat="29.490857" lon="103.286139"><ele>1912.4891</ele><time>2026-02-18T16:07:58.000Z</time></trkpt>
        <trkpt lat="29.490892" lon="103.286109"><ele>1912.4774</ele><time>2026-02-18T16:08:04.000Z</time></trkpt>
        <trkpt lat="29.490932" lon="103.286069"><ele>1913.11</ele><time>2026-02-18T16:08:11.000Z</time></trkpt>
        <trkpt lat="29.490966" lon="103.28603"><ele>1914.252</ele><time>2026-02-18T16:08:16.000Z</time></trkpt>
        <trkpt lat="29.490992" lon="103.285987"><ele>1913.459</ele><time>2026-02-18T16:08:20.000Z</time></trkpt>
        <trkpt lat="29.491038" lon="103.285936"><ele>1914.2092</ele><time>2026-02-18T16:08:26.000Z</time></trkpt>
        <trkpt lat="29.491089" lon="103.285912"><ele>1917.8148</ele><time>2026-02-18T16:08:34.000Z</time></trkpt>
        <trkpt lat="29.491134" lon="103.285909"><ele>1919.0729</ele><time>2026-02-18T16:08:39.000Z</time></trkpt>
        <trkpt lat="29.491183" lon="103.285909"><ele>1920.7225</ele><time>2026-02-18T16:08:44.000Z</time></trkpt>
        <trkpt lat="29.491235" lon="103.285909"><ele>1920.5471</ele><time>2026-02-18T16:08:49.000Z</time></trkpt>
        <trkpt lat="29.491282" lon="103.285914"><ele>1919.4224</ele><time>2026-02-18T16:08:54.000Z</time></trkpt>
        <trkpt lat="29.491334" lon="103.285927"><ele>1916.9534</ele><time>2026-02-18T16:09:13.000Z</time></trkpt>
        <trkpt lat="29.491368" lon="103.285944"><ele>1917.1627</ele><time>2026-02-18T16:09:20.000Z</time></trkpt>
        <trkpt lat="29.491417" lon="103.285958"><ele>1918.0225</ele><time>2026-02-18T16:09:26.000Z</time></trkpt>
        <trkpt lat="29.491468" lon="103.285968"><ele>1920.2592</ele><time>2026-02-18T16:09:32.000Z</time></trkpt>
        <trkpt lat="29.491511" lon="103.285991"><ele>1921.3119</ele><time>2026-02-18T16:09:40.000Z</time></trkpt>
        <trkpt lat="29.491558" lon="103.286024"><ele>1922.4178</ele><time>2026-02-18T16:09:46.000Z</time></trkpt>
        <trkpt lat="29.491592" lon="103.286063"><ele>1922.5264</ele><time>2026-02-18T16:09:51.000Z</time></trkpt>
        <trkpt lat="29.491627" lon="103.286106"><ele>1923.6375</ele><time>2026-02-18T16:09:56.000Z</time></trkpt>
        <trkpt lat="29.491652" lon="103.286155"><ele>1924.0043</ele><time>2026-02-18T16:10:01.000Z</time></trkpt>
        <trkpt lat="29.49167" lon="103.286209"><ele>1923.3104</ele><time>2026-02-18T16:10:06.000Z</time></trkpt>
        <trkpt lat="29.491682" lon="103.286266"><ele>1923.8488</ele><time>2026-02-18T16:10:11.000Z</time></trkpt>
        <trkpt lat="29.491698" lon="103.28633"><ele>1925.5696</ele><time>2026-02-18T16:10:18.000Z</time></trkpt>
        <trkpt lat="29.491702" lon="103.286385"><ele>1925.891</ele><time>2026-02-18T16:10:23.000Z</time></trkpt>
        <trkpt lat="29.491709" lon="103.286444"><ele>1926.0326</ele><time>2026-02-18T16:10:29.000Z</time></trkpt>
        <trkpt lat="29.49171" lon="103.286502"><ele>1926.4563</ele><time>2026-02-18T16:10:45.000Z</time></trkpt>
        <trkpt lat="29.491728" lon="103.286551"><ele>1927.1179</ele><time>2026-02-18T16:11:32.000Z</time></trkpt>
        <trkpt lat="29.491749" lon="103.286591"><ele>1926.8608</ele><time>2026-02-18T16:11:39.000Z</time></trkpt>
        <trkpt lat="29.491778" lon="103.286646"><ele>1929.2172</ele><time>2026-02-18T16:11:46.000Z</time></trkpt>
        <trkpt lat="29.4918" lon="103.286696"><ele>1930.088</ele><time>2026-02-18T16:11:53.000Z</time></trkpt>
        <trkpt lat="29.491827" lon="103.286738"><ele>1928.5109</ele><time>2026-02-18T16:11:59.000Z</time></trkpt>
        <trkpt lat="29.49186" lon="103.28679"><ele>1928.5112</ele><time>2026-02-18T16:12:06.000Z</time></trkpt>
        <trkpt lat="29.491893" lon="103.28683"><ele>1930.3699</ele><time>2026-02-18T16:12:12.000Z</time></trkpt>
        <trkpt lat="29.49194" lon="103.286855"><ele>1931.9952</ele><time>2026-02-18T16:12:19.000Z</time></trkpt>
        <trkpt lat="29.491987" lon="103.286861"><ele>1932.9795</ele><time>2026-02-18T16:12:26.000Z</time></trkpt>
        <trkpt lat="29.492035" lon="103.286873"><ele>1932.7131</ele><time>2026-02-18T16:12:41.000Z</time></trkpt>
        <trkpt lat="29.492079" lon="103.286868"><ele>1933.231</ele><time>2026-02-18T16:12:50.000Z</time></trkpt>
        <trkpt lat="29.492128" lon="103.286855"><ele>1933.7041</ele><time>2026-02-18T16:12:57.000Z</time></trkpt>
        <trkpt lat="29.492176" lon="103.286832"><ele>1934.8888</ele><time>2026-02-18T16:13:04.000Z</time></trkpt>
        <trkpt lat="29.492219" lon="103.286799"><ele>1936.8075</ele><time>2026-02-18T16:13:12.000Z</time></trkpt>
        <trkpt lat="29.492267" lon="103.286778"><ele>1937.3737</ele><time>2026-02-18T16:13:38.000Z</time></trkpt>
        <trkpt lat="29.492309" lon="103.286751"><ele>1938.201</ele><time>2026-02-18T16:13:48.000Z</time></trkpt>
        <trkpt lat="29.492354" lon="103.286726"><ele>1937.9438</ele><time>2026-02-18T16:13:55.000Z</time></trkpt>
        <trkpt lat="29.4924" lon="103.286699"><ele>1938.7583</ele><time>2026-02-18T16:14:01.000Z</time></trkpt>
        <trkpt lat="29.492448" lon="103.286679"><ele>1938.9355</ele><time>2026-02-18T16:14:07.000Z</time></trkpt>
        <trkpt lat="29.49249" lon="103.286653"><ele>1940.2661</ele><time>2026-02-18T16:14:12.000Z</time></trkpt>
        <trkpt lat="29.492541" lon="103.286624"><ele>1940.6394</ele><time>2026-02-18T16:14:18.000Z</time></trkpt>
        <trkpt lat="29.49259" lon="103.2866"><ele>1941.6208</ele><time>2026-02-18T16:14:23.000Z</time></trkpt>
        <trkpt lat="29.492641" lon="103.286583"><ele>1941.4629</ele><time>2026-02-18T16:14:29.000Z</time></trkpt>
        <trkpt lat="29.492691" lon="103.286581"><ele>1941.3971</ele><time>2026-02-18T16:14:34.000Z</time></trkpt>
        <trkpt lat="29.492738" lon="103.286574"><ele>1941.6436</ele><time>2026-02-18T16:14:39.000Z</time></trkpt>
        <trkpt lat="29.492787" lon="103.286572"><ele>1942.706</ele><time>2026-02-18T16:14:44.000Z</time></trkpt>
        <trkpt lat="29.492831" lon="103.286573"><ele>1944.3146</ele><time>2026-02-18T16:14:48.000Z</time></trkpt>
        <trkpt lat="29.492872" lon="103.286602"><ele>1944.6967</ele><time>2026-02-18T16:14:53.000Z</time></trkpt>
        <trkpt lat="29.492901" lon="103.286652"><ele>1943.8136</ele><time>2026-02-18T16:14:58.000Z</time></trkpt>
        <trkpt lat="29.492924" lon="103.286705"><ele>1943.884</ele><time>2026-02-18T16:15:03.000Z</time></trkpt>
        <trkpt lat="29.49295" lon="103.286745"><ele>1944.9507</ele><time>2026-02-18T16:15:06.000Z</time></trkpt>
        <trkpt lat="29.492976" lon="103.286796"><ele>1945.6511</ele><time>2026-02-18T16:15:11.000Z</time></trkpt>
        <trkpt lat="29.493011" lon="103.286851"><ele>1946.7986</ele><time>2026-02-18T16:15:17.000Z</time></trkpt>
        <trkpt lat="29.493028" lon="103.286906"><ele>1947.2866</ele><time>2026-02-18T16:15:22.000Z</time></trkpt>
        <trkpt lat="29.493045" lon="103.286953"><ele>1947.5237</ele><time>2026-02-18T16:15:26.000Z</time></trkpt>
        <trkpt lat="29.493071" lon="103.287008"><ele>1947.1367</ele><time>2026-02-18T16:15:31.000Z</time></trkpt>
        <trkpt lat="29.493088" lon="103.287058"><ele>1947.2284</ele><time>2026-02-18T16:15:35.000Z</time></trkpt>
        <trkpt lat="29.493109" lon="103.287112"><ele>1948.0621</ele><time>2026-02-18T16:15:40.000Z</time></trkpt>
        <trkpt lat="29.49312" lon="103.287173"><ele>1948.3702</ele><time>2026-02-18T16:15:46.000Z</time></trkpt>
        <trkpt lat="29.493127" lon="103.28723"><ele>1949.1511</ele><time>2026-02-18T16:15:51.000Z</time></trkpt>
        <trkpt lat="29.493128" lon="103.287283"><ele>1949.6487</ele><time>2026-02-18T16:15:55.000Z</time></trkpt>
        <trkpt lat="29.493139" lon="103.287338"><ele>1949.9143</ele><time>2026-02-18T16:16:00.000Z</time></trkpt>
        <trkpt lat="29.493151" lon="103.287389"><ele>1949.8777</ele><time>2026-02-18T16:16:04.000Z</time></trkpt>
        <trkpt lat="29.493168" lon="103.28744"><ele>1949.8248</ele><time>2026-02-18T16:16:08.000Z</time></trkpt>
        <trkpt lat="29.493204" lon="103.287495"><ele>1950.139</ele><time>2026-02-18T16:16:14.000Z</time></trkpt>
        <trkpt lat="29.493238" lon="103.287538"><ele>1949.178</ele><time>2026-02-18T16:16:19.000Z</time></trkpt>
        <trkpt lat="29.493274" lon="103.287571"><ele>1949.9941</ele><time>2026-02-18T16:16:24.000Z</time></trkpt>
        <trkpt lat="29.493313" lon="103.287604"><ele>1951.5591</ele><time>2026-02-18T16:16:29.000Z</time></trkpt>
        <trkpt lat="29.493364" lon="103.287634"><ele>1952.2662</ele><time>2026-02-18T16:16:36.000Z</time></trkpt>
        <trkpt lat="29.493404" lon="103.287657"><ele>1951.9701</ele><time>2026-02-18T16:16:40.000Z</time></trkpt>
        <trkpt lat="29.493457" lon="103.28767"><ele>1952.0338</ele><time>2026-02-18T16:16:45.000Z</time></trkpt>
        <trkpt lat="29.493498" lon="103.287653"><ele>1952.1145</ele><time>2026-02-18T16:16:49.000Z</time></trkpt>
        <trkpt lat="29.493543" lon="103.287618"><ele>1952.433</ele><time>2026-02-18T16:16:54.000Z</time></trkpt>
        <trkpt lat="29.49356" lon="103.287566"><ele>1952.5088</ele><time>2026-02-18T16:16:59.000Z</time></trkpt>
        <trkpt lat="29.493552" lon="103.287499"><ele>1952.4297</ele><time>2026-02-18T16:17:05.000Z</time></trkpt>
        <trkpt lat="29.49355" lon="103.287444"><ele>1953.6134</ele><time>2026-02-18T16:17:09.000Z</time></trkpt>
        <trkpt lat="29.49358" lon="103.287388"><ele>1953.4529</ele><time>2026-02-18T16:17:30.000Z</time></trkpt>
        <trkpt lat="29.4936" lon="103.287359"><ele>1953.357</ele><time>2026-02-18T16:17:35.000Z</time></trkpt>
        <trkpt lat="29.493644" lon="103.287337"><ele>1955.0123</ele><time>2026-02-18T16:17:40.000Z</time></trkpt>
        <trkpt lat="29.493692" lon="103.287346"><ele>1957.0498</ele><time>2026-02-18T16:17:45.000Z</time></trkpt>
        <trkpt lat="29.493737" lon="103.287371"><ele>1958.3905</ele><time>2026-02-18T16:17:50.000Z</time></trkpt>
        <trkpt lat="29.493754" lon="103.287418"><ele>1957.8121</ele><time>2026-02-18T16:17:54.000Z</time></trkpt>
        <trkpt lat="29.49377" lon="103.287471"><ele>1957.6072</ele><time>2026-02-18T16:17:58.000Z</time></trkpt>
        <trkpt lat="29.493791" lon="103.287521"><ele>1958.0779</ele><time>2026-02-18T16:18:02.000Z</time></trkpt>
        <trkpt lat="29.49382" lon="103.287575"><ele>1958.2496</ele><time>2026-02-18T16:18:07.000Z</time></trkpt>
        <trkpt lat="29.493842" lon="103.287633"><ele>1958.8585</ele><time>2026-02-18T16:18:12.000Z</time></trkpt>
        <trkpt lat="29.493867" lon="103.287687"><ele>1960.4178</ele><time>2026-02-18T16:18:17.000Z</time></trkpt>
        <trkpt lat="29.493891" lon="103.287733"><ele>1960.2192</ele><time>2026-02-18T16:18:21.000Z</time></trkpt>
        <trkpt lat="29.493926" lon="103.287784"><ele>1960.4304</ele><time>2026-02-18T16:18:26.000Z</time></trkpt>
        <trkpt lat="29.493949" lon="103.28784"><ele>1959.8326</ele><time>2026-02-18T16:18:32.000Z</time></trkpt>
        <trkpt lat="29.493981" lon="103.28788"><ele>1960.066</ele><time>2026-02-18T16:18:37.000Z</time></trkpt>
        <trkpt lat="29.494022" lon="103.28791"><ele>1961.9985</ele><time>2026-02-18T16:18:43.000Z</time></trkpt>
        <trkpt lat="29.494067" lon="103.287935"><ele>1962.9777</ele><time>2026-02-18T16:18:48.000Z</time></trkpt>
        <trkpt lat="29.494111" lon="103.287958"><ele>1964.0985</ele><time>2026-02-18T16:18:52.000Z</time></trkpt>
        <trkpt lat="29.494169" lon="103.287979"><ele>1965.0109</ele><time>2026-02-18T16:18:58.000Z</time></trkpt>
        <trkpt lat="29.494216" lon="103.287998"><ele>1964.4758</ele><time>2026-02-18T16:19:03.000Z</time></trkpt>
        <trkpt lat="29.494268" lon="103.288013"><ele>1964.6976</ele><time>2026-02-18T16:19:09.000Z</time></trkpt>
        <trkpt lat="29.494314" lon="103.288039"><ele>1965.6492</ele><time>2026-02-18T16:19:24.000Z</time></trkpt>
        <trkpt lat="29.494346" lon="103.288063"><ele>1967.0554</ele><time>2026-02-18T16:19:29.000Z</time></trkpt>
        <trkpt lat="29.494391" lon="103.288097"><ele>1967.8511</ele><time>2026-02-18T16:19:35.000Z</time></trkpt>
        <trkpt lat="29.494433" lon="103.288122"><ele>1968.3064</ele><time>2026-02-18T16:19:40.000Z</time></trkpt>
        <trkpt lat="29.49448" lon="103.288141"><ele>1969.0327</ele><time>2026-02-18T16:19:45.000Z</time></trkpt>
        <trkpt lat="29.494527" lon="103.288157"><ele>1969.2953</ele><time>2026-02-18T16:19:50.000Z</time></trkpt>
        <trkpt lat="29.494575" lon="103.288143"><ele>1969.308</ele><time>2026-02-18T16:19:55.000Z</time></trkpt>
        <trkpt lat="29.494601" lon="103.288102"><ele>1968.9425</ele><time>2026-02-18T16:19:59.000Z</time></trkpt>
        <trkpt lat="29.494619" lon="103.288049"><ele>1969.5208</ele><time>2026-02-18T16:20:03.000Z</time></trkpt>
        <trkpt lat="29.494638" lon="103.287982"><ele>1971.2439</ele><time>2026-02-18T16:20:08.000Z</time></trkpt>
        <trkpt lat="29.494651" lon="103.287921"><ele>1971.7256</ele><time>2026-02-18T16:20:13.000Z</time></trkpt>
        <trkpt lat="29.494674" lon="103.287862"><ele>1971.3324</ele><time>2026-02-18T16:20:19.000Z</time></trkpt>
        <trkpt lat="29.494713" lon="103.287836"><ele>1971.8402</ele><time>2026-02-18T16:20:24.000Z</time></trkpt>
        <trkpt lat="29.494766" lon="103.287828"><ele>1972.9126</ele><time>2026-02-18T16:20:30.000Z</time></trkpt>
        <trkpt lat="29.494814" lon="103.287855"><ele>1974.4977</ele><time>2026-02-18T16:20:36.000Z</time></trkpt>
        <trkpt lat="29.494847" lon="103.287907"><ele>1975.1857</ele><time>2026-02-18T16:20:41.000Z</time></trkpt>
        <trkpt lat="29.494871" lon="103.287959"><ele>1975.503</ele><time>2026-02-18T16:20:47.000Z</time></trkpt>
        <trkpt lat="29.494901" lon="103.288007"><ele>1975.7454</ele><time>2026-02-18T16:20:52.000Z</time></trkpt>
        <trkpt lat="29.49493" lon="103.288054"><ele>1976.4639</ele><time>2026-02-18T16:20:57.000Z</time></trkpt>
        <trkpt lat="29.494962" lon="103.2881"><ele>1977.4336</ele><time>2026-02-18T16:21:03.000Z</time></trkpt>
        <trkpt lat="29.495001" lon="103.288135"><ele>1978.2437</ele><time>2026-02-18T16:21:08.000Z</time></trkpt>
        <trkpt lat="29.495039" lon="103.288167"><ele>1979.3123</ele><time>2026-02-18T16:21:13.000Z</time></trkpt>
        <trkpt lat="29.495075" lon="103.288203"><ele>1979.6177</ele><time>2026-02-18T16:21:19.000Z</time></trkpt>
        <trkpt lat="29.495123" lon="103.288228"><ele>1980.753</ele><time>2026-02-18T16:21:26.000Z</time></trkpt>
        <trkpt lat="29.495176" lon="103.288248"><ele>1981.678</ele><time>2026-02-18T16:21:31.000Z</time></trkpt>
        <trkpt lat="29.49523" lon="103.288262"><ele>1982.6017</ele><time>2026-02-18T16:21:39.000Z</time></trkpt>
        <trkpt lat="29.495284" lon="103.288265"><ele>1984.828</ele><time>2026-02-18T16:22:09.000Z</time></trkpt>
        <trkpt lat="29.49532" lon="103.288272"><ele>1986.241</ele><time>2026-02-18T16:22:16.000Z</time></trkpt>
        <trkpt lat="29.49537" lon="103.28828"><ele>1985.8412</ele><time>2026-02-18T16:22:21.000Z</time></trkpt>
        <trkpt lat="29.495423" lon="103.288296"><ele>1985.8041</ele><time>2026-02-18T16:22:26.000Z</time></trkpt>
        <trkpt lat="29.495463" lon="103.288324"><ele>1986.3479</ele><time>2026-02-18T16:22:30.000Z</time></trkpt>
        <trkpt lat="29.495507" lon="103.288367"><ele>1987.2444</ele><time>2026-02-18T16:22:35.000Z</time></trkpt>
        <trkpt lat="29.495556" lon="103.288397"><ele>1987.316</ele><time>2026-02-18T16:22:40.000Z</time></trkpt>
        <trkpt lat="29.495606" lon="103.288411"><ele>1986.7405</ele><time>2026-02-18T16:22:45.000Z</time></trkpt>
        <trkpt lat="29.495655" lon="103.288401"><ele>1987.122</ele><time>2026-02-18T16:22:50.000Z</time></trkpt>
        <trkpt lat="29.495713" lon="103.288391"><ele>1987.9448</ele><time>2026-02-18T16:22:56.000Z</time></trkpt>
        <trkpt lat="29.495764" lon="103.288383"><ele>1988.7206</ele><time>2026-02-18T16:23:01.000Z</time></trkpt>
        <trkpt lat="29.49581" lon="103.288367"><ele>1989.2941</ele><time>2026-02-18T16:23:06.000Z</time></trkpt>
        <trkpt lat="29.495856" lon="103.28835"><ele>1988.6158</ele><time>2026-02-18T16:23:12.000Z</time></trkpt>
        <trkpt lat="29.495899" lon="103.288334"><ele>1989.0541</ele><time>2026-02-18T16:23:17.000Z</time></trkpt>
        <trkpt lat="29.495953" lon="103.288314"><ele>1989.5757</ele><time>2026-02-18T16:23:27.000Z</time></trkpt>
        <trkpt lat="29.495995" lon="103.288304"><ele>1990.175</ele><time>2026-02-18T16:23:33.000Z</time></trkpt>
        <trkpt lat="29.496045" lon="103.288288"><ele>1992.4027</ele><time>2026-02-18T16:23:42.000Z</time></trkpt>
        <trkpt lat="29.496091" lon="103.288283"><ele>1993.6863</ele><time>2026-02-18T16:23:50.000Z</time></trkpt>
        <trkpt lat="29.496142" lon="103.288288"><ele>1995.3962</ele><time>2026-02-18T16:24:41.000Z</time></trkpt>
        <trkpt lat="29.496176" lon="103.288283"><ele>1994.1007</ele><time>2026-02-18T16:24:47.000Z</time></trkpt>
        <trkpt lat="29.496233" lon="103.288283"><ele>1995.0719</ele><time>2026-02-18T16:24:54.000Z</time></trkpt>
        <trkpt lat="29.496288" lon="103.288273"><ele>1996.5026</ele><time>2026-02-18T16:25:15.000Z</time></trkpt>
        <trkpt lat="29.496337" lon="103.288263"><ele>1998.7675</ele><time>2026-02-18T16:25:28.000Z</time></trkpt>
        <trkpt lat="29.496386" lon="103.288262"><ele>2001.1626</ele><time>2026-02-18T16:25:39.000Z</time></trkpt>
        <trkpt lat="29.49643" lon="103.288265"><ele>2001.9596</ele><time>2026-02-18T16:25:46.000Z</time></trkpt>
        <trkpt lat="29.49648" lon="103.288276"><ele>2001.3103</ele><time>2026-02-18T16:26:03.000Z</time></trkpt>
        <trkpt lat="29.496515" lon="103.28827"><ele>2002.3276</ele><time>2026-02-18T16:26:08.000Z</time></trkpt>
        <trkpt lat="29.496567" lon="103.288265"><ele>2003.0591</ele><time>2026-02-18T16:26:14.000Z</time></trkpt>
        <trkpt lat="29.496621" lon="103.288264"><ele>2003.8182</ele><time>2026-02-18T16:26:22.000Z</time></trkpt>
        <trkpt lat="29.49667" lon="103.288257"><ele>2004.4296</ele><time>2026-02-18T16:26:29.000Z</time></trkpt>
        <trkpt lat="29.496719" lon="103.288278"><ele>2005.1251</ele><time>2026-02-18T16:26:40.000Z</time></trkpt>
        <trkpt lat="29.49676" lon="103.288303"><ele>2005.6508</ele><time>2026-02-18T16:26:46.000Z</time></trkpt>
        <trkpt lat="29.49679" lon="103.288349"><ele>2006.9264</ele><time>2026-02-18T16:26:54.000Z</time></trkpt>
        <trkpt lat="29.496806" lon="103.288401"><ele>2008.562</ele><time>2026-02-18T16:27:01.000Z</time></trkpt>
        <trkpt lat="29.496816" lon="103.288456"><ele>2007.8496</ele><time>2026-02-18T16:27:14.000Z</time></trkpt>
        <trkpt lat="29.496824" lon="103.288507"><ele>2008.1337</ele><time>2026-02-18T16:27:23.000Z</time></trkpt>
        <trkpt lat="29.496833" lon="103.288562"><ele>2008.4214</ele><time>2026-02-18T16:27:31.000Z</time></trkpt>
        <trkpt lat="29.496837" lon="103.288627"><ele>2010.3689</ele><time>2026-02-18T16:27:42.000Z</time></trkpt>
        <trkpt lat="29.496824" lon="103.288676"><ele>2010.9028</ele><time>2026-02-18T16:27:51.000Z</time></trkpt>
        <trkpt lat="29.496801" lon="103.288716"><ele>2011.5444</ele><time>2026-02-18T16:27:56.000Z</time></trkpt>
        <trkpt lat="29.49679" lon="103.288773"><ele>2011.9714</ele><time>2026-02-18T16:28:02.000Z</time></trkpt>
        <trkpt lat="29.496751" lon="103.288807"><ele>2011.4457</ele><time>2026-02-18T16:29:24.000Z</time></trkpt>
        <trkpt lat="29.496727" lon="103.288823"><ele>2011.4956</ele><time>2026-02-18T16:29:29.000Z</time></trkpt>
        <trkpt lat="29.496692" lon="103.288882"><ele>2011.6736</ele><time>2026-02-18T16:29:36.000Z</time></trkpt>
        <trkpt lat="29.496658" lon="103.288933"><ele>2012.7926</ele><time>2026-02-18T16:29:41.000Z</time></trkpt>
        <trkpt lat="29.496629" lon="103.288986"><ele>2013.488</ele><time>2026-02-18T16:29:48.000Z</time></trkpt>
        <trkpt lat="29.496608" lon="103.289028"><ele>2014.6598</ele><time>2026-02-18T16:29:52.000Z</time></trkpt>
        <trkpt lat="29.496577" lon="103.28907"><ele>2015.5073</ele><time>2026-02-18T16:29:58.000Z</time></trkpt>
        <trkpt lat="29.496559" lon="103.289118"><ele>2016.2322</ele><time>2026-02-18T16:30:03.000Z</time></trkpt>
        <trkpt lat="29.496548" lon="103.289175"><ele>2016.5015</ele><time>2026-02-18T16:30:09.000Z</time></trkpt>
        <trkpt lat="29.496532" lon="103.289233"><ele>2016.4272</ele><time>2026-02-18T16:30:15.000Z</time></trkpt>
        <trkpt lat="29.496514" lon="103.289284"><ele>2017.4023</ele><time>2026-02-18T16:30:20.000Z</time></trkpt>
        <trkpt lat="29.496486" lon="103.28933"><ele>2017.6039</ele><time>2026-02-18T16:30:26.000Z</time></trkpt>
        <trkpt lat="29.496457" lon="103.289376"><ele>2018.4381</ele><time>2026-02-18T16:30:36.000Z</time></trkpt>
        <trkpt lat="29.496431" lon="103.289418"><ele>2018.5262</ele><time>2026-02-18T16:30:42.000Z</time></trkpt>
        <trkpt lat="29.496399" lon="103.289467"><ele>2018.9952</ele><time>2026-02-18T16:30:49.000Z</time></trkpt>
        <trkpt lat="29.496376" lon="103.289518"><ele>2019.2217</ele><time>2026-02-18T16:30:56.000Z</time></trkpt>
        <trkpt lat="29.49636" lon="103.289573"><ele>2020.471</ele><time>2026-02-18T16:31:01.000Z</time></trkpt>
        <trkpt lat="29.496361" lon="103.289639"><ele>2021.7981</ele><time>2026-02-18T16:31:14.000Z</time></trkpt>
        <trkpt lat="29.496362" lon="103.28969"><ele>2022.5115</ele><time>2026-02-18T16:31:29.000Z</time></trkpt>
        <trkpt lat="29.496349" lon="103.289741"><ele>2023.2285</ele><time>2026-02-18T16:31:35.000Z</time></trkpt>
        <trkpt lat="29.496335" lon="103.289802"><ele>2023.5775</ele><time>2026-02-18T16:31:41.000Z</time></trkpt>
        <trkpt lat="29.496318" lon="103.289852"><ele>2022.7914</ele><time>2026-02-18T16:31:46.000Z</time></trkpt>
        <trkpt lat="29.49629" lon="103.289893"><ele>2022.7334</ele><time>2026-02-18T16:31:51.000Z</time></trkpt>
        <trkpt lat="29.496254" lon="103.289933"><ele>2023.716</ele><time>2026-02-18T16:31:57.000Z</time></trkpt>
        <trkpt lat="29.496217" lon="103.289968"><ele>2025.5082</ele><time>2026-02-18T16:32:01.000Z</time></trkpt>
        <trkpt lat="29.496178" lon="103.289999"><ele>2025.4683</ele><time>2026-02-18T16:32:06.000Z</time></trkpt>
        <trkpt lat="29.496138" lon="103.290035"><ele>2025.9463</ele><time>2026-02-18T16:32:16.000Z</time></trkpt>
        <trkpt lat="29.496107" lon="103.290067"><ele>2025.7429</ele><time>2026-02-18T16:32:23.000Z</time></trkpt>
        <trkpt lat="29.496078" lon="103.290109"><ele>2026.2129</ele><time>2026-02-18T16:32:29.000Z</time></trkpt>
        <trkpt lat="29.496048" lon="103.290152"><ele>2026.1299</ele><time>2026-02-18T16:32:34.000Z</time></trkpt>
        <trkpt lat="29.496024" lon="103.290211"><ele>2026.7415</ele><time>2026-02-18T16:32:39.000Z</time></trkpt>
        <trkpt lat="29.495997" lon="103.290268"><ele>2028.0986</ele><time>2026-02-18T16:32:45.000Z</time></trkpt>
        <trkpt lat="29.495984" lon="103.290324"><ele>2027.4724</ele><time>2026-02-18T16:32:50.000Z</time></trkpt>
        <trkpt lat="29.495995" lon="103.290274"><ele>2026.6447</ele><time>2026-02-18T16:33:17.000Z</time></trkpt>
        <trkpt lat="29.496012" lon="103.290222"><ele>2026.2898</ele><time>2026-02-18T16:33:23.000Z</time></trkpt>
        <trkpt lat="29.49603" lon="103.290171"><ele>2025.6934</ele><time>2026-02-18T16:33:28.000Z</time></trkpt>
        <trkpt lat="29.496052" lon="103.290122"><ele>2025.812</ele><time>2026-02-18T16:33:33.000Z</time></trkpt>
        <trkpt lat="29.496088" lon="103.290076"><ele>2026.054</ele><time>2026-02-18T16:33:38.000Z</time></trkpt>
        <trkpt lat="29.496122" lon="103.290047"><ele>2025.5978</ele><time>2026-02-18T16:33:41.000Z</time></trkpt>
        <trkpt lat="29.496171" lon="103.290007"><ele>2025.2999</ele><time>2026-02-18T16:33:46.000Z</time></trkpt>
        <trkpt lat="29.496209" lon="103.289974"><ele>2025.1357</ele><time>2026-02-18T16:33:50.000Z</time></trkpt>
        <trkpt lat="29.496249" lon="103.289929"><ele>2024.7646</ele><time>2026-02-18T16:33:55.000Z</time></trkpt>
        <trkpt lat="29.496284" lon="103.289897"><ele>2024.6727</ele><time>2026-02-18T16:33:59.000Z</time></trkpt>
        <trkpt lat="29.496317" lon="103.289852"><ele>2023.2583</ele><time>2026-02-18T16:34:04.000Z</time></trkpt>
        <trkpt lat="29.496344" lon="103.2898"><ele>2022.2642</ele><time>2026-02-18T16:34:08.000Z</time></trkpt>
        <trkpt lat="29.496362" lon="103.289748"><ele>2021.7754</ele><time>2026-02-18T16:34:12.000Z</time></trkpt>
        <trkpt lat="29.496374" lon="103.289689"><ele>2021.7612</ele><time>2026-02-18T16:34:16.000Z</time></trkpt>
        <trkpt lat="29.496376" lon="103.289628"><ele>2021.6014</ele><time>2026-02-18T16:34:21.000Z</time></trkpt>
        <trkpt lat="29.496374" lon="103.289573"><ele>2020.6133</ele><time>2026-02-18T16:34:26.000Z</time></trkpt>
        <trkpt lat="29.496382" lon="103.289521"><ele>2019.8376</ele><time>2026-02-18T16:34:30.000Z</time></trkpt>
        <trkpt lat="29.4964" lon="103.289461"><ele>2019.7664</ele><time>2026-02-18T16:34:35.000Z</time></trkpt>
        <trkpt lat="29.496424" lon="103.289408"><ele>2019.4955</ele><time>2026-02-18T16:34:40.000Z</time></trkpt>
        <trkpt lat="29.496412" lon="103.289457"><ele>2018.2092</ele><time>2026-02-18T16:35:57.000Z</time></trkpt>
        <trkpt lat="29.496388" lon="103.28952"><ele>2017.9617</ele><time>2026-02-18T16:36:02.000Z</time></trkpt>
        <trkpt lat="29.496371" lon="103.289567"><ele>2019.2109</ele><time>2026-02-18T16:36:06.000Z</time></trkpt>
        <trkpt lat="29.496362" lon="103.289627"><ele>2020.7733</ele><time>2026-02-18T16:36:12.000Z</time></trkpt>
        <trkpt lat="29.496356" lon="103.289677"><ele>2022.2682</ele><time>2026-02-18T16:36:17.000Z</time></trkpt>
        <trkpt lat="29.496353" lon="103.289732"><ele>2022.28</ele><time>2026-02-18T16:36:23.000Z</time></trkpt>
        <trkpt lat="29.496341" lon="103.289782"><ele>2023.2073</ele><time>2026-02-18T16:36:29.000Z</time></trkpt>
        <trkpt lat="29.496322" lon="103.289831"><ele>2024.1854</ele><time>2026-02-18T16:36:36.000Z</time></trkpt>
        <trkpt lat="29.49629" lon="103.289873"><ele>2023.4855</ele><time>2026-02-18T16:36:46.000Z</time></trkpt>
        <trkpt lat="29.496259" lon="103.289916"><ele>2024.2053</ele><time>2026-02-18T16:36:52.000Z</time></trkpt>
        <trkpt lat="29.496224" lon="103.289959"><ele>2024.783</ele><time>2026-02-18T16:36:58.000Z</time></trkpt>
        <trkpt lat="29.496183" lon="103.290003"><ele>2024.8951</ele><time>2026-02-18T16:37:04.000Z</time></trkpt>
        <trkpt lat="29.496145" lon="103.290039"><ele>2025.5948</ele><time>2026-02-18T16:37:09.000Z</time></trkpt>
        <trkpt lat="29.496104" lon="103.290073"><ele>2025.4492</ele><time>2026-02-18T16:37:15.000Z</time></trkpt>
        <trkpt lat="29.496072" lon="103.290111"><ele>2025.4478</ele><time>2026-02-18T16:37:20.000Z</time></trkpt>
        <trkpt lat="29.496042" lon="103.290158"><ele>2024.8828</ele><time>2026-02-18T16:37:26.000Z</time></trkpt>
        <trkpt lat="29.496021" lon="103.290204"><ele>2025.2959</ele><time>2026-02-18T16:37:31.000Z</time></trkpt>
        <trkpt lat="29.496001" lon="103.290257"><ele>2026.3151</ele><time>2026-02-18T16:37:38.000Z</time></trkpt>
        <trkpt lat="29.495978" lon="103.290313"><ele>2028.2891</ele><time>2026-02-18T16:37:44.000Z</time></trkpt>
        <trkpt lat="29.495967" lon="103.290367"><ele>2029.2688</ele><time>2026-02-18T16:37:49.000Z</time></trkpt>
        <trkpt lat="29.495965" lon="103.29043"><ele>2028.1732</ele><time>2026-02-18T16:46:05.000Z</time></trkpt>
        <trkpt lat="29.495962" lon="103.290455"><ele>2028.3281</ele><time>2026-02-18T16:46:10.000Z</time></trkpt>
        <trkpt lat="29.495947" lon="103.290526"><ele>2030.1473</ele><time>2026-02-18T16:46:16.000Z</time></trkpt>
        <trkpt lat="29.495939" lon="103.290596"><ele>2032.133</ele><time>2026-02-18T16:46:22.000Z</time></trkpt>
        <trkpt lat="29.495933" lon="103.290653"><ele>2033.422</ele><time>2026-02-18T16:46:28.000Z</time></trkpt>
        <trkpt lat="29.495915" lon="103.290715"><ele>2033.9619</ele><time>2026-02-18T16:46:36.000Z</time></trkpt>
        <trkpt lat="29.495883" lon="103.290758"><ele>2034.6768</ele><time>2026-02-18T16:46:44.000Z</time></trkpt>
        <trkpt lat="29.495849" lon="103.290795"><ele>2035.1843</ele><time>2026-02-18T16:46:50.000Z</time></trkpt>
        <trkpt lat="29.495816" lon="103.290831"><ele>2035.2812</ele><time>2026-02-18T16:46:55.000Z</time></trkpt>
        <trkpt lat="29.49578" lon="103.290873"><ele>2034.697</ele><time>2026-02-18T16:47:02.000Z</time></trkpt>
        <trkpt lat="29.495744" lon="103.290914"><ele>2035.4897</ele><time>2026-02-18T16:47:09.000Z</time></trkpt>
        <trkpt lat="29.495709" lon="103.290963"><ele>2036.9554</ele><time>2026-02-18T16:47:17.000Z</time></trkpt>
        <trkpt lat="29.495683" lon="103.291006"><ele>2037.9878</ele><time>2026-02-18T16:47:23.000Z</time></trkpt>
        <trkpt lat="29.495659" lon="103.291053"><ele>2038.8116</ele><time>2026-02-18T16:47:28.000Z</time></trkpt>
        <trkpt lat="29.49565" lon="103.291108"><ele>2040.022</ele><time>2026-02-18T16:47:33.000Z</time></trkpt>
        <trkpt lat="29.495639" lon="103.291165"><ele>2041.5648</ele><time>2026-02-18T16:47:38.000Z</time></trkpt>
        <trkpt lat="29.49564" lon="103.29123"><ele>2041.7894</ele><time>2026-02-18T16:47:43.000Z</time></trkpt>
        <trkpt lat="29.495641" lon="103.291296"><ele>2041.6118</ele><time>2026-02-18T16:47:49.000Z</time></trkpt>
        <trkpt lat="29.49564" lon="103.291349"><ele>2042.0465</ele><time>2026-02-18T16:47:55.000Z</time></trkpt>
        <trkpt lat="29.495633" lon="103.291405"><ele>2043.703</ele><time>2026-02-18T16:48:06.000Z</time></trkpt>
        <trkpt lat="29.495621" lon="103.291451"><ele>2043.7749</ele><time>2026-02-18T16:48:12.000Z</time></trkpt>
        <trkpt lat="29.495619" lon="103.291513"><ele>2044.5968</ele><time>2026-02-18T16:48:21.000Z</time></trkpt>
        <trkpt lat="29.495638" lon="103.29156"><ele>2045.1948</ele><time>2026-02-18T16:48:27.000Z</time></trkpt>
        <trkpt lat="29.495666" lon="103.291612"><ele>2046.2324</ele><time>2026-02-18T16:48:34.000Z</time></trkpt>
        <trkpt lat="29.495696" lon="103.291666"><ele>2045.31</ele><time>2026-02-18T16:48:41.000Z</time></trkpt>
        <trkpt lat="29.495731" lon="103.291703"><ele>2045.1398</ele><time>2026-02-18T16:48:46.000Z</time></trkpt>
        <trkpt lat="29.495775" lon="103.291723"><ele>2045.4811</ele><time>2026-02-18T16:48:50.000Z</time></trkpt>
        <trkpt lat="29.495819" lon="103.291722"><ele>2046.6517</ele><time>2026-02-18T16:48:54.000Z</time></trkpt>
        <trkpt lat="29.495878" lon="103.291716"><ele>2047.9313</ele><time>2026-02-18T16:49:02.000Z</time></trkpt>
        <trkpt lat="29.495929" lon="103.291696"><ele>2047.187</ele><time>2026-02-18T16:49:08.000Z</time></trkpt>
        <trkpt lat="29.495974" lon="103.291671"><ele>2047.2662</ele><time>2026-02-18T16:49:13.000Z</time></trkpt>
        <trkpt lat="29.496017" lon="103.291634"><ele>2047.9325</ele><time>2026-02-18T16:49:45.000Z</time></trkpt>
        <trkpt lat="29.496044" lon="103.291611"><ele>2048.9924</ele><time>2026-02-18T16:49:51.000Z</time></trkpt>
        <trkpt lat="29.49609" lon="103.291573"><ele>2048.555</ele><time>2026-02-18T16:49:57.000Z</time></trkpt>
        <trkpt lat="29.496144" lon="103.291545"><ele>2049.6553</ele><time>2026-02-18T16:50:03.000Z</time></trkpt>
        <trkpt lat="29.496191" lon="103.291511"><ele>2051.0522</ele><time>2026-02-18T16:50:10.000Z</time></trkpt>
        <trkpt lat="29.496228" lon="103.29148"><ele>2051.719</ele><time>2026-02-18T16:50:15.000Z</time></trkpt>
        <trkpt lat="29.496268" lon="103.29144"><ele>2052.1653</ele><time>2026-02-18T16:50:21.000Z</time></trkpt>
        <trkpt lat="29.496308" lon="103.291408"><ele>2051.6458</ele><time>2026-02-18T16:50:26.000Z</time></trkpt>
        <trkpt lat="29.496349" lon="103.291373"><ele>2050.782</ele><time>2026-02-18T16:50:31.000Z</time></trkpt>
        <trkpt lat="29.496388" lon="103.291338"><ele>2050.7466</ele><time>2026-02-18T16:50:36.000Z</time></trkpt>
        <trkpt lat="29.496433" lon="103.291304"><ele>2050.7258</ele><time>2026-02-18T16:50:41.000Z</time></trkpt>
        <trkpt lat="29.496474" lon="103.291274"><ele>2051.1106</ele><time>2026-02-18T16:50:46.000Z</time></trkpt>
        <trkpt lat="29.496519" lon="103.291245"><ele>2051.0088</ele><time>2026-02-18T16:50:51.000Z</time></trkpt>
        <trkpt lat="29.496563" lon="103.291214"><ele>2050.9229</ele><time>2026-02-18T16:50:57.000Z</time></trkpt>
        <trkpt lat="29.496603" lon="103.291189"><ele>2050.6116</ele><time>2026-02-18T16:51:02.000Z</time></trkpt>
        <trkpt lat="29.496652" lon="103.291173"><ele>2050.998</ele><time>2026-02-18T16:51:07.000Z</time></trkpt>
        <trkpt lat="29.4967" lon="103.291156"><ele>2051.7954</ele><time>2026-02-18T16:51:12.000Z</time></trkpt>
        <trkpt lat="29.496743" lon="103.291133"><ele>2052.2876</ele><time>2026-02-18T16:51:17.000Z</time></trkpt>
        <trkpt lat="29.496786" lon="103.291106"><ele>2052.007</ele><time>2026-02-18T16:51:22.000Z</time></trkpt>
        <trkpt lat="29.496828" lon="103.291065"><ele>2052.4038</ele><time>2026-02-18T16:51:28.000Z</time></trkpt>
        <trkpt lat="29.496871" lon="103.291036"><ele>2052.301</ele><time>2026-02-18T16:51:34.000Z</time></trkpt>
        <trkpt lat="29.496913" lon="103.291"><ele>2052.2288</ele><time>2026-02-18T16:51:40.000Z</time></trkpt>
        <trkpt lat="29.49695" lon="103.290971"><ele>2051.894</ele><time>2026-02-18T16:51:45.000Z</time></trkpt>
        <trkpt lat="29.49699" lon="103.29094"><ele>2052.0842</ele><time>2026-02-18T16:51:50.000Z</time></trkpt>
        <trkpt lat="29.49703" lon="103.290911"><ele>2052.9065</ele><time>2026-02-18T16:51:55.000Z</time></trkpt>
        <trkpt lat="29.497076" lon="103.290873"><ele>2052.8093</ele><time>2026-02-18T16:52:01.000Z</time></trkpt>
        <trkpt lat="29.497113" lon="103.290832"><ele>2053.0427</ele><time>2026-02-18T16:52:07.000Z</time></trkpt>
        <trkpt lat="29.49715" lon="103.290797"><ele>2053.3442</ele><time>2026-02-18T16:52:13.000Z</time></trkpt>
        <trkpt lat="29.497188" lon="103.290759"><ele>2053.6526</ele><time>2026-02-18T16:52:18.000Z</time></trkpt>
        <trkpt lat="29.497238" lon="103.290726"><ele>2053.1375</ele><time>2026-02-18T16:52:24.000Z</time></trkpt>
        <trkpt lat="29.497287" lon="103.290719"><ele>2053.3953</ele><time>2026-02-18T16:52:29.000Z</time></trkpt>
        <trkpt lat="29.497339" lon="103.290738"><ele>2052.9375</ele><time>2026-02-18T16:52:35.000Z</time></trkpt>
        <trkpt lat="29.497381" lon="103.290779"><ele>2053.1924</ele><time>2026-02-18T16:52:40.000Z</time></trkpt>
        <trkpt lat="29.497413" lon="103.290822"><ele>2053.1277</ele><time>2026-02-18T16:52:45.000Z</time></trkpt>
        <trkpt lat="29.497446" lon="103.290871"><ele>2053.3076</ele><time>2026-02-18T16:52:53.000Z</time></trkpt>
        <trkpt lat="29.497462" lon="103.29092"><ele>2054.7922</ele><time>2026-02-18T16:52:58.000Z</time></trkpt>
        <trkpt lat="29.497474" lon="103.290977"><ele>2056.8154</ele><time>2026-02-18T16:53:04.000Z</time></trkpt>
        <trkpt lat="29.497475" lon="103.291038"><ele>2056.346</ele><time>2026-02-18T16:53:10.000Z</time></trkpt>
        <trkpt lat="29.497468" lon="103.291098"><ele>2057.094</ele><time>2026-02-18T16:53:16.000Z</time></trkpt>
        <trkpt lat="29.497462" lon="103.291162"><ele>2057.9062</ele><time>2026-02-18T16:53:24.000Z</time></trkpt>
        <trkpt lat="29.497471" lon="103.291217"><ele>2058.4565</ele><time>2026-02-18T16:53:31.000Z</time></trkpt>
        <trkpt lat="29.497501" lon="103.291267"><ele>2057.433</ele><time>2026-02-18T16:53:43.000Z</time></trkpt>
        <trkpt lat="29.497526" lon="103.291304"><ele>2057.6736</ele><time>2026-02-18T16:53:49.000Z</time></trkpt>
        <trkpt lat="29.497559" lon="103.291352"><ele>2060.879</ele><time>2026-02-18T16:54:03.000Z</time></trkpt>
        <trkpt lat="29.497595" lon="103.291383"><ele>2061.9954</ele><time>2026-02-18T16:54:18.000Z</time></trkpt>
        <trkpt lat="29.497634" lon="103.291409"><ele>2064.4917</ele><time>2026-02-18T16:54:26.000Z</time></trkpt>
        <trkpt lat="29.497681" lon="103.291424"><ele>2065.1233</ele><time>2026-02-18T16:54:33.000Z</time></trkpt>
        <trkpt lat="29.497727" lon="103.291446"><ele>2065.644</ele><time>2026-02-18T16:54:40.000Z</time></trkpt>
        <trkpt lat="29.497764" lon="103.291476"><ele>2066.5864</ele><time>2026-02-18T16:54:46.000Z</time></trkpt>
        <trkpt lat="29.497794" lon="103.291523"><ele>2067.4297</ele><time>2026-02-18T16:54:59.000Z</time></trkpt>
        <trkpt lat="29.497815" lon="103.291569"><ele>2067.3176</ele><time>2026-02-18T16:55:26.000Z</time></trkpt>
        <trkpt lat="29.497826" lon="103.291623"><ele>2068.7227</ele><time>2026-02-18T16:55:43.000Z</time></trkpt>
        <trkpt lat="29.497848" lon="103.29166"><ele>2069.1826</ele><time>2026-02-18T16:55:48.000Z</time></trkpt>
        <trkpt lat="29.497881" lon="103.291708"><ele>2071.5254</ele><time>2026-02-18T16:55:54.000Z</time></trkpt>
        <trkpt lat="29.497913" lon="103.291758"><ele>2073.1482</ele><time>2026-02-18T16:56:00.000Z</time></trkpt>
        <trkpt lat="29.497938" lon="103.291805"><ele>2073.128</ele><time>2026-02-18T16:56:06.000Z</time></trkpt>
        <trkpt lat="29.497946" lon="103.291863"><ele>2074.4849</ele><time>2026-02-18T16:56:18.000Z</time></trkpt>
        <trkpt lat="29.497975" lon="103.2919"><ele>2073.6995</ele><time>2026-02-18T16:56:26.000Z</time></trkpt>
        <trkpt lat="29.498009" lon="103.29195"><ele>2073.4885</ele><time>2026-02-18T16:56:34.000Z</time></trkpt>
        <trkpt lat="29.498025" lon="103.292004"><ele>2075.1494</ele><time>2026-02-18T16:56:50.000Z</time></trkpt>
        <trkpt lat="29.498038" lon="103.292054"><ele>2076.28</ele><time>2026-02-18T16:57:04.000Z</time></trkpt>
        <trkpt lat="29.498053" lon="103.292107"><ele>2076.7903</ele><time>2026-02-18T16:57:18.000Z</time></trkpt>
        <trkpt lat="29.498067" lon="103.292154"><ele>2078.177</ele><time>2026-02-18T16:57:26.000Z</time></trkpt>
        <trkpt lat="29.498086" lon="103.292206"><ele>2079.8228</ele><time>2026-02-18T16:57:36.000Z</time></trkpt>
        <trkpt lat="29.498103" lon="103.292263"><ele>2080.168</ele><time>2026-02-18T16:58:15.000Z</time></trkpt>
        <trkpt lat="29.498134" lon="103.292298"><ele>2080.7896</ele><time>2026-02-18T16:58:23.000Z</time></trkpt>
        <trkpt lat="29.498167" lon="103.292343"><ele>2082.3696</ele><time>2026-02-18T16:58:32.000Z</time></trkpt>
        <trkpt lat="29.498196" lon="103.292389"><ele>2082.2783</ele><time>2026-02-18T16:58:39.000Z</time></trkpt>
        <trkpt lat="29.498229" lon="103.292436"><ele>2083.477</ele><time>2026-02-18T16:58:46.000Z</time></trkpt>
        <trkpt lat="29.498259" lon="103.292478"><ele>2084.3843</ele><time>2026-02-18T16:58:53.000Z</time></trkpt>
        <trkpt lat="29.498281" lon="103.292525"><ele>2084.7175</ele><time>2026-02-18T16:59:01.000Z</time></trkpt>
        <trkpt lat="29.498304" lon="103.292567"><ele>2085.8396</ele><time>2026-02-18T16:59:07.000Z</time></trkpt>
        <trkpt lat="29.498329" lon="103.292619"><ele>2087.0132</ele><time>2026-02-18T16:59:19.000Z</time></trkpt>
        <trkpt lat="29.498351" lon="103.292661"><ele>2088.417</ele><time>2026-02-18T16:59:28.000Z</time></trkpt>
        <trkpt lat="29.498374" lon="103.292715"><ele>2089.395</ele><time>2026-02-18T16:59:39.000Z</time></trkpt>
        <trkpt lat="29.498389" lon="103.292767"><ele>2089.5134</ele><time>2026-02-18T16:59:52.000Z</time></trkpt>
        <trkpt lat="29.498398" lon="103.292817"><ele>2089.3838</ele><time>2026-02-18T16:59:59.000Z</time></trkpt>
        <trkpt lat="29.498405" lon="103.292867"><ele>2088.7295</ele><time>2026-02-18T17:00:04.000Z</time></trkpt>
        <trkpt lat="29.498425" lon="103.29293"><ele>2089.3948</ele><time>2026-02-18T17:00:13.000Z</time></trkpt>
        <trkpt lat="29.498451" lon="103.29297"><ele>2089.8528</ele><time>2026-02-18T17:00:19.000Z</time></trkpt>
        <trkpt lat="29.498485" lon="103.293017"><ele>2094.3848</ele><time>2026-02-18T17:00:40.000Z</time></trkpt>
        <trkpt lat="29.498509" lon="103.293057"><ele>2093.654</ele><time>2026-02-18T17:00:48.000Z</time></trkpt>
        <trkpt lat="29.498548" lon="103.293094"><ele>2090.1514</ele><time>2026-02-18T17:00:58.000Z</time></trkpt>
        <trkpt lat="29.498576" lon="103.293135"><ele>2091.475</ele><time>2026-02-18T17:01:03.000Z</time></trkpt>
        <trkpt lat="29.498614" lon="103.293182"><ele>2093.5935</ele><time>2026-02-18T17:01:11.000Z</time></trkpt>
        <trkpt lat="29.498639" lon="103.29323"><ele>2094.562</ele><time>2026-02-18T17:01:39.000Z</time></trkpt>
        <trkpt lat="29.498676" lon="103.293256"><ele>2096.0183</ele><time>2026-02-18T17:01:49.000Z</time></trkpt>
        <trkpt lat="29.498719" lon="103.29329"><ele>2098.0295</ele><time>2026-02-18T17:01:58.000Z</time></trkpt>
        <trkpt lat="29.498764" lon="103.293323"><ele>2098.8276</ele><time>2026-02-18T17:02:09.000Z</time></trkpt>
        <trkpt lat="29.498813" lon="103.293334"><ele>2100.9949</ele><time>2026-02-18T17:02:17.000Z</time></trkpt>
        <trkpt lat="29.498852" lon="103.29337"><ele>2102.5889</ele><time>2026-02-18T17:02:25.000Z</time></trkpt>
        <trkpt lat="29.498879" lon="103.293415"><ele>2102.151</ele><time>2026-02-18T17:02:35.000Z</time></trkpt>
        <trkpt lat="29.498918" lon="103.293445"><ele>2102.6755</ele><time>2026-02-18T17:02:45.000Z</time></trkpt>
        <trkpt lat="29.498965" lon="103.293464"><ele>2104.8298</ele><time>2026-02-18T17:02:57.000Z</time></trkpt>
        <trkpt lat="29.499014" lon="103.293487"><ele>2105.4988</ele><time>2026-02-18T17:03:09.000Z</time></trkpt>
        <trkpt lat="29.499057" lon="103.293481"><ele>2106.9885</ele><time>2026-02-18T17:03:16.000Z</time></trkpt>
        <trkpt lat="29.499107" lon="103.29348"><ele>2107.964</ele><time>2026-02-18T17:03:28.000Z</time></trkpt>
        <trkpt lat="29.499153" lon="103.293513"><ele>2107.6194</ele><time>2026-02-18T17:03:38.000Z</time></trkpt>
        <trkpt lat="29.499177" lon="103.293563"><ele>2107.887</ele><time>2026-02-18T17:03:46.000Z</time></trkpt>
        <trkpt lat="29.499181" lon="103.293619"><ele>2109.3345</ele><time>2026-02-18T17:03:53.000Z</time></trkpt>
        <trkpt lat="29.499158" lon="103.293669"><ele>2108.518</ele><time>2026-02-18T17:03:59.000Z</time></trkpt>
        <trkpt lat="29.499127" lon="103.29371"><ele>2108.1765</ele><time>2026-02-18T17:04:05.000Z</time></trkpt>
        <trkpt lat="29.499082" lon="103.293742"><ele>2107.8367</ele><time>2026-02-18T17:04:21.000Z</time></trkpt>
        <trkpt lat="29.499038" lon="103.293752"><ele>2109.4895</ele><time>2026-02-18T17:04:28.000Z</time></trkpt>
        <trkpt lat="29.498982" lon="103.29376"><ele>2111.4006</ele><time>2026-02-18T17:04:35.000Z</time></trkpt>
        <trkpt lat="29.498928" lon="103.293762"><ele>2110.3943</ele><time>2026-02-18T17:05:03.000Z</time></trkpt>
        <trkpt lat="29.498882" lon="103.293746"><ele>2111.2551</ele><time>2026-02-18T17:05:16.000Z</time></trkpt>
        <trkpt lat="29.498833" lon="103.293733"><ele>2113.984</ele><time>2026-02-18T17:05:24.000Z</time></trkpt>
        <trkpt lat="29.49878" lon="103.293723"><ele>2114.5928</ele><time>2026-02-18T17:05:32.000Z</time></trkpt>
        <trkpt lat="29.498734" lon="103.293715"><ele>2115.609</ele><time>2026-02-18T17:05:40.000Z</time></trkpt>
        <trkpt lat="29.49869" lon="103.293695"><ele>2114.9822</ele><time>2026-02-18T17:05:55.000Z</time></trkpt>
        <trkpt lat="29.498646" lon="103.293677"><ele>2114.1282</ele><time>2026-02-18T17:06:04.000Z</time></trkpt>
        <trkpt lat="29.498599" lon="103.293682"><ele>2114.1602</ele><time>2026-02-18T17:06:12.000Z</time></trkpt>
        <trkpt lat="29.498553" lon="103.293697"><ele>2115.909</ele><time>2026-02-18T17:06:27.000Z</time></trkpt>
        <trkpt lat="29.498506" lon="103.293706"><ele>2116.989</ele><time>2026-02-18T17:06:46.000Z</time></trkpt>
        <trkpt lat="29.498453" lon="103.293694"><ele>2118.4912</ele><time>2026-02-18T17:11:58.000Z</time></trkpt>
        <trkpt lat="29.49843" lon="103.29372"><ele>2118.2148</ele><time>2026-02-18T17:12:04.000Z</time></trkpt>
        <trkpt lat="29.498403" lon="103.29377"><ele>2116.5503</ele><time>2026-02-18T17:12:10.000Z</time></trkpt>
        <trkpt lat="29.498394" lon="103.29383"><ele>2115.5674</ele><time>2026-02-18T17:12:16.000Z</time></trkpt>
        <trkpt lat="29.498395" lon="103.293887"><ele>2116.2717</ele><time>2026-02-18T17:12:21.000Z</time></trkpt>
        <trkpt lat="29.498406" lon="103.293948"><ele>2117.502</ele><time>2026-02-18T17:12:27.000Z</time></trkpt>
        <trkpt lat="29.498402" lon="103.294003"><ele>2116.9734</ele><time>2026-02-18T17:12:35.000Z</time></trkpt>
        <trkpt lat="29.498403" lon="103.294051"><ele>2118.114</ele><time>2026-02-18T17:12:42.000Z</time></trkpt>
        <trkpt lat="29.498395" lon="103.294111"><ele>2121.3354</ele><time>2026-02-18T17:12:53.000Z</time></trkpt>
        <trkpt lat="29.498385" lon="103.294161"><ele>2124.1892</ele><time>2026-02-18T17:13:02.000Z</time></trkpt>
        <trkpt lat="29.498387" lon="103.294217"><ele>2123.6982</ele><time>2026-02-18T17:13:13.000Z</time></trkpt>
        <trkpt lat="29.498396" lon="103.294269"><ele>2125.037</ele><time>2026-02-18T17:13:20.000Z</time></trkpt>
        <trkpt lat="29.498412" lon="103.294322"><ele>2125.5952</ele><time>2026-02-18T17:13:27.000Z</time></trkpt>
        <trkpt lat="29.498423" lon="103.294377"><ele>2126.9158</ele><time>2026-02-18T17:13:34.000Z</time></trkpt>
        <trkpt lat="29.498431" lon="103.294432"><ele>2127.662</ele><time>2026-02-18T17:13:40.000Z</time></trkpt>
        <trkpt lat="29.498419" lon="103.294489"><ele>2130.0835</ele><time>2026-02-18T17:13:47.000Z</time></trkpt>
        <trkpt lat="29.498408" lon="103.294548"><ele>2129.5298</ele><time>2026-02-18T17:13:53.000Z</time></trkpt>
        <trkpt lat="29.498413" lon="103.294602"><ele>2127.6714</ele><time>2026-02-18T17:13:58.000Z</time></trkpt>
        <trkpt lat="29.498413" lon="103.29467"><ele>2127.2183</ele><time>2026-02-18T17:14:03.000Z</time></trkpt>
        <trkpt lat="29.498411" lon="103.294727"><ele>2127.3896</ele><time>2026-02-18T17:14:08.000Z</time></trkpt>
        <trkpt lat="29.498404" lon="103.294786"><ele>2126.7263</ele><time>2026-02-18T17:14:13.000Z</time></trkpt>
        <trkpt lat="29.498393" lon="103.29484"><ele>2126.6614</ele><time>2026-02-18T17:14:18.000Z</time></trkpt>
        <trkpt lat="29.498371" lon="103.294885"><ele>2127.3113</ele><time>2026-02-18T17:14:23.000Z</time></trkpt>
        <trkpt lat="29.498343" lon="103.294939"><ele>2128.4507</ele><time>2026-02-18T17:14:45.000Z</time></trkpt>
        <trkpt lat="29.498321" lon="103.294967"><ele>2128.962</ele><time>2026-02-18T17:14:51.000Z</time></trkpt>
        <trkpt lat="29.498296" lon="103.295016"><ele>2130.4285</ele><time>2026-02-18T17:14:57.000Z</time></trkpt>
        <trkpt lat="29.49828" lon="103.295068"><ele>2132.6484</ele><time>2026-02-18T17:15:02.000Z</time></trkpt>
        <trkpt lat="29.498256" lon="103.295111"><ele>2134.2737</ele><time>2026-02-18T17:15:06.000Z</time></trkpt>
        <trkpt lat="29.498235" lon="103.295173"><ele>2133.7227</ele><time>2026-02-18T17:15:13.000Z</time></trkpt>
        <trkpt lat="29.498226" lon="103.295228"><ele>2133.2136</ele><time>2026-02-18T17:15:20.000Z</time></trkpt>
        <trkpt lat="29.498215" lon="103.295285"><ele>2133.0674</ele><time>2026-02-18T17:15:26.000Z</time></trkpt>
        <trkpt lat="29.498201" lon="103.295339"><ele>2132.887</ele><time>2026-02-18T17:15:31.000Z</time></trkpt>
        <trkpt lat="29.498185" lon="103.295392"><ele>2133.7568</ele><time>2026-02-18T17:15:36.000Z</time></trkpt>
        <trkpt lat="29.498169" lon="103.295439"><ele>2134.1785</ele><time>2026-02-18T17:15:40.000Z</time></trkpt>
        <trkpt lat="29.49815" lon="103.295493"><ele>2134.6455</ele><time>2026-02-18T17:15:46.000Z</time></trkpt>
        <trkpt lat="29.498136" lon="103.295547"><ele>2134.9102</ele><time>2026-02-18T17:15:51.000Z</time></trkpt>
        <trkpt lat="29.498121" lon="103.295601"><ele>2135.6042</ele><time>2026-02-18T17:15:56.000Z</time></trkpt>
        <trkpt lat="29.498111" lon="103.295654"><ele>2135.636</ele><time>2026-02-18T17:16:01.000Z</time></trkpt>
        <trkpt lat="29.498087" lon="103.295714"><ele>2136.094</ele><time>2026-02-18T17:16:07.000Z</time></trkpt>
        <trkpt lat="29.498067" lon="103.295773"><ele>2136.914</ele><time>2026-02-18T17:16:12.000Z</time></trkpt>
        <trkpt lat="29.498057" lon="103.295824"><ele>2137.5767</ele><time>2026-02-18T17:16:17.000Z</time></trkpt>
        <trkpt lat="29.498051" lon="103.295872"><ele>2137.9688</ele><time>2026-02-18T17:16:21.000Z</time></trkpt>
        <trkpt lat="29.498036" lon="103.295925"><ele>2137.5486</ele><time>2026-02-18T17:16:26.000Z</time></trkpt>
        <trkpt lat="29.498019" lon="103.295981"><ele>2137.3508</ele><time>2026-02-18T17:16:31.000Z</time></trkpt>
        <trkpt lat="29.497994" lon="103.296035"><ele>2137.438</ele><time>2026-02-18T17:16:37.000Z</time></trkpt>
        <trkpt lat="29.497975" lon="103.296086"><ele>2137.7034</ele><time>2026-02-18T17:16:42.000Z</time></trkpt>
        <trkpt lat="29.497957" lon="103.296133"><ele>2138.0352</ele><time>2026-02-18T17:16:46.000Z</time></trkpt>
        <trkpt lat="29.49793" lon="103.296186"><ele>2136.8364</ele><time>2026-02-18T17:16:51.000Z</time></trkpt>
        <trkpt lat="29.497914" lon="103.296236"><ele>2136.9883</ele><time>2026-02-18T17:16:55.000Z</time></trkpt>
        <trkpt lat="29.497896" lon="103.296294"><ele>2137.38</ele><time>2026-02-18T17:17:01.000Z</time></trkpt>
        <trkpt lat="29.497879" lon="103.296347"><ele>2138.125</ele><time>2026-02-18T17:17:08.000Z</time></trkpt>
        <trkpt lat="29.497866" lon="103.296391"><ele>2138.1619</ele><time>2026-02-18T17:17:13.000Z</time></trkpt>
        <trkpt lat="29.497864" lon="103.296453"><ele>2138.051</ele><time>2026-02-18T17:17:18.000Z</time></trkpt>
        <trkpt lat="29.497852" lon="103.296513"><ele>2137.693</ele><time>2026-02-18T17:17:25.000Z</time></trkpt>
        <trkpt lat="29.497829" lon="103.296567"><ele>2138.9714</ele><time>2026-02-18T17:17:32.000Z</time></trkpt>
        <trkpt lat="29.497812" lon="103.296624"><ele>2139.2896</ele><time>2026-02-18T17:17:39.000Z</time></trkpt>
        <trkpt lat="29.497794" lon="103.296678"><ele>2139.5217</ele><time>2026-02-18T17:17:46.000Z</time></trkpt>
        <trkpt lat="29.497774" lon="103.296725"><ele>2139.454</ele><time>2026-02-18T17:17:52.000Z</time></trkpt>
        <trkpt lat="29.497756" lon="103.296776"><ele>2138.5684</ele><time>2026-02-18T17:17:58.000Z</time></trkpt>
        <trkpt lat="29.497746" lon="103.296828"><ele>2138.7603</ele><time>2026-02-18T17:18:03.000Z</time></trkpt>
        <trkpt lat="29.497722" lon="103.296878"><ele>2138.5608</ele><time>2026-02-18T17:18:08.000Z</time></trkpt>
        <trkpt lat="29.497703" lon="103.296929"><ele>2136.8262</ele><time>2026-02-18T17:18:14.000Z</time></trkpt>
        <trkpt lat="29.497677" lon="103.296981"><ele>2135.9668</ele><time>2026-02-18T17:18:21.000Z</time></trkpt>
        <trkpt lat="29.497702" lon="103.296933"><ele>2133.7446</ele><time>2026-02-18T17:19:02.000Z</time></trkpt>
        <trkpt lat="29.49772" lon="103.296889"><ele>2134.4204</ele><time>2026-02-18T17:19:07.000Z</time></trkpt>
        <trkpt lat="29.497738" lon="103.296835"><ele>2135.7776</ele><time>2026-02-18T17:19:13.000Z</time></trkpt>
        <trkpt lat="29.497756" lon="103.296785"><ele>2136.3135</ele><time>2026-02-18T17:19:19.000Z</time></trkpt>
        <trkpt lat="29.497771" lon="103.296741"><ele>2136.8206</ele><time>2026-02-18T17:19:23.000Z</time></trkpt>
        <trkpt lat="29.497794" lon="103.296678"><ele>2138.4045</ele><time>2026-02-18T17:19:30.000Z</time></trkpt>
        <trkpt lat="29.497813" lon="103.296614"><ele>2139.6785</ele><time>2026-02-18T17:19:37.000Z</time></trkpt>
        <trkpt lat="29.497826" lon="103.296567"><ele>2140.2837</ele><time>2026-02-18T17:19:42.000Z</time></trkpt>
        <trkpt lat="29.497839" lon="103.296517"><ele>2139.4304</ele><time>2026-02-18T17:19:47.000Z</time></trkpt>
        <trkpt lat="29.497854" lon="103.296463"><ele>2139.6924</ele><time>2026-02-18T17:19:52.000Z</time></trkpt>
        <trkpt lat="29.497882" lon="103.296401"><ele>2139.6782</ele><time>2026-02-18T17:20:01.000Z</time></trkpt>
        <trkpt lat="29.497896" lon="103.296351"><ele>2138.9165</ele><time>2026-02-18T17:20:07.000Z</time></trkpt>
        <trkpt lat="29.497914" lon="103.296294"><ele>2137.2104</ele><time>2026-02-18T17:20:15.000Z</time></trkpt>
        <trkpt lat="29.497928" lon="103.296245"><ele>2136.7322</ele><time>2026-02-18T17:20:20.000Z</time></trkpt>
        <trkpt lat="29.497932" lon="103.296187"><ele>2136.9695</ele><time>2026-02-18T17:20:25.000Z</time></trkpt>
        <trkpt lat="29.497944" lon="103.296224"><ele>2137.8718</ele><time>2026-02-18T17:20:37.000Z</time></trkpt>
        <trkpt lat="29.497983" lon="103.296255"><ele>2136.1873</ele><time>2026-02-18T17:20:48.000Z</time></trkpt>
        <trkpt lat="29.498025" lon="103.296262"><ele>2137.6436</ele><time>2026-02-18T17:20:54.000Z</time></trkpt>
        <trkpt lat="29.498073" lon="103.296278"><ele>2139.1155</ele><time>2026-02-18T17:21:02.000Z</time></trkpt>
        <trkpt lat="29.498122" lon="103.296292"><ele>2139.7764</ele><time>2026-02-18T17:21:24.000Z</time></trkpt>
        <trkpt lat="29.498167" lon="103.296316"><ele>2142.6694</ele><time>2026-02-18T17:21:41.000Z</time></trkpt>
        <trkpt lat="29.498213" lon="103.296334"><ele>2145.4958</ele><time>2026-02-18T17:21:51.000Z</time></trkpt>
        <trkpt lat="29.498258" lon="103.296347"><ele>2147.3772</ele><time>2026-02-18T17:22:01.000Z</time></trkpt>
        <trkpt lat="29.498303" lon="103.296368"><ele>2150.5085</ele><time>2026-02-18T17:22:21.000Z</time></trkpt>
        <trkpt lat="29.498347" lon="103.296386"><ele>2149.3386</ele><time>2026-02-18T17:22:42.000Z</time></trkpt>
        <trkpt lat="29.498393" lon="103.296401"><ele>2150.3965</ele><time>2026-02-18T17:22:52.000Z</time></trkpt>
        <trkpt lat="29.498423" lon="103.296447"><ele>2150.0808</ele><time>2026-02-18T17:23:03.000Z</time></trkpt>
        <trkpt lat="29.498431" lon="103.296509"><ele>2150.686</ele><time>2026-02-18T17:23:10.000Z</time></trkpt>
        <trkpt lat="29.498423" lon="103.296569"><ele>2150.305</ele><time>2026-02-18T17:23:17.000Z</time></trkpt>
        <trkpt lat="29.498409" lon="103.296624"><ele>2149.369</ele><time>2026-02-18T17:23:57.000Z</time></trkpt>
        <trkpt lat="29.498383" lon="103.296654"><ele>2148.2878</ele><time>2026-02-18T17:24:03.000Z</time></trkpt>
        <trkpt lat="29.498352" lon="103.296711"><ele>2148.0842</ele><time>2026-02-18T17:24:09.000Z</time></trkpt>
        <trkpt lat="29.498323" lon="103.296765"><ele>2147.935</ele><time>2026-02-18T17:24:15.000Z</time></trkpt>
        <trkpt lat="29.498303" lon="103.296816"><ele>2147.9111</ele><time>2026-02-18T17:24:20.000Z</time></trkpt>
        <trkpt lat="29.49828" lon="103.296862"><ele>2147.0217</ele><time>2026-02-18T17:24:25.000Z</time></trkpt>
        <trkpt lat="29.498265" lon="103.29691"><ele>2146.528</ele><time>2026-02-18T17:24:30.000Z</time></trkpt>
        <trkpt lat="29.498248" lon="103.296963"><ele>2146.103</ele><time>2026-02-18T17:24:34.000Z</time></trkpt>
        <trkpt lat="29.498223" lon="103.297017"><ele>2144.9385</ele><time>2026-02-18T17:24:42.000Z</time></trkpt>
        <trkpt lat="29.498243" lon="103.297062"><ele>2143.6948</ele><time>2026-02-18T17:24:52.000Z</time></trkpt>
        <trkpt lat="29.498284" lon="103.297101"><ele>2143.958</ele><time>2026-02-18T17:25:01.000Z</time></trkpt>
        <trkpt lat="29.498323" lon="103.297135"><ele>2144.469</ele><time>2026-02-18T17:25:07.000Z</time></trkpt>
        <trkpt lat="29.498354" lon="103.297174"><ele>2144.5576</ele><time>2026-02-18T17:25:12.000Z</time></trkpt>
        <trkpt lat="29.498379" lon="103.297229"><ele>2145.213</ele><time>2026-02-18T17:25:18.000Z</time></trkpt>
        <trkpt lat="29.498394" lon="103.297285"><ele>2146.409</ele><time>2026-02-18T17:25:26.000Z</time></trkpt>
        <trkpt lat="29.498425" lon="103.297324"><ele>2146.3687</ele><time>2026-02-18T17:25:33.000Z</time></trkpt>
        <trkpt lat="29.498469" lon="103.297354"><ele>2147.1274</ele><time>2026-02-18T17:26:03.000Z</time></trkpt>
        <trkpt lat="29.498505" lon="103.297382"><ele>2147.1736</ele><time>2026-02-18T17:26:15.000Z</time></trkpt>
        <trkpt lat="29.498545" lon="103.297424"><ele>2151.4453</ele><time>2026-02-18T17:26:24.000Z</time></trkpt>
        <trkpt lat="29.498578" lon="103.297465"><ele>2152.3054</ele><time>2026-02-18T17:26:38.000Z</time></trkpt>
        <trkpt lat="29.498603" lon="103.297511"><ele>2149.995</ele><time>2026-02-18T17:26:46.000Z</time></trkpt>
        <trkpt lat="29.498643" lon="103.297543"><ele>2148.162</ele><time>2026-02-18T17:26:53.000Z</time></trkpt>
        <trkpt lat="29.498682" lon="103.297579"><ele>2151.754</ele><time>2026-02-18T17:27:07.000Z</time></trkpt>
        <trkpt lat="29.498726" lon="103.29758"><ele>2153.1064</ele><time>2026-02-18T17:27:16.000Z</time></trkpt>
        <trkpt lat="29.498767" lon="103.297603"><ele>2151.4827</ele><time>2026-02-18T17:27:23.000Z</time></trkpt>
        <trkpt lat="29.498796" lon="103.29764"><ele>2150.7976</ele><time>2026-02-18T17:27:28.000Z</time></trkpt>
        <trkpt lat="29.498821" lon="103.297696"><ele>2151.985</ele><time>2026-02-18T17:27:34.000Z</time></trkpt>
        <trkpt lat="29.498843" lon="103.297745"><ele>2152.3193</ele><time>2026-02-18T17:27:39.000Z</time></trkpt>
        <trkpt lat="29.49888" lon="103.297781"><ele>2153.082</ele><time>2026-02-18T17:27:45.000Z</time></trkpt>
        <trkpt lat="29.498906" lon="103.297826"><ele>2156.1677</ele><time>2026-02-18T17:27:58.000Z</time></trkpt>
        <trkpt lat="29.498946" lon="103.297849"><ele>2154.4885</ele><time>2026-02-18T17:28:05.000Z</time></trkpt>
        <trkpt lat="29.498988" lon="103.297893"><ele>2156.697</ele><time>2026-02-18T17:28:16.000Z</time></trkpt>
        <trkpt lat="29.499035" lon="103.297899"><ele>2156.6152</ele><time>2026-02-18T17:28:34.000Z</time></trkpt>
        <trkpt lat="29.499082" lon="103.297909"><ele>2154.9202</ele><time>2026-02-18T17:28:41.000Z</time></trkpt>
        <trkpt lat="29.499125" lon="103.297947"><ele>2155.3362</ele><time>2026-02-18T17:28:48.000Z</time></trkpt>
        <trkpt lat="29.499169" lon="103.297981"><ele>2157.6753</ele><time>2026-02-18T17:29:03.000Z</time></trkpt>
        <trkpt lat="29.499208" lon="103.298008"><ele>2158.9248</ele><time>2026-02-18T17:29:14.000Z</time></trkpt>
        <trkpt lat="29.499243" lon="103.298047"><ele>2159.2644</ele><time>2026-02-18T17:29:23.000Z</time></trkpt>
        <trkpt lat="29.499267" lon="103.298099"><ele>2160.9402</ele><time>2026-02-18T17:29:34.000Z</time></trkpt>
        <trkpt lat="29.499302" lon="103.298122"><ele>2162.527</ele><time>2026-02-18T17:29:40.000Z</time></trkpt>
        <trkpt lat="29.499339" lon="103.298165"><ele>2166.852</ele><time>2026-02-18T17:29:50.000Z</time></trkpt>
        <trkpt lat="29.499375" lon="103.298206"><ele>2166.9236</ele><time>2026-02-18T17:30:05.000Z</time></trkpt>
        <trkpt lat="29.499388" lon="103.298257"><ele>2165.2585</ele><time>2026-02-18T17:30:13.000Z</time></trkpt>
        <trkpt lat="29.499412" lon="103.2983"><ele>2165.2595</ele><time>2026-02-18T17:30:19.000Z</time></trkpt>
        <trkpt lat="29.499441" lon="103.298347"><ele>2166.8213</ele><time>2026-02-18T17:30:25.000Z</time></trkpt>
        <trkpt lat="29.499455" lon="103.298402"><ele>2170.0024</ele><time>2026-02-18T17:30:33.000Z</time></trkpt>
        <trkpt lat="29.499458" lon="103.298457"><ele>2170.8623</ele><time>2026-02-18T17:30:40.000Z</time></trkpt>
        <trkpt lat="29.49947" lon="103.298508"><ele>2169.646</ele><time>2026-02-18T17:30:46.000Z</time></trkpt>
        <trkpt lat="29.499482" lon="103.298559"><ele>2169.0662</ele><time>2026-02-18T17:30:50.000Z</time></trkpt>
        <trkpt lat="29.499518" lon="103.298612"><ele>2166.5842</ele><time>2026-02-18T17:31:01.000Z</time></trkpt>
        <trkpt lat="29.49949" lon="103.298647"><ele>2166.737</ele><time>2026-02-18T17:31:09.000Z</time></trkpt>
        <trkpt lat="29.499446" lon="103.298675"><ele>2167.1245</ele><time>2026-02-18T17:31:16.000Z</time></trkpt>
        <trkpt lat="29.499492" lon="103.298671"><ele>2173.361</ele><time>2026-02-18T17:34:47.000Z</time></trkpt>
        <trkpt lat="29.499458" lon="103.298703"><ele>2170.7805</ele><time>2026-02-18T17:35:56.000Z</time></trkpt>
        <trkpt lat="29.499505" lon="103.298711"><ele>2172.5166</ele><time>2026-02-18T17:36:58.000Z</time></trkpt>
        <trkpt lat="29.499552" lon="103.29872"><ele>2172.314</ele><time>2026-02-18T17:37:05.000Z</time></trkpt>
        <trkpt lat="29.499585" lon="103.298766"><ele>2173.9788</ele><time>2026-02-18T17:37:17.000Z</time></trkpt>
        <trkpt lat="29.499615" lon="103.298812"><ele>2173.0645</ele><time>2026-02-18T17:37:37.000Z</time></trkpt>
        <trkpt lat="29.49964" lon="103.29885"><ele>2170.6543</ele><time>2026-02-18T17:37:45.000Z</time></trkpt>
        <trkpt lat="29.499663" lon="103.298901"><ele>2170.0254</ele><time>2026-02-18T17:37:52.000Z</time></trkpt>
        <trkpt lat="29.499674" lon="103.298955"><ele>2172.6082</ele><time>2026-02-18T17:37:59.000Z</time></trkpt>
        <trkpt lat="29.499703" lon="103.298994"><ele>2172.2937</ele><time>2026-02-18T17:38:06.000Z</time></trkpt>
        <trkpt lat="29.499712" lon="103.299047"><ele>2174.4902</ele><time>2026-02-18T17:38:16.000Z</time></trkpt>
        <trkpt lat="29.499728" lon="103.299096"><ele>2173.1326</ele><time>2026-02-18T17:38:29.000Z</time></trkpt>
        <trkpt lat="29.499769" lon="103.299119"><ele>2173.236</ele><time>2026-02-18T17:38:42.000Z</time></trkpt>
        <trkpt lat="29.499812" lon="103.299136"><ele>2171.911</ele><time>2026-02-18T17:38:52.000Z</time></trkpt>
        <trkpt lat="29.499853" lon="103.299167"><ele>2174.0898</ele><time>2026-02-18T17:39:16.000Z</time></trkpt>
        <trkpt lat="29.499885" lon="103.299202"><ele>2176.0662</ele><time>2026-02-18T17:39:32.000Z</time></trkpt>
        <trkpt lat="29.499928" lon="103.299227"><ele>2181.168</ele><time>2026-02-18T17:39:51.000Z</time></trkpt>
        <trkpt lat="29.499972" lon="103.299241"><ele>2184.0693</ele><time>2026-02-18T17:40:11.000Z</time></trkpt>
        <trkpt lat="29.50002" lon="103.299232"><ele>2183.5435</ele><time>2026-02-18T17:41:09.000Z</time></trkpt>
        <trkpt lat="29.500064" lon="103.299229"><ele>2189.0369</ele><time>2026-02-18T17:41:27.000Z</time></trkpt>
        <trkpt lat="29.50011" lon="103.299242"><ele>2188.3652</ele><time>2026-02-18T17:41:35.000Z</time></trkpt>
        <trkpt lat="29.500155" lon="103.299271"><ele>2190.2932</ele><time>2026-02-18T17:41:46.000Z</time></trkpt>
        <trkpt lat="29.500197" lon="103.299284"><ele>2190.6611</ele><time>2026-02-18T17:41:55.000Z</time></trkpt>
        <trkpt lat="29.500242" lon="103.299315"><ele>2189.8398</ele><time>2026-02-18T17:42:04.000Z</time></trkpt>
        <trkpt lat="29.500285" lon="103.29935"><ele>2189.571</ele><time>2026-02-18T17:42:14.000Z</time></trkpt>
        <trkpt lat="29.500311" lon="103.299397"><ele>2192.6252</ele><time>2026-02-18T17:42:30.000Z</time></trkpt>
        <trkpt lat="29.500344" lon="103.299436"><ele>2193.8354</ele><time>2026-02-18T17:42:45.000Z</time></trkpt>
        <trkpt lat="29.500383" lon="103.299479"><ele>2196.4429</ele><time>2026-02-18T17:43:00.000Z</time></trkpt>
        <trkpt lat="29.500425" lon="103.299512"><ele>2197.9822</ele><time>2026-02-18T17:43:12.000Z</time></trkpt>
        <trkpt lat="29.500454" lon="103.299552"><ele>2200.5532</ele><time>2026-02-18T17:43:20.000Z</time></trkpt>
        <trkpt lat="29.50047" lon="103.299601"><ele>2200.5405</ele><time>2026-02-18T17:43:26.000Z</time></trkpt>
        <trkpt lat="29.500498" lon="103.299643"><ele>2200.7163</ele><time>2026-02-18T17:43:31.000Z</time></trkpt>
        <trkpt lat="29.500525" lon="103.299697"><ele>2201.5852</ele><time>2026-02-18T17:43:41.000Z</time></trkpt>
        <trkpt lat="29.500542" lon="103.299745"><ele>2202.0557</ele><time>2026-02-18T17:43:48.000Z</time></trkpt>
        <trkpt lat="29.500579" lon="103.299777"><ele>2198.976</ele><time>2026-02-18T17:43:54.000Z</time></trkpt>
        <trkpt lat="29.500612" lon="103.29982"><ele>2199.1392</ele><time>2026-02-18T17:44:03.000Z</time></trkpt>
        <trkpt lat="29.500641" lon="103.299861"><ele>2202.671</ele><time>2026-02-18T17:44:59.000Z</time></trkpt>
        <trkpt lat="29.500678" lon="103.299888"><ele>2205.3684</ele><time>2026-02-18T17:45:15.000Z</time></trkpt>
        <trkpt lat="29.500714" lon="103.299925"><ele>2206.535</ele><time>2026-02-18T17:45:27.000Z</time></trkpt>
        <trkpt lat="29.500727" lon="103.299974"><ele>2202.858</ele><time>2026-02-18T17:45:44.000Z</time></trkpt>
        <trkpt lat="29.500749" lon="103.300017"><ele>2202.3193</ele><time>2026-02-18T17:45:52.000Z</time></trkpt>
        <trkpt lat="29.500788" lon="103.300011"><ele>2201.6638</ele><time>2026-02-18T17:45:57.000Z</time></trkpt>
        <trkpt lat="29.500838" lon="103.300019"><ele>2204.0007</ele><time>2026-02-18T17:46:03.000Z</time></trkpt>
        <trkpt lat="29.500882" lon="103.300044"><ele>2207.6663</ele><time>2026-02-18T17:46:09.000Z</time></trkpt>
        <trkpt lat="29.500911" lon="103.300087"><ele>2209.8704</ele><time>2026-02-18T17:46:16.000Z</time></trkpt>
        <trkpt lat="29.500951" lon="103.300108"><ele>2208.726</ele><time>2026-02-18T17:46:23.000Z</time></trkpt>
        <trkpt lat="29.501005" lon="103.300103"><ele>2206.1401</ele><time>2026-02-18T17:46:36.000Z</time></trkpt>
        <trkpt lat="29.501048" lon="103.300106"><ele>2206.5264</ele><time>2026-02-18T17:46:45.000Z</time></trkpt>
        <trkpt lat="29.501083" lon="103.300141"><ele>2206.781</ele><time>2026-02-18T17:46:53.000Z</time></trkpt>
        <trkpt lat="29.501125" lon="103.300174"><ele>2205.3574</ele><time>2026-02-18T17:47:00.000Z</time></trkpt>
        <trkpt lat="29.501167" lon="103.300185"><ele>2206.0198</ele><time>2026-02-18T17:47:05.000Z</time></trkpt>
        <trkpt lat="29.501214" lon="103.30019"><ele>2207.2263</ele><time>2026-02-18T17:47:10.000Z</time></trkpt>
        <trkpt lat="29.501263" lon="103.300207"><ele>2208.9521</ele><time>2026-02-18T17:47:17.000Z</time></trkpt>
        <trkpt lat="29.501299" lon="103.300247"><ele>2212.1963</ele><time>2026-02-18T17:47:27.000Z</time></trkpt>
        <trkpt lat="29.501349" lon="103.30025"><ele>2214.255</ele><time>2026-02-18T17:47:35.000Z</time></trkpt>
        <trkpt lat="29.501394" lon="103.300267"><ele>2214.2283</ele><time>2026-02-18T17:47:41.000Z</time></trkpt>
        <trkpt lat="29.501443" lon="103.300287"><ele>2211.4023</ele><time>2026-02-18T17:47:49.000Z</time></trkpt>
        <trkpt lat="29.501478" lon="103.300322"><ele>2210.8484</ele><time>2026-02-18T17:47:56.000Z</time></trkpt>
        <trkpt lat="29.501509" lon="103.300364"><ele>2212.8096</ele><time>2026-02-18T17:48:03.000Z</time></trkpt>
        <trkpt lat="29.50156" lon="103.300387"><ele>2214.4365</ele><time>2026-02-18T17:48:12.000Z</time></trkpt>
        <trkpt lat="29.501606" lon="103.300401"><ele>2213.062</ele><time>2026-02-18T17:48:21.000Z</time></trkpt>
        <trkpt lat="29.501657" lon="103.300415"><ele>2213.1765</ele><time>2026-02-18T17:48:30.000Z</time></trkpt>
        <trkpt lat="29.501692" lon="103.300441"><ele>2211.2163</ele><time>2026-02-18T17:48:35.000Z</time></trkpt>
        <trkpt lat="29.50173" lon="103.300492"><ele>2214.3904</ele><time>2026-02-18T17:48:45.000Z</time></trkpt>
        <trkpt lat="29.501758" lon="103.300532"><ele>2216.525</ele><time>2026-02-18T17:48:53.000Z</time></trkpt>
        <trkpt lat="29.5018" lon="103.30057"><ele>2215.9976</ele><time>2026-02-18T17:48:59.000Z</time></trkpt>
        <trkpt lat="29.501846" lon="103.3006"><ele>2216.465</ele><time>2026-02-18T17:49:05.000Z</time></trkpt>
        <trkpt lat="29.501884" lon="103.300637"><ele>2217.989</ele><time>2026-02-18T17:49:10.000Z</time></trkpt>
        <trkpt lat="29.501926" lon="103.300674"><ele>2217.1985</ele><time>2026-02-18T17:49:18.000Z</time></trkpt>
        <trkpt lat="29.501958" lon="103.300709"><ele>2214.852</ele><time>2026-02-18T17:49:24.000Z</time></trkpt>
        <trkpt lat="29.501979" lon="103.300763"><ele>2217.146</ele><time>2026-02-18T17:49:31.000Z</time></trkpt>
        <trkpt lat="29.502003" lon="103.300816"><ele>2217.778</ele><time>2026-02-18T17:49:38.000Z</time></trkpt>
        <trkpt lat="29.502022" lon="103.300872"><ele>2217.2695</ele><time>2026-02-18T17:49:44.000Z</time></trkpt>
        <trkpt lat="29.502042" lon="103.300925"><ele>2219.539</ele><time>2026-02-18T17:49:53.000Z</time></trkpt>
        <trkpt lat="29.502073" lon="103.300959"><ele>2219.7085</ele><time>2026-02-18T17:49:59.000Z</time></trkpt>
        <trkpt lat="29.502113" lon="103.301006"><ele>2219.915</ele><time>2026-02-18T17:50:08.000Z</time></trkpt>
        <trkpt lat="29.502145" lon="103.301048"><ele>2220.2744</ele><time>2026-02-18T17:50:17.000Z</time></trkpt>
        <trkpt lat="29.502185" lon="103.301075"><ele>2220.5586</ele><time>2026-02-18T17:50:28.000Z</time></trkpt>
        <trkpt lat="29.502225" lon="103.30111"><ele>2217.9036</ele><time>2026-02-18T17:50:47.000Z</time></trkpt>
        <trkpt lat="29.502268" lon="103.30111"><ele>2219.8318</ele><time>2026-02-18T17:51:02.000Z</time></trkpt>
        <trkpt lat="29.502315" lon="103.301093"><ele>2222.9763</ele><time>2026-02-18T17:51:14.000Z</time></trkpt>
        <trkpt lat="29.50236" lon="103.301111"><ele>2226.928</ele><time>2026-02-18T17:51:24.000Z</time></trkpt>
        <trkpt lat="29.502407" lon="103.301133"><ele>2227.824</ele><time>2026-02-18T17:51:32.000Z</time></trkpt>
        <trkpt lat="29.502452" lon="103.301153"><ele>2226.415</ele><time>2026-02-18T17:51:38.000Z</time></trkpt>
        <trkpt lat="29.502497" lon="103.301186"><ele>2225.6042</ele><time>2026-02-18T17:51:46.000Z</time></trkpt>
        <trkpt lat="29.50253" lon="103.30123"><ele>2226.975</ele><time>2026-02-18T17:51:57.000Z</time></trkpt>
        <trkpt lat="29.502562" lon="103.301268"><ele>2229.1223</ele><time>2026-02-18T17:52:06.000Z</time></trkpt>
        <trkpt lat="29.502597" lon="103.301299"><ele>2227.9854</ele><time>2026-02-18T17:52:13.000Z</time></trkpt>
        <trkpt lat="29.502634" lon="103.301334"><ele>2225.9229</ele><time>2026-02-18T17:52:18.000Z</time></trkpt>
        <trkpt lat="29.502684" lon="103.301357"><ele>2226.003</ele><time>2026-02-18T17:52:42.000Z</time></trkpt>
        <trkpt lat="29.502729" lon="103.301363"><ele>2226.9597</ele><time>2026-02-18T17:52:52.000Z</time></trkpt>
        <trkpt lat="29.502779" lon="103.301371"><ele>2226.2275</ele><time>2026-02-18T17:53:02.000Z</time></trkpt>
        <trkpt lat="29.502825" lon="103.301358"><ele>2232.789</ele><time>2026-02-18T17:53:22.000Z</time></trkpt>
        <trkpt lat="29.50287" lon="103.301366"><ele>2235.1187</ele><time>2026-02-18T17:53:35.000Z</time></trkpt>
        <trkpt lat="29.502919" lon="103.301369"><ele>2234.6287</ele><time>2026-02-18T17:53:48.000Z</time></trkpt>
        <trkpt lat="29.502963" lon="103.301383"><ele>2237.3872</ele><time>2026-02-18T17:54:44.000Z</time></trkpt>
        <trkpt lat="29.502999" lon="103.301409"><ele>2238.5955</ele><time>2026-02-18T17:54:55.000Z</time></trkpt>
        <trkpt lat="29.503053" lon="103.301421"><ele>2241.022</ele><time>2026-02-18T17:55:09.000Z</time></trkpt>
        <trkpt lat="29.503096" lon="103.301435"><ele>2242.552</ele><time>2026-02-18T17:55:19.000Z</time></trkpt>
        <trkpt lat="29.50314" lon="103.301445"><ele>2241.0342</ele><time>2026-02-18T17:55:25.000Z</time></trkpt>
        <trkpt lat="29.503188" lon="103.301422"><ele>2241.2896</ele><time>2026-02-18T17:55:32.000Z</time></trkpt>
        <trkpt lat="29.503223" lon="103.301455"><ele>2241.7917</ele><time>2026-02-18T17:55:39.000Z</time></trkpt>
        <trkpt lat="29.503257" lon="103.301489"><ele>2243.0647</ele><time>2026-02-18T17:55:44.000Z</time></trkpt>
        <trkpt lat="29.503297" lon="103.301531"><ele>2243.3877</ele><time>2026-02-18T17:55:56.000Z</time></trkpt>
        <trkpt lat="29.503334" lon="103.301564"><ele>2237.3774</ele><time>2026-02-18T17:56:21.000Z</time></trkpt>
        <trkpt lat="29.503351" lon="103.301614"><ele>2237.929</ele><time>2026-02-18T17:56:29.000Z</time></trkpt>
        <trkpt lat="29.50338" lon="103.301662"><ele>2236.998</ele><time>2026-02-18T17:56:39.000Z</time></trkpt>
        <trkpt lat="29.503414" lon="103.301698"><ele>2237.7769</ele><time>2026-02-18T17:56:50.000Z</time></trkpt>
        <trkpt lat="29.503462" lon="103.301714"><ele>2238.1243</ele><time>2026-02-18T17:56:57.000Z</time></trkpt>
        <trkpt lat="29.503438" lon="103.301754"><ele>2239.696</ele><time>2026-02-18T17:57:07.000Z</time></trkpt>
        <trkpt lat="29.503471" lon="103.301784"><ele>2243.5798</ele><time>2026-02-18T17:57:44.000Z</time></trkpt>
        <trkpt lat="29.503514" lon="103.301816"><ele>2243.804</ele><time>2026-02-18T17:58:10.000Z</time></trkpt>
        <trkpt lat="29.503565" lon="103.301827"><ele>2240.7473</ele><time>2026-02-18T17:58:23.000Z</time></trkpt>
        <trkpt lat="29.503614" lon="103.301833"><ele>2241.8481</ele><time>2026-02-18T17:58:39.000Z</time></trkpt>
        <trkpt lat="29.503638" lon="103.301877"><ele>2245.274</ele><time>2026-02-18T17:58:58.000Z</time></trkpt>
        <trkpt lat="29.503672" lon="103.301913"><ele>2249.351</ele><time>2026-02-18T17:59:31.000Z</time></trkpt>
        <trkpt lat="29.503705" lon="103.301958"><ele>2251.0781</ele><time>2026-02-18T17:59:45.000Z</time></trkpt>
        <trkpt lat="29.503751" lon="103.301976"><ele>2251.8677</ele><time>2026-02-18T18:00:02.000Z</time></trkpt>
        <trkpt lat="29.503781" lon="103.302015"><ele>2258.3745</ele><time>2026-02-18T18:00:59.000Z</time></trkpt>
        <trkpt lat="29.503821" lon="103.302045"><ele>2254.2778</ele><time>2026-02-18T18:01:39.000Z</time></trkpt>
        <trkpt lat="29.503869" lon="103.302041"><ele>2262.8596</ele><time>2026-02-18T18:02:13.000Z</time></trkpt>
        <trkpt lat="29.503912" lon="103.302023"><ele>2263.4983</ele><time>2026-02-18T18:02:33.000Z</time></trkpt>
        <trkpt lat="29.503959" lon="103.302043"><ele>2271.92</ele><time>2026-02-18T18:03:20.000Z</time></trkpt>
        <trkpt lat="29.50396" lon="103.302094"><ele>2271.9812</ele><time>2026-02-18T18:03:31.000Z</time></trkpt>
        <trkpt lat="29.504006" lon="103.302127"><ele>2270.9036</ele><time>2026-02-18T18:03:46.000Z</time></trkpt>
        <trkpt lat="29.504029" lon="103.302177"><ele>2271.0137</ele><time>2026-02-18T18:04:05.000Z</time></trkpt>
        <trkpt lat="29.504067" lon="103.302203"><ele>2273.869</ele><time>2026-02-18T18:04:17.000Z</time></trkpt>
        <trkpt lat="29.50407" lon="103.302255"><ele>2274.9248</ele><time>2026-02-18T18:04:38.000Z</time></trkpt>
        <trkpt lat="29.504087" lon="103.302304"><ele>2275.0747</ele><time>2026-02-18T18:04:51.000Z</time></trkpt>
        <trkpt lat="29.50413" lon="103.302332"><ele>2276.661</ele><time>2026-02-18T18:05:36.000Z</time></trkpt>
        <trkpt lat="29.504132" lon="103.302378"><ele>2276.092</ele><time>2026-02-18T18:05:44.000Z</time></trkpt>
        <trkpt lat="29.50417" lon="103.302415"><ele>2275.7346</ele><time>2026-02-18T18:05:52.000Z</time></trkpt>
        <trkpt lat="29.504221" lon="103.302418"><ele>2277.1826</ele><time>2026-02-18T18:06:10.000Z</time></trkpt>
        <trkpt lat="29.504265" lon="103.302443"><ele>2278.672</ele><time>2026-02-18T18:06:22.000Z</time></trkpt>
        <trkpt lat="29.504305" lon="103.30247"><ele>2279.404</ele><time>2026-02-18T18:06:28.000Z</time></trkpt>
        <trkpt lat="29.504338" lon="103.302513"><ele>2282.2778</ele><time>2026-02-18T18:06:37.000Z</time></trkpt>
        <trkpt lat="29.504356" lon="103.302567"><ele>2280.0774</ele><time>2026-02-18T18:06:53.000Z</time></trkpt>
        <trkpt lat="29.504382" lon="103.302607"><ele>2281.4177</ele><time>2026-02-18T18:07:01.000Z</time></trkpt>
        <trkpt lat="29.504415" lon="103.302665"><ele>2284.0103</ele><time>2026-02-18T18:07:14.000Z</time></trkpt>
        <trkpt lat="29.504442" lon="103.302713"><ele>2288.513</ele><time>2026-02-18T18:07:35.000Z</time></trkpt>
        <trkpt lat="29.504471" lon="103.302751"><ele>2286.4229</ele><time>2026-02-18T18:07:46.000Z</time></trkpt>
        <trkpt lat="29.5045" lon="103.302806"><ele>2287.0054</ele><time>2026-02-18T18:08:08.000Z</time></trkpt>
        <trkpt lat="29.504513" lon="103.302858"><ele>2291.7097</ele><time>2026-02-18T18:08:24.000Z</time></trkpt>
        <trkpt lat="29.504557" lon="103.302835"><ele>2293.8528</ele><time>2026-02-18T18:08:49.000Z</time></trkpt>
        <trkpt lat="29.504607" lon="103.302801"><ele>2289.6052</ele><time>2026-02-18T18:10:14.000Z</time></trkpt>
        <trkpt lat="29.504629" lon="103.302769"><ele>2289.7083</ele><time>2026-02-18T18:10:19.000Z</time></trkpt>
        <trkpt lat="29.504659" lon="103.302729"><ele>2290.7217</ele><time>2026-02-18T18:10:22.000Z</time></trkpt>
        <trkpt lat="29.504696" lon="103.302668"><ele>2292.0225</ele><time>2026-02-18T18:10:27.000Z</time></trkpt>
        <trkpt lat="29.504711" lon="103.302603"><ele>2291.465</ele><time>2026-02-18T18:10:33.000Z</time></trkpt>
        <trkpt lat="29.504712" lon="103.302554"><ele>2290.5938</ele><time>2026-02-18T18:10:37.000Z</time></trkpt>
        <trkpt lat="29.504703" lon="103.302492"><ele>2289.554</ele><time>2026-02-18T18:10:43.000Z</time></trkpt>
        <trkpt lat="29.504728" lon="103.302459"><ele>2290.366</ele><time>2026-02-18T18:10:48.000Z</time></trkpt>
        <trkpt lat="29.504713" lon="103.302417"><ele>2291.147</ele><time>2026-02-18T18:10:54.000Z</time></trkpt>
        <trkpt lat="29.504668" lon="103.302387"><ele>2292.063</ele><time>2026-02-18T18:11:00.000Z</time></trkpt>
        <trkpt lat="29.504625" lon="103.30235"><ele>2291.467</ele><time>2026-02-18T18:11:34.000Z</time></trkpt>
        <trkpt lat="29.504585" lon="103.302333"><ele>2290.8445</ele><time>2026-02-18T18:11:40.000Z</time></trkpt>
        <trkpt lat="29.504536" lon="103.302299"><ele>2290.4014</ele><time>2026-02-18T18:11:47.000Z</time></trkpt>
        <trkpt lat="29.504505" lon="103.302343"><ele>2289.1768</ele><time>2026-02-18T18:12:15.000Z</time></trkpt>
        <trkpt lat="29.504558" lon="103.302324"><ele>2286.3882</ele><time>2026-02-18T18:12:36.000Z</time></trkpt>
        <trkpt lat="29.504597" lon="103.302345"><ele>2287.337</ele><time>2026-02-18T18:12:42.000Z</time></trkpt>
        <trkpt lat="29.504642" lon="103.302381"><ele>2288.2593</ele><time>2026-02-18T18:12:48.000Z</time></trkpt>
        <trkpt lat="29.504674" lon="103.302416"><ele>2289.68</ele><time>2026-02-18T18:12:52.000Z</time></trkpt>
        <trkpt lat="29.504712" lon="103.302466"><ele>2290.8262</ele><time>2026-02-18T18:12:57.000Z</time></trkpt>
        <trkpt lat="29.504727" lon="103.302519"><ele>2291.0056</ele><time>2026-02-18T18:13:02.000Z</time></trkpt>
        <trkpt lat="29.504728" lon="103.302571"><ele>2291.4302</ele><time>2026-02-18T18:13:06.000Z</time></trkpt>
        <trkpt lat="29.504717" lon="103.302638"><ele>2290.4087</ele><time>2026-02-18T18:13:13.000Z</time></trkpt>
        <trkpt lat="29.504698" lon="103.302693"><ele>2291.0332</ele><time>2026-02-18T18:13:20.000Z</time></trkpt>
        <trkpt lat="29.504667" lon="103.302731"><ele>2291.0022</ele><time>2026-02-18T18:13:27.000Z</time></trkpt>
        <trkpt lat="29.504639" lon="103.302773"><ele>2291.5815</ele><time>2026-02-18T18:13:32.000Z</time></trkpt>
        <trkpt lat="29.504602" lon="103.30281"><ele>2292.574</ele><time>2026-02-18T18:13:38.000Z</time></trkpt>
        <trkpt lat="29.504562" lon="103.302847"><ele>2294.4045</ele><time>2026-02-18T18:13:46.000Z</time></trkpt>
        <trkpt lat="29.504554" lon="103.302791"><ele>2294.7087</ele><time>2026-02-18T18:19:23.000Z</time></trkpt>
        <trkpt lat="29.504477" lon="103.302727"><ele>2294.9148</ele><time>2026-02-18T18:19:44.000Z</time></trkpt>
        <trkpt lat="29.504503" lon="103.302683"><ele>2294.1968</ele><time>2026-02-18T18:19:49.000Z</time></trkpt>
        <trkpt lat="29.504506" lon="103.302698"><ele>2294.4326</ele><time>2026-02-18T18:19:50.000Z</time></trkpt>
        <trkpt lat="29.504509" lon="103.302739"><ele>2293.6094</ele><time>2026-02-18T18:19:53.000Z</time></trkpt>
        <trkpt lat="29.504531" lon="103.302797"><ele>2294.3047</ele><time>2026-02-18T18:19:57.000Z</time></trkpt>
        <trkpt lat="29.504571" lon="103.302863"><ele>2295.778</ele><time>2026-02-18T18:28:00.000Z</time></trkpt>
        <trkpt lat="29.504568" lon="103.302803"><ele>2294.5466</ele><time>2026-02-18T18:32:53.000Z</time></trkpt>
        <trkpt lat="29.504604" lon="103.302864"><ele>2289.432</ele><time>2026-02-18T18:34:50.000Z</time></trkpt>
        <trkpt lat="29.504551" lon="103.30288"><ele>2297.954</ele><time>2026-02-18T18:37:05.000Z</time></trkpt>
        <trkpt lat="29.50455" lon="103.302809"><ele>2301.3574</ele><time>2026-02-18T18:37:32.000Z</time></trkpt>
        <trkpt lat="29.504577" lon="103.302849"><ele>2296.4387</ele><time>2026-02-18T18:39:21.000Z</time></trkpt>
        <trkpt lat="29.504559" lon="103.3029"><ele>2297.1936</ele><time>2026-02-18T18:39:27.000Z</time></trkpt>
        <trkpt lat="29.504532" lon="103.302947"><ele>2298.8555</ele><time>2026-02-18T18:39:33.000Z</time></trkpt>
        <trkpt lat="29.504518" lon="103.303002"><ele>2299.217</ele><time>2026-02-18T18:39:40.000Z</time></trkpt>
        <trkpt lat="29.504488" lon="103.303047"><ele>2301.601</ele><time>2026-02-18T18:40:08.000Z</time></trkpt>
        <trkpt lat="29.504463" lon="103.303088"><ele>2301.7576</ele><time>2026-02-18T18:40:19.000Z</time></trkpt>
        <trkpt lat="29.504453" lon="103.303143"><ele>2302.1711</ele><time>2026-02-18T18:40:26.000Z</time></trkpt>
        <trkpt lat="29.504436" lon="103.303205"><ele>2304.7236</ele><time>2026-02-18T18:40:41.000Z</time></trkpt>
        <trkpt lat="29.504456" lon="103.303256"><ele>2304.4912</ele><time>2026-02-18T18:40:49.000Z</time></trkpt>
        <trkpt lat="29.50448" lon="103.303309"><ele>2305.607</ele><time>2026-02-18T18:40:58.000Z</time></trkpt>
        <trkpt lat="29.50453" lon="103.303303"><ele>2310.1472</ele><time>2026-02-18T18:41:18.000Z</time></trkpt>
        <trkpt lat="29.50458" lon="103.303285"><ele>2310.0488</ele><time>2026-02-18T18:41:26.000Z</time></trkpt>
        <trkpt lat="29.504627" lon="103.303262"><ele>2309.3264</ele><time>2026-02-18T18:41:39.000Z</time></trkpt>
        <trkpt lat="29.504667" lon="103.303242"><ele>2309.0835</ele><time>2026-02-18T18:41:47.000Z</time></trkpt>
        <trkpt lat="29.504719" lon="103.303219"><ele>2308.4285</ele><time>2026-02-18T18:41:56.000Z</time></trkpt>
        <trkpt lat="29.504761" lon="103.303193"><ele>2312.273</ele><time>2026-02-18T18:42:11.000Z</time></trkpt>
        <trkpt lat="29.504806" lon="103.303174"><ele>2313.7466</ele><time>2026-02-18T18:42:21.000Z</time></trkpt>
        <trkpt lat="29.504849" lon="103.303149"><ele>2313.9116</ele><time>2026-02-18T18:42:32.000Z</time></trkpt>
        <trkpt lat="29.504901" lon="103.303145"><ele>2314.2512</ele><time>2026-02-18T18:42:51.000Z</time></trkpt>
        <trkpt lat="29.504941" lon="103.303137"><ele>2314.2915</ele><time>2026-02-18T18:42:58.000Z</time></trkpt>
        <trkpt lat="29.504988" lon="103.303119"><ele>2315.6758</ele><time>2026-02-18T18:43:05.000Z</time></trkpt>
        <trkpt lat="29.505037" lon="103.303105"><ele>2317.0574</ele><time>2026-02-18T18:43:13.000Z</time></trkpt>
        <trkpt lat="29.505081" lon="103.303121"><ele>2318.2263</ele><time>2026-02-18T18:43:22.000Z</time></trkpt>
        <trkpt lat="29.505127" lon="103.303133"><ele>2319.8972</ele><time>2026-02-18T18:43:31.000Z</time></trkpt>
        <trkpt lat="29.505163" lon="103.303169"><ele>2319.896</ele><time>2026-02-18T18:43:42.000Z</time></trkpt>
        <trkpt lat="29.505181" lon="103.30322"><ele>2321.2466</ele><time>2026-02-18T18:43:53.000Z</time></trkpt>
        <trkpt lat="29.505194" lon="103.303274"><ele>2323.8953</ele><time>2026-02-18T18:44:04.000Z</time></trkpt>
        <trkpt lat="29.505201" lon="103.303323"><ele>2323.7705</ele><time>2026-02-18T18:44:12.000Z</time></trkpt>
        <trkpt lat="29.505213" lon="103.30338"><ele>2324.5642</ele><time>2026-02-18T18:44:23.000Z</time></trkpt>
        <trkpt lat="29.505224" lon="103.30343"><ele>2325.1265</ele><time>2026-02-18T18:44:32.000Z</time></trkpt>
        <trkpt lat="29.505239" lon="103.303484"><ele>2327.9736</ele><time>2026-02-18T18:44:45.000Z</time></trkpt>
        <trkpt lat="29.505247" lon="103.303537"><ele>2327.837</ele><time>2026-02-18T18:44:56.000Z</time></trkpt>
        <trkpt lat="29.505287" lon="103.30357"><ele>2330.2798</ele><time>2026-02-18T18:45:06.000Z</time></trkpt>
        <trkpt lat="29.505328" lon="103.3036"><ele>2331.1953</ele><time>2026-02-18T18:45:16.000Z</time></trkpt>
        <trkpt lat="29.505369" lon="103.303626"><ele>2332.9275</ele><time>2026-02-18T18:45:31.000Z</time></trkpt>
        <trkpt lat="29.505406" lon="103.303657"><ele>2332.7542</ele><time>2026-02-18T18:45:46.000Z</time></trkpt>
        <trkpt lat="29.505442" lon="103.303688"><ele>2331.5088</ele><time>2026-02-18T18:45:57.000Z</time></trkpt>
        <trkpt lat="29.505479" lon="103.303738"><ele>2332.8125</ele><time>2026-02-18T18:46:06.000Z</time></trkpt>
        <trkpt lat="29.505489" lon="103.303788"><ele>2334.889</ele><time>2026-02-18T18:46:11.000Z</time></trkpt>
        <trkpt lat="29.50548" lon="103.303847"><ele>2338.3179</ele><time>2026-02-18T18:46:18.000Z</time></trkpt>
        <trkpt lat="29.505481" lon="103.303903"><ele>2342.8196</ele><time>2026-02-18T18:46:51.000Z</time></trkpt>
        <trkpt lat="29.505442" lon="103.30393"><ele>2342.672</ele><time>2026-02-18T18:47:07.000Z</time></trkpt>
        <trkpt lat="29.505401" lon="103.303963"><ele>2342.2039</ele><time>2026-02-18T18:47:17.000Z</time></trkpt>
        <trkpt lat="29.505379" lon="103.304005"><ele>2342.821</ele><time>2026-02-18T18:47:25.000Z</time></trkpt>
        <trkpt lat="29.505362" lon="103.30406"><ele>2342.0933</ele><time>2026-02-18T18:47:35.000Z</time></trkpt>
        <trkpt lat="29.505354" lon="103.304106"><ele>2341.3057</ele><time>2026-02-18T18:47:40.000Z</time></trkpt>
        <trkpt lat="29.505337" lon="103.304168"><ele>2340.6206</ele><time>2026-02-18T18:47:56.000Z</time></trkpt>
        <trkpt lat="29.505309" lon="103.304205"><ele>2345.044</ele><time>2026-02-18T18:48:07.000Z</time></trkpt>
        <trkpt lat="29.505294" lon="103.30426"><ele>2346.4768</ele><time>2026-02-18T18:48:16.000Z</time></trkpt>
        <trkpt lat="29.505275" lon="103.304308"><ele>2348.3408</ele><time>2026-02-18T18:48:24.000Z</time></trkpt>
        <trkpt lat="29.50526" lon="103.304362"><ele>2349.713</ele><time>2026-02-18T18:48:37.000Z</time></trkpt>
        <trkpt lat="29.505237" lon="103.304402"><ele>2351.8167</ele><time>2026-02-18T18:48:44.000Z</time></trkpt>
        <trkpt lat="29.505189" lon="103.304434"><ele>2351.2334</ele><time>2026-02-18T18:49:00.000Z</time></trkpt>
        <trkpt lat="29.505152" lon="103.304458"><ele>2352.0056</ele><time>2026-02-18T18:49:07.000Z</time></trkpt>
        <trkpt lat="29.505105" lon="103.304471"><ele>2352.3271</ele><time>2026-02-18T18:49:14.000Z</time></trkpt>
        <trkpt lat="29.505058" lon="103.304476"><ele>2353.4475</ele><time>2026-02-18T18:49:21.000Z</time></trkpt>
        <trkpt lat="29.505019" lon="103.304506"><ele>2355.6074</ele><time>2026-02-18T18:49:26.000Z</time></trkpt>
        <trkpt lat="29.505027" lon="103.304568"><ele>2353.3289</ele><time>2026-02-18T18:50:02.000Z</time></trkpt>
        <trkpt lat="29.505031" lon="103.304621"><ele>2352.616</ele><time>2026-02-18T18:50:17.000Z</time></trkpt>
        <trkpt lat="29.505031" lon="103.304689"><ele>2353.951</ele><time>2026-02-18T18:50:48.000Z</time></trkpt>
        <trkpt lat="29.505048" lon="103.304734"><ele>2353.7302</ele><time>2026-02-18T18:50:59.000Z</time></trkpt>
        <trkpt lat="29.505076" lon="103.304788"><ele>2356.02</ele><time>2026-02-18T18:51:10.000Z</time></trkpt>
        <trkpt lat="29.505083" lon="103.304841"><ele>2357.5483</ele><time>2026-02-18T18:51:17.000Z</time></trkpt>
        <trkpt lat="29.50507" lon="103.304893"><ele>2359.1265</ele><time>2026-02-18T18:51:21.000Z</time></trkpt>
        <trkpt lat="29.505086" lon="103.304963"><ele>2360.443</ele><time>2026-02-18T18:51:35.000Z</time></trkpt>
        <trkpt lat="29.505067" lon="103.304997"><ele>2359.3787</ele><time>2026-02-18T18:51:42.000Z</time></trkpt>
        <trkpt lat="29.505072" lon="103.305056"><ele>2357.6604</ele><time>2026-02-18T18:52:02.000Z</time></trkpt>
        <trkpt lat="29.505056" lon="103.305104"><ele>2357.214</ele><time>2026-02-18T18:52:19.000Z</time></trkpt>
        <trkpt lat="29.505013" lon="103.305085"><ele>2353.944</ele><time>2026-02-18T18:54:02.000Z</time></trkpt>
        <trkpt lat="29.504992" lon="103.305136"><ele>2351.6777</ele><time>2026-02-18T18:54:45.000Z</time></trkpt>
        <trkpt lat="29.505029" lon="103.305171"><ele>2355.1682</ele><time>2026-02-18T18:55:54.000Z</time></trkpt>
        <trkpt lat="29.505006" lon="103.305217"><ele>2357.3452</ele><time>2026-02-18T18:56:37.000Z</time></trkpt>
        <trkpt lat="29.504978" lon="103.305259"><ele>2357.8633</ele><time>2026-02-18T18:56:42.000Z</time></trkpt>
        <trkpt lat="29.504928" lon="103.305281"><ele>2360.3616</ele><time>2026-02-18T18:56:54.000Z</time></trkpt>
        <trkpt lat="29.504889" lon="103.305301"><ele>2361.5828</ele><time>2026-02-18T18:57:01.000Z</time></trkpt>
        <trkpt lat="29.504845" lon="103.305321"><ele>2367.0547</ele><time>2026-02-18T18:57:09.000Z</time></trkpt>
        <trkpt lat="29.504825" lon="103.305367"><ele>2367.7666</ele><time>2026-02-18T18:57:15.000Z</time></trkpt>
        <trkpt lat="29.504812" lon="103.305427"><ele>2366.4458</ele><time>2026-02-18T18:57:21.000Z</time></trkpt>
        <trkpt lat="29.504828" lon="103.305487"><ele>2365.3135</ele><time>2026-02-18T18:57:29.000Z</time></trkpt>
        <trkpt lat="29.504832" lon="103.305543"><ele>2365.1277</ele><time>2026-02-18T18:57:36.000Z</time></trkpt>
        <trkpt lat="29.504809" lon="103.305596"><ele>2365.5576</ele><time>2026-02-18T18:57:41.000Z</time></trkpt>
        <trkpt lat="29.504771" lon="103.305647"><ele>2364.8362</ele><time>2026-02-18T18:57:53.000Z</time></trkpt>
        <trkpt lat="29.50474" lon="103.305683"><ele>2364.4229</ele><time>2026-02-18T18:58:01.000Z</time></trkpt>
        <trkpt lat="29.504731" lon="103.30574"><ele>2358.9553</ele><time>2026-02-18T19:00:36.000Z</time></trkpt>
        <trkpt lat="29.504697" lon="103.305765"><ele>2362.5703</ele><time>2026-02-18T19:00:48.000Z</time></trkpt>
        <trkpt lat="29.504688" lon="103.305822"><ele>2363.6877</ele><time>2026-02-18T19:01:02.000Z</time></trkpt>
        <trkpt lat="29.504691" lon="103.30588"><ele>2362.4146</ele><time>2026-02-18T19:01:16.000Z</time></trkpt>
        <trkpt lat="29.504698" lon="103.305941"><ele>2362.8142</ele><time>2026-02-18T19:01:48.000Z</time></trkpt>
        <trkpt lat="29.504679" lon="103.305987"><ele>2361.857</ele><time>2026-02-18T19:02:11.000Z</time></trkpt>
        <trkpt lat="29.504719" lon="103.30602"><ele>2365.7412</ele><time>2026-02-18T19:02:31.000Z</time></trkpt>
        <trkpt lat="29.504711" lon="103.306073"><ele>2370.7188</ele><time>2026-02-18T19:03:01.000Z</time></trkpt>
        <trkpt lat="29.504692" lon="103.306123"><ele>2369.0464</ele><time>2026-02-18T19:03:21.000Z</time></trkpt>
        <trkpt lat="29.504694" lon="103.306173"><ele>2370.4463</ele><time>2026-02-18T19:03:27.000Z</time></trkpt>
        <trkpt lat="29.50467" lon="103.306227"><ele>2372.5361</ele><time>2026-02-18T19:04:07.000Z</time></trkpt>
        <trkpt lat="29.504659" lon="103.306277"><ele>2370.5154</ele><time>2026-02-18T19:04:28.000Z</time></trkpt>
        <trkpt lat="29.504632" lon="103.306322"><ele>2374.8887</ele><time>2026-02-18T19:04:54.000Z</time></trkpt>
        <trkpt lat="29.504612" lon="103.306368"><ele>2376.2688</ele><time>2026-02-18T19:05:21.000Z</time></trkpt>
        <trkpt lat="29.504588" lon="103.306414"><ele>2376.5364</ele><time>2026-02-18T19:06:00.000Z</time></trkpt>
        <trkpt lat="29.504558" lon="103.306468"><ele>2382.045</ele><time>2026-02-18T19:06:34.000Z</time></trkpt>
        <trkpt lat="29.504519" lon="103.306496"><ele>2383.9116</ele><time>2026-02-18T19:06:50.000Z</time></trkpt>
        <trkpt lat="29.504482" lon="103.306547"><ele>2385.5386</ele><time>2026-02-18T19:07:26.000Z</time></trkpt>
        <trkpt lat="29.504436" lon="103.306551"><ele>2387.3389</ele><time>2026-02-18T19:07:48.000Z</time></trkpt>
        <trkpt lat="29.504392" lon="103.306578"><ele>2394.426</ele><time>2026-02-18T19:08:19.000Z</time></trkpt>
        <trkpt lat="29.504369" lon="103.306626"><ele>2394.275</ele><time>2026-02-18T19:08:55.000Z</time></trkpt>
        <trkpt lat="29.504352" lon="103.306675"><ele>2397.1875</ele><time>2026-02-18T19:09:27.000Z</time></trkpt>
        <trkpt lat="29.504308" lon="103.306687"><ele>2399.774</ele><time>2026-02-18T19:09:44.000Z</time></trkpt>
        <trkpt lat="29.504316" lon="103.306735"><ele>2401.2014</ele><time>2026-02-18T19:09:58.000Z</time></trkpt>
        <trkpt lat="29.50429" lon="103.306783"><ele>2410.3325</ele><time>2026-02-18T19:11:23.000Z</time></trkpt>
        <trkpt lat="29.504258" lon="103.306819"><ele>2411.3103</ele><time>2026-02-18T19:11:33.000Z</time></trkpt>
        <trkpt lat="29.50422" lon="103.306863"><ele>2409.6553</ele><time>2026-02-18T19:12:23.000Z</time></trkpt>
        <trkpt lat="29.504201" lon="103.306911"><ele>2410.56</ele><time>2026-02-18T19:13:07.000Z</time></trkpt>
        <trkpt lat="29.50417" lon="103.306956"><ele>2411.8162</ele><time>2026-02-18T19:13:21.000Z</time></trkpt>
        <trkpt lat="29.504153" lon="103.307006"><ele>2413.0317</ele><time>2026-02-18T19:13:46.000Z</time></trkpt>
        <trkpt lat="29.504113" lon="103.307043"><ele>2419.938</ele><time>2026-02-18T19:14:18.000Z</time></trkpt>
        <trkpt lat="29.504066" lon="103.307092"><ele>2425.6807</ele><time>2026-02-18T19:15:25.000Z</time></trkpt>
        <trkpt lat="29.504035" lon="103.307086"><ele>2424.461</ele><time>2026-02-18T19:15:29.000Z</time></trkpt>
        <trkpt lat="29.504052" lon="103.307126"><ele>2418.2637</ele><time>2026-02-18T19:15:45.000Z</time></trkpt>
        <trkpt lat="29.504024" lon="103.307168"><ele>2416.4346</ele><time>2026-02-18T19:16:03.000Z</time></trkpt>
        <trkpt lat="29.50399" lon="103.307207"><ele>2424.6804</ele><time>2026-02-18T19:16:40.000Z</time></trkpt>
        <trkpt lat="29.504016" lon="103.307253"><ele>2426.5613</ele><time>2026-02-18T19:16:59.000Z</time></trkpt>
        <trkpt lat="29.503998" lon="103.307301"><ele>2428.1072</ele><time>2026-02-18T19:17:40.000Z</time></trkpt>
        <trkpt lat="29.503953" lon="103.307322"><ele>2425.293</ele><time>2026-02-18T19:17:55.000Z</time></trkpt>
        <trkpt lat="29.503966" lon="103.307373"><ele>2431.456</ele><time>2026-02-18T19:18:36.000Z</time></trkpt>
        <trkpt lat="29.503992" lon="103.307417"><ele>2435.1736</ele><time>2026-02-18T19:18:56.000Z</time></trkpt>
        <trkpt lat="29.503975" lon="103.30747"><ele>2440.1392</ele><time>2026-02-18T19:19:35.000Z</time></trkpt>
        <trkpt lat="29.503921" lon="103.307445"><ele>2436.8306</ele><time>2026-02-18T19:20:01.000Z</time></trkpt>
        <trkpt lat="29.503898" lon="103.307456"><ele>2436.9258</ele><time>2026-02-18T19:20:02.000Z</time></trkpt>
        <trkpt lat="29.503843" lon="103.307464"><ele>2436.5293</ele><time>2026-02-18T19:20:04.000Z</time></trkpt>
        <trkpt lat="29.503866" lon="103.307478"><ele>2433.6816</ele><time>2026-02-18T19:20:08.000Z</time></trkpt>
        <trkpt lat="29.503931" lon="103.307476"><ele>2433.3215</ele><time>2026-02-18T19:20:15.000Z</time></trkpt>
        <trkpt lat="29.503968" lon="103.307444"><ele>2433.2156</ele><time>2026-02-18T19:20:17.000Z</time></trkpt>
        <trkpt lat="29.503961" lon="103.307439"><ele>2433.3552</ele><time>2026-02-18T19:20:21.000Z</time></trkpt>
        <trkpt lat="29.503916" lon="103.307429"><ele>2432.8857</ele><time>2026-02-18T19:20:23.000Z</time></trkpt>
        <trkpt lat="29.503925" lon="103.307425"><ele>2432.1187</ele><time>2026-02-18T19:20:27.000Z</time></trkpt>
        <trkpt lat="29.503948" lon="103.307446"><ele>2431.7825</ele><time>2026-02-18T19:20:29.000Z</time></trkpt>
        <trkpt lat="29.503934" lon="103.307464"><ele>2432.1743</ele><time>2026-02-18T19:20:34.000Z</time></trkpt>
        <trkpt lat="29.503946" lon="103.307466"><ele>2433.2532</ele><time>2026-02-18T19:20:35.000Z</time></trkpt>
        <trkpt lat="29.503911" lon="103.307462"><ele>2434.9355</ele><time>2026-02-18T19:20:39.000Z</time></trkpt>
        <trkpt lat="29.503862" lon="103.307459"><ele>2434.077</ele><time>2026-02-18T19:20:41.000Z</time></trkpt>
        <trkpt lat="29.503793" lon="103.30747"><ele>2433.2048</ele><time>2026-02-18T19:20:45.000Z</time></trkpt>
        <trkpt lat="29.503751" lon="103.307463"><ele>2433.7766</ele><time>2026-02-18T19:20:47.000Z</time></trkpt>
        <trkpt lat="29.503751" lon="103.307461"><ele>2436.5625</ele><time>2026-02-18T19:20:50.000Z</time></trkpt>
        <trkpt lat="29.50379" lon="103.307503"><ele>2443.7285</ele><time>2026-02-18T19:20:58.000Z</time></trkpt>
        <trkpt lat="29.503799" lon="103.307563"><ele>2447.3975</ele><time>2026-02-18T19:21:33.000Z</time></trkpt>
        <trkpt lat="29.503823" lon="103.307584"><ele>2446.5354</ele><time>2026-02-18T19:21:37.000Z</time></trkpt>
        <trkpt lat="29.5038" lon="103.307593"><ele>2446.953</ele><time>2026-02-18T19:21:41.000Z</time></trkpt>
        <trkpt lat="29.503828" lon="103.307572"><ele>2457.3372</ele><time>2026-02-18T19:24:06.000Z</time></trkpt>
        <trkpt lat="29.503825" lon="103.307622"><ele>2460.836</ele><time>2026-02-18T19:24:29.000Z</time></trkpt>
        <trkpt lat="29.503818" lon="103.307679"><ele>2462.45</ele><time>2026-02-18T19:25:00.000Z</time></trkpt>
        <trkpt lat="29.503823" lon="103.30773"><ele>2463.7185</ele><time>2026-02-18T19:25:36.000Z</time></trkpt>
        <trkpt lat="29.503828" lon="103.307804"><ele>2468.65</ele><time>2026-02-18T19:26:18.000Z</time></trkpt>
        <trkpt lat="29.50381" lon="103.307851"><ele>2468.6768</ele><time>2026-02-18T19:26:54.000Z</time></trkpt>
        <trkpt lat="29.503793" lon="103.3079"><ele>2470.4414</ele><time>2026-02-18T19:27:15.000Z</time></trkpt>
        <trkpt lat="29.503778" lon="103.307954"><ele>2469.7598</ele><time>2026-02-18T19:27:36.000Z</time></trkpt>
        <trkpt lat="29.503779" lon="103.308009"><ele>2472.525</ele><time>2026-02-18T19:28:08.000Z</time></trkpt>
        <trkpt lat="29.50375" lon="103.308047"><ele>2475.2302</ele><time>2026-02-18T19:28:26.000Z</time></trkpt>
        <trkpt lat="29.503716" lon="103.308085"><ele>2480.3938</ele><time>2026-02-18T19:29:03.000Z</time></trkpt>
        <trkpt lat="29.5037" lon="103.308134"><ele>2480.7559</ele><time>2026-02-18T19:30:52.000Z</time></trkpt>
        <trkpt lat="29.503729" lon="103.308095"><ele>2486.4573</ele><time>2026-02-18T19:33:25.000Z</time></trkpt>
        <trkpt lat="29.503692" lon="103.308123"><ele>2483.2554</ele><time>2026-02-18T19:33:50.000Z</time></trkpt>
        <trkpt lat="29.503679" lon="103.308173"><ele>2482.1628</ele><time>2026-02-18T19:34:06.000Z</time></trkpt>
        <trkpt lat="29.503704" lon="103.308221"><ele>2484.689</ele><time>2026-02-18T19:34:25.000Z</time></trkpt>
        <trkpt lat="29.503656" lon="103.308224"><ele>2483.167</ele><time>2026-02-18T19:34:42.000Z</time></trkpt>
        <trkpt lat="29.503622" lon="103.308264"><ele>2485.7356</ele><time>2026-02-18T19:35:03.000Z</time></trkpt>
        <trkpt lat="29.503649" lon="103.308307"><ele>2495.577</ele><time>2026-02-18T19:35:24.000Z</time></trkpt>
        <trkpt lat="29.503606" lon="103.308312"><ele>2497.4338</ele><time>2026-02-18T19:35:42.000Z</time></trkpt>
        <trkpt lat="29.503556" lon="103.308302"><ele>2502.849</ele><time>2026-02-18T19:36:20.000Z</time></trkpt>
        <trkpt lat="29.503511" lon="103.308319"><ele>2500.6895</ele><time>2026-02-18T19:36:51.000Z</time></trkpt>
        <trkpt lat="29.503509" lon="103.308368"><ele>2498.328</ele><time>2026-02-18T19:37:02.000Z</time></trkpt>
        <trkpt lat="29.5035" lon="103.308423"><ele>2502.2258</ele><time>2026-02-18T19:37:24.000Z</time></trkpt>
        <trkpt lat="29.503515" lon="103.308473"><ele>2500.3103</ele><time>2026-02-18T19:37:49.000Z</time></trkpt>
        <trkpt lat="29.503513" lon="103.308525"><ele>2505.549</ele><time>2026-02-18T19:38:13.000Z</time></trkpt>
        <trkpt lat="29.503539" lon="103.30857"><ele>2509.7808</ele><time>2026-02-18T19:39:11.000Z</time></trkpt>
        <trkpt lat="29.503544" lon="103.30862"><ele>2507.6445</ele><time>2026-02-18T19:39:26.000Z</time></trkpt>
        <trkpt lat="29.503579" lon="103.308662"><ele>2512.5405</ele><time>2026-02-18T19:39:43.000Z</time></trkpt>
        <trkpt lat="29.503578" lon="103.308715"><ele>2516.473</ele><time>2026-02-18T19:40:09.000Z</time></trkpt>
        <trkpt lat="29.503601" lon="103.308759"><ele>2515.2078</ele><time>2026-02-18T19:40:25.000Z</time></trkpt>
        <trkpt lat="29.503615" lon="103.308816"><ele>2523.8313</ele><time>2026-02-18T19:41:33.000Z</time></trkpt>
        <trkpt lat="29.503609" lon="103.308867"><ele>2520.322</ele><time>2026-02-18T19:41:46.000Z</time></trkpt>
        <trkpt lat="29.503574" lon="103.308908"><ele>2517.8303</ele><time>2026-02-18T19:42:06.000Z</time></trkpt>
        <trkpt lat="29.503555" lon="103.308954"><ele>2521.327</ele><time>2026-02-18T19:42:27.000Z</time></trkpt>
        <trkpt lat="29.503579" lon="103.309002"><ele>2526.0532</ele><time>2026-02-18T19:42:41.000Z</time></trkpt>
        <trkpt lat="29.503594" lon="103.309052"><ele>2529.384</ele><time>2026-02-18T19:43:07.000Z</time></trkpt>
        <trkpt lat="29.503591" lon="103.309104"><ele>2535.582</ele><time>2026-02-18T19:43:34.000Z</time></trkpt>
        <trkpt lat="29.503583" lon="103.309156"><ele>2538.2961</ele><time>2026-02-18T19:44:13.000Z</time></trkpt>
        <trkpt lat="29.503571" lon="103.309207"><ele>2537.3062</ele><time>2026-02-18T19:44:37.000Z</time></trkpt>
        <trkpt lat="29.503562" lon="103.309263"><ele>2543.1553</ele><time>2026-02-18T19:45:34.000Z</time></trkpt>
        <trkpt lat="29.503564" lon="103.309315"><ele>2545.5808</ele><time>2026-02-18T19:45:46.000Z</time></trkpt>
        <trkpt lat="29.503564" lon="103.309376"><ele>2546.4292</ele><time>2026-02-18T19:45:57.000Z</time></trkpt>
        <trkpt lat="29.503561" lon="103.309429"><ele>2546.5974</ele><time>2026-02-18T19:46:37.000Z</time></trkpt>
        <trkpt lat="29.503561" lon="103.30948"><ele>2546.0227</ele><time>2026-02-18T19:46:49.000Z</time></trkpt>
        <trkpt lat="29.503552" lon="103.309535"><ele>2547.3767</ele><time>2026-02-18T19:47:13.000Z</time></trkpt>
        <trkpt lat="29.503571" lon="103.30958"><ele>2547.1553</ele><time>2026-02-18T19:47:32.000Z</time></trkpt>
        <trkpt lat="29.503536" lon="103.30962"><ele>2543.7573</ele><time>2026-02-18T19:47:51.000Z</time></trkpt>
        <trkpt lat="29.503544" lon="103.309672"><ele>2546.5044</ele><time>2026-02-18T19:48:29.000Z</time></trkpt>
        <trkpt lat="29.503509" lon="103.30971"><ele>2548.8289</ele><time>2026-02-18T19:48:41.000Z</time></trkpt>
        <trkpt lat="29.503486" lon="103.30976"><ele>2552.2126</ele><time>2026-02-18T19:49:28.000Z</time></trkpt>
        <trkpt lat="29.503448" lon="103.309798"><ele>2557.331</ele><time>2026-02-18T19:49:55.000Z</time></trkpt>
        <trkpt lat="29.503409" lon="103.309834"><ele>2566.9734</ele><time>2026-02-18T19:50:48.000Z</time></trkpt>
        <trkpt lat="29.503367" lon="103.309849"><ele>2568.1555</ele><time>2026-02-18T19:51:03.000Z</time></trkpt>
        <trkpt lat="29.503396" lon="103.309882"><ele>2564.8586</ele><time>2026-02-18T19:51:15.000Z</time></trkpt>
        <trkpt lat="29.503417" lon="103.309933"><ele>2562.1084</ele><time>2026-02-18T19:51:23.000Z</time></trkpt>
        <trkpt lat="29.503392" lon="103.309987"><ele>2564.0999</ele><time>2026-02-18T19:52:13.000Z</time></trkpt>
        <trkpt lat="29.503384" lon="103.310037"><ele>2559.811</ele><time>2026-02-18T19:52:34.000Z</time></trkpt>
        <trkpt lat="29.503405" lon="103.310101"><ele>2562.4338</ele><time>2026-02-18T19:52:42.000Z</time></trkpt>
        <trkpt lat="29.503426" lon="103.310152"><ele>2563.1523</ele><time>2026-02-18T19:52:45.000Z</time></trkpt>
        <trkpt lat="29.50339" lon="103.310167"><ele>2565.8745</ele><time>2026-02-18T19:53:00.000Z</time></trkpt>
        <trkpt lat="29.503352" lon="103.310202"><ele>2565.3591</ele><time>2026-02-18T19:53:37.000Z</time></trkpt>
        <trkpt lat="29.503312" lon="103.310211"><ele>2563.7388</ele><time>2026-02-18T19:53:47.000Z</time></trkpt>
        <trkpt lat="29.503331" lon="103.310221"><ele>2564.2493</ele><time>2026-02-18T19:53:50.000Z</time></trkpt>
        <trkpt lat="29.503374" lon="103.310264"><ele>2565.1697</ele><time>2026-02-18T19:53:59.000Z</time></trkpt>
        <trkpt lat="29.503407" lon="103.310315"><ele>2566.2488</ele><time>2026-02-18T19:54:15.000Z</time></trkpt>
        <trkpt lat="29.503435" lon="103.310355"><ele>2564.177</ele><time>2026-02-18T19:54:38.000Z</time></trkpt>
        <trkpt lat="29.503452" lon="103.310403"><ele>2562.8555</ele><time>2026-02-18T19:54:58.000Z</time></trkpt>
        <trkpt lat="29.503493" lon="103.310432"><ele>2565.5183</ele><time>2026-02-18T19:55:43.000Z</time></trkpt>
        <trkpt lat="29.503525" lon="103.310475"><ele>2570.277</ele><time>2026-02-18T19:56:04.000Z</time></trkpt>
        <trkpt lat="29.503522" lon="103.310528"><ele>2571.6125</ele><time>2026-02-18T19:56:18.000Z</time></trkpt>
        <trkpt lat="29.503532" lon="103.310584"><ele>2572.0137</ele><time>2026-02-18T19:56:48.000Z</time></trkpt>
        <trkpt lat="29.503538" lon="103.310638"><ele>2573.685</ele><time>2026-02-18T19:57:18.000Z</time></trkpt>
        <trkpt lat="29.503548" lon="103.310696"><ele>2579.8118</ele><time>2026-02-18T19:57:52.000Z</time></trkpt>
        <trkpt lat="29.503522" lon="103.310739"><ele>2578.8997</ele><time>2026-02-18T19:58:20.000Z</time></trkpt>
        <trkpt lat="29.503551" lon="103.31078"><ele>2583.3567</ele><time>2026-02-18T19:58:39.000Z</time></trkpt>
        <trkpt lat="29.50352" lon="103.310816"><ele>2588.3042</ele><time>2026-02-18T19:59:15.000Z</time></trkpt>
        <trkpt lat="29.503486" lon="103.310851"><ele>2594.464</ele><time>2026-02-18T19:59:48.000Z</time></trkpt>
        <trkpt lat="29.503441" lon="103.310855"><ele>2599.075</ele><time>2026-02-18T20:00:23.000Z</time></trkpt>
        <trkpt lat="29.503391" lon="103.310854"><ele>2604.2812</ele><time>2026-02-18T20:00:40.000Z</time></trkpt>
        <trkpt lat="29.503366" lon="103.310898"><ele>2609.4583</ele><time>2026-02-18T20:01:44.000Z</time></trkpt>
        <trkpt lat="29.503321" lon="103.310922"><ele>2613.3176</ele><time>2026-02-18T20:02:19.000Z</time></trkpt>
        <trkpt lat="29.503284" lon="103.310964"><ele>2615.2314</ele><time>2026-02-18T20:02:48.000Z</time></trkpt>
        <trkpt lat="29.503248" lon="103.311002"><ele>2615.816</ele><time>2026-02-18T20:03:54.000Z</time></trkpt>
        <trkpt lat="29.50321" lon="103.311029"><ele>2620.6096</ele><time>2026-02-18T20:04:16.000Z</time></trkpt>
        <trkpt lat="29.503177" lon="103.311067"><ele>2618.723</ele><time>2026-02-18T20:04:53.000Z</time></trkpt>
        <trkpt lat="29.503139" lon="103.311093"><ele>2617.0308</ele><time>2026-02-18T20:05:10.000Z</time></trkpt>
        <trkpt lat="29.503133" lon="103.311149"><ele>2614.7341</ele><time>2026-02-18T20:05:36.000Z</time></trkpt>
        <trkpt lat="29.503129" lon="103.311202"><ele>2619.133</ele><time>2026-02-18T20:06:16.000Z</time></trkpt>
        <trkpt lat="29.503132" lon="103.31126"><ele>2623.2256</ele><time>2026-02-18T20:07:15.000Z</time></trkpt>
        <trkpt lat="29.503092" lon="103.311287"><ele>2623.7314</ele><time>2026-02-18T20:07:46.000Z</time></trkpt>
        <trkpt lat="29.503084" lon="103.311342"><ele>2625.0261</ele><time>2026-02-18T20:08:29.000Z</time></trkpt>
        <trkpt lat="29.503055" lon="103.311388"><ele>2624.4736</ele><time>2026-02-18T20:09:02.000Z</time></trkpt>
        <trkpt lat="29.503033" lon="103.311435"><ele>2627.1885</ele><time>2026-02-18T20:09:27.000Z</time></trkpt>
        <trkpt lat="29.503003" lon="103.311476"><ele>2631.5398</ele><time>2026-02-18T20:09:56.000Z</time></trkpt>
        <trkpt lat="29.50299" lon="103.311534"><ele>2639.799</ele><time>2026-02-18T20:10:40.000Z</time></trkpt>
        <trkpt lat="29.502993" lon="103.311586"><ele>2636.047</ele><time>2026-02-18T20:11:14.000Z</time></trkpt>
        <trkpt lat="29.502946" lon="103.311593"><ele>2639.231</ele><time>2026-02-18T20:11:37.000Z</time></trkpt>
        <trkpt lat="29.502952" lon="103.31165"><ele>2638.7625</ele><time>2026-02-18T20:12:18.000Z</time></trkpt>
        <trkpt lat="29.502936" lon="103.311701"><ele>2639.4263</ele><time>2026-02-18T20:12:43.000Z</time></trkpt>
        <trkpt lat="29.502927" lon="103.311752"><ele>2640.6665</ele><time>2026-02-18T20:13:21.000Z</time></trkpt>
        <trkpt lat="29.502935" lon="103.311806"><ele>2643.079</ele><time>2026-02-18T20:14:03.000Z</time></trkpt>
        <trkpt lat="29.50291" lon="103.311854"><ele>2650.972</ele><time>2026-02-18T20:14:54.000Z</time></trkpt>
        <trkpt lat="29.502926" lon="103.311902"><ele>2650.4558</ele><time>2026-02-18T20:15:09.000Z</time></trkpt>
        <trkpt lat="29.502913" lon="103.311955"><ele>2650.62</ele><time>2026-02-18T20:15:30.000Z</time></trkpt>
        <trkpt lat="29.502927" lon="103.312002"><ele>2650.7104</ele><time>2026-02-18T20:15:44.000Z</time></trkpt>
        <trkpt lat="29.502947" lon="103.312052"><ele>2651.8801</ele><time>2026-02-18T20:15:58.000Z</time></trkpt>
        <trkpt lat="29.502944" lon="103.312105"><ele>2654.8315</ele><time>2026-02-18T20:16:34.000Z</time></trkpt>
        <trkpt lat="29.502934" lon="103.312155"><ele>2655.2998</ele><time>2026-02-18T20:16:57.000Z</time></trkpt>
        <trkpt lat="29.502886" lon="103.312149"><ele>2658.797</ele><time>2026-02-18T20:17:36.000Z</time></trkpt>
        <trkpt lat="29.502893" lon="103.312208"><ele>2655.0627</ele><time>2026-02-18T20:18:47.000Z</time></trkpt>
        <trkpt lat="29.502871" lon="103.312257"><ele>2664.4705</ele><time>2026-02-18T20:20:29.000Z</time></trkpt>
        <trkpt lat="29.502845" lon="103.312294"><ele>2664.04</ele><time>2026-02-18T20:20:41.000Z</time></trkpt>
        <trkpt lat="29.502811" lon="103.312335"><ele>2662.5771</ele><time>2026-02-18T20:21:05.000Z</time></trkpt>
        <trkpt lat="29.502787" lon="103.31238"><ele>2657.0327</ele><time>2026-02-18T20:21:35.000Z</time></trkpt>
        <trkpt lat="29.502809" lon="103.312423"><ele>2660.3325</ele><time>2026-02-18T20:21:41.000Z</time></trkpt>
        <trkpt lat="29.502817" lon="103.312482"><ele>2662.9797</ele><time>2026-02-18T20:21:48.000Z</time></trkpt>
        <trkpt lat="29.502806" lon="103.312537"><ele>2663.2427</ele><time>2026-02-18T20:22:23.000Z</time></trkpt>
        <trkpt lat="29.502802" lon="103.312586"><ele>2661.8022</ele><time>2026-02-18T20:22:40.000Z</time></trkpt>
        <trkpt lat="29.502817" lon="103.312637"><ele>2662.9436</ele><time>2026-02-18T20:22:48.000Z</time></trkpt>
        <trkpt lat="29.502766" lon="103.312667"><ele>2658.6572</ele><time>2026-02-18T20:23:07.000Z</time></trkpt>
        <trkpt lat="29.502764" lon="103.312724"><ele>2659.7637</ele><time>2026-02-18T20:23:19.000Z</time></trkpt>
        <trkpt lat="29.502824" lon="103.312709"><ele>2660.294</ele><time>2026-02-18T20:23:25.000Z</time></trkpt>
        <trkpt lat="29.502862" lon="103.312744"><ele>2663.909</ele><time>2026-02-18T20:23:31.000Z</time></trkpt>
        <trkpt lat="29.502844" lon="103.312788"><ele>2668.8909</ele><time>2026-02-18T20:23:37.000Z</time></trkpt>
        <trkpt lat="29.502802" lon="103.312826"><ele>2670.668</ele><time>2026-02-18T20:23:40.000Z</time></trkpt>
        <trkpt lat="29.502802" lon="103.312874"><ele>2674.5852</ele><time>2026-02-18T20:23:46.000Z</time></trkpt>
        <trkpt lat="29.502826" lon="103.312858"><ele>2676.037</ele><time>2026-02-18T20:23:48.000Z</time></trkpt>
        <trkpt lat="29.502835" lon="103.312798"><ele>2669.9617</ele><time>2026-02-18T20:23:54.000Z</time></trkpt>
        <trkpt lat="29.502823" lon="103.312824"><ele>2663.2227</ele><time>2026-02-18T20:24:50.000Z</time></trkpt>
        <trkpt lat="29.502849" lon="103.312866"><ele>2664.997</ele><time>2026-02-18T20:25:00.000Z</time></trkpt>
        <trkpt lat="29.502864" lon="103.312916"><ele>2666.1477</ele><time>2026-02-18T20:25:17.000Z</time></trkpt>
        <trkpt lat="29.502895" lon="103.312959"><ele>2665.108</ele><time>2026-02-18T20:25:41.000Z</time></trkpt>
        <trkpt lat="29.502892" lon="103.313014"><ele>2670.438</ele><time>2026-02-18T20:26:04.000Z</time></trkpt>
        <trkpt lat="29.502903" lon="103.313067"><ele>2676.3845</ele><time>2026-02-18T20:26:34.000Z</time></trkpt>
        <trkpt lat="29.502946" lon="103.313089"><ele>2675.309</ele><time>2026-02-18T20:27:26.000Z</time></trkpt>
        <trkpt lat="29.502981" lon="103.313129"><ele>2674.4255</ele><time>2026-02-18T20:27:47.000Z</time></trkpt>
        <trkpt lat="29.503026" lon="103.313119"><ele>2677.9768</ele><time>2026-02-18T20:28:18.000Z</time></trkpt>
        <trkpt lat="29.503071" lon="103.313105"><ele>2682.2026</ele><time>2026-02-18T20:29:08.000Z</time></trkpt>
        <trkpt lat="29.503113" lon="103.313131"><ele>2679.959</ele><time>2026-02-18T20:29:55.000Z</time></trkpt>
        <trkpt lat="29.503161" lon="103.31314"><ele>2682.3875</ele><time>2026-02-18T20:30:26.000Z</time></trkpt>
        <trkpt lat="29.503186" lon="103.313181"><ele>2682.9353</ele><time>2026-02-18T20:30:37.000Z</time></trkpt>
        <trkpt lat="29.503231" lon="103.313209"><ele>2688.617</ele><time>2026-02-18T20:31:19.000Z</time></trkpt>
        <trkpt lat="29.503266" lon="103.313254"><ele>2689.4019</ele><time>2026-02-18T20:31:29.000Z</time></trkpt>
        <trkpt lat="29.503274" lon="103.313312"><ele>2691.4783</ele><time>2026-02-18T20:31:53.000Z</time></trkpt>
        <trkpt lat="29.503256" lon="103.31336"><ele>2691.7493</ele><time>2026-02-18T20:32:04.000Z</time></trkpt>
        <trkpt lat="29.503254" lon="103.313416"><ele>2692.1191</ele><time>2026-02-18T20:32:25.000Z</time></trkpt>
        <trkpt lat="29.503264" lon="103.313466"><ele>2691.7205</ele><time>2026-02-18T20:32:34.000Z</time></trkpt>
        <trkpt lat="29.503278" lon="103.313523"><ele>2694.6042</ele><time>2026-02-18T20:32:45.000Z</time></trkpt>
        <trkpt lat="29.503312" lon="103.31356"><ele>2695.2827</ele><time>2026-02-18T20:38:23.000Z</time></trkpt>
        <trkpt lat="29.503265" lon="103.313562"><ele>2689.3867</ele><time>2026-02-18T20:42:57.000Z</time></trkpt>
        <trkpt lat="29.503301" lon="103.313593"><ele>2694.2954</ele><time>2026-02-18T20:45:39.000Z</time></trkpt>
        <trkpt lat="29.50332" lon="103.313641"><ele>2696.2966</ele><time>2026-02-18T20:46:37.000Z</time></trkpt>
        <trkpt lat="29.503327" lon="103.313705"><ele>2700.073</ele><time>2026-02-18T20:46:55.000Z</time></trkpt>
        <trkpt lat="29.503374" lon="103.313757"><ele>2701.782</ele><time>2026-02-18T20:47:22.000Z</time></trkpt>
        <trkpt lat="29.503394" lon="103.313736"><ele>2700.275</ele><time>2026-02-18T20:47:24.000Z</time></trkpt>
        <trkpt lat="29.503359" lon="103.313724"><ele>2696.1785</ele><time>2026-02-18T20:47:29.000Z</time></trkpt>
        <trkpt lat="29.503305" lon="103.31373"><ele>2691.5085</ele><time>2026-02-18T20:47:35.000Z</time></trkpt>
        <trkpt lat="29.50328" lon="103.313776"><ele>2692.0803</ele><time>2026-02-18T20:47:42.000Z</time></trkpt>
        <trkpt lat="29.503301" lon="103.313836"><ele>2694.236</ele><time>2026-02-18T20:47:50.000Z</time></trkpt>
        <trkpt lat="29.503303" lon="103.31389"><ele>2696.8145</ele><time>2026-02-18T20:47:58.000Z</time></trkpt>
        <trkpt lat="29.503323" lon="103.313937"><ele>2704.0881</ele><time>2026-02-18T20:48:11.000Z</time></trkpt>
        <trkpt lat="29.503366" lon="103.313963"><ele>2706.9788</ele><time>2026-02-18T20:48:30.000Z</time></trkpt>
        <trkpt lat="29.503362" lon="103.314017"><ele>2704.1245</ele><time>2026-02-18T20:49:08.000Z</time></trkpt>
        <trkpt lat="29.503341" lon="103.313973"><ele>2704.5254</ele><time>2026-02-18T20:49:30.000Z</time></trkpt>
        <trkpt lat="29.50334" lon="103.314026"><ele>2705.7612</ele><time>2026-02-18T20:49:54.000Z</time></trkpt>
        <trkpt lat="29.503348" lon="103.314078"><ele>2707.1057</ele><time>2026-02-18T20:50:03.000Z</time></trkpt>
        <trkpt lat="29.50337" lon="103.314123"><ele>2708.5776</ele><time>2026-02-18T20:50:14.000Z</time></trkpt>
        <trkpt lat="29.503393" lon="103.314166"><ele>2708.862</ele><time>2026-02-18T20:50:22.000Z</time></trkpt>
        <trkpt lat="29.503409" lon="103.314221"><ele>2709.065</ele><time>2026-02-18T20:50:45.000Z</time></trkpt>
        <trkpt lat="29.503456" lon="103.314221"><ele>2712.0505</ele><time>2026-02-18T20:51:15.000Z</time></trkpt>
        <trkpt lat="29.503478" lon="103.314271"><ele>2712.3667</ele><time>2026-02-18T20:52:11.000Z</time></trkpt>
        <trkpt lat="29.503454" lon="103.314314"><ele>2712.374</ele><time>2026-02-18T20:52:25.000Z</time></trkpt>
        <trkpt lat="29.50348" lon="103.314364"><ele>2716.3254</ele><time>2026-02-18T20:52:38.000Z</time></trkpt>
        <trkpt lat="29.503504" lon="103.314413"><ele>2715.8843</ele><time>2026-02-18T20:52:49.000Z</time></trkpt>
        <trkpt lat="29.503506" lon="103.314465"><ele>2716.0364</ele><time>2026-02-18T20:52:56.000Z</time></trkpt>
        <trkpt lat="29.503532" lon="103.314507"><ele>2716.8748</ele><time>2026-02-18T20:53:03.000Z</time></trkpt>
        <trkpt lat="29.503548" lon="103.314565"><ele>2716.7336</ele><time>2026-02-18T20:53:20.000Z</time></trkpt>
        <trkpt lat="29.503555" lon="103.31462"><ele>2715.5671</ele><time>2026-02-18T20:53:31.000Z</time></trkpt>
        <trkpt lat="29.503579" lon="103.314673"><ele>2719.7158</ele><time>2026-02-18T20:53:41.000Z</time></trkpt>
        <trkpt lat="29.503602" lon="103.314721"><ele>2717.362</ele><time>2026-02-18T20:54:07.000Z</time></trkpt>
        <trkpt lat="29.503604" lon="103.314774"><ele>2717.9832</ele><time>2026-02-18T20:54:20.000Z</time></trkpt>
        <trkpt lat="29.503608" lon="103.314835"><ele>2717.9475</ele><time>2026-02-18T20:54:34.000Z</time></trkpt>
        <trkpt lat="29.503636" lon="103.314876"><ele>2719.5862</ele><time>2026-02-18T20:54:48.000Z</time></trkpt>
        <trkpt lat="29.503666" lon="103.314919"><ele>2722.979</ele><time>2026-02-18T20:54:59.000Z</time></trkpt>
        <trkpt lat="29.503702" lon="103.314953"><ele>2723.0457</ele><time>2026-02-18T20:55:22.000Z</time></trkpt>
        <trkpt lat="29.503747" lon="103.314946"><ele>2724.5293</ele><time>2026-02-18T20:55:36.000Z</time></trkpt>
        <trkpt lat="29.503792" lon="103.314935"><ele>2724.203</ele><time>2026-02-18T20:55:44.000Z</time></trkpt>
        <trkpt lat="29.503837" lon="103.314951"><ele>2724.3164</ele><time>2026-02-18T20:55:55.000Z</time></trkpt>
        <trkpt lat="29.503871" lon="103.314995"><ele>2725.8123</ele><time>2026-02-18T20:56:10.000Z</time></trkpt>
        <trkpt lat="29.503914" lon="103.315007"><ele>2726.9126</ele><time>2026-02-18T20:56:35.000Z</time></trkpt>
        <trkpt lat="29.503929" lon="103.315055"><ele>2726.2473</ele><time>2026-02-18T20:56:53.000Z</time></trkpt>
        <trkpt lat="29.503963" lon="103.315075"><ele>2726.4756</ele><time>2026-02-18T20:56:58.000Z</time></trkpt>
        <trkpt lat="29.504001" lon="103.315117"><ele>2729.5889</ele><time>2026-02-18T20:57:11.000Z</time></trkpt>
        <trkpt lat="29.504044" lon="103.31513"><ele>2730.6892</ele><time>2026-02-18T20:57:19.000Z</time></trkpt>
        <trkpt lat="29.504098" lon="103.315147"><ele>2730.1035</ele><time>2026-02-18T20:57:29.000Z</time></trkpt>
        <trkpt lat="29.504136" lon="103.315192"><ele>2731.801</ele><time>2026-02-18T20:57:39.000Z</time></trkpt>
        <trkpt lat="29.504169" lon="103.315237"><ele>2731.6558</ele><time>2026-02-18T20:57:49.000Z</time></trkpt>
        <trkpt lat="29.504192" lon="103.315282"><ele>2732.7092</ele><time>2026-02-18T20:57:59.000Z</time></trkpt>
        <trkpt lat="29.504215" lon="103.315326"><ele>2733.5684</ele><time>2026-02-18T20:58:07.000Z</time></trkpt>
        <trkpt lat="29.504228" lon="103.315386"><ele>2732.6145</ele><time>2026-02-18T20:58:23.000Z</time></trkpt>
        <trkpt lat="29.504252" lon="103.315422"><ele>2733.8088</ele><time>2026-02-18T20:58:30.000Z</time></trkpt>
        <trkpt lat="29.504292" lon="103.315467"><ele>2733.5417</ele><time>2026-02-18T20:58:41.000Z</time></trkpt>
        <trkpt lat="29.504331" lon="103.315504"><ele>2731.96</ele><time>2026-02-18T20:58:48.000Z</time></trkpt>
        <trkpt lat="29.504359" lon="103.315572"><ele>2734.101</ele><time>2026-02-18T20:58:55.000Z</time></trkpt>
        <trkpt lat="29.504351" lon="103.315632"><ele>2734.1506</ele><time>2026-02-18T20:59:06.000Z</time></trkpt>
        <trkpt lat="29.504384" lon="103.315668"><ele>2728.4983</ele><time>2026-02-18T20:59:22.000Z</time></trkpt>
        <trkpt lat="29.504406" lon="103.315716"><ele>2726.5693</ele><time>2026-02-18T20:59:55.000Z</time></trkpt>
        <trkpt lat="29.504423" lon="103.315765"><ele>2727.3254</ele><time>2026-02-18T21:00:11.000Z</time></trkpt>
        <trkpt lat="29.504446" lon="103.315814"><ele>2725.5586</ele><time>2026-02-18T21:00:23.000Z</time></trkpt>
        <trkpt lat="29.504478" lon="103.315856"><ele>2720.918</ele><time>2026-02-18T21:00:41.000Z</time></trkpt>
        <trkpt lat="29.504512" lon="103.3159"><ele>2719.0881</ele><time>2026-02-18T21:00:52.000Z</time></trkpt>
        <trkpt lat="29.504536" lon="103.315951"><ele>2720.2944</ele><time>2026-02-18T21:00:59.000Z</time></trkpt>
        <trkpt lat="29.504554" lon="103.316011"><ele>2720.3716</ele><time>2026-02-18T21:01:07.000Z</time></trkpt>
        <trkpt lat="29.504568" lon="103.316063"><ele>2721.0342</ele><time>2026-02-18T21:01:15.000Z</time></trkpt>
        <trkpt lat="29.504593" lon="103.316109"><ele>2718.397</ele><time>2026-02-18T21:01:30.000Z</time></trkpt>
        <trkpt lat="29.504632" lon="103.316142"><ele>2717.3047</ele><time>2026-02-18T21:01:41.000Z</time></trkpt>
        <trkpt lat="29.50468" lon="103.316169"><ele>2719.8003</ele><time>2026-02-18T21:01:58.000Z</time></trkpt>
        <trkpt lat="29.504725" lon="103.316185"><ele>2719.9114</ele><time>2026-02-18T21:02:11.000Z</time></trkpt>
        <trkpt lat="29.50478" lon="103.316213"><ele>2719.5298</ele><time>2026-02-18T21:02:24.000Z</time></trkpt>
        <trkpt lat="29.504813" lon="103.316249"><ele>2723.8792</ele><time>2026-02-18T21:02:49.000Z</time></trkpt>
        <trkpt lat="29.504834" lon="103.316294"><ele>2726.5664</ele><time>2026-02-18T21:03:08.000Z</time></trkpt>
        <trkpt lat="29.504882" lon="103.316308"><ele>2725.6821</ele><time>2026-02-18T21:03:38.000Z</time></trkpt>
        <trkpt lat="29.504921" lon="103.316329"><ele>2727.4744</ele><time>2026-02-18T21:03:51.000Z</time></trkpt>
        <trkpt lat="29.50497" lon="103.316331"><ele>2739.272</ele><time>2026-02-18T21:05:26.000Z</time></trkpt>
        <trkpt lat="29.505012" lon="103.316349"><ele>2740.4912</ele><time>2026-02-18T21:05:49.000Z</time></trkpt>
        <trkpt lat="29.505054" lon="103.316377"><ele>2737.2817</ele><time>2026-02-18T21:06:08.000Z</time></trkpt>
        <trkpt lat="29.505099" lon="103.31638"><ele>2739.7622</ele><time>2026-02-18T21:06:30.000Z</time></trkpt>
        <trkpt lat="29.505142" lon="103.316396"><ele>2740.4712</ele><time>2026-02-18T21:06:52.000Z</time></trkpt>
        <trkpt lat="29.50518" lon="103.316424"><ele>2741.5671</ele><time>2026-02-18T21:07:04.000Z</time></trkpt>
        <trkpt lat="29.505214" lon="103.316466"><ele>2744.69</ele><time>2026-02-18T21:07:19.000Z</time></trkpt>
        <trkpt lat="29.505236" lon="103.316511"><ele>2749.967</ele><time>2026-02-18T21:11:11.000Z</time></trkpt>
        <trkpt lat="29.505189" lon="103.316517"><ele>2752.7007</ele><time>2026-02-18T21:12:29.000Z</time></trkpt>
        <trkpt lat="29.505238" lon="103.316468"><ele>2747.5159</ele><time>2026-02-18T21:16:27.000Z</time></trkpt>
        <trkpt lat="29.505216" lon="103.316515"><ele>2753.6553</ele><time>2026-02-18T21:28:14.000Z</time></trkpt>
        <trkpt lat="29.505259" lon="103.3165"><ele>2748.4253</ele><time>2026-02-18T21:30:10.000Z</time></trkpt>
        <trkpt lat="29.505298" lon="103.316535"><ele>2751.0024</ele><time>2026-02-18T21:30:48.000Z</time></trkpt>
        <trkpt lat="29.505325" lon="103.316576"><ele>2747.4932</ele><time>2026-02-18T21:31:13.000Z</time></trkpt>
        <trkpt lat="29.505321" lon="103.316626"><ele>2748.9866</ele><time>2026-02-18T21:31:24.000Z</time></trkpt>
        <trkpt lat="29.505329" lon="103.316676"><ele>2752.6677</ele><time>2026-02-18T21:31:29.000Z</time></trkpt>
        <trkpt lat="29.505357" lon="103.316727"><ele>2751.582</ele><time>2026-02-18T21:31:51.000Z</time></trkpt>
        <trkpt lat="29.505384" lon="103.316768"><ele>2746.3086</ele><time>2026-02-18T21:32:20.000Z</time></trkpt>
        <trkpt lat="29.50534" lon="103.316795"><ele>2753.2996</ele><time>2026-02-18T21:32:46.000Z</time></trkpt>
        <trkpt lat="29.505331" lon="103.316842"><ele>2755.8296</ele><time>2026-02-18T21:32:56.000Z</time></trkpt>
        <trkpt lat="29.505349" lon="103.316898"><ele>2755.8945</ele><time>2026-02-18T21:33:25.000Z</time></trkpt>
        <trkpt lat="29.505357" lon="103.316954"><ele>2755.1719</ele><time>2026-02-18T21:33:55.000Z</time></trkpt>
        <trkpt lat="29.505393" lon="103.316983"><ele>2754.6143</ele><time>2026-02-18T21:34:08.000Z</time></trkpt>
        <trkpt lat="29.505396" lon="103.317028"><ele>2755.5076</ele><time>2026-02-18T21:34:15.000Z</time></trkpt>
        <trkpt lat="29.505388" lon="103.317088"><ele>2760.0452</ele><time>2026-02-18T21:34:31.000Z</time></trkpt>
        <trkpt lat="29.505377" lon="103.317141"><ele>2767.925</ele><time>2026-02-18T21:35:39.000Z</time></trkpt>
        <trkpt lat="29.505347" lon="103.31718"><ele>2769.7048</ele><time>2026-02-18T21:35:53.000Z</time></trkpt>
        <trkpt lat="29.505332" lon="103.317231"><ele>2771.3413</ele><time>2026-02-18T21:36:03.000Z</time></trkpt>
        <trkpt lat="29.505291" lon="103.317268"><ele>2769.4946</ele><time>2026-02-18T21:36:42.000Z</time></trkpt>
        <trkpt lat="29.50527" lon="103.317314"><ele>2770.8306</ele><time>2026-02-18T21:36:58.000Z</time></trkpt>
        <trkpt lat="29.505259" lon="103.317367"><ele>2778.2869</ele><time>2026-02-18T21:37:22.000Z</time></trkpt>
        <trkpt lat="29.505257" lon="103.317421"><ele>2778.8696</ele><time>2026-02-18T21:38:01.000Z</time></trkpt>
        <trkpt lat="29.505256" lon="103.317473"><ele>2779.2395</ele><time>2026-02-18T21:38:22.000Z</time></trkpt>
        <trkpt lat="29.505254" lon="103.317525"><ele>2782.2942</ele><time>2026-02-18T21:38:50.000Z</time></trkpt>
        <trkpt lat="29.505243" lon="103.317578"><ele>2785.4233</ele><time>2026-02-18T21:39:04.000Z</time></trkpt>
        <trkpt lat="29.505257" lon="103.317628"><ele>2785.985</ele><time>2026-02-18T21:39:22.000Z</time></trkpt>
        <trkpt lat="29.505257" lon="103.31769"><ele>2778.4622</ele><time>2026-02-18T21:40:23.000Z</time></trkpt>
        <trkpt lat="29.505267" lon="103.31774"><ele>2780.1882</ele><time>2026-02-18T21:40:38.000Z</time></trkpt>
        <trkpt lat="29.50525" lon="103.317791"><ele>2782.6404</ele><time>2026-02-18T21:41:03.000Z</time></trkpt>
        <trkpt lat="29.505288" lon="103.317824"><ele>2788.2134</ele><time>2026-02-18T21:42:00.000Z</time></trkpt>
        <trkpt lat="29.505319" lon="103.317863"><ele>2789.0083</ele><time>2026-02-18T21:42:07.000Z</time></trkpt>
        <trkpt lat="29.505331" lon="103.317918"><ele>2791.794</ele><time>2026-02-18T21:42:15.000Z</time></trkpt>
        <trkpt lat="29.505298" lon="103.317967"><ele>2794.322</ele><time>2026-02-18T21:42:40.000Z</time></trkpt>
        <trkpt lat="29.505294" lon="103.318026"><ele>2792.5154</ele><time>2026-02-18T21:42:57.000Z</time></trkpt>
        <trkpt lat="29.505296" lon="103.318078"><ele>2794.5413</ele><time>2026-02-18T21:43:05.000Z</time></trkpt>
        <trkpt lat="29.505303" lon="103.318132"><ele>2796.5684</ele><time>2026-02-18T21:43:15.000Z</time></trkpt>
        <trkpt lat="29.505266" lon="103.318177"><ele>2800.5667</ele><time>2026-02-18T21:43:54.000Z</time></trkpt>
        <trkpt lat="29.505292" lon="103.318221"><ele>2800.5605</ele><time>2026-02-18T21:44:55.000Z</time></trkpt>
        <trkpt lat="29.505321" lon="103.318263"><ele>2803.9053</ele><time>2026-02-18T21:45:19.000Z</time></trkpt>
        <trkpt lat="29.505344" lon="103.318314"><ele>2804.5603</ele><time>2026-02-18T21:45:35.000Z</time></trkpt>
        <trkpt lat="29.505353" lon="103.318367"><ele>2810.4172</ele><time>2026-02-18T21:45:50.000Z</time></trkpt>
        <trkpt lat="29.505403" lon="103.318391"><ele>2816.6475</ele><time>2026-02-18T21:46:11.000Z</time></trkpt>
        <trkpt lat="29.505433" lon="103.318433"><ele>2815.3154</ele><time>2026-02-18T21:46:29.000Z</time></trkpt>
        <trkpt lat="29.505481" lon="103.318443"><ele>2815.473</ele><time>2026-02-18T21:46:48.000Z</time></trkpt>
        <trkpt lat="29.505525" lon="103.318457"><ele>2815.5767</ele><time>2026-02-18T21:47:24.000Z</time></trkpt>
        <trkpt lat="29.505575" lon="103.31846"><ele>2817.1467</ele><time>2026-02-18T21:47:37.000Z</time></trkpt>
        <trkpt lat="29.505613" lon="103.318493"><ele>2817.6167</ele><time>2026-02-18T21:47:49.000Z</time></trkpt>
        <trkpt lat="29.505638" lon="103.318534"><ele>2820.0757</ele><time>2026-02-18T21:47:57.000Z</time></trkpt>
        <trkpt lat="29.505644" lon="103.31859"><ele>2826.141</ele><time>2026-02-18T21:48:19.000Z</time></trkpt>
        <trkpt lat="29.505644" lon="103.318644"><ele>2821.78</ele><time>2026-02-18T21:48:56.000Z</time></trkpt>
        <trkpt lat="29.505666" lon="103.318687"><ele>2820.4346</ele><time>2026-02-18T21:49:06.000Z</time></trkpt>
        <trkpt lat="29.505702" lon="103.318717"><ele>2820.1477</ele><time>2026-02-18T21:49:12.000Z</time></trkpt>
        <trkpt lat="29.505745" lon="103.318758"><ele>2819.2974</ele><time>2026-02-18T21:49:25.000Z</time></trkpt>
        <trkpt lat="29.505782" lon="103.318792"><ele>2819.873</ele><time>2026-02-18T21:49:31.000Z</time></trkpt>
        <trkpt lat="29.505787" lon="103.318852"><ele>2822.2544</ele><time>2026-02-18T21:49:40.000Z</time></trkpt>
        <trkpt lat="29.505807" lon="103.318896"><ele>2822.1338</ele><time>2026-02-18T21:49:47.000Z</time></trkpt>
        <trkpt lat="29.505831" lon="103.318947"><ele>2819.8076</ele><time>2026-02-18T21:50:05.000Z</time></trkpt>
        <trkpt lat="29.505872" lon="103.318963"><ele>2820.578</ele><time>2026-02-18T21:50:17.000Z</time></trkpt>
        <trkpt lat="29.505909" lon="103.319"><ele>2821.395</ele><time>2026-02-18T21:50:27.000Z</time></trkpt>
        <trkpt lat="29.505936" lon="103.319046"><ele>2823.5105</ele><time>2026-02-18T21:50:39.000Z</time></trkpt>
        <trkpt lat="29.505921" lon="103.319102"><ele>2824.3262</ele><time>2026-02-18T21:51:09.000Z</time></trkpt>
        <trkpt lat="29.505942" lon="103.319145"><ele>2823.9746</ele><time>2026-02-18T21:51:17.000Z</time></trkpt>
        <trkpt lat="29.505967" lon="103.31921"><ele>2827.0642</ele><time>2026-02-18T21:51:30.000Z</time></trkpt>
        <trkpt lat="29.506003" lon="103.319242"><ele>2824.7407</ele><time>2026-02-18T21:51:44.000Z</time></trkpt>
        <trkpt lat="29.506033" lon="103.319285"><ele>2825.0283</ele><time>2026-02-18T21:51:50.000Z</time></trkpt>
        <trkpt lat="29.506045" lon="103.319352"><ele>2824.3425</ele><time>2026-02-18T21:52:05.000Z</time></trkpt>
        <trkpt lat="29.506059" lon="103.319403"><ele>2823.1943</ele><time>2026-02-18T21:52:17.000Z</time></trkpt>
        <trkpt lat="29.506071" lon="103.319465"><ele>2834.2722</ele><time>2026-02-18T21:53:39.000Z</time></trkpt>
        <trkpt lat="29.506066" lon="103.319504"><ele>2834.8809</ele><time>2026-02-18T21:53:45.000Z</time></trkpt>
        <trkpt lat="29.506075" lon="103.319573"><ele>2834.0405</ele><time>2026-02-18T21:53:54.000Z</time></trkpt>
        <trkpt lat="29.506084" lon="103.319625"><ele>2834.0847</ele><time>2026-02-18T21:54:00.000Z</time></trkpt>
        <trkpt lat="29.506086" lon="103.319684"><ele>2832.917</ele><time>2026-02-18T21:54:09.000Z</time></trkpt>
        <trkpt lat="29.506094" lon="103.319737"><ele>2831.6675</ele><time>2026-02-18T21:54:18.000Z</time></trkpt>
        <trkpt lat="29.506102" lon="103.319792"><ele>2831.6143</ele><time>2026-02-18T21:54:26.000Z</time></trkpt>
        <trkpt lat="29.506119" lon="103.319845"><ele>2831.716</ele><time>2026-02-18T21:54:34.000Z</time></trkpt>
        <trkpt lat="29.50614" lon="103.319898"><ele>2829.2727</ele><time>2026-02-18T21:54:43.000Z</time></trkpt>
        <trkpt lat="29.506152" lon="103.319951"><ele>2829.7744</ele><time>2026-02-18T21:54:50.000Z</time></trkpt>
        <trkpt lat="29.506158" lon="103.320017"><ele>2830.6865</ele><time>2026-02-18T21:54:59.000Z</time></trkpt>
        <trkpt lat="29.506165" lon="103.32007"><ele>2832.3008</ele><time>2026-02-18T21:55:07.000Z</time></trkpt>
        <trkpt lat="29.506162" lon="103.320134"><ele>2832.6248</ele><time>2026-02-18T21:55:18.000Z</time></trkpt>
        <trkpt lat="29.506164" lon="103.32019"><ele>2835.8848</ele><time>2026-02-18T21:55:29.000Z</time></trkpt>
        <trkpt lat="29.506155" lon="103.320243"><ele>2843.5405</ele><time>2026-02-18T21:55:48.000Z</time></trkpt>
        <trkpt lat="29.506135" lon="103.320295"><ele>2836.391</ele><time>2026-02-18T21:56:35.000Z</time></trkpt>
        <trkpt lat="29.506091" lon="103.320302"><ele>2841.8955</ele><time>2026-02-18T21:56:53.000Z</time></trkpt>
        <trkpt lat="29.506048" lon="103.320326"><ele>2844.2153</ele><time>2026-02-18T21:57:08.000Z</time></trkpt>
        <trkpt lat="29.506029" lon="103.320376"><ele>2845.0325</ele><time>2026-02-18T21:57:33.000Z</time></trkpt>
        <trkpt lat="29.505989" lon="103.3204"><ele>2850.3052</ele><time>2026-02-18T21:58:23.000Z</time></trkpt>
        <trkpt lat="29.505988" lon="103.320456"><ele>2848.9546</ele><time>2026-02-18T21:58:42.000Z</time></trkpt>
        <trkpt lat="29.505941" lon="103.320473"><ele>2852.179</ele><time>2026-02-18T21:58:56.000Z</time></trkpt>
        <trkpt lat="29.505921" lon="103.320521"><ele>2854.228</ele><time>2026-02-18T21:59:21.000Z</time></trkpt>
        <trkpt lat="29.505905" lon="103.320583"><ele>2857.8748</ele><time>2026-02-18T21:59:44.000Z</time></trkpt>
        <trkpt lat="29.50588" lon="103.320638"><ele>2858.7083</ele><time>2026-02-18T22:00:06.000Z</time></trkpt>
        <trkpt lat="29.50588" lon="103.320692"><ele>2858.59</ele><time>2026-02-18T22:00:34.000Z</time></trkpt>
        <trkpt lat="29.505883" lon="103.320741"><ele>2860.5627</ele><time>2026-02-18T22:00:44.000Z</time></trkpt>
        <trkpt lat="29.505894" lon="103.3208"><ele>2861.2346</ele><time>2026-02-18T22:01:15.000Z</time></trkpt>
        <trkpt lat="29.505916" lon="103.320848"><ele>2863.913</ele><time>2026-02-18T22:01:31.000Z</time></trkpt>
        <trkpt lat="29.505941" lon="103.320896"><ele>2867.1353</ele><time>2026-02-18T22:01:41.000Z</time></trkpt>
        <trkpt lat="29.505964" lon="103.320947"><ele>2869.6108</ele><time>2026-02-18T22:01:58.000Z</time></trkpt>
        <trkpt lat="29.505956" lon="103.321002"><ele>2871.0244</ele><time>2026-02-18T22:02:14.000Z</time></trkpt>
        <trkpt lat="29.505987" lon="103.321044"><ele>2873.1558</ele><time>2026-02-18T22:02:33.000Z</time></trkpt>
        <trkpt lat="29.505997" lon="103.321093"><ele>2873.6604</ele><time>2026-02-18T22:02:43.000Z</time></trkpt>
        <trkpt lat="29.505998" lon="103.32115"><ele>2880.711</ele><time>2026-02-18T22:03:01.000Z</time></trkpt>
        <trkpt lat="29.505958" lon="103.32112"><ele>2879.2056</ele><time>2026-02-18T22:04:39.000Z</time></trkpt>
        <trkpt lat="29.505999" lon="103.321098"><ele>2883.8286</ele><time>2026-02-18T22:06:20.000Z</time></trkpt>
        <trkpt lat="29.505962" lon="103.321183"><ele>2885.4404</ele><time>2026-02-18T22:10:15.000Z</time></trkpt>
        <trkpt lat="29.506001" lon="103.321159"><ele>2882.9749</ele><time>2026-02-18T22:10:36.000Z</time></trkpt>
        <trkpt lat="29.505959" lon="103.321122"><ele>2889.5293</ele><time>2026-02-18T22:11:13.000Z</time></trkpt>
        <trkpt lat="29.505988" lon="103.321161"><ele>2884.4917</ele><time>2026-02-18T22:11:40.000Z</time></trkpt>
        <trkpt lat="29.505977" lon="103.321211"><ele>2877.97</ele><time>2026-02-18T22:12:16.000Z</time></trkpt>
        <trkpt lat="29.505976" lon="103.321262"><ele>2881.743</ele><time>2026-02-18T22:12:34.000Z</time></trkpt>
        <trkpt lat="29.506014" lon="103.321301"><ele>2882.0908</ele><time>2026-02-18T22:13:13.000Z</time></trkpt>
        <trkpt lat="29.50603" lon="103.321354"><ele>2886.9446</ele><time>2026-02-18T22:13:40.000Z</time></trkpt>
        <trkpt lat="29.506064" lon="103.321393"><ele>2892.5833</ele><time>2026-02-18T22:14:07.000Z</time></trkpt>
        <trkpt lat="29.506107" lon="103.321417"><ele>2895.6433</ele><time>2026-02-18T22:14:25.000Z</time></trkpt>
        <trkpt lat="29.506126" lon="103.321466"><ele>2893.9941</ele><time>2026-02-18T22:14:56.000Z</time></trkpt>
        <trkpt lat="29.506092" lon="103.321507"><ele>2898.3257</ele><time>2026-02-18T22:15:22.000Z</time></trkpt>
        <trkpt lat="29.506126" lon="103.321549"><ele>2893.6162</ele><time>2026-02-18T22:15:55.000Z</time></trkpt>
        <trkpt lat="29.506097" lon="103.321596"><ele>2898.887</ele><time>2026-02-18T22:16:39.000Z</time></trkpt>
        <trkpt lat="29.506144" lon="103.32161"><ele>2905.829</ele><time>2026-02-18T22:17:21.000Z</time></trkpt>
        <trkpt lat="29.50617" lon="103.321656"><ele>2906.345</ele><time>2026-02-18T22:17:38.000Z</time></trkpt>
        <trkpt lat="29.506173" lon="103.321719"><ele>2907.7654</ele><time>2026-02-18T22:18:24.000Z</time></trkpt>
        <trkpt lat="29.506174" lon="103.321772"><ele>2913.963</ele><time>2026-02-18T22:18:44.000Z</time></trkpt>
        <trkpt lat="29.50618" lon="103.321829"><ele>2914.0332</ele><time>2026-02-18T22:19:32.000Z</time></trkpt>
        <trkpt lat="29.506225" lon="103.321822"><ele>2916.5398</ele><time>2026-02-18T22:19:51.000Z</time></trkpt>
        <trkpt lat="29.506244" lon="103.321871"><ele>2919.0576</ele><time>2026-02-18T22:20:23.000Z</time></trkpt>
        <trkpt lat="29.506215" lon="103.32191"><ele>2921.6086</ele><time>2026-02-18T22:20:36.000Z</time></trkpt>
        <trkpt lat="29.506242" lon="103.321958"><ele>2919.5442</ele><time>2026-02-18T22:21:01.000Z</time></trkpt>
        <trkpt lat="29.506266" lon="103.322004"><ele>2924.006</ele><time>2026-02-18T22:21:44.000Z</time></trkpt>
        <trkpt lat="29.50622" lon="103.322002"><ele>2931.968</ele><time>2026-02-18T22:23:34.000Z</time></trkpt>
        <trkpt lat="29.506262" lon="103.32201"><ele>2930.759</ele><time>2026-02-18T22:23:43.000Z</time></trkpt>
        <trkpt lat="29.506282" lon="103.322061"><ele>2930.3062</ele><time>2026-02-18T22:24:02.000Z</time></trkpt>
        <trkpt lat="29.506307" lon="103.322106"><ele>2931.5393</ele><time>2026-02-18T22:24:22.000Z</time></trkpt>
        <trkpt lat="29.506312" lon="103.322158"><ele>2933.3564</ele><time>2026-02-18T22:24:35.000Z</time></trkpt>
        <trkpt lat="29.506306" lon="103.322212"><ele>2935.613</ele><time>2026-02-18T22:24:54.000Z</time></trkpt>
        <trkpt lat="29.506289" lon="103.322261"><ele>2935.1003</ele><time>2026-02-18T22:25:02.000Z</time></trkpt>
        <trkpt lat="29.506271" lon="103.322318"><ele>2940.6763</ele><time>2026-02-18T22:25:16.000Z</time></trkpt>
        <trkpt lat="29.506269" lon="103.322374"><ele>2944.6392</ele><time>2026-02-18T22:25:41.000Z</time></trkpt>
        <trkpt lat="29.50626" lon="103.32242"><ele>2944.4004</ele><time>2026-02-18T22:25:48.000Z</time></trkpt>
        <trkpt lat="29.506284" lon="103.322479"><ele>2944.8452</ele><time>2026-02-18T22:26:07.000Z</time></trkpt>
        <trkpt lat="29.50632" lon="103.322511"><ele>2944.9285</ele><time>2026-02-18T22:26:18.000Z</time></trkpt>
        <trkpt lat="29.506346" lon="103.322566"><ele>2944.8076</ele><time>2026-02-18T22:26:28.000Z</time></trkpt>
        <trkpt lat="29.506373" lon="103.322618"><ele>2943.692</ele><time>2026-02-18T22:26:43.000Z</time></trkpt>
        <trkpt lat="29.506408" lon="103.322652"><ele>2944.3318</ele><time>2026-02-18T22:27:37.000Z</time></trkpt>
        <trkpt lat="29.506421" lon="103.32269"><ele>2947.3271</ele><time>2026-02-18T22:27:44.000Z</time></trkpt>
        <trkpt lat="29.50644" lon="103.322746"><ele>2951.3403</ele><time>2026-02-18T22:27:51.000Z</time></trkpt>
        <trkpt lat="29.506466" lon="103.322796"><ele>2955.7874</ele><time>2026-02-18T22:27:59.000Z</time></trkpt>
        <trkpt lat="29.506473" lon="103.322855"><ele>2951.8235</ele><time>2026-02-18T22:28:16.000Z</time></trkpt>
        <trkpt lat="29.50649" lon="103.322899"><ele>2951.0867</ele><time>2026-02-18T22:28:25.000Z</time></trkpt>
        <trkpt lat="29.506504" lon="103.322949"><ele>2953.4731</ele><time>2026-02-18T22:28:31.000Z</time></trkpt>
        <trkpt lat="29.506536" lon="103.322998"><ele>2951.8035</ele><time>2026-02-18T22:28:41.000Z</time></trkpt>
        <trkpt lat="29.50658" lon="103.323021"><ele>2951.2644</ele><time>2026-02-18T22:28:47.000Z</time></trkpt>
        <trkpt lat="29.506626" lon="103.32306"><ele>2949.9136</ele><time>2026-02-18T22:28:56.000Z</time></trkpt>
        <trkpt lat="29.50667" lon="103.323082"><ele>2948.464</ele><time>2026-02-18T22:29:03.000Z</time></trkpt>
        <trkpt lat="29.506717" lon="103.323119"><ele>2944.368</ele><time>2026-02-18T22:29:13.000Z</time></trkpt>
        <trkpt lat="29.506738" lon="103.323174"><ele>2941.5117</ele><time>2026-02-18T22:29:25.000Z</time></trkpt>
        <trkpt lat="29.506769" lon="103.323194"><ele>2941.7961</ele><time>2026-02-18T22:29:29.000Z</time></trkpt>
        <trkpt lat="29.506817" lon="103.323223"><ele>2943.4312</ele><time>2026-02-18T22:29:35.000Z</time></trkpt>
        <trkpt lat="29.506865" lon="103.323252"><ele>2946.1338</ele><time>2026-02-18T22:29:42.000Z</time></trkpt>
        <trkpt lat="29.506903" lon="103.323294"><ele>2947.694</ele><time>2026-02-18T22:29:54.000Z</time></trkpt>
        <trkpt lat="29.506922" lon="103.323347"><ele>2945.403</ele><time>2026-02-18T22:30:04.000Z</time></trkpt>
        <trkpt lat="29.506934" lon="103.3234"><ele>2944.1565</ele><time>2026-02-18T22:30:13.000Z</time></trkpt>
        <trkpt lat="29.506969" lon="103.32344"><ele>2944.5889</ele><time>2026-02-18T22:30:51.000Z</time></trkpt>
        <trkpt lat="29.507013" lon="103.323451"><ele>2943.6099</ele><time>2026-02-18T22:31:16.000Z</time></trkpt>
        <trkpt lat="29.507043" lon="103.32349"><ele>2941.122</ele><time>2026-02-18T22:31:26.000Z</time></trkpt>
        <trkpt lat="29.507071" lon="103.323521"><ele>2943.1611</ele><time>2026-02-18T22:31:30.000Z</time></trkpt>
        <trkpt lat="29.507125" lon="103.323527"><ele>2942.038</ele><time>2026-02-18T22:31:38.000Z</time></trkpt>
        <trkpt lat="29.507178" lon="103.323535"><ele>2935.6145</ele><time>2026-02-18T22:31:47.000Z</time></trkpt>
        <trkpt lat="29.507223" lon="103.323544"><ele>2932.3674</ele><time>2026-02-18T22:31:55.000Z</time></trkpt>
        <trkpt lat="29.507271" lon="103.323555"><ele>2931.092</ele><time>2026-02-18T22:32:10.000Z</time></trkpt>
        <trkpt lat="29.507299" lon="103.323595"><ele>2933.201</ele><time>2026-02-18T22:33:09.000Z</time></trkpt>
        <trkpt lat="29.507335" lon="103.323627"><ele>2934.9119</ele><time>2026-02-18T22:33:20.000Z</time></trkpt>
        <trkpt lat="29.507368" lon="103.323675"><ele>2933.322</ele><time>2026-02-18T22:33:54.000Z</time></trkpt>
        <trkpt lat="29.507409" lon="103.323693"><ele>2934.7324</ele><time>2026-02-18T22:34:02.000Z</time></trkpt>
        <trkpt lat="29.507441" lon="103.323738"><ele>2935.5962</ele><time>2026-02-18T22:34:10.000Z</time></trkpt>
        <trkpt lat="29.507452" lon="103.323794"><ele>2934.6582</ele><time>2026-02-18T22:34:16.000Z</time></trkpt>
        <trkpt lat="29.507454" lon="103.323856"><ele>2935.7708</ele><time>2026-02-18T22:34:24.000Z</time></trkpt>
        <trkpt lat="29.507452" lon="103.323907"><ele>2938.7903</ele><time>2026-02-18T22:34:30.000Z</time></trkpt>
        <trkpt lat="29.507435" lon="103.323964"><ele>2944.6863</ele><time>2026-02-18T22:34:39.000Z</time></trkpt>
        <trkpt lat="29.507415" lon="103.324017"><ele>2940.8262</ele><time>2026-02-18T22:34:50.000Z</time></trkpt>
        <trkpt lat="29.507397" lon="103.324069"><ele>2940.6653</ele><time>2026-02-18T22:35:08.000Z</time></trkpt>
        <trkpt lat="29.507392" lon="103.32412"><ele>2943.4717</ele><time>2026-02-18T22:35:16.000Z</time></trkpt>
        <trkpt lat="29.507366" lon="103.324166"><ele>2945.0576</ele><time>2026-02-18T22:35:25.000Z</time></trkpt>
        <trkpt lat="29.50735" lon="103.324222"><ele>2946.2927</ele><time>2026-02-18T22:35:44.000Z</time></trkpt>
        <trkpt lat="29.507338" lon="103.324267"><ele>2952.6592</ele><time>2026-02-18T22:35:53.000Z</time></trkpt>
        <trkpt lat="29.507308" lon="103.324308"><ele>2954.7139</ele><time>2026-02-18T22:36:00.000Z</time></trkpt>
        <trkpt lat="29.507281" lon="103.324354"><ele>2956.3347</ele><time>2026-02-18T22:36:10.000Z</time></trkpt>
        <trkpt lat="29.507258" lon="103.324399"><ele>2958.1145</ele><time>2026-02-18T22:36:20.000Z</time></trkpt>
        <trkpt lat="29.507243" lon="103.324449"><ele>2945.641</ele><time>2026-02-18T22:37:14.000Z</time></trkpt>
        <trkpt lat="29.50722" lon="103.32448"><ele>2944.2449</ele><time>2026-02-18T22:37:21.000Z</time></trkpt>
        <trkpt lat="29.507213" lon="103.324531"><ele>2944.7146</ele><time>2026-02-18T22:37:26.000Z</time></trkpt>
        <trkpt lat="29.507209" lon="103.32459"><ele>2946.5554</ele><time>2026-02-18T22:37:33.000Z</time></trkpt>
        <trkpt lat="29.507202" lon="103.324656"><ele>2943.821</ele><time>2026-02-18T22:37:46.000Z</time></trkpt>
        <trkpt lat="29.507185" lon="103.324704"><ele>2938.45</ele><time>2026-02-18T22:38:39.000Z</time></trkpt>
        <trkpt lat="29.507184" lon="103.324749"><ele>2941.0427</ele><time>2026-02-18T22:38:45.000Z</time></trkpt>
        <trkpt lat="29.507189" lon="103.324812"><ele>2950.2478</ele><time>2026-02-18T22:38:53.000Z</time></trkpt>
        <trkpt lat="29.507191" lon="103.324872"><ele>2957.4456</ele><time>2026-02-18T22:39:22.000Z</time></trkpt>
        <trkpt lat="29.507185" lon="103.324924"><ele>2956.4316</ele><time>2026-02-18T22:39:36.000Z</time></trkpt>
        <trkpt lat="29.50717" lon="103.324975"><ele>2958.0757</ele><time>2026-02-18T22:39:44.000Z</time></trkpt>
        <trkpt lat="29.507191" lon="103.325033"><ele>2949.658</ele><time>2026-02-18T22:41:40.000Z</time></trkpt>
        <trkpt lat="29.507197" lon="103.325081"><ele>2949.2434</ele><time>2026-02-18T22:41:53.000Z</time></trkpt>
        <trkpt lat="29.507198" lon="103.32514"><ele>2948.1404</ele><time>2026-02-18T22:42:02.000Z</time></trkpt>
        <trkpt lat="29.507201" lon="103.325194"><ele>2947.553</ele><time>2026-02-18T22:42:12.000Z</time></trkpt>
        <trkpt lat="29.507192" lon="103.325244"><ele>2952.7292</ele><time>2026-02-18T22:42:18.000Z</time></trkpt>
        <trkpt lat="29.50717" lon="103.325294"><ele>2959.4663</ele><time>2026-02-18T22:42:25.000Z</time></trkpt>
        <trkpt lat="29.507167" lon="103.325353"><ele>2960.365</ele><time>2026-02-18T22:42:51.000Z</time></trkpt>
        <trkpt lat="29.507181" lon="103.325409"><ele>2959.161</ele><time>2026-02-18T22:43:20.000Z</time></trkpt>
        <trkpt lat="29.50716" lon="103.325466"><ele>2963.4597</ele><time>2026-02-18T22:43:35.000Z</time></trkpt>
        <trkpt lat="29.507167" lon="103.325516"><ele>2963.5889</ele><time>2026-02-18T22:43:44.000Z</time></trkpt>
        <trkpt lat="29.507204" lon="103.325548"><ele>2963.9736</ele><time>2026-02-18T22:43:53.000Z</time></trkpt>
        <trkpt lat="29.507253" lon="103.325537"><ele>2957.8127</ele><time>2026-02-18T22:44:09.000Z</time></trkpt>
        <trkpt lat="29.507299" lon="103.32553"><ele>2957.7886</ele><time>2026-02-18T22:44:18.000Z</time></trkpt>
        <trkpt lat="29.507345" lon="103.325544"><ele>2957.2144</ele><time>2026-02-18T22:44:27.000Z</time></trkpt>
        <trkpt lat="29.507394" lon="103.32556"><ele>2958.3127</ele><time>2026-02-18T22:47:22.000Z</time></trkpt>
        <trkpt lat="29.507425" lon="103.325601"><ele>2960.5405</ele><time>2026-02-18T22:47:36.000Z</time></trkpt>
        <trkpt lat="29.507469" lon="103.325637"><ele>2960.6624</ele><time>2026-02-18T22:47:51.000Z</time></trkpt>
        <trkpt lat="29.507511" lon="103.325657"><ele>2961.1938</ele><time>2026-02-18T22:48:14.000Z</time></trkpt>
        <trkpt lat="29.507538" lon="103.325699"><ele>2961.9653</ele><time>2026-02-18T22:48:31.000Z</time></trkpt>
        <trkpt lat="29.507576" lon="103.325729"><ele>2962.6033</ele><time>2026-02-18T22:49:01.000Z</time></trkpt>
        <trkpt lat="29.50762" lon="103.32574"><ele>2964.1829</ele><time>2026-02-18T22:49:22.000Z</time></trkpt>
        <trkpt lat="29.507661" lon="103.325774"><ele>2963.5034</ele><time>2026-02-18T22:49:36.000Z</time></trkpt>
        <trkpt lat="29.507665" lon="103.325835"><ele>2967.588</ele><time>2026-02-18T22:49:52.000Z</time></trkpt>
        <trkpt lat="29.50771" lon="103.32586"><ele>2968.391</ele><time>2026-02-18T22:50:24.000Z</time></trkpt>
        <trkpt lat="29.507727" lon="103.325908"><ele>2971.6526</ele><time>2026-02-18T22:50:58.000Z</time></trkpt>
        <trkpt lat="29.507729" lon="103.325963"><ele>2977.8547</ele><time>2026-02-18T22:53:17.000Z</time></trkpt>
        <trkpt lat="29.507751" lon="103.325918"><ele>2972.337</ele><time>2026-02-18T22:54:57.000Z</time></trkpt>
        <trkpt lat="29.507798" lon="103.325921"><ele>2975.1777</ele><time>2026-02-18T22:56:27.000Z</time></trkpt>
        <trkpt lat="29.507833" lon="103.325949"><ele>2976.5322</ele><time>2026-02-18T22:56:39.000Z</time></trkpt>
        <trkpt lat="29.507865" lon="103.325994"><ele>2979.8213</ele><time>2026-02-18T22:56:58.000Z</time></trkpt>
        <trkpt lat="29.507849" lon="103.326041"><ele>2977.7383</ele><time>2026-02-18T22:57:20.000Z</time></trkpt>
        <trkpt lat="29.507826" lon="103.326087"><ele>2977.8398</ele><time>2026-02-18T22:57:38.000Z</time></trkpt>
        <trkpt lat="29.507842" lon="103.326136"><ele>2980.3953</ele><time>2026-02-18T22:58:26.000Z</time></trkpt>
        <trkpt lat="29.507828" lon="103.326187"><ele>2986.829</ele><time>2026-02-18T22:58:46.000Z</time></trkpt>
        <trkpt lat="29.507796" lon="103.32623"><ele>2988.6294</ele><time>2026-02-18T22:59:14.000Z</time></trkpt>
        <trkpt lat="29.50778" lon="103.326281"><ele>2993.2104</ele><time>2026-02-18T22:59:44.000Z</time></trkpt>
        <trkpt lat="29.507761" lon="103.32633"><ele>2997.1575</ele><time>2026-02-18T23:00:15.000Z</time></trkpt>
        <trkpt lat="29.507728" lon="103.326361"><ele>2998.4077</ele><time>2026-02-18T23:00:24.000Z</time></trkpt>
        <trkpt lat="29.507677" lon="103.326355"><ele>2993.785</ele><time>2026-02-18T23:00:58.000Z</time></trkpt>
        <trkpt lat="29.507636" lon="103.326381"><ele>2995.8196</ele><time>2026-02-18T23:01:26.000Z</time></trkpt>
        <trkpt lat="29.507604" lon="103.326425"><ele>2997.1152</ele><time>2026-02-18T23:01:38.000Z</time></trkpt>
        <trkpt lat="29.507558" lon="103.326434"><ele>2998.8047</ele><time>2026-02-18T23:02:38.000Z</time></trkpt>
        <trkpt lat="29.507517" lon="103.326455"><ele>2999.2996</ele><time>2026-02-18T23:02:56.000Z</time></trkpt>
        <trkpt lat="29.507482" lon="103.326494"><ele>3001.1985</ele><time>2026-02-18T23:03:11.000Z</time></trkpt>
        <trkpt lat="29.507489" lon="103.326545"><ele>2998.8406</ele><time>2026-02-18T23:03:28.000Z</time></trkpt>
        <trkpt lat="29.507463" lon="103.326599"><ele>3000.216</ele><time>2026-02-18T23:03:43.000Z</time></trkpt>
        <trkpt lat="29.507439" lon="103.326649"><ele>3002.2202</ele><time>2026-02-18T23:04:01.000Z</time></trkpt>
        <trkpt lat="29.50742" lon="103.326699"><ele>3005.2285</ele><time>2026-02-18T23:04:24.000Z</time></trkpt>
        <trkpt lat="29.507376" lon="103.326704"><ele>3005.5476</ele><time>2026-02-18T23:04:33.000Z</time></trkpt>
        <trkpt lat="29.507326" lon="103.326689"><ele>3005.0212</ele><time>2026-02-18T23:04:52.000Z</time></trkpt>
        <trkpt lat="29.50728" lon="103.326687"><ele>3006.7769</ele><time>2026-02-18T23:05:00.000Z</time></trkpt>
        <trkpt lat="29.50723" lon="103.32669"><ele>3008.2827</ele><time>2026-02-18T23:05:11.000Z</time></trkpt>
        <trkpt lat="29.507198" lon="103.326728"><ele>3006.8303</ele><time>2026-02-18T23:05:31.000Z</time></trkpt>
        <trkpt lat="29.507173" lon="103.326774"><ele>3009.126</ele><time>2026-02-18T23:05:47.000Z</time></trkpt>
        <trkpt lat="29.50716" lon="103.326829"><ele>3011.8225</ele><time>2026-02-18T23:06:21.000Z</time></trkpt>
        <trkpt lat="29.507138" lon="103.326873"><ele>3017.2295</ele><time>2026-02-18T23:06:38.000Z</time></trkpt>
        <trkpt lat="29.507141" lon="103.32693"><ele>3019.5327</ele><time>2026-02-18T23:06:59.000Z</time></trkpt>
        <trkpt lat="29.507147" lon="103.326987"><ele>3017.5698</ele><time>2026-02-18T23:07:36.000Z</time></trkpt>
        <trkpt lat="29.507166" lon="103.327038"><ele>3019.0195</ele><time>2026-02-18T23:08:01.000Z</time></trkpt>
        <trkpt lat="29.50719" lon="103.327083"><ele>3016.4304</ele><time>2026-02-18T23:08:14.000Z</time></trkpt>
        <trkpt lat="29.507221" lon="103.327134"><ele>3017.6177</ele><time>2026-02-18T23:08:34.000Z</time></trkpt>
        <trkpt lat="29.507265" lon="103.327149"><ele>3018.589</ele><time>2026-02-18T23:08:46.000Z</time></trkpt>
        <trkpt lat="29.507304" lon="103.327179"><ele>3017.7285</ele><time>2026-02-18T23:08:55.000Z</time></trkpt>
        <trkpt lat="29.507335" lon="103.327225"><ele>3018.081</ele><time>2026-02-18T23:09:03.000Z</time></trkpt>
        <trkpt lat="29.507375" lon="103.327252"><ele>3018.3113</ele><time>2026-02-18T23:09:11.000Z</time></trkpt>
        <trkpt lat="29.507411" lon="103.327297"><ele>3016.645</ele><time>2026-02-18T23:09:27.000Z</time></trkpt>
        <trkpt lat="29.507453" lon="103.327323"><ele>3016.9238</ele><time>2026-02-18T23:09:57.000Z</time></trkpt>
        <trkpt lat="29.507489" lon="103.327352"><ele>3018.483</ele><time>2026-02-18T23:10:06.000Z</time></trkpt>
        <trkpt lat="29.507521" lon="103.327395"><ele>3018.8196</ele><time>2026-02-18T23:10:12.000Z</time></trkpt>
        <trkpt lat="29.507542" lon="103.327452"><ele>3019.593</ele><time>2026-02-18T23:10:19.000Z</time></trkpt>
        <trkpt lat="29.507551" lon="103.327507"><ele>3019.0625</ele><time>2026-02-18T23:10:24.000Z</time></trkpt>
        <trkpt lat="29.50755" lon="103.327565"><ele>3018.2434</ele><time>2026-02-18T23:10:31.000Z</time></trkpt>
        <trkpt lat="29.507557" lon="103.32762"><ele>3017.1472</ele><time>2026-02-18T23:10:38.000Z</time></trkpt>
        <trkpt lat="29.507595" lon="103.327662"><ele>3016.8472</ele><time>2026-02-18T23:10:45.000Z</time></trkpt>
        <trkpt lat="29.507642" lon="103.327694"><ele>3015.861</ele><time>2026-02-18T23:10:54.000Z</time></trkpt>
        <trkpt lat="29.507687" lon="103.327682"><ele>3016.5903</ele><time>2026-02-18T23:11:04.000Z</time></trkpt>
        <trkpt lat="29.507738" lon="103.327672"><ele>3016.8418</ele><time>2026-02-18T23:11:14.000Z</time></trkpt>
        <trkpt lat="29.507781" lon="103.327636"><ele>3016.8706</ele><time>2026-02-18T23:11:24.000Z</time></trkpt>
        <trkpt lat="29.507811" lon="103.327597"><ele>3017.4194</ele><time>2026-02-18T23:11:31.000Z</time></trkpt>
        <trkpt lat="29.507849" lon="103.327565"><ele>3018.163</ele><time>2026-02-18T23:11:40.000Z</time></trkpt>
        <trkpt lat="29.507895" lon="103.327562"><ele>3019.393</ele><time>2026-02-18T23:11:50.000Z</time></trkpt>
        <trkpt lat="29.507935" lon="103.327545"><ele>3019.5776</ele><time>2026-02-18T23:11:56.000Z</time></trkpt>
        <trkpt lat="29.507989" lon="103.32756"><ele>3016.9368</ele><time>2026-02-18T23:12:26.000Z</time></trkpt>
        <trkpt lat="29.508022" lon="103.327588"><ele>3017.2024</ele><time>2026-02-18T23:12:31.000Z</time></trkpt>
        <trkpt lat="29.508058" lon="103.327628"><ele>3018.1963</ele><time>2026-02-18T23:12:36.000Z</time></trkpt>
        <trkpt lat="29.508072" lon="103.327689"><ele>3018.8162</ele><time>2026-02-18T23:12:43.000Z</time></trkpt>
        <trkpt lat="29.508077" lon="103.327749"><ele>3019.6191</ele><time>2026-02-18T23:12:51.000Z</time></trkpt>
        <trkpt lat="29.508089" lon="103.327801"><ele>3019.1426</ele><time>2026-02-18T23:12:59.000Z</time></trkpt>
        <trkpt lat="29.508119" lon="103.327844"><ele>3019.2986</ele><time>2026-02-18T23:13:06.000Z</time></trkpt>
        <trkpt lat="29.508148" lon="103.327892"><ele>3017.827</ele><time>2026-02-18T23:13:19.000Z</time></trkpt>
        <trkpt lat="29.508158" lon="103.327941"><ele>3019.7332</ele><time>2026-02-18T23:13:30.000Z</time></trkpt>
        <trkpt lat="29.50816" lon="103.327993"><ele>3020.371</ele><time>2026-02-18T23:13:39.000Z</time></trkpt>
        <trkpt lat="29.50819" lon="103.328037"><ele>3021.0776</ele><time>2026-02-18T23:13:50.000Z</time></trkpt>
        <trkpt lat="29.508229" lon="103.328073"><ele>3018.6907</ele><time>2026-02-18T23:13:59.000Z</time></trkpt>
        <trkpt lat="29.508277" lon="103.32809"><ele>3017.0725</ele><time>2026-02-18T23:14:08.000Z</time></trkpt>
        <trkpt lat="29.508311" lon="103.328135"><ele>3022.6235</ele><time>2026-02-18T23:14:59.000Z</time></trkpt>
        <trkpt lat="29.50833" lon="103.328177"><ele>3023.5366</ele><time>2026-02-18T23:15:08.000Z</time></trkpt>
        <trkpt lat="29.508373" lon="103.328208"><ele>3026.3203</ele><time>2026-02-18T23:15:19.000Z</time></trkpt>
        <trkpt lat="29.508397" lon="103.328251"><ele>3028.5298</ele><time>2026-02-18T23:15:30.000Z</time></trkpt>
        <trkpt lat="29.508416" lon="103.328301"><ele>3029.753</ele><time>2026-02-18T23:15:41.000Z</time></trkpt>
        <trkpt lat="29.508463" lon="103.328317"><ele>3026.1943</ele><time>2026-02-18T23:16:03.000Z</time></trkpt>
        <trkpt lat="29.508507" lon="103.328286"><ele>3030.5933</ele><time>2026-02-18T23:18:51.000Z</time></trkpt>
        <trkpt lat="29.508541" lon="103.328271"><ele>3031.3354</ele><time>2026-02-18T23:18:57.000Z</time></trkpt>
        <trkpt lat="29.508598" lon="103.328284"><ele>3029.3877</ele><time>2026-02-18T23:19:04.000Z</time></trkpt>
        <trkpt lat="29.508644" lon="103.328306"><ele>3028.7485</ele><time>2026-02-18T23:19:10.000Z</time></trkpt>
        <trkpt lat="29.508689" lon="103.328324"><ele>3027.644</ele><time>2026-02-18T23:19:17.000Z</time></trkpt>
        <trkpt lat="29.508736" lon="103.328334"><ele>3024.6692</ele><time>2026-02-18T23:19:27.000Z</time></trkpt>
        <trkpt lat="29.508777" lon="103.328355"><ele>3025.1604</ele><time>2026-02-18T23:19:35.000Z</time></trkpt>
        <trkpt lat="29.508833" lon="103.328349"><ele>3023.432</ele><time>2026-02-18T23:19:49.000Z</time></trkpt>
        <trkpt lat="29.508877" lon="103.328337"><ele>3024.4287</ele><time>2026-02-18T23:19:57.000Z</time></trkpt>
        <trkpt lat="29.508926" lon="103.32834"><ele>3023.002</ele><time>2026-02-18T23:20:07.000Z</time></trkpt>
        <trkpt lat="29.508964" lon="103.32831"><ele>3021.6157</ele><time>2026-02-18T23:20:17.000Z</time></trkpt>
        <trkpt lat="29.509002" lon="103.328281"><ele>3020.511</ele><time>2026-02-18T23:20:25.000Z</time></trkpt>
        <trkpt lat="29.509035" lon="103.32824"><ele>3019.7383</ele><time>2026-02-18T23:20:34.000Z</time></trkpt>
        <trkpt lat="29.509079" lon="103.328216"><ele>3019.9817</ele><time>2026-02-18T23:20:40.000Z</time></trkpt>
        <trkpt lat="29.509104" lon="103.328166"><ele>3019.3977</ele><time>2026-02-18T23:20:53.000Z</time></trkpt>
        <trkpt lat="29.509136" lon="103.328135"><ele>3019.435</ele><time>2026-02-18T23:21:02.000Z</time></trkpt>
        <trkpt lat="29.509182" lon="103.328124"><ele>3018.944</ele><time>2026-02-18T23:21:09.000Z</time></trkpt>
        <trkpt lat="29.509234" lon="103.328125"><ele>3016.6482</ele><time>2026-02-18T23:21:16.000Z</time></trkpt>
        <trkpt lat="29.509285" lon="103.32811"><ele>3016.763</ele><time>2026-02-18T23:21:23.000Z</time></trkpt>
        <trkpt lat="29.509338" lon="103.328118"><ele>3015.6504</ele><time>2026-02-18T23:21:32.000Z</time></trkpt>
        <trkpt lat="29.509387" lon="103.328118"><ele>3016.0464</ele><time>2026-02-18T23:21:41.000Z</time></trkpt>
        <trkpt lat="29.509441" lon="103.328119"><ele>3013.789</ele><time>2026-02-18T23:21:50.000Z</time></trkpt>
        <trkpt lat="29.509485" lon="103.328107"><ele>3014.4216</ele><time>2026-02-18T23:21:57.000Z</time></trkpt>
        <trkpt lat="29.509534" lon="103.328103"><ele>3013.328</ele><time>2026-02-18T23:22:07.000Z</time></trkpt>
        <trkpt lat="29.509582" lon="103.328117"><ele>3013.0122</ele><time>2026-02-18T23:22:17.000Z</time></trkpt>
        <trkpt lat="29.509625" lon="103.328143"><ele>3012.39</ele><time>2026-02-18T23:22:26.000Z</time></trkpt>
        <trkpt lat="29.50967" lon="103.32816"><ele>3012.7805</ele><time>2026-02-18T23:22:34.000Z</time></trkpt>
        <trkpt lat="29.509718" lon="103.328168"><ele>3014.051</ele><time>2026-02-18T23:22:39.000Z</time></trkpt>
        <trkpt lat="29.509771" lon="103.328185"><ele>3011.618</ele><time>2026-02-18T23:22:47.000Z</time></trkpt>
        <trkpt lat="29.50981" lon="103.328214"><ele>3011.4084</ele><time>2026-02-18T23:22:55.000Z</time></trkpt>
        <trkpt lat="29.509837" lon="103.328265"><ele>3009.822</ele><time>2026-02-18T23:23:09.000Z</time></trkpt>
        <trkpt lat="29.509865" lon="103.328296"><ele>3010.1672</ele><time>2026-02-18T23:23:15.000Z</time></trkpt>
        <trkpt lat="29.509881" lon="103.328351"><ele>3011.641</ele><time>2026-02-18T23:23:27.000Z</time></trkpt>
        <trkpt lat="29.509867" lon="103.328407"><ele>3012.8809</ele><time>2026-02-18T23:23:47.000Z</time></trkpt>
        <trkpt lat="29.509888" lon="103.328453"><ele>3011.31</ele><time>2026-02-18T23:24:37.000Z</time></trkpt>
        <trkpt lat="29.509881" lon="103.32851"><ele>3018.4001</ele><time>2026-02-18T23:24:48.000Z</time></trkpt>
        <trkpt lat="29.509885" lon="103.328567"><ele>3020.8662</ele><time>2026-02-18T23:25:04.000Z</time></trkpt>
        <trkpt lat="29.509871" lon="103.328613"><ele>3022.2383</ele><time>2026-02-18T23:25:13.000Z</time></trkpt>
        <trkpt lat="29.509897" lon="103.328659"><ele>3023.6333</ele><time>2026-02-18T23:27:43.000Z</time></trkpt>
        <trkpt lat="29.509921" lon="103.328691"><ele>3023.793</ele><time>2026-02-18T23:27:50.000Z</time></trkpt>
        <trkpt lat="29.509955" lon="103.328742"><ele>3021.893</ele><time>2026-02-18T23:27:58.000Z</time></trkpt>
        <trkpt lat="29.509989" lon="103.32879"><ele>3020.5176</ele><time>2026-02-18T23:28:09.000Z</time></trkpt>
        <trkpt lat="29.510026" lon="103.32882"><ele>3023.9973</ele><time>2026-02-18T23:28:36.000Z</time></trkpt>
        <trkpt lat="29.510032" lon="103.32887"><ele>3025.6196</ele><time>2026-02-18T23:28:48.000Z</time></trkpt>
        <trkpt lat="29.51003" lon="103.328927"><ele>3025.8572</ele><time>2026-02-18T23:29:01.000Z</time></trkpt>
        <trkpt lat="29.510051" lon="103.328973"><ele>3030.3486</ele><time>2026-02-18T23:29:24.000Z</time></trkpt>
        <trkpt lat="29.510092" lon="103.329001"><ele>3029.1628</ele><time>2026-02-18T23:30:20.000Z</time></trkpt>
        <trkpt lat="29.510116" lon="103.329047"><ele>3028.582</ele><time>2026-02-18T23:30:36.000Z</time></trkpt>
        <trkpt lat="29.510154" lon="103.329082"><ele>3029.7087</ele><time>2026-02-18T23:30:50.000Z</time></trkpt>
        <trkpt lat="29.510197" lon="103.329108"><ele>3034.2998</ele><time>2026-02-18T23:31:04.000Z</time></trkpt>
        <trkpt lat="29.51023" lon="103.329146"><ele>3034.0813</ele><time>2026-02-18T23:31:44.000Z</time></trkpt>
        <trkpt lat="29.510269" lon="103.329176"><ele>3035.2327</ele><time>2026-02-18T23:31:55.000Z</time></trkpt>
        <trkpt lat="29.510297" lon="103.329224"><ele>3035.241</ele><time>2026-02-18T23:32:02.000Z</time></trkpt>
        <trkpt lat="29.510314" lon="103.32928"><ele>3038.0757</ele><time>2026-02-18T23:32:11.000Z</time></trkpt>
        <trkpt lat="29.510317" lon="103.329335"><ele>3038.78</ele><time>2026-02-18T23:32:20.000Z</time></trkpt>
        <trkpt lat="29.510344" lon="103.329382"><ele>3039.0298</ele><time>2026-02-18T23:32:42.000Z</time></trkpt>
        <trkpt lat="29.510355" lon="103.329426"><ele>3037.8108</ele><time>2026-02-18T23:32:51.000Z</time></trkpt>
        <trkpt lat="29.510369" lon="103.329478"><ele>3036.9485</ele><time>2026-02-18T23:32:57.000Z</time></trkpt>
        <trkpt lat="29.510387" lon="103.329531"><ele>3035.0679</ele><time>2026-02-18T23:33:04.000Z</time></trkpt>
        <trkpt lat="29.510411" lon="103.329579"><ele>3035.143</ele><time>2026-02-18T23:33:12.000Z</time></trkpt>
        <trkpt lat="29.510446" lon="103.329612"><ele>3036.261</ele><time>2026-02-18T23:33:19.000Z</time></trkpt>
        <trkpt lat="29.510478" lon="103.329653"><ele>3035.8235</ele><time>2026-02-18T23:33:25.000Z</time></trkpt>
        <trkpt lat="29.510518" lon="103.329696"><ele>3035.8052</ele><time>2026-02-18T23:33:33.000Z</time></trkpt>
        <trkpt lat="29.510554" lon="103.329732"><ele>3035.319</ele><time>2026-02-18T23:33:42.000Z</time></trkpt>
        <trkpt lat="29.510585" lon="103.329769"><ele>3033.967</ele><time>2026-02-18T23:33:50.000Z</time></trkpt>
        <trkpt lat="29.510612" lon="103.329815"><ele>3032.7075</ele><time>2026-02-18T23:33:57.000Z</time></trkpt>
        <trkpt lat="29.510638" lon="103.329862"><ele>3034.6433</ele><time>2026-02-18T23:34:03.000Z</time></trkpt>
        <trkpt lat="29.510671" lon="103.329915"><ele>3033.9023</ele><time>2026-02-18T23:34:10.000Z</time></trkpt>
        <trkpt lat="29.510698" lon="103.329961"><ele>3033.0103</ele><time>2026-02-18T23:34:17.000Z</time></trkpt>
        <trkpt lat="29.510733" lon="103.330005"><ele>3032.1855</ele><time>2026-02-18T23:34:25.000Z</time></trkpt>
        <trkpt lat="29.51075" lon="103.330057"><ele>3030.9988</ele><time>2026-02-18T23:34:32.000Z</time></trkpt>
        <trkpt lat="29.510762" lon="103.33011"><ele>3030.252</ele><time>2026-02-18T23:34:39.000Z</time></trkpt>
        <trkpt lat="29.51077" lon="103.330164"><ele>3029.1155</ele><time>2026-02-18T23:34:45.000Z</time></trkpt>
        <trkpt lat="29.510775" lon="103.330224"><ele>3027.2383</ele><time>2026-02-18T23:34:54.000Z</time></trkpt>
        <trkpt lat="29.510819" lon="103.330257"><ele>3026.9888</ele><time>2026-02-18T23:35:07.000Z</time></trkpt>
        <trkpt lat="29.51085" lon="103.330294"><ele>3029.3118</ele><time>2026-02-18T23:35:18.000Z</time></trkpt>
        <trkpt lat="29.510852" lon="103.330349"><ele>3029.138</ele><time>2026-02-18T23:35:32.000Z</time></trkpt>
        <trkpt lat="29.510841" lon="103.3304"><ele>3032.8972</ele><time>2026-02-18T23:38:00.000Z</time></trkpt>
        <trkpt lat="29.510814" lon="103.330437"><ele>3034.006</ele><time>2026-02-18T23:38:12.000Z</time></trkpt>
        <trkpt lat="29.510778" lon="103.330478"><ele>3036.136</ele><time>2026-02-18T23:38:18.000Z</time></trkpt>
        <trkpt lat="29.510743" lon="103.330526"><ele>3040.7173</ele><time>2026-02-18T23:38:46.000Z</time></trkpt>
        <trkpt lat="29.510728" lon="103.330576"><ele>3041.158</ele><time>2026-02-18T23:39:06.000Z</time></trkpt>
        <trkpt lat="29.510688" lon="103.330603"><ele>3046.8335</ele><time>2026-02-18T23:39:56.000Z</time></trkpt>
        <trkpt lat="29.510676" lon="103.330652"><ele>3044.6235</ele><time>2026-02-18T23:40:16.000Z</time></trkpt>
        <trkpt lat="29.510676" lon="103.330711"><ele>3045.179</ele><time>2026-02-18T23:40:43.000Z</time></trkpt>
        <trkpt lat="29.510646" lon="103.330751"><ele>3049.557</ele><time>2026-02-18T23:41:42.000Z</time></trkpt>
        <trkpt lat="29.510604" lon="103.330782"><ele>3053.6287</ele><time>2026-02-18T23:42:08.000Z</time></trkpt>
        <trkpt lat="29.510556" lon="103.330774"><ele>3057.4128</ele><time>2026-02-18T23:42:32.000Z</time></trkpt>
        <trkpt lat="29.510555" lon="103.330829"><ele>3053.4019</ele><time>2026-02-18T23:43:03.000Z</time></trkpt>
        <trkpt lat="29.510514" lon="103.330855"><ele>3060.7095</ele><time>2026-02-18T23:43:28.000Z</time></trkpt>
        <trkpt lat="29.510469" lon="103.330847"><ele>3063.308</ele><time>2026-02-18T23:43:43.000Z</time></trkpt>
        <trkpt lat="29.510449" lon="103.330893"><ele>3057.5989</ele><time>2026-02-18T23:47:46.000Z</time></trkpt>
        <trkpt lat="29.510407" lon="103.330892"><ele>3058.1943</ele><time>2026-02-18T23:47:57.000Z</time></trkpt>
        <trkpt lat="29.510361" lon="103.33089"><ele>3058.7034</ele><time>2026-02-18T23:48:02.000Z</time></trkpt>
        <trkpt lat="29.510303" lon="103.330896"><ele>3055.6677</ele><time>2026-02-18T23:48:13.000Z</time></trkpt>
        <trkpt lat="29.510262" lon="103.33092"><ele>3056.8572</ele><time>2026-02-18T23:48:22.000Z</time></trkpt>
        <trkpt lat="29.510219" lon="103.330947"><ele>3061.3376</ele><time>2026-02-18T23:48:35.000Z</time></trkpt>
        <trkpt lat="29.510196" lon="103.330993"><ele>3067.4128</ele><time>2026-02-18T23:48:51.000Z</time></trkpt>
        <trkpt lat="29.510209" lon="103.331049"><ele>3069.0627</ele><time>2026-02-18T23:49:26.000Z</time></trkpt>
        <trkpt lat="29.510169" lon="103.331076"><ele>3071.3806</ele><time>2026-02-18T23:49:52.000Z</time></trkpt>
        <trkpt lat="29.510129" lon="103.331108"><ele>3074.6008</ele><time>2026-02-18T23:50:08.000Z</time></trkpt>
        <trkpt lat="29.5101" lon="103.331151"><ele>3074.8164</ele><time>2026-02-18T23:50:37.000Z</time></trkpt>
        <trkpt lat="29.510089" lon="103.3312"><ele>3076.8</ele><time>2026-02-18T23:50:52.000Z</time></trkpt>
        <trkpt lat="29.51005" lon="103.331232"><ele>3079.7756</ele><time>2026-02-18T23:51:17.000Z</time></trkpt>
        <trkpt lat="29.510023" lon="103.331274"><ele>3080.914</ele><time>2026-02-18T23:51:38.000Z</time></trkpt>
        <trkpt lat="29.51" lon="103.331334"><ele>3081.5312</ele><time>2026-02-18T23:52:35.000Z</time></trkpt>
        <trkpt lat="29.510011" lon="103.331383"><ele>3080.458</ele><time>2026-02-18T23:52:53.000Z</time></trkpt>
        <trkpt lat="29.510022" lon="103.331437"><ele>3084.081</ele><time>2026-02-18T23:53:07.000Z</time></trkpt>
        <trkpt lat="29.510048" lon="103.331485"><ele>3088.6292</ele><time>2026-02-18T23:53:36.000Z</time></trkpt>
        <trkpt lat="29.510056" lon="103.331534"><ele>3088.245</ele><time>2026-02-18T23:53:47.000Z</time></trkpt>
        <trkpt lat="29.510057" lon="103.331594"><ele>3091.3088</ele><time>2026-02-18T23:53:57.000Z</time></trkpt>
        <trkpt lat="29.510064" lon="103.331652"><ele>3089.482</ele><time>2026-02-18T23:54:48.000Z</time></trkpt>
        <trkpt lat="29.51009" lon="103.331695"><ele>3092.4243</ele><time>2026-02-18T23:55:01.000Z</time></trkpt>
        <trkpt lat="29.510115" lon="103.331743"><ele>3093.8267</ele><time>2026-02-18T23:55:08.000Z</time></trkpt>
        <trkpt lat="29.510151" lon="103.33179"><ele>3093.866</ele><time>2026-02-18T23:55:15.000Z</time></trkpt>
        <trkpt lat="29.510151" lon="103.331846"><ele>3093.9985</ele><time>2026-02-18T23:57:00.000Z</time></trkpt>
        <trkpt lat="29.510156" lon="103.331902"><ele>3095.4265</ele><time>2026-02-18T23:58:27.000Z</time></trkpt>
        <trkpt lat="29.510148" lon="103.331954"><ele>3097.1375</ele><time>2026-02-18T23:58:39.000Z</time></trkpt>
        <trkpt lat="29.510115" lon="103.331991"><ele>3098.8108</ele><time>2026-02-18T23:58:46.000Z</time></trkpt>
        <trkpt lat="29.510082" lon="103.331956"><ele>3098.4517</ele><time>2026-02-18T23:59:00.000Z</time></trkpt>
        <trkpt lat="29.510109" lon="103.331987"><ele>3096.5837</ele><time>2026-02-18T23:59:11.000Z</time></trkpt>
        <trkpt lat="29.510135" lon="103.332046"><ele>3094.2454</ele><time>2026-02-18T23:59:20.000Z</time></trkpt>
        <trkpt lat="29.510177" lon="103.332063"><ele>3096.5625</ele><time>2026-02-18T23:59:29.000Z</time></trkpt>
        <trkpt lat="29.5102" lon="103.332125"><ele>3103.2292</ele><time>2026-02-19T00:00:14.000Z</time></trkpt>
        <trkpt lat="29.510211" lon="103.332167"><ele>3103.6538</ele><time>2026-02-19T00:00:18.000Z</time></trkpt>
        <trkpt lat="29.510185" lon="103.332195"><ele>3105.1287</ele><time>2026-02-19T00:00:20.000Z</time></trkpt>
        <trkpt lat="29.510169" lon="103.332244"><ele>3107.9858</ele><time>2026-02-19T00:00:23.000Z</time></trkpt>
        <trkpt lat="29.510152" lon="103.332299"><ele>3108.6816</ele><time>2026-02-19T00:00:26.000Z</time></trkpt>
        <trkpt lat="29.510131" lon="103.332357"><ele>3107.9116</ele><time>2026-02-19T00:00:29.000Z</time></trkpt>
        <trkpt lat="29.510109" lon="103.332341"><ele>3104.997</ele><time>2026-02-19T00:00:39.000Z</time></trkpt>
        <trkpt lat="29.510123" lon="103.332273"><ele>3103.4993</ele><time>2026-02-19T00:00:51.000Z</time></trkpt>
        <trkpt lat="29.510167" lon="103.332234"><ele>3103.5503</ele><time>2026-02-19T00:00:58.000Z</time></trkpt>
        <trkpt lat="29.510148" lon="103.332267"><ele>3104.9778</ele><time>2026-02-19T00:01:07.000Z</time></trkpt>
        <trkpt lat="29.510132" lon="103.332294"><ele>3104.2012</ele><time>2026-02-19T00:01:08.000Z</time></trkpt>
        <trkpt lat="29.510137" lon="103.332273"><ele>3105.33</ele><time>2026-02-19T00:01:18.000Z</time></trkpt>
        <trkpt lat="29.51016" lon="103.332274"><ele>3105.8074</ele><time>2026-02-19T00:01:19.000Z</time></trkpt>
        <trkpt lat="29.510173" lon="103.332255"><ele>3106.447</ele><time>2026-02-19T00:01:20.000Z</time></trkpt>
        <trkpt lat="29.510209" lon="103.332202"><ele>3105.535</ele><time>2026-02-19T00:01:23.000Z</time></trkpt>
        <trkpt lat="29.510233" lon="103.332124"><ele>3104.7532</ele><time>2026-02-19T00:01:26.000Z</time></trkpt>
        <trkpt lat="29.51023" lon="103.332032"><ele>3103.3696</ele><time>2026-02-19T00:01:31.000Z</time></trkpt>
        <trkpt lat="29.510253" lon="103.332054"><ele>3097.2263</ele><time>2026-02-19T00:01:47.000Z</time></trkpt>
        <trkpt lat="29.510211" lon="103.332045"><ele>3104.976</ele><time>2026-02-19T00:02:06.000Z</time></trkpt>
        <trkpt lat="29.510234" lon="103.332085"><ele>3104.915</ele><time>2026-02-19T00:02:18.000Z</time></trkpt>
        <trkpt lat="29.510266" lon="103.332143"><ele>3103.9343</ele><time>2026-02-19T00:02:32.000Z</time></trkpt>
        <trkpt lat="29.510292" lon="103.332186"><ele>3107.4324</ele><time>2026-02-19T00:03:05.000Z</time></trkpt>
        <trkpt lat="29.510284" lon="103.332134"><ele>3108.015</ele><time>2026-02-19T00:03:18.000Z</time></trkpt>
        <trkpt lat="29.510239" lon="103.33212"><ele>3105.4827</ele><time>2026-02-19T00:03:31.000Z</time></trkpt>
        <trkpt lat="29.510208" lon="103.332075"><ele>3102.2456</ele><time>2026-02-19T00:03:37.000Z</time></trkpt>
        <trkpt lat="29.510248" lon="103.332048"><ele>3100.1272</ele><time>2026-02-19T00:04:00.000Z</time></trkpt>
        <trkpt lat="29.510299" lon="103.331987"><ele>3098.997</ele><time>2026-02-19T00:04:11.000Z</time></trkpt>
        <trkpt lat="29.510286" lon="103.331925"><ele>3110.889</ele><time>2026-02-19T00:04:25.000Z</time></trkpt>
        <trkpt lat="29.510271" lon="103.331979"><ele>3111.2688</ele><time>2026-02-19T00:04:58.000Z</time></trkpt>
        <trkpt lat="29.510242" lon="103.332008"><ele>3108.4685</ele><time>2026-02-19T00:05:04.000Z</time></trkpt>
        <trkpt lat="29.510279" lon="103.332013"><ele>3108.8997</ele><time>2026-02-19T00:05:20.000Z</time></trkpt>
        <trkpt lat="29.51026" lon="103.331967"><ele>3110.5837</ele><time>2026-02-19T00:05:30.000Z</time></trkpt>
        <trkpt lat="29.51023" lon="103.332041"><ele>3104.6245</ele><time>2026-02-19T00:06:09.000Z</time></trkpt>
        <trkpt lat="29.510255" lon="103.332086"><ele>3104.168</ele><time>2026-02-19T00:06:30.000Z</time></trkpt>
        <trkpt lat="29.510247" lon="103.332052"><ele>3105.3481</ele><time>2026-02-19T00:06:33.000Z</time></trkpt>
        <trkpt lat="29.510221" lon="103.331978"><ele>3107.5452</ele><time>2026-02-19T00:06:48.000Z</time></trkpt>
        <trkpt lat="29.510265" lon="103.331999"><ele>3102.8608</ele><time>2026-02-19T00:07:09.000Z</time></trkpt>
        <trkpt lat="29.510277" lon="103.332056"><ele>3102.5212</ele><time>2026-02-19T00:07:30.000Z</time></trkpt>
        <trkpt lat="29.510254" lon="103.33201"><ele>3102.878</ele><time>2026-02-19T00:07:49.000Z</time></trkpt>
        <trkpt lat="29.510188" lon="103.332017"><ele>3100.0332</ele><time>2026-02-19T00:08:33.000Z</time></trkpt>
        <trkpt lat="29.510222" lon="103.332053"><ele>3100.3813</ele><time>2026-02-19T00:08:43.000Z</time></trkpt>
        <trkpt lat="29.510216" lon="103.332004"><ele>3100.9304</ele><time>2026-02-19T00:09:39.000Z</time></trkpt>
        <trkpt lat="29.510232" lon="103.332051"><ele>3104.3691</ele><time>2026-02-19T00:10:03.000Z</time></trkpt>
        <trkpt lat="29.510222" lon="103.332001"><ele>3104.5146</ele><time>2026-02-19T00:10:58.000Z</time></trkpt>
        <trkpt lat="29.510248" lon="103.332048"><ele>3100.7632</ele><time>2026-02-19T00:11:20.000Z</time></trkpt>
        <trkpt lat="29.510242" lon="103.332007"><ele>3103.1511</ele><time>2026-02-19T00:11:28.000Z</time></trkpt>
        <trkpt lat="29.510236" lon="103.33204"><ele>3103.6775</ele><time>2026-02-19T00:11:39.000Z</time></trkpt>
        <trkpt lat="29.510223" lon="103.331993"><ele>3104.7402</ele><time>2026-02-19T00:12:00.000Z</time></trkpt>
        <trkpt lat="29.510241" lon="103.332039"><ele>3100.39</ele><time>2026-02-19T00:12:26.000Z</time></trkpt>
        <trkpt lat="29.510219" lon="103.331976"><ele>3101.2026</ele><time>2026-02-19T00:12:46.000Z</time></trkpt>
        <trkpt lat="29.510244" lon="103.332021"><ele>3101.8953</ele><time>2026-02-19T00:13:11.000Z</time></trkpt>
        <trkpt lat="29.510245" lon="103.331965"><ele>3105.3079</ele><time>2026-02-19T00:13:41.000Z</time></trkpt>
        <trkpt lat="29.510262" lon="103.332001"><ele>3106.5347</ele><time>2026-02-19T00:13:49.000Z</time></trkpt>
        <trkpt lat="29.510244" lon="103.332048"><ele>3105.5352</ele><time>2026-02-19T00:13:53.000Z</time></trkpt>
        <trkpt lat="29.510259" lon="103.332013"><ele>3101.17</ele><time>2026-02-19T00:15:12.000Z</time></trkpt>
        <trkpt lat="29.510246" lon="103.332061"><ele>3100.334</ele><time>2026-02-19T00:15:40.000Z</time></trkpt>
        <trkpt lat="29.510224" lon="103.332025"><ele>3102.4773</ele><time>2026-02-19T00:15:54.000Z</time></trkpt>
        <trkpt lat="29.510235" lon="103.331962"><ele>3109.3306</ele><time>2026-02-19T00:18:22.000Z</time></trkpt>
        <trkpt lat="29.510227" lon="103.332011"><ele>3102.5073</ele><time>2026-02-19T00:18:28.000Z</time></trkpt>
        <trkpt lat="29.510211" lon="103.331964"><ele>3103.326</ele><time>2026-02-19T00:19:09.000Z</time></trkpt>
        <trkpt lat="29.51025" lon="103.331793"><ele>3118.5442</ele><time>2026-02-19T00:46:16.000Z</time></trkpt>
        <trkpt lat="29.510222" lon="103.331874"><ele>3112.029</ele><time>2026-02-19T01:01:31.000Z</time></trkpt>
        <trkpt lat="29.510195" lon="103.33192"><ele>3091.453</ele><time>2026-02-19T01:10:47.000Z</time></trkpt>
        <trkpt lat="29.510164" lon="103.331958"><ele>3091.443</ele><time>2026-02-19T01:14:17.000Z</time></trkpt>
        <trkpt lat="29.510133" lon="103.331997"><ele>3091.4543</ele><time>2026-02-19T01:19:23.000Z</time></trkpt>
        <trkpt lat="29.510062" lon="103.332086"><ele>3091.4453</ele><time>2026-02-19T01:23:57.000Z</time></trkpt>
        <trkpt lat="29.510075" lon="103.332088"><ele>3088.6248</ele><time>2026-02-19T01:24:01.000Z</time></trkpt>
        <trkpt lat="29.510152" lon="103.332118"><ele>3088.4226</ele><time>2026-02-19T01:24:02.000Z</time></trkpt>
        <trkpt lat="29.510209" lon="103.332106"><ele>3087.3333</ele><time>2026-02-19T01:24:05.000Z</time></trkpt>
        <trkpt lat="29.51024" lon="103.332093"><ele>3086.5427</ele><time>2026-02-19T01:24:12.000Z</time></trkpt>
        <trkpt lat="29.51022" lon="103.331979"><ele>3095.3464</ele><time>2026-02-19T01:30:51.000Z</time></trkpt>
        <trkpt lat="29.510107" lon="103.332182"><ele>3073.9167</ele><time>2026-02-19T02:37:51.000Z</time></trkpt>
        <trkpt lat="29.510129" lon="103.332134"><ele>3083.7488</ele><time>2026-02-19T02:38:54.000Z</time></trkpt>
        <trkpt lat="29.51014" lon="103.332077"><ele>3100.2375</ele><time>2026-02-19T03:03:06.000Z</time></trkpt>
        <trkpt lat="29.510137" lon="103.332157"><ele>3083.6768</ele><time>2026-02-19T03:04:19.000Z</time></trkpt>
        <trkpt lat="29.510133" lon="103.332105"><ele>3090.0125</ele><time>2026-02-19T03:09:04.000Z</time></trkpt>
        <trkpt lat="29.510151" lon="103.332056"><ele>3100.008</ele><time>2026-02-19T03:09:19.000Z</time></trkpt>
        <trkpt lat="29.510146" lon="103.331997"><ele>3103.8293</ele><time>2026-02-19T03:10:23.000Z</time></trkpt>
        <trkpt lat="29.510158" lon="103.332047"><ele>3100.368</ele><time>2026-02-19T03:10:38.000Z</time></trkpt>
        <trkpt lat="29.51019" lon="103.331971"><ele>3115.9573</ele><time>2026-02-19T03:11:46.000Z</time></trkpt>
        <trkpt lat="29.510137" lon="103.331969"><ele>3112.4417</ele><time>2026-02-19T03:12:07.000Z</time></trkpt>
        <trkpt lat="29.510134" lon="103.33201"><ele>3111.7534</ele><time>2026-02-19T03:12:10.000Z</time></trkpt>
        <trkpt lat="29.510171" lon="103.332053"><ele>3114.747</ele><time>2026-02-19T03:12:19.000Z</time></trkpt>
        <trkpt lat="29.510196" lon="103.332077"><ele>3113.6418</ele><time>2026-02-19T03:12:21.000Z</time></trkpt>
        <trkpt lat="29.510215" lon="103.332136"><ele>3113.608</ele><time>2026-02-19T03:12:24.000Z</time></trkpt>
        <trkpt lat="29.510202" lon="103.332219"><ele>3114.6565</ele><time>2026-02-19T03:12:28.000Z</time></trkpt>
        <trkpt lat="29.510171" lon="103.332278"><ele>3113.1567</ele><time>2026-02-19T03:12:31.000Z</time></trkpt>
        <trkpt lat="29.510105" lon="103.332316"><ele>3108.7239</ele><time>2026-02-19T03:12:47.000Z</time></trkpt>
        <trkpt lat="29.510068" lon="103.332285"><ele>3106.83</ele><time>2026-02-19T03:12:52.000Z</time></trkpt>
        <trkpt lat="29.51001" lon="103.332285"><ele>3106.7742</ele><time>2026-02-19T03:12:57.000Z</time></trkpt>
        <trkpt lat="29.510003" lon="103.332337"><ele>3105.149</ele><time>2026-02-19T03:13:06.000Z</time></trkpt>
        <trkpt lat="29.509974" lon="103.332374"><ele>3102.5488</ele><time>2026-02-19T03:13:49.000Z</time></trkpt>
        <trkpt lat="29.509991" lon="103.332336"><ele>3101.8447</ele><time>2026-02-19T03:13:55.000Z</time></trkpt>
        <trkpt lat="29.510041" lon="103.332323"><ele>3101.3408</ele><time>2026-02-19T03:14:01.000Z</time></trkpt>
        <trkpt lat="29.510086" lon="103.332291"><ele>3100.1594</ele><time>2026-02-19T03:14:06.000Z</time></trkpt>
        <trkpt lat="29.510113" lon="103.332257"><ele>3100.834</ele><time>2026-02-19T03:14:09.000Z</time></trkpt>
        <trkpt lat="29.510147" lon="103.332214"><ele>3100.9968</ele><time>2026-02-19T03:14:12.000Z</time></trkpt>
        <trkpt lat="29.510187" lon="103.332179"><ele>3101.3235</ele><time>2026-02-19T03:14:15.000Z</time></trkpt>
        <trkpt lat="29.510246" lon="103.332152"><ele>3100.4326</ele><time>2026-02-19T03:14:19.000Z</time></trkpt>
        <trkpt lat="29.51027" lon="103.332122"><ele>3099.0222</ele><time>2026-02-19T03:14:21.000Z</time></trkpt>
        <trkpt lat="29.510266" lon="103.33206"><ele>3096.9749</ele><time>2026-02-19T03:14:26.000Z</time></trkpt>
        <trkpt lat="29.510232" lon="103.332085"><ele>3097.827</ele><time>2026-02-19T03:14:34.000Z</time></trkpt>
        <trkpt lat="29.510195" lon="103.332057"><ele>3100.703</ele><time>2026-02-19T03:15:27.000Z</time></trkpt>
        <trkpt lat="29.510205" lon="103.331995"><ele>3104.3076</ele><time>2026-02-19T03:15:58.000Z</time></trkpt>
        <trkpt lat="29.510212" lon="103.332079"><ele>3103.6558</ele><time>2026-02-19T03:16:10.000Z</time></trkpt>
        <trkpt lat="29.510211" lon="103.332041"><ele>3105.8557</ele><time>2026-02-19T03:16:19.000Z</time></trkpt>
        <trkpt lat="29.510183" lon="103.331985"><ele>3106.6436</ele><time>2026-02-19T03:16:32.000Z</time></trkpt>
        <trkpt lat="29.510182" lon="103.332034"><ele>3101.6084</ele><time>2026-02-19T03:16:37.000Z</time></trkpt>
        <trkpt lat="29.510199" lon="103.332122"><ele>3098.0122</ele><time>2026-02-19T03:17:02.000Z</time></trkpt>
        <trkpt lat="29.510197" lon="103.332068"><ele>3099.9548</ele><time>2026-02-19T03:17:10.000Z</time></trkpt>
        <trkpt lat="29.510151" lon="103.33209"><ele>3099.1191</ele><time>2026-02-19T03:17:22.000Z</time></trkpt>
        <trkpt lat="29.510146" lon="103.332151"><ele>3099.4177</ele><time>2026-02-19T03:17:34.000Z</time></trkpt>
        <trkpt lat="29.510143" lon="103.3322"><ele>3098.3215</ele><time>2026-02-19T03:17:38.000Z</time></trkpt>
        <trkpt lat="29.510122" lon="103.332253"><ele>3101.23</ele><time>2026-02-19T03:17:43.000Z</time></trkpt>
        <trkpt lat="29.510103" lon="103.332312"><ele>3104.183</ele><time>2026-02-19T03:17:49.000Z</time></trkpt>
        <trkpt lat="29.510064" lon="103.332345"><ele>3108.5774</ele><time>2026-02-19T03:21:01.000Z</time></trkpt>
        <trkpt lat="29.510083" lon="103.332298"><ele>3107.5818</ele><time>2026-02-19T03:22:24.000Z</time></trkpt>
        <trkpt lat="29.510096" lon="103.332264"><ele>3108.0325</ele><time>2026-02-19T03:22:29.000Z</time></trkpt>
        <trkpt lat="29.510109" lon="103.332207"><ele>3107.5073</ele><time>2026-02-19T03:22:33.000Z</time></trkpt>
        <trkpt lat="29.510135" lon="103.33216"><ele>3106.5916</ele><time>2026-02-19T03:22:36.000Z</time></trkpt>
        <trkpt lat="29.51017" lon="103.332145"><ele>3106.1926</ele><time>2026-02-19T03:22:38.000Z</time></trkpt>
        <trkpt lat="29.510227" lon="103.332092"><ele>3103.1155</ele><time>2026-02-19T03:22:43.000Z</time></trkpt>
        <trkpt lat="29.510233" lon="103.33203"><ele>3104.391</ele><time>2026-02-19T03:22:47.000Z</time></trkpt>
        <trkpt lat="29.510208" lon="103.332072"><ele>3096.6436</ele><time>2026-02-19T03:23:40.000Z</time></trkpt>
        <trkpt lat="29.510209" lon="103.332025"><ele>3093.6753</ele><time>2026-02-19T03:23:53.000Z</time></trkpt>
        <trkpt lat="29.510184" lon="103.331991"><ele>3094.1528</ele><time>2026-02-19T03:23:57.000Z</time></trkpt>
        <trkpt lat="29.510131" lon="103.33198"><ele>3096.1133</ele><time>2026-02-19T03:24:05.000Z</time></trkpt>
        <trkpt lat="29.510084" lon="103.332011"><ele>3101.9873</ele><time>2026-02-19T03:24:16.000Z</time></trkpt>
        <trkpt lat="29.510093" lon="103.332063"><ele>3105.7847</ele><time>2026-02-19T03:24:25.000Z</time></trkpt>
        <trkpt lat="29.51014" lon="103.332069"><ele>3095.7478</ele><time>2026-02-19T03:24:32.000Z</time></trkpt>
        <trkpt lat="29.510148" lon="103.332026"><ele>3090.6501</ele><time>2026-02-19T03:24:37.000Z</time></trkpt>
        <trkpt lat="29.510102" lon="103.331971"><ele>3094.7446</ele><time>2026-02-19T03:24:46.000Z</time></trkpt>
        <trkpt lat="29.510108" lon="103.332014"><ele>3096.308</ele><time>2026-02-19T03:24:47.000Z</time></trkpt>
        <trkpt lat="29.510113" lon="103.332086"><ele>3102.3987</ele><time>2026-02-19T03:24:51.000Z</time></trkpt>
        <trkpt lat="29.510155" lon="103.332146"><ele>3104.949</ele><time>2026-02-19T03:24:55.000Z</time></trkpt>
        <trkpt lat="29.51019" lon="103.332217"><ele>3101.2666</ele><time>2026-02-19T03:25:03.000Z</time></trkpt>
        <trkpt lat="29.510135" lon="103.332219"><ele>3097.1562</ele><time>2026-02-19T03:25:20.000Z</time></trkpt>
        <trkpt lat="29.510155" lon="103.332238"><ele>3095.2007</ele><time>2026-02-19T03:25:21.000Z</time></trkpt>
        <trkpt lat="29.51022" lon="103.33221"><ele>3098.9976</ele><time>2026-02-19T03:25:38.000Z</time></trkpt>
        <trkpt lat="29.51023" lon="103.332175"><ele>3098.4646</ele><time>2026-02-19T03:25:41.000Z</time></trkpt>
        <trkpt lat="29.510268" lon="103.332194"><ele>3099.317</ele><time>2026-02-19T03:25:46.000Z</time></trkpt>
        <trkpt lat="29.510236" lon="103.332201"><ele>3102.635</ele><time>2026-02-19T03:25:49.000Z</time></trkpt>
        <trkpt lat="29.510195" lon="103.332174"><ele>3106.93</ele><time>2026-02-19T03:25:52.000Z</time></trkpt>
        <trkpt lat="29.510162" lon="103.332112"><ele>3113.154</ele><time>2026-02-19T03:25:58.000Z</time></trkpt>
        <trkpt lat="29.510146" lon="103.332049"><ele>3115.042</ele><time>2026-02-19T03:26:02.000Z</time></trkpt>
        <trkpt lat="29.510105" lon="103.332006"><ele>3113.7812</ele><time>2026-02-19T03:26:09.000Z</time></trkpt>
        <trkpt lat="29.510146" lon="103.332014"><ele>3099.9905</ele><time>2026-02-19T03:26:38.000Z</time></trkpt>
        <trkpt lat="29.510123" lon="103.332058"><ele>3099.6433</ele><time>2026-02-19T03:29:00.000Z</time></trkpt>
        <trkpt lat="29.510157" lon="103.332081"><ele>3096.0237</ele><time>2026-02-19T03:29:11.000Z</time></trkpt>
        <trkpt lat="29.510206" lon="103.332126"><ele>3092.881</ele><time>2026-02-19T03:29:19.000Z</time></trkpt>
        <trkpt lat="29.510245" lon="103.33213"><ele>3091.7483</ele><time>2026-02-19T03:29:22.000Z</time></trkpt>
        <trkpt lat="29.510303" lon="103.332139"><ele>3089.4646</ele><time>2026-02-19T03:29:29.000Z</time></trkpt>
        <trkpt lat="29.510269" lon="103.332135"><ele>3086.209</ele><time>2026-02-19T03:29:32.000Z</time></trkpt>
        <trkpt lat="29.510215" lon="103.332129"><ele>3085.6997</ele><time>2026-02-19T03:29:36.000Z</time></trkpt>
        <trkpt lat="29.510142" lon="103.332121"><ele>3088.3486</ele><time>2026-02-19T03:29:44.000Z</time></trkpt>
        <trkpt lat="29.510117" lon="103.332086"><ele>3088.993</ele><time>2026-02-19T03:29:48.000Z</time></trkpt>
        <trkpt lat="29.510098" lon="103.332039"><ele>3090.754</ele><time>2026-02-19T03:29:51.000Z</time></trkpt>
        <trkpt lat="29.510081" lon="103.332054"><ele>3092.3318</ele><time>2026-02-19T03:29:59.000Z</time></trkpt>
        <trkpt lat="29.510091" lon="103.332109"><ele>3090.836</ele><time>2026-02-19T03:30:04.000Z</time></trkpt>
        <trkpt lat="29.510134" lon="103.332134"><ele>3093.0325</ele><time>2026-02-19T03:30:09.000Z</time></trkpt>
        <trkpt lat="29.51014" lon="103.332181"><ele>3093.9294</ele><time>2026-02-19T03:30:16.000Z</time></trkpt>
        <trkpt lat="29.510102" lon="103.332167"><ele>3096.4893</ele><time>2026-02-19T03:30:23.000Z</time></trkpt>
        <trkpt lat="29.510135" lon="103.332178"><ele>3097.2432</ele><time>2026-02-19T03:30:29.000Z</time></trkpt>
        <trkpt lat="29.510148" lon="103.332129"><ele>3102.0222</ele><time>2026-02-19T03:30:48.000Z</time></trkpt>
        <trkpt lat="29.510137" lon="103.332081"><ele>3102.8037</ele><time>2026-02-19T03:30:55.000Z</time></trkpt>
        <trkpt lat="29.510122" lon="103.332036"><ele>3100.5774</ele><time>2026-02-19T03:30:59.000Z</time></trkpt>
        <trkpt lat="29.510162" lon="103.332043"><ele>3098.1057</ele><time>2026-02-19T03:31:29.000Z</time></trkpt>
        <trkpt lat="29.510201" lon="103.332087"><ele>3096.2625</ele><time>2026-02-19T03:31:44.000Z</time></trkpt>
        <trkpt lat="29.510177" lon="103.332041"><ele>3099.0334</ele><time>2026-02-19T03:32:00.000Z</time></trkpt>
        <trkpt lat="29.510221" lon="103.332071"><ele>3092.3794</ele><time>2026-02-19T03:32:42.000Z</time></trkpt>
        <trkpt lat="29.5102" lon="103.332026"><ele>3102.3616</ele><time>2026-02-19T03:33:20.000Z</time></trkpt>
        <trkpt lat="29.510185" lon="103.331974"><ele>3110.2288</ele><time>2026-02-19T03:34:01.000Z</time></trkpt>
        <trkpt lat="29.510172" lon="103.33203"><ele>3106.693</ele><time>2026-02-19T03:39:10.000Z</time></trkpt>
        <trkpt lat="29.51016" lon="103.331973"><ele>3109.8696</ele><time>2026-02-19T03:42:18.000Z</time></trkpt>
        <trkpt lat="29.510164" lon="103.332036"><ele>3101.1125</ele><time>2026-02-19T03:46:33.000Z</time></trkpt>
        <trkpt lat="29.510107" lon="103.331918"><ele>3103.107</ele><time>2026-02-19T03:59:43.000Z</time></trkpt>
        <trkpt lat="29.510175" lon="103.332004"><ele>3102.9504</ele><time>2026-02-19T03:59:59.000Z</time></trkpt>
        <trkpt lat="29.510155" lon="103.332095"><ele>3100.92</ele><time>2026-02-19T04:25:02.000Z</time></trkpt>
        <trkpt lat="29.510166" lon="103.332042"><ele>3098.9946</ele><time>2026-02-19T04:39:39.000Z</time></trkpt>
        <trkpt lat="29.510211" lon="103.331993"><ele>3104.4468</ele><time>2026-02-19T04:51:18.000Z</time></trkpt>
        <trkpt lat="29.510191" lon="103.332034"><ele>3099.6995</ele><time>2026-02-19T04:51:31.000Z</time></trkpt>
        <trkpt lat="29.510152" lon="103.332254"><ele>3082.2437</ele><time>2026-02-19T05:13:38.000Z</time></trkpt>
        <trkpt lat="29.510116" lon="103.332127"><ele>3085.9834</ele><time>2026-02-19T05:15:02.000Z</time></trkpt>
        <trkpt lat="29.510155" lon="103.332117"><ele>3087.9194</ele><time>2026-02-19T05:15:03.000Z</time></trkpt>
        <trkpt lat="29.510205" lon="103.332099"><ele>3091.9006</ele><time>2026-02-19T05:15:06.000Z</time></trkpt>
        <trkpt lat="29.510269" lon="103.332026"><ele>3092.6694</ele><time>2026-02-19T05:15:16.000Z</time></trkpt>
        <trkpt lat="29.510281" lon="103.331978"><ele>3093.255</ele><time>2026-02-19T05:15:19.000Z</time></trkpt>
        <trkpt lat="29.510251" lon="103.331974"><ele>3100.386</ele><time>2026-02-19T05:15:27.000Z</time></trkpt>
        <trkpt lat="29.510225" lon="103.331986"><ele>3108.8245</ele><time>2026-02-19T05:15:32.000Z</time></trkpt>
        <trkpt lat="29.510227" lon="103.331941"><ele>3111.2698</ele><time>2026-02-19T05:15:42.000Z</time></trkpt>
        <trkpt lat="29.510239" lon="103.331969"><ele>3107.2805</ele><time>2026-02-19T05:15:46.000Z</time></trkpt>
        <trkpt lat="29.51024" lon="103.332023"><ele>3107.4697</ele><time>2026-02-19T05:15:51.000Z</time></trkpt>
        <trkpt lat="29.510209" lon="103.332099"><ele>3115.7239</ele><time>2026-02-19T05:16:09.000Z</time></trkpt>
        <trkpt lat="29.510241" lon="103.332066"><ele>3115.0178</ele><time>2026-02-19T05:16:26.000Z</time></trkpt>
        <trkpt lat="29.510241" lon="103.332123"><ele>3108.151</ele><time>2026-02-19T05:16:41.000Z</time></trkpt>
        <trkpt lat="29.510253" lon="103.332075"><ele>3110.9778</ele><time>2026-02-19T05:16:50.000Z</time></trkpt>
        <trkpt lat="29.510265" lon="103.331994"><ele>3113.8555</ele><time>2026-02-19T05:18:13.000Z</time></trkpt>
        <trkpt lat="29.510242" lon="103.33205"><ele>3107.9504</ele><time>2026-02-19T05:18:19.000Z</time></trkpt>
        <trkpt lat="29.510247" lon="103.332014"><ele>3113.1794</ele><time>2026-02-19T05:18:33.000Z</time></trkpt>
        <trkpt lat="29.510204" lon="103.331992"><ele>3121.8997</ele><time>2026-02-19T05:19:16.000Z</time></trkpt>
        <trkpt lat="29.510252" lon="103.332049"><ele>3095.181</ele><time>2026-02-19T05:19:51.000Z</time></trkpt>
        <trkpt lat="29.510231" lon="103.332002"><ele>3090.6052</ele><time>2026-02-19T05:20:03.000Z</time></trkpt>
        <trkpt lat="29.510197" lon="103.331961"><ele>3091.2966</ele><time>2026-02-19T05:20:14.000Z</time></trkpt>
        <trkpt lat="29.510165" lon="103.331913"><ele>3094.3132</ele><time>2026-02-19T05:20:30.000Z</time></trkpt>
        <trkpt lat="29.510191" lon="103.331962"><ele>3105.9321</ele><time>2026-02-19T05:21:01.000Z</time></trkpt>
        <trkpt lat="29.510242" lon="103.331969"><ele>3112.708</ele><time>2026-02-19T05:21:13.000Z</time></trkpt>
        <trkpt lat="29.510181" lon="103.331938"><ele>3112.1733</ele><time>2026-02-19T05:21:24.000Z</time></trkpt>
        <trkpt lat="29.510201" lon="103.331988"><ele>3100.3318</ele><time>2026-02-19T05:21:32.000Z</time></trkpt>
        <trkpt lat="29.510214" lon="103.332034"><ele>3097.9631</ele><time>2026-02-19T05:21:35.000Z</time></trkpt>
        <trkpt lat="29.510184" lon="103.332082"><ele>3099.532</ele><time>2026-02-19T05:21:47.000Z</time></trkpt>
        <trkpt lat="29.510134" lon="103.332082"><ele>3103.9106</ele><time>2026-02-19T05:21:58.000Z</time></trkpt>
        <trkpt lat="29.510204" lon="103.332059"><ele>3108.133</ele><time>2026-02-19T05:22:14.000Z</time></trkpt>
        <trkpt lat="29.510224" lon="103.332084"><ele>3103.702</ele><time>2026-02-19T05:22:16.000Z</time></trkpt>
        <trkpt lat="29.51019" lon="103.33208"><ele>3111.7686</ele><time>2026-02-19T05:22:34.000Z</time></trkpt>
        <trkpt lat="29.510227" lon="103.332057"><ele>3105.1968</ele><time>2026-02-19T05:23:07.000Z</time></trkpt>
        <trkpt lat="29.510231" lon="103.332112"><ele>3104.029</ele><time>2026-02-19T05:23:13.000Z</time></trkpt>
        <trkpt lat="29.51022" lon="103.332096"><ele>3105.5535</ele><time>2026-02-19T05:23:15.000Z</time></trkpt>
        <trkpt lat="29.510189" lon="103.332037"><ele>3109.711</ele><time>2026-02-19T05:23:22.000Z</time></trkpt>
        <trkpt lat="29.510175" lon="103.332059"><ele>3102.0635</ele><time>2026-02-19T05:23:27.000Z</time></trkpt>
        <trkpt lat="29.510176" lon="103.332115"><ele>3093.8572</ele><time>2026-02-19T05:23:32.000Z</time></trkpt>
        <trkpt lat="29.510204" lon="103.332178"><ele>3086.5796</ele><time>2026-02-19T05:23:46.000Z</time></trkpt>
        <trkpt lat="29.510229" lon="103.33214"><ele>3091.5989</ele><time>2026-02-19T05:23:51.000Z</time></trkpt>
        <trkpt lat="29.510218" lon="103.332072"><ele>3102.589</ele><time>2026-02-19T05:24:03.000Z</time></trkpt>
        <trkpt lat="29.510215" lon="103.332012"><ele>3106.3235</ele><time>2026-02-19T05:24:19.000Z</time></trkpt>
        <trkpt lat="29.510192" lon="103.331969"><ele>3097.7031</ele><time>2026-02-19T05:24:29.000Z</time></trkpt>
        <trkpt lat="29.510201" lon="103.332005"><ele>3093.8772</ele><time>2026-02-19T05:24:35.000Z</time></trkpt>
        <trkpt lat="29.510209" lon="103.332059"><ele>3091.5276</ele><time>2026-02-19T05:24:39.000Z</time></trkpt>
        <trkpt lat="29.510252" lon="103.332123"><ele>3085.7852</ele><time>2026-02-19T05:24:49.000Z</time></trkpt>
        <trkpt lat="29.510267" lon="103.332156"><ele>3084.4446</ele><time>2026-02-19T05:24:51.000Z</time></trkpt>
        <trkpt lat="29.510231" lon="103.332196"><ele>3085.5725</ele><time>2026-02-19T05:25:19.000Z</time></trkpt>
        <trkpt lat="29.510201" lon="103.332155"><ele>3092.5417</ele><time>2026-02-19T05:25:27.000Z</time></trkpt>
        <trkpt lat="29.510196" lon="103.3321"><ele>3097.2424</ele><time>2026-02-19T05:25:33.000Z</time></trkpt>
        <trkpt lat="29.510196" lon="103.332026"><ele>3103.5232</ele><time>2026-02-19T05:25:52.000Z</time></trkpt>
        <trkpt lat="29.510177" lon="103.332075"><ele>3100.6072</ele><time>2026-02-19T05:26:10.000Z</time></trkpt>
        <trkpt lat="29.510221" lon="103.332069"><ele>3103.1174</ele><time>2026-02-19T05:26:21.000Z</time></trkpt>
        <trkpt lat="29.510255" lon="103.332027"><ele>3104.7493</ele><time>2026-02-19T05:26:30.000Z</time></trkpt>
        <trkpt lat="29.510287" lon="103.332073"><ele>3106.1638</ele><time>2026-02-19T05:26:39.000Z</time></trkpt>
        <trkpt lat="29.510286" lon="103.332156"><ele>3104.029</ele><time>2026-02-19T05:26:54.000Z</time></trkpt>
        <trkpt lat="29.510294" lon="103.332196"><ele>3105.0383</ele><time>2026-02-19T05:26:55.000Z</time></trkpt>
        <trkpt lat="29.510267" lon="103.332233"><ele>3110.7778</ele><time>2026-02-19T05:27:00.000Z</time></trkpt>
        <trkpt lat="29.510236" lon="103.332218"><ele>3115.1362</ele><time>2026-02-19T05:27:03.000Z</time></trkpt>
        <trkpt lat="29.510232" lon="103.332149"><ele>3113.124</ele><time>2026-02-19T05:27:19.000Z</time></trkpt>
        <trkpt lat="29.510227" lon="103.332092"><ele>3112.1216</ele><time>2026-02-19T05:27:24.000Z</time></trkpt>
        <trkpt lat="29.510218" lon="103.332005"><ele>3111.386</ele><time>2026-02-19T05:27:45.000Z</time></trkpt>
        <trkpt lat="29.510214" lon="103.331944"><ele>3111.621</ele><time>2026-02-19T05:27:50.000Z</time></trkpt>
        <trkpt lat="29.510207" lon="103.331856"><ele>3108.9722</ele><time>2026-02-19T05:27:56.000Z</time></trkpt>
        <trkpt lat="29.510192" lon="103.331895"><ele>3095.6165</ele><time>2026-02-19T05:28:09.000Z</time></trkpt>
        <trkpt lat="29.510187" lon="103.331871"><ele>3093.1873</ele><time>2026-02-19T05:28:12.000Z</time></trkpt>
        <trkpt lat="29.510183" lon="103.331831"><ele>3092.0322</ele><time>2026-02-19T05:28:14.000Z</time></trkpt>
        <trkpt lat="29.510182" lon="103.331835"><ele>3091.7114</ele><time>2026-02-19T05:28:15.000Z</time></trkpt>
        <trkpt lat="29.510173" lon="103.33189"><ele>3091.8755</ele><time>2026-02-19T05:28:21.000Z</time></trkpt>
        <trkpt lat="29.510173" lon="103.33196"><ele>3092.8628</ele><time>2026-02-19T05:28:25.000Z</time></trkpt>
        <trkpt lat="29.51021" lon="103.331954"><ele>3101.273</ele><time>2026-02-19T05:28:42.000Z</time></trkpt>
        <trkpt lat="29.510191" lon="103.332008"><ele>3107.9019</ele><time>2026-02-19T05:29:21.000Z</time></trkpt>
        <trkpt lat="29.510195" lon="103.332066"><ele>3105.137</ele><time>2026-02-19T05:29:38.000Z</time></trkpt>
        <trkpt lat="29.510184" lon="103.332014"><ele>3107.8782</ele><time>2026-02-19T05:30:24.000Z</time></trkpt>
        <trkpt lat="29.51019" lon="103.331962"><ele>3112.1157</ele><time>2026-02-19T05:31:31.000Z</time></trkpt>
        <trkpt lat="29.510198" lon="103.33205"><ele>3105.2434</ele><time>2026-02-19T05:33:09.000Z</time></trkpt>
        <trkpt lat="29.510199" lon="103.331981"><ele>3114.469</ele><time>2026-02-19T05:34:00.000Z</time></trkpt>
        <trkpt lat="29.510166" lon="103.331939"><ele>3117.75</ele><time>2026-02-19T05:35:35.000Z</time></trkpt>
        <trkpt lat="29.510174" lon="103.332005"><ele>3109.406</ele><time>2026-02-19T05:36:47.000Z</time></trkpt>
        <trkpt lat="29.510163" lon="103.332057"><ele>3104.4954</ele><time>2026-02-19T05:45:18.000Z</time></trkpt>
        <trkpt lat="29.510153" lon="103.332114"><ele>3101.021</ele><time>2026-02-19T05:45:31.000Z</time></trkpt>
        <trkpt lat="29.51016" lon="103.33207"><ele>3101.8643</ele><time>2026-02-19T05:45:44.000Z</time></trkpt>
        <trkpt lat="29.510131" lon="103.332117"><ele>3083.526</ele><time>2026-02-19T06:14:04.000Z</time></trkpt>
        <trkpt lat="29.510102" lon="103.33202"><ele>3091.8748</ele><time>2026-02-19T06:18:06.000Z</time></trkpt>
        <trkpt lat="29.510127" lon="103.332027"><ele>3093.4778</ele><time>2026-02-19T06:18:07.000Z</time></trkpt>
        <trkpt lat="29.510119" lon="103.331998"><ele>3090.1228</ele><time>2026-02-19T06:18:09.000Z</time></trkpt>
        <trkpt lat="29.510126" lon="103.332006"><ele>3082.9375</ele><time>2026-02-19T06:18:13.000Z</time></trkpt>
        <trkpt lat="29.510072" lon="103.332068"><ele>3103.9673</ele><time>2026-02-19T06:25:38.000Z</time></trkpt>
        <trkpt lat="29.510047" lon="103.332123"><ele>3085.121</ele><time>2026-02-19T06:28:28.000Z</time></trkpt>
        <trkpt lat="29.510042" lon="103.332178"><ele>3082.787</ele><time>2026-02-19T06:28:33.000Z</time></trkpt>
        <trkpt lat="29.510012" lon="103.332253"><ele>3080.8262</ele><time>2026-02-19T06:28:42.000Z</time></trkpt>
        <trkpt lat="29.510027" lon="103.332228"><ele>3082.1643</ele><time>2026-02-19T06:28:46.000Z</time></trkpt>
        <trkpt lat="29.510009" lon="103.33231"><ele>3074.5835</ele><time>2026-02-19T06:31:22.000Z</time></trkpt>
        <trkpt lat="29.51002" lon="103.332256"><ele>3079.5454</ele><time>2026-02-19T06:31:43.000Z</time></trkpt>
        <trkpt lat="29.510036" lon="103.332206"><ele>3089.306</ele><time>2026-02-19T06:32:41.000Z</time></trkpt>
        <trkpt lat="29.510047" lon="103.332121"><ele>3090.7676</ele><time>2026-02-19T06:33:10.000Z</time></trkpt>
        <trkpt lat="29.510049" lon="103.332061"><ele>3085.6692</ele><time>2026-02-19T07:00:06.000Z</time></trkpt>
        <trkpt lat="29.51003" lon="103.33211"><ele>3075.5168</ele><time>2026-02-19T07:02:06.000Z</time></trkpt>
        <trkpt lat="29.510018" lon="103.332059"><ele>3074.1284</ele><time>2026-02-19T07:02:15.000Z</time></trkpt>
        <trkpt lat="29.509982" lon="103.332099"><ele>3075.7034</ele><time>2026-02-19T07:03:59.000Z</time></trkpt>
        <trkpt lat="29.509974" lon="103.332299"><ele>3071.2063</ele><time>2026-02-19T07:06:17.000Z</time></trkpt>
        <trkpt lat="29.510036" lon="103.332021"><ele>3079.9263</ele><time>2026-02-19T07:11:52.000Z</time></trkpt>
        <trkpt lat="29.510064" lon="103.331967"><ele>3076.426</ele><time>2026-02-19T07:14:35.000Z</time></trkpt>
        <trkpt lat="29.510027" lon="103.331995"><ele>3074.0068</ele><time>2026-02-19T07:14:44.000Z</time></trkpt>
        <trkpt lat="29.509981" lon="103.331993"><ele>3070.9062</ele><time>2026-02-19T07:14:50.000Z</time></trkpt>
        <trkpt lat="29.509984" lon="103.332042"><ele>3070.2827</ele><time>2026-02-19T07:15:11.000Z</time></trkpt>
        <trkpt lat="29.51002" lon="103.332077"><ele>3099.3408</ele><time>2026-02-19T07:16:17.000Z</time></trkpt>
        <trkpt lat="29.510033" lon="103.332093"><ele>3099.3816</ele><time>2026-02-19T07:18:03.000Z</time></trkpt>
        <trkpt lat="29.510041" lon="103.332104"><ele>3099.3694</ele><time>2026-02-19T07:26:14.000Z</time></trkpt>
        <trkpt lat="29.5101" lon="103.332041"><ele>3093.7144</ele><time>2026-02-19T08:56:30.000Z</time></trkpt>
        <trkpt lat="29.510073" lon="103.332007"><ele>3093.2554</ele><time>2026-02-19T08:56:36.000Z</time></trkpt>
        <trkpt lat="29.510062" lon="103.332069"><ele>3084.379</ele><time>2026-02-19T09:18:28.000Z</time></trkpt>
        <trkpt lat="29.510035" lon="103.332142"><ele>3088.8755</ele><time>2026-02-19T09:18:54.000Z</time></trkpt>
        <trkpt lat="29.510042" lon="103.33204"><ele>3086.004</ele><time>2026-02-19T09:20:57.000Z</time></trkpt>
        <trkpt lat="29.510043" lon="103.332038"><ele>3086.0117</ele><time>2026-02-19T09:21:17.000Z</time></trkpt>
        <trkpt lat="29.510041" lon="103.332042"><ele>3086.2258</ele><time>2026-02-19T09:21:24.000Z</time></trkpt>
        <trkpt lat="29.510043" lon="103.33204"><ele>3086.098</ele><time>2026-02-19T09:21:35.000Z</time></trkpt>
        <trkpt lat="29.510043" lon="103.332039"><ele>3086.0698</ele><time>2026-02-19T09:22:24.000Z</time></trkpt>
        <trkpt lat="29.510108" lon="103.3321"><ele>3090.425</ele><time>2026-02-19T09:23:38.000Z</time></trkpt>
        <trkpt lat="29.51009" lon="103.332083"><ele>3086.777</ele><time>2026-02-19T09:23:42.000Z</time></trkpt>
        <trkpt lat="29.510079" lon="103.332073"><ele>3087.4377</ele><time>2026-02-19T09:23:48.000Z</time></trkpt>
        <trkpt lat="29.510081" lon="103.332096"><ele>3091.0256</ele><time>2026-02-19T09:24:05.000Z</time></trkpt>
        <trkpt lat="29.510071" lon="103.332073"><ele>3083.7578</ele><time>2026-02-19T09:24:46.000Z</time></trkpt>
        <trkpt lat="29.510042" lon="103.332029"><ele>3074.3496</ele><time>2026-02-19T09:25:55.000Z</time></trkpt>
        <trkpt lat="29.509999" lon="103.33197"><ele>3070.826</ele><time>2026-02-19T09:29:01.000Z</time></trkpt>
        <trkpt lat="29.510031" lon="103.332041"><ele>3086.289</ele><time>2026-02-19T09:29:50.000Z</time></trkpt>
        <trkpt lat="29.510045" lon="103.332108"><ele>3079.742</ele><time>2026-02-19T09:33:35.000Z</time></trkpt>
        <trkpt lat="29.510053" lon="103.332054"><ele>3079.486</ele><time>2026-02-19T09:34:15.000Z</time></trkpt>
        <trkpt lat="29.510019" lon="103.332013"><ele>3069.9985</ele><time>2026-02-19T09:34:29.000Z</time></trkpt>
        <trkpt lat="29.510046" lon="103.332072"><ele>3099.2637</ele><time>2026-02-19T09:37:32.000Z</time></trkpt>
        <trkpt lat="29.509995" lon="103.331984"><ele>3095.4597</ele><time>2026-02-19T09:41:24.000Z</time></trkpt>
        <trkpt lat="29.509993" lon="103.332012"><ele>3093.1187</ele><time>2026-02-19T09:41:25.000Z</time></trkpt>
        <trkpt lat="29.510029" lon="103.332083"><ele>3099.3694</ele><time>2026-02-19T10:03:12.000Z</time></trkpt>
        <trkpt lat="29.51011" lon="103.332256"><ele>3099.3623</ele><time>2026-02-19T10:18:45.000Z</time></trkpt>
        <trkpt lat="29.510082" lon="103.332195"><ele>3097.8638</ele><time>2026-02-19T10:18:51.000Z</time></trkpt>
        <trkpt lat="29.510072" lon="103.33217"><ele>3098.946</ele><time>2026-02-19T10:18:58.000Z</time></trkpt>
        <trkpt lat="29.510028" lon="103.332137"><ele>3098.5374</ele><time>2026-02-19T10:19:02.000Z</time></trkpt>
        <trkpt lat="29.509998" lon="103.332024"><ele>3094.3093</ele><time>2026-02-19T10:19:04.000Z</time></trkpt>
        <trkpt lat="29.509992" lon="103.331988"><ele>3093.281</ele><time>2026-02-19T10:19:05.000Z</time></trkpt>
        <trkpt lat="29.509999" lon="103.331965"><ele>3092.8574</ele><time>2026-02-19T10:19:08.000Z</time></trkpt>
        <trkpt lat="29.51005" lon="103.332053"><ele>3098.552</ele><time>2026-02-19T10:19:28.000Z</time></trkpt>
        <trkpt lat="29.510062" lon="103.332109"><ele>3099.783</ele><time>2026-02-19T10:19:32.000Z</time></trkpt>
        <trkpt lat="29.510081" lon="103.33206"><ele>3101.47</ele><time>2026-02-19T10:19:52.000Z</time></trkpt>
        <trkpt lat="29.510041" lon="103.332"><ele>3098.7942</ele><time>2026-02-19T10:20:51.000Z</time></trkpt>
        <trkpt lat="29.510063" lon="103.332046"><ele>3096.207</ele><time>2026-02-19T10:28:03.000Z</time></trkpt>
        <trkpt lat="29.510048" lon="103.332101"><ele>3099.3093</ele><time>2026-02-19T10:32:28.000Z</time></trkpt>
        <trkpt lat="29.510056" lon="103.332136"><ele>3101.1294</ele><time>2026-02-19T10:32:30.000Z</time></trkpt>
        <trkpt lat="29.510089" lon="103.332196"><ele>3101.5183</ele><time>2026-02-19T10:32:36.000Z</time></trkpt>
        <trkpt lat="29.510074" lon="103.332237"><ele>3103.1094</ele><time>2026-02-19T10:32:38.000Z</time></trkpt>
        <trkpt lat="29.510051" lon="103.332312"><ele>3104.4019</ele><time>2026-02-19T10:32:42.000Z</time></trkpt>
        <trkpt lat="29.510036" lon="103.332293"><ele>3104.9458</ele><time>2026-02-19T10:32:50.000Z</time></trkpt>
        <trkpt lat="29.51004" lon="103.332246"><ele>3102.4573</ele><time>2026-02-19T10:32:52.000Z</time></trkpt>
        <trkpt lat="29.510058" lon="103.332196"><ele>3097.5513</ele><time>2026-02-19T10:32:54.000Z</time></trkpt>
        <trkpt lat="29.51008" lon="103.332146"><ele>3093.7922</ele><time>2026-02-19T10:32:56.000Z</time></trkpt>
        <trkpt lat="29.510075" lon="103.332107"><ele>3094.3765</ele><time>2026-02-19T10:32:58.000Z</time></trkpt>
        <trkpt lat="29.510067" lon="103.332043"><ele>3095.1833</ele><time>2026-02-19T10:33:02.000Z</time></trkpt>
        <trkpt lat="29.510111" lon="103.332092"><ele>3095.2886</ele><time>2026-02-19T10:33:30.000Z</time></trkpt>
        <trkpt lat="29.510097" lon="103.33218"><ele>3094.168</ele><time>2026-02-19T10:33:35.000Z</time></trkpt>
        <trkpt lat="29.510093" lon="103.332165"><ele>3093.9446</ele><time>2026-02-19T10:33:38.000Z</time></trkpt>
        <trkpt lat="29.510063" lon="103.332097"><ele>3089.357</ele><time>2026-02-19T10:33:44.000Z</time></trkpt>
        <trkpt lat="29.510015" lon="103.332041"><ele>3086.4304</ele><time>2026-02-19T10:33:50.000Z</time></trkpt>
        <trkpt lat="29.509949" lon="103.331994"><ele>3084.073</ele><time>2026-02-19T10:33:53.000Z</time></trkpt>
        <trkpt lat="29.509945" lon="103.332013"><ele>3083.9111</ele><time>2026-02-19T10:33:55.000Z</time></trkpt>
        <trkpt lat="29.510004" lon="103.332086"><ele>3082.969</ele><time>2026-02-19T10:34:21.000Z</time></trkpt>
        <trkpt lat="29.51001" lon="103.332128"><ele>3082.1624</ele><time>2026-02-19T10:34:23.000Z</time></trkpt>
        <trkpt lat="29.510028" lon="103.332171"><ele>3081.6655</ele><time>2026-02-19T10:34:25.000Z</time></trkpt>
        <trkpt lat="29.510038" lon="103.332204"><ele>3081.0002</ele><time>2026-02-19T10:34:36.000Z</time></trkpt>
        <trkpt lat="29.510029" lon="103.332087"><ele>3086.8865</ele><time>2026-02-19T10:34:44.000Z</time></trkpt>
        <trkpt lat="29.51004" lon="103.332018"><ele>3089.1482</ele><time>2026-02-19T10:34:59.000Z</time></trkpt>
        <trkpt lat="29.510075" lon="103.331985"><ele>3082.8357</ele><time>2026-02-19T10:35:37.000Z</time></trkpt>
        <trkpt lat="29.510063" lon="103.332061"><ele>3084.001</ele><time>2026-02-19T10:35:55.000Z</time></trkpt>
        <trkpt lat="29.510051" lon="103.332013"><ele>3088.279</ele><time>2026-02-19T10:38:29.000Z</time></trkpt>
        <trkpt lat="29.510007" lon="103.332038"><ele>3082.9849</ele><time>2026-02-19T10:38:57.000Z</time></trkpt>
        <trkpt lat="29.510004" lon="103.332005"><ele>3084.3394</ele><time>2026-02-19T10:39:03.000Z</time></trkpt>
        <trkpt lat="29.510023" lon="103.332022"><ele>3084.5815</ele><time>2026-02-19T10:39:07.000Z</time></trkpt>
        <trkpt lat="29.510073" lon="103.33207"><ele>3093.6914</ele><time>2026-02-19T10:39:41.000Z</time></trkpt>
        <trkpt lat="29.510118" lon="103.332091"><ele>3078.8008</ele><time>2026-02-19T10:40:32.000Z</time></trkpt>
        <trkpt lat="29.510078" lon="103.33205"><ele>3093.1416</ele><time>2026-02-19T10:42:18.000Z</time></trkpt>
        <trkpt lat="29.510038" lon="103.331964"><ele>3092.6</ele><time>2026-02-19T10:43:16.000Z</time></trkpt>
        <trkpt lat="29.510073" lon="103.332017"><ele>3088.359</ele><time>2026-02-19T10:44:08.000Z</time></trkpt>
        <trkpt lat="29.510105" lon="103.332059"><ele>3093.158</ele><time>2026-02-19T10:45:30.000Z</time></trkpt>
        <trkpt lat="29.510059" lon="103.33208"><ele>3099.359</ele><time>2026-02-19T10:47:33.000Z</time></trkpt>
        <trkpt lat="29.510052" lon="103.332094"><ele>3099.4414</ele><time>2026-02-19T10:48:05.000Z</time></trkpt>
        <trkpt lat="29.510132" lon="103.332227"><ele>3102.588</ele><time>2026-02-19T10:48:47.000Z</time></trkpt>
        <trkpt lat="29.51008" lon="103.332186"><ele>3073.436</ele><time>2026-02-19T10:48:52.000Z</time></trkpt>
        <trkpt lat="29.510075" lon="103.33213"><ele>3078.4788</ele><time>2026-02-19T10:48:57.000Z</time></trkpt>
        <trkpt lat="29.510079" lon="103.332115"><ele>3083.6887</ele><time>2026-02-19T10:49:00.000Z</time></trkpt>
        <trkpt lat="29.510058" lon="103.332071"><ele>3103.2695</ele><time>2026-02-19T10:49:31.000Z</time></trkpt>
        <trkpt lat="29.510173" lon="103.332133"><ele>3059.8843</ele><time>2026-02-19T10:56:37.000Z</time></trkpt>
        <trkpt lat="29.510094" lon="103.332042"><ele>3081.2559</ele><time>2026-02-19T10:58:01.000Z</time></trkpt>
        <trkpt lat="29.510038" lon="103.331971"><ele>3085.5325</ele><time>2026-02-19T11:02:27.000Z</time></trkpt>
        <trkpt lat="29.510084" lon="103.331986"><ele>3085.1467</ele><time>2026-02-19T11:02:42.000Z</time></trkpt>
        <trkpt lat="29.510036" lon="103.33194"><ele>3097.1318</ele><time>2026-02-19T11:08:55.000Z</time></trkpt>
        <trkpt lat="29.510057" lon="103.331989"><ele>3095.3274</ele><time>2026-02-19T11:09:08.000Z</time></trkpt>
        <trkpt lat="29.510073" lon="103.332034"><ele>3096.1633</ele><time>2026-02-19T11:09:10.000Z</time></trkpt>
        <trkpt lat="29.510075" lon="103.332019"><ele>3095.8008</ele><time>2026-02-19T11:09:13.000Z</time></trkpt>
        <trkpt lat="29.510063" lon="103.332084"><ele>3093.3357</ele><time>2026-02-19T11:10:55.000Z</time></trkpt>
        <trkpt lat="29.510067" lon="103.332136"><ele>3081.9363</ele><time>2026-02-19T11:33:57.000Z</time></trkpt>
        <trkpt lat="29.510061" lon="103.332088"><ele>3079.0847</ele><time>2026-02-19T11:34:08.000Z</time></trkpt>
        <trkpt lat="29.510105" lon="103.332228"><ele>3080.2068</ele><time>2026-02-19T11:34:27.000Z</time></trkpt>
        <trkpt lat="29.510106" lon="103.331978"><ele>3094.8254</ele><time>2026-02-19T11:46:12.000Z</time></trkpt>
        <trkpt lat="29.51005" lon="103.331983"><ele>3091.7202</ele><time>2026-02-19T11:46:22.000Z</time></trkpt>
        <trkpt lat="29.510116" lon="103.331996"><ele>3093.371</ele><time>2026-02-19T11:46:44.000Z</time></trkpt>
        <trkpt lat="29.510099" lon="103.332304"><ele>3089.7458</ele><time>2026-02-19T12:12:09.000Z</time></trkpt>
        <trkpt lat="29.510057" lon="103.332222"><ele>3082.0168</ele><time>2026-02-19T12:12:24.000Z</time></trkpt>
        <trkpt lat="29.51008" lon="103.332117"><ele>3094.335</ele><time>2026-02-19T12:13:14.000Z</time></trkpt>
        <trkpt lat="29.510051" lon="103.331884"><ele>3108.7717</ele><time>2026-02-19T12:33:00.000Z</time></trkpt>
        <trkpt lat="29.510087" lon="103.331833"><ele>3107.115</ele><time>2026-02-19T12:33:06.000Z</time></trkpt>
        <trkpt lat="29.510141" lon="103.331807"><ele>3108.2695</ele><time>2026-02-19T12:33:36.000Z</time></trkpt>
        <trkpt lat="29.510176" lon="103.331689"><ele>3133.4897</ele><time>2026-02-19T12:41:50.000Z</time></trkpt>
        <trkpt lat="29.510165" lon="103.331726"><ele>3128.935</ele><time>2026-02-19T12:41:51.000Z</time></trkpt>
        <trkpt lat="29.510148" lon="103.331776"><ele>3123.073</ele><time>2026-02-19T12:41:54.000Z</time></trkpt>
        <trkpt lat="29.510128" lon="103.331819"><ele>3118.305</ele><time>2026-02-19T12:41:55.000Z</time></trkpt>
        <trkpt lat="29.510104" lon="103.331882"><ele>3109.9033</ele><time>2026-02-19T12:41:57.000Z</time></trkpt>
        <trkpt lat="29.510017" lon="103.332034"><ele>3088.8262</ele><time>2026-02-19T12:42:05.000Z</time></trkpt>
        <trkpt lat="29.509954" lon="103.332034"><ele>3088.38</ele><time>2026-02-19T12:42:18.000Z</time></trkpt>
        <trkpt lat="29.510058" lon="103.33214"><ele>3057.2947</ele><time>2026-02-19T12:43:13.000Z</time></trkpt>
        <trkpt lat="29.510109" lon="103.332233"><ele>3059.0378</ele><time>2026-02-19T12:43:39.000Z</time></trkpt>
        <trkpt lat="29.510052" lon="103.332142"><ele>3099.2942</ele><time>2026-02-19T12:44:14.000Z</time></trkpt>
        <trkpt lat="29.510097" lon="103.332211"><ele>3072.5872</ele><time>2026-02-19T12:44:21.000Z</time></trkpt>
        <trkpt lat="29.510174" lon="103.332275"><ele>3067.8442</ele><time>2026-02-19T12:44:46.000Z</time></trkpt>
        <trkpt lat="29.510127" lon="103.332236"><ele>3099.3901</ele><time>2026-02-19T12:45:18.000Z</time></trkpt>
        <trkpt lat="29.510073" lon="103.332154"><ele>3099.335</ele><time>2026-02-19T12:45:41.000Z</time></trkpt>
        <trkpt lat="29.510059" lon="103.33213"><ele>3099.3875</ele><time>2026-02-19T12:46:11.000Z</time></trkpt>
        <trkpt lat="29.510101" lon="103.332242"><ele>3084.8323</ele><time>2026-02-19T12:46:29.000Z</time></trkpt>
        <trkpt lat="29.510121" lon="103.33225"><ele>3099.334</ele><time>2026-02-19T12:47:58.000Z</time></trkpt>
        <trkpt lat="29.510096" lon="103.332204"><ele>3099.3845</ele><time>2026-02-19T12:51:14.000Z</time></trkpt>
        <trkpt lat="29.510044" lon="103.332108"><ele>3099.3638</ele><time>2026-02-19T12:56:32.000Z</time></trkpt>
        <trkpt lat="29.510041" lon="103.332101"><ele>3100.735</ele><time>2026-02-19T12:56:39.000Z</time></trkpt>
        <trkpt lat="29.510044" lon="103.332107"><ele>3099.4275</ele><time>2026-02-19T12:57:02.000Z</time></trkpt>
        <trkpt lat="29.510044" lon="103.332108"><ele>3099.3616</ele><time>2026-02-19T12:58:03.000Z</time></trkpt>
        <trkpt lat="29.510044" lon="103.332107"><ele>3099.3787</ele><time>2026-02-19T12:59:11.000Z</time></trkpt>
        <trkpt lat="29.510044" lon="103.332108"><ele>3099.3691</ele><time>2026-02-19T13:02:19.000Z</time></trkpt>
        <trkpt lat="29.51" lon="103.332058"><ele>3091.2825</ele><time>2026-02-19T13:33:11.000Z</time></trkpt>
        <trkpt lat="29.51" lon="103.332058"><ele>3091.1926</ele><time>2026-02-19T13:33:12.000Z</time></trkpt>
        <trkpt lat="29.51" lon="103.332059"><ele>3091.0015</ele><time>2026-02-19T13:33:16.000Z</time></trkpt>
        <trkpt lat="29.51006" lon="103.332118"><ele>3098.0444</ele><time>2026-02-19T13:58:29.000Z</time></trkpt>
        <trkpt lat="29.510092" lon="103.3321"><ele>3097.453</ele><time>2026-02-19T13:58:35.000Z</time></trkpt>
        <trkpt lat="29.510156" lon="103.332177"><ele>3085.1982</ele><time>2026-02-19T14:01:16.000Z</time></trkpt>
        <trkpt lat="29.509943" lon="103.332438"><ele>3077.4292</ele><time>2026-02-19T14:02:46.000Z</time></trkpt>
        <trkpt lat="29.509976" lon="103.332388"><ele>3080.7168</ele><time>2026-02-19T14:03:10.000Z</time></trkpt>
        <trkpt lat="29.509988" lon="103.332362"><ele>3080.4578</ele><time>2026-02-19T14:03:11.000Z</time></trkpt>
        <trkpt lat="29.510049" lon="103.332247"><ele>3083.2432</ele><time>2026-02-19T14:03:14.000Z</time></trkpt>
        <trkpt lat="29.510156" lon="103.332261"><ele>3060.4485</ele><time>2026-02-19T14:04:54.000Z</time></trkpt>
        <trkpt lat="29.510199" lon="103.332281"><ele>3054.4788</ele><time>2026-02-19T14:09:25.000Z</time></trkpt>
        <trkpt lat="29.510247" lon="103.332266"><ele>3053.009</ele><time>2026-02-19T14:10:23.000Z</time></trkpt>
        <trkpt lat="29.51023" lon="103.332229"><ele>3056.565</ele><time>2026-02-19T14:10:33.000Z</time></trkpt>
        <trkpt lat="29.510173" lon="103.332155"><ele>3056.9612</ele><time>2026-02-19T14:10:51.000Z</time></trkpt>
        <trkpt lat="29.510172" lon="103.332156"><ele>3099.285</ele><time>2026-02-19T14:11:50.000Z</time></trkpt>
        <trkpt lat="29.510129" lon="103.332139"><ele>3099.3733</ele><time>2026-02-19T14:37:47.000Z</time></trkpt>
        <trkpt lat="29.510081" lon="103.332122"><ele>3099.2925</ele><time>2026-02-19T14:38:35.000Z</time></trkpt>
        <trkpt lat="29.510051" lon="103.33211"><ele>3099.4473</ele><time>2026-02-19T14:39:20.000Z</time></trkpt>
        <trkpt lat="29.510047" lon="103.332109"><ele>3099.2407</ele><time>2026-02-19T14:39:50.000Z</time></trkpt>
        <trkpt lat="29.510044" lon="103.332108"><ele>3099.3743</ele><time>2026-02-19T14:49:49.000Z</time></trkpt>
        <trkpt lat="29.510058" lon="103.332009"><ele>3061.2708</ele><time>2026-02-19T14:58:26.000Z</time></trkpt>
        <trkpt lat="29.510052" lon="103.332057"><ele>3081.748</ele><time>2026-02-19T14:58:28.000Z</time></trkpt>
        <trkpt lat="29.510037" lon="103.332107"><ele>3099.3774</ele><time>2026-02-19T14:58:44.000Z</time></trkpt>
        <trkpt lat="29.510011" lon="103.33197"><ele>3099.4006</ele><time>2026-02-19T14:59:52.000Z</time></trkpt>
        <trkpt lat="29.510073" lon="103.331949"><ele>3066.9478</ele><time>2026-02-19T15:00:42.000Z</time></trkpt>
        <trkpt lat="29.510077" lon="103.331953"><ele>3066.0696</ele><time>2026-02-19T15:00:43.000Z</time></trkpt>
        <trkpt lat="29.510078" lon="103.33197"><ele>3067.8635</ele><time>2026-02-19T15:00:45.000Z</time></trkpt>
        <trkpt lat="29.510086" lon="103.332054"><ele>3088.0027</ele><time>2026-02-19T15:09:09.000Z</time></trkpt>
        <trkpt lat="29.51008" lon="103.332034"><ele>3099.3323</ele><time>2026-02-19T15:09:49.000Z</time></trkpt>
        <trkpt lat="29.510095" lon="103.332104"><ele>3093.0076</ele><time>2026-02-19T15:09:58.000Z</time></trkpt>
        <trkpt lat="29.510097" lon="103.332113"><ele>3091.265</ele><time>2026-02-19T15:10:13.000Z</time></trkpt>
        <trkpt lat="29.510091" lon="103.332007"><ele>3080.8335</ele><time>2026-02-19T15:10:30.000Z</time></trkpt>
        <trkpt lat="29.5101" lon="103.33206"><ele>3080.1992</ele><time>2026-02-19T15:10:33.000Z</time></trkpt>
        <trkpt lat="29.51008" lon="103.332068"><ele>3075.2898</ele><time>2026-02-19T15:10:36.000Z</time></trkpt>
        <trkpt lat="29.510075" lon="103.332111"><ele>3073.542</ele><time>2026-02-19T15:10:38.000Z</time></trkpt>
        <trkpt lat="29.510063" lon="103.332206"><ele>3073.587</ele><time>2026-02-19T15:10:45.000Z</time></trkpt>
        <trkpt lat="29.510051" lon="103.332237"><ele>3080.0015</ele><time>2026-02-19T15:10:47.000Z</time></trkpt>
        <trkpt lat="29.509992" lon="103.332243"><ele>3096.3345</ele><time>2026-02-19T15:13:11.000Z</time></trkpt>
        <trkpt lat="29.510032" lon="103.332207"><ele>3099.1357</ele><time>2026-02-19T16:01:53.000Z</time></trkpt>
        <trkpt lat="29.510049" lon="103.3322"><ele>3100.0916</ele><time>2026-02-19T16:01:55.000Z</time></trkpt>
        <trkpt lat="29.510094" lon="103.33216"><ele>3100.4622</ele><time>2026-02-19T16:01:57.000Z</time></trkpt>
        <trkpt lat="29.510109" lon="103.332092"><ele>3100.3367</ele><time>2026-02-19T16:02:08.000Z</time></trkpt>
        <trkpt lat="29.510065" lon="103.332084"><ele>3100.269</ele><time>2026-02-19T16:02:17.000Z</time></trkpt>
        <trkpt lat="29.510114" lon="103.332066"><ele>3094.9187</ele><time>2026-02-19T16:02:50.000Z</time></trkpt>
        <trkpt lat="29.510154" lon="103.332065"><ele>3094.8396</ele><time>2026-02-19T16:02:53.000Z</time></trkpt>
        <trkpt lat="29.510142" lon="103.332058"><ele>3093.8293</ele><time>2026-02-19T16:02:56.000Z</time></trkpt>
        <trkpt lat="29.510108" lon="103.3321"><ele>3093.4377</ele><time>2026-02-19T16:02:58.000Z</time></trkpt>
        <trkpt lat="29.510085" lon="103.332099"><ele>3094.3655</ele><time>2026-02-19T16:03:02.000Z</time></trkpt>
        <trkpt lat="29.510099" lon="103.332042"><ele>3100.0017</ele><time>2026-02-19T16:03:17.000Z</time></trkpt>
        <trkpt lat="29.510106" lon="103.331937"><ele>3095.1829</ele><time>2026-02-19T16:03:34.000Z</time></trkpt>
        <trkpt lat="29.510092" lon="103.331987"><ele>3094.7217</ele><time>2026-02-19T16:03:36.000Z</time></trkpt>
        <trkpt lat="29.510091" lon="103.332045"><ele>3096.711</ele><time>2026-02-19T16:03:39.000Z</time></trkpt>
        <trkpt lat="29.510089" lon="103.332088"><ele>3097.9802</ele><time>2026-02-19T16:03:40.000Z</time></trkpt>
        <trkpt lat="29.510059" lon="103.33208"><ele>3069.3442</ele><time>2026-02-19T16:04:08.000Z</time></trkpt>
        <trkpt lat="29.510076" lon="103.332124"><ele>3085.1504</ele><time>2026-02-19T16:04:45.000Z</time></trkpt>
        <trkpt lat="29.510045" lon="103.332165"><ele>3085.3936</ele><time>2026-02-19T16:05:20.000Z</time></trkpt>
        <trkpt lat="29.510028" lon="103.332203"><ele>3084.92</ele><time>2026-02-19T16:05:29.000Z</time></trkpt>
        <trkpt lat="29.510056" lon="103.332167"><ele>3092.828</ele><time>2026-02-19T16:05:39.000Z</time></trkpt>
        <trkpt lat="29.510036" lon="103.332243"><ele>3093.0505</ele><time>2026-02-19T16:05:49.000Z</time></trkpt>
        <trkpt lat="29.510017" lon="103.332307"><ele>3092.3848</ele><time>2026-02-19T16:05:50.000Z</time></trkpt>
        <trkpt lat="29.509956" lon="103.332419"><ele>3088.8882</ele><time>2026-02-19T16:06:00.000Z</time></trkpt>
        <trkpt lat="29.509974" lon="103.332402"><ele>3089.1025</ele><time>2026-02-19T16:06:04.000Z</time></trkpt>
        <trkpt lat="29.509997" lon="103.332359"><ele>3089.9749</ele><time>2026-02-19T16:06:06.000Z</time></trkpt>
        <trkpt lat="29.510018" lon="103.332304"><ele>3090.5674</ele><time>2026-02-19T16:06:08.000Z</time></trkpt>
        <trkpt lat="29.510046" lon="103.332198"><ele>3091.7595</ele><time>2026-02-19T16:06:12.000Z</time></trkpt>
        <trkpt lat="29.510049" lon="103.332098"><ele>3089.8337</ele><time>2026-02-19T16:06:19.000Z</time></trkpt>
        <trkpt lat="29.510018" lon="103.332165"><ele>3088.4744</ele><time>2026-02-19T16:07:35.000Z</time></trkpt>
        <trkpt lat="29.51" lon="103.332199"><ele>3089.0974</ele><time>2026-02-19T16:07:37.000Z</time></trkpt>
        <trkpt lat="29.509977" lon="103.332244"><ele>3090.162</ele><time>2026-02-19T16:07:40.000Z</time></trkpt>
        <trkpt lat="29.509971" lon="103.332294"><ele>3090.6804</ele><time>2026-02-19T16:07:43.000Z</time></trkpt>
        <trkpt lat="29.510001" lon="103.332343"><ele>3090.4216</ele><time>2026-02-19T16:07:48.000Z</time></trkpt>
        <trkpt lat="29.510026" lon="103.332283"><ele>3094.6174</ele><time>2026-02-19T16:07:59.000Z</time></trkpt>
        <trkpt lat="29.510006" lon="103.332232"><ele>3095.2244</ele><time>2026-02-19T16:08:03.000Z</time></trkpt>
        <trkpt lat="29.510005" lon="103.332186"><ele>3094.0864</ele><time>2026-02-19T16:08:06.000Z</time></trkpt>
        <trkpt lat="29.510014" lon="103.332131"><ele>3093.3665</ele><time>2026-02-19T16:08:10.000Z</time></trkpt>
        <trkpt lat="29.510048" lon="103.332095"><ele>3092.6028</ele><time>2026-02-19T16:08:14.000Z</time></trkpt>
        <trkpt lat="29.510117" lon="103.332105"><ele>3093.4082</ele><time>2026-02-19T16:08:32.000Z</time></trkpt>
        <trkpt lat="29.510162" lon="103.332111"><ele>3094.3708</ele><time>2026-02-19T16:08:38.000Z</time></trkpt>
        <trkpt lat="29.51012" lon="103.332118"><ele>3095.0396</ele><time>2026-02-19T16:09:41.000Z</time></trkpt>
        <trkpt lat="29.51007" lon="103.332102"><ele>3092.989</ele><time>2026-02-19T16:09:49.000Z</time></trkpt>
        <trkpt lat="29.510046" lon="103.332053"><ele>3080.3032</ele><time>2026-02-19T16:09:59.000Z</time></trkpt>
        <trkpt lat="29.510013" lon="103.332014"><ele>3073.4626</ele><time>2026-02-19T16:10:07.000Z</time></trkpt>
        <trkpt lat="29.509983" lon="103.331993"><ele>3072.674</ele><time>2026-02-19T16:10:08.000Z</time></trkpt>
        <trkpt lat="29.509991" lon="103.332"><ele>3070.7905</ele><time>2026-02-19T16:10:12.000Z</time></trkpt>
        <trkpt lat="29.510028" lon="103.332029"><ele>3071.6191</ele><time>2026-02-19T16:10:16.000Z</time></trkpt>
        <trkpt lat="29.510035" lon="103.332097"><ele>3083.4316</ele><time>2026-02-19T16:10:41.000Z</time></trkpt>
        <trkpt lat="29.510076" lon="103.332121"><ele>3081.6982</ele><time>2026-02-19T16:10:48.000Z</time></trkpt>
        <trkpt lat="29.510113" lon="103.332121"><ele>3079.664</ele><time>2026-02-19T16:10:50.000Z</time></trkpt>
        <trkpt lat="29.510146" lon="103.332125"><ele>3079.3647</ele><time>2026-02-19T16:10:51.000Z</time></trkpt>
        <trkpt lat="29.510201" lon="103.332129"><ele>3079.2263</ele><time>2026-02-19T16:10:53.000Z</time></trkpt>
        <trkpt lat="29.510244" lon="103.332124"><ele>3079.1472</ele><time>2026-02-19T16:10:54.000Z</time></trkpt>
        <trkpt lat="29.510276" lon="103.332128"><ele>3078.6074</ele><time>2026-02-19T16:10:58.000Z</time></trkpt>
        <trkpt lat="29.510225" lon="103.332164"><ele>3081.1726</ele><time>2026-02-19T16:11:00.000Z</time></trkpt>
        <trkpt lat="29.510177" lon="103.332192"><ele>3083.19</ele><time>2026-02-19T16:11:01.000Z</time></trkpt>
        <trkpt lat="29.51012" lon="103.332232"><ele>3085.8423</ele><time>2026-02-19T16:11:03.000Z</time></trkpt>
        <trkpt lat="29.510011" lon="103.332294"><ele>3093.7212</ele><time>2026-02-19T16:11:12.000Z</time></trkpt>
        <trkpt lat="29.509959" lon="103.332318"><ele>3094.4214</ele><time>2026-02-19T16:11:26.000Z</time></trkpt>
        <trkpt lat="29.509945" lon="103.332366"><ele>3094.7515</ele><time>2026-02-19T16:11:55.000Z</time></trkpt>
        <trkpt lat="29.509994" lon="103.332362"><ele>3090.9475</ele><time>2026-02-19T16:12:04.000Z</time></trkpt>
        <trkpt lat="29.510062" lon="103.33236"><ele>3093.2026</ele><time>2026-02-19T16:12:11.000Z</time></trkpt>
        <trkpt lat="29.510115" lon="103.332373"><ele>3092.6611</ele><time>2026-02-19T16:12:21.000Z</time></trkpt>
        <trkpt lat="29.510164" lon="103.332391"><ele>3088.6758</ele><time>2026-02-19T16:12:29.000Z</time></trkpt>
        <trkpt lat="29.51021" lon="103.332411"><ele>3085.3264</ele><time>2026-02-19T16:12:38.000Z</time></trkpt>
        <trkpt lat="29.510251" lon="103.332437"><ele>3080.8381</ele><time>2026-02-19T16:12:53.000Z</time></trkpt>
        <trkpt lat="29.510292" lon="103.332465"><ele>3084.485</ele><time>2026-02-19T16:17:30.000Z</time></trkpt>
        <trkpt lat="29.510331" lon="103.332479"><ele>3079.9731</ele><time>2026-02-19T16:17:39.000Z</time></trkpt>
        <trkpt lat="29.510376" lon="103.332492"><ele>3078.5115</ele><time>2026-02-19T16:17:44.000Z</time></trkpt>
        <trkpt lat="29.510432" lon="103.332502"><ele>3078.1855</ele><time>2026-02-19T16:17:53.000Z</time></trkpt>
        <trkpt lat="29.510479" lon="103.332512"><ele>3077.654</ele><time>2026-02-19T16:18:01.000Z</time></trkpt>
        <trkpt lat="29.510532" lon="103.332506"><ele>3076.7068</ele><time>2026-02-19T16:18:07.000Z</time></trkpt>
        <trkpt lat="29.510577" lon="103.332537"><ele>3076.6904</ele><time>2026-02-19T16:18:12.000Z</time></trkpt>
        <trkpt lat="29.510634" lon="103.332545"><ele>3073.3235</ele><time>2026-02-19T16:18:19.000Z</time></trkpt>
        <trkpt lat="29.510686" lon="103.332532"><ele>3072.9814</ele><time>2026-02-19T16:18:25.000Z</time></trkpt>
        <trkpt lat="29.510734" lon="103.332504"><ele>3075.636</ele><time>2026-02-19T16:18:33.000Z</time></trkpt>
        <trkpt lat="29.510782" lon="103.332494"><ele>3076.9387</ele><time>2026-02-19T16:18:37.000Z</time></trkpt>
        <trkpt lat="29.510831" lon="103.332489"><ele>3076.5786</ele><time>2026-02-19T16:18:41.000Z</time></trkpt>
        <trkpt lat="29.510884" lon="103.332513"><ele>3077.7705</ele><time>2026-02-19T16:19:37.000Z</time></trkpt>
        <trkpt lat="29.510924" lon="103.332496"><ele>3075.506</ele><time>2026-02-19T16:19:57.000Z</time></trkpt>
        <trkpt lat="29.510969" lon="103.332477"><ele>3075.475</ele><time>2026-02-19T16:20:03.000Z</time></trkpt>
        <trkpt lat="29.511016" lon="103.332467"><ele>3075.7097</ele><time>2026-02-19T16:20:10.000Z</time></trkpt>
        <trkpt lat="29.511059" lon="103.332463"><ele>3076.1729</ele><time>2026-02-19T16:20:16.000Z</time></trkpt>
        <trkpt lat="29.511106" lon="103.332468"><ele>3077.3113</ele><time>2026-02-19T16:20:22.000Z</time></trkpt>
        <trkpt lat="29.51116" lon="103.332471"><ele>3078.883</ele><time>2026-02-19T16:20:38.000Z</time></trkpt>
        <trkpt lat="29.511194" lon="103.332449"><ele>3079.3813</ele><time>2026-02-19T16:20:43.000Z</time></trkpt>
        <trkpt lat="29.511242" lon="103.332428"><ele>3080.3525</ele><time>2026-02-19T16:20:48.000Z</time></trkpt>
        <trkpt lat="29.511295" lon="103.332422"><ele>3080.6895</ele><time>2026-02-19T16:20:53.000Z</time></trkpt>
        <trkpt lat="29.511349" lon="103.332412"><ele>3081.0564</ele><time>2026-02-19T16:20:58.000Z</time></trkpt>
        <trkpt lat="29.511401" lon="103.332405"><ele>3081.1099</ele><time>2026-02-19T16:21:03.000Z</time></trkpt>
        <trkpt lat="29.51145" lon="103.332405"><ele>3080.7654</ele><time>2026-02-19T16:21:08.000Z</time></trkpt>
        <trkpt lat="29.511499" lon="103.332415"><ele>3080.9233</ele><time>2026-02-19T16:21:12.000Z</time></trkpt>
        <trkpt lat="29.511548" lon="103.332444"><ele>3080.082</ele><time>2026-02-19T16:21:20.000Z</time></trkpt>
        <trkpt lat="29.511584" lon="103.332462"><ele>3079.005</ele><time>2026-02-19T16:21:25.000Z</time></trkpt>
        <trkpt lat="29.511631" lon="103.332469"><ele>3078.5156</ele><time>2026-02-19T16:21:30.000Z</time></trkpt>
        <trkpt lat="29.511684" lon="103.33247"><ele>3078.2136</ele><time>2026-02-19T16:21:35.000Z</time></trkpt>
        <trkpt lat="29.511743" lon="103.332474"><ele>3075.8774</ele><time>2026-02-19T16:21:48.000Z</time></trkpt>
        <trkpt lat="29.51178" lon="103.332485"><ele>3076.569</ele><time>2026-02-19T16:21:52.000Z</time></trkpt>
        <trkpt lat="29.511834" lon="103.332496"><ele>3076.1453</ele><time>2026-02-19T16:21:58.000Z</time></trkpt>
        <trkpt lat="29.511881" lon="103.332517"><ele>3074.1865</ele><time>2026-02-19T16:22:04.000Z</time></trkpt>
        <trkpt lat="29.511922" lon="103.332555"><ele>3073.6523</ele><time>2026-02-19T16:22:10.000Z</time></trkpt>
        <trkpt lat="29.51196" lon="103.332603"><ele>3073.7676</ele><time>2026-02-19T16:22:15.000Z</time></trkpt>
        <trkpt lat="29.511988" lon="103.332646"><ele>3074.0767</ele><time>2026-02-19T16:22:19.000Z</time></trkpt>
        <trkpt lat="29.512032" lon="103.332685"><ele>3074.117</ele><time>2026-02-19T16:22:25.000Z</time></trkpt>
        <trkpt lat="29.512075" lon="103.33271"><ele>3072.6025</ele><time>2026-02-19T16:22:33.000Z</time></trkpt>
        <trkpt lat="29.512115" lon="103.332734"><ele>3071.3953</ele><time>2026-02-19T16:22:39.000Z</time></trkpt>
        <trkpt lat="29.512166" lon="103.332721"><ele>3068.8655</ele><time>2026-02-19T16:22:57.000Z</time></trkpt>
        <trkpt lat="29.512207" lon="103.332702"><ele>3067.0042</ele><time>2026-02-19T16:23:03.000Z</time></trkpt>
        <trkpt lat="29.512257" lon="103.332694"><ele>3067.0142</ele><time>2026-02-19T16:23:08.000Z</time></trkpt>
        <trkpt lat="29.512313" lon="103.332693"><ele>3066.1987</ele><time>2026-02-19T16:23:16.000Z</time></trkpt>
        <trkpt lat="29.512364" lon="103.332687"><ele>3064.5786</ele><time>2026-02-19T16:23:24.000Z</time></trkpt>
        <trkpt lat="29.512409" lon="103.332678"><ele>3064.2603</ele><time>2026-02-19T16:23:33.000Z</time></trkpt>
        <trkpt lat="29.512452" lon="103.332657"><ele>3059.0706</ele><time>2026-02-19T16:23:45.000Z</time></trkpt>
        <trkpt lat="29.512482" lon="103.332631"><ele>3058.0076</ele><time>2026-02-19T16:23:50.000Z</time></trkpt>
        <trkpt lat="29.512532" lon="103.332612"><ele>3057.7886</ele><time>2026-02-19T16:23:58.000Z</time></trkpt>
        <trkpt lat="29.512579" lon="103.332632"><ele>3057.6326</ele><time>2026-02-19T16:24:07.000Z</time></trkpt>
        <trkpt lat="29.512627" lon="103.332635"><ele>3056.269</ele><time>2026-02-19T16:24:16.000Z</time></trkpt>
        <trkpt lat="29.512678" lon="103.332627"><ele>3053.8752</ele><time>2026-02-19T16:24:28.000Z</time></trkpt>
        <trkpt lat="29.512721" lon="103.332621"><ele>3052.2698</ele><time>2026-02-19T16:24:35.000Z</time></trkpt>
        <trkpt lat="29.512767" lon="103.332607"><ele>3049.9604</ele><time>2026-02-19T16:24:43.000Z</time></trkpt>
        <trkpt lat="29.512815" lon="103.332588"><ele>3047.373</ele><time>2026-02-19T16:24:52.000Z</time></trkpt>
        <trkpt lat="29.512861" lon="103.332563"><ele>3044.7437</ele><time>2026-02-19T16:25:01.000Z</time></trkpt>
        <trkpt lat="29.512888" lon="103.33252"><ele>3044.6826</ele><time>2026-02-19T16:25:07.000Z</time></trkpt>
        <trkpt lat="29.512886" lon="103.332462"><ele>3045.0752</ele><time>2026-02-19T16:25:12.000Z</time></trkpt>
        <trkpt lat="29.512908" lon="103.332403"><ele>3043.9229</ele><time>2026-02-19T16:25:19.000Z</time></trkpt>
        <trkpt lat="29.512955" lon="103.332397"><ele>3040.697</ele><time>2026-02-19T16:25:28.000Z</time></trkpt>
        <trkpt lat="29.512974" lon="103.332356"><ele>3038.2598</ele><time>2026-02-19T16:25:37.000Z</time></trkpt>
        <trkpt lat="29.513007" lon="103.332322"><ele>3035.9155</ele><time>2026-02-19T16:25:43.000Z</time></trkpt>
        <trkpt lat="29.513057" lon="103.332295"><ele>3034.8398</ele><time>2026-02-19T16:25:50.000Z</time></trkpt>
        <trkpt lat="29.513069" lon="103.332245"><ele>3030.747</ele><time>2026-02-19T16:26:02.000Z</time></trkpt>
        <trkpt lat="29.513044" lon="103.332203"><ele>3029.941</ele><time>2026-02-19T16:26:07.000Z</time></trkpt>
        <trkpt lat="29.51302" lon="103.332153"><ele>3030.1853</ele><time>2026-02-19T16:26:12.000Z</time></trkpt>
        <trkpt lat="29.513005" lon="103.332095"><ele>3029.5667</ele><time>2026-02-19T16:26:19.000Z</time></trkpt>
        <trkpt lat="29.512988" lon="103.332039"><ele>3028.5618</ele><time>2026-02-19T16:26:24.000Z</time></trkpt>
        <trkpt lat="29.513009" lon="103.331993"><ele>3028.8533</ele><time>2026-02-19T16:26:30.000Z</time></trkpt>
        <trkpt lat="29.513056" lon="103.331968"><ele>3028.6633</ele><time>2026-02-19T16:26:38.000Z</time></trkpt>
        <trkpt lat="29.513101" lon="103.331936"><ele>3026.0276</ele><time>2026-02-19T16:26:47.000Z</time></trkpt>
        <trkpt lat="29.513119" lon="103.331878"><ele>3023.6528</ele><time>2026-02-19T16:26:54.000Z</time></trkpt>
        <trkpt lat="29.513142" lon="103.331822"><ele>3023.9866</ele><time>2026-02-19T16:27:02.000Z</time></trkpt>
        <trkpt lat="29.513188" lon="103.331791"><ele>3022.5054</ele><time>2026-02-19T16:27:39.000Z</time></trkpt>
        <trkpt lat="29.51323" lon="103.331774"><ele>3020.0215</ele><time>2026-02-19T16:27:46.000Z</time></trkpt>
        <trkpt lat="29.513274" lon="103.331746"><ele>3021.7583</ele><time>2026-02-19T16:27:51.000Z</time></trkpt>
        <trkpt lat="29.513327" lon="103.331736"><ele>3026.2285</ele><time>2026-02-19T16:27:59.000Z</time></trkpt>
        <trkpt lat="29.513374" lon="103.33173"><ele>3027.6233</ele><time>2026-02-19T16:28:07.000Z</time></trkpt>
        <trkpt lat="29.513427" lon="103.331735"><ele>3027.8132</ele><time>2026-02-19T16:28:15.000Z</time></trkpt>
        <trkpt lat="29.513479" lon="103.331719"><ele>3027.4604</ele><time>2026-02-19T16:28:24.000Z</time></trkpt>
        <trkpt lat="29.513508" lon="103.331684"><ele>3027.28</ele><time>2026-02-19T16:28:29.000Z</time></trkpt>
        <trkpt lat="29.51354" lon="103.331645"><ele>3029.905</ele><time>2026-02-19T16:28:34.000Z</time></trkpt>
        <trkpt lat="29.51356" lon="103.331588"><ele>3032.0461</ele><time>2026-02-19T16:28:39.000Z</time></trkpt>
        <trkpt lat="29.513583" lon="103.331536"><ele>3032.9236</ele><time>2026-02-19T16:28:44.000Z</time></trkpt>
        <trkpt lat="29.513599" lon="103.331494"><ele>3032.6357</ele><time>2026-02-19T16:28:47.000Z</time></trkpt>
        <trkpt lat="29.513627" lon="103.331438"><ele>3033.109</ele><time>2026-02-19T16:28:51.000Z</time></trkpt>
        <trkpt lat="29.513653" lon="103.331377"><ele>3033.5693</ele><time>2026-02-19T16:28:57.000Z</time></trkpt>
        <trkpt lat="29.513656" lon="103.331317"><ele>3033.3164</ele><time>2026-02-19T16:29:03.000Z</time></trkpt>
        <trkpt lat="29.513672" lon="103.331271"><ele>3033.1135</ele><time>2026-02-19T16:29:08.000Z</time></trkpt>
        <trkpt lat="29.5137" lon="103.331217"><ele>3033.2441</ele><time>2026-02-19T16:29:18.000Z</time></trkpt>
        <trkpt lat="29.513738" lon="103.331187"><ele>3032.1423</ele><time>2026-02-19T16:29:25.000Z</time></trkpt>
        <trkpt lat="29.513777" lon="103.331161"><ele>3031.3384</ele><time>2026-02-19T16:29:31.000Z</time></trkpt>
        <trkpt lat="29.513825" lon="103.331135"><ele>3033.0286</ele><time>2026-02-19T16:29:36.000Z</time></trkpt>
        <trkpt lat="29.513875" lon="103.331119"><ele>3032.409</ele><time>2026-02-19T16:29:41.000Z</time></trkpt>
        <trkpt lat="29.51392" lon="103.33111"><ele>3031.3547</ele><time>2026-02-19T16:29:45.000Z</time></trkpt>
        <trkpt lat="29.513976" lon="103.331111"><ele>3031.2493</ele><time>2026-02-19T16:29:50.000Z</time></trkpt>
        <trkpt lat="29.514028" lon="103.331112"><ele>3031.1633</ele><time>2026-02-19T16:29:55.000Z</time></trkpt>
        <trkpt lat="29.51408" lon="103.331108"><ele>3032.0676</ele><time>2026-02-19T16:30:00.000Z</time></trkpt>
        <trkpt lat="29.514128" lon="103.331108"><ele>3032.7341</ele><time>2026-02-19T16:30:05.000Z</time></trkpt>
        <trkpt lat="29.514178" lon="103.331117"><ele>3033.4348</ele><time>2026-02-19T16:30:10.000Z</time></trkpt>
        <trkpt lat="29.514232" lon="103.331137"><ele>3033.3833</ele><time>2026-02-19T16:30:16.000Z</time></trkpt>
        <trkpt lat="29.514281" lon="103.331151"><ele>3032.612</ele><time>2026-02-19T16:30:21.000Z</time></trkpt>
        <trkpt lat="29.514329" lon="103.331163"><ele>3032.1558</ele><time>2026-02-19T16:30:25.000Z</time></trkpt>
        <trkpt lat="29.514379" lon="103.331176"><ele>3033.2058</ele><time>2026-02-19T16:30:30.000Z</time></trkpt>
        <trkpt lat="29.51443" lon="103.331187"><ele>3034.0627</ele><time>2026-02-19T16:30:34.000Z</time></trkpt>
        <trkpt lat="29.514476" lon="103.331181"><ele>3036.001</ele><time>2026-02-19T16:30:38.000Z</time></trkpt>
        <trkpt lat="29.514534" lon="103.331177"><ele>3036.3462</ele><time>2026-02-19T16:30:44.000Z</time></trkpt>
        <trkpt lat="29.514577" lon="103.33118"><ele>3036.8987</ele><time>2026-02-19T16:30:48.000Z</time></trkpt>
        <trkpt lat="29.51463" lon="103.331194"><ele>3038.288</ele><time>2026-02-19T16:30:53.000Z</time></trkpt>
        <trkpt lat="29.514676" lon="103.331211"><ele>3039.0142</ele><time>2026-02-19T16:30:57.000Z</time></trkpt>
        <trkpt lat="29.514725" lon="103.331233"><ele>3038.8774</ele><time>2026-02-19T16:31:01.000Z</time></trkpt>
        <trkpt lat="29.514773" lon="103.331268"><ele>3037.3254</ele><time>2026-02-19T16:31:06.000Z</time></trkpt>
        <trkpt lat="29.514806" lon="103.331321"><ele>3037.251</ele><time>2026-02-19T16:31:13.000Z</time></trkpt>
        <trkpt lat="29.514835" lon="103.331366"><ele>3034.8655</ele><time>2026-02-19T16:31:19.000Z</time></trkpt>
        <trkpt lat="29.514872" lon="103.331406"><ele>3031.8965</ele><time>2026-02-19T16:31:24.000Z</time></trkpt>
        <trkpt lat="29.51492" lon="103.33142"><ele>3030.7192</ele><time>2026-02-19T16:31:29.000Z</time></trkpt>
        <trkpt lat="29.514973" lon="103.331422"><ele>3029.9185</ele><time>2026-02-19T16:31:34.000Z</time></trkpt>
        <trkpt lat="29.515022" lon="103.331415"><ele>3028.9429</ele><time>2026-02-19T16:31:38.000Z</time></trkpt>
        <trkpt lat="29.515081" lon="103.331408"><ele>3028.569</ele><time>2026-02-19T16:31:43.000Z</time></trkpt>
        <trkpt lat="29.515129" lon="103.331397"><ele>3028.7004</ele><time>2026-02-19T16:31:47.000Z</time></trkpt>
        <trkpt lat="29.515139" lon="103.331446"><ele>3033.9626</ele><time>2026-02-19T16:32:22.000Z</time></trkpt>
        <trkpt lat="29.515105" lon="103.331481"><ele>3035.2832</ele><time>2026-02-19T16:32:27.000Z</time></trkpt>
        <trkpt lat="29.515092" lon="103.331535"><ele>3037.5999</ele><time>2026-02-19T16:32:34.000Z</time></trkpt>
        <trkpt lat="29.515091" lon="103.331583"><ele>3038.8638</ele><time>2026-02-19T16:32:39.000Z</time></trkpt>
        <trkpt lat="29.515106" lon="103.331535"><ele>3035.2373</ele><time>2026-02-19T16:33:28.000Z</time></trkpt>
        <trkpt lat="29.515119" lon="103.331478"><ele>3031.8687</ele><time>2026-02-19T16:33:36.000Z</time></trkpt>
        <trkpt lat="29.515131" lon="103.331425"><ele>3032.0854</ele><time>2026-02-19T16:33:49.000Z</time></trkpt>
        <trkpt lat="29.515171" lon="103.3314"><ele>3032.4705</ele><time>2026-02-19T16:34:15.000Z</time></trkpt>
        <trkpt lat="29.515207" lon="103.331393"><ele>3031.8147</ele><time>2026-02-19T16:34:19.000Z</time></trkpt>
        <trkpt lat="29.515265" lon="103.331381"><ele>3031.9653</ele><time>2026-02-19T16:34:24.000Z</time></trkpt>
        <trkpt lat="29.515329" lon="103.331364"><ele>3032.5735</ele><time>2026-02-19T16:34:31.000Z</time></trkpt>
        <trkpt lat="29.515375" lon="103.331356"><ele>3033.908</ele><time>2026-02-19T16:34:35.000Z</time></trkpt>
        <trkpt lat="29.515422" lon="103.331355"><ele>3034.4587</ele><time>2026-02-19T16:34:39.000Z</time></trkpt>
        <trkpt lat="29.515467" lon="103.331366"><ele>3035.0435</ele><time>2026-02-19T16:34:44.000Z</time></trkpt>
        <trkpt lat="29.515513" lon="103.331375"><ele>3033.673</ele><time>2026-02-19T16:34:48.000Z</time></trkpt>
        <trkpt lat="29.515555" lon="103.331385"><ele>3032.9531</ele><time>2026-02-19T16:34:51.000Z</time></trkpt>
        <trkpt lat="29.515613" lon="103.331403"><ele>3031.9333</ele><time>2026-02-19T16:34:57.000Z</time></trkpt>
        <trkpt lat="29.515656" lon="103.331426"><ele>3030.4548</ele><time>2026-02-19T16:35:02.000Z</time></trkpt>
        <trkpt lat="29.51569" lon="103.331457"><ele>3030.8435</ele><time>2026-02-19T16:35:06.000Z</time></trkpt>
        <trkpt lat="29.515727" lon="103.331494"><ele>3033.1594</ele><time>2026-02-19T16:35:10.000Z</time></trkpt>
        <trkpt lat="29.515766" lon="103.331536"><ele>3035.3223</ele><time>2026-02-19T16:35:14.000Z</time></trkpt>
        <trkpt lat="29.515806" lon="103.331574"><ele>3036.4539</ele><time>2026-02-19T16:35:18.000Z</time></trkpt>
        <trkpt lat="29.515838" lon="103.331615"><ele>3037.2715</ele><time>2026-02-19T16:35:22.000Z</time></trkpt>
        <trkpt lat="29.51587" lon="103.331666"><ele>3036.3389</ele><time>2026-02-19T16:35:27.000Z</time></trkpt>
        <trkpt lat="29.515898" lon="103.331708"><ele>3035.06</ele><time>2026-02-19T16:35:31.000Z</time></trkpt>
        <trkpt lat="29.515932" lon="103.33175"><ele>3035.054</ele><time>2026-02-19T16:35:35.000Z</time></trkpt>
        <trkpt lat="29.51596" lon="103.331814"><ele>3032.6677</ele><time>2026-02-19T16:35:56.000Z</time></trkpt>
        <trkpt lat="29.515967" lon="103.33186"><ele>3028.8083</ele><time>2026-02-19T16:36:02.000Z</time></trkpt>
        <trkpt lat="29.515983" lon="103.33192"><ele>3028.611</ele><time>2026-02-19T16:36:06.000Z</time></trkpt>
        <trkpt lat="29.516008" lon="103.331969"><ele>3029.759</ele><time>2026-02-19T16:36:09.000Z</time></trkpt>
        <trkpt lat="29.516038" lon="103.332024"><ele>3032.4692</ele><time>2026-02-19T16:36:12.000Z</time></trkpt>
        <trkpt lat="29.516078" lon="103.332063"><ele>3034.492</ele><time>2026-02-19T16:36:15.000Z</time></trkpt>
        <trkpt lat="29.516112" lon="103.332117"><ele>3036.5154</ele><time>2026-02-19T16:36:20.000Z</time></trkpt>
        <trkpt lat="29.516154" lon="103.332153"><ele>3037.425</ele><time>2026-02-19T16:36:25.000Z</time></trkpt>
        <trkpt lat="29.516201" lon="103.332191"><ele>3036.016</ele><time>2026-02-19T16:36:32.000Z</time></trkpt>
        <trkpt lat="29.516241" lon="103.332219"><ele>3030.6206</ele><time>2026-02-19T16:36:47.000Z</time></trkpt>
        <trkpt lat="29.516262" lon="103.332259"><ele>3029.936</ele><time>2026-02-19T16:36:56.000Z</time></trkpt>
        <trkpt lat="29.516291" lon="103.332309"><ele>3028.2786</ele><time>2026-02-19T16:37:04.000Z</time></trkpt>
        <trkpt lat="29.516313" lon="103.332357"><ele>3028.9858</ele><time>2026-02-19T16:37:09.000Z</time></trkpt>
        <trkpt lat="29.516335" lon="103.332406"><ele>3029.624</ele><time>2026-02-19T16:37:13.000Z</time></trkpt>
        <trkpt lat="29.516354" lon="103.332457"><ele>3028.9907</ele><time>2026-02-19T16:37:17.000Z</time></trkpt>
        <trkpt lat="29.51639" lon="103.332504"><ele>3029.7903</ele><time>2026-02-19T16:37:24.000Z</time></trkpt>
        <trkpt lat="29.516416" lon="103.33255"><ele>3028.452</ele><time>2026-02-19T16:37:32.000Z</time></trkpt>
        <trkpt lat="29.516433" lon="103.332593"><ele>3028.16</ele><time>2026-02-19T16:37:36.000Z</time></trkpt>
        <trkpt lat="29.516463" lon="103.332641"><ele>3026.6235</ele><time>2026-02-19T16:37:41.000Z</time></trkpt>
        <trkpt lat="29.516502" lon="103.332688"><ele>3024.7158</ele><time>2026-02-19T16:37:47.000Z</time></trkpt>
        <trkpt lat="29.516543" lon="103.332735"><ele>3024.6133</ele><time>2026-02-19T16:37:53.000Z</time></trkpt>
        <trkpt lat="29.516574" lon="103.332783"><ele>3023.6096</ele><time>2026-02-19T16:38:00.000Z</time></trkpt>
        <trkpt lat="29.516614" lon="103.332825"><ele>3021.1624</ele><time>2026-02-19T16:38:07.000Z</time></trkpt>
        <trkpt lat="29.516643" lon="103.332879"><ele>3017.9763</ele><time>2026-02-19T16:38:20.000Z</time></trkpt>
        <trkpt lat="29.516669" lon="103.332925"><ele>3016.0244</ele><time>2026-02-19T16:38:35.000Z</time></trkpt>
        <trkpt lat="29.516694" lon="103.33297"><ele>3014.4229</ele><time>2026-02-19T16:38:42.000Z</time></trkpt>
        <trkpt lat="29.516735" lon="103.333017"><ele>3010.6572</ele><time>2026-02-19T16:38:56.000Z</time></trkpt>
        <trkpt lat="29.516773" lon="103.333037"><ele>3010.825</ele><time>2026-02-19T16:39:03.000Z</time></trkpt>
        <trkpt lat="29.516819" lon="103.333051"><ele>3011.3904</ele><time>2026-02-19T16:39:10.000Z</time></trkpt>
        <trkpt lat="29.516865" lon="103.333058"><ele>3013.311</ele><time>2026-02-19T16:39:15.000Z</time></trkpt>
        <trkpt lat="29.516921" lon="103.333074"><ele>3013.9568</ele><time>2026-02-19T16:39:21.000Z</time></trkpt>
        <trkpt lat="29.516972" lon="103.333086"><ele>3013.7864</ele><time>2026-02-19T16:39:26.000Z</time></trkpt>
        <trkpt lat="29.51703" lon="103.333107"><ele>3013.581</ele><time>2026-02-19T16:39:31.000Z</time></trkpt>
        <trkpt lat="29.517072" lon="103.33312"><ele>3013.9385</ele><time>2026-02-19T16:39:34.000Z</time></trkpt>
        <trkpt lat="29.517132" lon="103.333129"><ele>3009.1267</ele><time>2026-02-19T16:39:51.000Z</time></trkpt>
        <trkpt lat="29.517163" lon="103.33311"><ele>3007.7012</ele><time>2026-02-19T16:39:56.000Z</time></trkpt>
        <trkpt lat="29.517202" lon="103.333088"><ele>3008.0193</ele><time>2026-02-19T16:40:00.000Z</time></trkpt>
        <trkpt lat="29.517259" lon="103.333069"><ele>3008.524</ele><time>2026-02-19T16:40:05.000Z</time></trkpt>
        <trkpt lat="29.517313" lon="103.333039"><ele>3008.263</ele><time>2026-02-19T16:40:10.000Z</time></trkpt>
        <trkpt lat="29.517354" lon="103.333"><ele>3008.4019</ele><time>2026-02-19T16:40:14.000Z</time></trkpt>
        <trkpt lat="29.5174" lon="103.332956"><ele>3008.8777</ele><time>2026-02-19T16:40:20.000Z</time></trkpt>
        <trkpt lat="29.517434" lon="103.332918"><ele>3010.0913</ele><time>2026-02-19T16:40:26.000Z</time></trkpt>
        <trkpt lat="29.517474" lon="103.332884"><ele>3010.6245</ele><time>2026-02-19T16:40:32.000Z</time></trkpt>
        <trkpt lat="29.517511" lon="103.332854"><ele>3010.9705</ele><time>2026-02-19T16:40:37.000Z</time></trkpt>
        <trkpt lat="29.517547" lon="103.332825"><ele>3011.93</ele><time>2026-02-19T16:40:41.000Z</time></trkpt>
        <trkpt lat="29.517587" lon="103.332782"><ele>3012.4548</ele><time>2026-02-19T16:40:47.000Z</time></trkpt>
        <trkpt lat="29.517617" lon="103.332737"><ele>3012.9407</ele><time>2026-02-19T16:40:52.000Z</time></trkpt>
        <trkpt lat="29.517649" lon="103.332698"><ele>3012.8145</ele><time>2026-02-19T16:40:56.000Z</time></trkpt>
        <trkpt lat="29.517676" lon="103.332661"><ele>3012.7434</ele><time>2026-02-19T16:41:00.000Z</time></trkpt>
        <trkpt lat="29.517719" lon="103.332614"><ele>3012.69</ele><time>2026-02-19T16:41:05.000Z</time></trkpt>
        <trkpt lat="29.517757" lon="103.332577"><ele>3013.1035</ele><time>2026-02-19T16:41:10.000Z</time></trkpt>
        <trkpt lat="29.517794" lon="103.332541"><ele>3013.8262</ele><time>2026-02-19T16:41:15.000Z</time></trkpt>
        <trkpt lat="29.51784" lon="103.332512"><ele>3014.2734</ele><time>2026-02-19T16:41:20.000Z</time></trkpt>
        <trkpt lat="29.517886" lon="103.332493"><ele>3015.67</ele><time>2026-02-19T16:41:25.000Z</time></trkpt>
        <trkpt lat="29.517936" lon="103.332473"><ele>3016.5012</ele><time>2026-02-19T16:41:31.000Z</time></trkpt>
        <trkpt lat="29.517973" lon="103.332448"><ele>3016.079</ele><time>2026-02-19T16:41:35.000Z</time></trkpt>
        <trkpt lat="29.518026" lon="103.332418"><ele>3015.8032</ele><time>2026-02-19T16:41:40.000Z</time></trkpt>
        <trkpt lat="29.518075" lon="103.332397"><ele>3015.4004</ele><time>2026-02-19T16:41:45.000Z</time></trkpt>
        <trkpt lat="29.518118" lon="103.332389"><ele>3015.2368</ele><time>2026-02-19T16:41:49.000Z</time></trkpt>
        <trkpt lat="29.518165" lon="103.332401"><ele>3015.3223</ele><time>2026-02-19T16:41:54.000Z</time></trkpt>
        <trkpt lat="29.518211" lon="103.332427"><ele>3014.4438</ele><time>2026-02-19T16:42:00.000Z</time></trkpt>
        <trkpt lat="29.518259" lon="103.332455"><ele>3013.0696</ele><time>2026-02-19T16:42:05.000Z</time></trkpt>
        <trkpt lat="29.518291" lon="103.332505"><ele>3012.221</ele><time>2026-02-19T16:42:10.000Z</time></trkpt>
        <trkpt lat="29.518317" lon="103.332551"><ele>3012.4114</ele><time>2026-02-19T16:42:14.000Z</time></trkpt>
        <trkpt lat="29.518354" lon="103.332602"><ele>3012.4578</ele><time>2026-02-19T16:42:23.000Z</time></trkpt>
        <trkpt lat="29.518384" lon="103.33263"><ele>3012.7852</ele><time>2026-02-19T16:42:28.000Z</time></trkpt>
        <trkpt lat="29.518421" lon="103.332661"><ele>3013.2388</ele><time>2026-02-19T16:42:33.000Z</time></trkpt>
        <trkpt lat="29.51846" lon="103.332694"><ele>3012.7566</ele><time>2026-02-19T16:42:37.000Z</time></trkpt>
        <trkpt lat="29.518504" lon="103.332737"><ele>3012.593</ele><time>2026-02-19T16:42:42.000Z</time></trkpt>
        <trkpt lat="29.51855" lon="103.332777"><ele>3011.0547</ele><time>2026-02-19T16:42:48.000Z</time></trkpt>
        <trkpt lat="29.518589" lon="103.332822"><ele>3010.675</ele><time>2026-02-19T16:42:53.000Z</time></trkpt>
        <trkpt lat="29.518634" lon="103.332844"><ele>3009.4463</ele><time>2026-02-19T16:42:59.000Z</time></trkpt>
        <trkpt lat="29.518679" lon="103.33286"><ele>3006.6047</ele><time>2026-02-19T16:43:07.000Z</time></trkpt>
        <trkpt lat="29.51873" lon="103.332883"><ele>3005.6558</ele><time>2026-02-19T16:43:14.000Z</time></trkpt>
        <trkpt lat="29.518771" lon="103.332884"><ele>3006.0044</ele><time>2026-02-19T16:43:18.000Z</time></trkpt>
        <trkpt lat="29.518825" lon="103.332893"><ele>3006.9897</ele><time>2026-02-19T16:43:23.000Z</time></trkpt>
        <trkpt lat="29.51889" lon="103.332914"><ele>3008.7664</ele><time>2026-02-19T16:43:30.000Z</time></trkpt>
        <trkpt lat="29.518939" lon="103.332947"><ele>3004.1619</ele><time>2026-02-19T16:43:40.000Z</time></trkpt>
        <trkpt lat="29.518981" lon="103.332976"><ele>3001.6074</ele><time>2026-02-19T16:43:49.000Z</time></trkpt>
        <trkpt lat="29.519028" lon="103.333012"><ele>2999.7021</ele><time>2026-02-19T16:43:58.000Z</time></trkpt>
        <trkpt lat="29.519079" lon="103.333032"><ele>2999.2153</ele><time>2026-02-19T16:44:04.000Z</time></trkpt>
        <trkpt lat="29.519122" lon="103.333068"><ele>3000.134</ele><time>2026-02-19T16:44:13.000Z</time></trkpt>
        <trkpt lat="29.519138" lon="103.333117"><ele>3003.0886</ele><time>2026-02-19T16:44:23.000Z</time></trkpt>
        <trkpt lat="29.519142" lon="103.333169"><ele>3005.5466</ele><time>2026-02-19T16:44:30.000Z</time></trkpt>
        <trkpt lat="29.519155" lon="103.333227"><ele>3007.2053</ele><time>2026-02-19T16:44:38.000Z</time></trkpt>
        <trkpt lat="29.519168" lon="103.33328"><ele>3006.592</ele><time>2026-02-19T16:44:46.000Z</time></trkpt>
        <trkpt lat="29.519183" lon="103.333328"><ele>3007.5225</ele><time>2026-02-19T16:44:52.000Z</time></trkpt>
        <trkpt lat="29.5192" lon="103.33338"><ele>3008.009</ele><time>2026-02-19T16:44:57.000Z</time></trkpt>
        <trkpt lat="29.519224" lon="103.333435"><ele>3007.1982</ele><time>2026-02-19T16:45:14.000Z</time></trkpt>
        <trkpt lat="29.51926" lon="103.333455"><ele>3004.8057</ele><time>2026-02-19T16:45:23.000Z</time></trkpt>
        <trkpt lat="29.519308" lon="103.333479"><ele>3004.4016</ele><time>2026-02-19T16:45:34.000Z</time></trkpt>
        <trkpt lat="29.519347" lon="103.3335"><ele>3002.8152</ele><time>2026-02-19T16:45:40.000Z</time></trkpt>
        <trkpt lat="29.519395" lon="103.333522"><ele>3000.9321</ele><time>2026-02-19T16:45:49.000Z</time></trkpt>
        <trkpt lat="29.519438" lon="103.333541"><ele>2998.7766</ele><time>2026-02-19T16:45:58.000Z</time></trkpt>
        <trkpt lat="29.51948" lon="103.333552"><ele>2997.9314</ele><time>2026-02-19T16:46:04.000Z</time></trkpt>
        <trkpt lat="29.519522" lon="103.333581"><ele>2997.9524</ele><time>2026-02-19T16:46:10.000Z</time></trkpt>
        <trkpt lat="29.519555" lon="103.33363"><ele>2997.4478</ele><time>2026-02-19T16:46:17.000Z</time></trkpt>
        <trkpt lat="29.519571" lon="103.333683"><ele>2996.3284</ele><time>2026-02-19T16:46:24.000Z</time></trkpt>
        <trkpt lat="29.519597" lon="103.333727"><ele>2993.5918</ele><time>2026-02-19T16:46:32.000Z</time></trkpt>
        <trkpt lat="29.519631" lon="103.333774"><ele>2992.7373</ele><time>2026-02-19T16:46:40.000Z</time></trkpt>
        <trkpt lat="29.519663" lon="103.333822"><ele>2993.1646</ele><time>2026-02-19T16:46:45.000Z</time></trkpt>
        <trkpt lat="29.519698" lon="103.333874"><ele>2992.4822</ele><time>2026-02-19T16:46:50.000Z</time></trkpt>
        <trkpt lat="29.519732" lon="103.33393"><ele>2991.9995</ele><time>2026-02-19T16:46:56.000Z</time></trkpt>
        <trkpt lat="29.519766" lon="103.333976"><ele>2991.8616</ele><time>2026-02-19T16:47:01.000Z</time></trkpt>
        <trkpt lat="29.5198" lon="103.334019"><ele>2991.5625</ele><time>2026-02-19T16:47:06.000Z</time></trkpt>
        <trkpt lat="29.519827" lon="103.334057"><ele>2992.0667</ele><time>2026-02-19T16:47:10.000Z</time></trkpt>
        <trkpt lat="29.51985" lon="103.334107"><ele>2991.951</ele><time>2026-02-19T16:47:16.000Z</time></trkpt>
        <trkpt lat="29.519877" lon="103.334153"><ele>2992.0293</ele><time>2026-02-19T16:47:21.000Z</time></trkpt>
        <trkpt lat="29.519905" lon="103.334198"><ele>2992.0925</ele><time>2026-02-19T16:47:26.000Z</time></trkpt>
        <trkpt lat="29.519948" lon="103.334224"><ele>2991.856</ele><time>2026-02-19T16:47:31.000Z</time></trkpt>
        <trkpt lat="29.519998" lon="103.334237"><ele>2992.813</ele><time>2026-02-19T16:47:37.000Z</time></trkpt>
        <trkpt lat="29.520045" lon="103.334263"><ele>2995.2393</ele><time>2026-02-19T16:47:43.000Z</time></trkpt>
        <trkpt lat="29.520092" lon="103.334283"><ele>2995.456</ele><time>2026-02-19T16:47:49.000Z</time></trkpt>
        <trkpt lat="29.520135" lon="103.334309"><ele>2996.4653</ele><time>2026-02-19T16:47:57.000Z</time></trkpt>
        <trkpt lat="29.520174" lon="103.334332"><ele>2997.8513</ele><time>2026-02-19T16:48:04.000Z</time></trkpt>
        <trkpt lat="29.520225" lon="103.334353"><ele>2999.9663</ele><time>2026-02-19T16:48:14.000Z</time></trkpt>
        <trkpt lat="29.520272" lon="103.334382"><ele>3000.7466</ele><time>2026-02-19T16:48:24.000Z</time></trkpt>
        <trkpt lat="29.520315" lon="103.334405"><ele>3002.5344</ele><time>2026-02-19T16:48:48.000Z</time></trkpt>
        <trkpt lat="29.520356" lon="103.334419"><ele>3003.8594</ele><time>2026-02-19T16:48:56.000Z</time></trkpt>
        <trkpt lat="29.520405" lon="103.334433"><ele>3005.989</ele><time>2026-02-19T16:49:05.000Z</time></trkpt>
        <trkpt lat="29.520453" lon="103.33444"><ele>3007.5571</ele><time>2026-02-19T16:49:12.000Z</time></trkpt>
        <trkpt lat="29.520506" lon="103.334456"><ele>3007.6968</ele><time>2026-02-19T16:49:22.000Z</time></trkpt>
        <trkpt lat="29.520555" lon="103.334454"><ele>3008.633</ele><time>2026-02-19T16:49:31.000Z</time></trkpt>
        <trkpt lat="29.520597" lon="103.334435"><ele>3010.4702</ele><time>2026-02-19T16:49:37.000Z</time></trkpt>
        <trkpt lat="29.520648" lon="103.334438"><ele>3013.0488</ele><time>2026-02-19T16:49:44.000Z</time></trkpt>
        <trkpt lat="29.520689" lon="103.334465"><ele>3013.848</ele><time>2026-02-19T16:49:49.000Z</time></trkpt>
        <trkpt lat="29.520651" lon="103.334498"><ele>3014.374</ele><time>2026-02-19T16:50:08.000Z</time></trkpt>
        <trkpt lat="29.520603" lon="103.33453"><ele>3016.0222</ele><time>2026-02-19T16:50:16.000Z</time></trkpt>
        <trkpt lat="29.520568" lon="103.334577"><ele>3015.4658</ele><time>2026-02-19T16:50:23.000Z</time></trkpt>
        <trkpt lat="29.520534" lon="103.334619"><ele>3015.1313</ele><time>2026-02-19T16:50:40.000Z</time></trkpt>
        <trkpt lat="29.520508" lon="103.334654"><ele>3014.1816</ele><time>2026-02-19T16:50:47.000Z</time></trkpt>
        <trkpt lat="29.52047" lon="103.334696"><ele>3014.1726</ele><time>2026-02-19T16:50:54.000Z</time></trkpt>
        <trkpt lat="29.520439" lon="103.334734"><ele>3014.0857</ele><time>2026-02-19T16:50:59.000Z</time></trkpt>
        <trkpt lat="29.520452" lon="103.334788"><ele>3016.0298</ele><time>2026-02-19T16:51:10.000Z</time></trkpt>
        <trkpt lat="29.520487" lon="103.334826"><ele>3018.883</ele><time>2026-02-19T16:51:19.000Z</time></trkpt>
        <trkpt lat="29.520524" lon="103.334868"><ele>3020.764</ele><time>2026-02-19T16:51:43.000Z</time></trkpt>
        <trkpt lat="29.520554" lon="103.334902"><ele>3023.5571</ele><time>2026-02-19T16:51:51.000Z</time></trkpt>
        <trkpt lat="29.520586" lon="103.334946"><ele>3027.4548</ele><time>2026-02-19T16:52:00.000Z</time></trkpt>
        <trkpt lat="29.520634" lon="103.334951"><ele>3028.4453</ele><time>2026-02-19T16:52:26.000Z</time></trkpt>
        <trkpt lat="29.520676" lon="103.334941"><ele>3028.1458</ele><time>2026-02-19T16:52:36.000Z</time></trkpt>
        <trkpt lat="29.520719" lon="103.334924"><ele>3028.9028</ele><time>2026-02-19T16:52:45.000Z</time></trkpt>
        <trkpt lat="29.520765" lon="103.334909"><ele>3031.6042</ele><time>2026-02-19T16:54:02.000Z</time></trkpt>
        <trkpt lat="29.520809" lon="103.334898"><ele>3031.4072</ele><time>2026-02-19T16:54:19.000Z</time></trkpt>
        <trkpt lat="29.52086" lon="103.33491"><ele>3033.3567</ele><time>2026-02-19T16:54:29.000Z</time></trkpt>
        <trkpt lat="29.520873" lon="103.334965"><ele>3036.97</ele><time>2026-02-19T16:54:43.000Z</time></trkpt>
        <trkpt lat="29.520861" lon="103.335016"><ele>3040.3901</ele><time>2026-02-19T16:54:53.000Z</time></trkpt>
        <trkpt lat="29.52087" lon="103.335073"><ele>3042.0024</ele><time>2026-02-19T16:55:03.000Z</time></trkpt>
        <trkpt lat="29.520866" lon="103.335127"><ele>3043.4055</ele><time>2026-02-19T16:55:10.000Z</time></trkpt>
        <trkpt lat="29.520845" lon="103.335173"><ele>3045.1294</ele><time>2026-02-19T16:55:16.000Z</time></trkpt>
        <trkpt lat="29.520854" lon="103.335231"><ele>3045.906</ele><time>2026-02-19T16:55:54.000Z</time></trkpt>
        <trkpt lat="29.520888" lon="103.335263"><ele>3047.0012</ele><time>2026-02-19T16:56:03.000Z</time></trkpt>
        <trkpt lat="29.520923" lon="103.335308"><ele>3049.0256</ele><time>2026-02-19T16:56:16.000Z</time></trkpt>
        <trkpt lat="29.520958" lon="103.335345"><ele>3050.845</ele><time>2026-02-19T16:56:28.000Z</time></trkpt>
        <trkpt lat="29.521008" lon="103.335369"><ele>3052.485</ele><time>2026-02-19T16:56:38.000Z</time></trkpt>
        <trkpt lat="29.521055" lon="103.33538"><ele>3054.0625</ele><time>2026-02-19T16:56:46.000Z</time></trkpt>
        <trkpt lat="29.521102" lon="103.33538"><ele>3055.967</ele><time>2026-02-19T16:56:54.000Z</time></trkpt>
        <trkpt lat="29.521139" lon="103.335411"><ele>3057.351</ele><time>2026-02-19T16:57:02.000Z</time></trkpt>
        <trkpt lat="29.521178" lon="103.335455"><ele>3058.7664</ele><time>2026-02-19T16:57:13.000Z</time></trkpt>
        <trkpt lat="29.521224" lon="103.335486"><ele>3062.4387</ele><time>2026-02-19T16:58:29.000Z</time></trkpt>
        <trkpt lat="29.52124" lon="103.33552"><ele>3063.0796</ele><time>2026-02-19T16:58:34.000Z</time></trkpt>
        <trkpt lat="29.521264" lon="103.335582"><ele>3063.4368</ele><time>2026-02-19T16:58:40.000Z</time></trkpt>
        <trkpt lat="29.521304" lon="103.33562"><ele>3063.3904</ele><time>2026-02-19T16:58:45.000Z</time></trkpt>
        <trkpt lat="29.521338" lon="103.335666"><ele>3064.0454</ele><time>2026-02-19T16:58:51.000Z</time></trkpt>
        <trkpt lat="29.521365" lon="103.335713"><ele>3063.0667</ele><time>2026-02-19T16:59:04.000Z</time></trkpt>
        <trkpt lat="29.52139" lon="103.335747"><ele>3062.6848</ele><time>2026-02-19T16:59:09.000Z</time></trkpt>
        <trkpt lat="29.521421" lon="103.335794"><ele>3061.6567</ele><time>2026-02-19T16:59:14.000Z</time></trkpt>
        <trkpt lat="29.521461" lon="103.335835"><ele>3063.0376</ele><time>2026-02-19T16:59:18.000Z</time></trkpt>
        <trkpt lat="29.521503" lon="103.335888"><ele>3064.6772</ele><time>2026-02-19T16:59:23.000Z</time></trkpt>
        <trkpt lat="29.521544" lon="103.335924"><ele>3065.235</ele><time>2026-02-19T16:59:27.000Z</time></trkpt>
        <trkpt lat="29.521578" lon="103.335974"><ele>3063.6633</ele><time>2026-02-19T16:59:33.000Z</time></trkpt>
        <trkpt lat="29.521606" lon="103.33601"><ele>3063.4246</ele><time>2026-02-19T16:59:37.000Z</time></trkpt>
        <trkpt lat="29.521637" lon="103.336049"><ele>3062.9568</ele><time>2026-02-19T16:59:41.000Z</time></trkpt>
        <trkpt lat="29.521671" lon="103.336091"><ele>3062.705</ele><time>2026-02-19T16:59:45.000Z</time></trkpt>
        <trkpt lat="29.521709" lon="103.336124"><ele>3062.4646</ele><time>2026-02-19T16:59:50.000Z</time></trkpt>
        <trkpt lat="29.521757" lon="103.336157"><ele>3062.446</ele><time>2026-02-19T16:59:55.000Z</time></trkpt>
        <trkpt lat="29.521797" lon="103.336197"><ele>3062.0059</ele><time>2026-02-19T17:00:00.000Z</time></trkpt>
        <trkpt lat="29.521825" lon="103.336251"><ele>3060.3247</ele><time>2026-02-19T17:00:08.000Z</time></trkpt>
        <trkpt lat="29.521831" lon="103.336303"><ele>3060.1963</ele><time>2026-02-19T17:00:15.000Z</time></trkpt>
        <trkpt lat="29.521871" lon="103.336329"><ele>3057.885</ele><time>2026-02-19T17:00:25.000Z</time></trkpt>
        <trkpt lat="29.52192" lon="103.336325"><ele>3058.5703</ele><time>2026-02-19T17:00:31.000Z</time></trkpt>
        <trkpt lat="29.521969" lon="103.336318"><ele>3059.2021</ele><time>2026-02-19T17:00:35.000Z</time></trkpt>
        <trkpt lat="29.522015" lon="103.33635"><ele>3060.058</ele><time>2026-02-19T17:00:40.000Z</time></trkpt>
        <trkpt lat="29.522044" lon="103.336396"><ele>3061.3948</ele><time>2026-02-19T17:00:45.000Z</time></trkpt>
        <trkpt lat="29.522079" lon="103.336395"><ele>3062.2983</ele><time>2026-02-19T17:00:49.000Z</time></trkpt>
        <trkpt lat="29.522139" lon="103.336391"><ele>3062.448</ele><time>2026-02-19T17:00:59.000Z</time></trkpt>
        <trkpt lat="29.522184" lon="103.336374"><ele>3063.3438</ele><time>2026-02-19T17:01:04.000Z</time></trkpt>
        <trkpt lat="29.522228" lon="103.336359"><ele>3064.2532</ele><time>2026-02-19T17:01:08.000Z</time></trkpt>
        <trkpt lat="29.522276" lon="103.336342"><ele>3064.409</ele><time>2026-02-19T17:01:12.000Z</time></trkpt>
        <trkpt lat="29.52233" lon="103.336331"><ele>3064.7693</ele><time>2026-02-19T17:01:17.000Z</time></trkpt>
        <trkpt lat="29.522376" lon="103.336331"><ele>3064.0903</ele><time>2026-02-19T17:01:21.000Z</time></trkpt>
        <trkpt lat="29.522424" lon="103.336334"><ele>3062.6345</ele><time>2026-02-19T17:01:25.000Z</time></trkpt>
        <trkpt lat="29.522481" lon="103.336345"><ele>3062.0852</ele><time>2026-02-19T17:01:30.000Z</time></trkpt>
        <trkpt lat="29.522483" lon="103.336401"><ele>3061.3704</ele><time>2026-02-19T17:01:40.000Z</time></trkpt>
        <trkpt lat="29.522455" lon="103.336454"><ele>3061.2632</ele><time>2026-02-19T17:01:45.000Z</time></trkpt>
        <trkpt lat="29.522432" lon="103.336505"><ele>3061.5852</ele><time>2026-02-19T17:01:50.000Z</time></trkpt>
        <trkpt lat="29.522471" lon="103.336539"><ele>3061.2131</ele><time>2026-02-19T17:02:03.000Z</time></trkpt>
        <trkpt lat="29.522502" lon="103.33655"><ele>3060.4932</ele><time>2026-02-19T17:02:05.000Z</time></trkpt>
        <trkpt lat="29.522542" lon="103.336584"><ele>3060.3813</ele><time>2026-02-19T17:02:09.000Z</time></trkpt>
        <trkpt lat="29.522589" lon="103.336618"><ele>3060.3748</ele><time>2026-02-19T17:02:12.000Z</time></trkpt>
        <trkpt lat="29.522612" lon="103.33666"><ele>3060.8264</ele><time>2026-02-19T17:02:14.000Z</time></trkpt>
        <trkpt lat="29.522613" lon="103.336698"><ele>3061.3113</ele><time>2026-02-19T17:02:15.000Z</time></trkpt>
        <trkpt lat="29.522603" lon="103.336729"><ele>3061.4004</ele><time>2026-02-19T17:02:16.000Z</time></trkpt>
        <trkpt lat="29.522572" lon="103.336791"><ele>3061.7004</ele><time>2026-02-19T17:02:19.000Z</time></trkpt>
        <trkpt lat="29.522508" lon="103.336797"><ele>3061.7607</ele><time>2026-02-19T17:02:21.000Z</time></trkpt>
        <trkpt lat="29.522465" lon="103.336808"><ele>3063.58</ele><time>2026-02-19T17:02:30.000Z</time></trkpt>
        <trkpt lat="29.522508" lon="103.336797"><ele>3064.4048</ele><time>2026-02-19T17:02:34.000Z</time></trkpt>
        <trkpt lat="29.522574" lon="103.33682"><ele>3063.0762</ele><time>2026-02-19T17:02:43.000Z</time></trkpt>
        <trkpt lat="29.522604" lon="103.336865"><ele>3062.2405</ele><time>2026-02-19T17:02:49.000Z</time></trkpt>
        <trkpt lat="29.522652" lon="103.336832"><ele>3070.6013</ele><time>2026-02-19T17:03:19.000Z</time></trkpt>
        <trkpt lat="29.522634" lon="103.336765"><ele>3070.9065</ele><time>2026-02-19T17:03:20.000Z</time></trkpt>
        <trkpt lat="29.522588" lon="103.33671"><ele>3070.3564</ele><time>2026-02-19T17:03:20.000Z</time></trkpt>
        <trkpt lat="29.521567" lon="103.335726"><ele>3062.8542</ele><time>2026-02-19T17:03:32.000Z</time></trkpt>
        <trkpt lat="29.521502" lon="103.335711"><ele>3060.5132</ele><time>2026-02-19T17:03:32.000Z</time></trkpt>
        <trkpt lat="29.521473" lon="103.335732"><ele>3059.1594</ele><time>2026-02-19T17:03:33.000Z</time></trkpt>
        <trkpt lat="29.521565" lon="103.335856"><ele>3058.9036</ele><time>2026-02-19T17:03:34.000Z</time></trkpt>
        <trkpt lat="29.521721" lon="103.336008"><ele>3058.1667</ele><time>2026-02-19T17:03:35.000Z</time></trkpt>
        <trkpt lat="29.521869" lon="103.336126"><ele>3057.723</ele><time>2026-02-19T17:03:36.000Z</time></trkpt>
        <trkpt lat="29.521999" lon="103.336223"><ele>3058.213</ele><time>2026-02-19T17:03:37.000Z</time></trkpt>
        <trkpt lat="29.522268" lon="103.33647"><ele>3060.4543</ele><time>2026-02-19T17:03:55.000Z</time></trkpt>
        <trkpt lat="29.522319" lon="103.336507"><ele>3062.06</ele><time>2026-02-19T17:04:01.000Z</time></trkpt>
        <trkpt lat="29.522379" lon="103.336513"><ele>3062.8696</ele><time>2026-02-19T17:04:04.000Z</time></trkpt>
        <trkpt lat="29.522431" lon="103.336522"><ele>3063.2646</ele><time>2026-02-19T17:04:06.000Z</time></trkpt>
        <trkpt lat="29.522463" lon="103.336569"><ele>3063.9844</ele><time>2026-02-19T17:04:12.000Z</time></trkpt>
        <trkpt lat="29.522461" lon="103.336621"><ele>3063.5923</ele><time>2026-02-19T17:04:16.000Z</time></trkpt>
        <trkpt lat="29.522451" lon="103.336682"><ele>3063.0454</ele><time>2026-02-19T17:04:21.000Z</time></trkpt>
        <trkpt lat="29.522445" lon="103.336744"><ele>3063.0552</ele><time>2026-02-19T17:04:29.000Z</time></trkpt>
        <trkpt lat="29.522478" lon="103.336725"><ele>3064.939</ele><time>2026-02-19T17:04:34.000Z</time></trkpt>
        <trkpt lat="29.522519" lon="103.336699"><ele>3065.6738</ele><time>2026-02-19T17:04:38.000Z</time></trkpt>
        <trkpt lat="29.522568" lon="103.336671"><ele>3066.9204</ele><time>2026-02-19T17:04:43.000Z</time></trkpt>
        <trkpt lat="29.522611" lon="103.336648"><ele>3066.9287</ele><time>2026-02-19T17:04:47.000Z</time></trkpt>
        <trkpt lat="29.522667" lon="103.336635"><ele>3066.7583</ele><time>2026-02-19T17:04:52.000Z</time></trkpt>
        <trkpt lat="29.522713" lon="103.336637"><ele>3064.6245</ele><time>2026-02-19T17:04:56.000Z</time></trkpt>
        <trkpt lat="29.522762" lon="103.336644"><ele>3064.124</ele><time>2026-02-19T17:05:01.000Z</time></trkpt>
        <trkpt lat="29.522811" lon="103.33663"><ele>3063.676</ele><time>2026-02-19T17:05:06.000Z</time></trkpt>
        <trkpt lat="29.522853" lon="103.336612"><ele>3063.0466</ele><time>2026-02-19T17:05:09.000Z</time></trkpt>
        <trkpt lat="29.522896" lon="103.336573"><ele>3065.1426</ele><time>2026-02-19T17:05:26.000Z</time></trkpt>
        <trkpt lat="29.522928" lon="103.336547"><ele>3066.5393</ele><time>2026-02-19T17:05:32.000Z</time></trkpt>
        <trkpt lat="29.522923" lon="103.336491"><ele>3064.5713</ele><time>2026-02-19T17:06:12.000Z</time></trkpt>
        <trkpt lat="29.5229" lon="103.336443"><ele>3060.099</ele><time>2026-02-19T17:06:30.000Z</time></trkpt>
        <trkpt lat="29.522859" lon="103.336462"><ele>3061.9495</ele><time>2026-02-19T17:06:37.000Z</time></trkpt>
        <trkpt lat="29.52288" lon="103.336284"><ele>3072.8147</ele><time>2026-02-19T17:07:18.000Z</time></trkpt>
        <trkpt lat="29.522874" lon="103.336212"><ele>3064.3162</ele><time>2026-02-19T17:07:27.000Z</time></trkpt>
        <trkpt lat="29.522854" lon="103.336143"><ele>3062.5112</ele><time>2026-02-19T17:07:42.000Z</time></trkpt>
        <trkpt lat="29.522866" lon="103.336247"><ele>3060.5815</ele><time>2026-02-19T17:08:26.000Z</time></trkpt>
        <trkpt lat="29.52287" lon="103.336363"><ele>3059.7363</ele><time>2026-02-19T17:08:27.000Z</time></trkpt>
        <trkpt lat="29.522867" lon="103.336353"><ele>3059.405</ele><time>2026-02-19T17:08:28.000Z</time></trkpt>
        <trkpt lat="29.522868" lon="103.336293"><ele>3060.432</ele><time>2026-02-19T17:08:29.000Z</time></trkpt>
        <trkpt lat="29.522859" lon="103.336204"><ele>3060.4517</ele><time>2026-02-19T17:08:31.000Z</time></trkpt>
        <trkpt lat="29.522838" lon="103.336138"><ele>3060.0876</ele><time>2026-02-19T17:08:33.000Z</time></trkpt>
        <trkpt lat="29.522815" lon="103.336068"><ele>3059.726</ele><time>2026-02-19T17:08:36.000Z</time></trkpt>
        <trkpt lat="29.522794" lon="103.335975"><ele>3060.6304</ele><time>2026-02-19T17:08:40.000Z</time></trkpt>
        <trkpt lat="29.522752" lon="103.335993"><ele>3061.763</ele><time>2026-02-19T17:09:15.000Z</time></trkpt>
        <trkpt lat="29.522746" lon="103.336069"><ele>3060.2866</ele><time>2026-02-19T17:09:21.000Z</time></trkpt>
        <trkpt lat="29.522708" lon="103.336104"><ele>3061.323</ele><time>2026-02-19T17:09:31.000Z</time></trkpt>
        <trkpt lat="29.522667" lon="103.336113"><ele>3063.3403</ele><time>2026-02-19T17:09:36.000Z</time></trkpt>
        <trkpt lat="29.522637" lon="103.33616"><ele>3063.1257</ele><time>2026-02-19T17:09:47.000Z</time></trkpt>
        <trkpt lat="29.522643" lon="103.33622"><ele>3062.8728</ele><time>2026-02-19T17:09:53.000Z</time></trkpt>
        <trkpt lat="29.522626" lon="103.336269"><ele>3063.2173</ele><time>2026-02-19T17:09:58.000Z</time></trkpt>
        <trkpt lat="29.522584" lon="103.336307"><ele>3063.6611</ele><time>2026-02-19T17:10:03.000Z</time></trkpt>
        <trkpt lat="29.522561" lon="103.33636"><ele>3062.2407</ele><time>2026-02-19T17:11:41.000Z</time></trkpt>
        <trkpt lat="29.522555" lon="103.336398"><ele>3062.1885</ele><time>2026-02-19T17:11:47.000Z</time></trkpt>
        <trkpt lat="29.522543" lon="103.33648"><ele>3063.014</ele><time>2026-02-19T17:12:04.000Z</time></trkpt>
        <trkpt lat="29.522551" lon="103.336527"><ele>3062.665</ele><time>2026-02-19T17:12:09.000Z</time></trkpt>
        <trkpt lat="29.522554" lon="103.336594"><ele>3062.9788</ele><time>2026-02-19T17:12:22.000Z</time></trkpt>
        <trkpt lat="29.522526" lon="103.336619"><ele>3061.8518</ele><time>2026-02-19T17:12:26.000Z</time></trkpt>
        <trkpt lat="29.522487" lon="103.336669"><ele>3061.7566</ele><time>2026-02-19T17:12:31.000Z</time></trkpt>
        <trkpt lat="29.522455" lon="103.336731"><ele>3061.8486</ele><time>2026-02-19T17:12:37.000Z</time></trkpt>
        <trkpt lat="29.522432" lon="103.336781"><ele>3060.9934</ele><time>2026-02-19T17:12:41.000Z</time></trkpt>
        <trkpt lat="29.522432" lon="103.336822"><ele>3061.403</ele><time>2026-02-19T17:12:43.000Z</time></trkpt>
        <trkpt lat="29.522443" lon="103.336882"><ele>3062.6516</ele><time>2026-02-19T17:12:47.000Z</time></trkpt>
        <trkpt lat="29.522459" lon="103.336949"><ele>3064.89</ele><time>2026-02-19T17:12:51.000Z</time></trkpt>
        <trkpt lat="29.522457" lon="103.33701"><ele>3063.258</ele><time>2026-02-19T17:13:11.000Z</time></trkpt>
        <trkpt lat="29.522432" lon="103.337034"><ele>3063.0332</ele><time>2026-02-19T17:13:16.000Z</time></trkpt>
        <trkpt lat="29.522406" lon="103.337086"><ele>3065.7693</ele><time>2026-02-19T17:13:21.000Z</time></trkpt>
        <trkpt lat="29.522432" lon="103.337147"><ele>3069.8506</ele><time>2026-02-19T17:13:42.000Z</time></trkpt>
        <trkpt lat="29.522462" lon="103.337184"><ele>3068.6907</ele><time>2026-02-19T17:13:47.000Z</time></trkpt>
        <trkpt lat="29.522487" lon="103.337233"><ele>3067.221</ele><time>2026-02-19T17:13:53.000Z</time></trkpt>
        <trkpt lat="29.522515" lon="103.337277"><ele>3068.0688</ele><time>2026-02-19T17:13:57.000Z</time></trkpt>
        <trkpt lat="29.522551" lon="103.337315"><ele>3068.2842</ele><time>2026-02-19T17:14:01.000Z</time></trkpt>
        <trkpt lat="29.522612" lon="103.33731"><ele>3070.2705</ele><time>2026-02-19T17:14:08.000Z</time></trkpt>
        <trkpt lat="29.522622" lon="103.337247"><ele>3070.3774</ele><time>2026-02-19T17:14:15.000Z</time></trkpt>
        <trkpt lat="29.522621" lon="103.337195"><ele>3069.8987</ele><time>2026-02-19T17:14:19.000Z</time></trkpt>
        <trkpt lat="29.522614" lon="103.337131"><ele>3069.9783</ele><time>2026-02-19T17:14:27.000Z</time></trkpt>
        <trkpt lat="29.522647" lon="103.33712"><ele>3070.3223</ele><time>2026-02-19T17:14:32.000Z</time></trkpt>
        <trkpt lat="29.522695" lon="103.33712"><ele>3070.8728</ele><time>2026-02-19T17:14:37.000Z</time></trkpt>
        <trkpt lat="29.522745" lon="103.337114"><ele>3072.3828</ele><time>2026-02-19T17:14:42.000Z</time></trkpt>
        <trkpt lat="29.522793" lon="103.337137"><ele>3075.1802</ele><time>2026-02-19T17:15:02.000Z</time></trkpt>
        <trkpt lat="29.522842" lon="103.337142"><ele>3072.9268</ele><time>2026-02-19T17:15:18.000Z</time></trkpt>
        <trkpt lat="29.522805" lon="103.337158"><ele>3074.5884</ele><time>2026-02-19T17:15:30.000Z</time></trkpt>
        <trkpt lat="29.52277" lon="103.337144"><ele>3075.006</ele><time>2026-02-19T17:15:33.000Z</time></trkpt>
        <trkpt lat="29.52274" lon="103.337094"><ele>3075.8167</ele><time>2026-02-19T17:15:38.000Z</time></trkpt>
        <trkpt lat="29.522697" lon="103.337056"><ele>3074.5664</ele><time>2026-02-19T17:15:53.000Z</time></trkpt>
        <trkpt lat="29.522662" lon="103.3371"><ele>3075.448</ele><time>2026-02-19T17:16:13.000Z</time></trkpt>
        <trkpt lat="29.522632" lon="103.337145"><ele>3075.266</ele><time>2026-02-19T17:16:26.000Z</time></trkpt>
        <trkpt lat="29.522604" lon="103.337187"><ele>3073.7876</ele><time>2026-02-19T17:16:33.000Z</time></trkpt>
        <trkpt lat="29.522611" lon="103.337238"><ele>3073.1914</ele><time>2026-02-19T17:16:40.000Z</time></trkpt>
        <trkpt lat="29.522608" lon="103.337294"><ele>3071.6157</ele><time>2026-02-19T17:16:50.000Z</time></trkpt>
        <trkpt lat="29.522569" lon="103.337314"><ele>3070.2017</ele><time>2026-02-19T17:16:58.000Z</time></trkpt>
        <trkpt lat="29.522527" lon="103.337291"><ele>3069.1611</ele><time>2026-02-19T17:17:03.000Z</time></trkpt>
        <trkpt lat="29.522481" lon="103.337242"><ele>3067.881</ele><time>2026-02-19T17:17:10.000Z</time></trkpt>
        <trkpt lat="29.522449" lon="103.337203"><ele>3067.7092</ele><time>2026-02-19T17:17:14.000Z</time></trkpt>
        <trkpt lat="29.522413" lon="103.337155"><ele>3067.8108</ele><time>2026-02-19T17:17:19.000Z</time></trkpt>
      </trkseg>
      <trkseg>
        <trkpt lat="29.521251" lon="103.33549"><ele>3056.3215</ele><time>2026-02-19T17:23:05.000Z</time></trkpt>
        <trkpt lat="29.521251" lon="103.33549"><ele>3056.3203</ele><time>2026-02-19T17:23:06.000Z</time></trkpt>
        <trkpt lat="29.521247" lon="103.335489"><ele>3056.826</ele><time>2026-02-19T17:23:10.000Z</time></trkpt>
        <trkpt lat="29.521178" lon="103.335463"><ele>3055.1428</ele><time>2026-02-19T17:23:20.000Z</time></trkpt>
        <trkpt lat="29.521137" lon="103.335422"><ele>3055.5752</ele><time>2026-02-19T17:23:29.000Z</time></trkpt>
        <trkpt lat="29.521098" lon="103.335402"><ele>3053.924</ele><time>2026-02-19T17:23:35.000Z</time></trkpt>
        <trkpt lat="29.52105" lon="103.335381"><ele>3056.012</ele><time>2026-02-19T17:23:40.000Z</time></trkpt>
        <trkpt lat="29.521" lon="103.335364"><ele>3056.0928</ele><time>2026-02-19T17:23:46.000Z</time></trkpt>
        <trkpt lat="29.520952" lon="103.335349"><ele>3052.5708</ele><time>2026-02-19T17:23:54.000Z</time></trkpt>
        <trkpt lat="29.520922" lon="103.335314"><ele>3049.76</ele><time>2026-02-19T17:24:02.000Z</time></trkpt>
        <trkpt lat="29.520885" lon="103.335281"><ele>3047.5261</ele><time>2026-02-19T17:24:11.000Z</time></trkpt>
        <trkpt lat="29.520865" lon="103.335231"><ele>3046.1104</ele><time>2026-02-19T17:24:17.000Z</time></trkpt>
        <trkpt lat="29.520875" lon="103.335183"><ele>3045.8955</ele><time>2026-02-19T17:24:21.000Z</time></trkpt>
        <trkpt lat="29.520877" lon="103.335124"><ele>3044.9033</ele><time>2026-02-19T17:24:27.000Z</time></trkpt>
        <trkpt lat="29.520891" lon="103.33507"><ele>3041.8767</ele><time>2026-02-19T17:24:34.000Z</time></trkpt>
        <trkpt lat="29.520899" lon="103.335019"><ele>3039.397</ele><time>2026-02-19T17:24:40.000Z</time></trkpt>
        <trkpt lat="29.520899" lon="103.334968"><ele>3038.4202</ele><time>2026-02-19T17:24:45.000Z</time></trkpt>
        <trkpt lat="29.520893" lon="103.334909"><ele>3039.0964</ele><time>2026-02-19T17:24:51.000Z</time></trkpt>
        <trkpt lat="29.520851" lon="103.33489"><ele>3037.9412</ele><time>2026-02-19T17:24:58.000Z</time></trkpt>
        <trkpt lat="29.520793" lon="103.334898"><ele>3036.3408</ele><time>2026-02-19T17:25:13.000Z</time></trkpt>
        <trkpt lat="29.520754" lon="103.334939"><ele>3034.0166</ele><time>2026-02-19T17:25:24.000Z</time></trkpt>
        <trkpt lat="29.520713" lon="103.334954"><ele>3033.3896</ele><time>2026-02-19T17:25:29.000Z</time></trkpt>
        <trkpt lat="29.520666" lon="103.334962"><ele>3032.9275</ele><time>2026-02-19T17:25:34.000Z</time></trkpt>
        <trkpt lat="29.520618" lon="103.334978"><ele>3032.3943</ele><time>2026-02-19T17:25:39.000Z</time></trkpt>
        <trkpt lat="29.520582" lon="103.334948"><ele>3030.669</ele><time>2026-02-19T17:25:45.000Z</time></trkpt>
        <trkpt lat="29.520554" lon="103.334894"><ele>3028.995</ele><time>2026-02-19T17:25:53.000Z</time></trkpt>
        <trkpt lat="29.520522" lon="103.334855"><ele>3026.53</ele><time>2026-02-19T17:26:00.000Z</time></trkpt>
        <trkpt lat="29.520489" lon="103.334811"><ele>3023.9678</ele><time>2026-02-19T17:26:07.000Z</time></trkpt>
        <trkpt lat="29.520453" lon="103.334768"><ele>3019.712</ele><time>2026-02-19T17:26:16.000Z</time></trkpt>
        <trkpt lat="29.520449" lon="103.334717"><ele>3017.9556</ele><time>2026-02-19T17:26:22.000Z</time></trkpt>
        <trkpt lat="29.520484" lon="103.334679"><ele>3016.8179</ele><time>2026-02-19T17:26:28.000Z</time></trkpt>
        <trkpt lat="29.520517" lon="103.334647"><ele>3016.6694</ele><time>2026-02-19T17:26:32.000Z</time></trkpt>
        <trkpt lat="29.520556" lon="103.334614"><ele>3017.7417</ele><time>2026-02-19T17:26:36.000Z</time></trkpt>
        <trkpt lat="29.520599" lon="103.334576"><ele>3017.2903</ele><time>2026-02-19T17:26:42.000Z</time></trkpt>
        <trkpt lat="29.520633" lon="103.334532"><ele>3015.8145</ele><time>2026-02-19T17:26:48.000Z</time></trkpt>
        <trkpt lat="29.520671" lon="103.334506"><ele>3015.2698</ele><time>2026-02-19T17:26:53.000Z</time></trkpt>
        <trkpt lat="29.520659" lon="103.334463"><ele>3016.5771</ele><time>2026-02-19T17:26:58.000Z</time></trkpt>
        <trkpt lat="29.520614" lon="103.334441"><ele>3016.143</ele><time>2026-02-19T17:27:03.000Z</time></trkpt>
        <trkpt lat="29.520559" lon="103.334447"><ele>3013.8228</ele><time>2026-02-19T17:27:09.000Z</time></trkpt>
        <trkpt lat="29.520514" lon="103.334455"><ele>3013.4866</ele><time>2026-02-19T17:27:13.000Z</time></trkpt>
        <trkpt lat="29.520463" lon="103.334455"><ele>3013.957</ele><time>2026-02-19T17:27:19.000Z</time></trkpt>
        <trkpt lat="29.520417" lon="103.334442"><ele>3011.6016</ele><time>2026-02-19T17:27:27.000Z</time></trkpt>
        <trkpt lat="29.520368" lon="103.334428"><ele>3009.3389</ele><time>2026-02-19T17:27:34.000Z</time></trkpt>
        <trkpt lat="29.520325" lon="103.33441"><ele>3008.7283</ele><time>2026-02-19T17:27:40.000Z</time></trkpt>
        <trkpt lat="29.520277" lon="103.334387"><ele>3006.1733</ele><time>2026-02-19T17:27:48.000Z</time></trkpt>
        <trkpt lat="29.520233" lon="103.334369"><ele>3005.0735</ele><time>2026-02-19T17:27:54.000Z</time></trkpt>
        <trkpt lat="29.520186" lon="103.33435"><ele>3002.476</ele><time>2026-02-19T17:28:02.000Z</time></trkpt>
        <trkpt lat="29.520134" lon="103.334325"><ele>3000.9592</ele><time>2026-02-19T17:28:09.000Z</time></trkpt>
        <trkpt lat="29.520092" lon="103.334294"><ele>3000.0283</ele><time>2026-02-19T17:28:13.000Z</time></trkpt>
        <trkpt lat="29.520047" lon="103.334268"><ele>2997.9346</ele><time>2026-02-19T17:28:19.000Z</time></trkpt>
        <trkpt lat="29.520001" lon="103.334249"><ele>2997.045</ele><time>2026-02-19T17:28:24.000Z</time></trkpt>
        <trkpt lat="29.519949" lon="103.334233"><ele>2995.406</ele><time>2026-02-19T17:28:30.000Z</time></trkpt>
        <trkpt lat="29.519907" lon="103.334194"><ele>2993.1494</ele><time>2026-02-19T17:28:36.000Z</time></trkpt>
        <trkpt lat="29.519881" lon="103.334151"><ele>2992.406</ele><time>2026-02-19T17:28:40.000Z</time></trkpt>
        <trkpt lat="29.519856" lon="103.334106"><ele>2991.9543</ele><time>2026-02-19T17:28:44.000Z</time></trkpt>
        <trkpt lat="29.519819" lon="103.334055"><ele>2992.5847</ele><time>2026-02-19T17:28:49.000Z</time></trkpt>
        <trkpt lat="29.519784" lon="103.334015"><ele>2992.5757</ele><time>2026-02-19T17:28:53.000Z</time></trkpt>
        <trkpt lat="29.519752" lon="103.333963"><ele>2993.0833</ele><time>2026-02-19T17:28:58.000Z</time></trkpt>
        <trkpt lat="29.519726" lon="103.333913"><ele>2993.9692</ele><time>2026-02-19T17:29:02.000Z</time></trkpt>
        <trkpt lat="29.519702" lon="103.33387"><ele>2994.6455</ele><time>2026-02-19T17:29:05.000Z</time></trkpt>
        <trkpt lat="29.519671" lon="103.333824"><ele>2995.4124</ele><time>2026-02-19T17:29:08.000Z</time></trkpt>
        <trkpt lat="29.519626" lon="103.333769"><ele>2995.8242</ele><time>2026-02-19T17:29:13.000Z</time></trkpt>
        <trkpt lat="29.51959" lon="103.333717"><ele>2994.0261</ele><time>2026-02-19T17:29:20.000Z</time></trkpt>
        <trkpt lat="29.519565" lon="103.333676"><ele>2997.0288</ele><time>2026-02-19T17:29:29.000Z</time></trkpt>
        <trkpt lat="29.519542" lon="103.333623"><ele>2998.2197</ele><time>2026-02-19T17:29:37.000Z</time></trkpt>
        <trkpt lat="29.519506" lon="103.333581"><ele>2999.753</ele><time>2026-02-19T17:29:46.000Z</time></trkpt>
        <trkpt lat="29.519456" lon="103.333573"><ele>3001.4233</ele><time>2026-02-19T17:29:53.000Z</time></trkpt>
        <trkpt lat="29.519419" lon="103.333555"><ele>3002.287</ele><time>2026-02-19T17:29:57.000Z</time></trkpt>
        <trkpt lat="29.519359" lon="103.333526"><ele>3006.6282</ele><time>2026-02-19T17:30:15.000Z</time></trkpt>
        <trkpt lat="29.519326" lon="103.333501"><ele>3008.1274</ele><time>2026-02-19T17:30:22.000Z</time></trkpt>
        <trkpt lat="29.519285" lon="103.333467"><ele>3007.683</ele><time>2026-02-19T17:30:31.000Z</time></trkpt>
        <trkpt lat="29.519243" lon="103.333448"><ele>3010.0947</ele><time>2026-02-19T17:30:37.000Z</time></trkpt>
        <trkpt lat="29.519204" lon="103.333398"><ele>3009.212</ele><time>2026-02-19T17:30:45.000Z</time></trkpt>
        <trkpt lat="29.519184" lon="103.333346"><ele>3008.8489</ele><time>2026-02-19T17:30:51.000Z</time></trkpt>
        <trkpt lat="29.519171" lon="103.333288"><ele>3008.3306</ele><time>2026-02-19T17:30:57.000Z</time></trkpt>
        <trkpt lat="29.519152" lon="103.333234"><ele>3007.898</ele><time>2026-02-19T17:31:04.000Z</time></trkpt>
        <trkpt lat="29.519145" lon="103.333176"><ele>3008.3735</ele><time>2026-02-19T17:31:11.000Z</time></trkpt>
        <trkpt lat="29.519144" lon="103.33312"><ele>3007.6606</ele><time>2026-02-19T17:31:21.000Z</time></trkpt>
        <trkpt lat="29.519136" lon="103.333074"><ele>3006.1738</ele><time>2026-02-19T17:31:27.000Z</time></trkpt>
        <trkpt lat="29.519106" lon="103.333032"><ele>3004.3687</ele><time>2026-02-19T17:31:36.000Z</time></trkpt>
        <trkpt lat="29.519065" lon="103.333011"><ele>3002.8555</ele><time>2026-02-19T17:31:42.000Z</time></trkpt>
        <trkpt lat="29.519023" lon="103.332994"><ele>3003.536</ele><time>2026-02-19T17:31:47.000Z</time></trkpt>
        <trkpt lat="29.518965" lon="103.332976"><ele>3005.203</ele><time>2026-02-19T17:31:54.000Z</time></trkpt>
        <trkpt lat="29.518917" lon="103.33296"><ele>3005.2593</ele><time>2026-02-19T17:32:05.000Z</time></trkpt>
        <trkpt lat="29.518881" lon="103.332936"><ele>3006.0476</ele><time>2026-02-19T17:32:13.000Z</time></trkpt>
        <trkpt lat="29.518835" lon="103.332924"><ele>3007.581</ele><time>2026-02-19T17:32:20.000Z</time></trkpt>
        <trkpt lat="29.518782" lon="103.332925"><ele>3008.61</ele><time>2026-02-19T17:32:26.000Z</time></trkpt>
        <trkpt lat="29.518737" lon="103.332909"><ele>3009.7659</ele><time>2026-02-19T17:32:32.000Z</time></trkpt>
        <trkpt lat="29.518691" lon="103.33288"><ele>3008.945</ele><time>2026-02-19T17:32:38.000Z</time></trkpt>
        <trkpt lat="29.518645" lon="103.332851"><ele>3009.5156</ele><time>2026-02-19T17:32:44.000Z</time></trkpt>
        <trkpt lat="29.518603" lon="103.332827"><ele>3010.5352</ele><time>2026-02-19T17:32:49.000Z</time></trkpt>
        <trkpt lat="29.518569" lon="103.332791"><ele>3012.2937</ele><time>2026-02-19T17:32:53.000Z</time></trkpt>
        <trkpt lat="29.518524" lon="103.332757"><ele>3014.9688</ele><time>2026-02-19T17:32:57.000Z</time></trkpt>
        <trkpt lat="29.518481" lon="103.332714"><ele>3015.4807</ele><time>2026-02-19T17:33:02.000Z</time></trkpt>
        <trkpt lat="29.518441" lon="103.332674"><ele>3015.3323</ele><time>2026-02-19T17:33:07.000Z</time></trkpt>
        <trkpt lat="29.518404" lon="103.332636"><ele>3015.7708</ele><time>2026-02-19T17:33:13.000Z</time></trkpt>
        <trkpt lat="29.518367" lon="103.332597"><ele>3016.2886</ele><time>2026-02-19T17:33:20.000Z</time></trkpt>
        <trkpt lat="29.518329" lon="103.332567"><ele>3015.6956</ele><time>2026-02-19T17:33:26.000Z</time></trkpt>
        <trkpt lat="29.518299" lon="103.332528"><ele>3015.4998</ele><time>2026-02-19T17:33:31.000Z</time></trkpt>
        <trkpt lat="29.518273" lon="103.332481"><ele>3015.987</ele><time>2026-02-19T17:33:36.000Z</time></trkpt>
        <trkpt lat="29.518226" lon="103.332445"><ele>3014.4844</ele><time>2026-02-19T17:33:43.000Z</time></trkpt>
        <trkpt lat="29.518182" lon="103.332425"><ele>3016.3345</ele><time>2026-02-19T17:33:48.000Z</time></trkpt>
        <trkpt lat="29.518134" lon="103.33241"><ele>3018.0295</ele><time>2026-02-19T17:33:53.000Z</time></trkpt>
        <trkpt lat="29.518089" lon="103.332404"><ele>3019.0935</ele><time>2026-02-19T17:33:57.000Z</time></trkpt>
        <trkpt lat="29.518031" lon="103.332419"><ele>3019.5063</ele><time>2026-02-19T17:34:03.000Z</time></trkpt>
        <trkpt lat="29.517993" lon="103.33245"><ele>3019.2715</ele><time>2026-02-19T17:34:07.000Z</time></trkpt>
        <trkpt lat="29.517944" lon="103.332479"><ele>3018.5303</ele><time>2026-02-19T17:34:12.000Z</time></trkpt>
        <trkpt lat="29.517905" lon="103.332496"><ele>3018.317</ele><time>2026-02-19T17:34:15.000Z</time></trkpt>
        <trkpt lat="29.517851" lon="103.332524"><ele>3017.8938</ele><time>2026-02-19T17:34:21.000Z</time></trkpt>
        <trkpt lat="29.517814" lon="103.332551"><ele>3017.3557</ele><time>2026-02-19T17:34:24.000Z</time></trkpt>
        <trkpt lat="29.517777" lon="103.332581"><ele>3016.6353</ele><time>2026-02-19T17:34:28.000Z</time></trkpt>
        <trkpt lat="29.517731" lon="103.332612"><ele>3016.5332</ele><time>2026-02-19T17:34:33.000Z</time></trkpt>
        <trkpt lat="29.517693" lon="103.332649"><ele>3017.0708</ele><time>2026-02-19T17:34:37.000Z</time></trkpt>
        <trkpt lat="29.517658" lon="103.332693"><ele>3017.855</ele><time>2026-02-19T17:34:41.000Z</time></trkpt>
        <trkpt lat="29.517628" lon="103.332743"><ele>3017.2537</ele><time>2026-02-19T17:34:46.000Z</time></trkpt>
        <trkpt lat="29.517599" lon="103.332791"><ele>3017.0474</ele><time>2026-02-19T17:34:51.000Z</time></trkpt>
        <trkpt lat="29.517565" lon="103.332838"><ele>3016.2786</ele><time>2026-02-19T17:34:56.000Z</time></trkpt>
        <trkpt lat="29.517528" lon="103.332875"><ele>3016.0715</ele><time>2026-02-19T17:35:00.000Z</time></trkpt>
        <trkpt lat="29.517491" lon="103.332908"><ele>3014.6177</ele><time>2026-02-19T17:35:04.000Z</time></trkpt>
        <trkpt lat="29.517448" lon="103.332945"><ele>3013.6697</ele><time>2026-02-19T17:35:09.000Z</time></trkpt>
        <trkpt lat="29.517406" lon="103.332972"><ele>3013.2734</ele><time>2026-02-19T17:35:14.000Z</time></trkpt>
        <trkpt lat="29.517364" lon="103.332992"><ele>3012.5054</ele><time>2026-02-19T17:35:18.000Z</time></trkpt>
        <trkpt lat="29.517327" lon="103.333029"><ele>3012.0413</ele><time>2026-02-19T17:35:22.000Z</time></trkpt>
        <trkpt lat="29.517279" lon="103.333065"><ele>3011.8027</ele><time>2026-02-19T17:35:27.000Z</time></trkpt>
        <trkpt lat="29.517233" lon="103.333094"><ele>3012.1357</ele><time>2026-02-19T17:35:31.000Z</time></trkpt>
        <trkpt lat="29.51718" lon="103.333119"><ele>3011.4644</ele><time>2026-02-19T17:35:36.000Z</time></trkpt>
        <trkpt lat="29.517133" lon="103.333138"><ele>3012.2732</ele><time>2026-02-19T17:35:41.000Z</time></trkpt>
        <trkpt lat="29.517084" lon="103.333143"><ele>3011.3335</ele><time>2026-02-19T17:35:47.000Z</time></trkpt>
        <trkpt lat="29.517035" lon="103.333146"><ele>3010.3645</ele><time>2026-02-19T17:35:52.000Z</time></trkpt>
        <trkpt lat="29.51698" lon="103.333141"><ele>3009.522</ele><time>2026-02-19T17:35:58.000Z</time></trkpt>
        <trkpt lat="29.516935" lon="103.333116"><ele>3008.8296</ele><time>2026-02-19T17:36:04.000Z</time></trkpt>
        <trkpt lat="29.516892" lon="103.333093"><ele>3010.6414</ele><time>2026-02-19T17:36:09.000Z</time></trkpt>
        <trkpt lat="29.516847" lon="103.333076"><ele>3011.928</ele><time>2026-02-19T17:36:15.000Z</time></trkpt>
        <trkpt lat="29.516798" lon="103.333061"><ele>3013.2966</ele><time>2026-02-19T17:36:23.000Z</time></trkpt>
        <trkpt lat="29.516753" lon="103.333032"><ele>3013.533</ele><time>2026-02-19T17:36:29.000Z</time></trkpt>
        <trkpt lat="29.516715" lon="103.332997"><ele>3012.5454</ele><time>2026-02-19T17:36:38.000Z</time></trkpt>
        <trkpt lat="29.516693" lon="103.332948"><ele>3014.995</ele><time>2026-02-19T17:36:50.000Z</time></trkpt>
        <trkpt lat="29.516654" lon="103.332919"><ele>3015.187</ele><time>2026-02-19T17:37:01.000Z</time></trkpt>
        <trkpt lat="29.516622" lon="103.332877"><ele>3018.0715</ele><time>2026-02-19T17:37:10.000Z</time></trkpt>
        <trkpt lat="29.516582" lon="103.332835"><ele>3018.0828</ele><time>2026-02-19T17:37:16.000Z</time></trkpt>
        <trkpt lat="29.51655" lon="103.332786"><ele>3018.398</ele><time>2026-02-19T17:37:21.000Z</time></trkpt>
        <trkpt lat="29.516517" lon="103.332725"><ele>3022.3896</ele><time>2026-02-19T17:37:30.000Z</time></trkpt>
        <trkpt lat="29.516481" lon="103.332696"><ele>3023.5515</ele><time>2026-02-19T17:37:38.000Z</time></trkpt>
        <trkpt lat="29.516451" lon="103.332658"><ele>3023.9517</ele><time>2026-02-19T17:37:43.000Z</time></trkpt>
        <trkpt lat="29.516415" lon="103.332607"><ele>3023.1943</ele><time>2026-02-19T17:37:51.000Z</time></trkpt>
        <trkpt lat="29.516379" lon="103.332568"><ele>3022.429</ele><time>2026-02-19T17:38:00.000Z</time></trkpt>
        <trkpt lat="29.516367" lon="103.332522"><ele>3023.7798</ele><time>2026-02-19T17:38:07.000Z</time></trkpt>
        <trkpt lat="29.516348" lon="103.332478"><ele>3024.6533</ele><time>2026-02-19T17:38:12.000Z</time></trkpt>
        <trkpt lat="29.516312" lon="103.332434"><ele>3025.0205</ele><time>2026-02-19T17:38:16.000Z</time></trkpt>
        <trkpt lat="29.516272" lon="103.332366"><ele>3026.0903</ele><time>2026-02-19T17:38:25.000Z</time></trkpt>
        <trkpt lat="29.516251" lon="103.332319"><ele>3025.9292</ele><time>2026-02-19T17:38:32.000Z</time></trkpt>
        <trkpt lat="29.516221" lon="103.332279"><ele>3026.8083</ele><time>2026-02-19T17:38:39.000Z</time></trkpt>
        <trkpt lat="29.516188" lon="103.332238"><ele>3029.168</ele><time>2026-02-19T17:38:47.000Z</time></trkpt>
        <trkpt lat="29.516161" lon="103.332189"><ele>3032.4893</ele><time>2026-02-19T17:38:52.000Z</time></trkpt>
        <trkpt lat="29.516131" lon="103.332136"><ele>3033.7192</ele><time>2026-02-19T17:39:00.000Z</time></trkpt>
        <trkpt lat="29.516093" lon="103.332108"><ele>3032.2334</ele><time>2026-02-19T17:39:05.000Z</time></trkpt>
        <trkpt lat="29.516067" lon="103.332056"><ele>3033.3735</ele><time>2026-02-19T17:39:10.000Z</time></trkpt>
        <trkpt lat="29.516055" lon="103.332009"><ele>3034.6587</ele><time>2026-02-19T17:39:13.000Z</time></trkpt>
        <trkpt lat="29.516027" lon="103.331957"><ele>3034.7534</ele><time>2026-02-19T17:39:18.000Z</time></trkpt>
        <trkpt lat="29.516004" lon="103.33191"><ele>3034.8306</ele><time>2026-02-19T17:39:22.000Z</time></trkpt>
        <trkpt lat="29.515983" lon="103.331868"><ele>3034.3071</ele><time>2026-02-19T17:39:25.000Z</time></trkpt>
        <trkpt lat="29.515955" lon="103.33182"><ele>3035.082</ele><time>2026-02-19T17:39:29.000Z</time></trkpt>
        <trkpt lat="29.515922" lon="103.331772"><ele>3035.8022</ele><time>2026-02-19T17:39:34.000Z</time></trkpt>
        <trkpt lat="29.515887" lon="103.331726"><ele>3035.4807</ele><time>2026-02-19T17:39:40.000Z</time></trkpt>
        <trkpt lat="29.515855" lon="103.331694"><ele>3035.2996</ele><time>2026-02-19T17:39:44.000Z</time></trkpt>
        <trkpt lat="29.515823" lon="103.331644"><ele>3035.074</ele><time>2026-02-19T17:39:49.000Z</time></trkpt>
        <trkpt lat="29.515791" lon="103.33159"><ele>3035.4639</ele><time>2026-02-19T17:39:53.000Z</time></trkpt>
        <trkpt lat="29.515763" lon="103.331533"><ele>3035.671</ele><time>2026-02-19T17:39:59.000Z</time></trkpt>
        <trkpt lat="29.515732" lon="103.331491"><ele>3035.489</ele><time>2026-02-19T17:40:03.000Z</time></trkpt>
        <trkpt lat="29.515685" lon="103.331452"><ele>3034.586</ele><time>2026-02-19T17:40:08.000Z</time></trkpt>
        <trkpt lat="29.515635" lon="103.331426"><ele>3037.0308</ele><time>2026-02-19T17:40:15.000Z</time></trkpt>
        <trkpt lat="29.515598" lon="103.331411"><ele>3037.193</ele><time>2026-02-19T17:40:19.000Z</time></trkpt>
        <trkpt lat="29.515544" lon="103.331401"><ele>3037.5044</ele><time>2026-02-19T17:40:23.000Z</time></trkpt>
        <trkpt lat="29.515488" lon="103.331387"><ele>3037.343</ele><time>2026-02-19T17:40:27.000Z</time></trkpt>
        <trkpt lat="29.515429" lon="103.331367"><ele>3038.9746</ele><time>2026-02-19T17:40:32.000Z</time></trkpt>
        <trkpt lat="29.515386" lon="103.331359"><ele>3038.2183</ele><time>2026-02-19T17:40:35.000Z</time></trkpt>
        <trkpt lat="29.515331" lon="103.331359"><ele>3038.2673</ele><time>2026-02-19T17:40:39.000Z</time></trkpt>
        <trkpt lat="29.515282" lon="103.331366"><ele>3036.7126</ele><time>2026-02-19T17:40:42.000Z</time></trkpt>
        <trkpt lat="29.515232" lon="103.331375"><ele>3035.7952</ele><time>2026-02-19T17:40:46.000Z</time></trkpt>
        <trkpt lat="29.515183" lon="103.331384"><ele>3034.22</ele><time>2026-02-19T17:40:50.000Z</time></trkpt>
        <trkpt lat="29.515133" lon="103.3314"><ele>3033.9277</ele><time>2026-02-19T17:40:55.000Z</time></trkpt>
        <trkpt lat="29.515085" lon="103.331418"><ele>3032.9133</ele><time>2026-02-19T17:41:00.000Z</time></trkpt>
        <trkpt lat="29.515041" lon="103.331434"><ele>3033.715</ele><time>2026-02-19T17:41:04.000Z</time></trkpt>
        <trkpt lat="29.514992" lon="103.331445"><ele>3032.8567</ele><time>2026-02-19T17:41:09.000Z</time></trkpt>
        <trkpt lat="29.514948" lon="103.331436"><ele>3031.908</ele><time>2026-02-19T17:41:13.000Z</time></trkpt>
        <trkpt lat="29.514891" lon="103.331421"><ele>3032.6357</ele><time>2026-02-19T17:41:18.000Z</time></trkpt>
        <trkpt lat="29.514849" lon="103.331395"><ele>3033.1973</ele><time>2026-02-19T17:41:22.000Z</time></trkpt>
        <trkpt lat="29.514803" lon="103.331355"><ele>3033.969</ele><time>2026-02-19T17:41:27.000Z</time></trkpt>
        <trkpt lat="29.51476" lon="103.331322"><ele>3033.6807</ele><time>2026-02-19T17:41:32.000Z</time></trkpt>
        <trkpt lat="29.514723" lon="103.331285"><ele>3032.6982</ele><time>2026-02-19T17:41:37.000Z</time></trkpt>
        <trkpt lat="29.514675" lon="103.331259"><ele>3032.9043</ele><time>2026-02-19T17:41:43.000Z</time></trkpt>
        <trkpt lat="29.514636" lon="103.331237"><ele>3033.4343</ele><time>2026-02-19T17:41:48.000Z</time></trkpt>
        <trkpt lat="29.514591" lon="103.331228"><ele>3033.7458</ele><time>2026-02-19T17:41:52.000Z</time></trkpt>
        <trkpt lat="29.514544" lon="103.331213"><ele>3033.6384</ele><time>2026-02-19T17:41:56.000Z</time></trkpt>
        <trkpt lat="29.514496" lon="103.331203"><ele>3034.5215</ele><time>2026-02-19T17:42:00.000Z</time></trkpt>
        <trkpt lat="29.514442" lon="103.331198"><ele>3038.306</ele><time>2026-02-19T17:42:06.000Z</time></trkpt>
        <trkpt lat="29.51439" lon="103.331197"><ele>3040.6013</ele><time>2026-02-19T17:42:11.000Z</time></trkpt>
        <trkpt lat="29.514341" lon="103.331192"><ele>3040.8872</ele><time>2026-02-19T17:42:17.000Z</time></trkpt>
        <trkpt lat="29.514293" lon="103.33119"><ele>3041.7563</ele><time>2026-02-19T17:42:23.000Z</time></trkpt>
        <trkpt lat="29.514257" lon="103.33118"><ele>3040.9875</ele><time>2026-02-19T17:42:26.000Z</time></trkpt>
        <trkpt lat="29.51421" lon="103.331165"><ele>3040.554</ele><time>2026-02-19T17:42:30.000Z</time></trkpt>
        <trkpt lat="29.514162" lon="103.331152"><ele>3040.861</ele><time>2026-02-19T17:42:34.000Z</time></trkpt>
        <trkpt lat="29.514107" lon="103.33114"><ele>3039.7961</ele><time>2026-02-19T17:42:39.000Z</time></trkpt>
        <trkpt lat="29.514059" lon="103.33113"><ele>3039.7654</ele><time>2026-02-19T17:42:43.000Z</time></trkpt>
        <trkpt lat="29.514002" lon="103.331137"><ele>3038.558</ele><time>2026-02-19T17:42:48.000Z</time></trkpt>
        <trkpt lat="29.513958" lon="103.331132"><ele>3037.8801</ele><time>2026-02-19T17:42:53.000Z</time></trkpt>
        <trkpt lat="29.513914" lon="103.331127"><ele>3039.4954</ele><time>2026-02-19T17:42:57.000Z</time></trkpt>
        <trkpt lat="29.51386" lon="103.331145"><ele>3040.198</ele><time>2026-02-19T17:43:02.000Z</time></trkpt>
        <trkpt lat="29.513809" lon="103.331169"><ele>3038.1313</ele><time>2026-02-19T17:43:07.000Z</time></trkpt>
        <trkpt lat="29.513767" lon="103.331193"><ele>3037.271</ele><time>2026-02-19T17:43:11.000Z</time></trkpt>
        <trkpt lat="29.513721" lon="103.331227"><ele>3036.9072</ele><time>2026-02-19T17:43:17.000Z</time></trkpt>
        <trkpt lat="29.513695" lon="103.331278"><ele>3034.7021</ele><time>2026-02-19T17:43:25.000Z</time></trkpt>
        <trkpt lat="29.513683" lon="103.331327"><ele>3033.1165</ele><time>2026-02-19T17:43:31.000Z</time></trkpt>
        <trkpt lat="29.513675" lon="103.331374"><ele>3034.6702</ele><time>2026-02-19T17:43:35.000Z</time></trkpt>
        <trkpt lat="29.513654" lon="103.331426"><ele>3034.479</ele><time>2026-02-19T17:43:41.000Z</time></trkpt>
        <trkpt lat="29.51364" lon="103.331474"><ele>3034.9866</ele><time>2026-02-19T17:43:45.000Z</time></trkpt>
        <trkpt lat="29.513614" lon="103.331523"><ele>3034.196</ele><time>2026-02-19T17:43:50.000Z</time></trkpt>
        <trkpt lat="29.513584" lon="103.331565"><ele>3033.0483</ele><time>2026-02-19T17:43:54.000Z</time></trkpt>
        <trkpt lat="29.513554" lon="103.331619"><ele>3031.7595</ele><time>2026-02-19T17:43:58.000Z</time></trkpt>
        <trkpt lat="29.513523" lon="103.331677"><ele>3031.878</ele><time>2026-02-19T17:44:04.000Z</time></trkpt>
        <trkpt lat="29.513491" lon="103.33171"><ele>3031.777</ele><time>2026-02-19T17:44:09.000Z</time></trkpt>
        <trkpt lat="29.513453" lon="103.331739"><ele>3032.0918</ele><time>2026-02-19T17:44:13.000Z</time></trkpt>
        <trkpt lat="29.513408" lon="103.331771"><ele>3032.093</ele><time>2026-02-19T17:44:18.000Z</time></trkpt>
        <trkpt lat="29.513354" lon="103.331797"><ele>3031.441</ele><time>2026-02-19T17:44:26.000Z</time></trkpt>
        <trkpt lat="29.513311" lon="103.331785"><ele>3029.4475</ele><time>2026-02-19T17:44:33.000Z</time></trkpt>
        <trkpt lat="29.513257" lon="103.331779"><ele>3029.2983</ele><time>2026-02-19T17:44:48.000Z</time></trkpt>
        <trkpt lat="29.513222" lon="103.331793"><ele>3030.262</ele><time>2026-02-19T17:44:51.000Z</time></trkpt>
        <trkpt lat="29.513178" lon="103.331813"><ele>3031.3052</ele><time>2026-02-19T17:44:55.000Z</time></trkpt>
        <trkpt lat="29.513123" lon="103.331826"><ele>3029.678</ele><time>2026-02-19T17:45:01.000Z</time></trkpt>
        <trkpt lat="29.513079" lon="103.331811"><ele>3029.5825</ele><time>2026-02-19T17:45:06.000Z</time></trkpt>
        <trkpt lat="29.513038" lon="103.331777"><ele>3029.4631</ele><time>2026-02-19T17:45:11.000Z</time></trkpt>
        <trkpt lat="29.512989" lon="103.331746"><ele>3028.076</ele><time>2026-02-19T17:45:17.000Z</time></trkpt>
        <trkpt lat="29.512952" lon="103.331715"><ele>3028.5369</ele><time>2026-02-19T17:45:21.000Z</time></trkpt>
        <trkpt lat="29.51291" lon="103.331673"><ele>3029.7046</ele><time>2026-02-19T17:45:26.000Z</time></trkpt>
        <trkpt lat="29.512862" lon="103.331646"><ele>3030.8372</ele><time>2026-02-19T17:45:31.000Z</time></trkpt>
        <trkpt lat="29.512825" lon="103.331612"><ele>3030.4116</ele><time>2026-02-19T17:45:36.000Z</time></trkpt>
        <trkpt lat="29.512796" lon="103.33157"><ele>3028.9863</ele><time>2026-02-19T17:45:42.000Z</time></trkpt>
        <trkpt lat="29.512773" lon="103.331528"><ele>3030.5862</ele><time>2026-02-19T17:45:47.000Z</time></trkpt>
        <trkpt lat="29.512741" lon="103.331487"><ele>3029.7195</ele><time>2026-02-19T17:45:53.000Z</time></trkpt>
        <trkpt lat="29.512722" lon="103.331432"><ele>3029.3516</ele><time>2026-02-19T17:45:59.000Z</time></trkpt>
        <trkpt lat="29.512686" lon="103.331399"><ele>3028.5134</ele><time>2026-02-19T17:46:05.000Z</time></trkpt>
        <trkpt lat="29.512641" lon="103.331376"><ele>3031.2876</ele><time>2026-02-19T17:46:17.000Z</time></trkpt>
        <trkpt lat="29.512601" lon="103.331362"><ele>3032.7002</ele><time>2026-02-19T17:46:25.000Z</time></trkpt>
        <trkpt lat="29.512556" lon="103.33133"><ele>3034.1387</ele><time>2026-02-19T17:46:35.000Z</time></trkpt>
        <trkpt lat="29.512513" lon="103.331311"><ele>3034.713</ele><time>2026-02-19T17:46:42.000Z</time></trkpt>
        <trkpt lat="29.512467" lon="103.331298"><ele>3037.6973</ele><time>2026-02-19T17:46:48.000Z</time></trkpt>
        <trkpt lat="29.512426" lon="103.331279"><ele>3038.6426</ele><time>2026-02-19T17:46:53.000Z</time></trkpt>
        <trkpt lat="29.512378" lon="103.331257"><ele>3039.2615</ele><time>2026-02-19T17:46:59.000Z</time></trkpt>
        <trkpt lat="29.512334" lon="103.33123"><ele>3040.0447</ele><time>2026-02-19T17:47:03.000Z</time></trkpt>
        <trkpt lat="29.512282" lon="103.331233"><ele>3041.227</ele><time>2026-02-19T17:47:10.000Z</time></trkpt>
        <trkpt lat="29.512235" lon="103.331259"><ele>3040.0972</ele><time>2026-02-19T17:47:18.000Z</time></trkpt>
        <trkpt lat="29.512197" lon="103.33129"><ele>3041.6936</ele><time>2026-02-19T17:47:24.000Z</time></trkpt>
        <trkpt lat="29.512166" lon="103.331328"><ele>3043.0425</ele><time>2026-02-19T17:47:29.000Z</time></trkpt>
        <trkpt lat="29.512126" lon="103.331352"><ele>3043.6812</ele><time>2026-02-19T17:47:33.000Z</time></trkpt>
        <trkpt lat="29.512074" lon="103.33138"><ele>3044.4172</ele><time>2026-02-19T17:47:39.000Z</time></trkpt>
        <trkpt lat="29.512027" lon="103.331406"><ele>3045.0408</ele><time>2026-02-19T17:47:45.000Z</time></trkpt>
        <trkpt lat="29.511983" lon="103.331429"><ele>3048.3726</ele><time>2026-02-19T17:47:52.000Z</time></trkpt>
        <trkpt lat="29.511942" lon="103.331453"><ele>3049.8013</ele><time>2026-02-19T17:48:00.000Z</time></trkpt>
        <trkpt lat="29.511906" lon="103.331482"><ele>3051.0808</ele><time>2026-02-19T17:48:06.000Z</time></trkpt>
        <trkpt lat="29.511859" lon="103.331512"><ele>3051.7737</ele><time>2026-02-19T17:48:14.000Z</time></trkpt>
        <trkpt lat="29.51182" lon="103.331533"><ele>3052.5762</ele><time>2026-02-19T17:48:19.000Z</time></trkpt>
        <trkpt lat="29.511776" lon="103.331565"><ele>3052.3694</ele><time>2026-02-19T17:48:25.000Z</time></trkpt>
        <trkpt lat="29.511728" lon="103.331586"><ele>3052.5698</ele><time>2026-02-19T17:48:31.000Z</time></trkpt>
        <trkpt lat="29.511684" lon="103.331594"><ele>3052.859</ele><time>2026-02-19T17:48:36.000Z</time></trkpt>
        <trkpt lat="29.511642" lon="103.331607"><ele>3052.6045</ele><time>2026-02-19T17:48:40.000Z</time></trkpt>
        <trkpt lat="29.511588" lon="103.331619"><ele>3054.2783</ele><time>2026-02-19T17:48:45.000Z</time></trkpt>
        <trkpt lat="29.511536" lon="103.331629"><ele>3054.1248</ele><time>2026-02-19T17:48:52.000Z</time></trkpt>
        <trkpt lat="29.511497" lon="103.331647"><ele>3054.6716</ele><time>2026-02-19T17:48:56.000Z</time></trkpt>
        <trkpt lat="29.511449" lon="103.331671"><ele>3055.8843</ele><time>2026-02-19T17:49:02.000Z</time></trkpt>
        <trkpt lat="29.511394" lon="103.331688"><ele>3056.3394</ele><time>2026-02-19T17:49:08.000Z</time></trkpt>
        <trkpt lat="29.511345" lon="103.331699"><ele>3057.86</ele><time>2026-02-19T17:49:14.000Z</time></trkpt>
        <trkpt lat="29.511303" lon="103.331733"><ele>3060.3281</ele><time>2026-02-19T17:49:21.000Z</time></trkpt>
        <trkpt lat="29.511261" lon="103.331753"><ele>3059.884</ele><time>2026-02-19T17:49:27.000Z</time></trkpt>
        <trkpt lat="29.511206" lon="103.331778"><ele>3058.982</ele><time>2026-02-19T17:49:34.000Z</time></trkpt>
        <trkpt lat="29.511159" lon="103.3318"><ele>3058.1963</ele><time>2026-02-19T17:49:41.000Z</time></trkpt>
        <trkpt lat="29.51112" lon="103.331828"><ele>3058.9775</ele><time>2026-02-19T17:49:46.000Z</time></trkpt>
        <trkpt lat="29.511067" lon="103.331841"><ele>3060.9844</ele><time>2026-02-19T17:49:54.000Z</time></trkpt>
        <trkpt lat="29.511022" lon="103.331865"><ele>3062.5083</ele><time>2026-02-19T17:50:01.000Z</time></trkpt>
        <trkpt lat="29.51098" lon="103.331881"><ele>3064.1533</ele><time>2026-02-19T17:50:06.000Z</time></trkpt>
        <trkpt lat="29.510931" lon="103.331884"><ele>3065.2925</ele><time>2026-02-19T17:50:11.000Z</time></trkpt>
        <trkpt lat="29.510883" lon="103.331874"><ele>3066.6218</ele><time>2026-02-19T17:50:16.000Z</time></trkpt>
        <trkpt lat="29.51084" lon="103.331851"><ele>3066.1025</ele><time>2026-02-19T17:50:21.000Z</time></trkpt>
        <trkpt lat="29.510804" lon="103.331809"><ele>3064.9292</ele><time>2026-02-19T17:50:28.000Z</time></trkpt>
        <trkpt lat="29.510766" lon="103.331775"><ele>3065.61</ele><time>2026-02-19T17:50:34.000Z</time></trkpt>
        <trkpt lat="29.510719" lon="103.331752"><ele>3069.7275</ele><time>2026-02-19T17:50:44.000Z</time></trkpt>
        <trkpt lat="29.51067" lon="103.33175"><ele>3071.5115</ele><time>2026-02-19T17:51:06.000Z</time></trkpt>
        <trkpt lat="29.510627" lon="103.33173"><ele>3073.2737</ele><time>2026-02-19T17:51:20.000Z</time></trkpt>
        <trkpt lat="29.510587" lon="103.331686"><ele>3075.5845</ele><time>2026-02-19T17:51:32.000Z</time></trkpt>
        <trkpt lat="29.51055" lon="103.331643"><ele>3076.3342</ele><time>2026-02-19T17:51:43.000Z</time></trkpt>
        <trkpt lat="29.510526" lon="103.331592"><ele>3077.511</ele><time>2026-02-19T17:51:55.000Z</time></trkpt>
        <trkpt lat="29.5105" lon="103.331529"><ele>3074.7488</ele><time>2026-02-19T17:52:35.000Z</time></trkpt>
        <trkpt lat="29.510502" lon="103.331476"><ele>3076.4875</ele><time>2026-02-19T17:52:50.000Z</time></trkpt>
        <trkpt lat="29.510498" lon="103.331434"><ele>3077.9084</ele><time>2026-02-19T17:52:53.000Z</time></trkpt>
        <trkpt lat="29.510489" lon="103.331382"><ele>3080.3396</ele><time>2026-02-19T17:52:56.000Z</time></trkpt>
        <trkpt lat="29.510441" lon="103.331383"><ele>3082.1863</ele><time>2026-02-19T17:53:22.000Z</time></trkpt>
        <trkpt lat="29.510401" lon="103.331416"><ele>3085.3306</ele><time>2026-02-19T17:54:11.000Z</time></trkpt>
        <trkpt lat="29.510367" lon="103.331429"><ele>3086.178</ele><time>2026-02-19T17:54:19.000Z</time></trkpt>
        <trkpt lat="29.510314" lon="103.331472"><ele>3087.1895</ele><time>2026-02-19T17:54:26.000Z</time></trkpt>
        <trkpt lat="29.510283" lon="103.331518"><ele>3088.4087</ele><time>2026-02-19T17:54:32.000Z</time></trkpt>
        <trkpt lat="29.510259" lon="103.331576"><ele>3089.8962</ele><time>2026-02-19T17:54:38.000Z</time></trkpt>
        <trkpt lat="29.510222" lon="103.331621"><ele>3090.6377</ele><time>2026-02-19T17:54:45.000Z</time></trkpt>
        <trkpt lat="29.510181" lon="103.331652"><ele>3092.3135</ele><time>2026-02-19T17:54:56.000Z</time></trkpt>
        <trkpt lat="29.510156" lon="103.331691"><ele>3092.6497</ele><time>2026-02-19T17:55:02.000Z</time></trkpt>
        <trkpt lat="29.510123" lon="103.33174"><ele>3091.64</ele><time>2026-02-19T17:55:09.000Z</time></trkpt>
        <trkpt lat="29.510097" lon="103.331783"><ele>3092.2124</ele><time>2026-02-19T17:55:14.000Z</time></trkpt>
        <trkpt lat="29.510075" lon="103.331834"><ele>3093.2708</ele><time>2026-02-19T17:55:20.000Z</time></trkpt>
        <trkpt lat="29.510064" lon="103.331889"><ele>3093.904</ele><time>2026-02-19T17:55:24.000Z</time></trkpt>
        <trkpt lat="29.510058" lon="103.331948"><ele>3094.1716</ele><time>2026-02-19T17:55:31.000Z</time></trkpt>
        <trkpt lat="29.510056" lon="103.33201"><ele>3093.0234</ele><time>2026-02-19T17:55:38.000Z</time></trkpt>
        <trkpt lat="29.510071" lon="103.332064"><ele>3095.5066</ele><time>2026-02-19T17:55:46.000Z</time></trkpt>
        <trkpt lat="29.510091" lon="103.332125"><ele>3097.3052</ele><time>2026-02-19T17:55:55.000Z</time></trkpt>
        <trkpt lat="29.510071" lon="103.332197"><ele>3097.058</ele><time>2026-02-19T17:56:02.000Z</time></trkpt>
        <trkpt lat="29.510036" lon="103.332249"><ele>3097.0813</ele><time>2026-02-19T17:56:12.000Z</time></trkpt>
        <trkpt lat="29.51001" lon="103.3323"><ele>3098.1191</ele><time>2026-02-19T17:56:26.000Z</time></trkpt>
        <trkpt lat="29.509969" lon="103.332299"><ele>3097.4624</ele><time>2026-02-19T17:56:31.000Z</time></trkpt>
        <trkpt lat="29.509931" lon="103.332327"><ele>3097.9172</ele><time>2026-02-19T17:56:36.000Z</time></trkpt>
        <trkpt lat="29.509946" lon="103.332375"><ele>3096.1492</ele><time>2026-02-19T17:56:42.000Z</time></trkpt>
        <trkpt lat="29.509995" lon="103.332379"><ele>3093.65</ele><time>2026-02-19T17:56:50.000Z</time></trkpt>
        <trkpt lat="29.510051" lon="103.332382"><ele>3094.4414</ele><time>2026-02-19T17:57:00.000Z</time></trkpt>
        <trkpt lat="29.510099" lon="103.332393"><ele>3093.9355</ele><time>2026-02-19T17:57:09.000Z</time></trkpt>
        <trkpt lat="29.510144" lon="103.332411"><ele>3088.242</ele><time>2026-02-19T17:57:21.000Z</time></trkpt>
        <trkpt lat="29.510189" lon="103.332428"><ele>3083.8313</ele><time>2026-02-19T17:57:30.000Z</time></trkpt>
        <trkpt lat="29.510237" lon="103.33245"><ele>3086.0479</ele><time>2026-02-19T17:57:47.000Z</time></trkpt>
        <trkpt lat="29.510279" lon="103.332478"><ele>3084.0261</ele><time>2026-02-19T18:06:46.000Z</time></trkpt>
      </trkseg>
      <trkseg>
        <trkpt lat="29.510044" lon="103.331764"><ele>3087.205</ele><time>2026-02-19T18:18:04.000Z</time></trkpt>
        <trkpt lat="29.510037" lon="103.331752"><ele>3086.8562</ele><time>2026-02-19T18:18:09.000Z</time></trkpt>
        <trkpt lat="29.510006" lon="103.331693"><ele>3085.7214</ele><time>2026-02-19T18:18:13.000Z</time></trkpt>
        <trkpt lat="29.509983" lon="103.331615"><ele>3088.7197</ele><time>2026-02-19T18:18:18.000Z</time></trkpt>
        <trkpt lat="29.509972" lon="103.331548"><ele>3090.19</ele><time>2026-02-19T18:18:25.000Z</time></trkpt>
        <trkpt lat="29.509962" lon="103.331492"><ele>3089.1147</ele><time>2026-02-19T18:18:34.000Z</time></trkpt>
        <trkpt lat="29.509961" lon="103.331444"><ele>3086.7925</ele><time>2026-02-19T18:18:39.000Z</time></trkpt>
        <trkpt lat="29.50995" lon="103.331389"><ele>3085.6838</ele><time>2026-02-19T18:18:46.000Z</time></trkpt>
        <trkpt lat="29.509952" lon="103.331334"><ele>3083.6423</ele><time>2026-02-19T18:18:55.000Z</time></trkpt>
        <trkpt lat="29.509962" lon="103.331279"><ele>3081.391</ele><time>2026-02-19T18:19:04.000Z</time></trkpt>
        <trkpt lat="29.509986" lon="103.33124"><ele>3080.4312</ele><time>2026-02-19T18:19:09.000Z</time></trkpt>
        <trkpt lat="29.510027" lon="103.331195"><ele>3079.559</ele><time>2026-02-19T18:19:18.000Z</time></trkpt>
        <trkpt lat="29.510039" lon="103.331145"><ele>3076.2075</ele><time>2026-02-19T18:19:27.000Z</time></trkpt>
        <trkpt lat="29.510071" lon="103.331107"><ele>3074.4316</ele><time>2026-02-19T18:19:37.000Z</time></trkpt>
        <trkpt lat="29.510111" lon="103.331085"><ele>3074.0593</ele><time>2026-02-19T18:19:44.000Z</time></trkpt>
        <trkpt lat="29.510125" lon="103.331029"><ele>3072.2542</ele><time>2026-02-19T18:19:55.000Z</time></trkpt>
        <trkpt lat="29.510127" lon="103.330963"><ele>3070.9766</ele><time>2026-02-19T18:20:14.000Z</time></trkpt>
        <trkpt lat="29.510172" lon="103.330945"><ele>3068.0164</ele><time>2026-02-19T18:20:25.000Z</time></trkpt>
        <trkpt lat="29.510216" lon="103.330929"><ele>3066.7832</ele><time>2026-02-19T18:20:32.000Z</time></trkpt>
        <trkpt lat="29.510257" lon="103.330908"><ele>3067.834</ele><time>2026-02-19T18:20:38.000Z</time></trkpt>
        <trkpt lat="29.510303" lon="103.330898"><ele>3067.558</ele><time>2026-02-19T18:20:44.000Z</time></trkpt>
        <trkpt lat="29.510349" lon="103.330897"><ele>3066.424</ele><time>2026-02-19T18:20:51.000Z</time></trkpt>
        <trkpt lat="29.510398" lon="103.330877"><ele>3066.118</ele><time>2026-02-19T18:20:57.000Z</time></trkpt>
        <trkpt lat="29.510449" lon="103.33087"><ele>3064.756</ele><time>2026-02-19T18:21:04.000Z</time></trkpt>
        <trkpt lat="29.510494" lon="103.330857"><ele>3064.9749</ele><time>2026-02-19T18:21:13.000Z</time></trkpt>
        <trkpt lat="29.510511" lon="103.330808"><ele>3060.4045</ele><time>2026-02-19T18:21:25.000Z</time></trkpt>
        <trkpt lat="29.510557" lon="103.330782"><ele>3058.498</ele><time>2026-02-19T18:21:38.000Z</time></trkpt>
        <trkpt lat="29.510602" lon="103.330765"><ele>3056.668</ele><time>2026-02-19T18:21:47.000Z</time></trkpt>
        <trkpt lat="29.51061" lon="103.330711"><ele>3058.3293</ele><time>2026-02-19T18:22:22.000Z</time></trkpt>
        <trkpt lat="29.510607" lon="103.330658"><ele>3053.741</ele><time>2026-02-19T18:23:06.000Z</time></trkpt>
        <trkpt lat="29.510641" lon="103.33062"><ele>3048.6855</ele><time>2026-02-19T18:23:17.000Z</time></trkpt>
        <trkpt lat="29.510669" lon="103.330565"><ele>3046.1157</ele><time>2026-02-19T18:23:27.000Z</time></trkpt>
        <trkpt lat="29.510678" lon="103.330511"><ele>3045.3184</ele><time>2026-02-19T18:23:34.000Z</time></trkpt>
        <trkpt lat="29.510709" lon="103.330471"><ele>3045.5715</ele><time>2026-02-19T18:23:41.000Z</time></trkpt>
        <trkpt lat="29.510752" lon="103.330445"><ele>3043.3188</ele><time>2026-02-19T18:23:48.000Z</time></trkpt>
        <trkpt lat="29.510774" lon="103.330396"><ele>3042.8489</ele><time>2026-02-19T18:23:56.000Z</time></trkpt>
        <trkpt lat="29.51078" lon="103.330343"><ele>3040.392</ele><time>2026-02-19T18:24:06.000Z</time></trkpt>
        <trkpt lat="29.510774" lon="103.330285"><ele>3038.4817</ele><time>2026-02-19T18:24:15.000Z</time></trkpt>
        <trkpt lat="29.510741" lon="103.330252"><ele>3037.1223</ele><time>2026-02-19T18:24:20.000Z</time></trkpt>
        <trkpt lat="29.510699" lon="103.330198"><ele>3036.0117</ele><time>2026-02-19T18:24:28.000Z</time></trkpt>
        <trkpt lat="29.510683" lon="103.330144"><ele>3035.5962</ele><time>2026-02-19T18:24:34.000Z</time></trkpt>
        <trkpt lat="29.510678" lon="103.330089"><ele>3033.9688</ele><time>2026-02-19T18:24:39.000Z</time></trkpt>
        <trkpt lat="29.51067" lon="103.330034"><ele>3033.9153</ele><time>2026-02-19T18:24:44.000Z</time></trkpt>
        <trkpt lat="29.510647" lon="103.329987"><ele>3033.073</ele><time>2026-02-19T18:24:48.000Z</time></trkpt>
        <trkpt lat="29.510618" lon="103.329933"><ele>3032.4792</ele><time>2026-02-19T18:24:54.000Z</time></trkpt>
        <trkpt lat="29.510585" lon="103.329886"><ele>3033.3733</ele><time>2026-02-19T18:24:59.000Z</time></trkpt>
        <trkpt lat="29.510551" lon="103.329836"><ele>3033.2498</ele><time>2026-02-19T18:25:07.000Z</time></trkpt>
        <trkpt lat="29.510527" lon="103.329795"><ele>3033.7046</ele><time>2026-02-19T18:25:14.000Z</time></trkpt>
        <trkpt lat="29.510498" lon="103.329756"><ele>3035.0466</ele><time>2026-02-19T18:25:20.000Z</time></trkpt>
        <trkpt lat="29.510464" lon="103.329705"><ele>3036.2134</ele><time>2026-02-19T18:25:30.000Z</time></trkpt>
        <trkpt lat="29.510427" lon="103.329676"><ele>3034.3335</ele><time>2026-02-19T18:25:39.000Z</time></trkpt>
        <trkpt lat="29.510387" lon="103.329639"><ele>3035.2668</ele><time>2026-02-19T18:25:45.000Z</time></trkpt>
        <trkpt lat="29.510357" lon="103.329596"><ele>3036.4116</ele><time>2026-02-19T18:25:50.000Z</time></trkpt>
        <trkpt lat="29.510333" lon="103.329547"><ele>3037.4817</ele><time>2026-02-19T18:25:56.000Z</time></trkpt>
        <trkpt lat="29.510301" lon="103.329501"><ele>3038.6357</ele><time>2026-02-19T18:26:23.000Z</time></trkpt>
        <trkpt lat="29.510284" lon="103.329462"><ele>3038.9507</ele><time>2026-02-19T18:26:32.000Z</time></trkpt>
        <trkpt lat="29.510286" lon="103.329402"><ele>3037.6982</ele><time>2026-02-19T18:26:41.000Z</time></trkpt>
        <trkpt lat="29.510257" lon="103.329364"><ele>3037.5566</ele><time>2026-02-19T18:26:52.000Z</time></trkpt>
        <trkpt lat="29.51024" lon="103.329317"><ele>3036.6758</ele><time>2026-02-19T18:27:01.000Z</time></trkpt>
        <trkpt lat="29.510231" lon="103.32926"><ele>3034.9148</ele><time>2026-02-19T18:27:09.000Z</time></trkpt>
        <trkpt lat="29.51021" lon="103.32921"><ele>3033.9587</ele><time>2026-02-19T18:27:17.000Z</time></trkpt>
        <trkpt lat="29.510172" lon="103.329173"><ele>3033.3352</ele><time>2026-02-19T18:27:24.000Z</time></trkpt>
        <trkpt lat="29.510137" lon="103.329134"><ele>3032.02</ele><time>2026-02-19T18:27:34.000Z</time></trkpt>
        <trkpt lat="29.510102" lon="103.329097"><ele>3031.4727</ele><time>2026-02-19T18:27:44.000Z</time></trkpt>
        <trkpt lat="29.51007" lon="103.32906"><ele>3030.1714</ele><time>2026-02-19T18:27:52.000Z</time></trkpt>
        <trkpt lat="29.510039" lon="103.329018"><ele>3029.1194</ele><time>2026-02-19T18:27:58.000Z</time></trkpt>
        <trkpt lat="29.51" lon="103.328971"><ele>3030.6714</ele><time>2026-02-19T18:28:07.000Z</time></trkpt>
        <trkpt lat="29.509967" lon="103.328927"><ele>3028.0989</ele><time>2026-02-19T18:28:28.000Z</time></trkpt>
        <trkpt lat="29.50996" lon="103.328877"><ele>3026.6895</ele><time>2026-02-19T18:28:37.000Z</time></trkpt>
        <trkpt lat="29.509961" lon="103.328819"><ele>3025.0767</ele><time>2026-02-19T18:28:46.000Z</time></trkpt>
        <trkpt lat="29.509931" lon="103.328779"><ele>3024.649</ele><time>2026-02-19T18:28:56.000Z</time></trkpt>
        <trkpt lat="29.509895" lon="103.328747"><ele>3022.2854</ele><time>2026-02-19T18:29:05.000Z</time></trkpt>
        <trkpt lat="29.509855" lon="103.328708"><ele>3021.3618</ele><time>2026-02-19T18:29:17.000Z</time></trkpt>
        <trkpt lat="29.509826" lon="103.328668"><ele>3022.4377</ele><time>2026-02-19T18:29:28.000Z</time></trkpt>
        <trkpt lat="29.509806" lon="103.32862"><ele>3021.158</ele><time>2026-02-19T18:29:36.000Z</time></trkpt>
        <trkpt lat="29.509819" lon="103.328564"><ele>3018.7795</ele><time>2026-02-19T18:29:46.000Z</time></trkpt>
        <trkpt lat="29.50981" lon="103.328507"><ele>3016.4756</ele><time>2026-02-19T18:30:00.000Z</time></trkpt>
        <trkpt lat="29.509816" lon="103.328456"><ele>3016.0046</ele><time>2026-02-19T18:30:08.000Z</time></trkpt>
        <trkpt lat="29.509829" lon="103.328397"><ele>3013.6858</ele><time>2026-02-19T18:30:18.000Z</time></trkpt>
        <trkpt lat="29.509833" lon="103.328342"><ele>3013.601</ele><time>2026-02-19T18:30:27.000Z</time></trkpt>
        <trkpt lat="29.509797" lon="103.328297"><ele>3013.1272</ele><time>2026-02-19T18:30:36.000Z</time></trkpt>
        <trkpt lat="29.509762" lon="103.328255"><ele>3009.2866</ele><time>2026-02-19T18:30:45.000Z</time></trkpt>
        <trkpt lat="29.509729" lon="103.328223"><ele>3008.8225</ele><time>2026-02-19T18:30:50.000Z</time></trkpt>
        <trkpt lat="29.509684" lon="103.328179"><ele>3010.4575</ele><time>2026-02-19T18:30:56.000Z</time></trkpt>
        <trkpt lat="29.509632" lon="103.328153"><ele>3011.6753</ele><time>2026-02-19T18:31:06.000Z</time></trkpt>
        <trkpt lat="29.50959" lon="103.328134"><ele>3012.65</ele><time>2026-02-19T18:31:14.000Z</time></trkpt>
        <trkpt lat="29.509544" lon="103.328125"><ele>3015.3154</ele><time>2026-02-19T18:31:24.000Z</time></trkpt>
        <trkpt lat="29.509495" lon="103.328124"><ele>3015.768</ele><time>2026-02-19T18:31:32.000Z</time></trkpt>
        <trkpt lat="29.509445" lon="103.328124"><ele>3015.8428</ele><time>2026-02-19T18:31:39.000Z</time></trkpt>
        <trkpt lat="29.509392" lon="103.328132"><ele>3017.268</ele><time>2026-02-19T18:31:46.000Z</time></trkpt>
        <trkpt lat="29.509342" lon="103.328135"><ele>3019.5808</ele><time>2026-02-19T18:31:53.000Z</time></trkpt>
        <trkpt lat="29.509284" lon="103.328123"><ele>3020.8142</ele><time>2026-02-19T18:32:03.000Z</time></trkpt>
        <trkpt lat="29.509231" lon="103.328131"><ele>3022.0774</ele><time>2026-02-19T18:32:14.000Z</time></trkpt>
        <trkpt lat="29.509194" lon="103.328109"><ele>3019.11</ele><time>2026-02-19T18:32:20.000Z</time></trkpt>
        <trkpt lat="29.509153" lon="103.328116"><ele>3017.895</ele><time>2026-02-19T18:32:25.000Z</time></trkpt>
        <trkpt lat="29.509096" lon="103.328122"><ele>3018.0208</ele><time>2026-02-19T18:32:33.000Z</time></trkpt>
        <trkpt lat="29.509062" lon="103.328166"><ele>3020.9473</ele><time>2026-02-19T18:32:42.000Z</time></trkpt>
        <trkpt lat="29.509024" lon="103.32819"><ele>3022.2087</ele><time>2026-02-19T18:32:47.000Z</time></trkpt>
        <trkpt lat="29.508985" lon="103.328224"><ele>3023.7915</ele><time>2026-02-19T18:32:53.000Z</time></trkpt>
        <trkpt lat="29.508938" lon="103.328251"><ele>3022.7454</ele><time>2026-02-19T18:33:00.000Z</time></trkpt>
        <trkpt lat="29.508907" lon="103.328301"><ele>3023.48</ele><time>2026-02-19T18:33:57.000Z</time></trkpt>
        <trkpt lat="29.508873" lon="103.32832"><ele>3022.7375</ele><time>2026-02-19T18:34:06.000Z</time></trkpt>
        <trkpt lat="29.508822" lon="103.32834"><ele>3023.3352</ele><time>2026-02-19T18:34:13.000Z</time></trkpt>
        <trkpt lat="29.508772" lon="103.328351"><ele>3021.1772</ele><time>2026-02-19T18:34:30.000Z</time></trkpt>
        <trkpt lat="29.50873" lon="103.328356"><ele>3021.2249</ele><time>2026-02-19T18:34:41.000Z</time></trkpt>
        <trkpt lat="29.508682" lon="103.328339"><ele>3021.0857</ele><time>2026-02-19T18:34:48.000Z</time></trkpt>
        <trkpt lat="29.508631" lon="103.328335"><ele>3022.7358</ele><time>2026-02-19T18:35:00.000Z</time></trkpt>
        <trkpt lat="29.508592" lon="103.32834"><ele>3023.646</ele><time>2026-02-19T18:35:06.000Z</time></trkpt>
        <trkpt lat="29.508548" lon="103.328306"><ele>3025.9097</ele><time>2026-02-19T18:35:12.000Z</time></trkpt>
        <trkpt lat="29.508498" lon="103.328297"><ele>3027.262</ele><time>2026-02-19T18:35:19.000Z</time></trkpt>
        <trkpt lat="29.508452" lon="103.328294"><ele>3026.5044</ele><time>2026-02-19T18:35:26.000Z</time></trkpt>
        <trkpt lat="29.508397" lon="103.328282"><ele>3023.1335</ele><time>2026-02-19T18:35:57.000Z</time></trkpt>
        <trkpt lat="29.508366" lon="103.32825"><ele>3023.309</ele><time>2026-02-19T18:36:07.000Z</time></trkpt>
        <trkpt lat="29.508322" lon="103.328217"><ele>3022.657</ele><time>2026-02-19T18:36:16.000Z</time></trkpt>
        <trkpt lat="29.508282" lon="103.328184"><ele>3019.475</ele><time>2026-02-19T18:36:24.000Z</time></trkpt>
        <trkpt lat="29.508257" lon="103.328141"><ele>3017.9553</ele><time>2026-02-19T18:36:31.000Z</time></trkpt>
        <trkpt lat="29.508218" lon="103.32812"><ele>3018.332</ele><time>2026-02-19T18:36:38.000Z</time></trkpt>
        <trkpt lat="29.508174" lon="103.328088"><ele>3016.5095</ele><time>2026-02-19T18:36:46.000Z</time></trkpt>
        <trkpt lat="29.508144" lon="103.328046"><ele>3015.1685</ele><time>2026-02-19T18:36:52.000Z</time></trkpt>
        <trkpt lat="29.508119" lon="103.327995"><ele>3013.6619</ele><time>2026-02-19T18:36:58.000Z</time></trkpt>
        <trkpt lat="29.508103" lon="103.327941"><ele>3014.1213</ele><time>2026-02-19T18:37:03.000Z</time></trkpt>
        <trkpt lat="29.508079" lon="103.327895"><ele>3014.631</ele><time>2026-02-19T18:37:08.000Z</time></trkpt>
        <trkpt lat="29.508052" lon="103.327845"><ele>3013.6938</ele><time>2026-02-19T18:37:14.000Z</time></trkpt>
        <trkpt lat="29.508023" lon="103.327796"><ele>3012.8264</ele><time>2026-02-19T18:37:24.000Z</time></trkpt>
        <trkpt lat="29.508012" lon="103.327748"><ele>3013.182</ele><time>2026-02-19T18:37:31.000Z</time></trkpt>
        <trkpt lat="29.508002" lon="103.3277"><ele>3013.0674</ele><time>2026-02-19T18:37:36.000Z</time></trkpt>
        <trkpt lat="29.507991" lon="103.327646"><ele>3013.735</ele><time>2026-02-19T18:37:42.000Z</time></trkpt>
        <trkpt lat="29.507963" lon="103.327607"><ele>3012.5518</ele><time>2026-02-19T18:37:47.000Z</time></trkpt>
        <trkpt lat="29.507906" lon="103.32762"><ele>3009.996</ele><time>2026-02-19T18:37:58.000Z</time></trkpt>
        <trkpt lat="29.507859" lon="103.327628"><ele>3012.1787</ele><time>2026-02-19T18:38:07.000Z</time></trkpt>
        <trkpt lat="29.507815" lon="103.327611"><ele>3016.0974</ele><time>2026-02-19T18:38:30.000Z</time></trkpt>
        <trkpt lat="29.507782" lon="103.327634"><ele>3015.504</ele><time>2026-02-19T18:38:38.000Z</time></trkpt>
        <trkpt lat="29.507742" lon="103.327685"><ele>3017.321</ele><time>2026-02-19T18:38:49.000Z</time></trkpt>
        <trkpt lat="29.507704" lon="103.327717"><ele>3016.3486</ele><time>2026-02-19T18:38:56.000Z</time></trkpt>
        <trkpt lat="29.50765" lon="103.327723"><ele>3015.6494</ele><time>2026-02-19T18:39:04.000Z</time></trkpt>
        <trkpt lat="29.507608" lon="103.327698"><ele>3015.7627</ele><time>2026-02-19T18:39:11.000Z</time></trkpt>
        <trkpt lat="29.507571" lon="103.327665"><ele>3014.9968</ele><time>2026-02-19T18:39:17.000Z</time></trkpt>
        <trkpt lat="29.507551" lon="103.327613"><ele>3007.5767</ele><time>2026-02-19T18:39:25.000Z</time></trkpt>
        <trkpt lat="29.507527" lon="103.327577"><ele>3004.4805</ele><time>2026-02-19T18:39:30.000Z</time></trkpt>
        <trkpt lat="29.507506" lon="103.327519"><ele>3004.0398</ele><time>2026-02-19T18:39:36.000Z</time></trkpt>
        <trkpt lat="29.507477" lon="103.327465"><ele>3005.1655</ele><time>2026-02-19T18:39:41.000Z</time></trkpt>
        <trkpt lat="29.507445" lon="103.327427"><ele>3006.6355</ele><time>2026-02-19T18:39:45.000Z</time></trkpt>
        <trkpt lat="29.507411" lon="103.327389"><ele>3008.5269</ele><time>2026-02-19T18:39:49.000Z</time></trkpt>
        <trkpt lat="29.507367" lon="103.327342"><ele>3008.5254</ele><time>2026-02-19T18:39:56.000Z</time></trkpt>
        <trkpt lat="29.507334" lon="103.327315"><ele>3007.5916</ele><time>2026-02-19T18:40:00.000Z</time></trkpt>
        <trkpt lat="29.507287" lon="103.327279"><ele>3009.186</ele><time>2026-02-19T18:40:06.000Z</time></trkpt>
        <trkpt lat="29.507249" lon="103.327244"><ele>3010.028</ele><time>2026-02-19T18:40:12.000Z</time></trkpt>
        <trkpt lat="29.507218" lon="103.327204"><ele>3006.8096</ele><time>2026-02-19T18:40:19.000Z</time></trkpt>
        <trkpt lat="29.507181" lon="103.327163"><ele>3007.1057</ele><time>2026-02-19T18:40:25.000Z</time></trkpt>
        <trkpt lat="29.507143" lon="103.327117"><ele>3003.701</ele><time>2026-02-19T18:40:38.000Z</time></trkpt>
        <trkpt lat="29.507114" lon="103.327077"><ele>2999.5635</ele><time>2026-02-19T18:40:51.000Z</time></trkpt>
        <trkpt lat="29.507096" lon="103.327035"><ele>3001.4993</ele><time>2026-02-19T18:40:57.000Z</time></trkpt>
        <trkpt lat="29.50707" lon="103.326988"><ele>3003.7424</ele><time>2026-02-19T18:41:03.000Z</time></trkpt>
        <trkpt lat="29.507073" lon="103.326927"><ele>3006.8037</ele><time>2026-02-19T18:41:13.000Z</time></trkpt>
        <trkpt lat="29.507081" lon="103.326875"><ele>3005.5352</ele><time>2026-02-19T18:41:22.000Z</time></trkpt>
        <trkpt lat="29.507099" lon="103.326825"><ele>3004.8154</ele><time>2026-02-19T18:41:32.000Z</time></trkpt>
        <trkpt lat="29.507123" lon="103.326781"><ele>3001.052</ele><time>2026-02-19T18:41:44.000Z</time></trkpt>
        <trkpt lat="29.507153" lon="103.326742"><ele>3001.2974</ele><time>2026-02-19T18:41:53.000Z</time></trkpt>
        <trkpt lat="29.507192" lon="103.326692"><ele>3001.261</ele><time>2026-02-19T18:42:03.000Z</time></trkpt>
        <trkpt lat="29.507237" lon="103.326677"><ele>2999.7095</ele><time>2026-02-19T18:42:11.000Z</time></trkpt>
        <trkpt lat="29.507285" lon="103.32668"><ele>3000.2876</ele><time>2026-02-19T18:42:17.000Z</time></trkpt>
        <trkpt lat="29.507337" lon="103.326684"><ele>3000.2886</ele><time>2026-02-19T18:42:24.000Z</time></trkpt>
        <trkpt lat="29.507373" lon="103.326646"><ele>2997.269</ele><time>2026-02-19T18:42:34.000Z</time></trkpt>
        <trkpt lat="29.50739" lon="103.326595"><ele>2995.555</ele><time>2026-02-19T18:42:46.000Z</time></trkpt>
        <trkpt lat="29.507405" lon="103.326546"><ele>2993.9993</ele><time>2026-02-19T18:42:58.000Z</time></trkpt>
        <trkpt lat="29.50744" lon="103.326497"><ele>2991.6145</ele><time>2026-02-19T18:43:07.000Z</time></trkpt>
        <trkpt lat="29.507484" lon="103.32646"><ele>2990.596</ele><time>2026-02-19T18:43:18.000Z</time></trkpt>
        <trkpt lat="29.507518" lon="103.32642"><ele>2990.1729</ele><time>2026-02-19T18:43:28.000Z</time></trkpt>
        <trkpt lat="29.507558" lon="103.326391"><ele>2989.2498</ele><time>2026-02-19T18:43:34.000Z</time></trkpt>
        <trkpt lat="29.507605" lon="103.326368"><ele>2990.5999</ele><time>2026-02-19T18:43:45.000Z</time></trkpt>
        <trkpt lat="29.507638" lon="103.326334"><ele>2987.924</ele><time>2026-02-19T18:43:53.000Z</time></trkpt>
        <trkpt lat="29.507676" lon="103.326304"><ele>2984.9668</ele><time>2026-02-19T18:44:01.000Z</time></trkpt>
        <trkpt lat="29.507698" lon="103.32625"><ele>2984.9543</ele><time>2026-02-19T18:44:10.000Z</time></trkpt>
        <trkpt lat="29.50773" lon="103.326212"><ele>2981.4084</ele><time>2026-02-19T18:44:21.000Z</time></trkpt>
        <trkpt lat="29.507764" lon="103.326165"><ele>2978.624</ele><time>2026-02-19T18:44:34.000Z</time></trkpt>
        <trkpt lat="29.507759" lon="103.326109"><ele>2975.6604</ele><time>2026-02-19T18:44:55.000Z</time></trkpt>
        <trkpt lat="29.507752" lon="103.326058"><ele>2975.1453</ele><time>2026-02-19T18:45:05.000Z</time></trkpt>
        <trkpt lat="29.50777" lon="103.326001"><ele>2972.1616</ele><time>2026-02-19T18:45:29.000Z</time></trkpt>
        <trkpt lat="29.507747" lon="103.325956"><ele>2972.19</ele><time>2026-02-19T18:46:48.000Z</time></trkpt>
        <trkpt lat="29.507711" lon="103.325924"><ele>2971.8604</ele><time>2026-02-19T18:46:59.000Z</time></trkpt>
        <trkpt lat="29.507659" lon="103.325915"><ele>2971.0085</ele><time>2026-02-19T18:47:14.000Z</time></trkpt>
        <trkpt lat="29.507618" lon="103.325892"><ele>2965.5815</ele><time>2026-02-19T18:47:25.000Z</time></trkpt>
        <trkpt lat="29.50759" lon="103.32584"><ele>2960.4832</ele><time>2026-02-19T18:47:57.000Z</time></trkpt>
        <trkpt lat="29.507574" lon="103.325793"><ele>2959.9238</ele><time>2026-02-19T18:48:07.000Z</time></trkpt>
        <trkpt lat="29.50755" lon="103.325745"><ele>2960.0525</ele><time>2026-02-19T18:48:14.000Z</time></trkpt>
        <trkpt lat="29.507505" lon="103.325729"><ele>2957.8396</ele><time>2026-02-19T18:48:25.000Z</time></trkpt>
        <trkpt lat="29.507457" lon="103.325721"><ele>2956.0293</ele><time>2026-02-19T18:48:34.000Z</time></trkpt>
        <trkpt lat="29.507428" lon="103.32568"><ele>2955.0203</ele><time>2026-02-19T18:48:43.000Z</time></trkpt>
        <trkpt lat="29.507395" lon="103.32564"><ele>2952.2556</ele><time>2026-02-19T18:48:54.000Z</time></trkpt>
        <trkpt lat="29.507362" lon="103.325605"><ele>2951.2515</ele><time>2026-02-19T18:49:02.000Z</time></trkpt>
        <trkpt lat="29.507318" lon="103.32557"><ele>2951.4116</ele><time>2026-02-19T18:49:11.000Z</time></trkpt>
        <trkpt lat="29.507278" lon="103.325543"><ele>2950.8152</ele><time>2026-02-19T18:49:19.000Z</time></trkpt>
        <trkpt lat="29.507229" lon="103.325528"><ele>2950.195</ele><time>2026-02-19T18:49:25.000Z</time></trkpt>
        <trkpt lat="29.507178" lon="103.325524"><ele>2946.41</ele><time>2026-02-19T18:50:21.000Z</time></trkpt>
        <trkpt lat="29.507132" lon="103.325522"><ele>2950.1345</ele><time>2026-02-19T18:51:23.000Z</time></trkpt>
        <trkpt lat="29.507101" lon="103.32548"><ele>2949.278</ele><time>2026-02-19T18:51:41.000Z</time></trkpt>
        <trkpt lat="29.507104" lon="103.325431"><ele>2948.4678</ele><time>2026-02-19T18:51:49.000Z</time></trkpt>
        <trkpt lat="29.50711" lon="103.325377"><ele>2948.4724</ele><time>2026-02-19T18:51:55.000Z</time></trkpt>
        <trkpt lat="29.507111" lon="103.325315"><ele>2947.215</ele><time>2026-02-19T18:52:06.000Z</time></trkpt>
        <trkpt lat="29.507108" lon="103.325264"><ele>2943.9094</ele><time>2026-02-19T18:52:16.000Z</time></trkpt>
        <trkpt lat="29.507108" lon="103.325209"><ele>2944.0776</ele><time>2026-02-19T18:52:24.000Z</time></trkpt>
        <trkpt lat="29.507111" lon="103.325153"><ele>2942.2896</ele><time>2026-02-19T18:52:32.000Z</time></trkpt>
        <trkpt lat="29.507117" lon="103.325095"><ele>2941.8445</ele><time>2026-02-19T18:52:39.000Z</time></trkpt>
        <trkpt lat="29.507111" lon="103.325038"><ele>2940.2078</ele><time>2026-02-19T18:52:47.000Z</time></trkpt>
        <trkpt lat="29.507104" lon="103.324986"><ele>2939.3923</ele><time>2026-02-19T18:52:52.000Z</time></trkpt>
        <trkpt lat="29.507105" lon="103.324921"><ele>2939.961</ele><time>2026-02-19T18:52:58.000Z</time></trkpt>
        <trkpt lat="29.507121" lon="103.324857"><ele>2940.386</ele><time>2026-02-19T18:53:05.000Z</time></trkpt>
        <trkpt lat="29.507137" lon="103.324801"><ele>2939.0505</ele><time>2026-02-19T18:53:12.000Z</time></trkpt>
        <trkpt lat="29.507137" lon="103.324749"><ele>2938.4854</ele><time>2026-02-19T18:53:18.000Z</time></trkpt>
        <trkpt lat="29.507152" lon="103.324701"><ele>2937.765</ele><time>2026-02-19T18:53:23.000Z</time></trkpt>
        <trkpt lat="29.50716" lon="103.324643"><ele>2936.2002</ele><time>2026-02-19T18:53:36.000Z</time></trkpt>
        <trkpt lat="29.507175" lon="103.324602"><ele>2936.0808</ele><time>2026-02-19T18:53:42.000Z</time></trkpt>
        <trkpt lat="29.507164" lon="103.324549"><ele>2935.3948</ele><time>2026-02-19T18:53:51.000Z</time></trkpt>
        <trkpt lat="29.507158" lon="103.324497"><ele>2936.193</ele><time>2026-02-19T18:53:57.000Z</time></trkpt>
        <trkpt lat="29.507175" lon="103.324449"><ele>2937.49</ele><time>2026-02-19T18:54:02.000Z</time></trkpt>
        <trkpt lat="29.507191" lon="103.324391"><ele>2937.887</ele><time>2026-02-19T18:54:12.000Z</time></trkpt>
        <trkpt lat="29.507204" lon="103.324344"><ele>2938.3528</ele><time>2026-02-19T18:54:19.000Z</time></trkpt>
        <trkpt lat="29.50723" lon="103.324295"><ele>2935.942</ele><time>2026-02-19T18:54:26.000Z</time></trkpt>
        <trkpt lat="29.507268" lon="103.324259"><ele>2935.4</ele><time>2026-02-19T18:54:33.000Z</time></trkpt>
        <trkpt lat="29.507293" lon="103.324214"><ele>2935.702</ele><time>2026-02-19T18:54:40.000Z</time></trkpt>
        <trkpt lat="29.507313" lon="103.324166"><ele>2934.9941</ele><time>2026-02-19T18:54:47.000Z</time></trkpt>
        <trkpt lat="29.507326" lon="103.324112"><ele>2932.6494</ele><time>2026-02-19T18:54:54.000Z</time></trkpt>
        <trkpt lat="29.507344" lon="103.324056"><ele>2933.0168</ele><time>2026-02-19T18:55:01.000Z</time></trkpt>
        <trkpt lat="29.507351" lon="103.323999"><ele>2933.7593</ele><time>2026-02-19T18:55:09.000Z</time></trkpt>
        <trkpt lat="29.507364" lon="103.323935"><ele>2933.6838</ele><time>2026-02-19T18:55:19.000Z</time></trkpt>
        <trkpt lat="29.507388" lon="103.323892"><ele>2933.1328</ele><time>2026-02-19T18:55:26.000Z</time></trkpt>
        <trkpt lat="29.507398" lon="103.323839"><ele>2931.8647</ele><time>2026-02-19T18:55:39.000Z</time></trkpt>
        <trkpt lat="29.507385" lon="103.323787"><ele>2930.9373</ele><time>2026-02-19T18:55:44.000Z</time></trkpt>
        <trkpt lat="29.507368" lon="103.323723"><ele>2934.4263</ele><time>2026-02-19T18:55:59.000Z</time></trkpt>
        <trkpt lat="29.507332" lon="103.323697"><ele>2934.0242</ele><time>2026-02-19T18:56:07.000Z</time></trkpt>
        <trkpt lat="29.507284" lon="103.323667"><ele>2930.671</ele><time>2026-02-19T18:56:16.000Z</time></trkpt>
        <trkpt lat="29.507259" lon="103.323627"><ele>2930.311</ele><time>2026-02-19T18:56:22.000Z</time></trkpt>
        <trkpt lat="29.507221" lon="103.323586"><ele>2929.7808</ele><time>2026-02-19T18:56:29.000Z</time></trkpt>
        <trkpt lat="29.507176" lon="103.323572"><ele>2927.9026</ele><time>2026-02-19T18:56:36.000Z</time></trkpt>
        <trkpt lat="29.507131" lon="103.323562"><ele>2927.7056</ele><time>2026-02-19T18:56:42.000Z</time></trkpt>
        <trkpt lat="29.507082" lon="103.323547"><ele>2929.75</ele><time>2026-02-19T18:56:47.000Z</time></trkpt>
        <trkpt lat="29.507026" lon="103.323531"><ele>2932.7456</ele><time>2026-02-19T18:56:55.000Z</time></trkpt>
        <trkpt lat="29.506992" lon="103.323496"><ele>2932.3345</ele><time>2026-02-19T18:57:03.000Z</time></trkpt>
        <trkpt lat="29.506958" lon="103.323461"><ele>2932.2705</ele><time>2026-02-19T18:57:10.000Z</time></trkpt>
        <trkpt lat="29.506913" lon="103.323436"><ele>2932.6655</ele><time>2026-02-19T18:57:29.000Z</time></trkpt>
        <trkpt lat="29.506874" lon="103.323399"><ele>2930.999</ele><time>2026-02-19T18:58:31.000Z</time></trkpt>
        <trkpt lat="29.506865" lon="103.323348"><ele>2931.5464</ele><time>2026-02-19T18:58:49.000Z</time></trkpt>
        <trkpt lat="29.506839" lon="103.323305"><ele>2931.935</ele><time>2026-02-19T18:59:04.000Z</time></trkpt>
        <trkpt lat="29.506799" lon="103.323278"><ele>2936.0593</ele><time>2026-02-19T18:59:16.000Z</time></trkpt>
        <trkpt lat="29.50677" lon="103.323235"><ele>2936.2898</ele><time>2026-02-19T18:59:36.000Z</time></trkpt>
        <trkpt lat="29.506734" lon="103.323211"><ele>2936.6445</ele><time>2026-02-19T18:59:44.000Z</time></trkpt>
        <trkpt lat="29.506699" lon="103.323175"><ele>2936.6038</ele><time>2026-02-19T18:59:50.000Z</time></trkpt>
        <trkpt lat="29.506662" lon="103.323131"><ele>2935.3567</ele><time>2026-02-19T18:59:58.000Z</time></trkpt>
        <trkpt lat="29.506633" lon="103.323093"><ele>2935.459</ele><time>2026-02-19T19:00:05.000Z</time></trkpt>
        <trkpt lat="29.506594" lon="103.323059"><ele>2935.8284</ele><time>2026-02-19T19:00:12.000Z</time></trkpt>
        <trkpt lat="29.50655" lon="103.323042"><ele>2934.4397</ele><time>2026-02-19T19:00:18.000Z</time></trkpt>
        <trkpt lat="29.506507" lon="103.32302"><ele>2933.7434</ele><time>2026-02-19T19:00:23.000Z</time></trkpt>
        <trkpt lat="29.506474" lon="103.322973"><ele>2932.945</ele><time>2026-02-19T19:00:32.000Z</time></trkpt>
        <trkpt lat="29.506445" lon="103.322929"><ele>2931.9456</ele><time>2026-02-19T19:00:38.000Z</time></trkpt>
        <trkpt lat="29.506419" lon="103.322872"><ele>2931.4697</ele><time>2026-02-19T19:00:46.000Z</time></trkpt>
        <trkpt lat="29.506395" lon="103.322823"><ele>2931.1418</ele><time>2026-02-19T19:00:54.000Z</time></trkpt>
        <trkpt lat="29.50637" lon="103.322775"><ele>2929.583</ele><time>2026-02-19T19:01:02.000Z</time></trkpt>
        <trkpt lat="29.506348" lon="103.322726"><ele>2927.345</ele><time>2026-02-19T19:01:09.000Z</time></trkpt>
        <trkpt lat="29.506326" lon="103.322674"><ele>2926.3542</ele><time>2026-02-19T19:01:16.000Z</time></trkpt>
        <trkpt lat="29.5063" lon="103.322628"><ele>2924.2043</ele><time>2026-02-19T19:01:23.000Z</time></trkpt>
        <trkpt lat="29.506277" lon="103.322578"><ele>2922.9604</ele><time>2026-02-19T19:01:31.000Z</time></trkpt>
        <trkpt lat="29.506253" lon="103.322532"><ele>2924.7434</ele><time>2026-02-19T19:01:36.000Z</time></trkpt>
        <trkpt lat="29.506224" lon="103.322482"><ele>2923.5767</ele><time>2026-02-19T19:01:44.000Z</time></trkpt>
        <trkpt lat="29.506214" lon="103.32243"><ele>2922.2336</ele><time>2026-02-19T19:01:55.000Z</time></trkpt>
        <trkpt lat="29.506227" lon="103.322372"><ele>2917.7861</ele><time>2026-02-19T19:02:10.000Z</time></trkpt>
        <trkpt lat="29.506227" lon="103.322323"><ele>2916.6858</ele><time>2026-02-19T19:02:19.000Z</time></trkpt>
        <trkpt lat="29.506233" lon="103.322272"><ele>2915.9712</ele><time>2026-02-19T19:02:26.000Z</time></trkpt>
        <trkpt lat="29.50624" lon="103.322217"><ele>2913.068</ele><time>2026-02-19T19:02:39.000Z</time></trkpt>
        <trkpt lat="29.506237" lon="103.322164"><ele>2915.783</ele><time>2026-02-19T19:02:48.000Z</time></trkpt>
        <trkpt lat="29.506238" lon="103.322111"><ele>2917.3206</ele><time>2026-02-19T19:02:55.000Z</time></trkpt>
        <trkpt lat="29.506221" lon="103.322057"><ele>2915.4783</ele><time>2026-02-19T19:03:04.000Z</time></trkpt>
        <trkpt lat="29.50619" lon="103.322011"><ele>2910.6646</ele><time>2026-02-19T19:03:40.000Z</time></trkpt>
        <trkpt lat="29.50618" lon="103.321963"><ele>2910.184</ele><time>2026-02-19T19:03:52.000Z</time></trkpt>
        <trkpt lat="29.506163" lon="103.321907"><ele>2907.798</ele><time>2026-02-19T19:04:05.000Z</time></trkpt>
        <trkpt lat="29.506147" lon="103.321855"><ele>2903.9119</ele><time>2026-02-19T19:04:29.000Z</time></trkpt>
        <trkpt lat="29.50613" lon="103.32181"><ele>2903.3562</ele><time>2026-02-19T19:04:38.000Z</time></trkpt>
        <trkpt lat="29.506112" lon="103.321756"><ele>2899.0469</ele><time>2026-02-19T19:04:54.000Z</time></trkpt>
        <trkpt lat="29.506105" lon="103.321698"><ele>2895.3716</ele><time>2026-02-19T19:05:09.000Z</time></trkpt>
        <trkpt lat="29.506071" lon="103.321663"><ele>2891.8577</ele><time>2026-02-19T19:05:21.000Z</time></trkpt>
        <trkpt lat="29.50608" lon="103.321612"><ele>2885.8071</ele><time>2026-02-19T19:05:41.000Z</time></trkpt>
        <trkpt lat="29.506052" lon="103.321571"><ele>2886.0144</ele><time>2026-02-19T19:06:15.000Z</time></trkpt>
        <trkpt lat="29.506012" lon="103.321552"><ele>2886.7512</ele><time>2026-02-19T19:06:23.000Z</time></trkpt>
        <trkpt lat="29.506052" lon="103.321512"><ele>2883.6367</ele><time>2026-02-19T19:06:36.000Z</time></trkpt>
        <trkpt lat="29.50605" lon="103.32146"><ele>2882.573</ele><time>2026-02-19T19:07:14.000Z</time></trkpt>
        <trkpt lat="29.506015" lon="103.321423"><ele>2880.288</ele><time>2026-02-19T19:07:58.000Z</time></trkpt>
        <trkpt lat="29.505982" lon="103.321383"><ele>2877.916</ele><time>2026-02-19T19:08:53.000Z</time></trkpt>
        <trkpt lat="29.505959" lon="103.321339"><ele>2876.4375</ele><time>2026-02-19T19:09:06.000Z</time></trkpt>
        <trkpt lat="29.50594" lon="103.321285"><ele>2873.046</ele><time>2026-02-19T19:09:21.000Z</time></trkpt>
        <trkpt lat="29.505941" lon="103.321231"><ele>2871.4822</ele><time>2026-02-19T19:09:31.000Z</time></trkpt>
        <trkpt lat="29.505955" lon="103.321174"><ele>2868.2024</ele><time>2026-02-19T19:09:42.000Z</time></trkpt>
        <trkpt lat="29.50597" lon="103.321124"><ele>2867.113</ele><time>2026-02-19T19:09:52.000Z</time></trkpt>
        <trkpt lat="29.505963" lon="103.321071"><ele>2863.889</ele><time>2026-02-19T19:10:10.000Z</time></trkpt>
        <trkpt lat="29.505941" lon="103.32102"><ele>2864.1975</ele><time>2026-02-19T19:10:21.000Z</time></trkpt>
        <trkpt lat="29.505925" lon="103.320963"><ele>2861.1567</ele><time>2026-02-19T19:10:34.000Z</time></trkpt>
        <trkpt lat="29.50591" lon="103.320905"><ele>2859.8394</ele><time>2026-02-19T19:10:43.000Z</time></trkpt>
        <trkpt lat="29.505886" lon="103.320851"><ele>2858.39</ele><time>2026-02-19T19:10:51.000Z</time></trkpt>
        <trkpt lat="29.505863" lon="103.320801"><ele>2856.8005</ele><time>2026-02-19T19:11:04.000Z</time></trkpt>
        <trkpt lat="29.505855" lon="103.320751"><ele>2856.1653</ele><time>2026-02-19T19:11:11.000Z</time></trkpt>
        <trkpt lat="29.505856" lon="103.320694"><ele>2854.3506</ele><time>2026-02-19T19:11:17.000Z</time></trkpt>
        <trkpt lat="29.505866" lon="103.320636"><ele>2853.7224</ele><time>2026-02-19T19:11:26.000Z</time></trkpt>
        <trkpt lat="29.50587" lon="103.320579"><ele>2851.3306</ele><time>2026-02-19T19:11:37.000Z</time></trkpt>
        <trkpt lat="29.505893" lon="103.320531"><ele>2849.05</ele><time>2026-02-19T19:11:50.000Z</time></trkpt>
        <trkpt lat="29.505924" lon="103.320487"><ele>2849.6626</ele><time>2026-02-19T19:12:01.000Z</time></trkpt>
        <trkpt lat="29.505959" lon="103.32045"><ele>2847.2844</ele><time>2026-02-19T19:12:16.000Z</time></trkpt>
        <trkpt lat="29.505981" lon="103.320404"><ele>2845.9644</ele><time>2026-02-19T19:12:27.000Z</time></trkpt>
        <trkpt lat="29.506022" lon="103.320369"><ele>2847.5234</ele><time>2026-02-19T19:12:36.000Z</time></trkpt>
        <trkpt lat="29.506039" lon="103.320317"><ele>2845.8865</ele><time>2026-02-19T19:12:55.000Z</time></trkpt>
        <trkpt lat="29.506078" lon="103.32029"><ele>2842.1108</ele><time>2026-02-19T19:13:10.000Z</time></trkpt>
        <trkpt lat="29.506123" lon="103.320266"><ele>2841.9775</ele><time>2026-02-19T19:13:26.000Z</time></trkpt>
        <trkpt lat="29.506148" lon="103.320226"><ele>2839.4421</ele><time>2026-02-19T19:13:36.000Z</time></trkpt>
        <trkpt lat="29.506149" lon="103.320167"><ele>2835.9187</ele><time>2026-02-19T19:13:47.000Z</time></trkpt>
        <trkpt lat="29.506146" lon="103.320114"><ele>2834.976</ele><time>2026-02-19T19:13:56.000Z</time></trkpt>
        <trkpt lat="29.506138" lon="103.320064"><ele>2834.356</ele><time>2026-02-19T19:14:04.000Z</time></trkpt>
        <trkpt lat="29.506142" lon="103.320005"><ele>2834.0425</ele><time>2026-02-19T19:14:15.000Z</time></trkpt>
        <trkpt lat="29.506132" lon="103.319955"><ele>2833.5771</ele><time>2026-02-19T19:14:25.000Z</time></trkpt>
        <trkpt lat="29.506124" lon="103.319901"><ele>2832.5308</ele><time>2026-02-19T19:14:34.000Z</time></trkpt>
        <trkpt lat="29.506107" lon="103.319843"><ele>2832.0647</ele><time>2026-02-19T19:15:02.000Z</time></trkpt>
        <trkpt lat="29.506083" lon="103.319801"><ele>2835.0276</ele><time>2026-02-19T19:15:19.000Z</time></trkpt>
        <trkpt lat="29.506087" lon="103.319746"><ele>2834.3284</ele><time>2026-02-19T19:15:33.000Z</time></trkpt>
        <trkpt lat="29.506076" lon="103.319691"><ele>2832.327</ele><time>2026-02-19T19:15:43.000Z</time></trkpt>
        <trkpt lat="29.506061" lon="103.319636"><ele>2833.6765</ele><time>2026-02-19T19:15:50.000Z</time></trkpt>
        <trkpt lat="29.506056" lon="103.319578"><ele>2833.4658</ele><time>2026-02-19T19:16:02.000Z</time></trkpt>
        <trkpt lat="29.506036" lon="103.319527"><ele>2830.7998</ele><time>2026-02-19T19:16:11.000Z</time></trkpt>
        <trkpt lat="29.506027" lon="103.31947"><ele>2830.2986</ele><time>2026-02-19T19:16:21.000Z</time></trkpt>
        <trkpt lat="29.506028" lon="103.319416"><ele>2833.2146</ele><time>2026-02-19T19:16:34.000Z</time></trkpt>
        <trkpt lat="29.506023" lon="103.319362"><ele>2833.934</ele><time>2026-02-19T19:16:42.000Z</time></trkpt>
        <trkpt lat="29.506011" lon="103.319305"><ele>2832.7031</ele><time>2026-02-19T19:16:51.000Z</time></trkpt>
        <trkpt lat="29.50597" lon="103.319268"><ele>2830.2961</ele><time>2026-02-19T19:17:02.000Z</time></trkpt>
        <trkpt lat="29.505952" lon="103.319217"><ele>2830.45</ele><time>2026-02-19T19:17:08.000Z</time></trkpt>
        <trkpt lat="29.505935" lon="103.319161"><ele>2828.1086</ele><time>2026-02-19T19:17:16.000Z</time></trkpt>
        <trkpt lat="29.505906" lon="103.319109"><ele>2826.4397</ele><time>2026-02-19T19:17:29.000Z</time></trkpt>
        <trkpt lat="29.505894" lon="103.31906"><ele>2824.8938</ele><time>2026-02-19T19:17:42.000Z</time></trkpt>
        <trkpt lat="29.505885" lon="103.319007"><ele>2824.674</ele><time>2026-02-19T19:17:50.000Z</time></trkpt>
        <trkpt lat="29.505849" lon="103.318973"><ele>2825.0786</ele><time>2026-02-19T19:17:59.000Z</time></trkpt>
        <trkpt lat="29.50581" lon="103.318945"><ele>2823.8364</ele><time>2026-02-19T19:18:07.000Z</time></trkpt>
        <trkpt lat="29.505779" lon="103.318905"><ele>2820.2583</ele><time>2026-02-19T19:18:16.000Z</time></trkpt>
        <trkpt lat="29.505771" lon="103.318854"><ele>2818.349</ele><time>2026-02-19T19:18:24.000Z</time></trkpt>
        <trkpt lat="29.505747" lon="103.318808"><ele>2818.3108</ele><time>2026-02-19T19:18:30.000Z</time></trkpt>
        <trkpt lat="29.505713" lon="103.318763"><ele>2819.5547</ele><time>2026-02-19T19:18:38.000Z</time></trkpt>
        <trkpt lat="29.505674" lon="103.318721"><ele>2820.1445</ele><time>2026-02-19T19:18:50.000Z</time></trkpt>
        <trkpt lat="29.505639" lon="103.318675"><ele>2819.146</ele><time>2026-02-19T19:19:02.000Z</time></trkpt>
        <trkpt lat="29.505611" lon="103.318637"><ele>2817.948</ele><time>2026-02-19T19:19:08.000Z</time></trkpt>
        <trkpt lat="29.505592" lon="103.318586"><ele>2816.9744</ele><time>2026-02-19T19:19:18.000Z</time></trkpt>
        <trkpt lat="29.505573" lon="103.318534"><ele>2815.5776</ele><time>2026-02-19T19:19:27.000Z</time></trkpt>
        <trkpt lat="29.505521" lon="103.318526"><ele>2811.3865</ele><time>2026-02-19T19:19:50.000Z</time></trkpt>
        <trkpt lat="29.505473" lon="103.318513"><ele>2811.9377</ele><time>2026-02-19T19:20:01.000Z</time></trkpt>
        <trkpt lat="29.505431" lon="103.318492"><ele>2811.4507</ele><time>2026-02-19T19:20:08.000Z</time></trkpt>
        <trkpt lat="29.505396" lon="103.318457"><ele>2812.3123</ele><time>2026-02-19T19:20:13.000Z</time></trkpt>
        <trkpt lat="29.505358" lon="103.318413"><ele>2810.4849</ele><time>2026-02-19T19:20:31.000Z</time></trkpt>
        <trkpt lat="29.505341" lon="103.318368"><ele>2806.4475</ele><time>2026-02-19T19:20:44.000Z</time></trkpt>
        <trkpt lat="29.505324" lon="103.318312"><ele>2802.0532</ele><time>2026-02-19T19:20:58.000Z</time></trkpt>
        <trkpt lat="29.505297" lon="103.318266"><ele>2798.2034</ele><time>2026-02-19T19:21:16.000Z</time></trkpt>
        <trkpt lat="29.505294" lon="103.318219"><ele>2797.4045</ele><time>2026-02-19T19:21:25.000Z</time></trkpt>
        <trkpt lat="29.505291" lon="103.318161"><ele>2796.4082</ele><time>2026-02-19T19:21:38.000Z</time></trkpt>
        <trkpt lat="29.505279" lon="103.318111"><ele>2797.9531</ele><time>2026-02-19T19:21:51.000Z</time></trkpt>
        <trkpt lat="29.505298" lon="103.31806"><ele>2796.0505</ele><time>2026-02-19T19:22:11.000Z</time></trkpt>
        <trkpt lat="29.505283" lon="103.318013"><ele>2794.8804</ele><time>2026-02-19T19:22:24.000Z</time></trkpt>
        <trkpt lat="29.505288" lon="103.317963"><ele>2794.6304</ele><time>2026-02-19T19:22:33.000Z</time></trkpt>
        <trkpt lat="29.505283" lon="103.317907"><ele>2790.0796</ele><time>2026-02-19T19:22:54.000Z</time></trkpt>
        <trkpt lat="29.505264" lon="103.317852"><ele>2789.524</ele><time>2026-02-19T19:23:07.000Z</time></trkpt>
        <trkpt lat="29.505251" lon="103.317798"><ele>2789.5286</ele><time>2026-02-19T19:23:14.000Z</time></trkpt>
        <trkpt lat="29.50524" lon="103.317737"><ele>2788.2888</ele><time>2026-02-19T19:23:21.000Z</time></trkpt>
        <trkpt lat="29.505219" lon="103.317682"><ele>2783.795</ele><time>2026-02-19T19:23:37.000Z</time></trkpt>
        <trkpt lat="29.505205" lon="103.317636"><ele>2782.607</ele><time>2026-02-19T19:23:46.000Z</time></trkpt>
        <trkpt lat="29.505221" lon="103.317584"><ele>2779.6094</ele><time>2026-02-19T19:23:57.000Z</time></trkpt>
        <trkpt lat="29.505224" lon="103.317535"><ele>2779.0693</ele><time>2026-02-19T19:24:03.000Z</time></trkpt>
        <trkpt lat="29.505242" lon="103.317481"><ele>2780.1897</ele><time>2026-02-19T19:24:13.000Z</time></trkpt>
        <trkpt lat="29.505247" lon="103.317428"><ele>2779.0571</ele><time>2026-02-19T19:24:33.000Z</time></trkpt>
        <trkpt lat="29.505239" lon="103.317379"><ele>2777.4336</ele><time>2026-02-19T19:24:46.000Z</time></trkpt>
        <trkpt lat="29.505256" lon="103.317323"><ele>2774.359</ele><time>2026-02-19T19:25:01.000Z</time></trkpt>
        <trkpt lat="29.505282" lon="103.317279"><ele>2772.6343</ele><time>2026-02-19T19:25:13.000Z</time></trkpt>
        <trkpt lat="29.505309" lon="103.317231"><ele>2772.616</ele><time>2026-02-19T19:25:27.000Z</time></trkpt>
        <trkpt lat="29.505326" lon="103.317183"><ele>2772.1584</ele><time>2026-02-19T19:25:38.000Z</time></trkpt>
        <trkpt lat="29.505348" lon="103.317132"><ele>2768.8179</ele><time>2026-02-19T19:25:55.000Z</time></trkpt>
        <trkpt lat="29.505368" lon="103.317078"><ele>2767.9504</ele><time>2026-02-19T19:26:25.000Z</time></trkpt>
        <trkpt lat="29.505392" lon="103.317022"><ele>2765.7153</ele><time>2026-02-19T19:26:45.000Z</time></trkpt>
        <trkpt lat="29.505362" lon="103.316979"><ele>2766.5925</ele><time>2026-02-19T19:27:13.000Z</time></trkpt>
        <trkpt lat="29.50534" lon="103.316929"><ele>2765.926</ele><time>2026-02-19T19:27:25.000Z</time></trkpt>
        <trkpt lat="29.505325" lon="103.316873"><ele>2763.9148</ele><time>2026-02-19T19:27:33.000Z</time></trkpt>
        <trkpt lat="29.505313" lon="103.316819"><ele>2759.2195</ele><time>2026-02-19T19:27:49.000Z</time></trkpt>
        <trkpt lat="29.505337" lon="103.316777"><ele>2758.4731</ele><time>2026-02-19T19:28:07.000Z</time></trkpt>
        <trkpt lat="29.505337" lon="103.316723"><ele>2754.5942</ele><time>2026-02-19T19:28:37.000Z</time></trkpt>
        <trkpt lat="29.505309" lon="103.316684"><ele>2753.9019</ele><time>2026-02-19T19:28:46.000Z</time></trkpt>
        <trkpt lat="29.505288" lon="103.31663"><ele>2750.7576</ele><time>2026-02-19T19:29:00.000Z</time></trkpt>
        <trkpt lat="29.505271" lon="103.316578"><ele>2749.98</ele><time>2026-02-19T19:29:12.000Z</time></trkpt>
        <trkpt lat="29.505251" lon="103.316528"><ele>2745.5154</ele><time>2026-02-19T19:29:39.000Z</time></trkpt>
        <trkpt lat="29.505219" lon="103.316488"><ele>2745.8442</ele><time>2026-02-19T19:29:54.000Z</time></trkpt>
        <trkpt lat="29.505181" lon="103.316449"><ele>2744.9414</ele><time>2026-02-19T19:30:11.000Z</time></trkpt>
        <trkpt lat="29.505147" lon="103.316416"><ele>2744.3894</ele><time>2026-02-19T19:30:23.000Z</time></trkpt>
        <trkpt lat="29.505091" lon="103.31639"><ele>2742.4087</ele><time>2026-02-19T19:30:39.000Z</time></trkpt>
        <trkpt lat="29.505047" lon="103.316375"><ele>2740.5496</ele><time>2026-02-19T19:30:55.000Z</time></trkpt>
        <trkpt lat="29.505004" lon="103.316368"><ele>2740.058</ele><time>2026-02-19T19:31:04.000Z</time></trkpt>
        <trkpt lat="29.504953" lon="103.316368"><ele>2733.9717</ele><time>2026-02-19T19:31:31.000Z</time></trkpt>
        <trkpt lat="29.504916" lon="103.316347"><ele>2733.8599</ele><time>2026-02-19T19:31:40.000Z</time></trkpt>
        <trkpt lat="29.504873" lon="103.316312"><ele>2733.0156</ele><time>2026-02-19T19:31:51.000Z</time></trkpt>
        <trkpt lat="29.504831" lon="103.316293"><ele>2728.7708</ele><time>2026-02-19T19:32:10.000Z</time></trkpt>
        <trkpt lat="29.504788" lon="103.316269"><ele>2724.0518</ele><time>2026-02-19T19:32:53.000Z</time></trkpt>
        <trkpt lat="29.504756" lon="103.316232"><ele>2721.0974</ele><time>2026-02-19T19:33:07.000Z</time></trkpt>
        <trkpt lat="29.504718" lon="103.316203"><ele>2722.4778</ele><time>2026-02-19T19:33:17.000Z</time></trkpt>
        <trkpt lat="29.504675" lon="103.316186"><ele>2721.3467</ele><time>2026-02-19T19:33:24.000Z</time></trkpt>
        <trkpt lat="29.504629" lon="103.316161"><ele>2718.6523</ele><time>2026-02-19T19:33:34.000Z</time></trkpt>
        <trkpt lat="29.504586" lon="103.316129"><ele>2716.6848</ele><time>2026-02-19T19:33:44.000Z</time></trkpt>
        <trkpt lat="29.504551" lon="103.316092"><ele>2712.4534</ele><time>2026-02-19T19:34:05.000Z</time></trkpt>
        <trkpt lat="29.504532" lon="103.31605"><ele>2713.4019</ele><time>2026-02-19T19:34:14.000Z</time></trkpt>
        <trkpt lat="29.504508" lon="103.316002"><ele>2714.4402</ele><time>2026-02-19T19:34:24.000Z</time></trkpt>
        <trkpt lat="29.50448" lon="103.315956"><ele>2715.415</ele><time>2026-02-19T19:34:34.000Z</time></trkpt>
        <trkpt lat="29.504449" lon="103.315906"><ele>2713.9087</ele><time>2026-02-19T19:34:54.000Z</time></trkpt>
        <trkpt lat="29.504421" lon="103.315862"><ele>2716.2065</ele><time>2026-02-19T19:35:19.000Z</time></trkpt>
        <trkpt lat="29.504395" lon="103.31582"><ele>2717.9182</ele><time>2026-02-19T19:35:37.000Z</time></trkpt>
        <trkpt lat="29.504372" lon="103.315771"><ele>2723.166</ele><time>2026-02-19T19:36:01.000Z</time></trkpt>
        <trkpt lat="29.50435" lon="103.315721"><ele>2722.516</ele><time>2026-02-19T19:36:48.000Z</time></trkpt>
        <trkpt lat="29.504324" lon="103.315674"><ele>2722.8103</ele><time>2026-02-19T19:37:30.000Z</time></trkpt>
        <trkpt lat="29.504309" lon="103.315625"><ele>2726.6655</ele><time>2026-02-19T19:38:00.000Z</time></trkpt>
        <trkpt lat="29.5043" lon="103.315574"><ele>2725.0989</ele><time>2026-02-19T19:38:30.000Z</time></trkpt>
        <trkpt lat="29.504275" lon="103.315528"><ele>2723.8188</ele><time>2026-02-19T19:39:17.000Z</time></trkpt>
        <trkpt lat="29.504242" lon="103.315499"><ele>2724.0435</ele><time>2026-02-19T19:39:27.000Z</time></trkpt>
        <trkpt lat="29.504212" lon="103.315456"><ele>2726.5657</ele><time>2026-02-19T19:39:37.000Z</time></trkpt>
        <trkpt lat="29.504181" lon="103.315415"><ele>2726.5815</ele><time>2026-02-19T19:39:51.000Z</time></trkpt>
        <trkpt lat="29.504171" lon="103.315361"><ele>2726.015</ele><time>2026-02-19T19:40:04.000Z</time></trkpt>
        <trkpt lat="29.50416" lon="103.315309"><ele>2725.4438</ele><time>2026-02-19T19:40:14.000Z</time></trkpt>
        <trkpt lat="29.504134" lon="103.31526"><ele>2724.7566</ele><time>2026-02-19T19:40:21.000Z</time></trkpt>
        <trkpt lat="29.504097" lon="103.315226"><ele>2724.4258</ele><time>2026-02-19T19:40:27.000Z</time></trkpt>
        <trkpt lat="29.504066" lon="103.315181"><ele>2725.6008</ele><time>2026-02-19T19:40:33.000Z</time></trkpt>
        <trkpt lat="29.50402" lon="103.31515"><ele>2727.8982</ele><time>2026-02-19T19:40:40.000Z</time></trkpt>
        <trkpt lat="29.503978" lon="103.315129"><ele>2727.8704</ele><time>2026-02-19T19:40:46.000Z</time></trkpt>
        <trkpt lat="29.503939" lon="103.3151"><ele>2726.4165</ele><time>2026-02-19T19:40:53.000Z</time></trkpt>
        <trkpt lat="29.503901" lon="103.315067"><ele>2724.086</ele><time>2026-02-19T19:41:04.000Z</time></trkpt>
        <trkpt lat="29.503866" lon="103.315031"><ele>2719.6155</ele><time>2026-02-19T19:41:20.000Z</time></trkpt>
        <trkpt lat="29.503838" lon="103.314988"><ele>2720.585</ele><time>2026-02-19T19:41:32.000Z</time></trkpt>
        <trkpt lat="29.503792" lon="103.314981"><ele>2721.0095</ele><time>2026-02-19T19:41:45.000Z</time></trkpt>
        <trkpt lat="29.50375" lon="103.314973"><ele>2720.2988</ele><time>2026-02-19T19:41:52.000Z</time></trkpt>
        <trkpt lat="29.503706" lon="103.314947"><ele>2720.8296</ele><time>2026-02-19T19:42:07.000Z</time></trkpt>
        <trkpt lat="29.503667" lon="103.314937"><ele>2720.2092</ele><time>2026-02-19T19:42:13.000Z</time></trkpt>
        <trkpt lat="29.503631" lon="103.3149"><ele>2719.85</ele><time>2026-02-19T19:42:24.000Z</time></trkpt>
        <trkpt lat="29.503592" lon="103.314864"><ele>2715.3164</ele><time>2026-02-19T19:42:45.000Z</time></trkpt>
        <trkpt lat="29.503569" lon="103.314818"><ele>2713.955</ele><time>2026-02-19T19:43:04.000Z</time></trkpt>
        <trkpt lat="29.503564" lon="103.314766"><ele>2714.093</ele><time>2026-02-19T19:43:17.000Z</time></trkpt>
        <trkpt lat="29.50355" lon="103.314712"><ele>2713.7598</ele><time>2026-02-19T19:43:30.000Z</time></trkpt>
        <trkpt lat="29.503528" lon="103.314656"><ele>2712.9158</ele><time>2026-02-19T19:43:43.000Z</time></trkpt>
        <trkpt lat="29.503515" lon="103.3146"><ele>2712.6663</ele><time>2026-02-19T19:43:50.000Z</time></trkpt>
        <trkpt lat="29.503509" lon="103.314535"><ele>2713.1445</ele><time>2026-02-19T19:43:59.000Z</time></trkpt>
        <trkpt lat="29.503495" lon="103.314483"><ele>2714.3176</ele><time>2026-02-19T19:44:06.000Z</time></trkpt>
        <trkpt lat="29.503475" lon="103.314429"><ele>2714.1572</ele><time>2026-02-19T19:44:16.000Z</time></trkpt>
        <trkpt lat="29.503455" lon="103.314383"><ele>2712.8015</ele><time>2026-02-19T19:44:24.000Z</time></trkpt>
        <trkpt lat="29.503426" lon="103.314343"><ele>2712.3765</ele><time>2026-02-19T19:44:30.000Z</time></trkpt>
        <trkpt lat="29.503399" lon="103.31429"><ele>2711.0835</ele><time>2026-02-19T19:44:45.000Z</time></trkpt>
        <trkpt lat="29.503395" lon="103.314238"><ele>2709.1282</ele><time>2026-02-19T19:44:58.000Z</time></trkpt>
        <trkpt lat="29.503383" lon="103.314185"><ele>2709.2878</ele><time>2026-02-19T19:45:09.000Z</time></trkpt>
        <trkpt lat="29.503355" lon="103.31414"><ele>2706.5845</ele><time>2026-02-19T19:45:30.000Z</time></trkpt>
        <trkpt lat="29.503328" lon="103.314099"><ele>2707.375</ele><time>2026-02-19T19:45:40.000Z</time></trkpt>
        <trkpt lat="29.503312" lon="103.314045"><ele>2707.573</ele><time>2026-02-19T19:45:54.000Z</time></trkpt>
        <trkpt lat="29.503312" lon="103.313992"><ele>2704.0244</ele><time>2026-02-19T19:46:14.000Z</time></trkpt>
        <trkpt lat="29.503298" lon="103.313935"><ele>2703.3276</ele><time>2026-02-19T19:46:33.000Z</time></trkpt>
        <trkpt lat="29.503275" lon="103.31389"><ele>2704.6016</ele><time>2026-02-19T19:46:45.000Z</time></trkpt>
        <trkpt lat="29.50325" lon="103.313842"><ele>2701.8867</ele><time>2026-02-19T19:47:07.000Z</time></trkpt>
        <trkpt lat="29.503258" lon="103.313791"><ele>2697.6414</ele><time>2026-02-19T19:47:25.000Z</time></trkpt>
        <trkpt lat="29.503265" lon="103.313737"><ele>2694.5708</ele><time>2026-02-19T19:47:42.000Z</time></trkpt>
        <trkpt lat="29.503265" lon="103.313683"><ele>2695.3948</ele><time>2026-02-19T19:47:51.000Z</time></trkpt>
        <trkpt lat="29.503257" lon="103.313623"><ele>2695.5913</ele><time>2026-02-19T19:48:02.000Z</time></trkpt>
        <trkpt lat="29.503269" lon="103.31357"><ele>2692.0376</ele><time>2026-02-19T19:48:18.000Z</time></trkpt>
        <trkpt lat="29.503254" lon="103.313519"><ele>2692.3037</ele><time>2026-02-19T19:48:27.000Z</time></trkpt>
        <trkpt lat="29.503238" lon="103.313464"><ele>2692.0984</ele><time>2026-02-19T19:48:34.000Z</time></trkpt>
        <trkpt lat="29.503208" lon="103.313421"><ele>2688.7322</ele><time>2026-02-19T19:48:45.000Z</time></trkpt>
        <trkpt lat="29.503211" lon="103.313369"><ele>2685.772</ele><time>2026-02-19T19:48:53.000Z</time></trkpt>
        <trkpt lat="29.503218" lon="103.313314"><ele>2685.1848</ele><time>2026-02-19T19:48:59.000Z</time></trkpt>
        <trkpt lat="29.503216" lon="103.31325"><ele>2685.0413</ele><time>2026-02-19T19:49:08.000Z</time></trkpt>
        <trkpt lat="29.503197" lon="103.313199"><ele>2685.2146</ele><time>2026-02-19T19:49:15.000Z</time></trkpt>
        <trkpt lat="29.503157" lon="103.313162"><ele>2683.41</ele><time>2026-02-19T19:49:30.000Z</time></trkpt>
        <trkpt lat="29.503114" lon="103.313144"><ele>2681.102</ele><time>2026-02-19T19:49:36.000Z</time></trkpt>
        <trkpt lat="29.503069" lon="103.313116"><ele>2679.1045</ele><time>2026-02-19T19:49:44.000Z</time></trkpt>
        <trkpt lat="29.503023" lon="103.313117"><ele>2679.5737</ele><time>2026-02-19T19:49:52.000Z</time></trkpt>
        <trkpt lat="29.502974" lon="103.31312"><ele>2678.3271</ele><time>2026-02-19T19:50:03.000Z</time></trkpt>
        <trkpt lat="29.502933" lon="103.313096"><ele>2678.7556</ele><time>2026-02-19T19:50:13.000Z</time></trkpt>
        <trkpt lat="29.502889" lon="103.313095"><ele>2675.7021</ele><time>2026-02-19T19:50:23.000Z</time></trkpt>
        <trkpt lat="29.502858" lon="103.313058"><ele>2672.3337</ele><time>2026-02-19T19:50:37.000Z</time></trkpt>
        <trkpt lat="29.502857" lon="103.313001"><ele>2669.6228</ele><time>2026-02-19T19:50:49.000Z</time></trkpt>
        <trkpt lat="29.502841" lon="103.312947"><ele>2667.504</ele><time>2026-02-19T19:51:07.000Z</time></trkpt>
        <trkpt lat="29.502821" lon="103.3129"><ele>2666.032</ele><time>2026-02-19T19:51:15.000Z</time></trkpt>
        <trkpt lat="29.502817" lon="103.312842"><ele>2664.7866</ele><time>2026-02-19T19:51:27.000Z</time></trkpt>
        <trkpt lat="29.5028" lon="103.312792"><ele>2664.3254</ele><time>2026-02-19T19:51:40.000Z</time></trkpt>
        <trkpt lat="29.502786" lon="103.312744"><ele>2663.84</ele><time>2026-02-19T19:51:50.000Z</time></trkpt>
        <trkpt lat="29.502761" lon="103.312698"><ele>2665.4634</ele><time>2026-02-19T19:52:14.000Z</time></trkpt>
        <trkpt lat="29.502768" lon="103.312643"><ele>2665.3828</ele><time>2026-02-19T19:52:27.000Z</time></trkpt>
        <trkpt lat="29.50275" lon="103.312596"><ele>2663.2166</ele><time>2026-02-19T19:52:35.000Z</time></trkpt>
        <trkpt lat="29.50277" lon="103.312555"><ele>2662.5042</ele><time>2026-02-19T19:52:42.000Z</time></trkpt>
        <trkpt lat="29.502772" lon="103.312502"><ele>2660.2517</ele><time>2026-02-19T19:52:54.000Z</time></trkpt>
        <trkpt lat="29.502778" lon="103.312439"><ele>2660.6301</ele><time>2026-02-19T19:53:06.000Z</time></trkpt>
        <trkpt lat="29.502775" lon="103.312381"><ele>2658.95</ele><time>2026-02-19T19:53:16.000Z</time></trkpt>
        <trkpt lat="29.502777" lon="103.312313"><ele>2657.672</ele><time>2026-02-19T19:53:29.000Z</time></trkpt>
        <trkpt lat="29.502793" lon="103.312262"><ele>2656.1</ele><time>2026-02-19T19:53:47.000Z</time></trkpt>
        <trkpt lat="29.502822" lon="103.312236"><ele>2655.64</ele><time>2026-02-19T19:53:52.000Z</time></trkpt>
        <trkpt lat="29.502858" lon="103.312189"><ele>2654.3325</ele><time>2026-02-19T19:54:03.000Z</time></trkpt>
        <trkpt lat="29.502879" lon="103.312136"><ele>2652.9229</ele><time>2026-02-19T19:54:17.000Z</time></trkpt>
        <trkpt lat="29.502905" lon="103.312087"><ele>2650.879</ele><time>2026-02-19T19:54:30.000Z</time></trkpt>
        <trkpt lat="29.502896" lon="103.312028"><ele>2646.1357</ele><time>2026-02-19T19:55:09.000Z</time></trkpt>
        <trkpt lat="29.5029" lon="103.311977"><ele>2645.249</ele><time>2026-02-19T19:55:22.000Z</time></trkpt>
        <trkpt lat="29.502882" lon="103.311925"><ele>2643.4966</ele><time>2026-02-19T19:55:33.000Z</time></trkpt>
        <trkpt lat="29.502892" lon="103.311874"><ele>2639.437</ele><time>2026-02-19T19:55:45.000Z</time></trkpt>
        <trkpt lat="29.5029" lon="103.311818"><ele>2633.2563</ele><time>2026-02-19T19:56:16.000Z</time></trkpt>
        <trkpt lat="29.502898" lon="103.311773"><ele>2632.5486</ele><time>2026-02-19T19:56:25.000Z</time></trkpt>
        <trkpt lat="29.502901" lon="103.311715"><ele>2631.9805</ele><time>2026-02-19T19:56:34.000Z</time></trkpt>
        <trkpt lat="29.502927" lon="103.311669"><ele>2628.1765</ele><time>2026-02-19T19:56:51.000Z</time></trkpt>
        <trkpt lat="29.502945" lon="103.311614"><ele>2626.7075</ele><time>2026-02-19T19:57:17.000Z</time></trkpt>
        <trkpt lat="29.502953" lon="103.311562"><ele>2625.9636</ele><time>2026-02-19T19:57:26.000Z</time></trkpt>
        <trkpt lat="29.502968" lon="103.311501"><ele>2621.1514</ele><time>2026-02-19T19:57:44.000Z</time></trkpt>
        <trkpt lat="29.502991" lon="103.311458"><ele>2621.3066</ele><time>2026-02-19T19:57:52.000Z</time></trkpt>
        <trkpt lat="29.50302" lon="103.311414"><ele>2620.0344</ele><time>2026-02-19T19:57:59.000Z</time></trkpt>
        <trkpt lat="29.503036" lon="103.311353"><ele>2616.8438</ele><time>2026-02-19T19:58:11.000Z</time></trkpt>
        <trkpt lat="29.503056" lon="103.311307"><ele>2611.9084</ele><time>2026-02-19T19:58:24.000Z</time></trkpt>
        <trkpt lat="29.503078" lon="103.311254"><ele>2608.4922</ele><time>2026-02-19T19:58:36.000Z</time></trkpt>
        <trkpt lat="29.503099" lon="103.311198"><ele>2607.8674</ele><time>2026-02-19T19:58:48.000Z</time></trkpt>
        <trkpt lat="29.50311" lon="103.311145"><ele>2606.0657</ele><time>2026-02-19T19:58:59.000Z</time></trkpt>
        <trkpt lat="29.503136" lon="103.311095"><ele>2605.8767</ele><time>2026-02-19T19:59:06.000Z</time></trkpt>
        <trkpt lat="29.503154" lon="103.31104"><ele>2600.6472</ele><time>2026-02-19T19:59:20.000Z</time></trkpt>
        <trkpt lat="29.503191" lon="103.311015"><ele>2598.4363</ele><time>2026-02-19T19:59:28.000Z</time></trkpt>
        <trkpt lat="29.503232" lon="103.310991"><ele>2597.7214</ele><time>2026-02-19T19:59:33.000Z</time></trkpt>
        <trkpt lat="29.503275" lon="103.310957"><ele>2597.2417</ele><time>2026-02-19T19:59:41.000Z</time></trkpt>
        <trkpt lat="29.503308" lon="103.310915"><ele>2591.7656</ele><time>2026-02-19T20:00:01.000Z</time></trkpt>
        <trkpt lat="29.503343" lon="103.31088"><ele>2590.5535</ele><time>2026-02-19T20:00:14.000Z</time></trkpt>
        <trkpt lat="29.503393" lon="103.310872"><ele>2587.8528</ele><time>2026-02-19T20:00:24.000Z</time></trkpt>
        <trkpt lat="29.503434" lon="103.31084"><ele>2582.8242</ele><time>2026-02-19T20:00:38.000Z</time></trkpt>
        <trkpt lat="29.503476" lon="103.310811"><ele>2579.5518</ele><time>2026-02-19T20:00:49.000Z</time></trkpt>
        <trkpt lat="29.503496" lon="103.310759"><ele>2577.7695</ele><time>2026-02-19T20:01:04.000Z</time></trkpt>
        <trkpt lat="29.503516" lon="103.310707"><ele>2575.4814</ele><time>2026-02-19T20:01:15.000Z</time></trkpt>
        <trkpt lat="29.503539" lon="103.310658"><ele>2569.5867</ele><time>2026-02-19T20:01:30.000Z</time></trkpt>
        <trkpt lat="29.503543" lon="103.310614"><ele>2568.5007</ele><time>2026-02-19T20:01:36.000Z</time></trkpt>
        <trkpt lat="29.503513" lon="103.310557"><ele>2570.178</ele><time>2026-02-19T20:02:41.000Z</time></trkpt>
        <trkpt lat="29.503519" lon="103.31051"><ele>2566.7307</ele><time>2026-02-19T20:02:53.000Z</time></trkpt>
        <trkpt lat="29.503508" lon="103.310454"><ele>2567.0354</ele><time>2026-02-19T20:03:01.000Z</time></trkpt>
        <trkpt lat="29.503482" lon="103.310409"><ele>2567.9524</ele><time>2026-02-19T20:03:07.000Z</time></trkpt>
        <trkpt lat="29.503446" lon="103.310373"><ele>2568.593</ele><time>2026-02-19T20:03:14.000Z</time></trkpt>
        <trkpt lat="29.503419" lon="103.310328"><ele>2569.5002</ele><time>2026-02-19T20:03:23.000Z</time></trkpt>
        <trkpt lat="29.503387" lon="103.310291"><ele>2568.665</ele><time>2026-02-19T20:03:31.000Z</time></trkpt>
        <trkpt lat="29.503359" lon="103.310236"><ele>2566.8328</ele><time>2026-02-19T20:03:40.000Z</time></trkpt>
        <trkpt lat="29.503354" lon="103.310182"><ele>2566.8818</ele><time>2026-02-19T20:03:51.000Z</time></trkpt>
        <trkpt lat="29.50337" lon="103.310132"><ele>2564.9993</ele><time>2026-02-19T20:03:58.000Z</time></trkpt>
        <trkpt lat="29.5034" lon="103.310086"><ele>2561.7185</ele><time>2026-02-19T20:04:08.000Z</time></trkpt>
        <trkpt lat="29.503409" lon="103.310032"><ele>2559.2966</ele><time>2026-02-19T20:04:18.000Z</time></trkpt>
        <trkpt lat="29.503393" lon="103.309986"><ele>2557.903</ele><time>2026-02-19T20:04:24.000Z</time></trkpt>
        <trkpt lat="29.503386" lon="103.309928"><ele>2560.1255</ele><time>2026-02-19T20:04:54.000Z</time></trkpt>
        <trkpt lat="29.503353" lon="103.309877"><ele>2568.5713</ele><time>2026-02-19T20:07:38.000Z</time></trkpt>
        <trkpt lat="29.503367" lon="103.309827"><ele>2558.4</ele><time>2026-02-19T20:09:27.000Z</time></trkpt>
        <trkpt lat="29.503406" lon="103.309808"><ele>2555.7925</ele><time>2026-02-19T20:09:37.000Z</time></trkpt>
        <trkpt lat="29.503445" lon="103.309774"><ele>2554.5735</ele><time>2026-02-19T20:09:47.000Z</time></trkpt>
        <trkpt lat="29.503452" lon="103.309721"><ele>2548.9805</ele><time>2026-02-19T20:10:08.000Z</time></trkpt>
        <trkpt lat="29.503486" lon="103.309685"><ele>2548.2478</ele><time>2026-02-19T20:10:19.000Z</time></trkpt>
        <trkpt lat="29.503524" lon="103.309649"><ele>2546.75</ele><time>2026-02-19T20:10:33.000Z</time></trkpt>
        <trkpt lat="29.503532" lon="103.309597"><ele>2544.719</ele><time>2026-02-19T20:10:45.000Z</time></trkpt>
        <trkpt lat="29.503534" lon="103.309544"><ele>2543.7947</ele><time>2026-02-19T20:10:57.000Z</time></trkpt>
        <trkpt lat="29.503535" lon="103.309491"><ele>2539.4216</ele><time>2026-02-19T20:11:13.000Z</time></trkpt>
        <trkpt lat="29.503541" lon="103.309434"><ele>2538.4277</ele><time>2026-02-19T20:11:25.000Z</time></trkpt>
        <trkpt lat="29.503556" lon="103.309383"><ele>2536.3284</ele><time>2026-02-19T20:11:37.000Z</time></trkpt>
        <trkpt lat="29.503557" lon="103.309331"><ele>2534.2722</ele><time>2026-02-19T20:11:46.000Z</time></trkpt>
        <trkpt lat="29.503554" lon="103.309272"><ele>2532.946</ele><time>2026-02-19T20:11:56.000Z</time></trkpt>
        <trkpt lat="29.503562" lon="103.309215"><ele>2531.539</ele><time>2026-02-19T20:12:16.000Z</time></trkpt>
        <trkpt lat="29.503573" lon="103.309166"><ele>2527.9065</ele><time>2026-02-19T20:12:30.000Z</time></trkpt>
        <trkpt lat="29.503588" lon="103.309115"><ele>2528.9026</ele><time>2026-02-19T20:12:44.000Z</time></trkpt>
        <trkpt lat="29.503585" lon="103.309057"><ele>2526.741</ele><time>2026-02-19T20:13:07.000Z</time></trkpt>
        <trkpt lat="29.503585" lon="103.309004"><ele>2525.214</ele><time>2026-02-19T20:13:21.000Z</time></trkpt>
        <trkpt lat="29.503592" lon="103.308948"><ele>2521.983</ele><time>2026-02-19T20:13:32.000Z</time></trkpt>
        <trkpt lat="29.50359" lon="103.308894"><ele>2520.8564</ele><time>2026-02-19T20:13:43.000Z</time></trkpt>
        <trkpt lat="29.503588" lon="103.308839"><ele>2518.493</ele><time>2026-02-19T20:14:00.000Z</time></trkpt>
        <trkpt lat="29.5036" lon="103.308792"><ele>2516.049</ele><time>2026-02-19T20:14:08.000Z</time></trkpt>
        <trkpt lat="29.503588" lon="103.308738"><ele>2516.899</ele><time>2026-02-19T20:14:15.000Z</time></trkpt>
        <trkpt lat="29.503564" lon="103.308683"><ele>2516.2407</ele><time>2026-02-19T20:14:25.000Z</time></trkpt>
        <trkpt lat="29.503555" lon="103.308627"><ele>2511.9968</ele><time>2026-02-19T20:14:37.000Z</time></trkpt>
        <trkpt lat="29.50353" lon="103.308578"><ele>2509.6423</ele><time>2026-02-19T20:14:49.000Z</time></trkpt>
        <trkpt lat="29.503483" lon="103.308582"><ele>2509.5752</ele><time>2026-02-19T20:15:08.000Z</time></trkpt>
        <trkpt lat="29.503477" lon="103.308532"><ele>2509.9062</ele><time>2026-02-19T20:15:23.000Z</time></trkpt>
        <trkpt lat="29.503482" lon="103.308477"><ele>2505.216</ele><time>2026-02-19T20:15:36.000Z</time></trkpt>
        <trkpt lat="29.503506" lon="103.308433"><ele>2503.9385</ele><time>2026-02-19T20:15:47.000Z</time></trkpt>
        <trkpt lat="29.503514" lon="103.308376"><ele>2499.1252</ele><time>2026-02-19T20:16:25.000Z</time></trkpt>
        <trkpt lat="29.503532" lon="103.308331"><ele>2498.1792</ele><time>2026-02-19T20:16:38.000Z</time></trkpt>
        <trkpt lat="29.503575" lon="103.308305"><ele>2497.3684</ele><time>2026-02-19T20:16:50.000Z</time></trkpt>
        <trkpt lat="29.503623" lon="103.308296"><ele>2493.152</ele><time>2026-02-19T20:17:08.000Z</time></trkpt>
        <trkpt lat="29.50366" lon="103.30827"><ele>2490.405</ele><time>2026-02-19T20:17:19.000Z</time></trkpt>
        <trkpt lat="29.503669" lon="103.308218"><ele>2488.8762</ele><time>2026-02-19T20:17:29.000Z</time></trkpt>
        <trkpt lat="29.50369" lon="103.30817"><ele>2486.001</ele><time>2026-02-19T20:17:39.000Z</time></trkpt>
        <trkpt lat="29.503716" lon="103.308122"><ele>2483.542</ele><time>2026-02-19T20:17:49.000Z</time></trkpt>
        <trkpt lat="29.503741" lon="103.308064"><ele>2481.6638</ele><time>2026-02-19T20:18:02.000Z</time></trkpt>
        <trkpt lat="29.503778" lon="103.308032"><ele>2479.9065</ele><time>2026-02-19T20:18:11.000Z</time></trkpt>
        <trkpt lat="29.503788" lon="103.30798"><ele>2477.085</ele><time>2026-02-19T20:18:23.000Z</time></trkpt>
        <trkpt lat="29.503803" lon="103.307931"><ele>2475.3804</ele><time>2026-02-19T20:18:35.000Z</time></trkpt>
        <trkpt lat="29.503801" lon="103.307877"><ele>2470.6519</ele><time>2026-02-19T20:18:52.000Z</time></trkpt>
        <trkpt lat="29.503812" lon="103.307817"><ele>2469.5627</ele><time>2026-02-19T20:19:05.000Z</time></trkpt>
        <trkpt lat="29.503814" lon="103.307758"><ele>2467.7454</ele><time>2026-02-19T20:19:17.000Z</time></trkpt>
        <trkpt lat="29.503823" lon="103.307704"><ele>2465.8088</ele><time>2026-02-19T20:19:27.000Z</time></trkpt>
        <trkpt lat="29.503805" lon="103.307655"><ele>2462.7444</ele><time>2026-02-19T20:19:41.000Z</time></trkpt>
        <trkpt lat="29.503804" lon="103.307603"><ele>2459.6091</ele><time>2026-02-19T20:19:52.000Z</time></trkpt>
        <trkpt lat="29.503853" lon="103.307597"><ele>2458.504</ele><time>2026-02-19T20:20:20.000Z</time></trkpt>
        <trkpt lat="29.503858" lon="103.307548"><ele>2455.2083</ele><time>2026-02-19T20:20:34.000Z</time></trkpt>
        <trkpt lat="29.503895" lon="103.307518"><ele>2452.5217</ele><time>2026-02-19T20:20:48.000Z</time></trkpt>
        <trkpt lat="29.503926" lon="103.307477"><ele>2449.4514</ele><time>2026-02-19T20:21:04.000Z</time></trkpt>
        <trkpt lat="29.503961" lon="103.307442"><ele>2445.6091</ele><time>2026-02-19T20:21:32.000Z</time></trkpt>
        <trkpt lat="29.503998" lon="103.307411"><ele>2443.643</ele><time>2026-02-19T20:21:45.000Z</time></trkpt>
        <trkpt lat="29.504014" lon="103.307359"><ele>2438.6958</ele><time>2026-02-19T20:21:58.000Z</time></trkpt>
        <trkpt lat="29.504031" lon="103.30731"><ele>2436.1643</ele><time>2026-02-19T20:22:09.000Z</time></trkpt>
        <trkpt lat="29.50406" lon="103.307267"><ele>2435.2007</ele><time>2026-02-19T20:23:24.000Z</time></trkpt>
        <trkpt lat="29.504077" lon="103.307219"><ele>2430.6475</ele><time>2026-02-19T20:23:48.000Z</time></trkpt>
        <trkpt lat="29.504093" lon="103.307163"><ele>2428.14</ele><time>2026-02-19T20:23:59.000Z</time></trkpt>
        <trkpt lat="29.504088" lon="103.307112"><ele>2426.3591</ele><time>2026-02-19T20:24:11.000Z</time></trkpt>
        <trkpt lat="29.504112" lon="103.307069"><ele>2424.7883</ele><time>2026-02-19T20:24:26.000Z</time></trkpt>
        <trkpt lat="29.504126" lon="103.307016"><ele>2421.5327</ele><time>2026-02-19T20:24:39.000Z</time></trkpt>
        <trkpt lat="29.504142" lon="103.306968"><ele>2421.0996</ele><time>2026-02-19T20:24:46.000Z</time></trkpt>
        <trkpt lat="29.504163" lon="103.306915"><ele>2418.9375</ele><time>2026-02-19T20:24:59.000Z</time></trkpt>
        <trkpt lat="29.504198" lon="103.306874"><ele>2415.4211</ele><time>2026-02-19T20:25:16.000Z</time></trkpt>
        <trkpt lat="29.504223" lon="103.306836"><ele>2413.6753</ele><time>2026-02-19T20:25:23.000Z</time></trkpt>
        <trkpt lat="29.504238" lon="103.306779"><ele>2413.2417</ele><time>2026-02-19T20:25:56.000Z</time></trkpt>
        <trkpt lat="29.504274" lon="103.306752"><ele>2408.9434</ele><time>2026-02-19T20:26:10.000Z</time></trkpt>
        <trkpt lat="29.504302" lon="103.306707"><ele>2405.4902</ele><time>2026-02-19T20:26:24.000Z</time></trkpt>
        <trkpt lat="29.504334" lon="103.306672"><ele>2404.9229</ele><time>2026-02-19T20:26:37.000Z</time></trkpt>
        <trkpt lat="29.504352" lon="103.306623"><ele>2402.7449</ele><time>2026-02-19T20:26:49.000Z</time></trkpt>
        <trkpt lat="29.504358" lon="103.306572"><ele>2402.6477</ele><time>2026-02-19T20:26:56.000Z</time></trkpt>
        <trkpt lat="29.504403" lon="103.306554"><ele>2397.4592</ele><time>2026-02-19T20:27:27.000Z</time></trkpt>
        <trkpt lat="29.504444" lon="103.306532"><ele>2393.8767</ele><time>2026-02-19T20:27:41.000Z</time></trkpt>
        <trkpt lat="29.504469" lon="103.306479"><ele>2392.6707</ele><time>2026-02-19T20:28:05.000Z</time></trkpt>
        <trkpt lat="29.504503" lon="103.306456"><ele>2390.8352</ele><time>2026-02-19T20:28:12.000Z</time></trkpt>
        <trkpt lat="29.504553" lon="103.306438"><ele>2388.6226</ele><time>2026-02-19T20:28:23.000Z</time></trkpt>
        <trkpt lat="29.50458" lon="103.306395"><ele>2387.295</ele><time>2026-02-19T20:28:41.000Z</time></trkpt>
        <trkpt lat="29.504585" lon="103.306341"><ele>2384.7798</ele><time>2026-02-19T20:28:54.000Z</time></trkpt>
        <trkpt lat="29.504616" lon="103.306298"><ele>2381.5635</ele><time>2026-02-19T20:29:07.000Z</time></trkpt>
        <trkpt lat="29.504627" lon="103.306246"><ele>2379.948</ele><time>2026-02-19T20:29:16.000Z</time></trkpt>
        <trkpt lat="29.504648" lon="103.306195"><ele>2377.8428</ele><time>2026-02-19T20:29:25.000Z</time></trkpt>
        <trkpt lat="29.504678" lon="103.306151"><ele>2377.1826</ele><time>2026-02-19T20:29:41.000Z</time></trkpt>
        <trkpt lat="29.504679" lon="103.306096"><ele>2378.3564</ele><time>2026-02-19T20:29:52.000Z</time></trkpt>
        <trkpt lat="29.504693" lon="103.306043"><ele>2377.1912</ele><time>2026-02-19T20:30:06.000Z</time></trkpt>
        <trkpt lat="29.504695" lon="103.305988"><ele>2372.6406</ele><time>2026-02-19T20:30:21.000Z</time></trkpt>
        <trkpt lat="29.504684" lon="103.305937"><ele>2371.8557</ele><time>2026-02-19T20:30:40.000Z</time></trkpt>
        <trkpt lat="29.504688" lon="103.305877"><ele>2366.5156</ele><time>2026-02-19T20:31:09.000Z</time></trkpt>
        <trkpt lat="29.504679" lon="103.305836"><ele>2366.821</ele><time>2026-02-19T20:31:14.000Z</time></trkpt>
        <trkpt lat="29.504678" lon="103.305766"><ele>2366.2874</ele><time>2026-02-19T20:31:24.000Z</time></trkpt>
        <trkpt lat="29.50469" lon="103.305711"><ele>2365.401</ele><time>2026-02-19T20:31:37.000Z</time></trkpt>
        <trkpt lat="29.50472" lon="103.305673"><ele>2366.3105</ele><time>2026-02-19T20:31:46.000Z</time></trkpt>
        <trkpt lat="29.504731" lon="103.305619"><ele>2367.2212</ele><time>2026-02-19T20:31:54.000Z</time></trkpt>
        <trkpt lat="29.504759" lon="103.305586"><ele>2366.7312</ele><time>2026-02-19T20:32:00.000Z</time></trkpt>
        <trkpt lat="29.504796" lon="103.305547"><ele>2366.9119</ele><time>2026-02-19T20:32:05.000Z</time></trkpt>
        <trkpt lat="29.504807" lon="103.305486"><ele>2367.8406</ele><time>2026-02-19T20:32:12.000Z</time></trkpt>
        <trkpt lat="29.504795" lon="103.305423"><ele>2364.142</ele><time>2026-02-19T20:32:21.000Z</time></trkpt>
        <trkpt lat="29.504803" lon="103.305373"><ele>2362.5066</ele><time>2026-02-19T20:32:29.000Z</time></trkpt>
        <trkpt lat="29.504818" lon="103.305325"><ele>2361.1677</ele><time>2026-02-19T20:32:35.000Z</time></trkpt>
        <trkpt lat="29.504856" lon="103.305289"><ele>2361.711</ele><time>2026-02-19T20:32:40.000Z</time></trkpt>
        <trkpt lat="29.504903" lon="103.305255"><ele>2363.0813</ele><time>2026-02-19T20:32:48.000Z</time></trkpt>
        <trkpt lat="29.504943" lon="103.305221"><ele>2363.5583</ele><time>2026-02-19T20:32:53.000Z</time></trkpt>
        <trkpt lat="29.50498" lon="103.30518"><ele>2362.2854</ele><time>2026-02-19T20:32:59.000Z</time></trkpt>
        <trkpt lat="29.505007" lon="103.30513"><ele>2360.0227</ele><time>2026-02-19T20:33:11.000Z</time></trkpt>
        <trkpt lat="29.504963" lon="103.305109"><ele>2360.7349</ele><time>2026-02-19T20:34:05.000Z</time></trkpt>
        <trkpt lat="29.505009" lon="103.305092"><ele>2361.937</ele><time>2026-02-19T20:35:01.000Z</time></trkpt>
        <trkpt lat="29.505039" lon="103.30505"><ele>2361.1824</ele><time>2026-02-19T20:35:34.000Z</time></trkpt>
        <trkpt lat="29.505053" lon="103.305"><ele>2361.2463</ele><time>2026-02-19T20:35:46.000Z</time></trkpt>
        <trkpt lat="29.505057" lon="103.304945"><ele>2361.7747</ele><time>2026-02-19T20:35:54.000Z</time></trkpt>
        <trkpt lat="29.505044" lon="103.304893"><ele>2361.7026</ele><time>2026-02-19T20:36:05.000Z</time></trkpt>
        <trkpt lat="29.505017" lon="103.30485"><ele>2363.196</ele><time>2026-02-19T20:36:14.000Z</time></trkpt>
        <trkpt lat="29.505003" lon="103.304794"><ele>2365.0662</ele><time>2026-02-19T20:36:21.000Z</time></trkpt>
        <trkpt lat="29.505046" lon="103.30478"><ele>2362.6436</ele><time>2026-02-19T20:36:28.000Z</time></trkpt>
        <trkpt lat="29.505049" lon="103.304733"><ele>2363.0642</ele><time>2026-02-19T20:36:31.000Z</time></trkpt>
        <trkpt lat="29.505016" lon="103.30467"><ele>2358.5845</ele><time>2026-02-19T20:36:49.000Z</time></trkpt>
        <trkpt lat="29.505003" lon="103.304632"><ele>2358.9548</ele><time>2026-02-19T20:36:53.000Z</time></trkpt>
        <trkpt lat="29.504989" lon="103.30457"><ele>2358.0938</ele><time>2026-02-19T20:36:58.000Z</time></trkpt>
        <trkpt lat="29.505013" lon="103.304512"><ele>2351.6196</ele><time>2026-02-19T20:40:51.000Z</time></trkpt>
        <trkpt lat="29.505045" lon="103.3045"><ele>2352.0483</ele><time>2026-02-19T20:40:57.000Z</time></trkpt>
        <trkpt lat="29.505086" lon="103.304463"><ele>2354.0974</ele><time>2026-02-19T20:41:03.000Z</time></trkpt>
        <trkpt lat="29.505127" lon="103.304433"><ele>2353.9277</ele><time>2026-02-19T20:41:08.000Z</time></trkpt>
        <trkpt lat="29.505169" lon="103.304395"><ele>2354.5298</ele><time>2026-02-19T20:41:13.000Z</time></trkpt>
        <trkpt lat="29.505208" lon="103.304354"><ele>2352.228</ele><time>2026-02-19T20:41:20.000Z</time></trkpt>
        <trkpt lat="29.505241" lon="103.304313"><ele>2351.0254</ele><time>2026-02-19T20:41:25.000Z</time></trkpt>
        <trkpt lat="29.505269" lon="103.304263"><ele>2350.488</ele><time>2026-02-19T20:41:30.000Z</time></trkpt>
        <trkpt lat="29.505298" lon="103.3042"><ele>2350.4055</ele><time>2026-02-19T20:41:38.000Z</time></trkpt>
        <trkpt lat="29.505306" lon="103.30415"><ele>2350.6033</ele><time>2026-02-19T20:41:44.000Z</time></trkpt>
        <trkpt lat="29.505325" lon="103.304101"><ele>2348.7048</ele><time>2026-02-19T20:41:50.000Z</time></trkpt>
        <trkpt lat="29.505345" lon="103.304048"><ele>2348.139</ele><time>2026-02-19T20:41:55.000Z</time></trkpt>
        <trkpt lat="29.505358" lon="103.303996"><ele>2347.8562</ele><time>2026-02-19T20:42:00.000Z</time></trkpt>
        <trkpt lat="29.505382" lon="103.303941"><ele>2346.129</ele><time>2026-02-19T20:42:06.000Z</time></trkpt>
        <trkpt lat="29.505412" lon="103.303896"><ele>2344.4546</ele><time>2026-02-19T20:42:12.000Z</time></trkpt>
        <trkpt lat="29.50545" lon="103.303849"><ele>2344.8247</ele><time>2026-02-19T20:42:21.000Z</time></trkpt>
        <trkpt lat="29.505465" lon="103.3038"><ele>2345.3057</ele><time>2026-02-19T20:42:34.000Z</time></trkpt>
        <trkpt lat="29.505471" lon="103.303752"><ele>2344.129</ele><time>2026-02-19T20:42:40.000Z</time></trkpt>
        <trkpt lat="29.505463" lon="103.303697"><ele>2340.403</ele><time>2026-02-19T20:42:46.000Z</time></trkpt>
        <trkpt lat="29.505426" lon="103.303658"><ele>2337.6409</ele><time>2026-02-19T20:42:53.000Z</time></trkpt>
        <trkpt lat="29.505389" lon="103.303634"><ele>2338.3188</ele><time>2026-02-19T20:42:57.000Z</time></trkpt>
        <trkpt lat="29.505339" lon="103.303607"><ele>2339.208</ele><time>2026-02-19T20:43:02.000Z</time></trkpt>
        <trkpt lat="29.505291" lon="103.303577"><ele>2338.046</ele><time>2026-02-19T20:43:08.000Z</time></trkpt>
        <trkpt lat="29.505251" lon="103.303542"><ele>2336.0513</ele><time>2026-02-19T20:43:15.000Z</time></trkpt>
        <trkpt lat="29.505215" lon="103.30352"><ele>2335.4167</ele><time>2026-02-19T20:43:20.000Z</time></trkpt>
        <trkpt lat="29.505197" lon="103.303475"><ele>2333.4954</ele><time>2026-02-19T20:43:25.000Z</time></trkpt>
        <trkpt lat="29.50519" lon="103.303429"><ele>2333.9495</ele><time>2026-02-19T20:43:28.000Z</time></trkpt>
        <trkpt lat="29.50518" lon="103.303366"><ele>2333.7178</ele><time>2026-02-19T20:43:34.000Z</time></trkpt>
        <trkpt lat="29.505178" lon="103.303318"><ele>2333.088</ele><time>2026-02-19T20:43:38.000Z</time></trkpt>
        <trkpt lat="29.505179" lon="103.303259"><ele>2331.956</ele><time>2026-02-19T20:43:43.000Z</time></trkpt>
        <trkpt lat="29.505175" lon="103.303196"><ele>2330.7043</ele><time>2026-02-19T20:43:50.000Z</time></trkpt>
        <trkpt lat="29.505155" lon="103.303151"><ele>2330.0688</ele><time>2026-02-19T20:43:56.000Z</time></trkpt>
        <trkpt lat="29.505116" lon="103.303123"><ele>2327.9092</ele><time>2026-02-19T20:44:02.000Z</time></trkpt>
        <trkpt lat="29.505077" lon="103.303099"><ele>2327.79</ele><time>2026-02-19T20:44:06.000Z</time></trkpt>
        <trkpt lat="29.505025" lon="103.303086"><ele>2327.0442</ele><time>2026-02-19T20:44:11.000Z</time></trkpt>
        <trkpt lat="29.504979" lon="103.303104"><ele>2325.9407</ele><time>2026-02-19T20:44:16.000Z</time></trkpt>
        <trkpt lat="29.504926" lon="103.303127"><ele>2324.2388</ele><time>2026-02-19T20:44:22.000Z</time></trkpt>
        <trkpt lat="29.504879" lon="103.303144"><ele>2323.21</ele><time>2026-02-19T20:44:28.000Z</time></trkpt>
        <trkpt lat="29.504839" lon="103.303159"><ele>2323.2712</ele><time>2026-02-19T20:44:33.000Z</time></trkpt>
        <trkpt lat="29.504798" lon="103.30319"><ele>2321.9705</ele><time>2026-02-19T20:44:38.000Z</time></trkpt>
        <trkpt lat="29.504743" lon="103.303206"><ele>2321.366</ele><time>2026-02-19T20:44:44.000Z</time></trkpt>
        <trkpt lat="29.5047" lon="103.303223"><ele>2321.1653</ele><time>2026-02-19T20:44:49.000Z</time></trkpt>
        <trkpt lat="29.504646" lon="103.30324"><ele>2320.462</ele><time>2026-02-19T20:44:57.000Z</time></trkpt>
        <trkpt lat="29.504606" lon="103.303259"><ele>2318.9265</ele><time>2026-02-19T20:45:03.000Z</time></trkpt>
        <trkpt lat="29.50456" lon="103.303277"><ele>2316.3455</ele><time>2026-02-19T20:45:10.000Z</time></trkpt>
        <trkpt lat="29.504513" lon="103.303305"><ele>2315.0605</ele><time>2026-02-19T20:45:16.000Z</time></trkpt>
        <trkpt lat="29.504466" lon="103.303301"><ele>2313.4875</ele><time>2026-02-19T20:45:22.000Z</time></trkpt>
        <trkpt lat="29.504436" lon="103.303266"><ele>2313.3594</ele><time>2026-02-19T20:45:26.000Z</time></trkpt>
        <trkpt lat="29.50443" lon="103.30322"><ele>2313.6545</ele><time>2026-02-19T20:45:29.000Z</time></trkpt>
        <trkpt lat="29.504422" lon="103.303158"><ele>2314.5881</ele><time>2026-02-19T20:45:33.000Z</time></trkpt>
        <trkpt lat="29.504431" lon="103.303099"><ele>2313.1992</ele><time>2026-02-19T20:45:37.000Z</time></trkpt>
        <trkpt lat="29.504459" lon="103.303042"><ele>2310.52</ele><time>2026-02-19T20:45:43.000Z</time></trkpt>
        <trkpt lat="29.504497" lon="103.302992"><ele>2307.3394</ele><time>2026-02-19T20:45:51.000Z</time></trkpt>
        <trkpt lat="29.504522" lon="103.302943"><ele>2304.6199</ele><time>2026-02-19T20:45:57.000Z</time></trkpt>
        <trkpt lat="29.504545" lon="103.302896"><ele>2304.9653</ele><time>2026-02-19T20:46:00.000Z</time></trkpt>
        <trkpt lat="29.504574" lon="103.302829"><ele>2305.603</ele><time>2026-02-19T20:46:05.000Z</time></trkpt>
        <trkpt lat="29.504604" lon="103.302774"><ele>2305.3677</ele><time>2026-02-19T20:46:10.000Z</time></trkpt>
        <trkpt lat="29.504633" lon="103.302719"><ele>2304.1458</ele><time>2026-02-19T20:46:15.000Z</time></trkpt>
        <trkpt lat="29.504667" lon="103.302672"><ele>2304.1716</ele><time>2026-02-19T20:46:20.000Z</time></trkpt>
        <trkpt lat="29.504695" lon="103.302625"><ele>2303.0645</ele><time>2026-02-19T20:46:25.000Z</time></trkpt>
        <trkpt lat="29.504702" lon="103.302568"><ele>2302.443</ele><time>2026-02-19T20:46:30.000Z</time></trkpt>
        <trkpt lat="29.504699" lon="103.302514"><ele>2302.3638</ele><time>2026-02-19T20:46:34.000Z</time></trkpt>
        <trkpt lat="29.504692" lon="103.302451"><ele>2303.7017</ele><time>2026-02-19T20:46:40.000Z</time></trkpt>
        <trkpt lat="29.50467" lon="103.302394"><ele>2305.007</ele><time>2026-02-19T20:46:45.000Z</time></trkpt>
        <trkpt lat="29.504626" lon="103.302347"><ele>2303.2227</ele><time>2026-02-19T20:46:52.000Z</time></trkpt>
        <trkpt lat="29.504581" lon="103.302328"><ele>2301.5798</ele><time>2026-02-19T20:46:57.000Z</time></trkpt>
        <trkpt lat="29.504536" lon="103.302306"><ele>2301.3389</ele><time>2026-02-19T20:47:01.000Z</time></trkpt>
        <trkpt lat="29.50449" lon="103.3023"><ele>2301.9375</ele><time>2026-02-19T20:47:06.000Z</time></trkpt>
        <trkpt lat="29.50447" lon="103.302255"><ele>2303.2747</ele><time>2026-02-19T20:47:28.000Z</time></trkpt>
        <trkpt lat="29.504458" lon="103.302215"><ele>2301.9795</ele><time>2026-02-19T20:47:33.000Z</time></trkpt>
        <trkpt lat="29.504432" lon="103.302158"><ele>2302.9143</ele><time>2026-02-19T20:47:38.000Z</time></trkpt>
        <trkpt lat="29.504416" lon="103.3021"><ele>2303.7258</ele><time>2026-02-19T20:47:43.000Z</time></trkpt>
        <trkpt lat="29.504406" lon="103.302045"><ele>2303.6978</ele><time>2026-02-19T20:47:48.000Z</time></trkpt>
        <trkpt lat="29.504386" lon="103.301996"><ele>2302.6265</ele><time>2026-02-19T20:47:53.000Z</time></trkpt>
        <trkpt lat="29.504367" lon="103.301936"><ele>2300.035</ele><time>2026-02-19T20:47:58.000Z</time></trkpt>
        <trkpt lat="29.504347" lon="103.301888"><ele>2298.364</ele><time>2026-02-19T20:48:02.000Z</time></trkpt>
        <trkpt lat="29.504311" lon="103.301845"><ele>2300.5886</ele><time>2026-02-19T20:48:06.000Z</time></trkpt>
        <trkpt lat="29.504277" lon="103.301794"><ele>2301.5525</ele><time>2026-02-19T20:48:11.000Z</time></trkpt>
        <trkpt lat="29.504238" lon="103.301754"><ele>2300.4211</ele><time>2026-02-19T20:48:16.000Z</time></trkpt>
        <trkpt lat="29.504206" lon="103.301708"><ele>2298.5457</ele><time>2026-02-19T20:48:21.000Z</time></trkpt>
        <trkpt lat="29.50418" lon="103.301674"><ele>2298.9792</ele><time>2026-02-19T20:48:24.000Z</time></trkpt>
        <trkpt lat="29.504146" lon="103.301622"><ele>2298.5596</ele><time>2026-02-19T20:48:28.000Z</time></trkpt>
        <trkpt lat="29.504112" lon="103.301565"><ele>2295.9744</ele><time>2026-02-19T20:48:34.000Z</time></trkpt>
        <trkpt lat="29.504099" lon="103.301517"><ele>2294.377</ele><time>2026-02-19T20:48:39.000Z</time></trkpt>
        <trkpt lat="29.504074" lon="103.30147"><ele>2294.6152</ele><time>2026-02-19T20:48:45.000Z</time></trkpt>
        <trkpt lat="29.504058" lon="103.301429"><ele>2294.161</ele><time>2026-02-19T20:48:48.000Z</time></trkpt>
        <trkpt lat="29.504025" lon="103.301376"><ele>2294.6887</ele><time>2026-02-19T20:48:53.000Z</time></trkpt>
        <trkpt lat="29.503992" lon="103.301332"><ele>2296.6697</ele><time>2026-02-19T20:48:57.000Z</time></trkpt>
        <trkpt lat="29.50397" lon="103.30128"><ele>2297.1726</ele><time>2026-02-19T20:49:02.000Z</time></trkpt>
        <trkpt lat="29.503951" lon="103.301233"><ele>2298.2207</ele><time>2026-02-19T20:49:04.000Z</time></trkpt>
        <trkpt lat="29.503929" lon="103.301168"><ele>2297.6262</ele><time>2026-02-19T20:49:09.000Z</time></trkpt>
        <trkpt lat="29.503905" lon="103.301112"><ele>2296.369</ele><time>2026-02-19T20:49:14.000Z</time></trkpt>
        <trkpt lat="29.503883" lon="103.301064"><ele>2294.3315</ele><time>2026-02-19T20:49:18.000Z</time></trkpt>
        <trkpt lat="29.503856" lon="103.301016"><ele>2294.1238</ele><time>2026-02-19T20:49:22.000Z</time></trkpt>
        <trkpt lat="29.503821" lon="103.300961"><ele>2293.6606</ele><time>2026-02-19T20:49:28.000Z</time></trkpt>
        <trkpt lat="29.503792" lon="103.300908"><ele>2293.337</ele><time>2026-02-19T20:49:33.000Z</time></trkpt>
        <trkpt lat="29.50376" lon="103.300855"><ele>2292.817</ele><time>2026-02-19T20:49:38.000Z</time></trkpt>
        <trkpt lat="29.503732" lon="103.300802"><ele>2292.7253</ele><time>2026-02-19T20:49:43.000Z</time></trkpt>
        <trkpt lat="29.503716" lon="103.300748"><ele>2291.9014</ele><time>2026-02-19T20:49:47.000Z</time></trkpt>
        <trkpt lat="29.503685" lon="103.300694"><ele>2293.1477</ele><time>2026-02-19T20:49:51.000Z</time></trkpt>
        <trkpt lat="29.503655" lon="103.300637"><ele>2293.8062</ele><time>2026-02-19T20:49:56.000Z</time></trkpt>
        <trkpt lat="29.503634" lon="103.300588"><ele>2291.8684</ele><time>2026-02-19T20:50:01.000Z</time></trkpt>
        <trkpt lat="29.503583" lon="103.30056"><ele>2294.7466</ele><time>2026-02-19T20:50:50.000Z</time></trkpt>
        <trkpt lat="29.503576" lon="103.300528"><ele>2293.9507</ele><time>2026-02-19T20:50:55.000Z</time></trkpt>
        <trkpt lat="29.503553" lon="103.300467"><ele>2292.9573</ele><time>2026-02-19T20:51:00.000Z</time></trkpt>
        <trkpt lat="29.503528" lon="103.30041"><ele>2291.3555</ele><time>2026-02-19T20:51:04.000Z</time></trkpt>
        <trkpt lat="29.503505" lon="103.300349"><ele>2289.4922</ele><time>2026-02-19T20:51:09.000Z</time></trkpt>
        <trkpt lat="29.503486" lon="103.300295"><ele>2289.4033</ele><time>2026-02-19T20:51:12.000Z</time></trkpt>
        <trkpt lat="29.503468" lon="103.300243"><ele>2288.5105</ele><time>2026-02-19T20:51:16.000Z</time></trkpt>
        <trkpt lat="29.503455" lon="103.300188"><ele>2287.8157</ele><time>2026-02-19T20:51:20.000Z</time></trkpt>
        <trkpt lat="29.503445" lon="103.300133"><ele>2286.7842</ele><time>2026-02-19T20:51:24.000Z</time></trkpt>
        <trkpt lat="29.503443" lon="103.300075"><ele>2285.2415</ele><time>2026-02-19T20:51:29.000Z</time></trkpt>
        <trkpt lat="29.503445" lon="103.300025"><ele>2284.511</ele><time>2026-02-19T20:51:33.000Z</time></trkpt>
        <trkpt lat="29.50345" lon="103.299961"><ele>2284.6494</ele><time>2026-02-19T20:51:38.000Z</time></trkpt>
        <trkpt lat="29.503464" lon="103.29991"><ele>2283.5774</ele><time>2026-02-19T20:51:42.000Z</time></trkpt>
        <trkpt lat="29.503467" lon="103.299851"><ele>2283.7612</ele><time>2026-02-19T20:51:46.000Z</time></trkpt>
        <trkpt lat="29.503469" lon="103.299795"><ele>2284.4045</ele><time>2026-02-19T20:51:50.000Z</time></trkpt>
        <trkpt lat="29.503479" lon="103.299728"><ele>2284.7688</ele><time>2026-02-19T20:51:55.000Z</time></trkpt>
        <trkpt lat="29.503494" lon="103.299672"><ele>2283.9146</ele><time>2026-02-19T20:52:00.000Z</time></trkpt>
        <trkpt lat="29.503503" lon="103.299616"><ele>2282.8726</ele><time>2026-02-19T20:52:05.000Z</time></trkpt>
        <trkpt lat="29.503504" lon="103.299561"><ele>2282.0554</ele><time>2026-02-19T20:52:09.000Z</time></trkpt>
        <trkpt lat="29.503503" lon="103.299497"><ele>2283.192</ele><time>2026-02-19T20:52:13.000Z</time></trkpt>
        <trkpt lat="29.503501" lon="103.29943"><ele>2283.2166</ele><time>2026-02-19T20:52:17.000Z</time></trkpt>
        <trkpt lat="29.503498" lon="103.299367"><ele>2282.4675</ele><time>2026-02-19T20:52:21.000Z</time></trkpt>
        <trkpt lat="29.503486" lon="103.299314"><ele>2282.5623</ele><time>2026-02-19T20:52:25.000Z</time></trkpt>
        <trkpt lat="29.503472" lon="103.299261"><ele>2281.6912</ele><time>2026-02-19T20:52:29.000Z</time></trkpt>
        <trkpt lat="29.503456" lon="103.299215"><ele>2282.143</ele><time>2026-02-19T20:52:32.000Z</time></trkpt>
        <trkpt lat="29.503434" lon="103.299158"><ele>2282.8408</ele><time>2026-02-19T20:52:36.000Z</time></trkpt>
        <trkpt lat="29.503426" lon="103.2991"><ele>2282.136</ele><time>2026-02-19T20:52:41.000Z</time></trkpt>
        <trkpt lat="29.503421" lon="103.299048"><ele>2281.9893</ele><time>2026-02-19T20:52:45.000Z</time></trkpt>
        <trkpt lat="29.503426" lon="103.298987"><ele>2280.2544</ele><time>2026-02-19T20:52:50.000Z</time></trkpt>
        <trkpt lat="29.503443" lon="103.298934"><ele>2278.4768</ele><time>2026-02-19T20:52:56.000Z</time></trkpt>
        <trkpt lat="29.503477" lon="103.298892"><ele>2277.1785</ele><time>2026-02-19T20:53:01.000Z</time></trkpt>
        <trkpt lat="29.503524" lon="103.298864"><ele>2275.386</ele><time>2026-02-19T20:53:06.000Z</time></trkpt>
        <trkpt lat="29.503574" lon="103.298832"><ele>2272.8774</ele><time>2026-02-19T20:53:13.000Z</time></trkpt>
        <trkpt lat="29.503614" lon="103.298831"><ele>2272.6865</ele><time>2026-02-19T20:53:16.000Z</time></trkpt>
        <trkpt lat="29.503665" lon="103.298806"><ele>2273.2422</ele><time>2026-02-19T20:53:37.000Z</time></trkpt>
        <trkpt lat="29.503706" lon="103.298806"><ele>2273.6091</ele><time>2026-02-19T20:53:49.000Z</time></trkpt>
        <trkpt lat="29.503759" lon="103.298784"><ele>2273.99</ele><time>2026-02-19T20:53:55.000Z</time></trkpt>
        <trkpt lat="29.503811" lon="103.298763"><ele>2272.7146</ele><time>2026-02-19T20:54:00.000Z</time></trkpt>
        <trkpt lat="29.503868" lon="103.298736"><ele>2272.2336</ele><time>2026-02-19T20:54:06.000Z</time></trkpt>
        <trkpt lat="29.503913" lon="103.298724"><ele>2272.6995</ele><time>2026-02-19T20:54:11.000Z</time></trkpt>
        <trkpt lat="29.503962" lon="103.298726"><ele>2271.8975</ele><time>2026-02-19T20:54:16.000Z</time></trkpt>
        <trkpt lat="29.504009" lon="103.298741"><ele>2271.6697</ele><time>2026-02-19T20:54:20.000Z</time></trkpt>
        <trkpt lat="29.50405" lon="103.298781"><ele>2270.9229</ele><time>2026-02-19T20:54:25.000Z</time></trkpt>
        <trkpt lat="29.504078" lon="103.298834"><ele>2270.3618</ele><time>2026-02-19T20:54:30.000Z</time></trkpt>
        <trkpt lat="29.504102" lon="103.298899"><ele>2271.0833</ele><time>2026-02-19T20:54:38.000Z</time></trkpt>
        <trkpt lat="29.504112" lon="103.298953"><ele>2270.3032</ele><time>2026-02-19T20:54:44.000Z</time></trkpt>
        <trkpt lat="29.504138" lon="103.299001"><ele>2269.9124</ele><time>2026-02-19T20:54:49.000Z</time></trkpt>
        <trkpt lat="29.504165" lon="103.299049"><ele>2269.8345</ele><time>2026-02-19T20:54:53.000Z</time></trkpt>
        <trkpt lat="29.504205" lon="103.299098"><ele>2270.4792</ele><time>2026-02-19T20:54:58.000Z</time></trkpt>
        <trkpt lat="29.504245" lon="103.299128"><ele>2270.6118</ele><time>2026-02-19T20:55:03.000Z</time></trkpt>
        <trkpt lat="29.50429" lon="103.299146"><ele>2270.465</ele><time>2026-02-19T20:55:07.000Z</time></trkpt>
        <trkpt lat="29.504346" lon="103.299152"><ele>2270.2815</ele><time>2026-02-19T20:55:12.000Z</time></trkpt>
        <trkpt lat="29.504399" lon="103.299147"><ele>2268.777</ele><time>2026-02-19T20:55:16.000Z</time></trkpt>
        <trkpt lat="29.504457" lon="103.299132"><ele>2267.6638</ele><time>2026-02-19T20:55:20.000Z</time></trkpt>
        <trkpt lat="29.504507" lon="103.299121"><ele>2265.9229</ele><time>2026-02-19T20:55:24.000Z</time></trkpt>
        <trkpt lat="29.504555" lon="103.299121"><ele>2264.6226</ele><time>2026-02-19T20:55:28.000Z</time></trkpt>
        <trkpt lat="29.504612" lon="103.299126"><ele>2263.7358</ele><time>2026-02-19T20:55:33.000Z</time></trkpt>
        <trkpt lat="29.504661" lon="103.299134"><ele>2263.593</ele><time>2026-02-19T20:55:37.000Z</time></trkpt>
        <trkpt lat="29.504716" lon="103.299144"><ele>2262.2551</ele><time>2026-02-19T20:55:42.000Z</time></trkpt>
        <trkpt lat="29.504765" lon="103.299148"><ele>2262.6736</ele><time>2026-02-19T20:55:47.000Z</time></trkpt>
        <trkpt lat="29.504803" lon="103.299152"><ele>2263.071</ele><time>2026-02-19T20:55:50.000Z</time></trkpt>
        <trkpt lat="29.504857" lon="103.299147"><ele>2263.345</ele><time>2026-02-19T20:55:55.000Z</time></trkpt>
        <trkpt lat="29.50491" lon="103.29915"><ele>2262.459</ele><time>2026-02-19T20:56:00.000Z</time></trkpt>
        <trkpt lat="29.504956" lon="103.299166"><ele>2260.3857</ele><time>2026-02-19T20:56:05.000Z</time></trkpt>
        <trkpt lat="29.504997" lon="103.299197"><ele>2259.0261</ele><time>2026-02-19T20:56:09.000Z</time></trkpt>
        <trkpt lat="29.505035" lon="103.29923"><ele>2257.6663</ele><time>2026-02-19T20:56:13.000Z</time></trkpt>
        <trkpt lat="29.505083" lon="103.299264"><ele>2257.762</ele><time>2026-02-19T20:56:18.000Z</time></trkpt>
        <trkpt lat="29.505134" lon="103.299281"><ele>2258.1257</ele><time>2026-02-19T20:56:22.000Z</time></trkpt>
        <trkpt lat="29.505182" lon="103.299265"><ele>2257.5735</ele><time>2026-02-19T20:56:26.000Z</time></trkpt>
        <trkpt lat="29.50522" lon="103.299219"><ele>2256.4119</ele><time>2026-02-19T20:56:30.000Z</time></trkpt>
        <trkpt lat="29.505239" lon="103.299162"><ele>2255.898</ele><time>2026-02-19T20:56:34.000Z</time></trkpt>
        <trkpt lat="29.505267" lon="103.299111"><ele>2256.4502</ele><time>2026-02-19T20:56:38.000Z</time></trkpt>
        <trkpt lat="29.505287" lon="103.299059"><ele>2256.4414</ele><time>2026-02-19T20:56:42.000Z</time></trkpt>
        <trkpt lat="29.505298" lon="103.299005"><ele>2257.335</ele><time>2026-02-19T20:56:46.000Z</time></trkpt>
        <trkpt lat="29.505312" lon="103.29894"><ele>2257.8884</ele><time>2026-02-19T20:56:51.000Z</time></trkpt>
        <trkpt lat="29.505329" lon="103.298891"><ele>2258.4011</ele><time>2026-02-19T20:56:55.000Z</time></trkpt>
        <trkpt lat="29.505353" lon="103.298825"><ele>2258.0493</ele><time>2026-02-19T20:57:00.000Z</time></trkpt>
        <trkpt lat="29.505371" lon="103.298776"><ele>2257.0042</ele><time>2026-02-19T20:57:04.000Z</time></trkpt>
        <trkpt lat="29.505407" lon="103.29873"><ele>2255.7834</ele><time>2026-02-19T20:57:10.000Z</time></trkpt>
        <trkpt lat="29.505445" lon="103.298694"><ele>2255.2744</ele><time>2026-02-19T20:57:14.000Z</time></trkpt>
        <trkpt lat="29.505473" lon="103.298644"><ele>2254.5056</ele><time>2026-02-19T20:57:19.000Z</time></trkpt>
        <trkpt lat="29.50548" lon="103.298586"><ele>2253.0593</ele><time>2026-02-19T20:57:23.000Z</time></trkpt>
        <trkpt lat="29.505494" lon="103.298539"><ele>2252.2634</ele><time>2026-02-19T20:57:27.000Z</time></trkpt>
        <trkpt lat="29.50551" lon="103.298483"><ele>2251.9055</ele><time>2026-02-19T20:57:31.000Z</time></trkpt>
        <trkpt lat="29.505539" lon="103.29843"><ele>2250.717</ele><time>2026-02-19T20:57:35.000Z</time></trkpt>
        <trkpt lat="29.50557" lon="103.298379"><ele>2249.6016</ele><time>2026-02-19T20:57:39.000Z</time></trkpt>
        <trkpt lat="29.505603" lon="103.298336"><ele>2249.4658</ele><time>2026-02-19T20:57:43.000Z</time></trkpt>
        <trkpt lat="29.50565" lon="103.298319"><ele>2248.331</ele><time>2026-02-19T20:57:47.000Z</time></trkpt>
        <trkpt lat="29.505696" lon="103.298303"><ele>2247.949</ele><time>2026-02-19T20:57:51.000Z</time></trkpt>
        <trkpt lat="29.505748" lon="103.298306"><ele>2247.1995</ele><time>2026-02-19T20:57:55.000Z</time></trkpt>
        <trkpt lat="29.505799" lon="103.2983"><ele>2247.5361</ele><time>2026-02-19T20:57:59.000Z</time></trkpt>
        <trkpt lat="29.505848" lon="103.298285"><ele>2246.9678</ele><time>2026-02-19T20:58:03.000Z</time></trkpt>
        <trkpt lat="29.505895" lon="103.298266"><ele>2246.691</ele><time>2026-02-19T20:58:07.000Z</time></trkpt>
        <trkpt lat="29.505946" lon="103.298225"><ele>2245.3855</ele><time>2026-02-19T20:58:17.000Z</time></trkpt>
        <trkpt lat="29.50597" lon="103.298192"><ele>2244.5508</ele><time>2026-02-19T20:58:21.000Z</time></trkpt>
        <trkpt lat="29.506001" lon="103.298161"><ele>2244.5708</ele><time>2026-02-19T20:58:24.000Z</time></trkpt>
        <trkpt lat="29.506045" lon="103.298112"><ele>2241.9517</ele><time>2026-02-19T20:58:42.000Z</time></trkpt>
        <trkpt lat="29.506063" lon="103.298084"><ele>2242.3665</ele><time>2026-02-19T20:58:46.000Z</time></trkpt>
        <trkpt lat="29.506097" lon="103.298036"><ele>2241.1304</ele><time>2026-02-19T20:58:51.000Z</time></trkpt>
        <trkpt lat="29.506119" lon="103.297987"><ele>2240.8237</ele><time>2026-02-19T20:58:55.000Z</time></trkpt>
        <trkpt lat="29.50615" lon="103.297935"><ele>2240.3696</ele><time>2026-02-19T20:59:00.000Z</time></trkpt>
        <trkpt lat="29.50619" lon="103.297892"><ele>2239.8674</ele><time>2026-02-19T20:59:05.000Z</time></trkpt>
        <trkpt lat="29.506233" lon="103.297865"><ele>2238.8757</ele><time>2026-02-19T20:59:09.000Z</time></trkpt>
        <trkpt lat="29.506286" lon="103.297847"><ele>2238.2507</ele><time>2026-02-19T20:59:15.000Z</time></trkpt>
        <trkpt lat="29.506336" lon="103.297854"><ele>2237.194</ele><time>2026-02-19T20:59:19.000Z</time></trkpt>
        <trkpt lat="29.506387" lon="103.297866"><ele>2235.8357</ele><time>2026-02-19T20:59:23.000Z</time></trkpt>
        <trkpt lat="29.506438" lon="103.297869"><ele>2235.2092</ele><time>2026-02-19T20:59:27.000Z</time></trkpt>
        <trkpt lat="29.506486" lon="103.297866"><ele>2234.6506</ele><time>2026-02-19T20:59:30.000Z</time></trkpt>
        <trkpt lat="29.506534" lon="103.297862"><ele>2234.2295</ele><time>2026-02-19T20:59:34.000Z</time></trkpt>
        <trkpt lat="29.506568" lon="103.29783"><ele>2234.498</ele><time>2026-02-19T20:59:38.000Z</time></trkpt>
        <trkpt lat="29.50659" lon="103.297789"><ele>2234.0603</ele><time>2026-02-19T20:59:41.000Z</time></trkpt>
        <trkpt lat="29.506601" lon="103.297718"><ele>2233.8687</ele><time>2026-02-19T20:59:46.000Z</time></trkpt>
        <trkpt lat="29.506589" lon="103.297661"><ele>2234.0996</ele><time>2026-02-19T20:59:50.000Z</time></trkpt>
        <trkpt lat="29.506577" lon="103.297598"><ele>2232.3108</ele><time>2026-02-19T20:59:55.000Z</time></trkpt>
        <trkpt lat="29.506559" lon="103.29754"><ele>2231.639</ele><time>2026-02-19T21:00:00.000Z</time></trkpt>
        <trkpt lat="29.506547" lon="103.297487"><ele>2231.9707</ele><time>2026-02-19T21:00:04.000Z</time></trkpt>
        <trkpt lat="29.506542" lon="103.297434"><ele>2231.4363</ele><time>2026-02-19T21:00:08.000Z</time></trkpt>
        <trkpt lat="29.506547" lon="103.297372"><ele>2230.2942</ele><time>2026-02-19T21:00:13.000Z</time></trkpt>
        <trkpt lat="29.50656" lon="103.297316"><ele>2228.767</ele><time>2026-02-19T21:00:18.000Z</time></trkpt>
        <trkpt lat="29.506575" lon="103.297266"><ele>2227.28</ele><time>2026-02-19T21:00:23.000Z</time></trkpt>
        <trkpt lat="29.50659" lon="103.297217"><ele>2226.4448</ele><time>2026-02-19T21:00:27.000Z</time></trkpt>
        <trkpt lat="29.506612" lon="103.297157"><ele>2226.7847</ele><time>2026-02-19T21:00:32.000Z</time></trkpt>
        <trkpt lat="29.506629" lon="103.297111"><ele>2227.3682</ele><time>2026-02-19T21:00:35.000Z</time></trkpt>
        <trkpt lat="29.506644" lon="103.297054"><ele>2227.6707</ele><time>2026-02-19T21:00:39.000Z</time></trkpt>
        <trkpt lat="29.506663" lon="103.296997"><ele>2227.059</ele><time>2026-02-19T21:00:43.000Z</time></trkpt>
        <trkpt lat="29.50667" lon="103.296939"><ele>2226.528</ele><time>2026-02-19T21:00:47.000Z</time></trkpt>
        <trkpt lat="29.506663" lon="103.296883"><ele>2225.6218</ele><time>2026-02-19T21:00:51.000Z</time></trkpt>
        <trkpt lat="29.506664" lon="103.296827"><ele>2224.464</ele><time>2026-02-19T21:00:55.000Z</time></trkpt>
        <trkpt lat="29.506664" lon="103.296767"><ele>2224.3643</ele><time>2026-02-19T21:00:59.000Z</time></trkpt>
        <trkpt lat="29.506666" lon="103.296699"><ele>2223.954</ele><time>2026-02-19T21:01:05.000Z</time></trkpt>
        <trkpt lat="29.506672" lon="103.296644"><ele>2222.7117</ele><time>2026-02-19T21:01:09.000Z</time></trkpt>
        <trkpt lat="29.506685" lon="103.296576"><ele>2221.5894</ele><time>2026-02-19T21:01:14.000Z</time></trkpt>
        <trkpt lat="29.50669" lon="103.296522"><ele>2220.3257</ele><time>2026-02-19T21:01:19.000Z</time></trkpt>
        <trkpt lat="29.506691" lon="103.296466"><ele>2218.831</ele><time>2026-02-19T21:01:23.000Z</time></trkpt>
        <trkpt lat="29.506675" lon="103.2964"><ele>2216.9128</ele><time>2026-02-19T21:01:28.000Z</time></trkpt>
        <trkpt lat="29.506667" lon="103.296345"><ele>2216.2422</ele><time>2026-02-19T21:01:32.000Z</time></trkpt>
        <trkpt lat="29.506665" lon="103.296285"><ele>2216.7407</ele><time>2026-02-19T21:01:35.000Z</time></trkpt>
        <trkpt lat="29.506657" lon="103.296224"><ele>2217.1035</ele><time>2026-02-19T21:01:39.000Z</time></trkpt>
        <trkpt lat="29.506662" lon="103.296168"><ele>2216.7495</ele><time>2026-02-19T21:01:43.000Z</time></trkpt>
        <trkpt lat="29.506667" lon="103.296115"><ele>2214.815</ele><time>2026-02-19T21:01:47.000Z</time></trkpt>
        <trkpt lat="29.506671" lon="103.296057"><ele>2214.1565</ele><time>2026-02-19T21:01:51.000Z</time></trkpt>
        <trkpt lat="29.50668" lon="103.295996"><ele>2212.653</ele><time>2026-02-19T21:01:56.000Z</time></trkpt>
        <trkpt lat="29.50669" lon="103.29593"><ele>2211.2527</ele><time>2026-02-19T21:02:01.000Z</time></trkpt>
        <trkpt lat="29.506698" lon="103.295877"><ele>2210.9543</ele><time>2026-02-19T21:02:05.000Z</time></trkpt>
        <trkpt lat="29.506708" lon="103.295822"><ele>2210.524</ele><time>2026-02-19T21:02:09.000Z</time></trkpt>
        <trkpt lat="29.506729" lon="103.295758"><ele>2210.5164</ele><time>2026-02-19T21:02:14.000Z</time></trkpt>
        <trkpt lat="29.506745" lon="103.295704"><ele>2209.282</ele><time>2026-02-19T21:02:18.000Z</time></trkpt>
        <trkpt lat="29.506757" lon="103.29565"><ele>2208.5864</ele><time>2026-02-19T21:02:22.000Z</time></trkpt>
        <trkpt lat="29.506771" lon="103.295593"><ele>2208.2476</ele><time>2026-02-19T21:02:26.000Z</time></trkpt>
        <trkpt lat="29.506783" lon="103.295528"><ele>2208.6082</ele><time>2026-02-19T21:02:31.000Z</time></trkpt>
        <trkpt lat="29.506792" lon="103.295474"><ele>2206.8723</ele><time>2026-02-19T21:02:36.000Z</time></trkpt>
        <trkpt lat="29.506805" lon="103.295424"><ele>2204.4607</ele><time>2026-02-19T21:02:40.000Z</time></trkpt>
        <trkpt lat="29.506809" lon="103.295361"><ele>2201.8088</ele><time>2026-02-19T21:02:46.000Z</time></trkpt>
        <trkpt lat="29.506802" lon="103.295307"><ele>2200.624</ele><time>2026-02-19T21:02:50.000Z</time></trkpt>
        <trkpt lat="29.506793" lon="103.295249"><ele>2200.5032</ele><time>2026-02-19T21:02:54.000Z</time></trkpt>
        <trkpt lat="29.506779" lon="103.29519"><ele>2200.5408</ele><time>2026-02-19T21:02:58.000Z</time></trkpt>
        <trkpt lat="29.506767" lon="103.295125"><ele>2200.0813</ele><time>2026-02-19T21:03:03.000Z</time></trkpt>
        <trkpt lat="29.506759" lon="103.295068"><ele>2199.571</ele><time>2026-02-19T21:03:07.000Z</time></trkpt>
        <trkpt lat="29.506749" lon="103.295013"><ele>2199.255</ele><time>2026-02-19T21:03:11.000Z</time></trkpt>
        <trkpt lat="29.506739" lon="103.294958"><ele>2199.351</ele><time>2026-02-19T21:03:15.000Z</time></trkpt>
        <trkpt lat="29.506732" lon="103.294901"><ele>2199.078</ele><time>2026-02-19T21:03:19.000Z</time></trkpt>
        <trkpt lat="29.506729" lon="103.294847"><ele>2198.6035</ele><time>2026-02-19T21:03:24.000Z</time></trkpt>
        <trkpt lat="29.506732" lon="103.294793"><ele>2199.4263</ele><time>2026-02-19T21:03:28.000Z</time></trkpt>
        <trkpt lat="29.506741" lon="103.294734"><ele>2199.0742</ele><time>2026-02-19T21:03:33.000Z</time></trkpt>
        <trkpt lat="29.506767" lon="103.294685"><ele>2197.5813</ele><time>2026-02-19T21:03:38.000Z</time></trkpt>
        <trkpt lat="29.506786" lon="103.294634"><ele>2194.8665</ele><time>2026-02-19T21:03:42.000Z</time></trkpt>
        <trkpt lat="29.506793" lon="103.294569"><ele>2193.5647</ele><time>2026-02-19T21:03:50.000Z</time></trkpt>
        <trkpt lat="29.5068" lon="103.294514"><ele>2191.6443</ele><time>2026-02-19T21:03:55.000Z</time></trkpt>
        <trkpt lat="29.506807" lon="103.294463"><ele>2190.362</ele><time>2026-02-19T21:03:59.000Z</time></trkpt>
        <trkpt lat="29.506808" lon="103.294407"><ele>2190.6013</ele><time>2026-02-19T21:04:03.000Z</time></trkpt>
        <trkpt lat="29.506794" lon="103.294343"><ele>2191.071</ele><time>2026-02-19T21:04:08.000Z</time></trkpt>
        <trkpt lat="29.506777" lon="103.294297"><ele>2191.94</ele><time>2026-02-19T21:04:11.000Z</time></trkpt>
        <trkpt lat="29.506737" lon="103.294248"><ele>2192.0046</ele><time>2026-02-19T21:04:16.000Z</time></trkpt>
        <trkpt lat="29.506679" lon="103.294237"><ele>2190.725</ele><time>2026-02-19T21:04:21.000Z</time></trkpt>
        <trkpt lat="29.506624" lon="103.294249"><ele>2190.2317</ele><time>2026-02-19T21:04:26.000Z</time></trkpt>
        <trkpt lat="29.506583" lon="103.294262"><ele>2190.9658</ele><time>2026-02-19T21:04:29.000Z</time></trkpt>
        <trkpt lat="29.50653" lon="103.294273"><ele>2191.4185</ele><time>2026-02-19T21:04:33.000Z</time></trkpt>
        <trkpt lat="29.506472" lon="103.294269"><ele>2192.1267</ele><time>2026-02-19T21:04:38.000Z</time></trkpt>
        <trkpt lat="29.506424" lon="103.294262"><ele>2192.2651</ele><time>2026-02-19T21:04:42.000Z</time></trkpt>
        <trkpt lat="29.506376" lon="103.294247"><ele>2191.1426</ele><time>2026-02-19T21:04:46.000Z</time></trkpt>
        <trkpt lat="29.50633" lon="103.294221"><ele>2189.7002</ele><time>2026-02-19T21:04:51.000Z</time></trkpt>
        <trkpt lat="29.506287" lon="103.294182"><ele>2187.5667</ele><time>2026-02-19T21:04:56.000Z</time></trkpt>
        <trkpt lat="29.506246" lon="103.294145"><ele>2185.6863</ele><time>2026-02-19T21:05:05.000Z</time></trkpt>
        <trkpt lat="29.506217" lon="103.294107"><ele>2184.2395</ele><time>2026-02-19T21:05:10.000Z</time></trkpt>
        <trkpt lat="29.506181" lon="103.294073"><ele>2182.6287</ele><time>2026-02-19T21:05:14.000Z</time></trkpt>
        <trkpt lat="29.506134" lon="103.294037"><ele>2182.177</ele><time>2026-02-19T21:05:19.000Z</time></trkpt>
        <trkpt lat="29.506091" lon="103.294004"><ele>2180.4197</ele><time>2026-02-19T21:05:24.000Z</time></trkpt>
        <trkpt lat="29.506057" lon="103.293965"><ele>2179.7693</ele><time>2026-02-19T21:05:29.000Z</time></trkpt>
        <trkpt lat="29.506025" lon="103.293914"><ele>2178.1394</ele><time>2026-02-19T21:05:34.000Z</time></trkpt>
        <trkpt lat="29.506004" lon="103.293863"><ele>2178.0037</ele><time>2026-02-19T21:05:38.000Z</time></trkpt>
        <trkpt lat="29.505987" lon="103.293803"><ele>2176.8472</ele><time>2026-02-19T21:05:43.000Z</time></trkpt>
        <trkpt lat="29.505982" lon="103.293739"><ele>2175.5215</ele><time>2026-02-19T21:05:47.000Z</time></trkpt>
        <trkpt lat="29.505987" lon="103.293683"><ele>2173.4832</ele><time>2026-02-19T21:05:52.000Z</time></trkpt>
        <trkpt lat="29.505991" lon="103.293633"><ele>2171.068</ele><time>2026-02-19T21:05:56.000Z</time></trkpt>
        <trkpt lat="29.505994" lon="103.293571"><ele>2168.683</ele><time>2026-02-19T21:06:01.000Z</time></trkpt>
        <trkpt lat="29.506006" lon="103.293519"><ele>2167.7966</ele><time>2026-02-19T21:06:05.000Z</time></trkpt>
        <trkpt lat="29.506014" lon="103.293466"><ele>2167.3733</ele><time>2026-02-19T21:06:09.000Z</time></trkpt>
        <trkpt lat="29.506022" lon="103.293397"><ele>2166.3013</ele><time>2026-02-19T21:06:14.000Z</time></trkpt>
        <trkpt lat="29.506042" lon="103.293337"><ele>2164.082</ele><time>2026-02-19T21:06:19.000Z</time></trkpt>
        <trkpt lat="29.506072" lon="103.29329"><ele>2164.5686</ele><time>2026-02-19T21:06:24.000Z</time></trkpt>
        <trkpt lat="29.50611" lon="103.293259"><ele>2164.5645</ele><time>2026-02-19T21:06:28.000Z</time></trkpt>
        <trkpt lat="29.506156" lon="103.293231"><ele>2162.9326</ele><time>2026-02-19T21:06:33.000Z</time></trkpt>
        <trkpt lat="29.506199" lon="103.293216"><ele>2161.9343</ele><time>2026-02-19T21:06:37.000Z</time></trkpt>
        <trkpt lat="29.506258" lon="103.293184"><ele>2161.291</ele><time>2026-02-19T21:06:44.000Z</time></trkpt>
        <trkpt lat="29.50629" lon="103.293153"><ele>2160.8164</ele><time>2026-02-19T21:06:48.000Z</time></trkpt>
        <trkpt lat="29.506314" lon="103.293105"><ele>2156.2393</ele><time>2026-02-19T21:06:53.000Z</time></trkpt>
        <trkpt lat="29.506303" lon="103.293039"><ele>2153.1074</ele><time>2026-02-19T21:06:58.000Z</time></trkpt>
        <trkpt lat="29.506273" lon="103.292986"><ele>2153.0776</ele><time>2026-02-19T21:07:02.000Z</time></trkpt>
        <trkpt lat="29.506234" lon="103.292941"><ele>2153.6392</ele><time>2026-02-19T21:07:06.000Z</time></trkpt>
        <trkpt lat="29.50619" lon="103.292894"><ele>2154.487</ele><time>2026-02-19T21:07:10.000Z</time></trkpt>
        <trkpt lat="29.506149" lon="103.292846"><ele>2156.5781</ele><time>2026-02-19T21:07:14.000Z</time></trkpt>
        <trkpt lat="29.506117" lon="103.292802"><ele>2156.9382</ele><time>2026-02-19T21:07:18.000Z</time></trkpt>
        <trkpt lat="29.506089" lon="103.292746"><ele>2157.3745</ele><time>2026-02-19T21:07:23.000Z</time></trkpt>
        <trkpt lat="29.506057" lon="103.292706"><ele>2158.8157</ele><time>2026-02-19T21:07:27.000Z</time></trkpt>
        <trkpt lat="29.506022" lon="103.292657"><ele>2159.6926</ele><time>2026-02-19T21:07:32.000Z</time></trkpt>
        <trkpt lat="29.505995" lon="103.292614"><ele>2159.0186</ele><time>2026-02-19T21:07:37.000Z</time></trkpt>
        <trkpt lat="29.505974" lon="103.292567"><ele>2160.0264</ele><time>2026-02-19T21:07:41.000Z</time></trkpt>
        <trkpt lat="29.505945" lon="103.292519"><ele>2161.144</ele><time>2026-02-19T21:07:45.000Z</time></trkpt>
        <trkpt lat="29.505912" lon="103.292471"><ele>2162.5378</ele><time>2026-02-19T21:07:49.000Z</time></trkpt>
        <trkpt lat="29.505872" lon="103.292423"><ele>2162.6724</ele><time>2026-02-19T21:07:53.000Z</time></trkpt>
        <trkpt lat="29.505838" lon="103.29238"><ele>2162.8655</ele><time>2026-02-19T21:07:58.000Z</time></trkpt>
        <trkpt lat="29.505816" lon="103.292339"><ele>2160.5012</ele><time>2026-02-19T21:08:02.000Z</time></trkpt>
        <trkpt lat="29.505808" lon="103.292287"><ele>2158.474</ele><time>2026-02-19T21:08:06.000Z</time></trkpt>
        <trkpt lat="29.505793" lon="103.292219"><ele>2155.696</ele><time>2026-02-19T21:08:13.000Z</time></trkpt>
        <trkpt lat="29.50577" lon="103.292167"><ele>2153.176</ele><time>2026-02-19T21:08:21.000Z</time></trkpt>
        <trkpt lat="29.505754" lon="103.292116"><ele>2153.3125</ele><time>2026-02-19T21:08:28.000Z</time></trkpt>
        <trkpt lat="29.505723" lon="103.292108"><ele>2153.589</ele><time>2026-02-19T21:08:31.000Z</time></trkpt>
        <trkpt lat="29.505667" lon="103.292105"><ele>2152.2822</ele><time>2026-02-19T21:08:37.000Z</time></trkpt>
        <trkpt lat="29.505614" lon="103.292114"><ele>2151.4236</ele><time>2026-02-19T21:08:42.000Z</time></trkpt>
        <trkpt lat="29.505561" lon="103.292123"><ele>2151.5872</ele><time>2026-02-19T21:08:46.000Z</time></trkpt>
        <trkpt lat="29.505511" lon="103.292118"><ele>2151.7131</ele><time>2026-02-19T21:08:50.000Z</time></trkpt>
        <trkpt lat="29.505458" lon="103.292095"><ele>2150.778</ele><time>2026-02-19T21:08:55.000Z</time></trkpt>
        <trkpt lat="29.505409" lon="103.292072"><ele>2148.96</ele><time>2026-02-19T21:09:00.000Z</time></trkpt>
        <trkpt lat="29.505373" lon="103.292039"><ele>2148.4124</ele><time>2026-02-19T21:09:04.000Z</time></trkpt>
        <trkpt lat="29.505337" lon="103.291994"><ele>2146.884</ele><time>2026-02-19T21:09:09.000Z</time></trkpt>
        <trkpt lat="29.505289" lon="103.291966"><ele>2150.4558</ele><time>2026-02-19T21:09:19.000Z</time></trkpt>
        <trkpt lat="29.505258" lon="103.291928"><ele>2148.5786</ele><time>2026-02-19T21:09:25.000Z</time></trkpt>
        <trkpt lat="29.505223" lon="103.291888"><ele>2146.2996</ele><time>2026-02-19T21:09:30.000Z</time></trkpt>
        <trkpt lat="29.505198" lon="103.29184"><ele>2143.074</ele><time>2026-02-19T21:09:35.000Z</time></trkpt>
        <trkpt lat="29.505164" lon="103.291795"><ele>2141.0376</ele><time>2026-02-19T21:09:41.000Z</time></trkpt>
        <trkpt lat="29.505129" lon="103.291746"><ele>2140.2031</ele><time>2026-02-19T21:09:46.000Z</time></trkpt>
        <trkpt lat="29.50511" lon="103.291695"><ele>2139.3953</ele><time>2026-02-19T21:09:50.000Z</time></trkpt>
        <trkpt lat="29.505079" lon="103.29165"><ele>2139.3674</ele><time>2026-02-19T21:09:54.000Z</time></trkpt>
        <trkpt lat="29.505036" lon="103.291612"><ele>2139.0571</ele><time>2026-02-19T21:09:58.000Z</time></trkpt>
        <trkpt lat="29.504998" lon="103.291581"><ele>2138.3176</ele><time>2026-02-19T21:10:02.000Z</time></trkpt>
        <trkpt lat="29.50495" lon="103.291549"><ele>2136.197</ele><time>2026-02-19T21:10:07.000Z</time></trkpt>
        <trkpt lat="29.504915" lon="103.291517"><ele>2135.5674</ele><time>2026-02-19T21:10:11.000Z</time></trkpt>
        <trkpt lat="29.504882" lon="103.291481"><ele>2135.1184</ele><time>2026-02-19T21:10:15.000Z</time></trkpt>
        <trkpt lat="29.504851" lon="103.291435"><ele>2134.0803</ele><time>2026-02-19T21:10:19.000Z</time></trkpt>
        <trkpt lat="29.50482" lon="103.291384"><ele>2133.1633</ele><time>2026-02-19T21:10:23.000Z</time></trkpt>
        <trkpt lat="29.50479" lon="103.291337"><ele>2132.5044</ele><time>2026-02-19T21:10:27.000Z</time></trkpt>
        <trkpt lat="29.504761" lon="103.291292"><ele>2131.9321</ele><time>2026-02-19T21:10:31.000Z</time></trkpt>
        <trkpt lat="29.504727" lon="103.29125"><ele>2131.8042</ele><time>2026-02-19T21:10:35.000Z</time></trkpt>
        <trkpt lat="29.504687" lon="103.291215"><ele>2132.152</ele><time>2026-02-19T21:10:39.000Z</time></trkpt>
        <trkpt lat="29.504642" lon="103.291173"><ele>2132.1785</ele><time>2026-02-19T21:10:44.000Z</time></trkpt>
        <trkpt lat="29.504599" lon="103.291149"><ele>2132.0684</ele><time>2026-02-19T21:10:48.000Z</time></trkpt>
        <trkpt lat="29.504555" lon="103.291129"><ele>2132.7856</ele><time>2026-02-19T21:10:52.000Z</time></trkpt>
        <trkpt lat="29.504518" lon="103.291098"><ele>2132.2607</ele><time>2026-02-19T21:10:56.000Z</time></trkpt>
        <trkpt lat="29.504483" lon="103.291064"><ele>2131.0522</ele><time>2026-02-19T21:11:00.000Z</time></trkpt>
        <trkpt lat="29.504443" lon="103.291019"><ele>2129.3718</ele><time>2026-02-19T21:11:05.000Z</time></trkpt>
        <trkpt lat="29.504408" lon="103.290974"><ele>2127.203</ele><time>2026-02-19T21:11:09.000Z</time></trkpt>
        <trkpt lat="29.504379" lon="103.290935"><ele>2126.1948</ele><time>2026-02-19T21:11:12.000Z</time></trkpt>
        <trkpt lat="29.504342" lon="103.290884"><ele>2127.2986</ele><time>2026-02-19T21:11:17.000Z</time></trkpt>
        <trkpt lat="29.504324" lon="103.290832"><ele>2126.4585</ele><time>2026-02-19T21:11:21.000Z</time></trkpt>
        <trkpt lat="29.50431" lon="103.29078"><ele>2123.7097</ele><time>2026-02-19T21:11:25.000Z</time></trkpt>
        <trkpt lat="29.504303" lon="103.29071"><ele>2119.1716</ele><time>2026-02-19T21:11:35.000Z</time></trkpt>
        <trkpt lat="29.504327" lon="103.290666"><ele>2116.489</ele><time>2026-02-19T21:11:40.000Z</time></trkpt>
        <trkpt lat="29.504357" lon="103.290622"><ele>2114.9675</ele><time>2026-02-19T21:11:45.000Z</time></trkpt>
        <trkpt lat="29.504386" lon="103.290555"><ele>2114.6724</ele><time>2026-02-19T21:11:55.000Z</time></trkpt>
        <trkpt lat="29.504398" lon="103.290509"><ele>2114.2927</ele><time>2026-02-19T21:12:00.000Z</time></trkpt>
        <trkpt lat="29.504427" lon="103.29046"><ele>2113.866</ele><time>2026-02-19T21:12:04.000Z</time></trkpt>
        <trkpt lat="29.504462" lon="103.290407"><ele>2113.222</ele><time>2026-02-19T21:12:09.000Z</time></trkpt>
        <trkpt lat="29.504496" lon="103.29035"><ele>2111.6853</ele><time>2026-02-19T21:12:14.000Z</time></trkpt>
        <trkpt lat="29.504526" lon="103.290308"><ele>2111.7375</ele><time>2026-02-19T21:12:18.000Z</time></trkpt>
        <trkpt lat="29.504547" lon="103.290248"><ele>2113.5579</ele><time>2026-02-19T21:12:24.000Z</time></trkpt>
        <trkpt lat="29.504529" lon="103.290192"><ele>2115.001</ele><time>2026-02-19T21:12:31.000Z</time></trkpt>
        <trkpt lat="29.504481" lon="103.290176"><ele>2114.1804</ele><time>2026-02-19T21:12:36.000Z</time></trkpt>
        <trkpt lat="29.504426" lon="103.290154"><ele>2113.4456</ele><time>2026-02-19T21:12:40.000Z</time></trkpt>
        <trkpt lat="29.50438" lon="103.290155"><ele>2112.7153</ele><time>2026-02-19T21:12:43.000Z</time></trkpt>
        <trkpt lat="29.504334" lon="103.290135"><ele>2112.906</ele><time>2026-02-19T21:12:47.000Z</time></trkpt>
        <trkpt lat="29.50429" lon="103.290135"><ele>2113.6577</ele><time>2026-02-19T21:12:51.000Z</time></trkpt>
        <trkpt lat="29.504233" lon="103.290137"><ele>2113.6863</ele><time>2026-02-19T21:12:56.000Z</time></trkpt>
        <trkpt lat="29.504192" lon="103.290144"><ele>2113.6587</ele><time>2026-02-19T21:12:59.000Z</time></trkpt>
        <trkpt lat="29.504137" lon="103.290148"><ele>2113.9978</ele><time>2026-02-19T21:13:03.000Z</time></trkpt>
        <trkpt lat="29.504083" lon="103.290137"><ele>2113.6199</ele><time>2026-02-19T21:13:08.000Z</time></trkpt>
        <trkpt lat="29.504039" lon="103.290131"><ele>2112.6838</ele><time>2026-02-19T21:13:12.000Z</time></trkpt>
        <trkpt lat="29.503996" lon="103.290102"><ele>2111.939</ele><time>2026-02-19T21:13:16.000Z</time></trkpt>
        <trkpt lat="29.503952" lon="103.290059"><ele>2110.6565</ele><time>2026-02-19T21:13:21.000Z</time></trkpt>
        <trkpt lat="29.503933" lon="103.290001"><ele>2111.0723</ele><time>2026-02-19T21:13:26.000Z</time></trkpt>
        <trkpt lat="29.503931" lon="103.289946"><ele>2111.3538</ele><time>2026-02-19T21:13:30.000Z</time></trkpt>
        <trkpt lat="29.503928" lon="103.289886"><ele>2110.5984</ele><time>2026-02-19T21:13:35.000Z</time></trkpt>
        <trkpt lat="29.503902" lon="103.289837"><ele>2109.2495</ele><time>2026-02-19T21:13:39.000Z</time></trkpt>
        <trkpt lat="29.503864" lon="103.289802"><ele>2107.3518</ele><time>2026-02-19T21:13:43.000Z</time></trkpt>
        <trkpt lat="29.503817" lon="103.289779"><ele>2105.91</ele><time>2026-02-19T21:13:47.000Z</time></trkpt>
        <trkpt lat="29.503772" lon="103.289774"><ele>2105.8828</ele><time>2026-02-19T21:13:50.000Z</time></trkpt>
        <trkpt lat="29.503717" lon="103.289785"><ele>2105.866</ele><time>2026-02-19T21:13:55.000Z</time></trkpt>
        <trkpt lat="29.503665" lon="103.289798"><ele>2106.844</ele><time>2026-02-19T21:13:59.000Z</time></trkpt>
        <trkpt lat="29.503614" lon="103.289816"><ele>2106.3694</ele><time>2026-02-19T21:14:03.000Z</time></trkpt>
        <trkpt lat="29.503576" lon="103.289838"><ele>2105.6567</ele><time>2026-02-19T21:14:06.000Z</time></trkpt>
        <trkpt lat="29.503533" lon="103.28986"><ele>2104.2896</ele><time>2026-02-19T21:14:09.000Z</time></trkpt>
        <trkpt lat="29.503469" lon="103.289873"><ele>2103.2917</ele><time>2026-02-19T21:14:13.000Z</time></trkpt>
        <trkpt lat="29.503415" lon="103.289877"><ele>2103.5415</ele><time>2026-02-19T21:14:18.000Z</time></trkpt>
        <trkpt lat="29.503363" lon="103.289873"><ele>2105.1873</ele><time>2026-02-19T21:14:22.000Z</time></trkpt>
        <trkpt lat="29.503312" lon="103.289864"><ele>2107.062</ele><time>2026-02-19T21:14:26.000Z</time></trkpt>
        <trkpt lat="29.50327" lon="103.289834"><ele>2106.34</ele><time>2026-02-19T21:14:30.000Z</time></trkpt>
        <trkpt lat="29.503234" lon="103.289785"><ele>2103.6536</ele><time>2026-02-19T21:14:34.000Z</time></trkpt>
        <trkpt lat="29.503215" lon="103.289737"><ele>2101.403</ele><time>2026-02-19T21:14:37.000Z</time></trkpt>
        <trkpt lat="29.503196" lon="103.289675"><ele>2099.4353</ele><time>2026-02-19T21:14:41.000Z</time></trkpt>
        <trkpt lat="29.503199" lon="103.289609"><ele>2096.7156</ele><time>2026-02-19T21:14:46.000Z</time></trkpt>
        <trkpt lat="29.503192" lon="103.28956"><ele>2095.3813</ele><time>2026-02-19T21:14:50.000Z</time></trkpt>
        <trkpt lat="29.503185" lon="103.289501"><ele>2092.6614</ele><time>2026-02-19T21:14:55.000Z</time></trkpt>
        <trkpt lat="29.503164" lon="103.289452"><ele>2090.9595</ele><time>2026-02-19T21:14:59.000Z</time></trkpt>
        <trkpt lat="29.503147" lon="103.289401"><ele>2089.4321</ele><time>2026-02-19T21:15:03.000Z</time></trkpt>
        <trkpt lat="29.503129" lon="103.289343"><ele>2089.0454</ele><time>2026-02-19T21:15:07.000Z</time></trkpt>
        <trkpt lat="29.503117" lon="103.289274"><ele>2087.318</ele><time>2026-02-19T21:15:17.000Z</time></trkpt>
        <trkpt lat="29.503109" lon="103.289238"><ele>2087.0034</ele><time>2026-02-19T21:15:20.000Z</time></trkpt>
        <trkpt lat="29.503089" lon="103.289186"><ele>2088.959</ele><time>2026-02-19T21:15:25.000Z</time></trkpt>
        <trkpt lat="29.503061" lon="103.289132"><ele>2089.716</ele><time>2026-02-19T21:15:30.000Z</time></trkpt>
        <trkpt lat="29.503039" lon="103.289084"><ele>2090.1013</ele><time>2026-02-19T21:15:34.000Z</time></trkpt>
        <trkpt lat="29.50301" lon="103.289032"><ele>2090.6145</ele><time>2026-02-19T21:15:38.000Z</time></trkpt>
        <trkpt lat="29.50298" lon="103.288984"><ele>2090.9407</ele><time>2026-02-19T21:15:42.000Z</time></trkpt>
        <trkpt lat="29.502949" lon="103.288939"><ele>2091.3933</ele><time>2026-02-19T21:15:46.000Z</time></trkpt>
        <trkpt lat="29.502911" lon="103.288889"><ele>2091.4878</ele><time>2026-02-19T21:15:51.000Z</time></trkpt>
        <trkpt lat="29.502875" lon="103.288853"><ele>2091.4949</ele><time>2026-02-19T21:15:55.000Z</time></trkpt>
        <trkpt lat="29.502836" lon="103.28881"><ele>2090.7344</ele><time>2026-02-19T21:16:01.000Z</time></trkpt>
        <trkpt lat="29.502797" lon="103.28877"><ele>2089.1865</ele><time>2026-02-19T21:16:06.000Z</time></trkpt>
        <trkpt lat="29.502769" lon="103.28873"><ele>2088.881</ele><time>2026-02-19T21:16:10.000Z</time></trkpt>
        <trkpt lat="29.50274" lon="103.288681"><ele>2087.8835</ele><time>2026-02-19T21:16:14.000Z</time></trkpt>
        <trkpt lat="29.502734" lon="103.288636"><ele>2087.5134</ele><time>2026-02-19T21:16:17.000Z</time></trkpt>
        <trkpt lat="29.502721" lon="103.288571"><ele>2086.3748</ele><time>2026-02-19T21:16:22.000Z</time></trkpt>
        <trkpt lat="29.502711" lon="103.288521"><ele>2086.429</ele><time>2026-02-19T21:16:25.000Z</time></trkpt>
        <trkpt lat="29.502696" lon="103.288461"><ele>2086.8882</ele><time>2026-02-19T21:16:29.000Z</time></trkpt>
        <trkpt lat="29.502689" lon="103.288397"><ele>2084.8955</ele><time>2026-02-19T21:16:34.000Z</time></trkpt>
        <trkpt lat="29.502679" lon="103.288342"><ele>2083.2817</ele><time>2026-02-19T21:16:38.000Z</time></trkpt>
        <trkpt lat="29.50266" lon="103.288298"><ele>2083.9502</ele><time>2026-02-19T21:16:41.000Z</time></trkpt>
        <trkpt lat="29.502638" lon="103.288253"><ele>2084.657</ele><time>2026-02-19T21:16:44.000Z</time></trkpt>
        <trkpt lat="29.50262" lon="103.288203"><ele>2084.332</ele><time>2026-02-19T21:16:47.000Z</time></trkpt>
        <trkpt lat="29.502578" lon="103.288157"><ele>2081.4138</ele><time>2026-02-19T21:16:52.000Z</time></trkpt>
        <trkpt lat="29.502524" lon="103.288152"><ele>2079.8625</ele><time>2026-02-19T21:16:57.000Z</time></trkpt>
        <trkpt lat="29.502475" lon="103.288156"><ele>2079.1567</ele><time>2026-02-19T21:17:01.000Z</time></trkpt>
        <trkpt lat="29.502424" lon="103.288167"><ele>2078.3892</ele><time>2026-02-19T21:17:05.000Z</time></trkpt>
        <trkpt lat="29.502374" lon="103.288175"><ele>2080.2095</ele><time>2026-02-19T21:17:09.000Z</time></trkpt>
        <trkpt lat="29.502325" lon="103.288175"><ele>2080.2668</ele><time>2026-02-19T21:17:13.000Z</time></trkpt>
        <trkpt lat="29.502257" lon="103.288183"><ele>2085.9663</ele><time>2026-02-19T21:17:22.000Z</time></trkpt>
        <trkpt lat="29.502212" lon="103.288175"><ele>2083.1826</ele><time>2026-02-19T21:17:29.000Z</time></trkpt>
        <trkpt lat="29.502172" lon="103.288181"><ele>2080.8357</ele><time>2026-02-19T21:17:33.000Z</time></trkpt>
        <trkpt lat="29.502119" lon="103.288203"><ele>2078.2434</ele><time>2026-02-19T21:17:38.000Z</time></trkpt>
        <trkpt lat="29.502073" lon="103.288232"><ele>2077.6584</ele><time>2026-02-19T21:17:42.000Z</time></trkpt>
        <trkpt lat="29.502026" lon="103.288258"><ele>2076.773</ele><time>2026-02-19T21:17:46.000Z</time></trkpt>
        <trkpt lat="29.501978" lon="103.288286"><ele>2075.826</ele><time>2026-02-19T21:17:50.000Z</time></trkpt>
        <trkpt lat="29.501936" lon="103.288321"><ele>2074.8303</ele><time>2026-02-19T21:17:54.000Z</time></trkpt>
        <trkpt lat="29.501895" lon="103.288356"><ele>2074.7905</ele><time>2026-02-19T21:17:58.000Z</time></trkpt>
        <trkpt lat="29.501848" lon="103.288387"><ele>2074.2383</ele><time>2026-02-19T21:18:02.000Z</time></trkpt>
        <trkpt lat="29.501801" lon="103.288421"><ele>2073.452</ele><time>2026-02-19T21:18:06.000Z</time></trkpt>
        <trkpt lat="29.501751" lon="103.288441"><ele>2071.5774</ele><time>2026-02-19T21:18:10.000Z</time></trkpt>
        <trkpt lat="29.501699" lon="103.28845"><ele>2070.7307</ele><time>2026-02-19T21:18:14.000Z</time></trkpt>
        <trkpt lat="29.501652" lon="103.288463"><ele>2069.3938</ele><time>2026-02-19T21:18:18.000Z</time></trkpt>
        <trkpt lat="29.501598" lon="103.288457"><ele>2066.904</ele><time>2026-02-19T21:18:40.000Z</time></trkpt>
        <trkpt lat="29.501564" lon="103.288461"><ele>2065.9355</ele><time>2026-02-19T21:18:45.000Z</time></trkpt>
        <trkpt lat="29.501509" lon="103.28848"><ele>2065.8503</ele><time>2026-02-19T21:18:50.000Z</time></trkpt>
        <trkpt lat="29.501456" lon="103.288508"><ele>2066.1987</ele><time>2026-02-19T21:18:55.000Z</time></trkpt>
        <trkpt lat="29.501405" lon="103.288531"><ele>2066.9177</ele><time>2026-02-19T21:18:59.000Z</time></trkpt>
        <trkpt lat="29.501358" lon="103.288555"><ele>2067.3438</ele><time>2026-02-19T21:19:03.000Z</time></trkpt>
        <trkpt lat="29.501306" lon="103.288585"><ele>2066.7915</ele><time>2026-02-19T21:19:08.000Z</time></trkpt>
        <trkpt lat="29.501266" lon="103.288618"><ele>2065.82</ele><time>2026-02-19T21:19:12.000Z</time></trkpt>
        <trkpt lat="29.50122" lon="103.288658"><ele>2065.5752</ele><time>2026-02-19T21:19:17.000Z</time></trkpt>
        <trkpt lat="29.501179" lon="103.288687"><ele>2066.7002</ele><time>2026-02-19T21:19:21.000Z</time></trkpt>
        <trkpt lat="29.501135" lon="103.288703"><ele>2067.6292</ele><time>2026-02-19T21:19:25.000Z</time></trkpt>
        <trkpt lat="29.501095" lon="103.288679"><ele>2066.2058</ele><time>2026-02-19T21:19:29.000Z</time></trkpt>
        <trkpt lat="29.501069" lon="103.28863"><ele>2065.423</ele><time>2026-02-19T21:19:33.000Z</time></trkpt>
        <trkpt lat="29.501047" lon="103.288571"><ele>2064.3564</ele><time>2026-02-19T21:19:37.000Z</time></trkpt>
        <trkpt lat="29.501022" lon="103.288516"><ele>2062.724</ele><time>2026-02-19T21:19:41.000Z</time></trkpt>
        <trkpt lat="29.500991" lon="103.288457"><ele>2063.1665</ele><time>2026-02-19T21:19:48.000Z</time></trkpt>
        <trkpt lat="29.500964" lon="103.288404"><ele>2062.216</ele><time>2026-02-19T21:19:54.000Z</time></trkpt>
        <trkpt lat="29.500937" lon="103.288351"><ele>2061.0771</ele><time>2026-02-19T21:19:59.000Z</time></trkpt>
        <trkpt lat="29.500934" lon="103.28829"><ele>2058.044</ele><time>2026-02-19T21:20:20.000Z</time></trkpt>
        <trkpt lat="29.500942" lon="103.288256"><ele>2057.5796</ele><time>2026-02-19T21:20:24.000Z</time></trkpt>
        <trkpt lat="29.500961" lon="103.28821"><ele>2056.7393</ele><time>2026-02-19T21:20:28.000Z</time></trkpt>
        <trkpt lat="29.500988" lon="103.288154"><ele>2055.6414</ele><time>2026-02-19T21:20:33.000Z</time></trkpt>
        <trkpt lat="29.501017" lon="103.288098"><ele>2053.4944</ele><time>2026-02-19T21:20:38.000Z</time></trkpt>
        <trkpt lat="29.501051" lon="103.288051"><ele>2051.1233</ele><time>2026-02-19T21:20:43.000Z</time></trkpt>
        <trkpt lat="29.501089" lon="103.288008"><ele>2048.9075</ele><time>2026-02-19T21:20:49.000Z</time></trkpt>
        <trkpt lat="29.501128" lon="103.287978"><ele>2048.3828</ele><time>2026-02-19T21:20:53.000Z</time></trkpt>
        <trkpt lat="29.501189" lon="103.287955"><ele>2047.3909</ele><time>2026-02-19T21:20:59.000Z</time></trkpt>
        <trkpt lat="29.501241" lon="103.287954"><ele>2046.8154</ele><time>2026-02-19T21:21:04.000Z</time></trkpt>
        <trkpt lat="29.501288" lon="103.287953"><ele>2045.9689</ele><time>2026-02-19T21:21:08.000Z</time></trkpt>
        <trkpt lat="29.501342" lon="103.287932"><ele>2044.7323</ele><time>2026-02-19T21:21:13.000Z</time></trkpt>
        <trkpt lat="29.501368" lon="103.287893"><ele>2044.7682</ele><time>2026-02-19T21:21:16.000Z</time></trkpt>
        <trkpt lat="29.50139" lon="103.287831"><ele>2046.0974</ele><time>2026-02-19T21:21:21.000Z</time></trkpt>
        <trkpt lat="29.501398" lon="103.287766"><ele>2046.5284</ele><time>2026-02-19T21:21:26.000Z</time></trkpt>
        <trkpt lat="29.501392" lon="103.287714"><ele>2046.6724</ele><time>2026-02-19T21:21:30.000Z</time></trkpt>
        <trkpt lat="29.501384" lon="103.287661"><ele>2046.6895</ele><time>2026-02-19T21:21:34.000Z</time></trkpt>
        <trkpt lat="29.501375" lon="103.287604"><ele>2046.8539</ele><time>2026-02-19T21:21:38.000Z</time></trkpt>
        <trkpt lat="29.501363" lon="103.287541"><ele>2046.432</ele><time>2026-02-19T21:21:42.000Z</time></trkpt>
        <trkpt lat="29.501343" lon="103.287481"><ele>2047.1024</ele><time>2026-02-19T21:21:46.000Z</time></trkpt>
        <trkpt lat="29.501331" lon="103.28742"><ele>2045.7749</ele><time>2026-02-19T21:21:50.000Z</time></trkpt>
        <trkpt lat="29.501309" lon="103.287367"><ele>2045.5518</ele><time>2026-02-19T21:21:54.000Z</time></trkpt>
        <trkpt lat="29.501287" lon="103.287317"><ele>2046.8198</ele><time>2026-02-19T21:21:58.000Z</time></trkpt>
        <trkpt lat="29.501266" lon="103.287257"><ele>2046.4099</ele><time>2026-02-19T21:22:03.000Z</time></trkpt>
        <trkpt lat="29.501261" lon="103.287194"><ele>2043.4448</ele><time>2026-02-19T21:22:08.000Z</time></trkpt>
        <trkpt lat="29.501283" lon="103.287141"><ele>2041.9851</ele><time>2026-02-19T21:22:12.000Z</time></trkpt>
        <trkpt lat="29.501329" lon="103.287112"><ele>2039.5719</ele><time>2026-02-19T21:22:16.000Z</time></trkpt>
        <trkpt lat="29.501379" lon="103.287086"><ele>2037.2948</ele><time>2026-02-19T21:22:20.000Z</time></trkpt>
        <trkpt lat="29.501429" lon="103.287064"><ele>2035.8313</ele><time>2026-02-19T21:22:24.000Z</time></trkpt>
        <trkpt lat="29.501471" lon="103.287024"><ele>2034.7544</ele><time>2026-02-19T21:22:45.000Z</time></trkpt>
        <trkpt lat="29.501476" lon="103.286985"><ele>2035.7759</ele><time>2026-02-19T21:22:51.000Z</time></trkpt>
        <trkpt lat="29.501466" lon="103.286928"><ele>2035.7251</ele><time>2026-02-19T21:22:56.000Z</time></trkpt>
        <trkpt lat="29.501431" lon="103.286884"><ele>2035.9519</ele><time>2026-02-19T21:23:01.000Z</time></trkpt>
        <trkpt lat="29.501376" lon="103.286866"><ele>2041.2289</ele><time>2026-02-19T21:23:21.000Z</time></trkpt>
        <trkpt lat="29.501347" lon="103.286857"><ele>2039.6412</ele><time>2026-02-19T21:23:25.000Z</time></trkpt>
        <trkpt lat="29.501292" lon="103.286839"><ele>2037.2748</ele><time>2026-02-19T21:23:30.000Z</time></trkpt>
        <trkpt lat="29.501233" lon="103.286829"><ele>2036.4065</ele><time>2026-02-19T21:23:34.000Z</time></trkpt>
        <trkpt lat="29.501166" lon="103.286823"><ele>2036.0245</ele><time>2026-02-19T21:23:39.000Z</time></trkpt>
        <trkpt lat="29.50112" lon="103.286824"><ele>2036.5952</ele><time>2026-02-19T21:23:42.000Z</time></trkpt>
        <trkpt lat="29.501074" lon="103.286829"><ele>2036.1824</ele><time>2026-02-19T21:23:45.000Z</time></trkpt>
        <trkpt lat="29.501026" lon="103.286838"><ele>2036.0388</ele><time>2026-02-19T21:23:48.000Z</time></trkpt>
        <trkpt lat="29.500978" lon="103.28684"><ele>2036.5946</ele><time>2026-02-19T21:23:51.000Z</time></trkpt>
        <trkpt lat="29.500921" lon="103.286845"><ele>2039.0198</ele><time>2026-02-19T21:24:07.000Z</time></trkpt>
        <trkpt lat="29.500893" lon="103.286831"><ele>2037.7219</ele><time>2026-02-19T21:24:13.000Z</time></trkpt>
        <trkpt lat="29.500839" lon="103.286819"><ele>2037.2504</ele><time>2026-02-19T21:24:18.000Z</time></trkpt>
        <trkpt lat="29.50079" lon="103.2868"><ele>2036.5496</ele><time>2026-02-19T21:24:22.000Z</time></trkpt>
        <trkpt lat="29.500755" lon="103.286763"><ele>2034.8837</ele><time>2026-02-19T21:24:26.000Z</time></trkpt>
        <trkpt lat="29.500721" lon="103.286726"><ele>2033.7137</ele><time>2026-02-19T21:24:30.000Z</time></trkpt>
        <trkpt lat="29.500696" lon="103.286675"><ele>2033.3629</ele><time>2026-02-19T21:24:34.000Z</time></trkpt>
        <trkpt lat="29.500677" lon="103.286621"><ele>2033.9802</ele><time>2026-02-19T21:24:38.000Z</time></trkpt>
        <trkpt lat="29.500648" lon="103.286576"><ele>2036.1119</ele><time>2026-02-19T21:24:42.000Z</time></trkpt>
        <trkpt lat="29.500618" lon="103.286545"><ele>2036.7233</ele><time>2026-02-19T21:24:45.000Z</time></trkpt>
        <trkpt lat="29.500578" lon="103.286522"><ele>2037.5497</ele><time>2026-02-19T21:24:48.000Z</time></trkpt>
        <trkpt lat="29.500527" lon="103.286497"><ele>2038.6604</ele><time>2026-02-19T21:24:52.000Z</time></trkpt>
        <trkpt lat="29.500481" lon="103.286469"><ele>2038.7792</ele><time>2026-02-19T21:24:56.000Z</time></trkpt>
        <trkpt lat="29.500442" lon="103.286431"><ele>2037.3264</ele><time>2026-02-19T21:25:00.000Z</time></trkpt>
        <trkpt lat="29.500412" lon="103.286381"><ele>2034.9625</ele><time>2026-02-19T21:25:04.000Z</time></trkpt>
        <trkpt lat="29.500387" lon="103.286331"><ele>2030.6675</ele><time>2026-02-19T21:25:08.000Z</time></trkpt>
        <trkpt lat="29.500357" lon="103.286282"><ele>2028.197</ele><time>2026-02-19T21:25:12.000Z</time></trkpt>
        <trkpt lat="29.500316" lon="103.286242"><ele>2026.8354</ele><time>2026-02-19T21:25:16.000Z</time></trkpt>
        <trkpt lat="29.500275" lon="103.286238"><ele>2025.235</ele><time>2026-02-19T21:25:19.000Z</time></trkpt>
        <trkpt lat="29.500217" lon="103.286243"><ele>2026.0472</ele><time>2026-02-19T21:25:23.000Z</time></trkpt>
        <trkpt lat="29.500159" lon="103.286249"><ele>2026.9882</ele><time>2026-02-19T21:25:27.000Z</time></trkpt>
        <trkpt lat="29.500104" lon="103.286242"><ele>2027.3104</ele><time>2026-02-19T21:25:31.000Z</time></trkpt>
        <trkpt lat="29.50006" lon="103.286251"><ele>2027.8254</ele><time>2026-02-19T21:25:34.000Z</time></trkpt>
        <trkpt lat="29.500005" lon="103.286256"><ele>2028.4329</ele><time>2026-02-19T21:25:38.000Z</time></trkpt>
        <trkpt lat="29.499942" lon="103.286252"><ele>2025.8905</ele><time>2026-02-19T21:25:44.000Z</time></trkpt>
        <trkpt lat="29.499904" lon="103.286233"><ele>2024.625</ele><time>2026-02-19T21:25:48.000Z</time></trkpt>
        <trkpt lat="29.499852" lon="103.286223"><ele>2025.3992</ele><time>2026-02-19T21:25:54.000Z</time></trkpt>
        <trkpt lat="29.499805" lon="103.286208"><ele>2027.485</ele><time>2026-02-19T21:25:59.000Z</time></trkpt>
        <trkpt lat="29.499763" lon="103.286204"><ele>2029.8485</ele><time>2026-02-19T21:26:02.000Z</time></trkpt>
        <trkpt lat="29.499714" lon="103.286185"><ele>2030.8555</ele><time>2026-02-19T21:26:06.000Z</time></trkpt>
        <trkpt lat="29.499663" lon="103.286166"><ele>2031.1239</ele><time>2026-02-19T21:26:10.000Z</time></trkpt>
        <trkpt lat="29.499616" lon="103.286146"><ele>2031.2736</ele><time>2026-02-19T21:26:13.000Z</time></trkpt>
        <trkpt lat="29.49956" lon="103.286119"><ele>2031.0228</ele><time>2026-02-19T21:26:17.000Z</time></trkpt>
        <trkpt lat="29.499512" lon="103.286111"><ele>2031.3013</ele><time>2026-02-19T21:26:20.000Z</time></trkpt>
        <trkpt lat="29.499455" lon="103.286105"><ele>2029.6847</ele><time>2026-02-19T21:26:24.000Z</time></trkpt>
        <trkpt lat="29.499408" lon="103.286083"><ele>2027.7618</ele><time>2026-02-19T21:26:29.000Z</time></trkpt>
        <trkpt lat="29.499376" lon="103.286036"><ele>2025.2782</ele><time>2026-02-19T21:26:34.000Z</time></trkpt>
        <trkpt lat="29.499357" lon="103.285989"><ele>2023.7052</ele><time>2026-02-19T21:26:38.000Z</time></trkpt>
        <trkpt lat="29.499329" lon="103.28594"><ele>2023.3291</ele><time>2026-02-19T21:26:42.000Z</time></trkpt>
        <trkpt lat="29.499311" lon="103.285886"><ele>2021.5764</ele><time>2026-02-19T21:26:46.000Z</time></trkpt>
        <trkpt lat="29.499298" lon="103.285834"><ele>2020.2625</ele><time>2026-02-19T21:26:49.000Z</time></trkpt>
        <trkpt lat="29.499289" lon="103.285769"><ele>2016.9454</ele><time>2026-02-19T21:26:53.000Z</time></trkpt>
        <trkpt lat="29.499286" lon="103.285709"><ele>2013.4341</ele><time>2026-02-19T21:26:57.000Z</time></trkpt>
        <trkpt lat="29.499288" lon="103.28565"><ele>2009.8483</ele><time>2026-02-19T21:27:01.000Z</time></trkpt>
        <trkpt lat="29.499268" lon="103.285606"><ele>2008.658</ele><time>2026-02-19T21:27:04.000Z</time></trkpt>
        <trkpt lat="29.499241" lon="103.285565"><ele>2008.8568</ele><time>2026-02-19T21:27:07.000Z</time></trkpt>
        <trkpt lat="29.499197" lon="103.285544"><ele>2008.0067</ele><time>2026-02-19T21:27:10.000Z</time></trkpt>
        <trkpt lat="29.499149" lon="103.285523"><ele>2007.764</ele><time>2026-02-19T21:27:13.000Z</time></trkpt>
        <trkpt lat="29.499092" lon="103.285496"><ele>2009.0426</ele><time>2026-02-19T21:27:17.000Z</time></trkpt>
        <trkpt lat="29.499046" lon="103.285463"><ele>2010.2886</ele><time>2026-02-19T21:27:21.000Z</time></trkpt>
        <trkpt lat="29.49903" lon="103.285407"><ele>2011.6663</ele><time>2026-02-19T21:27:25.000Z</time></trkpt>
        <trkpt lat="29.499043" lon="103.285357"><ele>2009.7113</ele><time>2026-02-19T21:27:28.000Z</time></trkpt>
        <trkpt lat="29.49906" lon="103.285296"><ele>2005.9944</ele><time>2026-02-19T21:27:32.000Z</time></trkpt>
        <trkpt lat="29.499072" lon="103.285236"><ele>2003.6387</ele><time>2026-02-19T21:27:36.000Z</time></trkpt>
        <trkpt lat="29.499088" lon="103.28518"><ele>2001.5367</ele><time>2026-02-19T21:27:39.000Z</time></trkpt>
        <trkpt lat="29.499116" lon="103.285131"><ele>1999.5303</ele><time>2026-02-19T21:27:43.000Z</time></trkpt>
        <trkpt lat="29.499149" lon="103.285085"><ele>1997.768</ele><time>2026-02-19T21:27:47.000Z</time></trkpt>
        <trkpt lat="29.499181" lon="103.285035"><ele>1995.9137</ele><time>2026-02-19T21:27:51.000Z</time></trkpt>
        <trkpt lat="29.499176" lon="103.284992"><ele>1995.0325</ele><time>2026-02-19T21:27:54.000Z</time></trkpt>
        <trkpt lat="29.499149" lon="103.284956"><ele>1996.3757</ele><time>2026-02-19T21:27:57.000Z</time></trkpt>
        <trkpt lat="29.499105" lon="103.284936"><ele>1998.7948</ele><time>2026-02-19T21:28:00.000Z</time></trkpt>
        <trkpt lat="29.499053" lon="103.284925"><ele>2000</ele><time>2026-02-19T21:28:03.000Z</time></trkpt>
        <trkpt lat="29.498988" lon="103.284925"><ele>2000.283</ele><time>2026-02-19T21:28:07.000Z</time></trkpt>
        <trkpt lat="29.498936" lon="103.284944"><ele>2002.5481</ele><time>2026-02-19T21:28:10.000Z</time></trkpt>
        <trkpt lat="29.498873" lon="103.284963"><ele>2005.1509</ele><time>2026-02-19T21:28:14.000Z</time></trkpt>
        <trkpt lat="29.498815" lon="103.284969"><ele>2005.1808</ele><time>2026-02-19T21:28:18.000Z</time></trkpt>
        <trkpt lat="29.498766" lon="103.284969"><ele>2003.6458</ele><time>2026-02-19T21:28:22.000Z</time></trkpt>
        <trkpt lat="29.498719" lon="103.284963"><ele>2003.0793</ele><time>2026-02-19T21:28:26.000Z</time></trkpt>
        <trkpt lat="29.498672" lon="103.28494"><ele>2002.7493</ele><time>2026-02-19T21:28:31.000Z</time></trkpt>
        <trkpt lat="29.49864" lon="103.284901"><ele>2002.0455</ele><time>2026-02-19T21:28:37.000Z</time></trkpt>
        <trkpt lat="29.498608" lon="103.284865"><ele>2002.2832</ele><time>2026-02-19T21:28:41.000Z</time></trkpt>
        <trkpt lat="29.498572" lon="103.284833"><ele>2001.5293</ele><time>2026-02-19T21:28:45.000Z</time></trkpt>
        <trkpt lat="29.498526" lon="103.284801"><ele>2002.2793</ele><time>2026-02-19T21:28:49.000Z</time></trkpt>
        <trkpt lat="29.49848" lon="103.284772"><ele>2001.1869</ele><time>2026-02-19T21:28:53.000Z</time></trkpt>
        <trkpt lat="29.498438" lon="103.284755"><ele>1999.1364</ele><time>2026-02-19T21:28:56.000Z</time></trkpt>
        <trkpt lat="29.498393" lon="103.284738"><ele>1996.3074</ele><time>2026-02-19T21:28:59.000Z</time></trkpt>
        <trkpt lat="29.498339" lon="103.284717"><ele>1993.994</ele><time>2026-02-19T21:29:03.000Z</time></trkpt>
        <trkpt lat="29.498287" lon="103.284696"><ele>1991.1569</ele><time>2026-02-19T21:29:07.000Z</time></trkpt>
        <trkpt lat="29.498236" lon="103.284678"><ele>1988.1696</ele><time>2026-02-19T21:29:11.000Z</time></trkpt>
        <trkpt lat="29.498179" lon="103.284665"><ele>1986.7122</ele><time>2026-02-19T21:29:16.000Z</time></trkpt>
        <trkpt lat="29.498134" lon="103.284649"><ele>1986.3419</ele><time>2026-02-19T21:29:21.000Z</time></trkpt>
        <trkpt lat="29.498089" lon="103.284646"><ele>1987.2128</ele><time>2026-02-19T21:29:25.000Z</time></trkpt>
        <trkpt lat="29.498047" lon="103.284638"><ele>1987.0472</ele><time>2026-02-19T21:29:28.000Z</time></trkpt>
        <trkpt lat="29.498002" lon="103.284633"><ele>1986.6111</ele><time>2026-02-19T21:29:31.000Z</time></trkpt>
        <trkpt lat="29.497939" lon="103.284629"><ele>1986.9633</ele><time>2026-02-19T21:29:35.000Z</time></trkpt>
        <trkpt lat="29.497882" lon="103.284639"><ele>1988.5002</ele><time>2026-02-19T21:29:39.000Z</time></trkpt>
        <trkpt lat="29.49783" lon="103.284639"><ele>1987.7478</ele><time>2026-02-19T21:29:43.000Z</time></trkpt>
        <trkpt lat="29.497773" lon="103.284652"><ele>1986.3501</ele><time>2026-02-19T21:29:47.000Z</time></trkpt>
        <trkpt lat="29.497729" lon="103.284663"><ele>1985.6906</ele><time>2026-02-19T21:29:51.000Z</time></trkpt>
        <trkpt lat="29.497681" lon="103.284673"><ele>1985.9767</ele><time>2026-02-19T21:29:55.000Z</time></trkpt>
        <trkpt lat="29.49764" lon="103.284652"><ele>1987.3981</ele><time>2026-02-19T21:29:59.000Z</time></trkpt>
        <trkpt lat="29.497608" lon="103.284605"><ele>1988.4846</ele><time>2026-02-19T21:30:03.000Z</time></trkpt>
        <trkpt lat="29.497589" lon="103.284545"><ele>1986.3489</ele><time>2026-02-19T21:30:07.000Z</time></trkpt>
        <trkpt lat="29.497576" lon="103.284482"><ele>1982.9288</ele><time>2026-02-19T21:30:11.000Z</time></trkpt>
        <trkpt lat="29.497572" lon="103.284411"><ele>1976.9202</ele><time>2026-02-19T21:30:16.000Z</time></trkpt>
        <trkpt lat="29.497558" lon="103.284354"><ele>1974.4414</ele><time>2026-02-19T21:30:20.000Z</time></trkpt>
        <trkpt lat="29.497536" lon="103.284301"><ele>1974.2053</ele><time>2026-02-19T21:30:24.000Z</time></trkpt>
        <trkpt lat="29.497511" lon="103.284253"><ele>1974.4271</ele><time>2026-02-19T21:30:28.000Z</time></trkpt>
        <trkpt lat="29.497476" lon="103.284211"><ele>1977.2644</ele><time>2026-02-19T21:30:32.000Z</time></trkpt>
        <trkpt lat="29.497431" lon="103.284182"><ele>1979.3888</ele><time>2026-02-19T21:30:36.000Z</time></trkpt>
        <trkpt lat="29.497376" lon="103.284161"><ele>1982.6104</ele><time>2026-02-19T21:30:42.000Z</time></trkpt>
        <trkpt lat="29.497336" lon="103.284128"><ele>1983.0685</ele><time>2026-02-19T21:30:46.000Z</time></trkpt>
        <trkpt lat="29.497305" lon="103.284085"><ele>1981.1581</ele><time>2026-02-19T21:30:50.000Z</time></trkpt>
        <trkpt lat="29.497266" lon="103.28405"><ele>1980.4462</ele><time>2026-02-19T21:30:54.000Z</time></trkpt>
        <trkpt lat="29.497218" lon="103.284011"><ele>1979.412</ele><time>2026-02-19T21:30:59.000Z</time></trkpt>
        <trkpt lat="29.497185" lon="103.283974"><ele>1977.7821</ele><time>2026-02-19T21:31:03.000Z</time></trkpt>
        <trkpt lat="29.497156" lon="103.28393"><ele>1975.6058</ele><time>2026-02-19T21:31:07.000Z</time></trkpt>
        <trkpt lat="29.49713" lon="103.28388"><ele>1976.2828</ele><time>2026-02-19T21:31:11.000Z</time></trkpt>
        <trkpt lat="29.497136" lon="103.283819"><ele>1977.3209</ele><time>2026-02-19T21:31:15.000Z</time></trkpt>
        <trkpt lat="29.497162" lon="103.28377"><ele>1975.5464</ele><time>2026-02-19T21:31:18.000Z</time></trkpt>
        <trkpt lat="29.497204" lon="103.283724"><ele>1970.3125</ele><time>2026-02-19T21:31:22.000Z</time></trkpt>
        <trkpt lat="29.497224" lon="103.283672"><ele>1964.8547</ele><time>2026-02-19T21:31:26.000Z</time></trkpt>
        <trkpt lat="29.497204" lon="103.28363"><ele>1962.4198</ele><time>2026-02-19T21:31:29.000Z</time></trkpt>
        <trkpt lat="29.497162" lon="103.283584"><ele>1960.2389</ele><time>2026-02-19T21:31:33.000Z</time></trkpt>
        <trkpt lat="29.497123" lon="103.283533"><ele>1960.1982</ele><time>2026-02-19T21:31:37.000Z</time></trkpt>
        <trkpt lat="29.49709" lon="103.283486"><ele>1962.9913</ele><time>2026-02-19T21:31:41.000Z</time></trkpt>
        <trkpt lat="29.49707" lon="103.283435"><ele>1965.3131</ele><time>2026-02-19T21:31:45.000Z</time></trkpt>
        <trkpt lat="29.497046" lon="103.283383"><ele>1965.9314</ele><time>2026-02-19T21:31:49.000Z</time></trkpt>
        <trkpt lat="29.49703" lon="103.28333"><ele>1967.1388</ele><time>2026-02-19T21:31:52.000Z</time></trkpt>
        <trkpt lat="29.497014" lon="103.283273"><ele>1966.9817</ele><time>2026-02-19T21:31:56.000Z</time></trkpt>
        <trkpt lat="29.496994" lon="103.283216"><ele>1965.1106</ele><time>2026-02-19T21:32:00.000Z</time></trkpt>
        <trkpt lat="29.496972" lon="103.283166"><ele>1962.2781</ele><time>2026-02-19T21:32:04.000Z</time></trkpt>
        <trkpt lat="29.496949" lon="103.283105"><ele>1959.726</ele><time>2026-02-19T21:32:09.000Z</time></trkpt>
        <trkpt lat="29.496922" lon="103.283069"><ele>1959.6918</ele><time>2026-02-19T21:32:12.000Z</time></trkpt>
        <trkpt lat="29.496882" lon="103.283027"><ele>1959.1476</ele><time>2026-02-19T21:32:16.000Z</time></trkpt>
        <trkpt lat="29.496828" lon="103.283015"><ele>1954.8488</ele><time>2026-02-19T21:32:22.000Z</time></trkpt>
        <trkpt lat="29.496792" lon="103.28305"><ele>1953.4604</ele><time>2026-02-19T21:32:27.000Z</time></trkpt>
        <trkpt lat="29.496761" lon="103.283106"><ele>1956.0397</ele><time>2026-02-19T21:32:33.000Z</time></trkpt>
        <trkpt lat="29.496739" lon="103.283152"><ele>1957.9841</ele><time>2026-02-19T21:32:37.000Z</time></trkpt>
        <trkpt lat="29.496704" lon="103.283204"><ele>1958.9674</ele><time>2026-02-19T21:32:42.000Z</time></trkpt>
        <trkpt lat="29.496678" lon="103.283253"><ele>1959.0153</ele><time>2026-02-19T21:32:47.000Z</time></trkpt>
        <trkpt lat="29.496662" lon="103.283298"><ele>1958.4226</ele><time>2026-02-19T21:32:50.000Z</time></trkpt>
        <trkpt lat="29.496643" lon="103.283366"><ele>1959.4437</ele><time>2026-02-19T21:32:55.000Z</time></trkpt>
        <trkpt lat="29.496617" lon="103.283426"><ele>1961.2981</ele><time>2026-02-19T21:33:00.000Z</time></trkpt>
        <trkpt lat="29.496586" lon="103.283479"><ele>1966.3789</ele><time>2026-02-19T21:33:14.000Z</time></trkpt>
        <trkpt lat="29.49656" lon="103.283499"><ele>1966.8518</ele><time>2026-02-19T21:33:18.000Z</time></trkpt>
        <trkpt lat="29.496519" lon="103.283523"><ele>1965.6016</ele><time>2026-02-19T21:33:22.000Z</time></trkpt>
        <trkpt lat="29.496462" lon="103.283549"><ele>1965.9973</ele><time>2026-02-19T21:33:27.000Z</time></trkpt>
        <trkpt lat="29.496408" lon="103.283577"><ele>1964.8628</ele><time>2026-02-19T21:33:32.000Z</time></trkpt>
        <trkpt lat="29.496362" lon="103.283591"><ele>1965.3838</ele><time>2026-02-19T21:33:36.000Z</time></trkpt>
        <trkpt lat="29.496317" lon="103.283605"><ele>1965.592</ele><time>2026-02-19T21:33:40.000Z</time></trkpt>
        <trkpt lat="29.496263" lon="103.283599"><ele>1966.3109</ele><time>2026-02-19T21:33:45.000Z</time></trkpt>
        <trkpt lat="29.496203" lon="103.283598"><ele>1966.2245</ele><time>2026-02-19T21:33:58.000Z</time></trkpt>
        <trkpt lat="29.496164" lon="103.283585"><ele>1965.7566</ele><time>2026-02-19T21:34:03.000Z</time></trkpt>
        <trkpt lat="29.496113" lon="103.283578"><ele>1965.9456</ele><time>2026-02-19T21:34:07.000Z</time></trkpt>
        <trkpt lat="29.496066" lon="103.283572"><ele>1964.9106</ele><time>2026-02-19T21:34:10.000Z</time></trkpt>
        <trkpt lat="29.496005" lon="103.28357"><ele>1963.3289</ele><time>2026-02-19T21:34:14.000Z</time></trkpt>
        <trkpt lat="29.495944" lon="103.283563"><ele>1962.8953</ele><time>2026-02-19T21:34:18.000Z</time></trkpt>
        <trkpt lat="29.495891" lon="103.283552"><ele>1963.4896</ele><time>2026-02-19T21:34:22.000Z</time></trkpt>
        <trkpt lat="29.49584" lon="103.283535"><ele>1964.7109</ele><time>2026-02-19T21:34:26.000Z</time></trkpt>
        <trkpt lat="29.495797" lon="103.283508"><ele>1964.8462</ele><time>2026-02-19T21:34:30.000Z</time></trkpt>
        <trkpt lat="29.495754" lon="103.283481"><ele>1963.819</ele><time>2026-02-19T21:34:34.000Z</time></trkpt>
        <trkpt lat="29.495711" lon="103.283453"><ele>1963.1376</ele><time>2026-02-19T21:34:38.000Z</time></trkpt>
        <trkpt lat="29.49567" lon="103.283423"><ele>1963.287</ele><time>2026-02-19T21:34:42.000Z</time></trkpt>
        <trkpt lat="29.49564" lon="103.283379"><ele>1963.362</ele><time>2026-02-19T21:34:46.000Z</time></trkpt>
        <trkpt lat="29.495625" lon="103.283318"><ele>1963.0226</ele><time>2026-02-19T21:34:50.000Z</time></trkpt>
        <trkpt lat="29.495602" lon="103.283263"><ele>1960.099</ele><time>2026-02-19T21:34:55.000Z</time></trkpt>
        <trkpt lat="29.495551" lon="103.283248"><ele>1958.1318</ele><time>2026-02-19T21:34:59.000Z</time></trkpt>
        <trkpt lat="29.495499" lon="103.283277"><ele>1957.663</ele><time>2026-02-19T21:35:03.000Z</time></trkpt>
        <trkpt lat="29.495452" lon="103.28332"><ele>1958.7214</ele><time>2026-02-19T21:35:07.000Z</time></trkpt>
        <trkpt lat="29.495402" lon="103.283362"><ele>1959.3623</ele><time>2026-02-19T21:35:11.000Z</time></trkpt>
        <trkpt lat="29.495352" lon="103.283382"><ele>1959.9464</ele><time>2026-02-19T21:35:15.000Z</time></trkpt>
        <trkpt lat="29.495303" lon="103.283372"><ele>1959.6521</ele><time>2026-02-19T21:35:19.000Z</time></trkpt>
        <trkpt lat="29.495253" lon="103.283359"><ele>1959.7256</ele><time>2026-02-19T21:35:23.000Z</time></trkpt>
        <trkpt lat="29.495204" lon="103.283342"><ele>1960.7302</ele><time>2026-02-19T21:35:27.000Z</time></trkpt>
        <trkpt lat="29.495156" lon="103.283327"><ele>1960.8055</ele><time>2026-02-19T21:35:31.000Z</time></trkpt>
        <trkpt lat="29.495117" lon="103.283281"><ele>1960.0105</ele><time>2026-02-19T21:35:36.000Z</time></trkpt>
        <trkpt lat="29.495083" lon="103.283237"><ele>1958.783</ele><time>2026-02-19T21:35:40.000Z</time></trkpt>
        <trkpt lat="29.495043" lon="103.283198"><ele>1958.4362</ele><time>2026-02-19T21:35:44.000Z</time></trkpt>
        <trkpt lat="29.494997" lon="103.283164"><ele>1956.9264</ele><time>2026-02-19T21:35:48.000Z</time></trkpt>
        <trkpt lat="29.494951" lon="103.283125"><ele>1957.754</ele><time>2026-02-19T21:35:52.000Z</time></trkpt>
        <trkpt lat="29.494902" lon="103.283094"><ele>1960.1143</ele><time>2026-02-19T21:35:56.000Z</time></trkpt>
        <trkpt lat="29.49485" lon="103.283071"><ele>1960.9647</ele><time>2026-02-19T21:36:00.000Z</time></trkpt>
        <trkpt lat="29.4948" lon="103.283042"><ele>1959.7607</ele><time>2026-02-19T21:36:03.000Z</time></trkpt>
        <trkpt lat="29.494757" lon="103.283008"><ele>1958.0548</ele><time>2026-02-19T21:36:07.000Z</time></trkpt>
        <trkpt lat="29.494716" lon="103.282972"><ele>1956.0447</ele><time>2026-02-19T21:36:11.000Z</time></trkpt>
        <trkpt lat="29.494678" lon="103.282936"><ele>1953.9197</ele><time>2026-02-19T21:36:15.000Z</time></trkpt>
        <trkpt lat="29.494637" lon="103.282901"><ele>1952.806</ele><time>2026-02-19T21:36:19.000Z</time></trkpt>
        <trkpt lat="29.494596" lon="103.28287"><ele>1951.7681</ele><time>2026-02-19T21:36:23.000Z</time></trkpt>
        <trkpt lat="29.494543" lon="103.282863"><ele>1950.9208</ele><time>2026-02-19T21:36:27.000Z</time></trkpt>
        <trkpt lat="29.494491" lon="103.282881"><ele>1951.7854</ele><time>2026-02-19T21:36:31.000Z</time></trkpt>
        <trkpt lat="29.494439" lon="103.282887"><ele>1952.2738</ele><time>2026-02-19T21:36:35.000Z</time></trkpt>
        <trkpt lat="29.494385" lon="103.282892"><ele>1953.0088</ele><time>2026-02-19T21:36:39.000Z</time></trkpt>
        <trkpt lat="29.494332" lon="103.282887"><ele>1953.8287</ele><time>2026-02-19T21:36:43.000Z</time></trkpt>
        <trkpt lat="29.494286" lon="103.282861"><ele>1952.948</ele><time>2026-02-19T21:36:47.000Z</time></trkpt>
        <trkpt lat="29.494233" lon="103.282846"><ele>1953.1951</ele><time>2026-02-19T21:36:52.000Z</time></trkpt>
        <trkpt lat="29.494187" lon="103.282833"><ele>1952.336</ele><time>2026-02-19T21:36:56.000Z</time></trkpt>
        <trkpt lat="29.494139" lon="103.282838"><ele>1953.075</ele><time>2026-02-19T21:37:01.000Z</time></trkpt>
        <trkpt lat="29.494088" lon="103.282846"><ele>1953.0665</ele><time>2026-02-19T21:37:05.000Z</time></trkpt>
        <trkpt lat="29.494036" lon="103.282836"><ele>1952.0464</ele><time>2026-02-19T21:37:09.000Z</time></trkpt>
        <trkpt lat="29.493987" lon="103.282829"><ele>1952.2667</ele><time>2026-02-19T21:37:13.000Z</time></trkpt>
        <trkpt lat="29.493937" lon="103.282811"><ele>1951.0189</ele><time>2026-02-19T21:37:17.000Z</time></trkpt>
        <trkpt lat="29.493888" lon="103.282788"><ele>1950.2909</ele><time>2026-02-19T21:37:21.000Z</time></trkpt>
        <trkpt lat="29.49384" lon="103.282763"><ele>1948.5808</ele><time>2026-02-19T21:37:25.000Z</time></trkpt>
        <trkpt lat="29.493796" lon="103.282736"><ele>1947.3964</ele><time>2026-02-19T21:37:29.000Z</time></trkpt>
        <trkpt lat="29.493754" lon="103.282709"><ele>1946.333</ele><time>2026-02-19T21:37:33.000Z</time></trkpt>
        <trkpt lat="29.49371" lon="103.282664"><ele>1943.9626</ele><time>2026-02-19T21:37:38.000Z</time></trkpt>
        <trkpt lat="29.493679" lon="103.282621"><ele>1943.7961</ele><time>2026-02-19T21:37:42.000Z</time></trkpt>
        <trkpt lat="29.493644" lon="103.282579"><ele>1945.0653</ele><time>2026-02-19T21:37:46.000Z</time></trkpt>
        <trkpt lat="29.493605" lon="103.282541"><ele>1945.2045</ele><time>2026-02-19T21:37:50.000Z</time></trkpt>
        <trkpt lat="29.493566" lon="103.282502"><ele>1943.9875</ele><time>2026-02-19T21:37:54.000Z</time></trkpt>
        <trkpt lat="29.493532" lon="103.282463"><ele>1943.7778</ele><time>2026-02-19T21:37:58.000Z</time></trkpt>
        <trkpt lat="29.493499" lon="103.282424"><ele>1945.3799</ele><time>2026-02-19T21:38:02.000Z</time></trkpt>
        <trkpt lat="29.493454" lon="103.282402"><ele>1945.7561</ele><time>2026-02-19T21:38:06.000Z</time></trkpt>
        <trkpt lat="29.493402" lon="103.282394"><ele>1946.0256</ele><time>2026-02-19T21:38:09.000Z</time></trkpt>
        <trkpt lat="29.493348" lon="103.282405"><ele>1945.8352</ele><time>2026-02-19T21:38:13.000Z</time></trkpt>
        <trkpt lat="29.493288" lon="103.282405"><ele>1945.4858</ele><time>2026-02-19T21:38:24.000Z</time></trkpt>
        <trkpt lat="29.49325" lon="103.282397"><ele>1945.0563</ele><time>2026-02-19T21:38:29.000Z</time></trkpt>
        <trkpt lat="29.493198" lon="103.28237"><ele>1944.7877</ele><time>2026-02-19T21:38:34.000Z</time></trkpt>
        <trkpt lat="29.493147" lon="103.282348"><ele>1944.2555</ele><time>2026-02-19T21:38:38.000Z</time></trkpt>
        <trkpt lat="29.493098" lon="103.282331"><ele>1943.4358</ele><time>2026-02-19T21:38:42.000Z</time></trkpt>
        <trkpt lat="29.493053" lon="103.28231"><ele>1942.2192</ele><time>2026-02-19T21:38:46.000Z</time></trkpt>
        <trkpt lat="29.493018" lon="103.282285"><ele>1941.9083</ele><time>2026-02-19T21:38:49.000Z</time></trkpt>
        <trkpt lat="29.492971" lon="103.282258"><ele>1941.8818</ele><time>2026-02-19T21:38:53.000Z</time></trkpt>
        <trkpt lat="29.492915" lon="103.282233"><ele>1941.8716</ele><time>2026-02-19T21:38:58.000Z</time></trkpt>
        <trkpt lat="29.492865" lon="103.282236"><ele>1941.9961</ele><time>2026-02-19T21:39:02.000Z</time></trkpt>
        <trkpt lat="29.492816" lon="103.282263"><ele>1942.6149</ele><time>2026-02-19T21:39:08.000Z</time></trkpt>
        <trkpt lat="29.492784" lon="103.282311"><ele>1943.2368</ele><time>2026-02-19T21:39:12.000Z</time></trkpt>
        <trkpt lat="29.492755" lon="103.282371"><ele>1943.9249</ele><time>2026-02-19T21:39:16.000Z</time></trkpt>
        <trkpt lat="29.492724" lon="103.282432"><ele>1944.3752</ele><time>2026-02-19T21:39:20.000Z</time></trkpt>
        <trkpt lat="29.492689" lon="103.282479"><ele>1945.1418</ele><time>2026-02-19T21:39:24.000Z</time></trkpt>
        <trkpt lat="29.492648" lon="103.282511"><ele>1945.6077</ele><time>2026-02-19T21:39:28.000Z</time></trkpt>
        <trkpt lat="29.492601" lon="103.282537"><ele>1945.1875</ele><time>2026-02-19T21:39:33.000Z</time></trkpt>
        <trkpt lat="29.492553" lon="103.282561"><ele>1944.0277</ele><time>2026-02-19T21:39:38.000Z</time></trkpt>
        <trkpt lat="29.492507" lon="103.282587"><ele>1942.7448</ele><time>2026-02-19T21:39:43.000Z</time></trkpt>
        <trkpt lat="29.492464" lon="103.282609"><ele>1941.8867</ele><time>2026-02-19T21:39:47.000Z</time></trkpt>
        <trkpt lat="29.492418" lon="103.282619"><ele>1941.2278</ele><time>2026-02-19T21:39:51.000Z</time></trkpt>
        <trkpt lat="29.492379" lon="103.282595"><ele>1940.9691</ele><time>2026-02-19T21:39:55.000Z</time></trkpt>
        <trkpt lat="29.492353" lon="103.282541"><ele>1939.2549</ele><time>2026-02-19T21:40:00.000Z</time></trkpt>
        <trkpt lat="29.492339" lon="103.282471"><ele>1939.1168</ele><time>2026-02-19T21:40:09.000Z</time></trkpt>
        <trkpt lat="29.492334" lon="103.282415"><ele>1937.3171</ele><time>2026-02-19T21:40:13.000Z</time></trkpt>
        <trkpt lat="29.492299" lon="103.282357"><ele>1935.1476</ele><time>2026-02-19T21:40:27.000Z</time></trkpt>
        <trkpt lat="29.492284" lon="103.282318"><ele>1935.5647</ele><time>2026-02-19T21:40:31.000Z</time></trkpt>
        <trkpt lat="29.492246" lon="103.282272"><ele>1934.6881</ele><time>2026-02-19T21:40:36.000Z</time></trkpt>
        <trkpt lat="29.492197" lon="103.282257"><ele>1934.8854</ele><time>2026-02-19T21:40:40.000Z</time></trkpt>
        <trkpt lat="29.492147" lon="103.282278"><ele>1935.7842</ele><time>2026-02-19T21:40:44.000Z</time></trkpt>
        <trkpt lat="29.492106" lon="103.282324"><ele>1936.227</ele><time>2026-02-19T21:40:48.000Z</time></trkpt>
        <trkpt lat="29.492073" lon="103.28238"><ele>1936.5481</ele><time>2026-02-19T21:40:52.000Z</time></trkpt>
        <trkpt lat="29.492044" lon="103.282435"><ele>1937.0736</ele><time>2026-02-19T21:40:56.000Z</time></trkpt>
        <trkpt lat="29.492017" lon="103.282475"><ele>1937.0344</ele><time>2026-02-19T21:40:59.000Z</time></trkpt>
        <trkpt lat="29.491985" lon="103.28253"><ele>1936.6191</ele><time>2026-02-19T21:41:03.000Z</time></trkpt>
        <trkpt lat="29.491956" lon="103.282585"><ele>1935.0853</ele><time>2026-02-19T21:41:07.000Z</time></trkpt>
        <trkpt lat="29.491931" lon="103.282641"><ele>1934.3407</ele><time>2026-02-19T21:41:12.000Z</time></trkpt>
        <trkpt lat="29.491922" lon="103.282703"><ele>1934.3093</ele><time>2026-02-19T21:41:16.000Z</time></trkpt>
        <trkpt lat="29.491926" lon="103.282769"><ele>1934.9843</ele><time>2026-02-19T21:41:20.000Z</time></trkpt>
        <trkpt lat="29.491916" lon="103.282835"><ele>1936.0685</ele><time>2026-02-19T21:41:24.000Z</time></trkpt>
        <trkpt lat="29.491898" lon="103.282894"><ele>1936.599</ele><time>2026-02-19T21:41:28.000Z</time></trkpt>
        <trkpt lat="29.491887" lon="103.282953"><ele>1937.9608</ele><time>2026-02-19T21:41:32.000Z</time></trkpt>
        <trkpt lat="29.491873" lon="103.28301"><ele>1939.4005</ele><time>2026-02-19T21:41:36.000Z</time></trkpt>
        <trkpt lat="29.491852" lon="103.283062"><ele>1940.8713</ele><time>2026-02-19T21:41:40.000Z</time></trkpt>
        <trkpt lat="29.491838" lon="103.283119"><ele>1942.0261</ele><time>2026-02-19T21:41:44.000Z</time></trkpt>
        <trkpt lat="29.491818" lon="103.28317"><ele>1940.6417</ele><time>2026-02-19T21:41:48.000Z</time></trkpt>
        <trkpt lat="29.491789" lon="103.283215"><ele>1940.4269</ele><time>2026-02-19T21:41:52.000Z</time></trkpt>
        <trkpt lat="29.491763" lon="103.283263"><ele>1940.185</ele><time>2026-02-19T21:41:56.000Z</time></trkpt>
        <trkpt lat="29.491719" lon="103.283288"><ele>1940.1997</ele><time>2026-02-19T21:42:00.000Z</time></trkpt>
        <trkpt lat="29.491654" lon="103.283265"><ele>1936.7427</ele><time>2026-02-19T21:42:10.000Z</time></trkpt>
        <trkpt lat="29.491607" lon="103.283237"><ele>1934.5812</ele><time>2026-02-19T21:42:16.000Z</time></trkpt>
        <trkpt lat="29.491563" lon="103.283234"><ele>1933.445</ele><time>2026-02-19T21:42:19.000Z</time></trkpt>
        <trkpt lat="29.491507" lon="103.283229"><ele>1933.5461</ele><time>2026-02-19T21:42:24.000Z</time></trkpt>
        <trkpt lat="29.491455" lon="103.283249"><ele>1933.3716</ele><time>2026-02-19T21:42:42.000Z</time></trkpt>
        <trkpt lat="29.491425" lon="103.283249"><ele>1933.2244</ele><time>2026-02-19T21:42:46.000Z</time></trkpt>
        <trkpt lat="29.491371" lon="103.283255"><ele>1933.3678</ele><time>2026-02-19T21:42:51.000Z</time></trkpt>
        <trkpt lat="29.491314" lon="103.28328"><ele>1934.8358</ele><time>2026-02-19T21:42:56.000Z</time></trkpt>
        <trkpt lat="29.491275" lon="103.283316"><ele>1935.5325</ele><time>2026-02-19T21:43:00.000Z</time></trkpt>
        <trkpt lat="29.491224" lon="103.283337"><ele>1936.0536</ele><time>2026-02-19T21:43:04.000Z</time></trkpt>
        <trkpt lat="29.491169" lon="103.283329"><ele>1933.1848</ele><time>2026-02-19T21:43:09.000Z</time></trkpt>
        <trkpt lat="29.491135" lon="103.283293"><ele>1930.8102</ele><time>2026-02-19T21:43:13.000Z</time></trkpt>
        <trkpt lat="29.491113" lon="103.283237"><ele>1929.3594</ele><time>2026-02-19T21:43:18.000Z</time></trkpt>
        <trkpt lat="29.491075" lon="103.283179"><ele>1927.9619</ele><time>2026-02-19T21:43:23.000Z</time></trkpt>
        <trkpt lat="29.491034" lon="103.283152"><ele>1928.3336</ele><time>2026-02-19T21:43:27.000Z</time></trkpt>
        <trkpt lat="29.490988" lon="103.28316"><ele>1926.4952</ele><time>2026-02-19T21:43:31.000Z</time></trkpt>
        <trkpt lat="29.490952" lon="103.2832"><ele>1926.0016</ele><time>2026-02-19T21:43:35.000Z</time></trkpt>
        <trkpt lat="29.490921" lon="103.28328"><ele>1927.4601</ele><time>2026-02-19T21:43:49.000Z</time></trkpt>
        <trkpt lat="29.490905" lon="103.283333"><ele>1927.7501</ele><time>2026-02-19T21:43:54.000Z</time></trkpt>
        <trkpt lat="29.490878" lon="103.283379"><ele>1928.4054</ele><time>2026-02-19T21:43:58.000Z</time></trkpt>
        <trkpt lat="29.490848" lon="103.283425"><ele>1928.2722</ele><time>2026-02-19T21:44:02.000Z</time></trkpt>
        <trkpt lat="29.490801" lon="103.283459"><ele>1926.8699</ele><time>2026-02-19T21:44:06.000Z</time></trkpt>
        <trkpt lat="29.490742" lon="103.283476"><ele>1925.9547</ele><time>2026-02-19T21:44:11.000Z</time></trkpt>
        <trkpt lat="29.490689" lon="103.283488"><ele>1924.5751</ele><time>2026-02-19T21:44:16.000Z</time></trkpt>
        <trkpt lat="29.490647" lon="103.283518"><ele>1925.0277</ele><time>2026-02-19T21:44:20.000Z</time></trkpt>
        <trkpt lat="29.490613" lon="103.283568"><ele>1925.6296</ele><time>2026-02-19T21:44:23.000Z</time></trkpt>
        <trkpt lat="29.490589" lon="103.28364"><ele>1927.3075</ele><time>2026-02-19T21:44:28.000Z</time></trkpt>
        <trkpt lat="29.490577" lon="103.283705"><ele>1928.4431</ele><time>2026-02-19T21:44:32.000Z</time></trkpt>
        <trkpt lat="29.490564" lon="103.283767"><ele>1926.0099</ele><time>2026-02-19T21:44:48.000Z</time></trkpt>
        <trkpt lat="29.490553" lon="103.283797"><ele>1925.1271</ele><time>2026-02-19T21:44:52.000Z</time></trkpt>
        <trkpt lat="29.490524" lon="103.283838"><ele>1925.4512</ele><time>2026-02-19T21:44:56.000Z</time></trkpt>
        <trkpt lat="29.490475" lon="103.283863"><ele>1925.4596</ele><time>2026-02-19T21:45:01.000Z</time></trkpt>
        <trkpt lat="29.490436" lon="103.283852"><ele>1925.7225</ele><time>2026-02-19T21:45:04.000Z</time></trkpt>
        <trkpt lat="29.490386" lon="103.283825"><ele>1926.3394</ele><time>2026-02-19T21:45:08.000Z</time></trkpt>
        <trkpt lat="29.490334" lon="103.283798"><ele>1926.7141</ele><time>2026-02-19T21:45:12.000Z</time></trkpt>
        <trkpt lat="29.490277" lon="103.283762"><ele>1924.7795</ele><time>2026-02-19T21:45:27.000Z</time></trkpt>
        <trkpt lat="29.490252" lon="103.283739"><ele>1924.7874</ele><time>2026-02-19T21:45:31.000Z</time></trkpt>
        <trkpt lat="29.490213" lon="103.283714"><ele>1924.3253</ele><time>2026-02-19T21:45:35.000Z</time></trkpt>
        <trkpt lat="29.490163" lon="103.283684"><ele>1923.778</ele><time>2026-02-19T21:45:39.000Z</time></trkpt>
        <trkpt lat="29.49011" lon="103.283651"><ele>1922.4381</ele><time>2026-02-19T21:45:43.000Z</time></trkpt>
        <trkpt lat="29.490059" lon="103.283631"><ele>1921.7689</ele><time>2026-02-19T21:45:47.000Z</time></trkpt>
        <trkpt lat="29.490007" lon="103.283623"><ele>1922.3239</ele><time>2026-02-19T21:45:51.000Z</time></trkpt>
        <trkpt lat="29.489963" lon="103.283631"><ele>1922.4164</ele><time>2026-02-19T21:45:54.000Z</time></trkpt>
        <trkpt lat="29.489915" lon="103.28365"><ele>1921.8693</ele><time>2026-02-19T21:45:58.000Z</time></trkpt>
        <trkpt lat="29.489855" lon="103.283662"><ele>1922.2825</ele><time>2026-02-19T21:46:03.000Z</time></trkpt>
        <trkpt lat="29.489812" lon="103.283637"><ele>1920.6533</ele><time>2026-02-19T21:46:07.000Z</time></trkpt>
        <trkpt lat="29.489761" lon="103.28362"><ele>1919.7524</ele><time>2026-02-19T21:46:11.000Z</time></trkpt>
        <trkpt lat="29.48971" lon="103.283626"><ele>1919.5452</ele><time>2026-02-19T21:46:15.000Z</time></trkpt>
        <trkpt lat="29.489662" lon="103.283642"><ele>1919.5178</ele><time>2026-02-19T21:46:19.000Z</time></trkpt>
        <trkpt lat="29.489607" lon="103.283663"><ele>1919.1797</ele><time>2026-02-19T21:46:24.000Z</time></trkpt>
        <trkpt lat="29.489563" lon="103.283687"><ele>1919.2506</ele><time>2026-02-19T21:46:27.000Z</time></trkpt>
        <trkpt lat="29.489522" lon="103.283718"><ele>1919.9</ele><time>2026-02-19T21:46:31.000Z</time></trkpt>
        <trkpt lat="29.489486" lon="103.283758"><ele>1919.6017</ele><time>2026-02-19T21:46:35.000Z</time></trkpt>
        <trkpt lat="29.489454" lon="103.28381"><ele>1918.4381</ele><time>2026-02-19T21:46:40.000Z</time></trkpt>
        <trkpt lat="29.489433" lon="103.283859"><ele>1919.1576</ele><time>2026-02-19T21:46:44.000Z</time></trkpt>
        <trkpt lat="29.489414" lon="103.283913"><ele>1918.7444</ele><time>2026-02-19T21:46:48.000Z</time></trkpt>
        <trkpt lat="29.489393" lon="103.283975"><ele>1917.6249</ele><time>2026-02-19T21:46:53.000Z</time></trkpt>
        <trkpt lat="29.489372" lon="103.284027"><ele>1917.3445</ele><time>2026-02-19T21:46:58.000Z</time></trkpt>
        <trkpt lat="29.489353" lon="103.284083"><ele>1916.3635</ele><time>2026-02-19T21:47:03.000Z</time></trkpt>
        <trkpt lat="29.489317" lon="103.28411"><ele>1915.2218</ele><time>2026-02-19T21:47:07.000Z</time></trkpt>
        <trkpt lat="29.489273" lon="103.284134"><ele>1913.4495</ele><time>2026-02-19T21:47:11.000Z</time></trkpt>
        <trkpt lat="29.489227" lon="103.28415"><ele>1911.5299</ele><time>2026-02-19T21:47:15.000Z</time></trkpt>
        <trkpt lat="29.489177" lon="103.284153"><ele>1910.0763</ele><time>2026-02-19T21:47:19.000Z</time></trkpt>
        <trkpt lat="29.489133" lon="103.284149"><ele>1909.5002</ele><time>2026-02-19T21:47:22.000Z</time></trkpt>
        <trkpt lat="29.489078" lon="103.284147"><ele>1908.3215</ele><time>2026-02-19T21:47:27.000Z</time></trkpt>
        <trkpt lat="29.489023" lon="103.284132"><ele>1909.1085</ele><time>2026-02-19T21:47:31.000Z</time></trkpt>
        <trkpt lat="29.488972" lon="103.284105"><ele>1909.6981</ele><time>2026-02-19T21:47:35.000Z</time></trkpt>
        <trkpt lat="29.488927" lon="103.284062"><ele>1909.2777</ele><time>2026-02-19T21:47:42.000Z</time></trkpt>
        <trkpt lat="29.48891" lon="103.284015"><ele>1904.1803</ele><time>2026-02-19T21:47:48.000Z</time></trkpt>
        <trkpt lat="29.488883" lon="103.283979"><ele>1899.8165</ele><time>2026-02-19T21:47:53.000Z</time></trkpt>
        <trkpt lat="29.488844" lon="103.28394"><ele>1897.895</ele><time>2026-02-19T21:47:58.000Z</time></trkpt>
        <trkpt lat="29.488805" lon="103.283922"><ele>1897.0492</ele><time>2026-02-19T21:48:01.000Z</time></trkpt>
        <trkpt lat="29.488756" lon="103.283909"><ele>1896.9965</ele><time>2026-02-19T21:48:05.000Z</time></trkpt>
        <trkpt lat="29.488696" lon="103.283899"><ele>1896.531</ele><time>2026-02-19T21:48:11.000Z</time></trkpt>
        <trkpt lat="29.488645" lon="103.283914"><ele>1897.03</ele><time>2026-02-19T21:48:15.000Z</time></trkpt>
        <trkpt lat="29.488587" lon="103.283944"><ele>1896.8942</ele><time>2026-02-19T21:48:32.000Z</time></trkpt>
        <trkpt lat="29.488561" lon="103.283973"><ele>1896.7272</ele><time>2026-02-19T21:48:36.000Z</time></trkpt>
        <trkpt lat="29.488519" lon="103.283997"><ele>1895.9631</ele><time>2026-02-19T21:48:40.000Z</time></trkpt>
        <trkpt lat="29.488469" lon="103.284028"><ele>1896.5459</ele><time>2026-02-19T21:48:44.000Z</time></trkpt>
        <trkpt lat="29.488423" lon="103.284056"><ele>1896.5178</ele><time>2026-02-19T21:48:48.000Z</time></trkpt>
        <trkpt lat="29.488372" lon="103.284078"><ele>1896.86</ele><time>2026-02-19T21:48:52.000Z</time></trkpt>
        <trkpt lat="29.488326" lon="103.284088"><ele>1895.4852</ele><time>2026-02-19T21:48:55.000Z</time></trkpt>
        <trkpt lat="29.488268" lon="103.284092"><ele>1894.9196</ele><time>2026-02-19T21:48:59.000Z</time></trkpt>
        <trkpt lat="29.488212" lon="103.284089"><ele>1893.795</ele><time>2026-02-19T21:49:04.000Z</time></trkpt>
        <trkpt lat="29.488168" lon="103.284089"><ele>1893.2943</ele><time>2026-02-19T21:49:08.000Z</time></trkpt>
        <trkpt lat="29.488113" lon="103.284085"><ele>1892.9093</ele><time>2026-02-19T21:49:13.000Z</time></trkpt>
        <trkpt lat="29.488059" lon="103.284064"><ele>1892.9713</ele><time>2026-02-19T21:49:22.000Z</time></trkpt>
        <trkpt lat="29.488022" lon="103.284073"><ele>1892.8866</ele><time>2026-02-19T21:49:27.000Z</time></trkpt>
        <trkpt lat="29.487979" lon="103.284088"><ele>1892.3629</ele><time>2026-02-19T21:49:33.000Z</time></trkpt>
        <trkpt lat="29.48793" lon="103.284116"><ele>1893.7375</ele><time>2026-02-19T21:49:37.000Z</time></trkpt>
        <trkpt lat="29.487874" lon="103.284121"><ele>1895.054</ele><time>2026-02-19T21:49:41.000Z</time></trkpt>
        <trkpt lat="29.487815" lon="103.284109"><ele>1895.8953</ele><time>2026-02-19T21:49:45.000Z</time></trkpt>
        <trkpt lat="29.487759" lon="103.284096"><ele>1896.8816</ele><time>2026-02-19T21:49:49.000Z</time></trkpt>
        <trkpt lat="29.487707" lon="103.284078"><ele>1894.727</ele><time>2026-02-19T21:49:53.000Z</time></trkpt>
        <trkpt lat="29.487656" lon="103.284079"><ele>1894.0225</ele><time>2026-02-19T21:49:57.000Z</time></trkpt>
        <trkpt lat="29.487602" lon="103.284087"><ele>1893.8434</ele><time>2026-02-19T21:50:02.000Z</time></trkpt>
        <trkpt lat="29.48756" lon="103.284067"><ele>1893.965</ele><time>2026-02-19T21:50:07.000Z</time></trkpt>
        <trkpt lat="29.487519" lon="103.284029"><ele>1893.583</ele><time>2026-02-19T21:50:13.000Z</time></trkpt>
        <trkpt lat="29.487477" lon="103.28401"><ele>1892.2766</ele><time>2026-02-19T21:50:17.000Z</time></trkpt>
        <trkpt lat="29.487426" lon="103.284008"><ele>1891.1951</ele><time>2026-02-19T21:50:21.000Z</time></trkpt>
        <trkpt lat="29.487381" lon="103.284025"><ele>1891.3362</ele><time>2026-02-19T21:50:24.000Z</time></trkpt>
        <trkpt lat="29.487327" lon="103.284053"><ele>1891.1289</ele><time>2026-02-19T21:50:28.000Z</time></trkpt>
        <trkpt lat="29.487269" lon="103.284094"><ele>1891.3833</ele><time>2026-02-19T21:50:33.000Z</time></trkpt>
        <trkpt lat="29.48722" lon="103.284118"><ele>1891.2996</ele><time>2026-02-19T21:50:38.000Z</time></trkpt>
        <trkpt lat="29.487187" lon="103.284101"><ele>1890.8135</ele><time>2026-02-19T21:50:40.000Z</time></trkpt>
        <trkpt lat="29.487141" lon="103.284065"><ele>1890.3995</ele><time>2026-02-19T21:50:45.000Z</time></trkpt>
        <trkpt lat="29.487106" lon="103.284022"><ele>1890.3467</ele><time>2026-02-19T21:50:49.000Z</time></trkpt>
        <trkpt lat="29.487068" lon="103.283978"><ele>1886.9755</ele><time>2026-02-19T21:50:54.000Z</time></trkpt>
        <trkpt lat="29.487025" lon="103.283946"><ele>1885.8223</ele><time>2026-02-19T21:50:58.000Z</time></trkpt>
        <trkpt lat="29.486984" lon="103.283923"><ele>1885.1956</ele><time>2026-02-19T21:51:01.000Z</time></trkpt>
        <trkpt lat="29.486944" lon="103.283878"><ele>1884.5071</ele><time>2026-02-19T21:51:05.000Z</time></trkpt>
        <trkpt lat="29.486924" lon="103.283824"><ele>1883.3286</ele><time>2026-02-19T21:51:09.000Z</time></trkpt>
        <trkpt lat="29.486906" lon="103.283767"><ele>1881.6823</ele><time>2026-02-19T21:51:13.000Z</time></trkpt>
        <trkpt lat="29.486874" lon="103.283707"><ele>1876.8738</ele><time>2026-02-19T21:51:19.000Z</time></trkpt>
        <trkpt lat="29.486841" lon="103.283673"><ele>1876.3347</ele><time>2026-02-19T21:51:23.000Z</time></trkpt>
        <trkpt lat="29.486793" lon="103.283648"><ele>1879.1694</ele><time>2026-02-19T21:51:27.000Z</time></trkpt>
        <trkpt lat="29.486748" lon="103.283653"><ele>1880.7325</ele><time>2026-02-19T21:51:30.000Z</time></trkpt>
        <trkpt lat="29.486698" lon="103.283683"><ele>1881.9484</ele><time>2026-02-19T21:51:34.000Z</time></trkpt>
        <trkpt lat="29.486653" lon="103.283724"><ele>1882.4446</ele><time>2026-02-19T21:51:39.000Z</time></trkpt>
        <trkpt lat="29.486618" lon="103.283773"><ele>1881.7057</ele><time>2026-02-19T21:51:43.000Z</time></trkpt>
        <trkpt lat="29.486584" lon="103.283823"><ele>1881.0651</ele><time>2026-02-19T21:51:47.000Z</time></trkpt>
        <trkpt lat="29.486549" lon="103.283861"><ele>1879.7909</ele><time>2026-02-19T21:51:51.000Z</time></trkpt>
        <trkpt lat="29.486503" lon="103.28389"><ele>1879.1354</ele><time>2026-02-19T21:51:56.000Z</time></trkpt>
        <trkpt lat="29.486453" lon="103.283892"><ele>1877.4663</ele><time>2026-02-19T21:52:03.000Z</time></trkpt>
        <trkpt lat="29.486409" lon="103.28387"><ele>1876.0212</ele><time>2026-02-19T21:52:08.000Z</time></trkpt>
        <trkpt lat="29.486348" lon="103.283852"><ele>1873.081</ele><time>2026-02-19T21:53:02.000Z</time></trkpt>
        <trkpt lat="29.486318" lon="103.283855"><ele>1872.9851</ele><time>2026-02-19T21:53:08.000Z</time></trkpt>
        <trkpt lat="29.48626" lon="103.283868"><ele>1871.0321</ele><time>2026-02-19T21:53:16.000Z</time></trkpt>
        <trkpt lat="29.486215" lon="103.283894"><ele>1871.048</ele><time>2026-02-19T21:53:21.000Z</time></trkpt>
        <trkpt lat="29.486176" lon="103.283932"><ele>1869.9746</ele><time>2026-02-19T21:53:25.000Z</time></trkpt>
        <trkpt lat="29.486118" lon="103.283951"><ele>1868.7246</ele><time>2026-02-19T21:53:31.000Z</time></trkpt>
        <trkpt lat="29.486062" lon="103.283944"><ele>1868.0753</ele><time>2026-02-19T21:53:36.000Z</time></trkpt>
        <trkpt lat="29.48601" lon="103.283944"><ele>1867.7079</ele><time>2026-02-19T21:53:40.000Z</time></trkpt>
        <trkpt lat="29.485954" lon="103.283951"><ele>1866.2692</ele><time>2026-02-19T21:53:46.000Z</time></trkpt>
        <trkpt lat="29.485907" lon="103.28396"><ele>1866.6354</ele><time>2026-02-19T21:53:50.000Z</time></trkpt>
        <trkpt lat="29.485856" lon="103.283957"><ele>1866.7644</ele><time>2026-02-19T21:53:54.000Z</time></trkpt>
        <trkpt lat="29.485812" lon="103.283929"><ele>1867.9229</ele><time>2026-02-19T21:53:58.000Z</time></trkpt>
        <trkpt lat="29.485779" lon="103.283884"><ele>1867.6462</ele><time>2026-02-19T21:54:02.000Z</time></trkpt>
        <trkpt lat="29.485734" lon="103.283862"><ele>1867.3341</ele><time>2026-02-19T21:54:06.000Z</time></trkpt>
        <trkpt lat="29.485687" lon="103.283856"><ele>1865.9102</ele><time>2026-02-19T21:54:10.000Z</time></trkpt>
        <trkpt lat="29.485637" lon="103.283851"><ele>1865.0713</ele><time>2026-02-19T21:54:14.000Z</time></trkpt>
        <trkpt lat="29.485585" lon="103.283859"><ele>1864.4425</ele><time>2026-02-19T21:54:18.000Z</time></trkpt>
        <trkpt lat="29.485536" lon="103.283868"><ele>1862.6927</ele><time>2026-02-19T21:54:22.000Z</time></trkpt>
        <trkpt lat="29.485489" lon="103.283875"><ele>1860.3969</ele><time>2026-02-19T21:54:26.000Z</time></trkpt>
        <trkpt lat="29.485442" lon="103.283876"><ele>1860.8694</ele><time>2026-02-19T21:54:30.000Z</time></trkpt>
        <trkpt lat="29.485398" lon="103.283861"><ele>1861.9178</ele><time>2026-02-19T21:54:34.000Z</time></trkpt>
        <trkpt lat="29.485346" lon="103.283843"><ele>1862.0018</ele><time>2026-02-19T21:54:38.000Z</time></trkpt>
        <trkpt lat="29.485295" lon="103.283823"><ele>1859.9894</ele><time>2026-02-19T21:54:42.000Z</time></trkpt>
        <trkpt lat="29.485247" lon="103.283797"><ele>1857.624</ele><time>2026-02-19T21:54:46.000Z</time></trkpt>
        <trkpt lat="29.485192" lon="103.283788"><ele>1856.0645</ele><time>2026-02-19T21:54:49.000Z</time></trkpt>
        <trkpt lat="29.485141" lon="103.283776"><ele>1855.3284</ele><time>2026-02-19T21:54:53.000Z</time></trkpt>
        <trkpt lat="29.485092" lon="103.28377"><ele>1854.3951</ele><time>2026-02-19T21:54:57.000Z</time></trkpt>
        <trkpt lat="29.485044" lon="103.283761"><ele>1852.0406</ele><time>2026-02-19T21:55:01.000Z</time></trkpt>
        <trkpt lat="29.484997" lon="103.283749"><ele>1848.6731</ele><time>2026-02-19T21:55:05.000Z</time></trkpt>
        <trkpt lat="29.484948" lon="103.28373"><ele>1847.1119</ele><time>2026-02-19T21:55:09.000Z</time></trkpt>
        <trkpt lat="29.48489" lon="103.283723"><ele>1847.0942</ele><time>2026-02-19T21:55:14.000Z</time></trkpt>
        <trkpt lat="29.48484" lon="103.283725"><ele>1848.9648</ele><time>2026-02-19T21:55:18.000Z</time></trkpt>
        <trkpt lat="29.484783" lon="103.283722"><ele>1853.1471</ele><time>2026-02-19T21:55:25.000Z</time></trkpt>
        <trkpt lat="29.484749" lon="103.283712"><ele>1853.9731</ele><time>2026-02-19T21:55:28.000Z</time></trkpt>
        <trkpt lat="29.484704" lon="103.283689"><ele>1851.9989</ele><time>2026-02-19T21:55:33.000Z</time></trkpt>
        <trkpt lat="29.484657" lon="103.283655"><ele>1849.9226</ele><time>2026-02-19T21:55:38.000Z</time></trkpt>
        <trkpt lat="29.48462" lon="103.283635"><ele>1849.479</ele><time>2026-02-19T21:55:41.000Z</time></trkpt>
        <trkpt lat="29.484564" lon="103.28362"><ele>1849.4045</ele><time>2026-02-19T21:55:45.000Z</time></trkpt>
        <trkpt lat="29.484509" lon="103.283605"><ele>1849.8833</ele><time>2026-02-19T21:55:49.000Z</time></trkpt>
        <trkpt lat="29.484454" lon="103.283619"><ele>1849.787</ele><time>2026-02-19T21:55:54.000Z</time></trkpt>
        <trkpt lat="29.48441" lon="103.283664"><ele>1850.4672</ele><time>2026-02-19T21:55:58.000Z</time></trkpt>
        <trkpt lat="29.484396" lon="103.283716"><ele>1851.6423</ele><time>2026-02-19T21:56:01.000Z</time></trkpt>
        <trkpt lat="29.484381" lon="103.283777"><ele>1853.6697</ele><time>2026-02-19T21:56:05.000Z</time></trkpt>
        <trkpt lat="29.484367" lon="103.283832"><ele>1853.4785</ele><time>2026-02-19T21:56:09.000Z</time></trkpt>
        <trkpt lat="29.484344" lon="103.283882"><ele>1854.4722</ele><time>2026-02-19T21:56:13.000Z</time></trkpt>
        <trkpt lat="29.484307" lon="103.283921"><ele>1854.281</ele><time>2026-02-19T21:56:18.000Z</time></trkpt>
        <trkpt lat="29.484257" lon="103.283943"><ele>1851.3198</ele><time>2026-02-19T21:56:23.000Z</time></trkpt>
        <trkpt lat="29.484214" lon="103.283972"><ele>1849.5063</ele><time>2026-02-19T21:56:27.000Z</time></trkpt>
        <trkpt lat="29.484168" lon="103.283983"><ele>1847.8938</ele><time>2026-02-19T21:56:31.000Z</time></trkpt>
        <trkpt lat="29.484114" lon="103.283994"><ele>1846.2339</ele><time>2026-02-19T21:56:36.000Z</time></trkpt>
        <trkpt lat="29.484064" lon="103.284005"><ele>1846.4135</ele><time>2026-02-19T21:56:40.000Z</time></trkpt>
        <trkpt lat="29.484011" lon="103.284024"><ele>1846.2589</ele><time>2026-02-19T21:56:45.000Z</time></trkpt>
        <trkpt lat="29.483964" lon="103.284047"><ele>1846.905</ele><time>2026-02-19T21:56:49.000Z</time></trkpt>
        <trkpt lat="29.483915" lon="103.284067"><ele>1846.1587</ele><time>2026-02-19T21:56:53.000Z</time></trkpt>
        <trkpt lat="29.483862" lon="103.284095"><ele>1847.6982</ele><time>2026-02-19T21:56:56.000Z</time></trkpt>
        <trkpt lat="29.483811" lon="103.284131"><ele>1847.2319</ele><time>2026-02-19T21:57:01.000Z</time></trkpt>
        <trkpt lat="29.483776" lon="103.284171"><ele>1847.7542</ele><time>2026-02-19T21:57:05.000Z</time></trkpt>
        <trkpt lat="29.483737" lon="103.284197"><ele>1847.6549</ele><time>2026-02-19T21:57:09.000Z</time></trkpt>
        <trkpt lat="29.483702" lon="103.284223"><ele>1847.5538</ele><time>2026-02-19T21:57:12.000Z</time></trkpt>
        <trkpt lat="29.483647" lon="103.284254"><ele>1846.8286</ele><time>2026-02-19T21:57:17.000Z</time></trkpt>
        <trkpt lat="29.483601" lon="103.28429"><ele>1846.9124</ele><time>2026-02-19T21:57:21.000Z</time></trkpt>
        <trkpt lat="29.483549" lon="103.284326"><ele>1845.177</ele><time>2026-02-19T21:57:26.000Z</time></trkpt>
        <trkpt lat="29.483494" lon="103.284341"><ele>1843.5636</ele><time>2026-02-19T21:57:31.000Z</time></trkpt>
        <trkpt lat="29.483445" lon="103.284348"><ele>1843.761</ele><time>2026-02-19T21:57:35.000Z</time></trkpt>
        <trkpt lat="29.483396" lon="103.284364"><ele>1844.4397</ele><time>2026-02-19T21:57:39.000Z</time></trkpt>
        <trkpt lat="29.483354" lon="103.284373"><ele>1844.7041</ele><time>2026-02-19T21:57:42.000Z</time></trkpt>
        <trkpt lat="29.483292" lon="103.284374"><ele>1844.2544</ele><time>2026-02-19T21:57:47.000Z</time></trkpt>
        <trkpt lat="29.483245" lon="103.284392"><ele>1844.2245</ele><time>2026-02-19T21:57:51.000Z</time></trkpt>
        <trkpt lat="29.483205" lon="103.284425"><ele>1844.3784</ele><time>2026-02-19T21:57:56.000Z</time></trkpt>
        <trkpt lat="29.483156" lon="103.284445"><ele>1845.2374</ele><time>2026-02-19T21:58:00.000Z</time></trkpt>
        <trkpt lat="29.483103" lon="103.284449"><ele>1845.8577</ele><time>2026-02-19T21:58:04.000Z</time></trkpt>
        <trkpt lat="29.483049" lon="103.28445"><ele>1845.7521</ele><time>2026-02-19T21:58:08.000Z</time></trkpt>
        <trkpt lat="29.483005" lon="103.284446"><ele>1846.0486</ele><time>2026-02-19T21:58:11.000Z</time></trkpt>
        <trkpt lat="29.482948" lon="103.284437"><ele>1845.86</ele><time>2026-02-19T21:58:15.000Z</time></trkpt>
        <trkpt lat="29.482888" lon="103.284436"><ele>1845.2256</ele><time>2026-02-19T21:58:20.000Z</time></trkpt>
        <trkpt lat="29.482838" lon="103.284434"><ele>1843.592</ele><time>2026-02-19T21:58:24.000Z</time></trkpt>
        <trkpt lat="29.482781" lon="103.284437"><ele>1841.7634</ele><time>2026-02-19T21:58:29.000Z</time></trkpt>
        <trkpt lat="29.482733" lon="103.284434"><ele>1841.207</ele><time>2026-02-19T21:58:33.000Z</time></trkpt>
        <trkpt lat="29.482685" lon="103.284429"><ele>1841.3625</ele><time>2026-02-19T21:58:37.000Z</time></trkpt>
        <trkpt lat="29.482632" lon="103.284417"><ele>1841.6611</ele><time>2026-02-19T21:58:41.000Z</time></trkpt>
        <trkpt lat="29.482579" lon="103.284412"><ele>1841.9023</ele><time>2026-02-19T21:58:45.000Z</time></trkpt>
        <trkpt lat="29.482525" lon="103.284408"><ele>1843.2543</ele><time>2026-02-19T21:58:49.000Z</time></trkpt>
        <trkpt lat="29.482482" lon="103.284404"><ele>1844.1221</ele><time>2026-02-19T21:58:52.000Z</time></trkpt>
        <trkpt lat="29.482438" lon="103.28441"><ele>1844.3911</ele><time>2026-02-19T21:58:55.000Z</time></trkpt>
        <trkpt lat="29.482381" lon="103.28441"><ele>1844.881</ele><time>2026-02-19T21:58:59.000Z</time></trkpt>
        <trkpt lat="29.482322" lon="103.284408"><ele>1844.57</ele><time>2026-02-19T21:59:02.000Z</time></trkpt>
        <trkpt lat="29.482264" lon="103.284415"><ele>1846.1238</ele><time>2026-02-19T21:59:06.000Z</time></trkpt>
        <trkpt lat="29.482221" lon="103.284425"><ele>1847.4706</ele><time>2026-02-19T21:59:09.000Z</time></trkpt>
        <trkpt lat="29.482175" lon="103.284431"><ele>1848.0153</ele><time>2026-02-19T21:59:12.000Z</time></trkpt>
        <trkpt lat="29.482117" lon="103.284434"><ele>1847.998</ele><time>2026-02-19T21:59:16.000Z</time></trkpt>
        <trkpt lat="29.482063" lon="103.284434"><ele>1849.1664</ele><time>2026-02-19T21:59:20.000Z</time></trkpt>
        <trkpt lat="29.482012" lon="103.28444"><ele>1850.0823</ele><time>2026-02-19T21:59:24.000Z</time></trkpt>
        <trkpt lat="29.481962" lon="103.284451"><ele>1851.0039</ele><time>2026-02-19T21:59:28.000Z</time></trkpt>
        <trkpt lat="29.481912" lon="103.284446"><ele>1852.3359</ele><time>2026-02-19T21:59:32.000Z</time></trkpt>
        <trkpt lat="29.481864" lon="103.284426"><ele>1853.2616</ele><time>2026-02-19T21:59:36.000Z</time></trkpt>
        <trkpt lat="29.481817" lon="103.284428"><ele>1852.0623</ele><time>2026-02-19T21:59:41.000Z</time></trkpt>
        <trkpt lat="29.481769" lon="103.284442"><ele>1850.513</ele><time>2026-02-19T21:59:46.000Z</time></trkpt>
        <trkpt lat="29.481721" lon="103.284457"><ele>1849.6981</ele><time>2026-02-19T21:59:51.000Z</time></trkpt>
        <trkpt lat="29.481674" lon="103.284482"><ele>1849.7731</ele><time>2026-02-19T21:59:56.000Z</time></trkpt>
        <trkpt lat="29.481625" lon="103.284503"><ele>1850.5978</ele><time>2026-02-19T22:00:02.000Z</time></trkpt>
        <trkpt lat="29.481572" lon="103.284514"><ele>1850.5934</ele><time>2026-02-19T22:00:07.000Z</time></trkpt>
        <trkpt lat="29.481519" lon="103.284525"><ele>1851.4642</ele><time>2026-02-19T22:00:12.000Z</time></trkpt>
        <trkpt lat="29.481465" lon="103.28454"><ele>1850.6301</ele><time>2026-02-19T22:00:17.000Z</time></trkpt>
        <trkpt lat="29.481412" lon="103.284557"><ele>1852.5494</ele><time>2026-02-19T22:00:22.000Z</time></trkpt>
        <trkpt lat="29.481375" lon="103.284599"><ele>1853.8988</ele><time>2026-02-19T22:00:44.000Z</time></trkpt>
        <trkpt lat="29.481325" lon="103.284592"><ele>1854.1464</ele><time>2026-02-19T22:01:00.000Z</time></trkpt>
        <trkpt lat="29.481277" lon="103.284602"><ele>1854.251</ele><time>2026-02-19T22:01:05.000Z</time></trkpt>
        <trkpt lat="29.481226" lon="103.284612"><ele>1854.1322</ele><time>2026-02-19T22:01:09.000Z</time></trkpt>
        <trkpt lat="29.481173" lon="103.284618"><ele>1852.8884</ele><time>2026-02-19T22:01:14.000Z</time></trkpt>
        <trkpt lat="29.481123" lon="103.284623"><ele>1851.4487</ele><time>2026-02-19T22:01:19.000Z</time></trkpt>
        <trkpt lat="29.481076" lon="103.284617"><ele>1848.6711</ele><time>2026-02-19T22:01:24.000Z</time></trkpt>
        <trkpt lat="29.481032" lon="103.284614"><ele>1848.0734</ele><time>2026-02-19T22:01:28.000Z</time></trkpt>
        <trkpt lat="29.480983" lon="103.28461"><ele>1848.398</ele><time>2026-02-19T22:01:32.000Z</time></trkpt>
        <trkpt lat="29.480928" lon="103.284606"><ele>1847.8291</ele><time>2026-02-19T22:01:38.000Z</time></trkpt>
        <trkpt lat="29.480884" lon="103.284611"><ele>1847.6128</ele><time>2026-02-19T22:01:42.000Z</time></trkpt>
        <trkpt lat="29.480825" lon="103.284629"><ele>1848.733</ele><time>2026-02-19T22:01:49.000Z</time></trkpt>
        <trkpt lat="29.480779" lon="103.284647"><ele>1849.5714</ele><time>2026-02-19T22:01:58.000Z</time></trkpt>
        <trkpt lat="29.480729" lon="103.284651"><ele>1850.7566</ele><time>2026-02-19T22:02:05.000Z</time></trkpt>
        <trkpt lat="29.480673" lon="103.284639"><ele>1853.8429</ele><time>2026-02-19T22:02:17.000Z</time></trkpt>
        <trkpt lat="29.48063" lon="103.284623"><ele>1855.0503</ele><time>2026-02-19T22:02:22.000Z</time></trkpt>
        <trkpt lat="29.480583" lon="103.284585"><ele>1855.4949</ele><time>2026-02-19T22:02:28.000Z</time></trkpt>
        <trkpt lat="29.480563" lon="103.28454"><ele>1854.3279</ele><time>2026-02-19T22:02:32.000Z</time></trkpt>
        <trkpt lat="29.480563" lon="103.284483"><ele>1852.5848</ele><time>2026-02-19T22:02:36.000Z</time></trkpt>
        <trkpt lat="29.480571" lon="103.284425"><ele>1851.4271</ele><time>2026-02-19T22:02:40.000Z</time></trkpt>
        <trkpt lat="29.480599" lon="103.284364"><ele>1850.0312</ele><time>2026-02-19T22:02:45.000Z</time></trkpt>
        <trkpt lat="29.480618" lon="103.284316"><ele>1850.6183</ele><time>2026-02-19T22:02:49.000Z</time></trkpt>
        <trkpt lat="29.480634" lon="103.284256"><ele>1851.7434</ele><time>2026-02-19T22:02:53.000Z</time></trkpt>
        <trkpt lat="29.480648" lon="103.284201"><ele>1851.53</ele><time>2026-02-19T22:02:57.000Z</time></trkpt>
        <trkpt lat="29.480665" lon="103.28415"><ele>1850.7535</ele><time>2026-02-19T22:03:01.000Z</time></trkpt>
        <trkpt lat="29.480685" lon="103.28409"><ele>1849.2411</ele><time>2026-02-19T22:03:07.000Z</time></trkpt>
        <trkpt lat="29.480699" lon="103.284046"><ele>1849.273</ele><time>2026-02-19T22:03:11.000Z</time></trkpt>
        <trkpt lat="29.480745" lon="103.284049"><ele>1855.612</ele><time>2026-02-19T22:06:22.000Z</time></trkpt>
        <trkpt lat="29.480709" lon="103.284019"><ele>1855.635</ele><time>2026-02-19T22:06:48.000Z</time></trkpt>
        <trkpt lat="29.48075" lon="103.28398"><ele>1853.0167</ele><time>2026-02-19T22:07:27.000Z</time></trkpt>
        <trkpt lat="29.480783" lon="103.283962"><ele>1851.8483</ele><time>2026-02-19T22:07:33.000Z</time></trkpt>
        <trkpt lat="29.480817" lon="103.283916"><ele>1850.4321</ele><time>2026-02-19T22:07:38.000Z</time></trkpt>
        <trkpt lat="29.480834" lon="103.283853"><ele>1850.8905</ele><time>2026-02-19T22:07:43.000Z</time></trkpt>
        <trkpt lat="29.480833" lon="103.283794"><ele>1852.0233</ele><time>2026-02-19T22:07:48.000Z</time></trkpt>
        <trkpt lat="29.480819" lon="103.283742"><ele>1850.9518</ele><time>2026-02-19T22:07:52.000Z</time></trkpt>
        <trkpt lat="29.480797" lon="103.283691"><ele>1849.5118</ele><time>2026-02-19T22:07:56.000Z</time></trkpt>
        <trkpt lat="29.48077" lon="103.283632"><ele>1849.0098</ele><time>2026-02-19T22:08:01.000Z</time></trkpt>
        <trkpt lat="29.480743" lon="103.283576"><ele>1848.8688</ele><time>2026-02-19T22:08:05.000Z</time></trkpt>
        <trkpt lat="29.480726" lon="103.283524"><ele>1849.2784</ele><time>2026-02-19T22:08:08.000Z</time></trkpt>
        <trkpt lat="29.480709" lon="103.283472"><ele>1850.4666</ele><time>2026-02-19T22:08:11.000Z</time></trkpt>
        <trkpt lat="29.480705" lon="103.283406"><ele>1850.4247</ele><time>2026-02-19T22:08:15.000Z</time></trkpt>
        <trkpt lat="29.480709" lon="103.283354"><ele>1849.2878</ele><time>2026-02-19T22:08:18.000Z</time></trkpt>
        <trkpt lat="29.480677" lon="103.283371"><ele>1846.495</ele><time>2026-02-19T22:09:20.000Z</time></trkpt>
        <trkpt lat="29.480643" lon="103.283328"><ele>1859.868</ele><time>2026-02-19T22:11:14.000Z</time></trkpt>
        <trkpt lat="29.480605" lon="103.283286"><ele>1866.7722</ele><time>2026-02-19T22:11:30.000Z</time></trkpt>
        <trkpt lat="29.480571" lon="103.283285"><ele>1866.3834</ele><time>2026-02-19T22:11:32.000Z</time></trkpt>
        <trkpt lat="29.480527" lon="103.283267"><ele>1864.0304</ele><time>2026-02-19T22:11:36.000Z</time></trkpt>
        <trkpt lat="29.480469" lon="103.283268"><ele>1860.2971</ele><time>2026-02-19T22:11:42.000Z</time></trkpt>
        <trkpt lat="29.480434" lon="103.283307"><ele>1858.5554</ele><time>2026-02-19T22:11:46.000Z</time></trkpt>
        <trkpt lat="29.480429" lon="103.283369"><ele>1851.4277</ele><time>2026-02-19T22:11:51.000Z</time></trkpt>
        <trkpt lat="29.480431" lon="103.283431"><ele>1844.097</ele><time>2026-02-19T22:11:56.000Z</time></trkpt>
        <trkpt lat="29.48042" lon="103.283486"><ele>1839.6554</ele><time>2026-02-19T22:12:01.000Z</time></trkpt>
        <trkpt lat="29.4804" lon="103.283539"><ele>1836.8682</ele><time>2026-02-19T22:12:06.000Z</time></trkpt>
        <trkpt lat="29.480375" lon="103.283586"><ele>1834.8896</ele><time>2026-02-19T22:12:11.000Z</time></trkpt>
        <trkpt lat="29.480336" lon="103.283619"><ele>1833.8829</ele><time>2026-02-19T22:12:16.000Z</time></trkpt>
        <trkpt lat="29.480292" lon="103.283656"><ele>1833.9532</ele><time>2026-02-19T22:12:21.000Z</time></trkpt>
        <trkpt lat="29.480255" lon="103.283689"><ele>1833.9427</ele><time>2026-02-19T22:12:25.000Z</time></trkpt>
        <trkpt lat="29.4802" lon="103.283714"><ele>1832.3629</ele><time>2026-02-19T22:12:30.000Z</time></trkpt>
        <trkpt lat="29.480153" lon="103.283734"><ele>1832.4037</ele><time>2026-02-19T22:12:34.000Z</time></trkpt>
        <trkpt lat="29.480107" lon="103.283742"><ele>1833.0386</ele><time>2026-02-19T22:12:39.000Z</time></trkpt>
        <trkpt lat="29.48006" lon="103.28377"><ele>1834.9327</ele><time>2026-02-19T22:12:44.000Z</time></trkpt>
        <trkpt lat="29.480011" lon="103.283793"><ele>1835.8112</ele><time>2026-02-19T22:12:49.000Z</time></trkpt>
        <trkpt lat="29.47997" lon="103.283816"><ele>1837.024</ele><time>2026-02-19T22:12:53.000Z</time></trkpt>
        <trkpt lat="29.479926" lon="103.283838"><ele>1837.3395</ele><time>2026-02-19T22:12:57.000Z</time></trkpt>
        <trkpt lat="29.479889" lon="103.283867"><ele>1837.2451</ele><time>2026-02-19T22:13:00.000Z</time></trkpt>
        <trkpt lat="29.47984" lon="103.283908"><ele>1838.0967</ele><time>2026-02-19T22:13:04.000Z</time></trkpt>
        <trkpt lat="29.479803" lon="103.283942"><ele>1839.5192</ele><time>2026-02-19T22:13:07.000Z</time></trkpt>
        <trkpt lat="29.479762" lon="103.283968"><ele>1839.7793</ele><time>2026-02-19T22:13:10.000Z</time></trkpt>
        <trkpt lat="29.479707" lon="103.283993"><ele>1840.8828</ele><time>2026-02-19T22:13:14.000Z</time></trkpt>
        <trkpt lat="29.479664" lon="103.284013"><ele>1842.9755</ele><time>2026-02-19T22:13:17.000Z</time></trkpt>
        <trkpt lat="29.47961" lon="103.284035"><ele>1844.3307</ele><time>2026-02-19T22:13:21.000Z</time></trkpt>
        <trkpt lat="29.479562" lon="103.28405"><ele>1845.1733</ele><time>2026-02-19T22:13:25.000Z</time></trkpt>
        <trkpt lat="29.479524" lon="103.284075"><ele>1845.96</ele><time>2026-02-19T22:13:29.000Z</time></trkpt>
        <trkpt lat="29.479474" lon="103.284091"><ele>1844.0044</ele><time>2026-02-19T22:13:34.000Z</time></trkpt>
        <trkpt lat="29.479432" lon="103.2841"><ele>1843.0522</ele><time>2026-02-19T22:13:37.000Z</time></trkpt>
        <trkpt lat="29.479387" lon="103.284114"><ele>1843.9307</ele><time>2026-02-19T22:13:41.000Z</time></trkpt>
        <trkpt lat="29.479335" lon="103.284127"><ele>1843.1194</ele><time>2026-02-19T22:13:46.000Z</time></trkpt>
        <trkpt lat="29.479286" lon="103.284131"><ele>1843.0468</ele><time>2026-02-19T22:13:50.000Z</time></trkpt>
        <trkpt lat="29.479237" lon="103.284134"><ele>1845.1362</ele><time>2026-02-19T22:13:54.000Z</time></trkpt>
        <trkpt lat="29.479195" lon="103.284146"><ele>1846.3347</ele><time>2026-02-19T22:13:57.000Z</time></trkpt>
        <trkpt lat="29.479141" lon="103.284153"><ele>1844.8308</ele><time>2026-02-19T22:14:01.000Z</time></trkpt>
        <trkpt lat="29.479083" lon="103.284168"><ele>1844.5732</ele><time>2026-02-19T22:14:06.000Z</time></trkpt>
        <trkpt lat="29.479033" lon="103.28418"><ele>1844.7775</ele><time>2026-02-19T22:14:10.000Z</time></trkpt>
        <trkpt lat="29.478985" lon="103.284198"><ele>1845.2043</ele><time>2026-02-19T22:14:14.000Z</time></trkpt>
        <trkpt lat="29.478932" lon="103.284212"><ele>1845.2142</ele><time>2026-02-19T22:14:18.000Z</time></trkpt>
        <trkpt lat="29.478889" lon="103.284201"><ele>1844.845</ele><time>2026-02-19T22:14:21.000Z</time></trkpt>
        <trkpt lat="29.47884" lon="103.284166"><ele>1844.1306</ele><time>2026-02-19T22:14:25.000Z</time></trkpt>
        <trkpt lat="29.478805" lon="103.28411"><ele>1843.8373</ele><time>2026-02-19T22:14:29.000Z</time></trkpt>
        <trkpt lat="29.478787" lon="103.284059"><ele>1842.869</ele><time>2026-02-19T22:14:32.000Z</time></trkpt>
        <trkpt lat="29.478767" lon="103.283989"><ele>1838.5939</ele><time>2026-02-19T22:14:37.000Z</time></trkpt>
        <trkpt lat="29.47875" lon="103.283936"><ele>1835.5547</ele><time>2026-02-19T22:14:41.000Z</time></trkpt>
        <trkpt lat="29.478739" lon="103.283883"><ele>1833.3304</ele><time>2026-02-19T22:14:46.000Z</time></trkpt>
        <trkpt lat="29.478725" lon="103.28384"><ele>1832.6486</ele><time>2026-02-19T22:14:49.000Z</time></trkpt>
        <trkpt lat="29.478684" lon="103.283794"><ele>1832.4745</ele><time>2026-02-19T22:14:53.000Z</time></trkpt>
        <trkpt lat="29.47863" lon="103.283762"><ele>1834.3256</ele><time>2026-02-19T22:14:58.000Z</time></trkpt>
        <trkpt lat="29.478579" lon="103.283747"><ele>1836.6129</ele><time>2026-02-19T22:15:02.000Z</time></trkpt>
        <trkpt lat="29.478526" lon="103.283734"><ele>1837.2621</ele><time>2026-02-19T22:15:06.000Z</time></trkpt>
        <trkpt lat="29.478473" lon="103.283713"><ele>1835.9518</ele><time>2026-02-19T22:15:10.000Z</time></trkpt>
        <trkpt lat="29.478415" lon="103.283687"><ele>1835.2837</ele><time>2026-02-19T22:15:15.000Z</time></trkpt>
        <trkpt lat="29.478364" lon="103.283657"><ele>1834.1486</ele><time>2026-02-19T22:15:20.000Z</time></trkpt>
        <trkpt lat="29.478311" lon="103.283651"><ele>1832.4388</ele><time>2026-02-19T22:15:24.000Z</time></trkpt>
        <trkpt lat="29.47826" lon="103.283669"><ele>1832.4493</ele><time>2026-02-19T22:15:28.000Z</time></trkpt>
        <trkpt lat="29.478228" lon="103.283705"><ele>1832.9916</ele><time>2026-02-19T22:15:31.000Z</time></trkpt>
        <trkpt lat="29.47819" lon="103.283748"><ele>1832.455</ele><time>2026-02-19T22:15:35.000Z</time></trkpt>
        <trkpt lat="29.478146" lon="103.28378"><ele>1830.6941</ele><time>2026-02-19T22:15:39.000Z</time></trkpt>
        <trkpt lat="29.478089" lon="103.2838"><ele>1829.7534</ele><time>2026-02-19T22:15:44.000Z</time></trkpt>
        <trkpt lat="29.478038" lon="103.283811"><ele>1829.5687</ele><time>2026-02-19T22:15:47.000Z</time></trkpt>
        <trkpt lat="29.477992" lon="103.28384"><ele>1830.1339</ele><time>2026-02-19T22:15:51.000Z</time></trkpt>
        <trkpt lat="29.477948" lon="103.283879"><ele>1832.0778</ele><time>2026-02-19T22:15:55.000Z</time></trkpt>
        <trkpt lat="29.477905" lon="103.2839"><ele>1833.3541</ele><time>2026-02-19T22:15:58.000Z</time></trkpt>
        <trkpt lat="29.477851" lon="103.283906"><ele>1835.2284</ele><time>2026-02-19T22:16:02.000Z</time></trkpt>
        <trkpt lat="29.477798" lon="103.283887"><ele>1835.8323</ele><time>2026-02-19T22:16:06.000Z</time></trkpt>
        <trkpt lat="29.47775" lon="103.283855"><ele>1835.761</ele><time>2026-02-19T22:16:10.000Z</time></trkpt>
        <trkpt lat="29.4777" lon="103.283809"><ele>1837.0631</ele><time>2026-02-19T22:16:15.000Z</time></trkpt>
        <trkpt lat="29.477665" lon="103.283766"><ele>1835.6865</ele><time>2026-02-19T22:16:19.000Z</time></trkpt>
        <trkpt lat="29.477629" lon="103.283727"><ele>1836.4298</ele><time>2026-02-19T22:16:23.000Z</time></trkpt>
        <trkpt lat="29.477593" lon="103.283686"><ele>1837.6188</ele><time>2026-02-19T22:16:27.000Z</time></trkpt>
        <trkpt lat="29.477559" lon="103.283647"><ele>1836.9712</ele><time>2026-02-19T22:16:31.000Z</time></trkpt>
        <trkpt lat="29.477528" lon="103.283604"><ele>1837.3383</ele><time>2026-02-19T22:16:35.000Z</time></trkpt>
        <trkpt lat="29.477482" lon="103.283573"><ele>1836.6997</ele><time>2026-02-19T22:16:39.000Z</time></trkpt>
        <trkpt lat="29.477442" lon="103.283538"><ele>1834.8242</ele><time>2026-02-19T22:16:43.000Z</time></trkpt>
        <trkpt lat="29.477436" lon="103.283494"><ele>1830.8392</ele><time>2026-02-19T22:16:46.000Z</time></trkpt>
        <trkpt lat="29.477437" lon="103.283431"><ele>1825.879</ele><time>2026-02-19T22:16:51.000Z</time></trkpt>
        <trkpt lat="29.477441" lon="103.283357"><ele>1818.7395</ele><time>2026-02-19T22:16:56.000Z</time></trkpt>
        <trkpt lat="29.477467" lon="103.2833"><ele>1813.4562</ele><time>2026-02-19T22:17:00.000Z</time></trkpt>
        <trkpt lat="29.477491" lon="103.283245"><ele>1809.3695</ele><time>2026-02-19T22:17:04.000Z</time></trkpt>
        <trkpt lat="29.477513" lon="103.283188"><ele>1806.3734</ele><time>2026-02-19T22:17:08.000Z</time></trkpt>
        <trkpt lat="29.477532" lon="103.283141"><ele>1805.029</ele><time>2026-02-19T22:17:11.000Z</time></trkpt>
        <trkpt lat="29.477541" lon="103.283091"><ele>1804.4392</ele><time>2026-02-19T22:17:14.000Z</time></trkpt>
        <trkpt lat="29.477544" lon="103.283027"><ele>1803.4434</ele><time>2026-02-19T22:17:18.000Z</time></trkpt>
        <trkpt lat="29.477544" lon="103.282967"><ele>1802.2905</ele><time>2026-02-19T22:17:22.000Z</time></trkpt>
        <trkpt lat="29.477553" lon="103.282905"><ele>1800.8958</ele><time>2026-02-19T22:17:28.000Z</time></trkpt>
        <trkpt lat="29.477565" lon="103.282859"><ele>1800.6594</ele><time>2026-02-19T22:17:32.000Z</time></trkpt>
        <trkpt lat="29.477572" lon="103.282803"><ele>1801.0135</ele><time>2026-02-19T22:17:36.000Z</time></trkpt>
        <trkpt lat="29.477574" lon="103.282745"><ele>1800.7191</ele><time>2026-02-19T22:17:40.000Z</time></trkpt>
        <trkpt lat="29.477581" lon="103.282681"><ele>1800.3483</ele><time>2026-02-19T22:17:46.000Z</time></trkpt>
        <trkpt lat="29.477585" lon="103.28263"><ele>1801.406</ele><time>2026-02-19T22:17:50.000Z</time></trkpt>
        <trkpt lat="29.477549" lon="103.282597"><ele>1802.869</ele><time>2026-02-19T22:18:02.000Z</time></trkpt>
        <trkpt lat="29.477566" lon="103.282574"><ele>1804.1617</ele><time>2026-02-19T22:18:06.000Z</time></trkpt>
        <trkpt lat="29.477584" lon="103.282518"><ele>1804.3115</ele><time>2026-02-19T22:18:11.000Z</time></trkpt>
        <trkpt lat="29.477593" lon="103.282457"><ele>1803.7087</ele><time>2026-02-19T22:18:15.000Z</time></trkpt>
        <trkpt lat="29.477586" lon="103.282389"><ele>1803.348</ele><time>2026-02-19T22:18:19.000Z</time></trkpt>
        <trkpt lat="29.47756" lon="103.282333"><ele>1804.0706</ele><time>2026-02-19T22:18:23.000Z</time></trkpt>
        <trkpt lat="29.477531" lon="103.282283"><ele>1804.0723</ele><time>2026-02-19T22:18:27.000Z</time></trkpt>
        <trkpt lat="29.477506" lon="103.282222"><ele>1805.7633</ele><time>2026-02-19T22:18:32.000Z</time></trkpt>
        <trkpt lat="29.477492" lon="103.282171"><ele>1807.3586</ele><time>2026-02-19T22:18:36.000Z</time></trkpt>
        <trkpt lat="29.477488" lon="103.282102"><ele>1809.1073</ele><time>2026-02-19T22:18:41.000Z</time></trkpt>
        <trkpt lat="29.477485" lon="103.282043"><ele>1810.1031</ele><time>2026-02-19T22:18:45.000Z</time></trkpt>
        <trkpt lat="29.477471" lon="103.28199"><ele>1811.2705</ele><time>2026-02-19T22:18:49.000Z</time></trkpt>
        <trkpt lat="29.477456" lon="103.28193"><ele>1809.9562</ele><time>2026-02-19T22:18:55.000Z</time></trkpt>
        <trkpt lat="29.477438" lon="103.281872"><ele>1808.9972</ele><time>2026-02-19T22:19:00.000Z</time></trkpt>
        <trkpt lat="29.47742" lon="103.281827"><ele>1807.8654</ele><time>2026-02-19T22:19:03.000Z</time></trkpt>
        <trkpt lat="29.477372" lon="103.281792"><ele>1808.0381</ele><time>2026-02-19T22:19:08.000Z</time></trkpt>
        <trkpt lat="29.477313" lon="103.281797"><ele>1809.646</ele><time>2026-02-19T22:19:12.000Z</time></trkpt>
        <trkpt lat="29.477277" lon="103.281843"><ele>1811.4974</ele><time>2026-02-19T22:19:16.000Z</time></trkpt>
        <trkpt lat="29.477256" lon="103.281895"><ele>1812.6229</ele><time>2026-02-19T22:19:19.000Z</time></trkpt>
        <trkpt lat="29.47724" lon="103.281967"><ele>1814.3489</ele><time>2026-02-19T22:19:24.000Z</time></trkpt>
        <trkpt lat="29.477233" lon="103.282029"><ele>1815.9319</ele><time>2026-02-19T22:19:28.000Z</time></trkpt>
        <trkpt lat="29.477227" lon="103.282078"><ele>1817.282</ele><time>2026-02-19T22:19:31.000Z</time></trkpt>
        <trkpt lat="29.477209" lon="103.282142"><ele>1818.8286</ele><time>2026-02-19T22:19:47.000Z</time></trkpt>
        <trkpt lat="29.477177" lon="103.282165"><ele>1820.0609</ele><time>2026-02-19T22:19:51.000Z</time></trkpt>
        <trkpt lat="29.477146" lon="103.282207"><ele>1821.007</ele><time>2026-02-19T22:19:55.000Z</time></trkpt>
        <trkpt lat="29.477107" lon="103.282246"><ele>1821.3763</ele><time>2026-02-19T22:19:58.000Z</time></trkpt>
        <trkpt lat="29.477063" lon="103.282281"><ele>1819.9896</ele><time>2026-02-19T22:20:03.000Z</time></trkpt>
        <trkpt lat="29.477026" lon="103.282324"><ele>1820.2974</ele><time>2026-02-19T22:20:08.000Z</time></trkpt>
        <trkpt lat="29.476986" lon="103.282351"><ele>1821.2749</ele><time>2026-02-19T22:20:12.000Z</time></trkpt>
        <trkpt lat="29.476936" lon="103.282372"><ele>1822.8114</ele><time>2026-02-19T22:20:19.000Z</time></trkpt>
        <trkpt lat="29.4769" lon="103.282399"><ele>1821.9368</ele><time>2026-02-19T22:20:26.000Z</time></trkpt>
        <trkpt lat="29.476861" lon="103.282433"><ele>1814.7224</ele><time>2026-02-19T22:20:52.000Z</time></trkpt>
        <trkpt lat="29.476822" lon="103.282449"><ele>1816.0084</ele><time>2026-02-19T22:21:01.000Z</time></trkpt>
        <trkpt lat="29.476786" lon="103.282483"><ele>1818.8578</ele><time>2026-02-19T22:21:07.000Z</time></trkpt>
        <trkpt lat="29.47676" lon="103.282533"><ele>1822.8177</ele><time>2026-02-19T22:21:14.000Z</time></trkpt>
        <trkpt lat="29.47674" lon="103.282585"><ele>1824.4786</ele><time>2026-02-19T22:21:20.000Z</time></trkpt>
        <trkpt lat="29.476707" lon="103.28263"><ele>1824.736</ele><time>2026-02-19T22:21:26.000Z</time></trkpt>
        <trkpt lat="29.476668" lon="103.282666"><ele>1825.2997</ele><time>2026-02-19T22:21:33.000Z</time></trkpt>
        <trkpt lat="29.476619" lon="103.282685"><ele>1824.7264</ele><time>2026-02-19T22:21:49.000Z</time></trkpt>
        <trkpt lat="29.476574" lon="103.282695"><ele>1821.1412</ele><time>2026-02-19T22:22:20.000Z</time></trkpt>
        <trkpt lat="29.47654" lon="103.282731"><ele>1821.0105</ele><time>2026-02-19T22:22:25.000Z</time></trkpt>
        <trkpt lat="29.476496" lon="103.282762"><ele>1822.3037</ele><time>2026-02-19T22:22:30.000Z</time></trkpt>
        <trkpt lat="29.476449" lon="103.282788"><ele>1823.2449</ele><time>2026-02-19T22:22:36.000Z</time></trkpt>
        <trkpt lat="29.476403" lon="103.282813"><ele>1824.4822</ele><time>2026-02-19T22:22:42.000Z</time></trkpt>
        <trkpt lat="29.476358" lon="103.282826"><ele>1825.1519</ele><time>2026-02-19T22:22:48.000Z</time></trkpt>
        <trkpt lat="29.476317" lon="103.282828"><ele>1825.8225</ele><time>2026-02-19T22:22:52.000Z</time></trkpt>
        <trkpt lat="29.476262" lon="103.282821"><ele>1827.9336</ele><time>2026-02-19T22:23:01.000Z</time></trkpt>
        <trkpt lat="29.47622" lon="103.28281"><ele>1829.3336</ele><time>2026-02-19T22:23:07.000Z</time></trkpt>
        <trkpt lat="29.476168" lon="103.282806"><ele>1830.822</ele><time>2026-02-19T22:23:19.000Z</time></trkpt>
        <trkpt lat="29.476126" lon="103.282784"><ele>1831.8356</ele><time>2026-02-19T22:23:28.000Z</time></trkpt>
        <trkpt lat="29.476081" lon="103.282781"><ele>1833.4003</ele><time>2026-02-19T22:23:33.000Z</time></trkpt>
        <trkpt lat="29.47603" lon="103.28277"><ele>1832.6924</ele><time>2026-02-19T22:23:40.000Z</time></trkpt>
        <trkpt lat="29.475984" lon="103.282765"><ele>1832.8444</ele><time>2026-02-19T22:23:46.000Z</time></trkpt>
        <trkpt lat="29.475938" lon="103.282777"><ele>1833.2753</ele><time>2026-02-19T22:23:52.000Z</time></trkpt>
        <trkpt lat="29.475888" lon="103.282783"><ele>1837.3162</ele><time>2026-02-19T22:24:20.000Z</time></trkpt>
        <trkpt lat="29.475848" lon="103.282797"><ele>1839.3757</ele><time>2026-02-19T22:24:29.000Z</time></trkpt>
        <trkpt lat="29.475797" lon="103.282822"><ele>1838.2921</ele><time>2026-02-19T22:24:37.000Z</time></trkpt>
        <trkpt lat="29.475753" lon="103.282841"><ele>1838.0303</ele><time>2026-02-19T22:24:43.000Z</time></trkpt>
        <trkpt lat="29.475706" lon="103.282862"><ele>1836.3018</ele><time>2026-02-19T22:24:50.000Z</time></trkpt>
        <trkpt lat="29.475661" lon="103.282886"><ele>1835.572</ele><time>2026-02-19T22:24:57.000Z</time></trkpt>
        <trkpt lat="29.475616" lon="103.282912"><ele>1835.7455</ele><time>2026-02-19T22:25:04.000Z</time></trkpt>
        <trkpt lat="29.475575" lon="103.28295"><ele>1837.6456</ele><time>2026-02-19T22:25:11.000Z</time></trkpt>
        <trkpt lat="29.475535" lon="103.282976"><ele>1838.3154</ele><time>2026-02-19T22:25:18.000Z</time></trkpt>
        <trkpt lat="29.475487" lon="103.283006"><ele>1840.003</ele><time>2026-02-19T22:25:25.000Z</time></trkpt>
        <trkpt lat="29.475446" lon="103.28302"><ele>1839.1621</ele><time>2026-02-19T22:25:29.000Z</time></trkpt>
        <trkpt lat="29.4754" lon="103.283049"><ele>1838.1433</ele><time>2026-02-19T22:25:34.000Z</time></trkpt>
        <trkpt lat="29.47536" lon="103.28309"><ele>1836.1321</ele><time>2026-02-19T22:25:40.000Z</time></trkpt>
        <trkpt lat="29.475345" lon="103.283143"><ele>1834.956</ele><time>2026-02-19T22:25:46.000Z</time></trkpt>
        <trkpt lat="29.47535" lon="103.283206"><ele>1833.6189</ele><time>2026-02-19T22:25:55.000Z</time></trkpt>
        <trkpt lat="29.475358" lon="103.283258"><ele>1831.667</ele><time>2026-02-19T22:26:03.000Z</time></trkpt>
        <trkpt lat="29.475385" lon="103.283299"><ele>1830.4225</ele><time>2026-02-19T22:26:08.000Z</time></trkpt>
        <trkpt lat="29.475423" lon="103.283345"><ele>1830.4825</ele><time>2026-02-19T22:26:13.000Z</time></trkpt>
        <trkpt lat="29.475451" lon="103.283393"><ele>1833.2273</ele><time>2026-02-19T22:26:19.000Z</time></trkpt>
        <trkpt lat="29.475465" lon="103.283448"><ele>1834.395</ele><time>2026-02-19T22:26:26.000Z</time></trkpt>
        <trkpt lat="29.47546" lon="103.283502"><ele>1834.2728</ele><time>2026-02-19T22:26:33.000Z</time></trkpt>
        <trkpt lat="29.475442" lon="103.283552"><ele>1833.399</ele><time>2026-02-19T22:26:39.000Z</time></trkpt>
        <trkpt lat="29.475407" lon="103.28359"><ele>1834.1407</ele><time>2026-02-19T22:26:44.000Z</time></trkpt>
        <trkpt lat="29.475368" lon="103.283634"><ele>1834.2703</ele><time>2026-02-19T22:26:50.000Z</time></trkpt>
        <trkpt lat="29.475345" lon="103.283677"><ele>1835.8464</ele><time>2026-02-19T22:26:54.000Z</time></trkpt>
        <trkpt lat="29.475333" lon="103.283742"><ele>1838.5149</ele><time>2026-02-19T22:27:00.000Z</time></trkpt>
        <trkpt lat="29.475317" lon="103.283804"><ele>1840.8679</ele><time>2026-02-19T22:27:07.000Z</time></trkpt>
        <trkpt lat="29.475269" lon="103.283827"><ele>1841.3799</ele><time>2026-02-19T22:27:14.000Z</time></trkpt>
        <trkpt lat="29.47522" lon="103.283836"><ele>1842.454</ele><time>2026-02-19T22:27:20.000Z</time></trkpt>
        <trkpt lat="29.475174" lon="103.283849"><ele>1843.3204</ele><time>2026-02-19T22:27:24.000Z</time></trkpt>
        <trkpt lat="29.475123" lon="103.283882"><ele>1844.826</ele><time>2026-02-19T22:27:29.000Z</time></trkpt>
        <trkpt lat="29.475082" lon="103.283913"><ele>1846.114</ele><time>2026-02-19T22:27:33.000Z</time></trkpt>
        <trkpt lat="29.475033" lon="103.283954"><ele>1848.7557</ele><time>2026-02-19T22:27:38.000Z</time></trkpt>
        <trkpt lat="29.474982" lon="103.283976"><ele>1850.1895</ele><time>2026-02-19T22:27:44.000Z</time></trkpt>
        <trkpt lat="29.474942" lon="103.283991"><ele>1845.4404</ele><time>2026-02-19T22:27:48.000Z</time></trkpt>
        <trkpt lat="29.474898" lon="103.284007"><ele>1843.5417</ele><time>2026-02-19T22:27:52.000Z</time></trkpt>
        <trkpt lat="29.474849" lon="103.284028"><ele>1841.7451</ele><time>2026-02-19T22:27:57.000Z</time></trkpt>
        <trkpt lat="29.474806" lon="103.284065"><ele>1840.1251</ele><time>2026-02-19T22:28:02.000Z</time></trkpt>
        <trkpt lat="29.474769" lon="103.284108"><ele>1838.1527</ele><time>2026-02-19T22:28:07.000Z</time></trkpt>
        <trkpt lat="29.474742" lon="103.284158"><ele>1838.2434</ele><time>2026-02-19T22:28:12.000Z</time></trkpt>
        <trkpt lat="29.474721" lon="103.284207"><ele>1838.2844</ele><time>2026-02-19T22:28:16.000Z</time></trkpt>
        <trkpt lat="29.474689" lon="103.284254"><ele>1837.2281</ele><time>2026-02-19T22:28:24.000Z</time></trkpt>
        <trkpt lat="29.474666" lon="103.284288"><ele>1837.0685</ele><time>2026-02-19T22:28:28.000Z</time></trkpt>
        <trkpt lat="29.474621" lon="103.284311"><ele>1837.8888</ele><time>2026-02-19T22:28:33.000Z</time></trkpt>
        <trkpt lat="29.474564" lon="103.284312"><ele>1837.9852</ele><time>2026-02-19T22:28:39.000Z</time></trkpt>
        <trkpt lat="29.47452" lon="103.284302"><ele>1838.3308</ele><time>2026-02-19T22:28:43.000Z</time></trkpt>
        <trkpt lat="29.474467" lon="103.2843"><ele>1840.042</ele><time>2026-02-19T22:28:50.000Z</time></trkpt>
        <trkpt lat="29.474414" lon="103.284299"><ele>1838.1069</ele><time>2026-02-19T22:29:05.000Z</time></trkpt>
        <trkpt lat="29.474386" lon="103.284325"><ele>1838.4591</ele><time>2026-02-19T22:29:09.000Z</time></trkpt>
        <trkpt lat="29.474338" lon="103.284364"><ele>1840.5282</ele><time>2026-02-19T22:29:14.000Z</time></trkpt>
        <trkpt lat="29.474292" lon="103.284407"><ele>1840.2452</ele><time>2026-02-19T22:29:19.000Z</time></trkpt>
        <trkpt lat="29.474268" lon="103.284453"><ele>1839.4183</ele><time>2026-02-19T22:29:24.000Z</time></trkpt>
        <trkpt lat="29.474252" lon="103.284509"><ele>1839.9553</ele><time>2026-02-19T22:29:28.000Z</time></trkpt>
        <trkpt lat="29.474256" lon="103.284582"><ele>1838.6195</ele><time>2026-02-19T22:29:34.000Z</time></trkpt>
        <trkpt lat="29.474279" lon="103.284637"><ele>1837.0212</ele><time>2026-02-19T22:29:40.000Z</time></trkpt>
        <trkpt lat="29.474299" lon="103.284687"><ele>1837.0844</ele><time>2026-02-19T22:29:47.000Z</time></trkpt>
        <trkpt lat="29.474312" lon="103.284743"><ele>1837.8558</ele><time>2026-02-19T22:29:53.000Z</time></trkpt>
        <trkpt lat="29.474302" lon="103.284792"><ele>1837.6836</ele><time>2026-02-19T22:29:58.000Z</time></trkpt>
        <trkpt lat="29.474277" lon="103.284842"><ele>1839.2795</ele><time>2026-02-19T22:30:03.000Z</time></trkpt>
        <trkpt lat="29.474237" lon="103.28488"><ele>1843.2705</ele><time>2026-02-19T22:30:09.000Z</time></trkpt>
        <trkpt lat="29.4742" lon="103.284907"><ele>1844.2135</ele><time>2026-02-19T22:30:14.000Z</time></trkpt>
        <trkpt lat="29.474154" lon="103.284943"><ele>1844.1382</ele><time>2026-02-19T22:30:20.000Z</time></trkpt>
        <trkpt lat="29.474109" lon="103.28496"><ele>1844.9824</ele><time>2026-02-19T22:30:24.000Z</time></trkpt>
        <trkpt lat="29.474058" lon="103.284974"><ele>1844.7921</ele><time>2026-02-19T22:30:29.000Z</time></trkpt>
        <trkpt lat="29.474008" lon="103.284984"><ele>1844.9496</ele><time>2026-02-19T22:30:34.000Z</time></trkpt>
        <trkpt lat="29.473952" lon="103.284998"><ele>1844.6053</ele><time>2026-02-19T22:30:40.000Z</time></trkpt>
        <trkpt lat="29.473898" lon="103.284997"><ele>1842.6863</ele><time>2026-02-19T22:30:46.000Z</time></trkpt>
        <trkpt lat="29.473856" lon="103.284991"><ele>1841.6371</ele><time>2026-02-19T22:30:50.000Z</time></trkpt>
        <trkpt lat="29.473799" lon="103.284977"><ele>1842.3622</ele><time>2026-02-19T22:30:55.000Z</time></trkpt>
        <trkpt lat="29.473743" lon="103.28496"><ele>1841.8646</ele><time>2026-02-19T22:31:00.000Z</time></trkpt>
        <trkpt lat="29.473682" lon="103.284963"><ele>1840.2374</ele><time>2026-02-19T22:31:06.000Z</time></trkpt>
        <trkpt lat="29.473635" lon="103.28497"><ele>1838.8159</ele><time>2026-02-19T22:31:11.000Z</time></trkpt>
        <trkpt lat="29.473585" lon="103.284975"><ele>1839.4729</ele><time>2026-02-19T22:31:15.000Z</time></trkpt>
        <trkpt lat="29.47353" lon="103.28498"><ele>1839.0269</ele><time>2026-02-19T22:31:20.000Z</time></trkpt>
        <trkpt lat="29.473481" lon="103.284973"><ele>1838.7047</ele><time>2026-02-19T22:31:25.000Z</time></trkpt>
        <trkpt lat="29.473435" lon="103.284969"><ele>1837.364</ele><time>2026-02-19T22:31:31.000Z</time></trkpt>
        <trkpt lat="29.473392" lon="103.28496"><ele>1836.451</ele><time>2026-02-19T22:31:35.000Z</time></trkpt>
        <trkpt lat="29.473347" lon="103.28495"><ele>1835.176</ele><time>2026-02-19T22:31:39.000Z</time></trkpt>
        <trkpt lat="29.473294" lon="103.284927"><ele>1831.6187</ele><time>2026-02-19T22:31:45.000Z</time></trkpt>
        <trkpt lat="29.473248" lon="103.284907"><ele>1829.877</ele><time>2026-02-19T22:31:51.000Z</time></trkpt>
        <trkpt lat="29.473198" lon="103.2849"><ele>1830.0945</ele><time>2026-02-19T22:31:56.000Z</time></trkpt>
        <trkpt lat="29.473147" lon="103.284883"><ele>1828.1705</ele><time>2026-02-19T22:32:02.000Z</time></trkpt>
        <trkpt lat="29.473099" lon="103.284872"><ele>1828.1251</ele><time>2026-02-19T22:32:07.000Z</time></trkpt>
        <trkpt lat="29.473048" lon="103.284863"><ele>1827.2917</ele><time>2026-02-19T22:32:12.000Z</time></trkpt>
        <trkpt lat="29.472997" lon="103.284861"><ele>1826.1</ele><time>2026-02-19T22:32:17.000Z</time></trkpt>
        <trkpt lat="29.472954" lon="103.284862"><ele>1826.3507</ele><time>2026-02-19T22:32:21.000Z</time></trkpt>
        <trkpt lat="29.472903" lon="103.284847"><ele>1826.0719</ele><time>2026-02-19T22:32:26.000Z</time></trkpt>
        <trkpt lat="29.47286" lon="103.284819"><ele>1824.8333</ele><time>2026-02-19T22:32:30.000Z</time></trkpt>
        <trkpt lat="29.472812" lon="103.284788"><ele>1824.9037</ele><time>2026-02-19T22:32:35.000Z</time></trkpt>
        <trkpt lat="29.472757" lon="103.284773"><ele>1823.4912</ele><time>2026-02-19T22:32:41.000Z</time></trkpt>
        <trkpt lat="29.472708" lon="103.284769"><ele>1823.3278</ele><time>2026-02-19T22:32:46.000Z</time></trkpt>
        <trkpt lat="29.472656" lon="103.284757"><ele>1821.3422</ele><time>2026-02-19T22:32:52.000Z</time></trkpt>
        <trkpt lat="29.472611" lon="103.284737"><ele>1821.1785</ele><time>2026-02-19T22:32:57.000Z</time></trkpt>
        <trkpt lat="29.472564" lon="103.284723"><ele>1821.4238</ele><time>2026-02-19T22:33:02.000Z</time></trkpt>
        <trkpt lat="29.472515" lon="103.284706"><ele>1821.2166</ele><time>2026-02-19T22:33:07.000Z</time></trkpt>
        <trkpt lat="29.472465" lon="103.2847"><ele>1820.1489</ele><time>2026-02-19T22:33:12.000Z</time></trkpt>
        <trkpt lat="29.472419" lon="103.284717"><ele>1818.0262</ele><time>2026-02-19T22:33:17.000Z</time></trkpt>
        <trkpt lat="29.472367" lon="103.284733"><ele>1815.1893</ele><time>2026-02-19T22:33:23.000Z</time></trkpt>
        <trkpt lat="29.47232" lon="103.284722"><ele>1814.2633</ele><time>2026-02-19T22:33:28.000Z</time></trkpt>
        <trkpt lat="29.472273" lon="103.284706"><ele>1811.9758</ele><time>2026-02-19T22:33:33.000Z</time></trkpt>
        <trkpt lat="29.472221" lon="103.284694"><ele>1810.8306</ele><time>2026-02-19T22:33:40.000Z</time></trkpt>
        <trkpt lat="29.472173" lon="103.284693"><ele>1811.0667</ele><time>2026-02-19T22:33:45.000Z</time></trkpt>
        <trkpt lat="29.472121" lon="103.284701"><ele>1811.0414</ele><time>2026-02-19T22:33:50.000Z</time></trkpt>
        <trkpt lat="29.472065" lon="103.284722"><ele>1811.8627</ele><time>2026-02-19T22:33:55.000Z</time></trkpt>
        <trkpt lat="29.472029" lon="103.284773"><ele>1809.2917</ele><time>2026-02-19T22:34:01.000Z</time></trkpt>
        <trkpt lat="29.472001" lon="103.284821"><ele>1808.6886</ele><time>2026-02-19T22:34:06.000Z</time></trkpt>
        <trkpt lat="29.471957" lon="103.28483"><ele>1807.7654</ele><time>2026-02-19T22:34:11.000Z</time></trkpt>
        <trkpt lat="29.471919" lon="103.284802"><ele>1806.4912</ele><time>2026-02-19T22:34:16.000Z</time></trkpt>
        <trkpt lat="29.471895" lon="103.284749"><ele>1804.0925</ele><time>2026-02-19T22:34:22.000Z</time></trkpt>
        <trkpt lat="29.47191" lon="103.284694"><ele>1801.8192</ele><time>2026-02-19T22:34:28.000Z</time></trkpt>
        <trkpt lat="29.471933" lon="103.284637"><ele>1800.5038</ele><time>2026-02-19T22:34:32.000Z</time></trkpt>
        <trkpt lat="29.47196" lon="103.284581"><ele>1797.7183</ele><time>2026-02-19T22:34:38.000Z</time></trkpt>
        <trkpt lat="29.471982" lon="103.284532"><ele>1796.5199</ele><time>2026-02-19T22:34:43.000Z</time></trkpt>
        <trkpt lat="29.472015" lon="103.28448"><ele>1795.2521</ele><time>2026-02-19T22:34:49.000Z</time></trkpt>
        <trkpt lat="29.472054" lon="103.284451"><ele>1792.619</ele><time>2026-02-19T22:34:54.000Z</time></trkpt>
        <trkpt lat="29.472081" lon="103.284415"><ele>1792.9812</ele><time>2026-02-19T22:34:58.000Z</time></trkpt>
        <trkpt lat="29.472108" lon="103.284363"><ele>1793.4741</ele><time>2026-02-19T22:35:03.000Z</time></trkpt>
        <trkpt lat="29.472105" lon="103.284305"><ele>1794.521</ele><time>2026-02-19T22:35:09.000Z</time></trkpt>
        <trkpt lat="29.472062" lon="103.284271"><ele>1794.6061</ele><time>2026-02-19T22:35:17.000Z</time></trkpt>
        <trkpt lat="29.472011" lon="103.284283"><ele>1794.12</ele><time>2026-02-19T22:35:27.000Z</time></trkpt>
        <trkpt lat="29.471967" lon="103.284283"><ele>1793.364</ele><time>2026-02-19T22:35:34.000Z</time></trkpt>
        <trkpt lat="29.471915" lon="103.284278"><ele>1794.521</ele><time>2026-02-19T22:35:42.000Z</time></trkpt>
        <trkpt lat="29.471869" lon="103.284284"><ele>1794.8257</ele><time>2026-02-19T22:35:48.000Z</time></trkpt>
        <trkpt lat="29.471827" lon="103.284304"><ele>1795.991</ele><time>2026-02-19T22:35:52.000Z</time></trkpt>
        <trkpt lat="29.471785" lon="103.284338"><ele>1797.234</ele><time>2026-02-19T22:35:57.000Z</time></trkpt>
        <trkpt lat="29.471742" lon="103.284365"><ele>1798.0093</ele><time>2026-02-19T22:36:02.000Z</time></trkpt>
        <trkpt lat="29.471688" lon="103.284381"><ele>1797.288</ele><time>2026-02-19T22:36:08.000Z</time></trkpt>
        <trkpt lat="29.471629" lon="103.28439"><ele>1796.602</ele><time>2026-02-19T22:36:14.000Z</time></trkpt>
        <trkpt lat="29.471583" lon="103.284402"><ele>1795.996</ele><time>2026-02-19T22:36:19.000Z</time></trkpt>
        <trkpt lat="29.471529" lon="103.284408"><ele>1795.4131</ele><time>2026-02-19T22:36:24.000Z</time></trkpt>
        <trkpt lat="29.47148" lon="103.28442"><ele>1794.8403</ele><time>2026-02-19T22:36:29.000Z</time></trkpt>
        <trkpt lat="29.471437" lon="103.28444"><ele>1793.5863</ele><time>2026-02-19T22:36:32.000Z</time></trkpt>
        <trkpt lat="29.471397" lon="103.284477"><ele>1794.3167</ele><time>2026-02-19T22:36:36.000Z</time></trkpt>
        <trkpt lat="29.471354" lon="103.284517"><ele>1794.726</ele><time>2026-02-19T22:36:41.000Z</time></trkpt>
        <trkpt lat="29.471309" lon="103.284522"><ele>1795.0988</ele><time>2026-02-19T22:36:45.000Z</time></trkpt>
        <trkpt lat="29.471253" lon="103.284505"><ele>1796.3651</ele><time>2026-02-19T22:36:50.000Z</time></trkpt>
        <trkpt lat="29.471206" lon="103.284474"><ele>1795.0394</ele><time>2026-02-19T22:36:55.000Z</time></trkpt>
        <trkpt lat="29.471169" lon="103.284435"><ele>1793.7161</ele><time>2026-02-19T22:37:00.000Z</time></trkpt>
        <trkpt lat="29.471137" lon="103.284401"><ele>1792.455</ele><time>2026-02-19T22:37:04.000Z</time></trkpt>
        <trkpt lat="29.471094" lon="103.284387"><ele>1792.2737</ele><time>2026-02-19T22:37:08.000Z</time></trkpt>
        <trkpt lat="29.471045" lon="103.284387"><ele>1792.6641</ele><time>2026-02-19T22:37:12.000Z</time></trkpt>
        <trkpt lat="29.470987" lon="103.284391"><ele>1792.7332</ele><time>2026-02-19T22:37:18.000Z</time></trkpt>
        <trkpt lat="29.470939" lon="103.284386"><ele>1792.1162</ele><time>2026-02-19T22:37:24.000Z</time></trkpt>
        <trkpt lat="29.470891" lon="103.284385"><ele>1792.8345</ele><time>2026-02-19T22:37:29.000Z</time></trkpt>
        <trkpt lat="29.470842" lon="103.284382"><ele>1791.6698</ele><time>2026-02-19T22:37:34.000Z</time></trkpt>
        <trkpt lat="29.470796" lon="103.284385"><ele>1791.6885</ele><time>2026-02-19T22:37:38.000Z</time></trkpt>
        <trkpt lat="29.47075" lon="103.284373"><ele>1790.7937</ele><time>2026-02-19T22:37:42.000Z</time></trkpt>
        <trkpt lat="29.470693" lon="103.284355"><ele>1788.856</ele><time>2026-02-19T22:37:49.000Z</time></trkpt>
        <trkpt lat="29.470646" lon="103.284333"><ele>1788.4985</ele><time>2026-02-19T22:37:54.000Z</time></trkpt>
        <trkpt lat="29.470598" lon="103.284307"><ele>1789.6044</ele><time>2026-02-19T22:37:59.000Z</time></trkpt>
        <trkpt lat="29.470551" lon="103.284278"><ele>1790.1198</ele><time>2026-02-19T22:38:04.000Z</time></trkpt>
        <trkpt lat="29.470506" lon="103.284257"><ele>1790.2872</ele><time>2026-02-19T22:38:08.000Z</time></trkpt>
        <trkpt lat="29.470453" lon="103.28426"><ele>1791.3849</ele><time>2026-02-19T22:38:13.000Z</time></trkpt>
        <trkpt lat="29.470407" lon="103.284258"><ele>1792.6122</ele><time>2026-02-19T22:38:17.000Z</time></trkpt>
        <trkpt lat="29.470364" lon="103.28429"><ele>1793.9319</ele><time>2026-02-19T22:38:21.000Z</time></trkpt>
        <trkpt lat="29.470324" lon="103.284329"><ele>1794.6737</ele><time>2026-02-19T22:38:25.000Z</time></trkpt>
        <trkpt lat="29.47028" lon="103.284356"><ele>1794.531</ele><time>2026-02-19T22:38:29.000Z</time></trkpt>
        <trkpt lat="29.470227" lon="103.284378"><ele>1792.6044</ele><time>2026-02-19T22:38:36.000Z</time></trkpt>
        <trkpt lat="29.470183" lon="103.28438"><ele>1789.0607</ele><time>2026-02-19T22:38:43.000Z</time></trkpt>
        <trkpt lat="29.47014" lon="103.28438"><ele>1788.1406</ele><time>2026-02-19T22:38:48.000Z</time></trkpt>
        <trkpt lat="29.470096" lon="103.284397"><ele>1786.7034</ele><time>2026-02-19T22:38:53.000Z</time></trkpt>
        <trkpt lat="29.470047" lon="103.284418"><ele>1785.2095</ele><time>2026-02-19T22:38:58.000Z</time></trkpt>
        <trkpt lat="29.470008" lon="103.284459"><ele>1784.5116</ele><time>2026-02-19T22:39:03.000Z</time></trkpt>
        <trkpt lat="29.469976" lon="103.284498"><ele>1785.6049</ele><time>2026-02-19T22:39:07.000Z</time></trkpt>
        <trkpt lat="29.469945" lon="103.284548"><ele>1784.6259</ele><time>2026-02-19T22:39:13.000Z</time></trkpt>
        <trkpt lat="29.4699" lon="103.284562"><ele>1781.3916</ele><time>2026-02-19T22:39:19.000Z</time></trkpt>
        <trkpt lat="29.469856" lon="103.284559"><ele>1779.69</ele><time>2026-02-19T22:39:23.000Z</time></trkpt>
        <trkpt lat="29.469806" lon="103.284539"><ele>1778.7207</ele><time>2026-02-19T22:39:28.000Z</time></trkpt>
        <trkpt lat="29.469754" lon="103.284508"><ele>1780.2687</ele><time>2026-02-19T22:39:33.000Z</time></trkpt>
        <trkpt lat="29.469705" lon="103.284483"><ele>1780.4202</ele><time>2026-02-19T22:39:39.000Z</time></trkpt>
        <trkpt lat="29.46966" lon="103.284462"><ele>1780.1777</ele><time>2026-02-19T22:39:44.000Z</time></trkpt>
        <trkpt lat="29.469612" lon="103.284451"><ele>1779.8959</ele><time>2026-02-19T22:39:49.000Z</time></trkpt>
        <trkpt lat="29.469565" lon="103.284455"><ele>1780.9086</ele><time>2026-02-19T22:39:54.000Z</time></trkpt>
        <trkpt lat="29.469521" lon="103.284478"><ele>1781.8516</ele><time>2026-02-19T22:39:58.000Z</time></trkpt>
        <trkpt lat="29.469474" lon="103.284516"><ele>1784.5808</ele><time>2026-02-19T22:40:02.000Z</time></trkpt>
        <trkpt lat="29.469429" lon="103.284547"><ele>1786.5277</ele><time>2026-02-19T22:40:06.000Z</time></trkpt>
        <trkpt lat="29.469381" lon="103.284585"><ele>1785.7711</ele><time>2026-02-19T22:40:11.000Z</time></trkpt>
        <trkpt lat="29.469336" lon="103.284619"><ele>1782.8031</ele><time>2026-02-19T22:40:17.000Z</time></trkpt>
        <trkpt lat="29.469292" lon="103.284614"><ele>1781.5746</ele><time>2026-02-19T22:40:23.000Z</time></trkpt>
        <trkpt lat="29.469247" lon="103.284567"><ele>1775.8182</ele><time>2026-02-19T22:40:33.000Z</time></trkpt>
        <trkpt lat="29.469206" lon="103.28454"><ele>1772.5253</ele><time>2026-02-19T22:40:40.000Z</time></trkpt>
        <trkpt lat="29.469151" lon="103.28454"><ele>1773.179</ele><time>2026-02-19T22:40:45.000Z</time></trkpt>
        <trkpt lat="29.469106" lon="103.284549"><ele>1774.7367</ele><time>2026-02-19T22:40:49.000Z</time></trkpt>
        <trkpt lat="29.469053" lon="103.284564"><ele>1775.7747</ele><time>2026-02-19T22:40:54.000Z</time></trkpt>
        <trkpt lat="29.469008" lon="103.284577"><ele>1776.1387</ele><time>2026-02-19T22:40:58.000Z</time></trkpt>
        <trkpt lat="29.468952" lon="103.284595"><ele>1776.8999</ele><time>2026-02-19T22:41:03.000Z</time></trkpt>
        <trkpt lat="29.468908" lon="103.284624"><ele>1777.236</ele><time>2026-02-19T22:41:08.000Z</time></trkpt>
        <trkpt lat="29.46887" lon="103.284652"><ele>1775.751</ele><time>2026-02-19T22:41:12.000Z</time></trkpt>
        <trkpt lat="29.468829" lon="103.284683"><ele>1773.7424</ele><time>2026-02-19T22:41:17.000Z</time></trkpt>
        <trkpt lat="29.468784" lon="103.28471"><ele>1771.8229</ele><time>2026-02-19T22:41:23.000Z</time></trkpt>
        <trkpt lat="29.468737" lon="103.284718"><ele>1770.5803</ele><time>2026-02-19T22:41:42.000Z</time></trkpt>
        <trkpt lat="29.468717" lon="103.284758"><ele>1770.1884</ele><time>2026-02-19T22:41:47.000Z</time></trkpt>
        <trkpt lat="29.468692" lon="103.284803"><ele>1768.4086</ele><time>2026-02-19T22:41:51.000Z</time></trkpt>
        <trkpt lat="29.468661" lon="103.284853"><ele>1767.082</ele><time>2026-02-19T22:41:55.000Z</time></trkpt>
        <trkpt lat="29.468639" lon="103.28492"><ele>1765.2953</ele><time>2026-02-19T22:42:01.000Z</time></trkpt>
        <trkpt lat="29.468612" lon="103.284983"><ele>1765.3613</ele><time>2026-02-19T22:42:07.000Z</time></trkpt>
        <trkpt lat="29.468566" lon="103.284977"><ele>1764.5912</ele><time>2026-02-19T22:42:13.000Z</time></trkpt>
        <trkpt lat="29.468522" lon="103.284947"><ele>1763.7046</ele><time>2026-02-19T22:42:18.000Z</time></trkpt>
        <trkpt lat="29.468488" lon="103.28491"><ele>1762.5763</ele><time>2026-02-19T22:42:22.000Z</time></trkpt>
        <trkpt lat="29.468451" lon="103.284862"><ele>1760.3885</ele><time>2026-02-19T22:42:28.000Z</time></trkpt>
        <trkpt lat="29.468418" lon="103.284823"><ele>1759.682</ele><time>2026-02-19T22:42:33.000Z</time></trkpt>
        <trkpt lat="29.468381" lon="103.284784"><ele>1758.3096</ele><time>2026-02-19T22:42:38.000Z</time></trkpt>
        <trkpt lat="29.468337" lon="103.284743"><ele>1757.8188</ele><time>2026-02-19T22:42:43.000Z</time></trkpt>
        <trkpt lat="29.468293" lon="103.284723"><ele>1758.2871</ele><time>2026-02-19T22:42:47.000Z</time></trkpt>
        <trkpt lat="29.468237" lon="103.284714"><ele>1758.273</ele><time>2026-02-19T22:42:51.000Z</time></trkpt>
        <trkpt lat="29.468191" lon="103.284714"><ele>1759.44</ele><time>2026-02-19T22:42:55.000Z</time></trkpt>
        <trkpt lat="29.468139" lon="103.284718"><ele>1759.4772</ele><time>2026-02-19T22:43:00.000Z</time></trkpt>
        <trkpt lat="29.468087" lon="103.284722"><ele>1759.712</ele><time>2026-02-19T22:43:05.000Z</time></trkpt>
        <trkpt lat="29.468034" lon="103.284711"><ele>1757.8151</ele><time>2026-02-19T22:43:11.000Z</time></trkpt>
        <trkpt lat="29.468003" lon="103.284658"><ele>1754.6284</ele><time>2026-02-19T22:43:17.000Z</time></trkpt>
        <trkpt lat="29.467988" lon="103.284587"><ele>1752.5563</ele><time>2026-02-19T22:43:25.000Z</time></trkpt>
        <trkpt lat="29.467965" lon="103.284541"><ele>1752.9335</ele><time>2026-02-19T22:43:30.000Z</time></trkpt>
        <trkpt lat="29.467936" lon="103.284496"><ele>1752.5526</ele><time>2026-02-19T22:43:35.000Z</time></trkpt>
        <trkpt lat="29.467908" lon="103.284457"><ele>1751.8652</ele><time>2026-02-19T22:43:39.000Z</time></trkpt>
        <trkpt lat="29.467863" lon="103.284423"><ele>1750.2092</ele><time>2026-02-19T22:43:45.000Z</time></trkpt>
        <trkpt lat="29.467819" lon="103.284398"><ele>1749.7043</ele><time>2026-02-19T22:43:50.000Z</time></trkpt>
        <trkpt lat="29.467783" lon="103.28437"><ele>1749.1765</ele><time>2026-02-19T22:43:54.000Z</time></trkpt>
        <trkpt lat="29.467742" lon="103.284335"><ele>1748.203</ele><time>2026-02-19T22:43:59.000Z</time></trkpt>
        <trkpt lat="29.467704" lon="103.284307"><ele>1747.9104</ele><time>2026-02-19T22:44:03.000Z</time></trkpt>
        <trkpt lat="29.467652" lon="103.284291"><ele>1747.3003</ele><time>2026-02-19T22:44:09.000Z</time></trkpt>
        <trkpt lat="29.467601" lon="103.284286"><ele>1748.3962</ele><time>2026-02-19T22:44:14.000Z</time></trkpt>
        <trkpt lat="29.467552" lon="103.284294"><ele>1749.0209</ele><time>2026-02-19T22:44:18.000Z</time></trkpt>
        <trkpt lat="29.467497" lon="103.284305"><ele>1747.8287</ele><time>2026-02-19T22:44:23.000Z</time></trkpt>
        <trkpt lat="29.46744" lon="103.284309"><ele>1747.5647</ele><time>2026-02-19T22:44:29.000Z</time></trkpt>
        <trkpt lat="29.467387" lon="103.284319"><ele>1748.1675</ele><time>2026-02-19T22:44:35.000Z</time></trkpt>
        <trkpt lat="29.467341" lon="103.284317"><ele>1746.3766</ele><time>2026-02-19T22:44:40.000Z</time></trkpt>
        <trkpt lat="29.467299" lon="103.284313"><ele>1743.7716</ele><time>2026-02-19T22:44:44.000Z</time></trkpt>
        <trkpt lat="29.467249" lon="103.284321"><ele>1743.1787</ele><time>2026-02-19T22:44:48.000Z</time></trkpt>
        <trkpt lat="29.467196" lon="103.284322"><ele>1742.4034</ele><time>2026-02-19T22:44:53.000Z</time></trkpt>
        <trkpt lat="29.467151" lon="103.284317"><ele>1741.1945</ele><time>2026-02-19T22:44:57.000Z</time></trkpt>
        <trkpt lat="29.467106" lon="103.284296"><ele>1740.1405</ele><time>2026-02-19T22:45:01.000Z</time></trkpt>
        <trkpt lat="29.467065" lon="103.284262"><ele>1739.4001</ele><time>2026-02-19T22:45:06.000Z</time></trkpt>
        <trkpt lat="29.467029" lon="103.28423"><ele>1739.0925</ele><time>2026-02-19T22:45:10.000Z</time></trkpt>
        <trkpt lat="29.466988" lon="103.284198"><ele>1738.15</ele><time>2026-02-19T22:45:14.000Z</time></trkpt>
        <trkpt lat="29.466938" lon="103.284174"><ele>1738.8606</ele><time>2026-02-19T22:45:19.000Z</time></trkpt>
        <trkpt lat="29.466898" lon="103.284152"><ele>1739.6835</ele><time>2026-02-19T22:45:23.000Z</time></trkpt>
        <trkpt lat="29.466854" lon="103.284134"><ele>1740.2327</ele><time>2026-02-19T22:45:27.000Z</time></trkpt>
        <trkpt lat="29.466808" lon="103.284131"><ele>1739.7917</ele><time>2026-02-19T22:45:31.000Z</time></trkpt>
        <trkpt lat="29.466755" lon="103.284156"><ele>1740.9355</ele><time>2026-02-19T22:45:38.000Z</time></trkpt>
        <trkpt lat="29.466705" lon="103.284162"><ele>1742.4668</ele><time>2026-02-19T22:45:44.000Z</time></trkpt>
        <trkpt lat="29.466653" lon="103.284174"><ele>1743.0878</ele><time>2026-02-19T22:45:50.000Z</time></trkpt>
        <trkpt lat="29.466598" lon="103.284171"><ele>1740.4073</ele><time>2026-02-19T22:46:12.000Z</time></trkpt>
        <trkpt lat="29.466573" lon="103.284189"><ele>1739.5464</ele><time>2026-02-19T22:46:16.000Z</time></trkpt>
        <trkpt lat="29.466536" lon="103.28421"><ele>1740.7128</ele><time>2026-02-19T22:46:19.000Z</time></trkpt>
        <trkpt lat="29.466472" lon="103.284224"><ele>1740.1523</ele><time>2026-02-19T22:46:30.000Z</time></trkpt>
        <trkpt lat="29.466432" lon="103.284227"><ele>1738.7502</ele><time>2026-02-19T22:46:35.000Z</time></trkpt>
        <trkpt lat="29.46638" lon="103.284227"><ele>1737.8734</ele><time>2026-02-19T22:46:43.000Z</time></trkpt>
        <trkpt lat="29.466336" lon="103.284204"><ele>1736.8451</ele><time>2026-02-19T22:46:51.000Z</time></trkpt>
        <trkpt lat="29.466291" lon="103.284184"><ele>1736.4707</ele><time>2026-02-19T22:46:57.000Z</time></trkpt>
        <trkpt lat="29.466245" lon="103.28417"><ele>1735.7185</ele><time>2026-02-19T22:47:01.000Z</time></trkpt>
        <trkpt lat="29.466187" lon="103.284173"><ele>1736.2164</ele><time>2026-02-19T22:47:09.000Z</time></trkpt>
        <trkpt lat="29.466145" lon="103.284175"><ele>1737.1345</ele><time>2026-02-19T22:47:14.000Z</time></trkpt>
        <trkpt lat="29.466089" lon="103.284176"><ele>1736.88</ele><time>2026-02-19T22:47:20.000Z</time></trkpt>
        <trkpt lat="29.466039" lon="103.284172"><ele>1736.8121</ele><time>2026-02-19T22:47:25.000Z</time></trkpt>
        <trkpt lat="29.465992" lon="103.284147"><ele>1732.4785</ele><time>2026-02-19T22:47:50.000Z</time></trkpt>
        <trkpt lat="29.465965" lon="103.284149"><ele>1733.8375</ele><time>2026-02-19T22:47:54.000Z</time></trkpt>
        <trkpt lat="29.465918" lon="103.284117"><ele>1731.6613</ele><time>2026-02-19T22:47:59.000Z</time></trkpt>
        <trkpt lat="29.465858" lon="103.284099"><ele>1730.3467</ele><time>2026-02-19T22:48:04.000Z</time></trkpt>
        <trkpt lat="29.465809" lon="103.2841"><ele>1730.8264</ele><time>2026-02-19T22:48:08.000Z</time></trkpt>
        <trkpt lat="29.465767" lon="103.284111"><ele>1732.095</ele><time>2026-02-19T22:48:11.000Z</time></trkpt>
        <trkpt lat="29.465721" lon="103.284142"><ele>1734.1971</ele><time>2026-02-19T22:48:15.000Z</time></trkpt>
        <trkpt lat="29.465682" lon="103.284179"><ele>1735.0483</ele><time>2026-02-19T22:48:20.000Z</time></trkpt>
        <trkpt lat="29.465643" lon="103.284216"><ele>1735.6096</ele><time>2026-02-19T22:48:24.000Z</time></trkpt>
        <trkpt lat="29.465595" lon="103.284246"><ele>1735.1361</ele><time>2026-02-19T22:48:29.000Z</time></trkpt>
        <trkpt lat="29.465545" lon="103.284269"><ele>1731.5099</ele><time>2026-02-19T22:48:36.000Z</time></trkpt>
        <trkpt lat="29.465513" lon="103.284292"><ele>1729.313</ele><time>2026-02-19T22:48:40.000Z</time></trkpt>
        <trkpt lat="29.465465" lon="103.284322"><ele>1726.7712</ele><time>2026-02-19T22:48:45.000Z</time></trkpt>
        <trkpt lat="29.465412" lon="103.284347"><ele>1725.3896</ele><time>2026-02-19T22:48:51.000Z</time></trkpt>
        <trkpt lat="29.465365" lon="103.284356"><ele>1724.2992</ele><time>2026-02-19T22:48:56.000Z</time></trkpt>
        <trkpt lat="29.465313" lon="103.284362"><ele>1723.5907</ele><time>2026-02-19T22:49:01.000Z</time></trkpt>
        <trkpt lat="29.465267" lon="103.284367"><ele>1723.8876</ele><time>2026-02-19T22:49:05.000Z</time></trkpt>
        <trkpt lat="29.465213" lon="103.284371"><ele>1723.8529</ele><time>2026-02-19T22:49:09.000Z</time></trkpt>
        <trkpt lat="29.465158" lon="103.284369"><ele>1723.402</ele><time>2026-02-19T22:49:14.000Z</time></trkpt>
        <trkpt lat="29.465105" lon="103.284359"><ele>1723.1886</ele><time>2026-02-19T22:49:19.000Z</time></trkpt>
        <trkpt lat="29.465053" lon="103.284353"><ele>1723.0022</ele><time>2026-02-19T22:49:23.000Z</time></trkpt>
        <trkpt lat="29.464993" lon="103.284344"><ele>1722.1691</ele><time>2026-02-19T22:49:28.000Z</time></trkpt>
        <trkpt lat="29.464936" lon="103.284336"><ele>1722.3673</ele><time>2026-02-19T22:49:33.000Z</time></trkpt>
        <trkpt lat="29.464891" lon="103.284323"><ele>1722.378</ele><time>2026-02-19T22:49:37.000Z</time></trkpt>
        <trkpt lat="29.464839" lon="103.284321"><ele>1721.3049</ele><time>2026-02-19T22:49:42.000Z</time></trkpt>
        <trkpt lat="29.464796" lon="103.284323"><ele>1720.63</ele><time>2026-02-19T22:49:46.000Z</time></trkpt>
        <trkpt lat="29.464751" lon="103.284318"><ele>1720.5793</ele><time>2026-02-19T22:49:50.000Z</time></trkpt>
        <trkpt lat="29.464697" lon="103.284317"><ele>1719.7384</ele><time>2026-02-19T22:49:55.000Z</time></trkpt>
        <trkpt lat="29.464652" lon="103.284322"><ele>1719.1102</ele><time>2026-02-19T22:49:59.000Z</time></trkpt>
        <trkpt lat="29.464593" lon="103.284311"><ele>1718.4623</ele><time>2026-02-19T22:50:04.000Z</time></trkpt>
        <trkpt lat="29.464541" lon="103.284302"><ele>1719.5197</ele><time>2026-02-19T22:50:09.000Z</time></trkpt>
        <trkpt lat="29.464501" lon="103.284287"><ele>1719.7888</ele><time>2026-02-19T22:50:13.000Z</time></trkpt>
        <trkpt lat="29.464463" lon="103.28426"><ele>1719.8872</ele><time>2026-02-19T22:50:17.000Z</time></trkpt>
        <trkpt lat="29.464416" lon="103.284233"><ele>1719.9583</ele><time>2026-02-19T22:50:23.000Z</time></trkpt>
        <trkpt lat="29.464377" lon="103.284204"><ele>1719.8531</ele><time>2026-02-19T22:50:27.000Z</time></trkpt>
        <trkpt lat="29.464329" lon="103.284173"><ele>1720.0671</ele><time>2026-02-19T22:50:32.000Z</time></trkpt>
        <trkpt lat="29.464275" lon="103.284135"><ele>1719.6135</ele><time>2026-02-19T22:50:40.000Z</time></trkpt>
        <trkpt lat="29.464242" lon="103.284101"><ele>1720.1046</ele><time>2026-02-19T22:50:45.000Z</time></trkpt>
        <trkpt lat="29.464204" lon="103.284063"><ele>1721.4949</ele><time>2026-02-19T22:50:49.000Z</time></trkpt>
        <trkpt lat="29.464167" lon="103.284023"><ele>1722.8525</ele><time>2026-02-19T22:50:53.000Z</time></trkpt>
        <trkpt lat="29.464124" lon="103.283997"><ele>1723.6368</ele><time>2026-02-19T22:50:57.000Z</time></trkpt>
        <trkpt lat="29.464078" lon="103.283975"><ele>1722.1375</ele><time>2026-02-19T22:51:01.000Z</time></trkpt>
        <trkpt lat="29.464025" lon="103.283959"><ele>1720.68</ele><time>2026-02-19T22:51:06.000Z</time></trkpt>
        <trkpt lat="29.463978" lon="103.28393"><ele>1718.8408</ele><time>2026-02-19T22:51:11.000Z</time></trkpt>
        <trkpt lat="29.463937" lon="103.283899"><ele>1717.4017</ele><time>2026-02-19T22:51:15.000Z</time></trkpt>
        <trkpt lat="29.463897" lon="103.283878"><ele>1716.702</ele><time>2026-02-19T22:51:19.000Z</time></trkpt>
        <trkpt lat="29.463846" lon="103.283853"><ele>1716.3395</ele><time>2026-02-19T22:51:24.000Z</time></trkpt>
        <trkpt lat="29.463802" lon="103.283829"><ele>1716.909</ele><time>2026-02-19T22:51:28.000Z</time></trkpt>
        <trkpt lat="29.463766" lon="103.283796"><ele>1716.6741</ele><time>2026-02-19T22:51:32.000Z</time></trkpt>
        <trkpt lat="29.463724" lon="103.283752"><ele>1716.4607</ele><time>2026-02-19T22:51:37.000Z</time></trkpt>
        <trkpt lat="29.463692" lon="103.283716"><ele>1716.3206</ele><time>2026-02-19T22:51:41.000Z</time></trkpt>
        <trkpt lat="29.463653" lon="103.283673"><ele>1715.925</ele><time>2026-02-19T22:51:46.000Z</time></trkpt>
        <trkpt lat="29.463619" lon="103.283634"><ele>1715.2097</ele><time>2026-02-19T22:51:51.000Z</time></trkpt>
        <trkpt lat="29.463591" lon="103.283601"><ele>1714.1799</ele><time>2026-02-19T22:51:54.000Z</time></trkpt>
        <trkpt lat="29.463544" lon="103.283561"><ele>1712.81</ele><time>2026-02-19T22:51:59.000Z</time></trkpt>
        <trkpt lat="29.463496" lon="103.283536"><ele>1712.1157</ele><time>2026-02-19T22:52:04.000Z</time></trkpt>
        <trkpt lat="29.463448" lon="103.283516"><ele>1710.8004</ele><time>2026-02-19T22:53:13.000Z</time></trkpt>
        <trkpt lat="29.463417" lon="103.283511"><ele>1711.141</ele><time>2026-02-19T22:53:18.000Z</time></trkpt>
        <trkpt lat="29.463358" lon="103.2835"><ele>1710.2236</ele><time>2026-02-19T22:53:23.000Z</time></trkpt>
        <trkpt lat="29.463307" lon="103.283497"><ele>1710.4799</ele><time>2026-02-19T22:53:27.000Z</time></trkpt>
        <trkpt lat="29.463249" lon="103.283489"><ele>1711.8079</ele><time>2026-02-19T22:53:32.000Z</time></trkpt>
        <trkpt lat="29.463195" lon="103.283477"><ele>1711.9321</ele><time>2026-02-19T22:53:37.000Z</time></trkpt>
        <trkpt lat="29.463149" lon="103.28347"><ele>1711.3622</ele><time>2026-02-19T22:53:41.000Z</time></trkpt>
        <trkpt lat="29.463096" lon="103.283465"><ele>1712.249</ele><time>2026-02-19T22:53:46.000Z</time></trkpt>
        <trkpt lat="29.463048" lon="103.283473"><ele>1712.2224</ele><time>2026-02-19T22:53:50.000Z</time></trkpt>
        <trkpt lat="29.462994" lon="103.283502"><ele>1712.4994</ele><time>2026-02-19T22:53:55.000Z</time></trkpt>
        <trkpt lat="29.462945" lon="103.283515"><ele>1711.9824</ele><time>2026-02-19T22:54:00.000Z</time></trkpt>
        <trkpt lat="29.462893" lon="103.283524"><ele>1711.2825</ele><time>2026-02-19T22:54:05.000Z</time></trkpt>
        <trkpt lat="29.462838" lon="103.283539"><ele>1710.3833</ele><time>2026-02-19T22:54:11.000Z</time></trkpt>
        <trkpt lat="29.46279" lon="103.283564"><ele>1709.4922</ele><time>2026-02-19T22:54:21.000Z</time></trkpt>
        <trkpt lat="29.462748" lon="103.283577"><ele>1708.4541</ele><time>2026-02-19T22:54:32.000Z</time></trkpt>
        <trkpt lat="29.462705" lon="103.283593"><ele>1708.3634</ele><time>2026-02-19T22:54:39.000Z</time></trkpt>
        <trkpt lat="29.462659" lon="103.283628"><ele>1709.3175</ele><time>2026-02-19T22:54:54.000Z</time></trkpt>
        <trkpt lat="29.462617" lon="103.283645"><ele>1708.4731</ele><time>2026-02-19T22:55:02.000Z</time></trkpt>
        <trkpt lat="29.462573" lon="103.283668"><ele>1709.0183</ele><time>2026-02-19T22:55:08.000Z</time></trkpt>
        <trkpt lat="29.462529" lon="103.283677"><ele>1709.3202</ele><time>2026-02-19T22:55:13.000Z</time></trkpt>
        <trkpt lat="29.462475" lon="103.283691"><ele>1710.2625</ele><time>2026-02-19T22:55:29.000Z</time></trkpt>
        <trkpt lat="29.462467" lon="103.28364"><ele>1703.792</ele><time>2026-02-19T22:56:25.000Z</time></trkpt>
        <trkpt lat="29.462417" lon="103.283646"><ele>1706.3834</ele><time>2026-02-19T22:56:46.000Z</time></trkpt>
        <trkpt lat="29.462369" lon="103.283635"><ele>1708.4218</ele><time>2026-02-19T22:56:52.000Z</time></trkpt>
        <trkpt lat="29.462323" lon="103.283627"><ele>1708.633</ele><time>2026-02-19T22:56:57.000Z</time></trkpt>
        <trkpt lat="29.462272" lon="103.283628"><ele>1707.9397</ele><time>2026-02-19T22:57:03.000Z</time></trkpt>
        <trkpt lat="29.462224" lon="103.283628"><ele>1707.3035</ele><time>2026-02-19T22:57:08.000Z</time></trkpt>
        <trkpt lat="29.462181" lon="103.283608"><ele>1707.7386</ele><time>2026-02-19T22:57:13.000Z</time></trkpt>
        <trkpt lat="29.462145" lon="103.283571"><ele>1708.4902</ele><time>2026-02-19T22:57:18.000Z</time></trkpt>
        <trkpt lat="29.462122" lon="103.283519"><ele>1708.815</ele><time>2026-02-19T22:57:22.000Z</time></trkpt>
        <trkpt lat="29.462115" lon="103.283458"><ele>1708.585</ele><time>2026-02-19T22:57:27.000Z</time></trkpt>
        <trkpt lat="29.462126" lon="103.283395"><ele>1709.3986</ele><time>2026-02-19T22:57:37.000Z</time></trkpt>
        <trkpt lat="29.462132" lon="103.28335"><ele>1709.122</ele><time>2026-02-19T22:57:42.000Z</time></trkpt>
        <trkpt lat="29.462122" lon="103.283297"><ele>1708.9476</ele><time>2026-02-19T22:57:47.000Z</time></trkpt>
        <trkpt lat="29.4621" lon="103.283244"><ele>1708.5529</ele><time>2026-02-19T22:57:52.000Z</time></trkpt>
        <trkpt lat="29.462059" lon="103.283196"><ele>1707.2568</ele><time>2026-02-19T22:58:02.000Z</time></trkpt>
        <trkpt lat="29.462014" lon="103.283174"><ele>1707.1157</ele><time>2026-02-19T22:58:13.000Z</time></trkpt>
        <trkpt lat="29.461966" lon="103.283158"><ele>1706.6237</ele><time>2026-02-19T22:58:23.000Z</time></trkpt>
        <trkpt lat="29.461918" lon="103.283144"><ele>1706.3656</ele><time>2026-02-19T22:58:29.000Z</time></trkpt>
        <trkpt lat="29.461877" lon="103.283119"><ele>1706.6643</ele><time>2026-02-19T22:58:33.000Z</time></trkpt>
        <trkpt lat="29.461841" lon="103.283094"><ele>1706.0443</ele><time>2026-02-19T22:58:36.000Z</time></trkpt>
        <trkpt lat="29.461797" lon="103.283054"><ele>1705.8013</ele><time>2026-02-19T22:58:41.000Z</time></trkpt>
        <trkpt lat="29.461756" lon="103.283023"><ele>1706.3356</ele><time>2026-02-19T22:58:47.000Z</time></trkpt>
        <trkpt lat="29.461711" lon="103.282986"><ele>1707.1073</ele><time>2026-02-19T22:58:56.000Z</time></trkpt>
        <trkpt lat="29.461675" lon="103.282951"><ele>1707.2858</ele><time>2026-02-19T22:59:01.000Z</time></trkpt>
        <trkpt lat="29.461635" lon="103.282916"><ele>1707.1418</ele><time>2026-02-19T22:59:05.000Z</time></trkpt>
        <trkpt lat="29.461598" lon="103.282884"><ele>1706.4824</ele><time>2026-02-19T22:59:08.000Z</time></trkpt>
        <trkpt lat="29.461556" lon="103.282855"><ele>1705.0884</ele><time>2026-02-19T22:59:11.000Z</time></trkpt>
        <trkpt lat="29.461509" lon="103.282837"><ele>1703.7435</ele><time>2026-02-19T22:59:14.000Z</time></trkpt>
        <trkpt lat="29.461442" lon="103.282816"><ele>1701.8822</ele><time>2026-02-19T22:59:22.000Z</time></trkpt>
        <trkpt lat="29.461411" lon="103.28279"><ele>1701.2767</ele><time>2026-02-19T22:59:27.000Z</time></trkpt>
        <trkpt lat="29.461366" lon="103.282763"><ele>1700.0438</ele><time>2026-02-19T22:59:32.000Z</time></trkpt>
        <trkpt lat="29.461333" lon="103.282721"><ele>1699.3048</ele><time>2026-02-19T22:59:37.000Z</time></trkpt>
        <trkpt lat="29.461287" lon="103.282682"><ele>1699.2336</ele><time>2026-02-19T22:59:45.000Z</time></trkpt>
        <trkpt lat="29.461241" lon="103.282667"><ele>1699.1742</ele><time>2026-02-19T22:59:53.000Z</time></trkpt>
        <trkpt lat="29.461201" lon="103.28265"><ele>1699.228</ele><time>2026-02-19T22:59:57.000Z</time></trkpt>
        <trkpt lat="29.46115" lon="103.28262"><ele>1699.1404</ele><time>2026-02-19T23:00:02.000Z</time></trkpt>
        <trkpt lat="29.461106" lon="103.282597"><ele>1698.847</ele><time>2026-02-19T23:00:06.000Z</time></trkpt>
        <trkpt lat="29.461058" lon="103.282565"><ele>1698.0769</ele><time>2026-02-19T23:00:11.000Z</time></trkpt>
        <trkpt lat="29.46101" lon="103.282531"><ele>1697.1217</ele><time>2026-02-19T23:00:16.000Z</time></trkpt>
        <trkpt lat="29.460958" lon="103.282506"><ele>1696.8114</ele><time>2026-02-19T23:00:21.000Z</time></trkpt>
        <trkpt lat="29.460908" lon="103.28248"><ele>1696.5133</ele><time>2026-02-19T23:00:26.000Z</time></trkpt>
        <trkpt lat="29.460855" lon="103.282456"><ele>1695.7103</ele><time>2026-02-19T23:00:31.000Z</time></trkpt>
        <trkpt lat="29.46081" lon="103.282435"><ele>1695.8115</ele><time>2026-02-19T23:00:35.000Z</time></trkpt>
        <trkpt lat="29.46076" lon="103.282401"><ele>1695.2859</ele><time>2026-02-19T23:00:40.000Z</time></trkpt>
        <trkpt lat="29.460713" lon="103.28237"><ele>1695.2174</ele><time>2026-02-19T23:00:45.000Z</time></trkpt>
        <trkpt lat="29.460666" lon="103.282341"><ele>1694.9757</ele><time>2026-02-19T23:00:51.000Z</time></trkpt>
        <trkpt lat="29.460618" lon="103.282314"><ele>1695.0161</ele><time>2026-02-19T23:00:56.000Z</time></trkpt>
        <trkpt lat="29.460571" lon="103.282287"><ele>1695.8065</ele><time>2026-02-19T23:01:01.000Z</time></trkpt>
        <trkpt lat="29.460522" lon="103.282262"><ele>1695.8496</ele><time>2026-02-19T23:01:06.000Z</time></trkpt>
        <trkpt lat="29.460476" lon="103.282234"><ele>1695.2714</ele><time>2026-02-19T23:01:11.000Z</time></trkpt>
        <trkpt lat="29.460431" lon="103.282199"><ele>1694.4097</ele><time>2026-02-19T23:01:16.000Z</time></trkpt>
        <trkpt lat="29.460388" lon="103.282157"><ele>1693.8414</ele><time>2026-02-19T23:01:23.000Z</time></trkpt>
        <trkpt lat="29.460348" lon="103.28213"><ele>1693.3429</ele><time>2026-02-19T23:01:28.000Z</time></trkpt>
        <trkpt lat="29.460309" lon="103.282098"><ele>1692.6498</ele><time>2026-02-19T23:01:33.000Z</time></trkpt>
        <trkpt lat="29.460274" lon="103.282065"><ele>1692.4318</ele><time>2026-02-19T23:01:37.000Z</time></trkpt>
        <trkpt lat="29.460228" lon="103.282035"><ele>1691.9227</ele><time>2026-02-19T23:01:42.000Z</time></trkpt>
        <trkpt lat="29.460185" lon="103.282003"><ele>1692.3186</ele><time>2026-02-19T23:01:46.000Z</time></trkpt>
        <trkpt lat="29.460137" lon="103.281975"><ele>1692.652</ele><time>2026-02-19T23:01:51.000Z</time></trkpt>
        <trkpt lat="29.460092" lon="103.281941"><ele>1691.7084</ele><time>2026-02-19T23:01:56.000Z</time></trkpt>
        <trkpt lat="29.460051" lon="103.281908"><ele>1691.0177</ele><time>2026-02-19T23:02:00.000Z</time></trkpt>
        <trkpt lat="29.460015" lon="103.281881"><ele>1690.5914</ele><time>2026-02-19T23:02:03.000Z</time></trkpt>
        <trkpt lat="29.459973" lon="103.28186"><ele>1690.2097</ele><time>2026-02-19T23:02:06.000Z</time></trkpt>
        <trkpt lat="29.459925" lon="103.281839"><ele>1690.5634</ele><time>2026-02-19T23:02:09.000Z</time></trkpt>
        <trkpt lat="29.459876" lon="103.281821"><ele>1690.5764</ele><time>2026-02-19T23:02:12.000Z</time></trkpt>
        <trkpt lat="29.459838" lon="103.281807"><ele>1690.3547</ele><time>2026-02-19T23:02:14.000Z</time></trkpt>
        <trkpt lat="29.45979" lon="103.281784"><ele>1689.8641</ele><time>2026-02-19T23:02:17.000Z</time></trkpt>
        <trkpt lat="29.45974" lon="103.281755"><ele>1689.7559</ele><time>2026-02-19T23:02:21.000Z</time></trkpt>
        <trkpt lat="29.459689" lon="103.281735"><ele>1689.7787</ele><time>2026-02-19T23:02:25.000Z</time></trkpt>
        <trkpt lat="29.459638" lon="103.281716"><ele>1690.4202</ele><time>2026-02-19T23:02:29.000Z</time></trkpt>
        <trkpt lat="29.459581" lon="103.281701"><ele>1689.4406</ele><time>2026-02-19T23:02:35.000Z</time></trkpt>
        <trkpt lat="29.459536" lon="103.281717"><ele>1688.6018</ele><time>2026-02-19T23:02:41.000Z</time></trkpt>
        <trkpt lat="29.459494" lon="103.281749"><ele>1687.537</ele><time>2026-02-19T23:02:51.000Z</time></trkpt>
        <trkpt lat="29.459449" lon="103.281774"><ele>1685.722</ele><time>2026-02-19T23:03:02.000Z</time></trkpt>
        <trkpt lat="29.459408" lon="103.281789"><ele>1684.8773</ele><time>2026-02-19T23:03:07.000Z</time></trkpt>
        <trkpt lat="29.45937" lon="103.281803"><ele>1685.112</ele><time>2026-02-19T23:03:10.000Z</time></trkpt>
        <trkpt lat="29.459318" lon="103.281826"><ele>1684.4247</ele><time>2026-02-19T23:03:15.000Z</time></trkpt>
        <trkpt lat="29.459268" lon="103.281844"><ele>1683.6533</ele><time>2026-02-19T23:03:19.000Z</time></trkpt>
        <trkpt lat="29.459206" lon="103.281846"><ele>1684.0929</ele><time>2026-02-19T23:03:25.000Z</time></trkpt>
        <trkpt lat="29.459156" lon="103.281827"><ele>1684.976</ele><time>2026-02-19T23:03:30.000Z</time></trkpt>
        <trkpt lat="29.459108" lon="103.281794"><ele>1685.0271</ele><time>2026-02-19T23:03:35.000Z</time></trkpt>
        <trkpt lat="29.459068" lon="103.281751"><ele>1684.7452</ele><time>2026-02-19T23:03:40.000Z</time></trkpt>
        <trkpt lat="29.459025" lon="103.281709"><ele>1683.8265</ele><time>2026-02-19T23:03:45.000Z</time></trkpt>
        <trkpt lat="29.458982" lon="103.281671"><ele>1683.892</ele><time>2026-02-19T23:03:50.000Z</time></trkpt>
        <trkpt lat="29.458937" lon="103.28164"><ele>1685.037</ele><time>2026-02-19T23:04:00.000Z</time></trkpt>
        <trkpt lat="29.45891" lon="103.281618"><ele>1684.2953</ele><time>2026-02-19T23:04:04.000Z</time></trkpt>
        <trkpt lat="29.458869" lon="103.281579"><ele>1683.4493</ele><time>2026-02-19T23:04:09.000Z</time></trkpt>
        <trkpt lat="29.458832" lon="103.281542"><ele>1683.4203</ele><time>2026-02-19T23:04:13.000Z</time></trkpt>
        <trkpt lat="29.458782" lon="103.281508"><ele>1683.9264</ele><time>2026-02-19T23:04:18.000Z</time></trkpt>
        <trkpt lat="29.458732" lon="103.281482"><ele>1684.6504</ele><time>2026-02-19T23:04:23.000Z</time></trkpt>
        <trkpt lat="29.458685" lon="103.281476"><ele>1684.0305</ele><time>2026-02-19T23:04:27.000Z</time></trkpt>
        <trkpt lat="29.458634" lon="103.281468"><ele>1683.2651</ele><time>2026-02-19T23:04:31.000Z</time></trkpt>
        <trkpt lat="29.458578" lon="103.281456"><ele>1681.5586</ele><time>2026-02-19T23:04:36.000Z</time></trkpt>
        <trkpt lat="29.458524" lon="103.28145"><ele>1680.0067</ele><time>2026-02-19T23:04:40.000Z</time></trkpt>
        <trkpt lat="29.458477" lon="103.281426"><ele>1678.4619</ele><time>2026-02-19T23:04:43.000Z</time></trkpt>
        <trkpt lat="29.45844" lon="103.281406"><ele>1677.4827</ele><time>2026-02-19T23:04:45.000Z</time></trkpt>
        <trkpt lat="29.458386" lon="103.281383"><ele>1676.107</ele><time>2026-02-19T23:04:48.000Z</time></trkpt>
        <trkpt lat="29.458329" lon="103.28136"><ele>1674.991</ele><time>2026-02-19T23:04:51.000Z</time></trkpt>
        <trkpt lat="29.458271" lon="103.281348"><ele>1675.7421</ele><time>2026-02-19T23:04:54.000Z</time></trkpt>
        <trkpt lat="29.458213" lon="103.281344"><ele>1675.7544</ele><time>2026-02-19T23:04:58.000Z</time></trkpt>
        <trkpt lat="29.45817" lon="103.281348"><ele>1675.5682</ele><time>2026-02-19T23:05:02.000Z</time></trkpt>
        <trkpt lat="29.458115" lon="103.28136"><ele>1676.3545</ele><time>2026-02-19T23:05:06.000Z</time></trkpt>
        <trkpt lat="29.458065" lon="103.281383"><ele>1677.5621</ele><time>2026-02-19T23:05:10.000Z</time></trkpt>
        <trkpt lat="29.458006" lon="103.281419"><ele>1679.2109</ele><time>2026-02-19T23:05:17.000Z</time></trkpt>
        <trkpt lat="29.457969" lon="103.281452"><ele>1678.8918</ele><time>2026-02-19T23:05:21.000Z</time></trkpt>
        <trkpt lat="29.457926" lon="103.281475"><ele>1678.7783</ele><time>2026-02-19T23:05:25.000Z</time></trkpt>
        <trkpt lat="29.457869" lon="103.281506"><ele>1676.3243</ele><time>2026-02-19T23:05:33.000Z</time></trkpt>
        <trkpt lat="29.457831" lon="103.281526"><ele>1676.2024</ele><time>2026-02-19T23:05:37.000Z</time></trkpt>
        <trkpt lat="29.457785" lon="103.281563"><ele>1675.3253</ele><time>2026-02-19T23:05:44.000Z</time></trkpt>
        <trkpt lat="29.457747" lon="103.28159"><ele>1676.4597</ele><time>2026-02-19T23:05:50.000Z</time></trkpt>
        <trkpt lat="29.457703" lon="103.281612"><ele>1676.5228</ele><time>2026-02-19T23:05:54.000Z</time></trkpt>
        <trkpt lat="29.45765" lon="103.281627"><ele>1675.998</ele><time>2026-02-19T23:05:59.000Z</time></trkpt>
        <trkpt lat="29.457595" lon="103.281651"><ele>1674.3397</ele><time>2026-02-19T23:06:03.000Z</time></trkpt>
        <trkpt lat="29.457552" lon="103.281671"><ele>1672.1941</ele><time>2026-02-19T23:06:07.000Z</time></trkpt>
        <trkpt lat="29.457529" lon="103.281727"><ele>1670.3617</ele><time>2026-02-19T23:06:12.000Z</time></trkpt>
        <trkpt lat="29.457522" lon="103.281791"><ele>1668.1921</ele><time>2026-02-19T23:06:18.000Z</time></trkpt>
        <trkpt lat="29.457527" lon="103.281845"><ele>1668.2972</ele><time>2026-02-19T23:06:23.000Z</time></trkpt>
        <trkpt lat="29.457515" lon="103.2819"><ele>1666.3785</ele><time>2026-02-19T23:06:29.000Z</time></trkpt>
        <trkpt lat="29.45747" lon="103.281922"><ele>1662.088</ele><time>2026-02-19T23:06:36.000Z</time></trkpt>
        <trkpt lat="29.457433" lon="103.281895"><ele>1660.4712</ele><time>2026-02-19T23:06:40.000Z</time></trkpt>
        <trkpt lat="29.457394" lon="103.281871"><ele>1660.2544</ele><time>2026-02-19T23:06:43.000Z</time></trkpt>
        <trkpt lat="29.45733" lon="103.281836"><ele>1659.497</ele><time>2026-02-19T23:06:50.000Z</time></trkpt>
        <trkpt lat="29.45728" lon="103.28183"><ele>1659.7075</ele><time>2026-02-19T23:06:55.000Z</time></trkpt>
        <trkpt lat="29.457226" lon="103.281838"><ele>1661.0824</ele><time>2026-02-19T23:07:00.000Z</time></trkpt>
        <trkpt lat="29.45717" lon="103.281853"><ele>1661.1136</ele><time>2026-02-19T23:07:05.000Z</time></trkpt>
        <trkpt lat="29.457135" lon="103.281837"><ele>1660.9832</ele><time>2026-02-19T23:07:09.000Z</time></trkpt>
        <trkpt lat="29.457101" lon="103.281796"><ele>1660.6522</ele><time>2026-02-19T23:07:13.000Z</time></trkpt>
        <trkpt lat="29.457068" lon="103.281749"><ele>1660.7448</ele><time>2026-02-19T23:07:17.000Z</time></trkpt>
        <trkpt lat="29.457029" lon="103.281707"><ele>1661.1935</ele><time>2026-02-19T23:07:21.000Z</time></trkpt>
        <trkpt lat="29.456986" lon="103.281668"><ele>1660.0747</ele><time>2026-02-19T23:07:26.000Z</time></trkpt>
        <trkpt lat="29.456942" lon="103.281671"><ele>1659.6494</ele><time>2026-02-19T23:07:31.000Z</time></trkpt>
        <trkpt lat="29.456893" lon="103.281692"><ele>1658.0502</ele><time>2026-02-19T23:07:38.000Z</time></trkpt>
        <trkpt lat="29.456851" lon="103.281714"><ele>1656.4897</ele><time>2026-02-19T23:07:42.000Z</time></trkpt>
        <trkpt lat="29.456802" lon="103.281729"><ele>1655.1079</ele><time>2026-02-19T23:07:46.000Z</time></trkpt>
        <trkpt lat="29.456753" lon="103.281712"><ele>1655.26</ele><time>2026-02-19T23:07:50.000Z</time></trkpt>
        <trkpt lat="29.456722" lon="103.281671"><ele>1655.5503</ele><time>2026-02-19T23:07:54.000Z</time></trkpt>
        <trkpt lat="29.456713" lon="103.281606"><ele>1656.6631</ele><time>2026-02-19T23:07:59.000Z</time></trkpt>
        <trkpt lat="29.456703" lon="103.281548"><ele>1656.5004</ele><time>2026-02-19T23:08:03.000Z</time></trkpt>
      </trkseg>
  </trk>
</gpx>